<?xml version='1.0' encoding='UTF-8'?><gpx version="1.1" creator="JPX - https://github.com/jenetics/jpx" xmlns="http://www.topografix.com/GPX/1/1"><trk><trkseg><trkpt lat="38.8388008" lon="16.2628465"><ele>35.0</ele><time>2026-04-19T07:24:32.585Z</time></trkpt><trkpt lat="38.8387284" lon="16.2628876"><ele>35.0</ele><time>2026-04-19T07:24:51.618Z</time></trkpt><trkpt lat="38.8386839" lon="16.2629557"><ele>35.0</ele><time>2026-04-19T07:24:57.625Z</time></trkpt><trkpt lat="38.8386111" lon="16.263042"><ele>35.0</ele><time>2026-04-19T07:25:25.61Z</time></trkpt><trkpt lat="38.8385202" lon="16.263065"><ele>35.0</ele><time>2026-04-19T07:25:27.615Z</time></trkpt><trkpt lat="38.8384849" lon="16.2631341"><ele>35.0</ele><time>2026-04-19T07:25:28.631Z</time></trkpt><trkpt lat="38.8384463" lon="16.2632032"><ele>35.4</ele><time>2026-04-19T07:25:29.622Z</time></trkpt><trkpt lat="38.8384154" lon="16.2632865"><ele>35.8</ele><time>2026-04-19T07:25:30.628Z</time></trkpt><trkpt lat="38.8383734" lon="16.2634522"><ele>36.2</ele><time>2026-04-19T07:25:32.631Z</time></trkpt><trkpt lat="38.8383497" lon="16.2635678"><ele>36.6</ele><time>2026-04-19T07:25:33.615Z</time></trkpt><trkpt lat="38.8383131" lon="16.2637352"><ele>37.0</ele><time>2026-04-19T07:25:34.618Z</time></trkpt><trkpt lat="38.8382727" lon="16.2639075"><ele>37.333333333333336</ele><time>2026-04-19T07:25:35.619Z</time></trkpt><trkpt lat="38.8382396" lon="16.2640472"><ele>37.66666666666667</ele><time>2026-04-19T07:25:36.617Z</time></trkpt><trkpt lat="38.8382202" lon="16.2641511"><ele>38.0</ele><time>2026-04-19T07:25:37.637Z</time></trkpt><trkpt lat="38.8381971" lon="16.2642446"><ele>38.333333333333336</ele><time>2026-04-19T07:25:38.617Z</time></trkpt><trkpt lat="38.8381731" lon="16.2643349"><ele>38.666666666666664</ele><time>2026-04-19T07:25:39.621Z</time></trkpt><trkpt lat="38.838147" lon="16.264439"><ele>39.0</ele><time>2026-04-19T07:25:40.615Z</time></trkpt><trkpt lat="38.838114" lon="16.264571"><ele>39.0</ele><time>2026-04-19T07:25:41.615Z</time></trkpt><trkpt lat="38.8380735" lon="16.2647259"><ele>39.0</ele><time>2026-04-19T07:25:42.615Z</time></trkpt><trkpt lat="38.8380359" lon="16.2648748"><ele>39.0</ele><time>2026-04-19T07:25:43.62Z</time></trkpt><trkpt lat="38.8379986" lon="16.2650215"><ele>39.0</ele><time>2026-04-19T07:25:44.612Z</time></trkpt><trkpt lat="38.8379623" lon="16.2651792"><ele>39.333333333333336</ele><time>2026-04-19T07:25:45.619Z</time></trkpt><trkpt lat="38.8379194" lon="16.2653716"><ele>39.66666666666667</ele><time>2026-04-19T07:25:46.618Z</time></trkpt><trkpt lat="38.8378758" lon="16.2655658"><ele>40.0</ele><time>2026-04-19T07:25:47.613Z</time></trkpt><trkpt lat="38.8378307" lon="16.265745"><ele>40.75</ele><time>2026-04-19T07:25:48.61Z</time></trkpt><trkpt lat="38.8377863" lon="16.2659085"><ele>41.5</ele><time>2026-04-19T07:25:49.612Z</time></trkpt><trkpt lat="38.8377451" lon="16.2660561"><ele>42.25</ele><time>2026-04-19T07:25:50.614Z</time></trkpt><trkpt lat="38.8377051" lon="16.2661898"><ele>43.0</ele><time>2026-04-19T07:25:51.613Z</time></trkpt><trkpt lat="38.8376618" lon="16.2663315"><ele>43.5</ele><time>2026-04-19T07:25:52.627Z</time></trkpt><trkpt lat="38.8376131" lon="16.2664762"><ele>44.0</ele><time>2026-04-19T07:25:53.611Z</time></trkpt><trkpt lat="38.8375635" lon="16.2666101"><ele>44.5</ele><time>2026-04-19T07:25:54.616Z</time></trkpt><trkpt lat="38.8375146" lon="16.2667342"><ele>45.0</ele><time>2026-04-19T07:25:55.622Z</time></trkpt><trkpt lat="38.8374661" lon="16.2668527"><ele>45.0</ele><time>2026-04-19T07:25:56.612Z</time></trkpt><trkpt lat="38.8374142" lon="16.2669799"><ele>45.0</ele><time>2026-04-19T07:25:57.631Z</time></trkpt><trkpt lat="38.8373541" lon="16.2671246"><ele>45.0</ele><time>2026-04-19T07:25:58.618Z</time></trkpt><trkpt lat="38.8372863" lon="16.2672909"><ele>45.0</ele><time>2026-04-19T07:25:59.616Z</time></trkpt><trkpt lat="38.8372046" lon="16.2674886"><ele>46.0</ele><time>2026-04-19T07:26:00.62Z</time></trkpt><trkpt lat="38.8371155" lon="16.2676977"><ele>47.0</ele><time>2026-04-19T07:26:01.616Z</time></trkpt><trkpt lat="38.8370317" lon="16.2679299"><ele>48.0</ele><time>2026-04-19T07:26:02.63Z</time></trkpt><trkpt lat="38.8369499" lon="16.2681839"><ele>48.0</ele><time>2026-04-19T07:26:03.62Z</time></trkpt><trkpt lat="38.8368658" lon="16.268458"><ele>48.0</ele><time>2026-04-19T07:26:04.619Z</time></trkpt><trkpt lat="38.8367779" lon="16.2687471"><ele>48.0</ele><time>2026-04-19T07:26:05.619Z</time></trkpt><trkpt lat="38.8366819" lon="16.2690467"><ele>48.0</ele><time>2026-04-19T07:26:06.615Z</time></trkpt><trkpt lat="38.8365724" lon="16.2693486"><ele>48.0</ele><time>2026-04-19T07:26:07.628Z</time></trkpt><trkpt lat="38.8364565" lon="16.2696292"><ele>48.0</ele><time>2026-04-19T07:26:08.611Z</time></trkpt><trkpt lat="38.8363497" lon="16.2698712"><ele>48.33333333333333</ele><time>2026-04-19T07:26:09.616Z</time></trkpt><trkpt lat="38.8362562" lon="16.2700946"><ele>48.666666666666664</ele><time>2026-04-19T07:26:10.614Z</time></trkpt><trkpt lat="38.8361643" lon="16.2703105"><ele>49.0</ele><time>2026-04-19T07:26:11.612Z</time></trkpt><trkpt lat="38.8360556" lon="16.270518"><ele>51.0</ele><time>2026-04-19T07:26:12.611Z</time></trkpt><trkpt lat="38.8359398" lon="16.2706936"><ele>53.0</ele><time>2026-04-19T07:26:13.616Z</time></trkpt><trkpt lat="38.8358271" lon="16.2708352"><ele>55.0</ele><time>2026-04-19T07:26:14.612Z</time></trkpt><trkpt lat="38.8357246" lon="16.2709557"><ele>55.0</ele><time>2026-04-19T07:26:15.643Z</time></trkpt><trkpt lat="38.8356326" lon="16.2710584"><ele>55.0</ele><time>2026-04-19T07:26:16.61Z</time></trkpt><trkpt lat="38.8355528" lon="16.2711448"><ele>55.0</ele><time>2026-04-19T07:26:17.617Z</time></trkpt><trkpt lat="38.8354827" lon="16.2712132"><ele>55.0</ele><time>2026-04-19T07:26:18.617Z</time></trkpt><trkpt lat="38.8354225" lon="16.2712718"><ele>55.0</ele><time>2026-04-19T07:26:19.62Z</time></trkpt><trkpt lat="38.8353557" lon="16.2713838"><ele>55.0</ele><time>2026-04-19T07:26:21.617Z</time></trkpt><trkpt lat="38.835434" lon="16.2715305"><ele>55.0</ele><time>2026-04-19T07:26:23.614Z</time></trkpt><trkpt lat="38.8355089" lon="16.2716133"><ele>55.0</ele><time>2026-04-19T07:26:24.608Z</time></trkpt><trkpt lat="38.8356155" lon="16.2716774"><ele>55.0</ele><time>2026-04-19T07:26:25.615Z</time></trkpt><trkpt lat="38.8357361" lon="16.2716622"><ele>55.0</ele><time>2026-04-19T07:26:26.612Z</time></trkpt><trkpt lat="38.8358714" lon="16.2716503"><ele>55.0</ele><time>2026-04-19T07:26:27.613Z</time></trkpt><trkpt lat="38.8359781" lon="16.2716518"><ele>55.0</ele><time>2026-04-19T07:26:28.615Z</time></trkpt><trkpt lat="38.83607" lon="16.2716777"><ele>55.0</ele><time>2026-04-19T07:26:29.613Z</time></trkpt><trkpt lat="38.8361474" lon="16.2717333"><ele>55.0</ele><time>2026-04-19T07:26:30.613Z</time></trkpt><trkpt lat="38.8362104" lon="16.2717973"><ele>54.83333333333333</ele><time>2026-04-19T07:26:31.615Z</time></trkpt><trkpt lat="38.8362762" lon="16.2718652"><ele>54.666666666666664</ele><time>2026-04-19T07:26:32.62Z</time></trkpt><trkpt lat="38.8363253" lon="16.271918"><ele>54.5</ele><time>2026-04-19T07:26:33.619Z</time></trkpt><trkpt lat="38.8363873" lon="16.2719882"><ele>54.33333333333333</ele><time>2026-04-19T07:26:34.612Z</time></trkpt><trkpt lat="38.8364473" lon="16.2720781"><ele>54.166666666666664</ele><time>2026-04-19T07:26:35.634Z</time></trkpt><trkpt lat="38.8365101" lon="16.2721808"><ele>54.0</ele><time>2026-04-19T07:26:36.618Z</time></trkpt><trkpt lat="38.8365555" lon="16.2722881"><ele>54.0</ele><time>2026-04-19T07:26:37.617Z</time></trkpt><trkpt lat="38.8366086" lon="16.2724254"><ele>54.0</ele><time>2026-04-19T07:26:38.614Z</time></trkpt><trkpt lat="38.8366587" lon="16.2725723"><ele>54.0</ele><time>2026-04-19T07:26:39.611Z</time></trkpt><trkpt lat="38.8366999" lon="16.2727052"><ele>54.0</ele><time>2026-04-19T07:26:40.614Z</time></trkpt><trkpt lat="38.8367259" lon="16.272838"><ele>54.0</ele><time>2026-04-19T07:26:41.613Z</time></trkpt><trkpt lat="38.8367487" lon="16.2729833"><ele>54.00000000000001</ele><time>2026-04-19T07:26:42.628Z</time></trkpt><trkpt lat="38.8367725" lon="16.2731193"><ele>54.00000000000001</ele><time>2026-04-19T07:26:43.616Z</time></trkpt><trkpt lat="38.8368041" lon="16.2732494"><ele>54.0</ele><time>2026-04-19T07:26:44.606Z</time></trkpt><trkpt lat="38.8368379" lon="16.2733709"><ele>54.0</ele><time>2026-04-19T07:26:46.612Z</time></trkpt><trkpt lat="38.8368627" lon="16.2734481"><ele>53.5</ele><time>2026-04-19T07:26:48.61Z</time></trkpt><trkpt lat="38.8368803" lon="16.2735416"><ele>53.0</ele><time>2026-04-19T07:26:50.615Z</time></trkpt><trkpt lat="38.836904" lon="16.2736443"><ele>52.5</ele><time>2026-04-19T07:26:52.616Z</time></trkpt><trkpt lat="38.8369352" lon="16.2737851"><ele>52.0</ele><time>2026-04-19T07:26:54.615Z</time></trkpt><trkpt lat="38.8369597" lon="16.2738684"><ele>51.5</ele><time>2026-04-19T07:26:55.612Z</time></trkpt><trkpt lat="38.8369877" lon="16.2739604"><ele>51.0</ele><time>2026-04-19T07:26:56.613Z</time></trkpt><trkpt lat="38.837016" lon="16.2740486"><ele>51.0</ele><time>2026-04-19T07:26:57.621Z</time></trkpt><trkpt lat="38.8370552" lon="16.2741454"><ele>51.0</ele><time>2026-04-19T07:26:58.618Z</time></trkpt><trkpt lat="38.8370975" lon="16.2742447"><ele>51.0</ele><time>2026-04-19T07:26:59.622Z</time></trkpt><trkpt lat="38.8371333" lon="16.2743251"><ele>51.0</ele><time>2026-04-19T07:27:00.622Z</time></trkpt><trkpt lat="38.8372008" lon="16.2744596"><ele>51.0</ele><time>2026-04-19T07:27:02.619Z</time></trkpt><trkpt lat="38.8372482" lon="16.2745456"><ele>51.0</ele><time>2026-04-19T07:27:03.611Z</time></trkpt><trkpt lat="38.8373186" lon="16.2746761"><ele>51.0</ele><time>2026-04-19T07:27:04.634Z</time></trkpt><trkpt lat="38.8374086" lon="16.2748422"><ele>51.0</ele><time>2026-04-19T07:27:05.615Z</time></trkpt><trkpt lat="38.8375075" lon="16.275027"><ele>51.0</ele><time>2026-04-19T07:27:06.61Z</time></trkpt><trkpt lat="38.8375929" lon="16.2751866"><ele>51.0</ele><time>2026-04-19T07:27:07.618Z</time></trkpt><trkpt lat="38.8376674" lon="16.2753226"><ele>51.0</ele><time>2026-04-19T07:27:08.622Z</time></trkpt><trkpt lat="38.8377414" lon="16.2754556"><ele>51.0</ele><time>2026-04-19T07:27:09.629Z</time></trkpt><trkpt lat="38.8378084" lon="16.2755817"><ele>51.75</ele><time>2026-04-19T07:27:10.614Z</time></trkpt><trkpt lat="38.8378695" lon="16.275699"><ele>52.5</ele><time>2026-04-19T07:27:11.617Z</time></trkpt><trkpt lat="38.8379299" lon="16.2758199"><ele>53.25</ele><time>2026-04-19T07:27:12.616Z</time></trkpt><trkpt lat="38.8379958" lon="16.2759565"><ele>54.0</ele><time>2026-04-19T07:27:13.615Z</time></trkpt><trkpt lat="38.8380585" lon="16.2760903"><ele>54.0</ele><time>2026-04-19T07:27:14.613Z</time></trkpt><trkpt lat="38.8381162" lon="16.2762163"><ele>54.00000000000001</ele><time>2026-04-19T07:27:15.615Z</time></trkpt><trkpt lat="38.838173" lon="16.2763442"><ele>54.00000000000001</ele><time>2026-04-19T07:27:16.626Z</time></trkpt><trkpt lat="38.8382262" lon="16.2764612"><ele>54.0</ele><time>2026-04-19T07:27:17.618Z</time></trkpt><trkpt lat="38.8382747" lon="16.2765658"><ele>54.0</ele><time>2026-04-19T07:27:18.619Z</time></trkpt><trkpt lat="38.8383113" lon="16.2766445"><ele>54.0</ele><time>2026-04-19T07:27:19.616Z</time></trkpt><trkpt lat="38.8383479" lon="16.2767158"><ele>54.0</ele><time>2026-04-19T07:27:20.618Z</time></trkpt><trkpt lat="38.8383848" lon="16.2767926"><ele>54.0</ele><time>2026-04-19T07:27:21.607Z</time></trkpt><trkpt lat="38.8384219" lon="16.276879"><ele>54.0</ele><time>2026-04-19T07:27:22.608Z</time></trkpt><trkpt lat="38.8384594" lon="16.2769749"><ele>54.0</ele><time>2026-04-19T07:27:23.621Z</time></trkpt><trkpt lat="38.8384988" lon="16.2770856"><ele>54.0</ele><time>2026-04-19T07:27:24.618Z</time></trkpt><trkpt lat="38.8385351" lon="16.2772113"><ele>54.25</ele><time>2026-04-19T07:27:25.613Z</time></trkpt><trkpt lat="38.8385706" lon="16.2773448"><ele>54.5</ele><time>2026-04-19T07:27:26.628Z</time></trkpt><trkpt lat="38.8386059" lon="16.2774819"><ele>54.75</ele><time>2026-04-19T07:27:27.615Z</time></trkpt><trkpt lat="38.8386407" lon="16.2776235"><ele>55.0</ele><time>2026-04-19T07:27:28.618Z</time></trkpt><trkpt lat="38.8386807" lon="16.2777682"><ele>55.0</ele><time>2026-04-19T07:27:29.617Z</time></trkpt><trkpt lat="38.8387371" lon="16.277916"><ele>55.0</ele><time>2026-04-19T07:27:30.617Z</time></trkpt><trkpt lat="38.8388039" lon="16.2780572"><ele>55.0</ele><time>2026-04-19T07:27:31.64Z</time></trkpt><trkpt lat="38.8388677" lon="16.2781844"><ele>55.0</ele><time>2026-04-19T07:27:32.611Z</time></trkpt><trkpt lat="38.8389149" lon="16.2782713"><ele>54.8</ele><time>2026-04-19T07:27:33.613Z</time></trkpt><trkpt lat="38.8389675" lon="16.2783902"><ele>54.6</ele><time>2026-04-19T07:27:35.618Z</time></trkpt><trkpt lat="38.8389241" lon="16.2784928"><ele>54.400000000000006</ele><time>2026-04-19T07:27:37.617Z</time></trkpt><trkpt lat="38.838846" lon="16.2785527"><ele>54.2</ele><time>2026-04-19T07:27:38.629Z</time></trkpt><trkpt lat="38.8387787" lon="16.2786378"><ele>54.0</ele><time>2026-04-19T07:27:39.612Z</time></trkpt><trkpt lat="38.8387091" lon="16.2787137"><ele>54.0</ele><time>2026-04-19T07:27:40.611Z</time></trkpt><trkpt lat="38.8386344" lon="16.2788006"><ele>54.00000000000001</ele><time>2026-04-19T07:27:41.614Z</time></trkpt><trkpt lat="38.838557" lon="16.2788868"><ele>54.00000000000001</ele><time>2026-04-19T07:27:42.619Z</time></trkpt><trkpt lat="38.8384736" lon="16.2789809"><ele>54.0</ele><time>2026-04-19T07:27:43.613Z</time></trkpt><trkpt lat="38.8383884" lon="16.2790654"><ele>54.0</ele><time>2026-04-19T07:27:44.615Z</time></trkpt><trkpt lat="38.8383106" lon="16.279164"><ele>54.400000000000006</ele><time>2026-04-19T07:27:45.619Z</time></trkpt><trkpt lat="38.8382398" lon="16.2792665"><ele>54.800000000000004</ele><time>2026-04-19T07:27:46.613Z</time></trkpt><trkpt lat="38.8381886" lon="16.2793691"><ele>55.199999999999996</ele><time>2026-04-19T07:27:47.621Z</time></trkpt><trkpt lat="38.8381573" lon="16.2794784"><ele>55.599999999999994</ele><time>2026-04-19T07:27:48.62Z</time></trkpt><trkpt lat="38.8381384" lon="16.27958"><ele>56.0</ele><time>2026-04-19T07:27:49.615Z</time></trkpt><trkpt lat="38.8380971" lon="16.2796862"><ele>56.0</ele><time>2026-04-19T07:27:51.626Z</time></trkpt><trkpt lat="38.8379749" lon="16.2796608"><ele>55.99999999999999</ele><time>2026-04-19T07:27:53.619Z</time></trkpt><trkpt lat="38.8378802" lon="16.2796391"><ele>55.99999999999999</ele><time>2026-04-19T07:27:54.615Z</time></trkpt><trkpt lat="38.8377773" lon="16.2796295"><ele>56.0</ele><time>2026-04-19T07:27:55.611Z</time></trkpt><trkpt lat="38.8376692" lon="16.2795912"><ele>56.0</ele><time>2026-04-19T07:27:56.62Z</time></trkpt><trkpt lat="38.8375748" lon="16.2795439"><ele>56.00000000000001</ele><time>2026-04-19T07:27:57.614Z</time></trkpt><trkpt lat="38.837484" lon="16.2795259"><ele>56.0</ele><time>2026-04-19T07:27:58.613Z</time></trkpt><trkpt lat="38.837396" lon="16.2795205"><ele>56.0</ele><time>2026-04-19T07:27:59.629Z</time></trkpt><trkpt lat="38.8373218" lon="16.2795045"><ele>56.0</ele><time>2026-04-19T07:28:00.615Z</time></trkpt><trkpt lat="38.8372558" lon="16.27949"><ele>56.00000000000001</ele><time>2026-04-19T07:28:01.615Z</time></trkpt><trkpt lat="38.8371839" lon="16.2794783"><ele>56.0</ele><time>2026-04-19T07:28:02.617Z</time></trkpt><trkpt lat="38.8371083" lon="16.2794641"><ele>56.00000000000001</ele><time>2026-04-19T07:28:03.61Z</time></trkpt><trkpt lat="38.8370402" lon="16.2794585"><ele>56.0</ele><time>2026-04-19T07:28:04.632Z</time></trkpt><trkpt lat="38.8369669" lon="16.279461"><ele>56.0</ele><time>2026-04-19T07:28:06.616Z</time></trkpt><trkpt lat="38.8368883" lon="16.2794648"><ele>56.0</ele><time>2026-04-19T07:29:21.628Z</time></trkpt><trkpt lat="38.8368155" lon="16.2794721"><ele>56.00000000000001</ele><time>2026-04-19T07:29:24.622Z</time></trkpt><trkpt lat="38.8367361" lon="16.2794891"><ele>56.0</ele><time>2026-04-19T07:29:26.617Z</time></trkpt><trkpt lat="38.8366407" lon="16.2795046"><ele>56.50000000000001</ele><time>2026-04-19T07:29:28.624Z</time></trkpt><trkpt lat="38.8365341" lon="16.2795177"><ele>57.0</ele><time>2026-04-19T07:29:30.618Z</time></trkpt><trkpt lat="38.8364687" lon="16.2795262"><ele>57.5</ele><time>2026-04-19T07:29:31.614Z</time></trkpt><trkpt lat="38.8363936" lon="16.2795354"><ele>58.0</ele><time>2026-04-19T07:29:32.62Z</time></trkpt><trkpt lat="38.8363282" lon="16.2795452"><ele>58.50000000000001</ele><time>2026-04-19T07:29:33.619Z</time></trkpt><trkpt lat="38.8361989" lon="16.2795677"><ele>59.0</ele><time>2026-04-19T07:29:35.616Z</time></trkpt><trkpt lat="38.8361267" lon="16.2795853"><ele>59.00000000000001</ele><time>2026-04-19T07:29:36.612Z</time></trkpt><trkpt lat="38.8360547" lon="16.2796032"><ele>59.0</ele><time>2026-04-19T07:29:37.637Z</time></trkpt><trkpt lat="38.8359491" lon="16.2796419"><ele>59.0</ele><time>2026-04-19T07:29:39.613Z</time></trkpt><trkpt lat="38.8358729" lon="16.2796796"><ele>59.0</ele><time>2026-04-19T07:29:41.611Z</time></trkpt><trkpt lat="38.835779" lon="16.2797001"><ele>59.00000000000001</ele><time>2026-04-19T07:29:43.62Z</time></trkpt><trkpt lat="38.8357134" lon="16.279703"><ele>59.0</ele><time>2026-04-19T07:29:44.618Z</time></trkpt><trkpt lat="38.8356452" lon="16.2796952"><ele>59.66666666666667</ele><time>2026-04-19T07:29:45.624Z</time></trkpt><trkpt lat="38.8355795" lon="16.2796838"><ele>60.333333333333336</ele><time>2026-04-19T07:29:46.615Z</time></trkpt><trkpt lat="38.8355166" lon="16.2796614"><ele>61.0</ele><time>2026-04-19T07:29:47.616Z</time></trkpt><trkpt lat="38.8354075" lon="16.2796258"><ele>61.66666666666667</ele><time>2026-04-19T07:29:49.618Z</time></trkpt><trkpt lat="38.8353355" lon="16.2796008"><ele>62.333333333333336</ele><time>2026-04-19T07:29:51.624Z</time></trkpt><trkpt lat="38.8352675" lon="16.2795795"><ele>63.0</ele><time>2026-04-19T07:29:55.618Z</time></trkpt><trkpt lat="38.8351992" lon="16.2795646"><ele>63.666666666666664</ele><time>2026-04-19T07:29:58.613Z</time></trkpt><trkpt lat="38.8351298" lon="16.2795444"><ele>64.33333333333333</ele><time>2026-04-19T07:30:01.619Z</time></trkpt><trkpt lat="38.8350678" lon="16.2795212"><ele>65.0</ele><time>2026-04-19T07:30:05.64Z</time></trkpt><trkpt lat="38.8350001" lon="16.2794907"><ele>65.66666666666666</ele><time>2026-04-19T07:33:51.629Z</time></trkpt><trkpt lat="38.8349046" lon="16.2794492"><ele>66.33333333333333</ele><time>2026-04-19T07:33:53.627Z</time></trkpt><trkpt lat="38.8348336" lon="16.2794164"><ele>67.0</ele><time>2026-04-19T07:33:55.623Z</time></trkpt><trkpt lat="38.8347395" lon="16.2793753"><ele>67.0</ele><time>2026-04-19T07:33:57.62Z</time></trkpt><trkpt lat="38.8346295" lon="16.279331"><ele>67.0</ele><time>2026-04-19T07:33:59.616Z</time></trkpt><trkpt lat="38.8345327" lon="16.2792967"><ele>67.0</ele><time>2026-04-19T07:34:01.617Z</time></trkpt><trkpt lat="38.8344428" lon="16.2792577"><ele>67.0</ele><time>2026-04-19T07:34:03.614Z</time></trkpt><trkpt lat="38.8343572" lon="16.2792337"><ele>67.0</ele><time>2026-04-19T07:34:05.621Z</time></trkpt><trkpt lat="38.8342874" lon="16.279248"><ele>67.0</ele><time>2026-04-19T07:34:09.614Z</time></trkpt><trkpt lat="38.834244" lon="16.2793248"><ele>67.0</ele><time>2026-04-19T07:34:37.62Z</time></trkpt><trkpt lat="38.834201" lon="16.2794074"><ele>67.0</ele><time>2026-04-19T07:34:42.617Z</time></trkpt><trkpt lat="38.8341669" lon="16.2794916"><ele>67.0</ele><time>2026-04-19T07:34:50.619Z</time></trkpt><trkpt lat="38.8341225" lon="16.2796051"><ele>67.0</ele><time>2026-04-19T07:34:53.612Z</time></trkpt><trkpt lat="38.8340911" lon="16.2797339"><ele>67.0</ele><time>2026-04-19T07:34:56.651Z</time></trkpt><trkpt lat="38.8340524" lon="16.2798924"><ele>67.5</ele><time>2026-04-19T07:34:58.616Z</time></trkpt><trkpt lat="38.8340313" lon="16.2799801"><ele>68.0</ele><time>2026-04-19T07:34:59.622Z</time></trkpt><trkpt lat="38.8340122" lon="16.2800609"><ele>68.5</ele><time>2026-04-19T07:35:00.609Z</time></trkpt><trkpt lat="38.8339714" lon="16.2801816"><ele>69.0</ele><time>2026-04-19T07:35:02.623Z</time></trkpt><trkpt lat="38.83387" lon="16.2802179"><ele>69.5</ele><time>2026-04-19T07:35:04.618Z</time></trkpt><trkpt lat="38.8338065" lon="16.2802106"><ele>70.0</ele><time>2026-04-19T07:35:05.612Z</time></trkpt><trkpt lat="38.8337291" lon="16.2802"><ele>70.0</ele><time>2026-04-19T07:35:06.585Z</time></trkpt><trkpt lat="38.8336473" lon="16.2801887"><ele>70.0</ele><time>2026-04-19T07:35:07.618Z</time></trkpt><trkpt lat="38.8335646" lon="16.28018"><ele>70.0</ele><time>2026-04-19T07:35:08.616Z</time></trkpt><trkpt lat="38.8334792" lon="16.2801733"><ele>70.0</ele><time>2026-04-19T07:35:09.616Z</time></trkpt><trkpt lat="38.8333939" lon="16.2801673"><ele>70.0</ele><time>2026-04-19T07:35:10.616Z</time></trkpt><trkpt lat="38.8333126" lon="16.2801658"><ele>70.0</ele><time>2026-04-19T07:35:11.614Z</time></trkpt><trkpt lat="38.8332348" lon="16.2801649"><ele>70.5</ele><time>2026-04-19T07:35:12.617Z</time></trkpt><trkpt lat="38.8331572" lon="16.2801624"><ele>71.0</ele><time>2026-04-19T07:35:13.614Z</time></trkpt><trkpt lat="38.8330828" lon="16.2801679"><ele>71.5</ele><time>2026-04-19T07:35:14.615Z</time></trkpt><trkpt lat="38.8330076" lon="16.2801791"><ele>72.0</ele><time>2026-04-19T07:35:15.615Z</time></trkpt><trkpt lat="38.8329299" lon="16.2801913"><ele>72.5</ele><time>2026-04-19T07:35:16.616Z</time></trkpt><trkpt lat="38.8328544" lon="16.2802021"><ele>73.0</ele><time>2026-04-19T07:35:17.629Z</time></trkpt><trkpt lat="38.8327752" lon="16.2802213"><ele>73.0</ele><time>2026-04-19T07:35:18.616Z</time></trkpt><trkpt lat="38.832697" lon="16.2802429"><ele>73.0</ele><time>2026-04-19T07:35:19.62Z</time></trkpt><trkpt lat="38.8326208" lon="16.2802678"><ele>73.0</ele><time>2026-04-19T07:35:20.618Z</time></trkpt><trkpt lat="38.8325434" lon="16.280297"><ele>73.0</ele><time>2026-04-19T07:35:21.612Z</time></trkpt><trkpt lat="38.8324681" lon="16.2803249"><ele>73.0</ele><time>2026-04-19T07:35:22.634Z</time></trkpt><trkpt lat="38.8323871" lon="16.2803589"><ele>73.0</ele><time>2026-04-19T07:35:23.612Z</time></trkpt><trkpt lat="38.8323159" lon="16.2804039"><ele>73.5</ele><time>2026-04-19T07:35:24.622Z</time></trkpt><trkpt lat="38.8322486" lon="16.2804546"><ele>74.0</ele><time>2026-04-19T07:35:25.617Z</time></trkpt><trkpt lat="38.8321811" lon="16.2805137"><ele>74.5</ele><time>2026-04-19T07:35:26.618Z</time></trkpt><trkpt lat="38.8321183" lon="16.2805802"><ele>75.0</ele><time>2026-04-19T07:35:27.614Z</time></trkpt><trkpt lat="38.8320547" lon="16.280647"><ele>75.5</ele><time>2026-04-19T07:35:28.609Z</time></trkpt><trkpt lat="38.8319749" lon="16.2807366"><ele>76.0</ele><time>2026-04-19T07:35:29.62Z</time></trkpt><trkpt lat="38.8318858" lon="16.2808236"><ele>76.39999999999999</ele><time>2026-04-19T07:35:30.616Z</time></trkpt><trkpt lat="38.8318134" lon="16.2809044"><ele>76.8</ele><time>2026-04-19T07:35:31.629Z</time></trkpt><trkpt lat="38.83174" lon="16.2809861"><ele>77.19999999999999</ele><time>2026-04-19T07:35:32.613Z</time></trkpt><trkpt lat="38.8316632" lon="16.2810789"><ele>77.6</ele><time>2026-04-19T07:35:33.618Z</time></trkpt><trkpt lat="38.8315838" lon="16.2811754"><ele>78.0</ele><time>2026-04-19T07:35:34.611Z</time></trkpt><trkpt lat="38.8315025" lon="16.2812847"><ele>78.75</ele><time>2026-04-19T07:35:35.615Z</time></trkpt><trkpt lat="38.8314292" lon="16.2813806"><ele>79.5</ele><time>2026-04-19T07:35:36.616Z</time></trkpt><trkpt lat="38.8313454" lon="16.2814745"><ele>80.25</ele><time>2026-04-19T07:35:37.621Z</time></trkpt><trkpt lat="38.8312427" lon="16.2815642"><ele>81.0</ele><time>2026-04-19T07:35:38.615Z</time></trkpt><trkpt lat="38.8311289" lon="16.2816523"><ele>81.0</ele><time>2026-04-19T07:35:39.614Z</time></trkpt><trkpt lat="38.8310309" lon="16.2817283"><ele>81.0</ele><time>2026-04-19T07:35:40.62Z</time></trkpt><trkpt lat="38.8309384" lon="16.2817955"><ele>81.0</ele><time>2026-04-19T07:35:41.622Z</time></trkpt><trkpt lat="38.8308499" lon="16.2818591"><ele>81.0</ele><time>2026-04-19T07:35:42.609Z</time></trkpt><trkpt lat="38.8307528" lon="16.2819169"><ele>81.0</ele><time>2026-04-19T07:35:43.637Z</time></trkpt><trkpt lat="38.8306425" lon="16.2819738"><ele>82.0</ele><time>2026-04-19T07:35:44.612Z</time></trkpt><trkpt lat="38.8305392" lon="16.2820346"><ele>83.0</ele><time>2026-04-19T07:35:45.615Z</time></trkpt><trkpt lat="38.8304371" lon="16.2821066"><ele>84.0</ele><time>2026-04-19T07:35:46.615Z</time></trkpt><trkpt lat="38.8303376" lon="16.2821799"><ele>85.0</ele><time>2026-04-19T07:35:47.61Z</time></trkpt><trkpt lat="38.8302405" lon="16.2822684"><ele>85.0</ele><time>2026-04-19T07:35:48.64Z</time></trkpt><trkpt lat="38.8301566" lon="16.2823543"><ele>85.0</ele><time>2026-04-19T07:35:49.615Z</time></trkpt><trkpt lat="38.830092" lon="16.2824261"><ele>85.0</ele><time>2026-04-19T07:35:50.612Z</time></trkpt><trkpt lat="38.8300168" lon="16.2825015"><ele>85.0</ele><time>2026-04-19T07:35:52.616Z</time></trkpt><trkpt lat="38.8299632" lon="16.2825754"><ele>85.0</ele><time>2026-04-19T07:35:54.62Z</time></trkpt><trkpt lat="38.8299636" lon="16.2827118"><ele>85.0</ele><time>2026-04-19T07:35:56.611Z</time></trkpt><trkpt lat="38.8300379" lon="16.2828094"><ele>85.0</ele><time>2026-04-19T07:35:58.614Z</time></trkpt><trkpt lat="38.8300873" lon="16.2828928"><ele>85.0</ele><time>2026-04-19T07:36:00.622Z</time></trkpt><trkpt lat="38.830138" lon="16.2830075"><ele>85.0</ele><time>2026-04-19T07:36:02.61Z</time></trkpt><trkpt lat="38.8301804" lon="16.2830849"><ele>85.0</ele><time>2026-04-19T07:36:05.616Z</time></trkpt><trkpt lat="38.8302184" lon="16.2831599"><ele>85.0</ele><time>2026-04-19T07:36:09.615Z</time></trkpt><trkpt lat="38.8302636" lon="16.2832622"><ele>85.4</ele><time>2026-04-19T07:36:13.616Z</time></trkpt><trkpt lat="38.8303092" lon="16.2833655"><ele>85.8</ele><time>2026-04-19T07:36:16.617Z</time></trkpt><trkpt lat="38.8303845" lon="16.2833644"><ele>86.19999999999999</ele><time>2026-04-19T07:36:18.624Z</time></trkpt><trkpt lat="38.8304911" lon="16.2833171"><ele>86.6</ele><time>2026-04-19T07:36:20.612Z</time></trkpt><trkpt lat="38.8305881" lon="16.2833447"><ele>87.0</ele><time>2026-04-19T07:36:22.612Z</time></trkpt><trkpt lat="38.8306593" lon="16.2834465"><ele>87.0</ele><time>2026-04-19T07:36:24.613Z</time></trkpt><trkpt lat="38.8307049" lon="16.2835644"><ele>87.0</ele><time>2026-04-19T07:36:26.613Z</time></trkpt><trkpt lat="38.8307373" lon="16.2836534"><ele>87.0</ele><time>2026-04-19T07:36:28.629Z</time></trkpt><trkpt lat="38.8307767" lon="16.2837625"><ele>87.0</ele><time>2026-04-19T07:36:31.618Z</time></trkpt><trkpt lat="38.8308063" lon="16.2838478"><ele>87.0</ele><time>2026-04-19T07:36:32.615Z</time></trkpt><trkpt lat="38.830867" lon="16.2839857"><ele>88.6</ele><time>2026-04-19T07:36:34.618Z</time></trkpt><trkpt lat="38.830901" lon="16.2840685"><ele>90.19999999999999</ele><time>2026-04-19T07:36:35.616Z</time></trkpt><trkpt lat="38.8309296" lon="16.284144"><ele>91.8</ele><time>2026-04-19T07:36:36.618Z</time></trkpt><trkpt lat="38.8309713" lon="16.2842393"><ele>93.4</ele><time>2026-04-19T07:36:37.622Z</time></trkpt><trkpt lat="38.8310395" lon="16.2843336"><ele>95.0</ele><time>2026-04-19T07:36:38.637Z</time></trkpt><trkpt lat="38.831121" lon="16.2844568"><ele>95.2</ele><time>2026-04-19T07:36:39.618Z</time></trkpt><trkpt lat="38.8311767" lon="16.2845752"><ele>95.4</ele><time>2026-04-19T07:36:40.615Z</time></trkpt><trkpt lat="38.8312189" lon="16.2846726"><ele>95.6</ele><time>2026-04-19T07:36:41.618Z</time></trkpt><trkpt lat="38.8312646" lon="16.2847758"><ele>95.8</ele><time>2026-04-19T07:36:42.614Z</time></trkpt><trkpt lat="38.8313149" lon="16.2848757"><ele>96.0</ele><time>2026-04-19T07:36:43.616Z</time></trkpt><trkpt lat="38.8313654" lon="16.2849719"><ele>97.5</ele><time>2026-04-19T07:36:44.614Z</time></trkpt><trkpt lat="38.8313963" lon="16.2850625"><ele>99.0</ele><time>2026-04-19T07:36:45.612Z</time></trkpt><trkpt lat="38.8314273" lon="16.2851443"><ele>100.5</ele><time>2026-04-19T07:36:46.617Z</time></trkpt><trkpt lat="38.8314847" lon="16.2852358"><ele>102.0</ele><time>2026-04-19T07:36:48.615Z</time></trkpt><trkpt lat="38.831586" lon="16.2852659"><ele>103.5</ele><time>2026-04-19T07:36:50.619Z</time></trkpt><trkpt lat="38.8316732" lon="16.285269"><ele>105.0</ele><time>2026-04-19T07:36:51.617Z</time></trkpt><trkpt lat="38.8317975" lon="16.2852633"><ele>104.66666666666666</ele><time>2026-04-19T07:36:52.619Z</time></trkpt><trkpt lat="38.8319638" lon="16.2852574"><ele>104.33333333333333</ele><time>2026-04-19T07:36:53.615Z</time></trkpt><trkpt lat="38.8321548" lon="16.2852501"><ele>104.0</ele><time>2026-04-19T07:36:54.637Z</time></trkpt><trkpt lat="38.8323643" lon="16.2852424"><ele>104.0</ele><time>2026-04-19T07:36:55.622Z</time></trkpt><trkpt lat="38.8325708" lon="16.2852317"><ele>104.0</ele><time>2026-04-19T07:36:56.623Z</time></trkpt><trkpt lat="38.8327583" lon="16.2852211"><ele>104.0</ele><time>2026-04-19T07:36:57.616Z</time></trkpt><trkpt lat="38.8329251" lon="16.2852114"><ele>104.0</ele><time>2026-04-19T07:36:58.615Z</time></trkpt><trkpt lat="38.8330716" lon="16.2852075"><ele>104.0</ele><time>2026-04-19T07:36:59.614Z</time></trkpt><trkpt lat="38.8331922" lon="16.2852003"><ele>104.0</ele><time>2026-04-19T07:37:00.621Z</time></trkpt><trkpt lat="38.833296" lon="16.2851881"><ele>104.0</ele><time>2026-04-19T07:37:01.623Z</time></trkpt><trkpt lat="38.8333783" lon="16.2851784"><ele>103.6</ele><time>2026-04-19T07:37:02.613Z</time></trkpt><trkpt lat="38.8334901" lon="16.2851372"><ele>103.2</ele><time>2026-04-19T07:37:04.616Z</time></trkpt><trkpt lat="38.8335198" lon="16.2852187"><ele>102.8</ele><time>2026-04-19T07:37:06.618Z</time></trkpt><trkpt lat="38.8335549" lon="16.2853439"><ele>102.39999999999999</ele><time>2026-04-19T07:37:08.618Z</time></trkpt><trkpt lat="38.8335737" lon="16.2854899"><ele>102.0</ele><time>2026-04-19T07:37:10.615Z</time></trkpt><trkpt lat="38.8335561" lon="16.2855692"><ele>103.33333333333333</ele><time>2026-04-19T07:37:11.622Z</time></trkpt><trkpt lat="38.8335621" lon="16.2857094"><ele>104.66666666666666</ele><time>2026-04-19T07:37:13.622Z</time></trkpt><trkpt lat="38.8335771" lon="16.2858173"><ele>106.0</ele><time>2026-04-19T07:37:14.619Z</time></trkpt><trkpt lat="38.8336377" lon="16.2858744"><ele>107.33333333333333</ele><time>2026-04-19T07:37:15.612Z</time></trkpt><trkpt lat="38.8337143" lon="16.28592"><ele>108.66666666666666</ele><time>2026-04-19T07:37:16.622Z</time></trkpt><trkpt lat="38.8337988" lon="16.2859629"><ele>110.0</ele><time>2026-04-19T07:37:17.615Z</time></trkpt><trkpt lat="38.833878" lon="16.2860061"><ele>110.0</ele><time>2026-04-19T07:37:18.619Z</time></trkpt><trkpt lat="38.8339584" lon="16.2860427"><ele>110.0</ele><time>2026-04-19T07:37:19.618Z</time></trkpt><trkpt lat="38.8340467" lon="16.2860802"><ele>110.0</ele><time>2026-04-19T07:37:20.62Z</time></trkpt><trkpt lat="38.834143" lon="16.2861282"><ele>110.0</ele><time>2026-04-19T07:37:21.615Z</time></trkpt><trkpt lat="38.8342399" lon="16.2861747"><ele>110.0</ele><time>2026-04-19T07:37:22.641Z</time></trkpt><trkpt lat="38.8343343" lon="16.2862141"><ele>109.8</ele><time>2026-04-19T07:37:23.614Z</time></trkpt><trkpt lat="38.8344317" lon="16.286228"><ele>109.6</ele><time>2026-04-19T07:37:24.619Z</time></trkpt><trkpt lat="38.8345307" lon="16.2862144"><ele>109.4</ele><time>2026-04-19T07:37:25.621Z</time></trkpt><trkpt lat="38.8346157" lon="16.2861984"><ele>109.2</ele><time>2026-04-19T07:37:26.612Z</time></trkpt><trkpt lat="38.8346975" lon="16.286214"><ele>109.0</ele><time>2026-04-19T07:37:27.63Z</time></trkpt><trkpt lat="38.8347803" lon="16.2862515"><ele>109.00000000000001</ele><time>2026-04-19T07:37:28.61Z</time></trkpt><trkpt lat="38.8348625" lon="16.2863067"><ele>109.0</ele><time>2026-04-19T07:37:29.613Z</time></trkpt><trkpt lat="38.8349361" lon="16.2863722"><ele>109.0</ele><time>2026-04-19T07:37:30.618Z</time></trkpt><trkpt lat="38.8350057" lon="16.2864406"><ele>109.0</ele><time>2026-04-19T07:37:31.618Z</time></trkpt><trkpt lat="38.8350566" lon="16.2865049"><ele>109.00000000000001</ele><time>2026-04-19T07:37:32.624Z</time></trkpt><trkpt lat="38.8351134" lon="16.2865663"><ele>109.0</ele><time>2026-04-19T07:37:33.625Z</time></trkpt><trkpt lat="38.8351651" lon="16.2866241"><ele>110.28571428571429</ele><time>2026-04-19T07:37:34.625Z</time></trkpt><trkpt lat="38.8352029" lon="16.2867031"><ele>111.57142857142858</ele><time>2026-04-19T07:37:35.635Z</time></trkpt><trkpt lat="38.8352464" lon="16.2867852"><ele>112.85714285714286</ele><time>2026-04-19T07:37:36.619Z</time></trkpt><trkpt lat="38.8352824" lon="16.2868671"><ele>114.14285714285714</ele><time>2026-04-19T07:37:37.615Z</time></trkpt><trkpt lat="38.8353029" lon="16.2869508"><ele>115.42857142857143</ele><time>2026-04-19T07:37:38.619Z</time></trkpt><trkpt lat="38.8353189" lon="16.2870335"><ele>116.71428571428571</ele><time>2026-04-19T07:37:39.62Z</time></trkpt><trkpt lat="38.835336" lon="16.2871182"><ele>118.0</ele><time>2026-04-19T07:37:40.617Z</time></trkpt><trkpt lat="38.8353579" lon="16.28723"><ele>119.83333333333334</ele><time>2026-04-19T07:37:41.633Z</time></trkpt><trkpt lat="38.8353861" lon="16.2873335"><ele>121.66666666666667</ele><time>2026-04-19T07:37:42.613Z</time></trkpt><trkpt lat="38.8354086" lon="16.2874327"><ele>123.5</ele><time>2026-04-19T07:37:43.62Z</time></trkpt><trkpt lat="38.8354513" lon="16.2875111"><ele>125.33333333333334</ele><time>2026-04-19T07:37:44.62Z</time></trkpt><trkpt lat="38.835478" lon="16.2875924"><ele>127.16666666666667</ele><time>2026-04-19T07:37:45.618Z</time></trkpt><trkpt lat="38.8355136" lon="16.2876766"><ele>129.0</ele><time>2026-04-19T07:37:46.62Z</time></trkpt><trkpt lat="38.8356465" lon="16.2877868"><ele>129.0</ele><time>2026-04-19T07:37:48.614Z</time></trkpt><trkpt lat="38.8357351" lon="16.2878368"><ele>129.0</ele><time>2026-04-19T07:37:49.614Z</time></trkpt><trkpt lat="38.8358195" lon="16.2878935"><ele>129.0</ele><time>2026-04-19T07:37:50.619Z</time></trkpt><trkpt lat="38.835902" lon="16.287938"><ele>129.0</ele><time>2026-04-19T07:37:51.622Z</time></trkpt><trkpt lat="38.8359902" lon="16.2879486"><ele>129.0</ele><time>2026-04-19T07:37:52.614Z</time></trkpt><trkpt lat="38.8360846" lon="16.287951"><ele>128.83333333333334</ele><time>2026-04-19T07:37:53.642Z</time></trkpt><trkpt lat="38.8361744" lon="16.2879644"><ele>128.66666666666666</ele><time>2026-04-19T07:37:54.612Z</time></trkpt><trkpt lat="38.8362652" lon="16.2879768"><ele>128.5</ele><time>2026-04-19T07:37:55.623Z</time></trkpt><trkpt lat="38.8363513" lon="16.2879971"><ele>128.33333333333331</ele><time>2026-04-19T07:37:56.615Z</time></trkpt><trkpt lat="38.8364263" lon="16.2880184"><ele>128.16666666666666</ele><time>2026-04-19T07:37:57.615Z</time></trkpt><trkpt lat="38.8365115" lon="16.2880341"><ele>128.0</ele><time>2026-04-19T07:37:58.618Z</time></trkpt><trkpt lat="38.8365946" lon="16.2880426"><ele>128.0</ele><time>2026-04-19T07:37:59.616Z</time></trkpt><trkpt lat="38.8366777" lon="16.288054"><ele>128.0</ele><time>2026-04-19T07:38:00.622Z</time></trkpt><trkpt lat="38.8367612" lon="16.2880642"><ele>128.0</ele><time>2026-04-19T07:38:01.613Z</time></trkpt><trkpt lat="38.8368514" lon="16.2881021"><ele>128.0</ele><time>2026-04-19T07:38:02.619Z</time></trkpt><trkpt lat="38.8369488" lon="16.2881157"><ele>128.0</ele><time>2026-04-19T07:38:03.613Z</time></trkpt><trkpt lat="38.8370545" lon="16.2881321"><ele>133.0</ele><time>2026-04-19T07:38:04.614Z</time></trkpt><trkpt lat="38.8371634" lon="16.288141"><ele>138.0</ele><time>2026-04-19T07:38:05.621Z</time></trkpt><trkpt lat="38.8372604" lon="16.288147"><ele>143.0</ele><time>2026-04-19T07:38:06.614Z</time></trkpt><trkpt lat="38.8373547" lon="16.2881822"><ele>148.0</ele><time>2026-04-19T07:38:07.61Z</time></trkpt><trkpt lat="38.837446" lon="16.2882252"><ele>153.0</ele><time>2026-04-19T07:38:08.608Z</time></trkpt><trkpt lat="38.8375446" lon="16.2882896"><ele>153.0</ele><time>2026-04-19T07:38:09.616Z</time></trkpt><trkpt lat="38.8376283" lon="16.2883584"><ele>153.0</ele><time>2026-04-19T07:38:10.618Z</time></trkpt><trkpt lat="38.8376993" lon="16.2884221"><ele>153.0</ele><time>2026-04-19T07:38:11.608Z</time></trkpt><trkpt lat="38.8377716" lon="16.2884885"><ele>153.0</ele><time>2026-04-19T07:38:12.621Z</time></trkpt><trkpt lat="38.8378443" lon="16.2885518"><ele>153.0</ele><time>2026-04-19T07:38:13.613Z</time></trkpt><trkpt lat="38.8379365" lon="16.2886056"><ele>150.66666666666666</ele><time>2026-04-19T07:38:14.613Z</time></trkpt><trkpt lat="38.8380226" lon="16.2886491"><ele>148.33333333333334</ele><time>2026-04-19T07:38:15.62Z</time></trkpt><trkpt lat="38.8380968" lon="16.2886868"><ele>146.0</ele><time>2026-04-19T07:38:16.62Z</time></trkpt><trkpt lat="38.8381609" lon="16.288736"><ele>143.66666666666669</ele><time>2026-04-19T07:38:17.621Z</time></trkpt><trkpt lat="38.8382161" lon="16.2887907"><ele>141.33333333333334</ele><time>2026-04-19T07:38:18.619Z</time></trkpt><trkpt lat="38.838272" lon="16.2888462"><ele>139.0</ele><time>2026-04-19T07:38:19.617Z</time></trkpt><trkpt lat="38.8383534" lon="16.2889042"><ele>141.25</ele><time>2026-04-19T07:38:20.607Z</time></trkpt><trkpt lat="38.8384465" lon="16.2889793"><ele>143.5</ele><time>2026-04-19T07:38:21.612Z</time></trkpt><trkpt lat="38.8385421" lon="16.2890689"><ele>145.75</ele><time>2026-04-19T07:38:22.607Z</time></trkpt><trkpt lat="38.8386332" lon="16.2891673"><ele>148.0</ele><time>2026-04-19T07:38:23.62Z</time></trkpt><trkpt lat="38.8387125" lon="16.2892526"><ele>148.0</ele><time>2026-04-19T07:38:24.613Z</time></trkpt><trkpt lat="38.8387869" lon="16.2893189"><ele>148.0</ele><time>2026-04-19T07:38:25.631Z</time></trkpt><trkpt lat="38.838867" lon="16.2893807"><ele>148.0</ele><time>2026-04-19T07:38:26.609Z</time></trkpt><trkpt lat="38.8389632" lon="16.2894487"><ele>148.0</ele><time>2026-04-19T07:38:27.609Z</time></trkpt><trkpt lat="38.8390812" lon="16.2895234"><ele>148.0</ele><time>2026-04-19T07:38:28.608Z</time></trkpt><trkpt lat="38.8391885" lon="16.2896012"><ele>148.0</ele><time>2026-04-19T07:38:29.607Z</time></trkpt><trkpt lat="38.8392812" lon="16.2896844"><ele>148.0</ele><time>2026-04-19T07:38:30.614Z</time></trkpt><trkpt lat="38.839359" lon="16.2897626"><ele>148.0</ele><time>2026-04-19T07:38:31.616Z</time></trkpt><trkpt lat="38.8394374" lon="16.2898474"><ele>148.0</ele><time>2026-04-19T07:38:32.61Z</time></trkpt><trkpt lat="38.8395023" lon="16.2899613"><ele>148.0</ele><time>2026-04-19T07:38:33.608Z</time></trkpt><trkpt lat="38.8395488" lon="16.2900755"><ele>148.6</ele><time>2026-04-19T07:38:34.613Z</time></trkpt><trkpt lat="38.8395791" lon="16.2901876"><ele>149.20000000000002</ele><time>2026-04-19T07:38:35.61Z</time></trkpt><trkpt lat="38.8396004" lon="16.2903076"><ele>149.8</ele><time>2026-04-19T07:38:36.631Z</time></trkpt><trkpt lat="38.8396279" lon="16.2904274"><ele>150.4</ele><time>2026-04-19T07:38:37.618Z</time></trkpt><trkpt lat="38.8396526" lon="16.2905452"><ele>151.0</ele><time>2026-04-19T07:38:38.611Z</time></trkpt><trkpt lat="38.8396724" lon="16.2906462"><ele>152.83333333333334</ele><time>2026-04-19T07:38:39.607Z</time></trkpt><trkpt lat="38.8396841" lon="16.290737"><ele>154.66666666666669</ele><time>2026-04-19T07:38:40.611Z</time></trkpt><trkpt lat="38.8396928" lon="16.290823"><ele>156.5</ele><time>2026-04-19T07:38:41.607Z</time></trkpt><trkpt lat="38.8397039" lon="16.2909176"><ele>158.33333333333334</ele><time>2026-04-19T07:38:42.61Z</time></trkpt><trkpt lat="38.8397121" lon="16.2910141"><ele>160.16666666666666</ele><time>2026-04-19T07:38:43.608Z</time></trkpt><trkpt lat="38.8397184" lon="16.2911293"><ele>162.0</ele><time>2026-04-19T07:38:44.628Z</time></trkpt><trkpt lat="38.8397327" lon="16.2912376"><ele>162.0</ele><time>2026-04-19T07:38:45.609Z</time></trkpt><trkpt lat="38.8397424" lon="16.2913379"><ele>162.0</ele><time>2026-04-19T07:38:46.612Z</time></trkpt><trkpt lat="38.8397453" lon="16.2914252"><ele>162.0</ele><time>2026-04-19T07:38:47.609Z</time></trkpt><trkpt lat="38.8397634" lon="16.2915816"><ele>162.0</ele><time>2026-04-19T07:38:49.606Z</time></trkpt><trkpt lat="38.8397784" lon="16.2916743"><ele>162.0</ele><time>2026-04-19T07:38:50.613Z</time></trkpt><trkpt lat="38.8397853" lon="16.2917679"><ele>162.0</ele><time>2026-04-19T07:38:51.61Z</time></trkpt><trkpt lat="38.83979" lon="16.2918699"><ele>164.39999999999998</ele><time>2026-04-19T07:38:52.608Z</time></trkpt><trkpt lat="38.839803" lon="16.2919857"><ele>166.79999999999998</ele><time>2026-04-19T07:38:53.612Z</time></trkpt><trkpt lat="38.8398183" lon="16.2921131"><ele>169.2</ele><time>2026-04-19T07:38:54.611Z</time></trkpt><trkpt lat="38.8398391" lon="16.2922562"><ele>171.6</ele><time>2026-04-19T07:38:55.627Z</time></trkpt><trkpt lat="38.8398583" lon="16.2924046"><ele>174.0</ele><time>2026-04-19T07:38:56.61Z</time></trkpt><trkpt lat="38.8398679" lon="16.2925474"><ele>176.0</ele><time>2026-04-19T07:38:57.615Z</time></trkpt><trkpt lat="38.8398736" lon="16.2926711"><ele>178.0</ele><time>2026-04-19T07:38:58.611Z</time></trkpt><trkpt lat="38.8398821" lon="16.292779"><ele>180.0</ele><time>2026-04-19T07:38:59.614Z</time></trkpt><trkpt lat="38.8398888" lon="16.2928922"><ele>182.0</ele><time>2026-04-19T07:39:00.609Z</time></trkpt><trkpt lat="38.8398861" lon="16.2930093"><ele>184.0</ele><time>2026-04-19T07:39:01.61Z</time></trkpt><trkpt lat="38.8398748" lon="16.293118"><ele>186.0</ele><time>2026-04-19T07:39:02.619Z</time></trkpt><trkpt lat="38.8398586" lon="16.2932224"><ele>186.5</ele><time>2026-04-19T07:39:03.612Z</time></trkpt><trkpt lat="38.839848" lon="16.2933362"><ele>187.0</ele><time>2026-04-19T07:39:04.61Z</time></trkpt><trkpt lat="38.8398456" lon="16.2934459"><ele>187.5</ele><time>2026-04-19T07:39:05.613Z</time></trkpt><trkpt lat="38.8398424" lon="16.2935489"><ele>188.0</ele><time>2026-04-19T07:39:06.609Z</time></trkpt><trkpt lat="38.8398579" lon="16.293645"><ele>188.5</ele><time>2026-04-19T07:39:07.614Z</time></trkpt><trkpt lat="38.8398749" lon="16.2937393"><ele>189.0</ele><time>2026-04-19T07:39:08.608Z</time></trkpt><trkpt lat="38.8398865" lon="16.2938352"><ele>189.0</ele><time>2026-04-19T07:39:09.625Z</time></trkpt><trkpt lat="38.8398923" lon="16.2939193"><ele>189.0</ele><time>2026-04-19T07:39:10.613Z</time></trkpt><trkpt lat="38.8399093" lon="16.2940773"><ele>189.0</ele><time>2026-04-19T07:39:12.612Z</time></trkpt><trkpt lat="38.8399197" lon="16.294176"><ele>189.0</ele><time>2026-04-19T07:39:13.62Z</time></trkpt><trkpt lat="38.8399331" lon="16.2942989"><ele>189.0</ele><time>2026-04-19T07:39:14.612Z</time></trkpt><trkpt lat="38.839945" lon="16.2944324"><ele>190.6</ele><time>2026-04-19T07:39:15.614Z</time></trkpt><trkpt lat="38.8399564" lon="16.2945568"><ele>192.2</ele><time>2026-04-19T07:39:16.608Z</time></trkpt><trkpt lat="38.8399712" lon="16.2946772"><ele>193.79999999999998</ele><time>2026-04-19T07:39:17.614Z</time></trkpt><trkpt lat="38.8399894" lon="16.2948005"><ele>195.39999999999998</ele><time>2026-04-19T07:39:18.617Z</time></trkpt><trkpt lat="38.840014" lon="16.2949301"><ele>197.0</ele><time>2026-04-19T07:39:19.614Z</time></trkpt><trkpt lat="38.8400444" lon="16.2950608"><ele>194.39999999999998</ele><time>2026-04-19T07:39:20.631Z</time></trkpt><trkpt lat="38.8400734" lon="16.2951914"><ele>191.79999999999998</ele><time>2026-04-19T07:39:21.61Z</time></trkpt><trkpt lat="38.8400964" lon="16.2953307"><ele>189.2</ele><time>2026-04-19T07:39:22.612Z</time></trkpt><trkpt lat="38.8401161" lon="16.2954672"><ele>186.6</ele><time>2026-04-19T07:39:23.611Z</time></trkpt><trkpt lat="38.8401449" lon="16.2956012"><ele>184.0</ele><time>2026-04-19T07:39:24.611Z</time></trkpt><trkpt lat="38.8401752" lon="16.2957388"><ele>184.0</ele><time>2026-04-19T07:39:25.609Z</time></trkpt><trkpt lat="38.8402" lon="16.295882"><ele>184.0</ele><time>2026-04-19T07:39:26.638Z</time></trkpt><trkpt lat="38.8402159" lon="16.2960234"><ele>184.0</ele><time>2026-04-19T07:39:27.612Z</time></trkpt><trkpt lat="38.8402269" lon="16.2961657"><ele>184.0</ele><time>2026-04-19T07:39:28.609Z</time></trkpt><trkpt lat="38.840236" lon="16.2962998"><ele>184.0</ele><time>2026-04-19T07:39:29.613Z</time></trkpt><trkpt lat="38.8402425" lon="16.2964222"><ele>186.0</ele><time>2026-04-19T07:39:30.614Z</time></trkpt><trkpt lat="38.8402515" lon="16.2965366"><ele>188.0</ele><time>2026-04-19T07:39:31.613Z</time></trkpt><trkpt lat="38.8402644" lon="16.2966408"><ele>190.0</ele><time>2026-04-19T07:39:32.614Z</time></trkpt><trkpt lat="38.8402737" lon="16.2967412"><ele>192.0</ele><time>2026-04-19T07:39:33.614Z</time></trkpt><trkpt lat="38.8402765" lon="16.2968362"><ele>193.99999999999997</ele><time>2026-04-19T07:39:34.609Z</time></trkpt><trkpt lat="38.8402737" lon="16.2969352"><ele>196.0</ele><time>2026-04-19T07:39:35.609Z</time></trkpt><trkpt lat="38.8402701" lon="16.2970304"><ele>196.0</ele><time>2026-04-19T07:39:36.608Z</time></trkpt><trkpt lat="38.8402522" lon="16.2971717"><ele>196.0</ele><time>2026-04-19T07:39:38.616Z</time></trkpt><trkpt lat="38.8402" lon="16.2972535"><ele>196.0</ele><time>2026-04-19T07:39:40.609Z</time></trkpt><trkpt lat="38.8401064" lon="16.2972478"><ele>196.0</ele><time>2026-04-19T07:39:42.614Z</time></trkpt><trkpt lat="38.8400271" lon="16.2971536"><ele>196.0</ele><time>2026-04-19T07:39:44.623Z</time></trkpt><trkpt lat="38.8399723" lon="16.2970069"><ele>202.4</ele><time>2026-04-19T07:39:46.614Z</time></trkpt><trkpt lat="38.8399507" lon="16.2968299"><ele>208.8</ele><time>2026-04-19T07:39:48.61Z</time></trkpt><trkpt lat="38.8399374" lon="16.296723"><ele>215.20000000000002</ele><time>2026-04-19T07:39:49.607Z</time></trkpt><trkpt lat="38.8399254" lon="16.2966302"><ele>221.60000000000002</ele><time>2026-04-19T07:39:50.608Z</time></trkpt><trkpt lat="38.8399086" lon="16.2965332"><ele>228.0</ele><time>2026-04-19T07:39:51.608Z</time></trkpt><trkpt lat="38.8398963" lon="16.2964153"><ele>228.0</ele><time>2026-04-19T07:39:52.612Z</time></trkpt><trkpt lat="38.8398833" lon="16.2962809"><ele>228.0</ele><time>2026-04-19T07:39:53.609Z</time></trkpt><trkpt lat="38.8398766" lon="16.2961529"><ele>228.0</ele><time>2026-04-19T07:39:54.614Z</time></trkpt><trkpt lat="38.8398708" lon="16.2960482"><ele>228.0</ele><time>2026-04-19T07:39:55.625Z</time></trkpt><trkpt lat="38.8398633" lon="16.2959436"><ele>228.0</ele><time>2026-04-19T07:39:56.612Z</time></trkpt><trkpt lat="38.8398563" lon="16.2958199"><ele>228.0</ele><time>2026-04-19T07:39:57.615Z</time></trkpt><trkpt lat="38.8398313" lon="16.2956931"><ele>228.0</ele><time>2026-04-19T07:39:58.616Z</time></trkpt><trkpt lat="38.8398017" lon="16.2955867"><ele>228.0</ele><time>2026-04-19T07:39:59.616Z</time></trkpt><trkpt lat="38.8397626" lon="16.2955163"><ele>228.0</ele><time>2026-04-19T07:40:00.625Z</time></trkpt><trkpt lat="38.8396954" lon="16.295384"><ele>228.0</ele><time>2026-04-19T07:40:02.616Z</time></trkpt><trkpt lat="38.839627" lon="16.2952582"><ele>225.0</ele><time>2026-04-19T07:40:04.617Z</time></trkpt><trkpt lat="38.8395621" lon="16.2951637"><ele>222.0</ele><time>2026-04-19T07:40:06.611Z</time></trkpt><trkpt lat="38.8395002" lon="16.295032"><ele>219.0</ele><time>2026-04-19T07:40:08.607Z</time></trkpt><trkpt lat="38.839453" lon="16.2948923"><ele>216.0</ele><time>2026-04-19T07:40:10.616Z</time></trkpt><trkpt lat="38.8394148" lon="16.2947792"><ele>213.0</ele><time>2026-04-19T07:40:12.612Z</time></trkpt><trkpt lat="38.8393808" lon="16.2946855"><ele>210.33333333333334</ele><time>2026-04-19T07:40:14.612Z</time></trkpt><trkpt lat="38.8393219" lon="16.2945873"><ele>207.66666666666669</ele><time>2026-04-19T07:40:16.611Z</time></trkpt><trkpt lat="38.8392287" lon="16.2944794"><ele>205.0</ele><time>2026-04-19T07:40:18.609Z</time></trkpt><trkpt lat="38.8391695" lon="16.2944316"><ele>202.33333333333334</ele><time>2026-04-19T07:40:19.648Z</time></trkpt><trkpt lat="38.8391094" lon="16.2943996"><ele>199.66666666666669</ele><time>2026-04-19T07:40:20.615Z</time></trkpt><trkpt lat="38.8390485" lon="16.2943697"><ele>197.0</ele><time>2026-04-19T07:40:21.61Z</time></trkpt><trkpt lat="38.8389875" lon="16.2943413"><ele>205.0</ele><time>2026-04-19T07:40:22.611Z</time></trkpt><trkpt lat="38.8388989" lon="16.2943058"><ele>213.0</ele><time>2026-04-19T07:40:24.641Z</time></trkpt><trkpt lat="38.8388137" lon="16.2942583"><ele>221.0</ele><time>2026-04-19T07:40:26.607Z</time></trkpt><trkpt lat="38.8386955" lon="16.294215"><ele>229.0</ele><time>2026-04-19T07:40:28.612Z</time></trkpt><trkpt lat="38.8385956" lon="16.2941395"><ele>237.0</ele><time>2026-04-19T07:40:30.607Z</time></trkpt><trkpt lat="38.8385309" lon="16.2940379"><ele>237.0</ele><time>2026-04-19T07:40:32.611Z</time></trkpt><trkpt lat="38.8385174" lon="16.2939426"><ele>237.0</ele><time>2026-04-19T07:40:38.612Z</time></trkpt><trkpt lat="38.8384869" lon="16.2938509"><ele>237.0</ele><time>2026-04-19T07:40:41.609Z</time></trkpt><trkpt lat="38.8384821" lon="16.2937002"><ele>237.0</ele><time>2026-04-19T07:40:43.614Z</time></trkpt><trkpt lat="38.8384976" lon="16.2936162"><ele>237.0</ele><time>2026-04-19T07:40:44.607Z</time></trkpt><trkpt lat="38.8385128" lon="16.2935164"><ele>237.0</ele><time>2026-04-19T07:40:46.608Z</time></trkpt><trkpt lat="38.838528" lon="16.2934295"><ele>236.33333333333334</ele><time>2026-04-19T07:41:23.615Z</time></trkpt><trkpt lat="38.8385664" lon="16.2933346"><ele>235.66666666666669</ele><time>2026-04-19T07:41:34.614Z</time></trkpt><trkpt lat="38.8385812" lon="16.2932082"><ele>235.0</ele><time>2026-04-19T07:41:36.612Z</time></trkpt><trkpt lat="38.8385999" lon="16.2931087"><ele>234.33333333333334</ele><time>2026-04-19T07:41:37.611Z</time></trkpt><trkpt lat="38.83859" lon="16.2930113"><ele>233.66666666666669</ele><time>2026-04-19T07:41:38.608Z</time></trkpt><trkpt lat="38.8385464" lon="16.2929453"><ele>233.0</ele><time>2026-04-19T07:41:39.612Z</time></trkpt><trkpt lat="38.8384343" lon="16.2928913"><ele>236.33333333333334</ele><time>2026-04-19T07:41:41.63Z</time></trkpt><trkpt lat="38.8383141" lon="16.2928634"><ele>239.66666666666669</ele><time>2026-04-19T07:41:43.614Z</time></trkpt><trkpt lat="38.8382408" lon="16.2928561"><ele>243.0</ele><time>2026-04-19T07:41:44.61Z</time></trkpt><trkpt lat="38.8381603" lon="16.292846"><ele>246.33333333333331</ele><time>2026-04-19T07:41:45.611Z</time></trkpt><trkpt lat="38.8380946" lon="16.2928431"><ele>249.66666666666666</ele><time>2026-04-19T07:41:46.611Z</time></trkpt><trkpt lat="38.8380174" lon="16.2928339"><ele>253.0</ele><time>2026-04-19T07:41:48.613Z</time></trkpt><trkpt lat="38.8379153" lon="16.2928394"><ele>252.99999999999997</ele><time>2026-04-19T07:41:50.615Z</time></trkpt><trkpt lat="38.8378504" lon="16.2928449"><ele>253.0</ele><time>2026-04-19T07:41:51.606Z</time></trkpt><trkpt lat="38.8377768" lon="16.2928479"><ele>253.0</ele><time>2026-04-19T07:41:52.608Z</time></trkpt><trkpt lat="38.8377039" lon="16.2928283"><ele>253.0</ele><time>2026-04-19T07:41:53.61Z</time></trkpt><trkpt lat="38.8376024" lon="16.2928038"><ele>252.99999999999997</ele><time>2026-04-19T07:41:55.61Z</time></trkpt><trkpt lat="38.8375133" lon="16.2927494"><ele>253.0</ele><time>2026-04-19T07:41:59.611Z</time></trkpt><trkpt lat="38.8373937" lon="16.2927242"><ele>256.6</ele><time>2026-04-19T07:42:01.61Z</time></trkpt><trkpt lat="38.8372969" lon="16.2927161"><ele>260.20000000000005</ele><time>2026-04-19T07:42:03.612Z</time></trkpt><trkpt lat="38.8372097" lon="16.2928034"><ele>263.8</ele><time>2026-04-19T07:42:05.61Z</time></trkpt><trkpt lat="38.8371414" lon="16.2928653"><ele>267.40000000000003</ele><time>2026-04-19T07:42:07.612Z</time></trkpt><trkpt lat="38.8370605" lon="16.2928935"><ele>271.0</ele><time>2026-04-19T07:42:09.609Z</time></trkpt><trkpt lat="38.8369765" lon="16.2929599"><ele>271.0</ele><time>2026-04-19T07:42:11.616Z</time></trkpt><trkpt lat="38.8368812" lon="16.2930528"><ele>271.0</ele><time>2026-04-19T07:42:13.624Z</time></trkpt><trkpt lat="38.8368243" lon="16.29314"><ele>271.0</ele><time>2026-04-19T07:42:15.611Z</time></trkpt><trkpt lat="38.8367831" lon="16.2932211"><ele>271.0</ele><time>2026-04-19T07:42:17.61Z</time></trkpt><trkpt lat="38.8367833" lon="16.2933073"><ele>271.0</ele><time>2026-04-19T07:42:19.609Z</time></trkpt><trkpt lat="38.8368474" lon="16.2933687"><ele>271.0</ele><time>2026-04-19T07:42:21.607Z</time></trkpt><trkpt lat="38.8369957" lon="16.2933903"><ele>274.0</ele><time>2026-04-19T07:42:23.607Z</time></trkpt><trkpt lat="38.8370987" lon="16.29338"><ele>277.0</ele><time>2026-04-19T07:42:24.608Z</time></trkpt><trkpt lat="38.8371857" lon="16.2933656"><ele>280.0</ele><time>2026-04-19T07:42:25.61Z</time></trkpt><trkpt lat="38.8372569" lon="16.293355"><ele>283.0</ele><time>2026-04-19T07:42:26.608Z</time></trkpt><trkpt lat="38.8373431" lon="16.2933678"><ele>286.0</ele><time>2026-04-19T07:42:28.616Z</time></trkpt><trkpt lat="38.8374273" lon="16.293366"><ele>289.0</ele><time>2026-04-19T07:42:32.616Z</time></trkpt><trkpt lat="38.8375007" lon="16.2934102"><ele>289.0</ele><time>2026-04-19T07:42:34.617Z</time></trkpt><trkpt lat="38.8375759" lon="16.2934967"><ele>289.0</ele><time>2026-04-19T07:42:37.638Z</time></trkpt><trkpt lat="38.8376522" lon="16.2935526"><ele>289.0</ele><time>2026-04-19T07:42:39.61Z</time></trkpt><trkpt lat="38.8376978" lon="16.2936316"><ele>289.0</ele><time>2026-04-19T07:42:41.679Z</time></trkpt><trkpt lat="38.8377287" lon="16.2937339"><ele>289.0</ele><time>2026-04-19T07:42:43.695Z</time></trkpt><trkpt lat="38.8377812" lon="16.2938629"><ele>287.5</ele><time>2026-04-19T07:42:45.613Z</time></trkpt><trkpt lat="38.837805" lon="16.2939835"><ele>286.0</ele><time>2026-04-19T07:42:47.609Z</time></trkpt><trkpt lat="38.8378168" lon="16.2940643"><ele>284.5</ele><time>2026-04-19T07:42:48.638Z</time></trkpt><trkpt lat="38.8378076" lon="16.2941468"><ele>283.0</ele><time>2026-04-19T07:42:49.608Z</time></trkpt><trkpt lat="38.8377818" lon="16.2942305"><ele>281.5</ele><time>2026-04-19T07:42:50.606Z</time></trkpt><trkpt lat="38.8377555" lon="16.2943092"><ele>280.0</ele><time>2026-04-19T07:42:51.612Z</time></trkpt><trkpt lat="38.8377066" lon="16.294433"><ele>280.0</ele><time>2026-04-19T07:42:53.611Z</time></trkpt><trkpt lat="38.837659" lon="16.2945209"><ele>280.0</ele><time>2026-04-19T07:42:56.609Z</time></trkpt><trkpt lat="38.837626" lon="16.294593"><ele>280.0</ele><time>2026-04-19T07:42:59.621Z</time></trkpt><trkpt lat="38.8375807" lon="16.2946921"><ele>280.0</ele><time>2026-04-19T07:43:02.686Z</time></trkpt><trkpt lat="38.8375133" lon="16.294804"><ele>280.0</ele><time>2026-04-19T07:43:04.61Z</time></trkpt><trkpt lat="38.8374534" lon="16.2949254"><ele>286.0</ele><time>2026-04-19T07:43:06.606Z</time></trkpt><trkpt lat="38.8374233" lon="16.295069"><ele>292.0</ele><time>2026-04-19T07:43:08.61Z</time></trkpt><trkpt lat="38.8374063" lon="16.2951638"><ele>298.0</ele><time>2026-04-19T07:43:09.614Z</time></trkpt><trkpt lat="38.8373923" lon="16.2952813"><ele>304.0</ele><time>2026-04-19T07:43:10.608Z</time></trkpt><trkpt lat="38.837393" lon="16.2953874"><ele>310.0</ele><time>2026-04-19T07:43:11.613Z</time></trkpt><trkpt lat="38.8374028" lon="16.2954802"><ele>316.0</ele><time>2026-04-19T07:43:12.608Z</time></trkpt><trkpt lat="38.8374065" lon="16.2955813"><ele>316.8571428571429</ele><time>2026-04-19T07:43:13.618Z</time></trkpt><trkpt lat="38.837405" lon="16.29568"><ele>317.7142857142857</ele><time>2026-04-19T07:43:14.608Z</time></trkpt><trkpt lat="38.8374076" lon="16.2957755"><ele>318.57142857142856</ele><time>2026-04-19T07:43:15.606Z</time></trkpt><trkpt lat="38.8374131" lon="16.2958673"><ele>319.42857142857144</ele><time>2026-04-19T07:43:16.612Z</time></trkpt><trkpt lat="38.8374154" lon="16.2959537"><ele>320.2857142857143</ele><time>2026-04-19T07:43:17.611Z</time></trkpt><trkpt lat="38.8374173" lon="16.2960457"><ele>321.14285714285717</ele><time>2026-04-19T07:43:18.609Z</time></trkpt><trkpt lat="38.8374181" lon="16.2961426"><ele>322.0</ele><time>2026-04-19T07:43:19.626Z</time></trkpt><trkpt lat="38.83741" lon="16.2962486"><ele>322.0</ele><time>2026-04-19T07:43:20.61Z</time></trkpt><trkpt lat="38.837398" lon="16.2963507"><ele>322.0</ele><time>2026-04-19T07:43:21.61Z</time></trkpt><trkpt lat="38.8373877" lon="16.2964401"><ele>322.0</ele><time>2026-04-19T07:43:22.606Z</time></trkpt><trkpt lat="38.8373626" lon="16.2965316"><ele>322.0</ele><time>2026-04-19T07:43:23.612Z</time></trkpt><trkpt lat="38.8373247" lon="16.2966434"><ele>322.0</ele><time>2026-04-19T07:43:24.609Z</time></trkpt><trkpt lat="38.8372837" lon="16.2967593"><ele>322.0</ele><time>2026-04-19T07:43:25.611Z</time></trkpt><trkpt lat="38.8372422" lon="16.2968687"><ele>322.16666666666663</ele><time>2026-04-19T07:43:26.616Z</time></trkpt><trkpt lat="38.8371914" lon="16.2969853"><ele>322.3333333333333</ele><time>2026-04-19T07:43:27.611Z</time></trkpt><trkpt lat="38.8371453" lon="16.2971111"><ele>322.5</ele><time>2026-04-19T07:43:28.607Z</time></trkpt><trkpt lat="38.8371127" lon="16.2972234"><ele>322.6666666666667</ele><time>2026-04-19T07:43:29.63Z</time></trkpt><trkpt lat="38.8370917" lon="16.297305"><ele>322.83333333333337</ele><time>2026-04-19T07:43:30.608Z</time></trkpt><trkpt lat="38.8370565" lon="16.2973914"><ele>323.0</ele><time>2026-04-19T07:43:32.601Z</time></trkpt><trkpt lat="38.8370061" lon="16.2975015"><ele>323.0</ele><time>2026-04-19T07:43:34.61Z</time></trkpt><trkpt lat="38.8369616" lon="16.2975991"><ele>323.0</ele><time>2026-04-19T07:43:35.617Z</time></trkpt><trkpt lat="38.8368945" lon="16.2977233"><ele>323.0</ele><time>2026-04-19T07:43:36.629Z</time></trkpt><trkpt lat="38.8368172" lon="16.2978561"><ele>323.0</ele><time>2026-04-19T07:43:37.61Z</time></trkpt><trkpt lat="38.8367377" lon="16.2979851"><ele>325.25</ele><time>2026-04-19T07:43:38.606Z</time></trkpt><trkpt lat="38.836657" lon="16.2981071"><ele>327.5</ele><time>2026-04-19T07:43:39.616Z</time></trkpt><trkpt lat="38.8365737" lon="16.2982324"><ele>329.75</ele><time>2026-04-19T07:43:40.62Z</time></trkpt><trkpt lat="38.8364848" lon="16.2983795"><ele>332.0</ele><time>2026-04-19T07:43:41.611Z</time></trkpt><trkpt lat="38.8363919" lon="16.2985359"><ele>332.0</ele><time>2026-04-19T07:43:42.626Z</time></trkpt><trkpt lat="38.8363158" lon="16.2986761"><ele>332.0</ele><time>2026-04-19T07:43:43.61Z</time></trkpt><trkpt lat="38.8362398" lon="16.2988061"><ele>332.0</ele><time>2026-04-19T07:43:44.609Z</time></trkpt><trkpt lat="38.8361542" lon="16.2989429"><ele>332.0</ele><time>2026-04-19T07:43:45.61Z</time></trkpt><trkpt lat="38.8360686" lon="16.2990801"><ele>332.25</ele><time>2026-04-19T07:43:46.608Z</time></trkpt><trkpt lat="38.8359906" lon="16.2992152"><ele>332.5</ele><time>2026-04-19T07:43:47.612Z</time></trkpt><trkpt lat="38.8359151" lon="16.2993533"><ele>332.75</ele><time>2026-04-19T07:43:48.612Z</time></trkpt><trkpt lat="38.8358429" lon="16.2994936"><ele>333.0</ele><time>2026-04-19T07:43:49.624Z</time></trkpt><trkpt lat="38.8357692" lon="16.2996295"><ele>334.5</ele><time>2026-04-19T07:43:50.614Z</time></trkpt><trkpt lat="38.8356937" lon="16.2997602"><ele>336.0</ele><time>2026-04-19T07:43:51.609Z</time></trkpt><trkpt lat="38.8356151" lon="16.2998888"><ele>337.5</ele><time>2026-04-19T07:43:52.615Z</time></trkpt><trkpt lat="38.835527" lon="16.3000084"><ele>339.0</ele><time>2026-04-19T07:43:53.61Z</time></trkpt><trkpt lat="38.8354236" lon="16.3001153"><ele>339.0</ele><time>2026-04-19T07:43:54.613Z</time></trkpt><trkpt lat="38.835304" lon="16.3002116"><ele>339.0</ele><time>2026-04-19T07:43:55.628Z</time></trkpt><trkpt lat="38.8351661" lon="16.3003098"><ele>339.0</ele><time>2026-04-19T07:43:56.604Z</time></trkpt><trkpt lat="38.8350032" lon="16.3004219"><ele>339.6666666666667</ele><time>2026-04-19T07:43:57.609Z</time></trkpt><trkpt lat="38.8348279" lon="16.3005406"><ele>340.33333333333337</ele><time>2026-04-19T07:43:58.609Z</time></trkpt><trkpt lat="38.8346598" lon="16.3006562"><ele>341.0</ele><time>2026-04-19T07:43:59.603Z</time></trkpt><trkpt lat="38.8345034" lon="16.3007609"><ele>341.25</ele><time>2026-04-19T07:44:00.628Z</time></trkpt><trkpt lat="38.8343725" lon="16.300848"><ele>341.5</ele><time>2026-04-19T07:44:01.61Z</time></trkpt><trkpt lat="38.834254" lon="16.3009346"><ele>341.75</ele><time>2026-04-19T07:44:02.616Z</time></trkpt><trkpt lat="38.834154" lon="16.3010149"><ele>342.0</ele><time>2026-04-19T07:44:03.615Z</time></trkpt><trkpt lat="38.8340622" lon="16.3010772"><ele>343.25</ele><time>2026-04-19T07:44:04.607Z</time></trkpt><trkpt lat="38.8339746" lon="16.3011181"><ele>344.5</ele><time>2026-04-19T07:44:05.608Z</time></trkpt><trkpt lat="38.8338717" lon="16.3011441"><ele>345.75</ele><time>2026-04-19T07:44:06.611Z</time></trkpt><trkpt lat="38.8337433" lon="16.3011661"><ele>347.0</ele><time>2026-04-19T07:44:07.61Z</time></trkpt><trkpt lat="38.8335966" lon="16.3011938"><ele>347.75</ele><time>2026-04-19T07:44:08.607Z</time></trkpt><trkpt lat="38.8334463" lon="16.3012133"><ele>348.5</ele><time>2026-04-19T07:44:09.625Z</time></trkpt><trkpt lat="38.8333118" lon="16.3012261"><ele>349.25</ele><time>2026-04-19T07:44:10.605Z</time></trkpt><trkpt lat="38.8331688" lon="16.301241"><ele>350.0</ele><time>2026-04-19T07:44:11.609Z</time></trkpt><trkpt lat="38.8330339" lon="16.3012604"><ele>350.0</ele><time>2026-04-19T07:44:12.603Z</time></trkpt><trkpt lat="38.8329054" lon="16.3012759"><ele>350.0</ele><time>2026-04-19T07:44:13.616Z</time></trkpt><trkpt lat="38.8327815" lon="16.3012896"><ele>350.0</ele><time>2026-04-19T07:44:14.606Z</time></trkpt><trkpt lat="38.8326481" lon="16.3013078"><ele>350.0</ele><time>2026-04-19T07:44:15.612Z</time></trkpt><trkpt lat="38.832502" lon="16.301326"><ele>351.0</ele><time>2026-04-19T07:44:16.612Z</time></trkpt><trkpt lat="38.8323518" lon="16.3013496"><ele>352.0</ele><time>2026-04-19T07:44:17.61Z</time></trkpt><trkpt lat="38.8322222" lon="16.3013921"><ele>353.0</ele><time>2026-04-19T07:44:18.609Z</time></trkpt><trkpt lat="38.8321126" lon="16.3014659"><ele>354.0</ele><time>2026-04-19T07:44:19.628Z</time></trkpt><trkpt lat="38.8320171" lon="16.3015746"><ele>355.3333333333333</ele><time>2026-04-19T07:44:20.614Z</time></trkpt><trkpt lat="38.8319257" lon="16.3017241"><ele>356.66666666666663</ele><time>2026-04-19T07:44:21.61Z</time></trkpt><trkpt lat="38.8318283" lon="16.3019068"><ele>358.0</ele><time>2026-04-19T07:44:22.61Z</time></trkpt><trkpt lat="38.8317215" lon="16.3021134"><ele>359.66666666666663</ele><time>2026-04-19T07:44:23.609Z</time></trkpt><trkpt lat="38.8316121" lon="16.3023236"><ele>361.3333333333333</ele><time>2026-04-19T07:44:24.629Z</time></trkpt><trkpt lat="38.8315416" lon="16.3025328"><ele>363.0</ele><time>2026-04-19T07:44:25.605Z</time></trkpt><trkpt lat="38.8314885" lon="16.3027371"><ele>363.0</ele><time>2026-04-19T07:44:26.608Z</time></trkpt><trkpt lat="38.8314592" lon="16.3029418"><ele>363.0</ele><time>2026-04-19T07:44:27.605Z</time></trkpt><trkpt lat="38.8314402" lon="16.3031368"><ele>363.0</ele><time>2026-04-19T07:44:28.616Z</time></trkpt><trkpt lat="38.8314194" lon="16.3033144"><ele>363.4</ele><time>2026-04-19T07:44:29.612Z</time></trkpt><trkpt lat="38.8313955" lon="16.3034836"><ele>363.79999999999995</ele><time>2026-04-19T07:44:30.607Z</time></trkpt><trkpt lat="38.8313664" lon="16.3036371"><ele>364.2</ele><time>2026-04-19T07:44:31.608Z</time></trkpt><trkpt lat="38.8313353" lon="16.3037574"><ele>364.6</ele><time>2026-04-19T07:44:32.607Z</time></trkpt><trkpt lat="38.8313013" lon="16.3038447"><ele>365.0</ele><time>2026-04-19T07:44:33.608Z</time></trkpt><trkpt lat="38.8312454" lon="16.3039196"><ele>366.2</ele><time>2026-04-19T07:44:35.614Z</time></trkpt><trkpt lat="38.8311861" lon="16.3039506"><ele>367.4</ele><time>2026-04-19T07:44:44.617Z</time></trkpt><trkpt lat="38.8311454" lon="16.3040486"><ele>368.6</ele><time>2026-04-19T07:44:46.611Z</time></trkpt><trkpt lat="38.8311806" lon="16.3041478"><ele>369.8</ele><time>2026-04-19T07:44:47.608Z</time></trkpt><trkpt lat="38.8312099" lon="16.3042701"><ele>371.0</ele><time>2026-04-19T07:44:48.607Z</time></trkpt><trkpt lat="38.8312418" lon="16.3044242"><ele>371.0</ele><time>2026-04-19T07:44:49.606Z</time></trkpt><trkpt lat="38.8312649" lon="16.3046099"><ele>371.0</ele><time>2026-04-19T07:44:50.608Z</time></trkpt><trkpt lat="38.8312793" lon="16.3048224"><ele>371.0</ele><time>2026-04-19T07:44:51.614Z</time></trkpt><trkpt lat="38.8312997" lon="16.3050535"><ele>373.6666666666667</ele><time>2026-04-19T07:44:52.624Z</time></trkpt><trkpt lat="38.8313261" lon="16.3052713"><ele>376.3333333333333</ele><time>2026-04-19T07:44:53.609Z</time></trkpt><trkpt lat="38.8313545" lon="16.3054827"><ele>379.0</ele><time>2026-04-19T07:44:54.607Z</time></trkpt><trkpt lat="38.8313964" lon="16.3056945"><ele>382.66666666666663</ele><time>2026-04-19T07:44:55.611Z</time></trkpt><trkpt lat="38.831442" lon="16.3059067"><ele>386.3333333333333</ele><time>2026-04-19T07:44:56.613Z</time></trkpt><trkpt lat="38.8314944" lon="16.3061336"><ele>390.0</ele><time>2026-04-19T07:44:57.61Z</time></trkpt><trkpt lat="38.8315047" lon="16.3063307"><ele>392.25</ele><time>2026-04-19T07:44:58.607Z</time></trkpt><trkpt lat="38.8314801" lon="16.3064847"><ele>394.5</ele><time>2026-04-19T07:44:59.613Z</time></trkpt><trkpt lat="38.831419" lon="16.3066024"><ele>396.75</ele><time>2026-04-19T07:45:00.614Z</time></trkpt><trkpt lat="38.8313453" lon="16.3067111"><ele>399.0</ele><time>2026-04-19T07:45:01.603Z</time></trkpt><trkpt lat="38.8312211" lon="16.3068639"><ele>399.0</ele><time>2026-04-19T07:45:02.627Z</time></trkpt><trkpt lat="38.8310801" lon="16.307012"><ele>399.0</ele><time>2026-04-19T07:45:03.606Z</time></trkpt><trkpt lat="38.8309506" lon="16.307149"><ele>399.0</ele><time>2026-04-19T07:45:04.611Z</time></trkpt><trkpt lat="38.8308383" lon="16.3072718"><ele>402.0</ele><time>2026-04-19T07:45:05.615Z</time></trkpt><trkpt lat="38.8307552" lon="16.3074025"><ele>405.0</ele><time>2026-04-19T07:45:06.607Z</time></trkpt><trkpt lat="38.8306902" lon="16.307559"><ele>408.0</ele><time>2026-04-19T07:45:07.634Z</time></trkpt><trkpt lat="38.8306515" lon="16.3077242"><ele>411.0</ele><time>2026-04-19T07:45:08.607Z</time></trkpt><trkpt lat="38.8306179" lon="16.3078992"><ele>411.0</ele><time>2026-04-19T07:45:09.605Z</time></trkpt><trkpt lat="38.8305698" lon="16.3080579"><ele>411.0</ele><time>2026-04-19T07:45:10.613Z</time></trkpt><trkpt lat="38.8304909" lon="16.3082225"><ele>411.0</ele><time>2026-04-19T07:45:11.609Z</time></trkpt><trkpt lat="38.8303884" lon="16.308401"><ele>410.33333333333337</ele><time>2026-04-19T07:45:12.609Z</time></trkpt><trkpt lat="38.8302709" lon="16.3085881"><ele>409.6666666666667</ele><time>2026-04-19T07:45:13.611Z</time></trkpt><trkpt lat="38.8301638" lon="16.3087539"><ele>409.0</ele><time>2026-04-19T07:45:14.631Z</time></trkpt><trkpt lat="38.8300883" lon="16.3088719"><ele>411.2</ele><time>2026-04-19T07:45:15.608Z</time></trkpt><trkpt lat="38.8300212" lon="16.3089811"><ele>413.4</ele><time>2026-04-19T07:45:16.604Z</time></trkpt><trkpt lat="38.829965" lon="16.3090599"><ele>415.6</ele><time>2026-04-19T07:45:17.607Z</time></trkpt><trkpt lat="38.829913" lon="16.3091087"><ele>417.8</ele><time>2026-04-19T07:45:18.604Z</time></trkpt><trkpt lat="38.829866" lon="16.3092131"><ele>420.0</ele><time>2026-04-19T07:45:20.608Z</time></trkpt><trkpt lat="38.829939" lon="16.3093035"><ele>420.0</ele><time>2026-04-19T07:45:21.605Z</time></trkpt><trkpt lat="38.8300087" lon="16.3094274"><ele>420.0</ele><time>2026-04-19T07:45:22.606Z</time></trkpt><trkpt lat="38.8300463" lon="16.3095924"><ele>420.0</ele><time>2026-04-19T07:45:23.606Z</time></trkpt><trkpt lat="38.8300875" lon="16.3097986"><ele>420.0</ele><time>2026-04-19T07:45:24.633Z</time></trkpt><trkpt lat="38.8300754" lon="16.31003"><ele>420.66666666666663</ele><time>2026-04-19T07:45:25.613Z</time></trkpt><trkpt lat="38.8300438" lon="16.3102572"><ele>421.3333333333333</ele><time>2026-04-19T07:45:26.61Z</time></trkpt><trkpt lat="38.830001" lon="16.310455"><ele>422.0</ele><time>2026-04-19T07:45:27.61Z</time></trkpt><trkpt lat="38.8299442" lon="16.310638"><ele>422.3333333333333</ele><time>2026-04-19T07:45:28.604Z</time></trkpt><trkpt lat="38.829879" lon="16.3108263"><ele>422.66666666666663</ele><time>2026-04-19T07:45:29.629Z</time></trkpt><trkpt lat="38.8298038" lon="16.310998"><ele>423.0</ele><time>2026-04-19T07:45:30.605Z</time></trkpt><trkpt lat="38.8297099" lon="16.3111822"><ele>423.0</ele><time>2026-04-19T07:45:31.61Z</time></trkpt><trkpt lat="38.8296144" lon="16.3113635"><ele>423.0</ele><time>2026-04-19T07:45:32.611Z</time></trkpt><trkpt lat="38.8295335" lon="16.311507"><ele>423.0</ele><time>2026-04-19T07:45:33.602Z</time></trkpt><trkpt lat="38.8294791" lon="16.3116111"><ele>423.0</ele><time>2026-04-19T07:45:34.622Z</time></trkpt><trkpt lat="38.8294251" lon="16.3117225"><ele>423.2</ele><time>2026-04-19T07:45:36.605Z</time></trkpt><trkpt lat="38.8293424" lon="16.3118954"><ele>423.4</ele><time>2026-04-19T07:45:38.606Z</time></trkpt><trkpt lat="38.8292861" lon="16.3119868"><ele>423.59999999999997</ele><time>2026-04-19T07:45:39.602Z</time></trkpt><trkpt lat="38.8292264" lon="16.3120666"><ele>423.79999999999995</ele><time>2026-04-19T07:45:40.61Z</time></trkpt><trkpt lat="38.8291391" lon="16.312143"><ele>424.0</ele><time>2026-04-19T07:45:41.606Z</time></trkpt><trkpt lat="38.8290335" lon="16.3121815"><ele>425.0</ele><time>2026-04-19T07:45:42.602Z</time></trkpt><trkpt lat="38.8289089" lon="16.3121885"><ele>426.0</ele><time>2026-04-19T07:45:43.628Z</time></trkpt><trkpt lat="38.828771" lon="16.3121759"><ele>427.0</ele><time>2026-04-19T07:45:44.608Z</time></trkpt><trkpt lat="38.8286208" lon="16.312144"><ele>428.0</ele><time>2026-04-19T07:45:45.607Z</time></trkpt><trkpt lat="38.8284823" lon="16.3121056"><ele>428.4</ele><time>2026-04-19T07:45:46.609Z</time></trkpt><trkpt lat="38.828376" lon="16.3120808"><ele>428.79999999999995</ele><time>2026-04-19T07:45:47.605Z</time></trkpt><trkpt lat="38.8282946" lon="16.3120943"><ele>429.2</ele><time>2026-04-19T07:45:48.63Z</time></trkpt><trkpt lat="38.8282411" lon="16.3121497"><ele>429.6</ele><time>2026-04-19T07:45:49.607Z</time></trkpt><trkpt lat="38.8282" lon="16.3122501"><ele>430.0</ele><time>2026-04-19T07:45:50.608Z</time></trkpt><trkpt lat="38.8281729" lon="16.3124009"><ele>430.25</ele><time>2026-04-19T07:45:51.612Z</time></trkpt><trkpt lat="38.8281467" lon="16.3125928"><ele>430.5</ele><time>2026-04-19T07:45:52.607Z</time></trkpt><trkpt lat="38.8281225" lon="16.3127885"><ele>430.75</ele><time>2026-04-19T07:45:53.604Z</time></trkpt><trkpt lat="38.8281009" lon="16.3129448"><ele>431.0</ele><time>2026-04-19T07:45:54.628Z</time></trkpt><trkpt lat="38.8280735" lon="16.3130666"><ele>431.5</ele><time>2026-04-19T07:45:55.609Z</time></trkpt><trkpt lat="38.8280395" lon="16.3131939"><ele>432.0</ele><time>2026-04-19T07:45:56.609Z</time></trkpt><trkpt lat="38.8280474" lon="16.3133435"><ele>432.5</ele><time>2026-04-19T07:45:57.606Z</time></trkpt><trkpt lat="38.8280721" lon="16.313534"><ele>433.0</ele><time>2026-04-19T07:45:58.607Z</time></trkpt><trkpt lat="38.8281096" lon="16.31377"><ele>432.0</ele><time>2026-04-19T07:45:59.627Z</time></trkpt><trkpt lat="38.8281419" lon="16.3140008"><ele>431.0</ele><time>2026-04-19T07:46:00.607Z</time></trkpt><trkpt lat="38.8281797" lon="16.3142276"><ele>430.0</ele><time>2026-04-19T07:46:01.603Z</time></trkpt><trkpt lat="38.8281888" lon="16.3144518"><ele>430.0</ele><time>2026-04-19T07:46:02.605Z</time></trkpt><trkpt lat="38.828172" lon="16.3146805"><ele>430.0</ele><time>2026-04-19T07:46:03.608Z</time></trkpt><trkpt lat="38.8281489" lon="16.3148809"><ele>430.0</ele><time>2026-04-19T07:46:04.611Z</time></trkpt><trkpt lat="38.8281298" lon="16.3150656"><ele>429.5</ele><time>2026-04-19T07:46:05.612Z</time></trkpt><trkpt lat="38.8281081" lon="16.3152391"><ele>429.0</ele><time>2026-04-19T07:46:06.613Z</time></trkpt><trkpt lat="38.8280884" lon="16.3154048"><ele>428.5</ele><time>2026-04-19T07:46:07.612Z</time></trkpt><trkpt lat="38.828077" lon="16.3155668"><ele>428.0</ele><time>2026-04-19T07:46:08.616Z</time></trkpt><trkpt lat="38.8280575" lon="16.3157343"><ele>427.0</ele><time>2026-04-19T07:46:09.615Z</time></trkpt><trkpt lat="38.82804" lon="16.3159131"><ele>426.0</ele><time>2026-04-19T07:46:10.649Z</time></trkpt><trkpt lat="38.8280145" lon="16.3161069"><ele>425.0</ele><time>2026-04-19T07:46:11.612Z</time></trkpt><trkpt lat="38.82799" lon="16.3163133"><ele>424.3333333333333</ele><time>2026-04-19T07:46:12.605Z</time></trkpt><trkpt lat="38.8279633" lon="16.3165218"><ele>423.66666666666663</ele><time>2026-04-19T07:46:13.608Z</time></trkpt><trkpt lat="38.8279401" lon="16.3167404"><ele>423.0</ele><time>2026-04-19T07:46:14.611Z</time></trkpt><trkpt lat="38.8279147" lon="16.3169795"><ele>422.0</ele><time>2026-04-19T07:46:15.606Z</time></trkpt><trkpt lat="38.8278828" lon="16.3172454"><ele>421.0</ele><time>2026-04-19T07:46:16.608Z</time></trkpt><trkpt lat="38.827849" lon="16.3175353"><ele>420.0</ele><time>2026-04-19T07:46:17.614Z</time></trkpt><trkpt lat="38.8278164" lon="16.3178048"><ele>420.0</ele><time>2026-04-19T07:46:18.611Z</time></trkpt><trkpt lat="38.8277941" lon="16.3180269"><ele>420.0</ele><time>2026-04-19T07:46:19.608Z</time></trkpt><trkpt lat="38.827772" lon="16.3182175"><ele>420.0</ele><time>2026-04-19T07:46:20.64Z</time></trkpt><trkpt lat="38.8277532" lon="16.3183861"><ele>420.0</ele><time>2026-04-19T07:46:21.612Z</time></trkpt><trkpt lat="38.8277382" lon="16.318528"><ele>420.0</ele><time>2026-04-19T07:46:22.611Z</time></trkpt><trkpt lat="38.8277301" lon="16.3186469"><ele>420.0</ele><time>2026-04-19T07:46:23.608Z</time></trkpt><trkpt lat="38.8277012" lon="16.3187533"><ele>420.0</ele><time>2026-04-19T07:46:24.602Z</time></trkpt><trkpt lat="38.8276563" lon="16.3188361"><ele>420.0</ele><time>2026-04-19T07:46:25.604Z</time></trkpt><trkpt lat="38.8276435" lon="16.3189579"><ele>419.66666666666663</ele><time>2026-04-19T07:46:26.612Z</time></trkpt><trkpt lat="38.8276922" lon="16.3191106"><ele>419.3333333333333</ele><time>2026-04-19T07:46:27.613Z</time></trkpt><trkpt lat="38.8277556" lon="16.3193102"><ele>419.0</ele><time>2026-04-19T07:46:28.623Z</time></trkpt><trkpt lat="38.8278124" lon="16.3195185"><ele>419.0</ele><time>2026-04-19T07:46:29.606Z</time></trkpt><trkpt lat="38.8278525" lon="16.3197104"><ele>419.0</ele><time>2026-04-19T07:46:30.607Z</time></trkpt><trkpt lat="38.8279028" lon="16.3199171"><ele>419.0</ele><time>2026-04-19T07:46:31.607Z</time></trkpt><trkpt lat="38.827945" lon="16.3201074"><ele>420.2</ele><time>2026-04-19T07:46:32.615Z</time></trkpt><trkpt lat="38.8279811" lon="16.3202639"><ele>421.4</ele><time>2026-04-19T07:46:33.605Z</time></trkpt><trkpt lat="38.8279972" lon="16.3203821"><ele>422.6</ele><time>2026-04-19T07:46:34.619Z</time></trkpt><trkpt lat="38.828012" lon="16.3204939"><ele>423.8</ele><time>2026-04-19T07:46:35.604Z</time></trkpt><trkpt lat="38.8279515" lon="16.3206349"><ele>425.0</ele><time>2026-04-19T07:46:36.603Z</time></trkpt><trkpt lat="38.8278704" lon="16.3208334"><ele>427.3333333333333</ele><time>2026-04-19T07:46:37.603Z</time></trkpt><trkpt lat="38.827784" lon="16.32105"><ele>429.66666666666663</ele><time>2026-04-19T07:46:38.61Z</time></trkpt><trkpt lat="38.8276856" lon="16.3212825"><ele>432.0</ele><time>2026-04-19T07:46:39.606Z</time></trkpt><trkpt lat="38.8275861" lon="16.3215143"><ele>432.33333333333337</ele><time>2026-04-19T07:46:40.604Z</time></trkpt><trkpt lat="38.8274593" lon="16.3217323"><ele>432.6666666666667</ele><time>2026-04-19T07:46:41.632Z</time></trkpt><trkpt lat="38.8273191" lon="16.3219522"><ele>433.0</ele><time>2026-04-19T07:46:42.604Z</time></trkpt><trkpt lat="38.8271905" lon="16.3221636"><ele>434.0</ele><time>2026-04-19T07:46:43.605Z</time></trkpt><trkpt lat="38.8270768" lon="16.3223693"><ele>435.0</ele><time>2026-04-19T07:46:44.613Z</time></trkpt><trkpt lat="38.8269825" lon="16.3225994"><ele>436.0</ele><time>2026-04-19T07:46:45.606Z</time></trkpt><trkpt lat="38.8269005" lon="16.3228481"><ele>436.6666666666667</ele><time>2026-04-19T07:46:46.65Z</time></trkpt><trkpt lat="38.8268296" lon="16.3230862"><ele>437.33333333333337</ele><time>2026-04-19T07:46:47.603Z</time></trkpt><trkpt lat="38.8267654" lon="16.32333"><ele>438.0</ele><time>2026-04-19T07:46:48.606Z</time></trkpt><trkpt lat="38.8267035" lon="16.3235605"><ele>438.0</ele><time>2026-04-19T07:46:49.605Z</time></trkpt><trkpt lat="38.8266544" lon="16.3237701"><ele>438.0</ele><time>2026-04-19T07:46:50.608Z</time></trkpt><trkpt lat="38.8266092" lon="16.3239492"><ele>438.0</ele><time>2026-04-19T07:46:51.605Z</time></trkpt><trkpt lat="38.826571" lon="16.3241106"><ele>438.0</ele><time>2026-04-19T07:46:52.603Z</time></trkpt><trkpt lat="38.8265442" lon="16.3242493"><ele>439.0</ele><time>2026-04-19T07:46:53.608Z</time></trkpt><trkpt lat="38.8265206" lon="16.3243647"><ele>439.99999999999994</ele><time>2026-04-19T07:46:54.613Z</time></trkpt><trkpt lat="38.8264813" lon="16.3244493"><ele>440.99999999999994</ele><time>2026-04-19T07:46:55.61Z</time></trkpt><trkpt lat="38.8264052" lon="16.3245022"><ele>442.0</ele><time>2026-04-19T07:46:56.621Z</time></trkpt><trkpt lat="38.8263148" lon="16.3245341"><ele>443.0</ele><time>2026-04-19T07:46:57.604Z</time></trkpt><trkpt lat="38.8261726" lon="16.3245068"><ele>443.0</ele><time>2026-04-19T07:46:58.611Z</time></trkpt><trkpt lat="38.826033" lon="16.3245321"><ele>443.0</ele><time>2026-04-19T07:46:59.609Z</time></trkpt><trkpt lat="38.8258804" lon="16.3245823"><ele>443.0</ele><time>2026-04-19T07:47:00.606Z</time></trkpt><trkpt lat="38.8257559" lon="16.3246946"><ele>443.75</ele><time>2026-04-19T07:47:01.625Z</time></trkpt><trkpt lat="38.8256505" lon="16.3247831"><ele>444.5</ele><time>2026-04-19T07:47:02.604Z</time></trkpt><trkpt lat="38.8255438" lon="16.3248349"><ele>445.25</ele><time>2026-04-19T07:47:03.61Z</time></trkpt><trkpt lat="38.8254249" lon="16.3247973"><ele>446.0</ele><time>2026-04-19T07:47:04.604Z</time></trkpt><trkpt lat="38.8252842" lon="16.3247223"><ele>443.75</ele><time>2026-04-19T07:47:05.606Z</time></trkpt><trkpt lat="38.8251566" lon="16.3246657"><ele>441.5</ele><time>2026-04-19T07:47:06.607Z</time></trkpt><trkpt lat="38.8250225" lon="16.3246476"><ele>439.25</ele><time>2026-04-19T07:47:07.607Z</time></trkpt><trkpt lat="38.8248859" lon="16.3246703"><ele>437.0</ele><time>2026-04-19T07:47:08.627Z</time></trkpt><trkpt lat="38.8247498" lon="16.3247254"><ele>437.75</ele><time>2026-04-19T07:47:09.605Z</time></trkpt><trkpt lat="38.8246218" lon="16.3247736"><ele>438.5</ele><time>2026-04-19T07:47:10.608Z</time></trkpt><trkpt lat="38.8245159" lon="16.3248004"><ele>439.25</ele><time>2026-04-19T07:47:11.609Z</time></trkpt><trkpt lat="38.8244132" lon="16.3247995"><ele>440.0</ele><time>2026-04-19T07:47:12.606Z</time></trkpt><trkpt lat="38.8243045" lon="16.3247857"><ele>440.0</ele><time>2026-04-19T07:47:13.635Z</time></trkpt><trkpt lat="38.8241998" lon="16.3247871"><ele>440.0</ele><time>2026-04-19T07:47:14.611Z</time></trkpt><trkpt lat="38.8240712" lon="16.3248023"><ele>440.0</ele><time>2026-04-19T07:47:15.603Z</time></trkpt><trkpt lat="38.8239089" lon="16.3248659"><ele>440.0</ele><time>2026-04-19T07:47:16.605Z</time></trkpt><trkpt lat="38.8237365" lon="16.3249537"><ele>440.0</ele><time>2026-04-19T07:47:17.609Z</time></trkpt><trkpt lat="38.8235738" lon="16.3250353"><ele>440.0</ele><time>2026-04-19T07:47:18.624Z</time></trkpt><trkpt lat="38.8234122" lon="16.3251085"><ele>440.0</ele><time>2026-04-19T07:47:19.607Z</time></trkpt><trkpt lat="38.8232499" lon="16.3251778"><ele>434.66666666666663</ele><time>2026-04-19T07:47:20.609Z</time></trkpt><trkpt lat="38.823087" lon="16.3252418"><ele>429.33333333333337</ele><time>2026-04-19T07:47:21.608Z</time></trkpt><trkpt lat="38.8229322" lon="16.3252959"><ele>424.0</ele><time>2026-04-19T07:47:22.604Z</time></trkpt><trkpt lat="38.8228052" lon="16.325342"><ele>424.0</ele><time>2026-04-19T07:47:23.62Z</time></trkpt><trkpt lat="38.8227077" lon="16.3254069"><ele>424.0</ele><time>2026-04-19T07:47:24.604Z</time></trkpt><trkpt lat="38.8226097" lon="16.3254713"><ele>424.0</ele><time>2026-04-19T07:47:25.606Z</time></trkpt><trkpt lat="38.8225064" lon="16.3255874"><ele>424.0</ele><time>2026-04-19T07:47:26.603Z</time></trkpt><trkpt lat="38.8223876" lon="16.3257268"><ele>423.25</ele><time>2026-04-19T07:47:27.605Z</time></trkpt><trkpt lat="38.8222864" lon="16.3258364"><ele>422.5</ele><time>2026-04-19T07:47:28.609Z</time></trkpt><trkpt lat="38.8222059" lon="16.3259481"><ele>421.75</ele><time>2026-04-19T07:47:29.608Z</time></trkpt><trkpt lat="38.8221616" lon="16.3260697"><ele>421.0</ele><time>2026-04-19T07:47:30.62Z</time></trkpt><trkpt lat="38.8221396" lon="16.3262112"><ele>421.0</ele><time>2026-04-19T07:47:31.616Z</time></trkpt><trkpt lat="38.8221192" lon="16.3263626"><ele>421.0</ele><time>2026-04-19T07:47:32.613Z</time></trkpt><trkpt lat="38.8221145" lon="16.3265087"><ele>421.0</ele><time>2026-04-19T07:47:33.611Z</time></trkpt><trkpt lat="38.8220611" lon="16.3266187"><ele>421.0</ele><time>2026-04-19T07:47:34.609Z</time></trkpt><trkpt lat="38.8220304" lon="16.3267241"><ele>421.0</ele><time>2026-04-19T07:47:35.613Z</time></trkpt><trkpt lat="38.8220592" lon="16.3268362"><ele>421.6</ele><time>2026-04-19T07:47:36.606Z</time></trkpt><trkpt lat="38.8221417" lon="16.3269311"><ele>422.20000000000005</ele><time>2026-04-19T07:47:37.608Z</time></trkpt><trkpt lat="38.8222274" lon="16.3270112"><ele>422.79999999999995</ele><time>2026-04-19T07:47:38.608Z</time></trkpt><trkpt lat="38.822307" lon="16.3270807"><ele>423.4</ele><time>2026-04-19T07:47:39.609Z</time></trkpt><trkpt lat="38.8223986" lon="16.3271826"><ele>424.0</ele><time>2026-04-19T07:47:41.606Z</time></trkpt><trkpt lat="38.8223926" lon="16.3272755"><ele>419.75</ele><time>2026-04-19T07:47:42.607Z</time></trkpt><trkpt lat="38.822309" lon="16.3273854"><ele>415.5</ele><time>2026-04-19T07:47:43.609Z</time></trkpt><trkpt lat="38.8221977" lon="16.3274736"><ele>411.25</ele><time>2026-04-19T07:47:44.616Z</time></trkpt><trkpt lat="38.8220939" lon="16.3275766"><ele>407.0</ele><time>2026-04-19T07:47:45.611Z</time></trkpt><trkpt lat="38.8220238" lon="16.3277237"><ele>407.0</ele><time>2026-04-19T07:47:46.626Z</time></trkpt><trkpt lat="38.8219577" lon="16.3278878"><ele>407.0</ele><time>2026-04-19T07:47:47.611Z</time></trkpt><trkpt lat="38.8218929" lon="16.32805"><ele>407.0</ele><time>2026-04-19T07:47:48.607Z</time></trkpt><trkpt lat="38.8218182" lon="16.3281938"><ele>407.0</ele><time>2026-04-19T07:47:49.61Z</time></trkpt><trkpt lat="38.8217549" lon="16.32834"><ele>403.66666666666663</ele><time>2026-04-19T07:47:50.607Z</time></trkpt><trkpt lat="38.8217103" lon="16.3285295"><ele>400.33333333333337</ele><time>2026-04-19T07:47:51.629Z</time></trkpt><trkpt lat="38.8216669" lon="16.328746"><ele>397.0</ele><time>2026-04-19T07:47:52.615Z</time></trkpt><trkpt lat="38.8216338" lon="16.3289454"><ele>397.0</ele><time>2026-04-19T07:47:53.609Z</time></trkpt><trkpt lat="38.8215965" lon="16.3291383"><ele>397.0</ele><time>2026-04-19T07:47:54.607Z</time></trkpt><trkpt lat="38.8215463" lon="16.3293052"><ele>397.0</ele><time>2026-04-19T07:47:55.614Z</time></trkpt><trkpt lat="38.8214385" lon="16.3294701"><ele>397.0</ele><time>2026-04-19T07:47:56.612Z</time></trkpt><trkpt lat="38.8213542" lon="16.329605"><ele>397.0</ele><time>2026-04-19T07:47:57.609Z</time></trkpt><trkpt lat="38.8212959" lon="16.3297501"><ele>397.0</ele><time>2026-04-19T07:47:58.628Z</time></trkpt><trkpt lat="38.8212628" lon="16.3299457"><ele>397.0</ele><time>2026-04-19T07:47:59.604Z</time></trkpt><trkpt lat="38.8212236" lon="16.3301326"><ele>399.20000000000005</ele><time>2026-04-19T07:48:00.608Z</time></trkpt><trkpt lat="38.8211958" lon="16.3302705"><ele>401.4</ele><time>2026-04-19T07:48:01.606Z</time></trkpt><trkpt lat="38.8211831" lon="16.3303927"><ele>403.6</ele><time>2026-04-19T07:48:02.616Z</time></trkpt><trkpt lat="38.8211972" lon="16.330528"><ele>405.79999999999995</ele><time>2026-04-19T07:48:03.61Z</time></trkpt><trkpt lat="38.8212125" lon="16.3306754"><ele>408.0</ele><time>2026-04-19T07:48:04.606Z</time></trkpt><trkpt lat="38.8212304" lon="16.330811"><ele>408.0</ele><time>2026-04-19T07:48:05.61Z</time></trkpt><trkpt lat="38.8212574" lon="16.3309425"><ele>408.0</ele><time>2026-04-19T07:48:06.602Z</time></trkpt><trkpt lat="38.8212913" lon="16.3310653"><ele>408.0</ele><time>2026-04-19T07:48:07.627Z</time></trkpt><trkpt lat="38.8212966" lon="16.3312018"><ele>408.0</ele><time>2026-04-19T07:48:08.602Z</time></trkpt><trkpt lat="38.821258" lon="16.3313467"><ele>408.0</ele><time>2026-04-19T07:48:09.604Z</time></trkpt><trkpt lat="38.8212088" lon="16.3315017"><ele>407.0</ele><time>2026-04-19T07:48:10.602Z</time></trkpt><trkpt lat="38.8211611" lon="16.3316524"><ele>406.0</ele><time>2026-04-19T07:48:11.607Z</time></trkpt><trkpt lat="38.8211353" lon="16.3317632"><ele>405.0</ele><time>2026-04-19T07:48:12.617Z</time></trkpt><trkpt lat="38.8210712" lon="16.3318214"><ele>404.0</ele><time>2026-04-19T07:48:13.605Z</time></trkpt><trkpt lat="38.8209688" lon="16.3318364"><ele>403.0</ele><time>2026-04-19T07:48:14.607Z</time></trkpt><trkpt lat="38.8208426" lon="16.3318101"><ele>398.33333333333337</ele><time>2026-04-19T07:48:15.61Z</time></trkpt><trkpt lat="38.8206966" lon="16.3317679"><ele>393.66666666666663</ele><time>2026-04-19T07:48:16.604Z</time></trkpt><trkpt lat="38.8205393" lon="16.3316899"><ele>389.0</ele><time>2026-04-19T07:48:17.632Z</time></trkpt><trkpt lat="38.8203812" lon="16.3315901"><ele>389.0</ele><time>2026-04-19T07:48:18.61Z</time></trkpt><trkpt lat="38.8202362" lon="16.3314966"><ele>389.0</ele><time>2026-04-19T07:48:19.603Z</time></trkpt><trkpt lat="38.8201093" lon="16.3313604"><ele>389.0</ele><time>2026-04-19T07:48:20.599Z</time></trkpt><trkpt lat="38.8200189" lon="16.331151"><ele>386.3333333333333</ele><time>2026-04-19T07:48:21.603Z</time></trkpt><trkpt lat="38.8199332" lon="16.33094"><ele>383.66666666666663</ele><time>2026-04-19T07:48:22.604Z</time></trkpt><trkpt lat="38.8198325" lon="16.3307127"><ele>381.0</ele><time>2026-04-19T07:48:23.632Z</time></trkpt><trkpt lat="38.8197149" lon="16.3304881"><ele>381.0</ele><time>2026-04-19T07:48:24.609Z</time></trkpt><trkpt lat="38.819604" lon="16.3303069"><ele>381.0</ele><time>2026-04-19T07:48:25.605Z</time></trkpt><trkpt lat="38.8194991" lon="16.3301835"><ele>381.0</ele><time>2026-04-19T07:48:26.609Z</time></trkpt><trkpt lat="38.8194741" lon="16.3300449"><ele>381.0</ele><time>2026-04-19T07:48:27.608Z</time></trkpt><trkpt lat="38.8194578" lon="16.3299014"><ele>381.0</ele><time>2026-04-19T07:48:28.612Z</time></trkpt><trkpt lat="38.819432" lon="16.3297966"><ele>381.0</ele><time>2026-04-19T07:48:29.602Z</time></trkpt><trkpt lat="38.819377" lon="16.3297086"><ele>381.0</ele><time>2026-04-19T07:48:30.624Z</time></trkpt><trkpt lat="38.8192918" lon="16.3296449"><ele>381.0</ele><time>2026-04-19T07:48:31.605Z</time></trkpt><trkpt lat="38.8192093" lon="16.3295962"><ele>381.0</ele><time>2026-04-19T07:48:32.607Z</time></trkpt><trkpt lat="38.8190928" lon="16.3295996"><ele>386.0</ele><time>2026-04-19T07:48:33.602Z</time></trkpt><trkpt lat="38.8189643" lon="16.3296073"><ele>391.0</ele><time>2026-04-19T07:48:34.608Z</time></trkpt><trkpt lat="38.8188514" lon="16.3295732"><ele>396.0</ele><time>2026-04-19T07:48:35.603Z</time></trkpt><trkpt lat="38.8187426" lon="16.3295137"><ele>401.0</ele><time>2026-04-19T07:48:36.604Z</time></trkpt><trkpt lat="38.8186019" lon="16.329421"><ele>405.66666666666663</ele><time>2026-04-19T07:48:37.612Z</time></trkpt><trkpt lat="38.8184399" lon="16.3293192"><ele>410.33333333333337</ele><time>2026-04-19T07:48:38.608Z</time></trkpt><trkpt lat="38.8182929" lon="16.3292616"><ele>415.0</ele><time>2026-04-19T07:48:39.608Z</time></trkpt><trkpt lat="38.8181651" lon="16.3292362"><ele>415.0</ele><time>2026-04-19T07:48:40.609Z</time></trkpt><trkpt lat="38.8180205" lon="16.3292503"><ele>415.0</ele><time>2026-04-19T07:48:41.606Z</time></trkpt><trkpt lat="38.8178642" lon="16.3292786"><ele>415.0</ele><time>2026-04-19T07:48:42.606Z</time></trkpt><trkpt lat="38.8176856" lon="16.3292828"><ele>417.33333333333337</ele><time>2026-04-19T07:48:43.606Z</time></trkpt><trkpt lat="38.8174964" lon="16.3292836"><ele>419.66666666666663</ele><time>2026-04-19T07:48:44.606Z</time></trkpt><trkpt lat="38.8173005" lon="16.3292452"><ele>422.0</ele><time>2026-04-19T07:48:45.618Z</time></trkpt><trkpt lat="38.8171304" lon="16.3291889"><ele>422.0</ele><time>2026-04-19T07:48:46.609Z</time></trkpt><trkpt lat="38.8169816" lon="16.3291489"><ele>422.0</ele><time>2026-04-19T07:48:47.606Z</time></trkpt><trkpt lat="38.8168646" lon="16.3291283"><ele>422.0</ele><time>2026-04-19T07:48:48.609Z</time></trkpt><trkpt lat="38.8167884" lon="16.3291154"><ele>422.0</ele><time>2026-04-19T07:48:49.605Z</time></trkpt><trkpt lat="38.816723" lon="16.3290655"><ele>422.0</ele><time>2026-04-19T07:48:51.604Z</time></trkpt><trkpt lat="38.8167444" lon="16.3289644"><ele>420.8333333333333</ele><time>2026-04-19T07:48:54.619Z</time></trkpt><trkpt lat="38.8168194" lon="16.32889"><ele>419.66666666666663</ele><time>2026-04-19T07:48:56.619Z</time></trkpt><trkpt lat="38.8168628" lon="16.3288294"><ele>418.5</ele><time>2026-04-19T07:48:57.61Z</time></trkpt><trkpt lat="38.8169113" lon="16.3287363"><ele>417.33333333333337</ele><time>2026-04-19T07:48:58.615Z</time></trkpt><trkpt lat="38.8169679" lon="16.3286369"><ele>416.1666666666667</ele><time>2026-04-19T07:48:59.606Z</time></trkpt><trkpt lat="38.8169977" lon="16.3285438"><ele>415.0</ele><time>2026-04-19T07:49:00.613Z</time></trkpt><trkpt lat="38.8170237" lon="16.3284559"><ele>415.0</ele><time>2026-04-19T07:49:01.605Z</time></trkpt><trkpt lat="38.8170219" lon="16.3283441"><ele>415.0</ele><time>2026-04-19T07:49:02.609Z</time></trkpt><trkpt lat="38.8170277" lon="16.3282561"><ele>415.0</ele><time>2026-04-19T07:49:03.608Z</time></trkpt><trkpt lat="38.8170106" lon="16.3281142"><ele>415.0</ele><time>2026-04-19T07:49:05.614Z</time></trkpt><trkpt lat="38.8169824" lon="16.3279568"><ele>415.0</ele><time>2026-04-19T07:49:07.611Z</time></trkpt><trkpt lat="38.8169799" lon="16.3277974"><ele>412.00000000000006</ele><time>2026-04-19T07:49:09.616Z</time></trkpt><trkpt lat="38.8169855" lon="16.3277144"><ele>409.0</ele><time>2026-04-19T07:49:10.618Z</time></trkpt><trkpt lat="38.8169913" lon="16.3276324"><ele>406.0</ele><time>2026-04-19T07:49:11.608Z</time></trkpt><trkpt lat="38.8169801" lon="16.3274974"><ele>403.0</ele><time>2026-04-19T07:49:13.614Z</time></trkpt><trkpt lat="38.8169658" lon="16.3274045"><ele>400.00000000000006</ele><time>2026-04-19T07:49:15.612Z</time></trkpt><trkpt lat="38.8169589" lon="16.3272981"><ele>397.0</ele><time>2026-04-19T07:49:18.614Z</time></trkpt><trkpt lat="38.8169664" lon="16.3271976"><ele>394.7142857142857</ele><time>2026-04-19T07:49:22.606Z</time></trkpt><trkpt lat="38.8169744" lon="16.3270968"><ele>392.42857142857144</ele><time>2026-04-19T07:49:27.613Z</time></trkpt><trkpt lat="38.8170052" lon="16.3270112"><ele>390.1428571428571</ele><time>2026-04-19T07:49:31.608Z</time></trkpt><trkpt lat="38.8170565" lon="16.3269418"><ele>387.8571428571429</ele><time>2026-04-19T07:49:34.631Z</time></trkpt><trkpt lat="38.81711" lon="16.3268981"><ele>385.5714285714286</ele><time>2026-04-19T07:49:38.608Z</time></trkpt><trkpt lat="38.8171762" lon="16.3268505"><ele>383.2857142857143</ele><time>2026-04-19T07:49:42.607Z</time></trkpt><trkpt lat="38.8172389" lon="16.3268307"><ele>381.0</ele><time>2026-04-19T07:49:45.611Z</time></trkpt><trkpt lat="38.8173089" lon="16.326833"><ele>381.0</ele><time>2026-04-19T07:49:51.608Z</time></trkpt><trkpt lat="38.8173749" lon="16.3268514"><ele>381.0</ele><time>2026-04-19T07:49:54.61Z</time></trkpt><trkpt lat="38.8174594" lon="16.32687"><ele>381.0</ele><time>2026-04-19T07:49:58.61Z</time></trkpt><trkpt lat="38.8175222" lon="16.326884"><ele>381.0</ele><time>2026-04-19T07:50:03.606Z</time></trkpt><trkpt lat="38.8175875" lon="16.3268809"><ele>381.0</ele><time>2026-04-19T07:50:08.607Z</time></trkpt><trkpt lat="38.8176404" lon="16.3268252"><ele>381.0</ele><time>2026-04-19T07:50:12.611Z</time></trkpt><trkpt lat="38.8176296" lon="16.3267243"><ele>381.0</ele><time>2026-04-19T07:50:17.612Z</time></trkpt><trkpt lat="38.817612" lon="16.3266444"><ele>381.0</ele><time>2026-04-19T07:50:21.626Z</time></trkpt><trkpt lat="38.8176044" lon="16.3265425"><ele>381.0</ele><time>2026-04-19T07:50:24.607Z</time></trkpt><trkpt lat="38.8176081" lon="16.3264526"><ele>381.0</ele><time>2026-04-19T07:50:26.613Z</time></trkpt><trkpt lat="38.8176087" lon="16.3263678"><ele>381.0</ele><time>2026-04-19T07:50:31.611Z</time></trkpt><trkpt lat="38.8176202" lon="16.326284"><ele>381.0</ele><time>2026-04-19T07:50:47.607Z</time></trkpt><trkpt lat="38.8176066" lon="16.3262029"><ele>381.0</ele><time>2026-04-19T07:51:02.618Z</time></trkpt><trkpt lat="38.8175923" lon="16.3261198"><ele>381.0</ele><time>2026-04-19T07:51:07.61Z</time></trkpt><trkpt lat="38.8175597" lon="16.3260221"><ele>376.8333333333333</ele><time>2026-04-19T07:51:11.61Z</time></trkpt><trkpt lat="38.8175553" lon="16.3259401"><ele>372.6666666666667</ele><time>2026-04-19T07:51:15.626Z</time></trkpt><trkpt lat="38.8176261" lon="16.3259179"><ele>368.5</ele><time>2026-04-19T07:51:26.61Z</time></trkpt><trkpt lat="38.8177012" lon="16.3259231"><ele>364.33333333333337</ele><time>2026-04-19T07:51:31.611Z</time></trkpt><trkpt lat="38.8177753" lon="16.325922"><ele>360.1666666666667</ele><time>2026-04-19T07:51:35.606Z</time></trkpt><trkpt lat="38.8178618" lon="16.3258767"><ele>356.0</ele><time>2026-04-19T07:51:38.611Z</time></trkpt><trkpt lat="38.8179263" lon="16.325827"><ele>355.99999999999994</ele><time>2026-04-19T07:51:41.611Z</time></trkpt><trkpt lat="38.8179975" lon="16.32577"><ele>356.0</ele><time>2026-04-19T07:51:46.612Z</time></trkpt><trkpt lat="38.8180738" lon="16.325762"><ele>356.0</ele><time>2026-04-19T07:51:50.608Z</time></trkpt><trkpt lat="38.8181427" lon="16.3257561"><ele>356.0</ele><time>2026-04-19T07:51:54.607Z</time></trkpt><trkpt lat="38.8182038" lon="16.325707"><ele>356.0</ele><time>2026-04-19T07:51:58.611Z</time></trkpt><trkpt lat="38.8182407" lon="16.3256189"><ele>355.99999999999994</ele><time>2026-04-19T07:52:02.633Z</time></trkpt><trkpt lat="38.8182516" lon="16.3255367"><ele>356.0</ele><time>2026-04-19T07:52:11.608Z</time></trkpt><trkpt lat="38.8182507" lon="16.3254526"><ele>352.57142857142856</ele><time>2026-04-19T07:52:16.619Z</time></trkpt><trkpt lat="38.8182493" lon="16.3253707"><ele>349.1428571428571</ele><time>2026-04-19T07:52:20.608Z</time></trkpt><trkpt lat="38.8182383" lon="16.3252858"><ele>345.71428571428567</ele><time>2026-04-19T07:52:25.61Z</time></trkpt><trkpt lat="38.8182353" lon="16.325204"><ele>342.2857142857143</ele><time>2026-04-19T07:52:29.608Z</time></trkpt><trkpt lat="38.8182498" lon="16.3251102"><ele>338.8571428571429</ele><time>2026-04-19T07:52:33.612Z</time></trkpt><trkpt lat="38.8182512" lon="16.3250203"><ele>335.4285714285714</ele><time>2026-04-19T07:52:36.613Z</time></trkpt><trkpt lat="38.8182324" lon="16.3249403"><ele>332.0</ele><time>2026-04-19T07:52:41.609Z</time></trkpt><trkpt lat="38.8182122" lon="16.3248607"><ele>332.0</ele><time>2026-04-19T07:52:44.611Z</time></trkpt><trkpt lat="38.8181786" lon="16.3247665"><ele>332.0</ele><time>2026-04-19T07:52:48.609Z</time></trkpt><trkpt lat="38.8181729" lon="16.3246548"><ele>332.0</ele><time>2026-04-19T07:52:52.61Z</time></trkpt><trkpt lat="38.8181712" lon="16.3245642"><ele>332.0</ele><time>2026-04-19T07:52:56.609Z</time></trkpt><trkpt lat="38.8181665" lon="16.3244687"><ele>332.0</ele><time>2026-04-19T07:52:59.607Z</time></trkpt><trkpt lat="38.8181609" lon="16.3243847"><ele>332.0</ele><time>2026-04-19T07:53:02.624Z</time></trkpt><trkpt lat="38.8181168" lon="16.3243034"><ele>328.5</ele><time>2026-04-19T07:53:06.613Z</time></trkpt><trkpt lat="38.8180558" lon="16.3242432"><ele>325.0</ele><time>2026-04-19T07:53:09.607Z</time></trkpt><trkpt lat="38.8179881" lon="16.3241794"><ele>321.5</ele><time>2026-04-19T07:53:12.606Z</time></trkpt><trkpt lat="38.8179374" lon="16.3240915"><ele>318.0</ele><time>2026-04-19T07:53:16.662Z</time></trkpt><trkpt lat="38.8179075" lon="16.3240142"><ele>314.5</ele><time>2026-04-19T07:53:19.547Z</time></trkpt><trkpt lat="38.817839" lon="16.3239596"><ele>311.0</ele><time>2026-04-19T07:53:23.666Z</time></trkpt><trkpt lat="38.8177907" lon="16.3240225"><ele>311.0</ele><time>2026-04-19T07:53:27.625Z</time></trkpt><trkpt lat="38.817761" lon="16.3241045"><ele>311.0</ele><time>2026-04-19T07:53:30.566Z</time></trkpt><trkpt lat="38.8177168" lon="16.3241778"><ele>311.0</ele><time>2026-04-19T07:53:35.621Z</time></trkpt><trkpt lat="38.8176435" lon="16.3242836"><ele>311.0</ele><time>2026-04-19T07:53:39.609Z</time></trkpt><trkpt lat="38.8175781" lon="16.3243325"><ele>311.0</ele><time>2026-04-19T07:53:43.606Z</time></trkpt><trkpt lat="38.81751" lon="16.3244036"><ele>311.0</ele><time>2026-04-19T07:53:52.615Z</time></trkpt><trkpt lat="38.8174527" lon="16.3244537"><ele>308.1666666666667</ele><time>2026-04-19T07:53:54.63Z</time></trkpt><trkpt lat="38.8173908" lon="16.3244993"><ele>305.33333333333337</ele><time>2026-04-19T07:53:56.615Z</time></trkpt><trkpt lat="38.8173135" lon="16.3245229"><ele>302.5</ele><time>2026-04-19T07:53:58.606Z</time></trkpt><trkpt lat="38.8172303" lon="16.3244754"><ele>299.6666666666667</ele><time>2026-04-19T07:54:01.609Z</time></trkpt><trkpt lat="38.8171621" lon="16.3244996"><ele>296.8333333333333</ele><time>2026-04-19T07:54:03.611Z</time></trkpt><trkpt lat="38.8171016" lon="16.3245628"><ele>294.0</ele><time>2026-04-19T07:54:06.612Z</time></trkpt><trkpt lat="38.8170413" lon="16.3246458"><ele>294.0</ele><time>2026-04-19T07:54:09.617Z</time></trkpt><trkpt lat="38.8169604" lon="16.3247129"><ele>294.0</ele><time>2026-04-19T07:54:11.607Z</time></trkpt><trkpt lat="38.8168904" lon="16.3247615"><ele>294.0</ele><time>2026-04-19T07:54:13.604Z</time></trkpt><trkpt lat="38.8168238" lon="16.3248033"><ele>294.0</ele><time>2026-04-19T07:54:16.628Z</time></trkpt><trkpt lat="38.8167603" lon="16.3248145"><ele>294.0</ele><time>2026-04-19T07:54:41.61Z</time></trkpt><trkpt lat="38.8167255" lon="16.3247442"><ele>294.0</ele><time>2026-04-19T07:54:50.61Z</time></trkpt><trkpt lat="38.8167656" lon="16.3246814"><ele>294.0</ele><time>2026-04-19T07:54:57.606Z</time></trkpt><trkpt lat="38.8168363" lon="16.3245761"><ele>294.0</ele><time>2026-04-19T07:54:59.606Z</time></trkpt><trkpt lat="38.8168708" lon="16.3244775"><ele>294.0</ele><time>2026-04-19T07:55:05.605Z</time></trkpt><trkpt lat="38.8169033" lon="16.3243891"><ele>294.0</ele><time>2026-04-19T07:55:08.613Z</time></trkpt><trkpt lat="38.8169384" lon="16.3243213"><ele>294.0</ele><time>2026-04-19T07:55:11.609Z</time></trkpt><trkpt lat="38.8169616" lon="16.3242458"><ele>294.0</ele><time>2026-04-19T07:55:13.61Z</time></trkpt><trkpt lat="38.8169645" lon="16.3241583"><ele>294.0</ele><time>2026-04-19T07:55:16.621Z</time></trkpt><trkpt lat="38.8169706" lon="16.3240758"><ele>294.0</ele><time>2026-04-19T07:55:22.607Z</time></trkpt><trkpt lat="38.8169913" lon="16.3239924"><ele>294.0</ele><time>2026-04-19T07:55:26.615Z</time></trkpt><trkpt lat="38.8170282" lon="16.3239096"><ele>294.0</ele><time>2026-04-19T07:55:32.625Z</time></trkpt><trkpt lat="38.8170469" lon="16.3238035"><ele>294.0</ele><time>2026-04-19T07:55:37.618Z</time></trkpt><trkpt lat="38.8170735" lon="16.3237253"><ele>294.0</ele><time>2026-04-19T07:55:42.634Z</time></trkpt><trkpt lat="38.8171022" lon="16.3236362"><ele>294.0</ele><time>2026-04-19T07:55:51.607Z</time></trkpt><trkpt lat="38.8171011" lon="16.3235318"><ele>294.0</ele><time>2026-04-19T07:55:56.613Z</time></trkpt><trkpt lat="38.8170669" lon="16.323426"><ele>292.59999999999997</ele><time>2026-04-19T07:55:59.606Z</time></trkpt><trkpt lat="38.8170123" lon="16.3233344"><ele>291.2</ele><time>2026-04-19T07:56:01.606Z</time></trkpt><trkpt lat="38.8169759" lon="16.3232163"><ele>289.79999999999995</ele><time>2026-04-19T07:56:03.613Z</time></trkpt><trkpt lat="38.8169654" lon="16.3230732"><ele>288.4</ele><time>2026-04-19T07:56:05.611Z</time></trkpt><trkpt lat="38.8169607" lon="16.322962"><ele>287.0</ele><time>2026-04-19T07:56:07.609Z</time></trkpt><trkpt lat="38.8169556" lon="16.322876"><ele>286.2</ele><time>2026-04-19T07:56:09.607Z</time></trkpt><trkpt lat="38.816956" lon="16.322768"><ele>285.4</ele><time>2026-04-19T07:56:11.601Z</time></trkpt><trkpt lat="38.8170095" lon="16.3226413"><ele>284.6</ele><time>2026-04-19T07:56:13.609Z</time></trkpt><trkpt lat="38.8170726" lon="16.322523"><ele>283.8</ele><time>2026-04-19T07:56:15.614Z</time></trkpt><trkpt lat="38.8170993" lon="16.3224313"><ele>283.0</ele><time>2026-04-19T07:56:17.611Z</time></trkpt><trkpt lat="38.8171163" lon="16.3223486"><ele>283.0</ele><time>2026-04-19T07:56:19.607Z</time></trkpt><trkpt lat="38.8171389" lon="16.322259"><ele>283.0</ele><time>2026-04-19T07:56:21.611Z</time></trkpt><trkpt lat="38.8171794" lon="16.3221779"><ele>283.0</ele><time>2026-04-19T07:56:24.611Z</time></trkpt><trkpt lat="38.8172166" lon="16.3220839"><ele>283.0</ele><time>2026-04-19T07:56:27.673Z</time></trkpt><trkpt lat="38.8173136" lon="16.3220178"><ele>283.0</ele><time>2026-04-19T07:56:39.605Z</time></trkpt><trkpt lat="38.8173924" lon="16.3219559"><ele>283.0</ele><time>2026-04-19T07:56:40.606Z</time></trkpt><trkpt lat="38.8174708" lon="16.3219049"><ele>282.16666666666663</ele><time>2026-04-19T07:56:41.61Z</time></trkpt><trkpt lat="38.8175472" lon="16.3218828"><ele>281.3333333333333</ele><time>2026-04-19T07:56:42.606Z</time></trkpt><trkpt lat="38.8176214" lon="16.3218912"><ele>280.5</ele><time>2026-04-19T07:56:43.629Z</time></trkpt><trkpt lat="38.8176874" lon="16.3219004"><ele>279.6666666666667</ele><time>2026-04-19T07:56:44.605Z</time></trkpt><trkpt lat="38.817754" lon="16.3218976"><ele>278.83333333333337</ele><time>2026-04-19T07:56:45.611Z</time></trkpt><trkpt lat="38.8178268" lon="16.3218667"><ele>278.0</ele><time>2026-04-19T07:56:46.604Z</time></trkpt><trkpt lat="38.8179068" lon="16.3217984"><ele>278.0</ele><time>2026-04-19T07:56:47.612Z</time></trkpt><trkpt lat="38.8179806" lon="16.3217242"><ele>278.0</ele><time>2026-04-19T07:56:48.613Z</time></trkpt><trkpt lat="38.8180352" lon="16.3216535"><ele>278.0</ele><time>2026-04-19T07:56:49.611Z</time></trkpt><trkpt lat="38.8180865" lon="16.321567"><ele>278.0</ele><time>2026-04-19T07:56:50.611Z</time></trkpt><trkpt lat="38.818131" lon="16.3214832"><ele>278.0</ele><time>2026-04-19T07:56:51.617Z</time></trkpt><trkpt lat="38.8182289" lon="16.3213724"><ele>276.6666666666667</ele><time>2026-04-19T07:56:53.606Z</time></trkpt><trkpt lat="38.8182827" lon="16.3212979"><ele>275.33333333333337</ele><time>2026-04-19T07:56:54.612Z</time></trkpt><trkpt lat="38.8183254" lon="16.3211997"><ele>274.0</ele><time>2026-04-19T07:56:55.607Z</time></trkpt><trkpt lat="38.8183776" lon="16.3210901"><ele>272.6666666666667</ele><time>2026-04-19T07:56:56.616Z</time></trkpt><trkpt lat="38.8184325" lon="16.3209902"><ele>271.3333333333333</ele><time>2026-04-19T07:56:57.612Z</time></trkpt><trkpt lat="38.8184819" lon="16.3209078"><ele>270.0</ele><time>2026-04-19T07:56:58.609Z</time></trkpt><trkpt lat="38.8185295" lon="16.3208307"><ele>270.0</ele><time>2026-04-19T07:56:59.607Z</time></trkpt><trkpt lat="38.8185834" lon="16.3207471"><ele>270.0</ele><time>2026-04-19T07:57:00.609Z</time></trkpt><trkpt lat="38.8186421" lon="16.3206683"><ele>270.0</ele><time>2026-04-19T07:57:01.608Z</time></trkpt><trkpt lat="38.8187172" lon="16.3205807"><ele>270.0</ele><time>2026-04-19T07:57:02.611Z</time></trkpt><trkpt lat="38.8188049" lon="16.3204853"><ele>270.0</ele><time>2026-04-19T07:57:03.608Z</time></trkpt><trkpt lat="38.8188975" lon="16.3203892"><ele>271.75</ele><time>2026-04-19T07:57:04.608Z</time></trkpt><trkpt lat="38.8189934" lon="16.320297"><ele>273.5</ele><time>2026-04-19T07:57:05.644Z</time></trkpt><trkpt lat="38.8190881" lon="16.3202091"><ele>275.25</ele><time>2026-04-19T07:57:06.608Z</time></trkpt><trkpt lat="38.8191814" lon="16.3201229"><ele>277.0</ele><time>2026-04-19T07:57:07.613Z</time></trkpt><trkpt lat="38.81927" lon="16.3200569"><ele>274.3333333333333</ele><time>2026-04-19T07:57:08.61Z</time></trkpt><trkpt lat="38.819353" lon="16.3200023"><ele>271.66666666666663</ele><time>2026-04-19T07:57:09.607Z</time></trkpt><trkpt lat="38.8194239" lon="16.3199715"><ele>269.0</ele><time>2026-04-19T07:57:10.607Z</time></trkpt><trkpt lat="38.8194875" lon="16.3199465"><ele>266.3333333333333</ele><time>2026-04-19T07:57:11.608Z</time></trkpt><trkpt lat="38.8195698" lon="16.3199128"><ele>263.6666666666667</ele><time>2026-04-19T07:57:13.613Z</time></trkpt><trkpt lat="38.8196342" lon="16.3198981"><ele>261.0</ele><time>2026-04-19T07:57:15.621Z</time></trkpt><trkpt lat="38.8197327" lon="16.3199011"><ele>261.0</ele><time>2026-04-19T07:57:17.615Z</time></trkpt><trkpt lat="38.8198037" lon="16.3199138"><ele>261.0</ele><time>2026-04-19T07:57:18.606Z</time></trkpt><trkpt lat="38.8198808" lon="16.319934"><ele>261.0</ele><time>2026-04-19T07:57:19.606Z</time></trkpt><trkpt lat="38.8199928" lon="16.3199763"><ele>261.0</ele><time>2026-04-19T07:57:21.607Z</time></trkpt><trkpt lat="38.8201178" lon="16.3199398"><ele>261.0</ele><time>2026-04-19T07:57:23.622Z</time></trkpt><trkpt lat="38.8201781" lon="16.3198595"><ele>259.75</ele><time>2026-04-19T07:57:24.606Z</time></trkpt><trkpt lat="38.8202328" lon="16.3197667"><ele>258.5</ele><time>2026-04-19T07:57:25.613Z</time></trkpt><trkpt lat="38.8202807" lon="16.3196468"><ele>257.25</ele><time>2026-04-19T07:57:26.606Z</time></trkpt><trkpt lat="38.8203399" lon="16.3195091"><ele>256.0</ele><time>2026-04-19T07:57:27.607Z</time></trkpt><trkpt lat="38.8204008" lon="16.3193423"><ele>256.0</ele><time>2026-04-19T07:57:28.62Z</time></trkpt><trkpt lat="38.8204525" lon="16.319177"><ele>256.0</ele><time>2026-04-19T07:57:29.611Z</time></trkpt><trkpt lat="38.82049" lon="16.3190206"><ele>256.0</ele><time>2026-04-19T07:57:30.611Z</time></trkpt><trkpt lat="38.820524" lon="16.3188783"><ele>256.0</ele><time>2026-04-19T07:57:31.606Z</time></trkpt><trkpt lat="38.8205779" lon="16.3187516"><ele>253.75</ele><time>2026-04-19T07:57:32.606Z</time></trkpt><trkpt lat="38.8206501" lon="16.3186431"><ele>251.5</ele><time>2026-04-19T07:57:33.622Z</time></trkpt><trkpt lat="38.8207018" lon="16.3185211"><ele>249.25</ele><time>2026-04-19T07:57:34.61Z</time></trkpt><trkpt lat="38.8207436" lon="16.318388"><ele>247.0</ele><time>2026-04-19T07:57:35.616Z</time></trkpt><trkpt lat="38.820766" lon="16.3182385"><ele>247.0</ele><time>2026-04-19T07:57:36.61Z</time></trkpt><trkpt lat="38.82077" lon="16.3180761"><ele>247.0</ele><time>2026-04-19T07:57:37.612Z</time></trkpt><trkpt lat="38.8207758" lon="16.3179056"><ele>247.0</ele><time>2026-04-19T07:57:38.606Z</time></trkpt><trkpt lat="38.8207903" lon="16.3177471"><ele>247.0</ele><time>2026-04-19T07:57:39.61Z</time></trkpt><trkpt lat="38.8208066" lon="16.3176079"><ele>247.66666666666666</ele><time>2026-04-19T07:57:40.609Z</time></trkpt><trkpt lat="38.8208433" lon="16.3174833"><ele>248.33333333333331</ele><time>2026-04-19T07:57:41.61Z</time></trkpt><trkpt lat="38.8208835" lon="16.3173659"><ele>249.0</ele><time>2026-04-19T07:57:42.633Z</time></trkpt><trkpt lat="38.8209293" lon="16.3172868"><ele>249.66666666666669</ele><time>2026-04-19T07:57:43.607Z</time></trkpt><trkpt lat="38.8209773" lon="16.3172207"><ele>250.33333333333334</ele><time>2026-04-19T07:57:44.613Z</time></trkpt><trkpt lat="38.821021" lon="16.317156"><ele>251.0</ele><time>2026-04-19T07:57:45.611Z</time></trkpt><trkpt lat="38.8210563" lon="16.3170752"><ele>251.8</ele><time>2026-04-19T07:57:46.61Z</time></trkpt><trkpt lat="38.8210799" lon="16.3169788"><ele>252.60000000000002</ele><time>2026-04-19T07:57:47.609Z</time></trkpt><trkpt lat="38.8210947" lon="16.3168531"><ele>253.4</ele><time>2026-04-19T07:57:48.604Z</time></trkpt><trkpt lat="38.82111" lon="16.3167097"><ele>254.2</ele><time>2026-04-19T07:57:49.605Z</time></trkpt><trkpt lat="38.8211243" lon="16.3165684"><ele>255.0</ele><time>2026-04-19T07:57:50.607Z</time></trkpt><trkpt lat="38.8211286" lon="16.316431"><ele>255.33333333333334</ele><time>2026-04-19T07:57:51.608Z</time></trkpt><trkpt lat="38.82113" lon="16.3162984"><ele>255.66666666666669</ele><time>2026-04-19T07:57:52.622Z</time></trkpt><trkpt lat="38.8211297" lon="16.316194"><ele>256.0</ele><time>2026-04-19T07:57:53.609Z</time></trkpt><trkpt lat="38.8211137" lon="16.316097"><ele>256.33333333333337</ele><time>2026-04-19T07:57:54.608Z</time></trkpt><trkpt lat="38.8210906" lon="16.3160007"><ele>256.6666666666667</ele><time>2026-04-19T07:57:55.615Z</time></trkpt><trkpt lat="38.8210625" lon="16.3159089"><ele>257.0</ele><time>2026-04-19T07:57:56.606Z</time></trkpt><trkpt lat="38.8210306" lon="16.3158187"><ele>255.50000000000003</ele><time>2026-04-19T07:57:57.615Z</time></trkpt><trkpt lat="38.820976" lon="16.3156917"><ele>254.0</ele><time>2026-04-19T07:57:59.615Z</time></trkpt><trkpt lat="38.8209359" lon="16.3156077"><ele>252.5</ele><time>2026-04-19T07:58:01.613Z</time></trkpt><trkpt lat="38.8208876" lon="16.3155366"><ele>251.0</ele><time>2026-04-19T07:58:03.629Z</time></trkpt><trkpt lat="38.8208259" lon="16.3155084"><ele>249.50000000000003</ele><time>2026-04-19T07:58:24.608Z</time></trkpt><trkpt lat="38.8207603" lon="16.3154011"><ele>248.0</ele><time>2026-04-19T07:58:26.607Z</time></trkpt><trkpt lat="38.820759" lon="16.3152376"><ele>246.50000000000003</ele><time>2026-04-19T07:58:28.608Z</time></trkpt><trkpt lat="38.8207796" lon="16.3151388"><ele>245.0</ele><time>2026-04-19T07:58:29.613Z</time></trkpt><trkpt lat="38.8208003" lon="16.3150496"><ele>243.5</ele><time>2026-04-19T07:58:30.625Z</time></trkpt><trkpt lat="38.8208035" lon="16.3149517"><ele>242.0</ele><time>2026-04-19T07:58:31.606Z</time></trkpt><trkpt lat="38.8207785" lon="16.3148549"><ele>240.50000000000003</ele><time>2026-04-19T07:58:32.611Z</time></trkpt><trkpt lat="38.820747" lon="16.3147579"><ele>239.0</ele><time>2026-04-19T07:58:33.61Z</time></trkpt><trkpt lat="38.8207556" lon="16.3146322"><ele>237.0</ele><time>2026-04-19T07:58:35.611Z</time></trkpt><trkpt lat="38.8208398" lon="16.3145017"><ele>234.99999999999997</ele><time>2026-04-19T07:58:37.606Z</time></trkpt><trkpt lat="38.8208536" lon="16.3144106"><ele>232.99999999999997</ele><time>2026-04-19T07:58:38.626Z</time></trkpt><trkpt lat="38.820829" lon="16.3143217"><ele>231.0</ele><time>2026-04-19T07:58:39.613Z</time></trkpt><trkpt lat="38.820783" lon="16.3142355"><ele>229.0</ele><time>2026-04-19T07:58:40.609Z</time></trkpt><trkpt lat="38.8207293" lon="16.3141422"><ele>229.0</ele><time>2026-04-19T07:58:41.609Z</time></trkpt><trkpt lat="38.8206718" lon="16.3140268"><ele>229.0</ele><time>2026-04-19T07:58:42.613Z</time></trkpt><trkpt lat="38.8206257" lon="16.3138896"><ele>229.0</ele><time>2026-04-19T07:58:43.603Z</time></trkpt><trkpt lat="38.8205962" lon="16.3137216"><ele>229.0</ele><time>2026-04-19T07:58:44.61Z</time></trkpt><trkpt lat="38.8205976" lon="16.3135197"><ele>229.25</ele><time>2026-04-19T07:58:45.609Z</time></trkpt><trkpt lat="38.8205978" lon="16.3133129"><ele>229.5</ele><time>2026-04-19T07:58:46.608Z</time></trkpt><trkpt lat="38.820588" lon="16.3131305"><ele>229.75</ele><time>2026-04-19T07:58:47.62Z</time></trkpt><trkpt lat="38.8205874" lon="16.3129707"><ele>230.0</ele><time>2026-04-19T07:58:48.604Z</time></trkpt><trkpt lat="38.8205949" lon="16.3128163"><ele>230.16666666666669</ele><time>2026-04-19T07:58:49.61Z</time></trkpt><trkpt lat="38.8206161" lon="16.3126941"><ele>230.33333333333334</ele><time>2026-04-19T07:58:50.61Z</time></trkpt><trkpt lat="38.820645" lon="16.3125998"><ele>230.5</ele><time>2026-04-19T07:58:51.608Z</time></trkpt><trkpt lat="38.8206785" lon="16.3125088"><ele>230.66666666666669</ele><time>2026-04-19T07:58:52.605Z</time></trkpt><trkpt lat="38.8207172" lon="16.3124184"><ele>230.83333333333334</ele><time>2026-04-19T07:58:53.608Z</time></trkpt><trkpt lat="38.820762" lon="16.3123304"><ele>231.0</ele><time>2026-04-19T07:58:54.615Z</time></trkpt><trkpt lat="38.8208112" lon="16.3122484"><ele>231.16666666666666</ele><time>2026-04-19T07:58:55.607Z</time></trkpt><trkpt lat="38.820864" lon="16.3121638"><ele>231.33333333333331</ele><time>2026-04-19T07:58:56.609Z</time></trkpt><trkpt lat="38.8209127" lon="16.312079"><ele>231.5</ele><time>2026-04-19T07:58:57.609Z</time></trkpt><trkpt lat="38.8209433" lon="16.3119894"><ele>231.66666666666666</ele><time>2026-04-19T07:58:58.606Z</time></trkpt><trkpt lat="38.8209749" lon="16.3118896"><ele>231.83333333333331</ele><time>2026-04-19T07:58:59.609Z</time></trkpt><trkpt lat="38.8210104" lon="16.3117921"><ele>232.0</ele><time>2026-04-19T07:59:00.607Z</time></trkpt><trkpt lat="38.8210508" lon="16.3116995"><ele>231.2</ele><time>2026-04-19T07:59:01.605Z</time></trkpt><trkpt lat="38.8210709" lon="16.3115989"><ele>230.39999999999998</ele><time>2026-04-19T07:59:02.632Z</time></trkpt><trkpt lat="38.8210563" lon="16.3114994"><ele>229.60000000000002</ele><time>2026-04-19T07:59:03.614Z</time></trkpt><trkpt lat="38.8210216" lon="16.3113834"><ele>228.8</ele><time>2026-04-19T07:59:04.607Z</time></trkpt><trkpt lat="38.8209825" lon="16.3112489"><ele>228.0</ele><time>2026-04-19T07:59:05.61Z</time></trkpt><trkpt lat="38.8209444" lon="16.3111045"><ele>226.8</ele><time>2026-04-19T07:59:06.614Z</time></trkpt><trkpt lat="38.820915" lon="16.3109646"><ele>225.60000000000002</ele><time>2026-04-19T07:59:07.63Z</time></trkpt><trkpt lat="38.8208803" lon="16.3108467"><ele>224.39999999999998</ele><time>2026-04-19T07:59:08.609Z</time></trkpt><trkpt lat="38.8208237" lon="16.3107488"><ele>223.2</ele><time>2026-04-19T07:59:09.614Z</time></trkpt><trkpt lat="38.8207315" lon="16.3106587"><ele>222.0</ele><time>2026-04-19T07:59:10.611Z</time></trkpt><trkpt lat="38.8206461" lon="16.3105429"><ele>219.5</ele><time>2026-04-19T07:59:11.607Z</time></trkpt><trkpt lat="38.820573" lon="16.3104028"><ele>217.0</ele><time>2026-04-19T07:59:12.605Z</time></trkpt><trkpt lat="38.8205252" lon="16.3102287"><ele>214.5</ele><time>2026-04-19T07:59:13.605Z</time></trkpt><trkpt lat="38.820495" lon="16.3100561"><ele>212.0</ele><time>2026-04-19T07:59:14.608Z</time></trkpt><trkpt lat="38.820484" lon="16.3098876"><ele>212.25</ele><time>2026-04-19T07:59:15.607Z</time></trkpt><trkpt lat="38.8204844" lon="16.309697"><ele>212.5</ele><time>2026-04-19T07:59:16.611Z</time></trkpt><trkpt lat="38.820523" lon="16.3095199"><ele>212.75</ele><time>2026-04-19T07:59:17.621Z</time></trkpt><trkpt lat="38.8205723" lon="16.3093782"><ele>213.0</ele><time>2026-04-19T07:59:18.609Z</time></trkpt><trkpt lat="38.8206128" lon="16.3092437"><ele>213.0</ele><time>2026-04-19T07:59:19.609Z</time></trkpt><trkpt lat="38.820637" lon="16.3091098"><ele>213.0</ele><time>2026-04-19T07:59:20.607Z</time></trkpt><trkpt lat="38.8206633" lon="16.3089778"><ele>213.0</ele><time>2026-04-19T07:59:21.606Z</time></trkpt><trkpt lat="38.8206917" lon="16.3088537"><ele>213.0</ele><time>2026-04-19T07:59:22.607Z</time></trkpt><trkpt lat="38.8207109" lon="16.3087314"><ele>213.0</ele><time>2026-04-19T07:59:23.606Z</time></trkpt><trkpt lat="38.8207063" lon="16.3085945"><ele>213.2</ele><time>2026-04-19T07:59:24.631Z</time></trkpt><trkpt lat="38.8206941" lon="16.3084461"><ele>213.4</ele><time>2026-04-19T07:59:25.61Z</time></trkpt><trkpt lat="38.8206827" lon="16.3083067"><ele>213.59999999999997</ele><time>2026-04-19T07:59:26.608Z</time></trkpt><trkpt lat="38.8206842" lon="16.3081748"><ele>213.79999999999998</ele><time>2026-04-19T07:59:27.611Z</time></trkpt><trkpt lat="38.8206917" lon="16.3080457"><ele>214.0</ele><time>2026-04-19T07:59:28.604Z</time></trkpt><trkpt lat="38.8207071" lon="16.3079181"><ele>215.2</ele><time>2026-04-19T07:59:29.607Z</time></trkpt><trkpt lat="38.8207301" lon="16.3078027"><ele>216.39999999999998</ele><time>2026-04-19T07:59:30.607Z</time></trkpt><trkpt lat="38.8207505" lon="16.3076912"><ele>217.6</ele><time>2026-04-19T07:59:31.622Z</time></trkpt><trkpt lat="38.8207697" lon="16.3075856"><ele>218.8</ele><time>2026-04-19T07:59:32.607Z</time></trkpt><trkpt lat="38.8208133" lon="16.30747"><ele>220.0</ele><time>2026-04-19T07:59:33.607Z</time></trkpt><trkpt lat="38.8208872" lon="16.3073361"><ele>222.5</ele><time>2026-04-19T07:59:34.616Z</time></trkpt><trkpt lat="38.8209701" lon="16.3071909"><ele>225.0</ele><time>2026-04-19T07:59:35.605Z</time></trkpt><trkpt lat="38.8210517" lon="16.3070518"><ele>227.5</ele><time>2026-04-19T07:59:36.625Z</time></trkpt><trkpt lat="38.8211405" lon="16.3069408"><ele>230.0</ele><time>2026-04-19T07:59:37.605Z</time></trkpt><trkpt lat="38.8212268" lon="16.3068449"><ele>224.25</ele><time>2026-04-19T07:59:38.604Z</time></trkpt><trkpt lat="38.821294" lon="16.3067525"><ele>218.5</ele><time>2026-04-19T07:59:39.606Z</time></trkpt><trkpt lat="38.8213438" lon="16.3066422"><ele>212.75</ele><time>2026-04-19T07:59:40.606Z</time></trkpt><trkpt lat="38.821385" lon="16.3064824"><ele>207.0</ele><time>2026-04-19T07:59:41.608Z</time></trkpt><trkpt lat="38.821439" lon="16.3063038"><ele>207.0</ele><time>2026-04-19T07:59:42.608Z</time></trkpt><trkpt lat="38.8215183" lon="16.3061202"><ele>207.0</ele><time>2026-04-19T07:59:43.603Z</time></trkpt><trkpt lat="38.8216101" lon="16.3059776"><ele>207.0</ele><time>2026-04-19T07:59:44.608Z</time></trkpt><trkpt lat="38.8217091" lon="16.3058666"><ele>207.0</ele><time>2026-04-19T07:59:45.607Z</time></trkpt><trkpt lat="38.8218024" lon="16.3057754"><ele>204.16666666666666</ele><time>2026-04-19T07:59:46.614Z</time></trkpt><trkpt lat="38.8218806" lon="16.3056891"><ele>201.33333333333334</ele><time>2026-04-19T07:59:47.604Z</time></trkpt><trkpt lat="38.8219347" lon="16.3056047"><ele>198.5</ele><time>2026-04-19T07:59:48.635Z</time></trkpt><trkpt lat="38.8219751" lon="16.305511"><ele>195.66666666666669</ele><time>2026-04-19T07:59:49.607Z</time></trkpt><trkpt lat="38.8219931" lon="16.3054038"><ele>192.83333333333334</ele><time>2026-04-19T07:59:50.611Z</time></trkpt><trkpt lat="38.8220056" lon="16.3053121"><ele>190.0</ele><time>2026-04-19T07:59:51.604Z</time></trkpt><trkpt lat="38.8219969" lon="16.3051766"><ele>189.33333333333334</ele><time>2026-04-19T07:59:53.623Z</time></trkpt><trkpt lat="38.8219563" lon="16.3050897"><ele>188.66666666666669</ele><time>2026-04-19T07:59:55.612Z</time></trkpt><trkpt lat="38.8219073" lon="16.3049968"><ele>188.0</ele><time>2026-04-19T07:59:57.607Z</time></trkpt><trkpt lat="38.8218879" lon="16.3048652"><ele>187.33333333333334</ele><time>2026-04-19T07:59:59.609Z</time></trkpt><trkpt lat="38.8218821" lon="16.3047653"><ele>186.66666666666666</ele><time>2026-04-19T08:00:01.609Z</time></trkpt><trkpt lat="38.8218811" lon="16.3046809"><ele>186.0</ele><time>2026-04-19T08:00:03.609Z</time></trkpt><trkpt lat="38.8218724" lon="16.3045841"><ele>185.0</ele><time>2026-04-19T08:00:05.603Z</time></trkpt><trkpt lat="38.821841" lon="16.3044504"><ele>184.0</ele><time>2026-04-19T08:00:07.612Z</time></trkpt><trkpt lat="38.8218083" lon="16.3043293"><ele>183.0</ele><time>2026-04-19T08:00:09.612Z</time></trkpt><trkpt lat="38.8217739" lon="16.304197"><ele>182.0</ele><time>2026-04-19T08:00:11.614Z</time></trkpt><trkpt lat="38.821756" lon="16.3040369"><ele>181.0</ele><time>2026-04-19T08:00:13.605Z</time></trkpt><trkpt lat="38.8217527" lon="16.3039391"><ele>181.0</ele><time>2026-04-19T08:00:14.602Z</time></trkpt><trkpt lat="38.8217689" lon="16.3038417"><ele>181.0</ele><time>2026-04-19T08:00:15.612Z</time></trkpt><trkpt lat="38.8217885" lon="16.3037431"><ele>181.0</ele><time>2026-04-19T08:00:16.607Z</time></trkpt><trkpt lat="38.8218125" lon="16.3036222"><ele>181.0</ele><time>2026-04-19T08:00:17.606Z</time></trkpt><trkpt lat="38.8218268" lon="16.3035235"><ele>181.0</ele><time>2026-04-19T08:00:18.606Z</time></trkpt><trkpt lat="38.8218396" lon="16.3034294"><ele>181.0</ele><time>2026-04-19T08:00:19.605Z</time></trkpt><trkpt lat="38.8218585" lon="16.3033211"><ele>181.0</ele><time>2026-04-19T08:00:20.612Z</time></trkpt><trkpt lat="38.8218678" lon="16.3032095"><ele>181.0</ele><time>2026-04-19T08:00:21.61Z</time></trkpt><trkpt lat="38.8218632" lon="16.3031082"><ele>181.0</ele><time>2026-04-19T08:00:22.626Z</time></trkpt><trkpt lat="38.8218318" lon="16.3029787"><ele>181.0</ele><time>2026-04-19T08:00:24.606Z</time></trkpt><trkpt lat="38.8218079" lon="16.30284"><ele>181.0</ele><time>2026-04-19T08:00:26.615Z</time></trkpt><trkpt lat="38.8217631" lon="16.3027111"><ele>188.5</ele><time>2026-04-19T08:00:28.61Z</time></trkpt><trkpt lat="38.8217026" lon="16.3026045"><ele>196.0</ele><time>2026-04-19T08:00:30.616Z</time></trkpt><trkpt lat="38.8216095" lon="16.3025232"><ele>203.5</ele><time>2026-04-19T08:00:32.612Z</time></trkpt><trkpt lat="38.821522" lon="16.3024128"><ele>211.0</ele><time>2026-04-19T08:00:34.607Z</time></trkpt><trkpt lat="38.8214367" lon="16.3022935"><ele>210.14285714285714</ele><time>2026-04-19T08:00:36.614Z</time></trkpt><trkpt lat="38.8213921" lon="16.3022301"><ele>209.28571428571428</ele><time>2026-04-19T08:00:37.614Z</time></trkpt><trkpt lat="38.8213404" lon="16.3021659"><ele>208.42857142857144</ele><time>2026-04-19T08:00:38.607Z</time></trkpt><trkpt lat="38.8212939" lon="16.3020974"><ele>207.57142857142856</ele><time>2026-04-19T08:00:39.627Z</time></trkpt><trkpt lat="38.8212571" lon="16.3019965"><ele>206.7142857142857</ele><time>2026-04-19T08:00:40.606Z</time></trkpt><trkpt lat="38.8212197" lon="16.3019211"><ele>205.85714285714286</ele><time>2026-04-19T08:00:41.608Z</time></trkpt><trkpt lat="38.8212005" lon="16.3018423"><ele>205.0</ele><time>2026-04-19T08:00:42.61Z</time></trkpt><trkpt lat="38.8211878" lon="16.3016832"><ele>205.0</ele><time>2026-04-19T08:00:44.621Z</time></trkpt><trkpt lat="38.8211979" lon="16.301541"><ele>205.0</ele><time>2026-04-19T08:00:46.608Z</time></trkpt><trkpt lat="38.8212064" lon="16.3014265"><ele>205.0</ele><time>2026-04-19T08:00:48.612Z</time></trkpt><trkpt lat="38.8211967" lon="16.3013169"><ele>205.0</ele><time>2026-04-19T08:00:50.622Z</time></trkpt><trkpt lat="38.8212066" lon="16.301199"><ele>205.0</ele><time>2026-04-19T08:00:52.611Z</time></trkpt><trkpt lat="38.8212163" lon="16.3010793"><ele>206.6</ele><time>2026-04-19T08:00:54.61Z</time></trkpt><trkpt lat="38.8212343" lon="16.3009576"><ele>208.2</ele><time>2026-04-19T08:00:56.613Z</time></trkpt><trkpt lat="38.82126" lon="16.300843"><ele>209.8</ele><time>2026-04-19T08:00:58.608Z</time></trkpt><trkpt lat="38.8212978" lon="16.3007143"><ele>211.4</ele><time>2026-04-19T08:01:00.602Z</time></trkpt><trkpt lat="38.8213383" lon="16.3006068"><ele>213.0</ele><time>2026-04-19T08:01:02.604Z</time></trkpt><trkpt lat="38.8213749" lon="16.3004787"><ele>215.60000000000002</ele><time>2026-04-19T08:01:04.62Z</time></trkpt><trkpt lat="38.821403" lon="16.300356"><ele>218.20000000000002</ele><time>2026-04-19T08:01:06.605Z</time></trkpt><trkpt lat="38.8214212" lon="16.3002662"><ele>220.8</ele><time>2026-04-19T08:01:07.605Z</time></trkpt><trkpt lat="38.8214368" lon="16.300173"><ele>223.4</ele><time>2026-04-19T08:01:08.61Z</time></trkpt><trkpt lat="38.8214758" lon="16.3000109"><ele>226.0</ele><time>2026-04-19T08:01:10.618Z</time></trkpt><trkpt lat="38.8214981" lon="16.2999087"><ele>225.99999999999997</ele><time>2026-04-19T08:01:11.609Z</time></trkpt><trkpt lat="38.8215257" lon="16.299819"><ele>226.0</ele><time>2026-04-19T08:01:12.611Z</time></trkpt><trkpt lat="38.8215531" lon="16.2997295"><ele>226.0</ele><time>2026-04-19T08:01:13.607Z</time></trkpt><trkpt lat="38.821595" lon="16.2995969"><ele>226.0</ele><time>2026-04-19T08:01:15.609Z</time></trkpt><trkpt lat="38.8216421" lon="16.2994864"><ele>225.99999999999997</ele><time>2026-04-19T08:01:17.637Z</time></trkpt><trkpt lat="38.8216324" lon="16.2993836"><ele>226.0</ele><time>2026-04-19T08:01:19.609Z</time></trkpt><trkpt lat="38.8216014" lon="16.2993038"><ele>226.83333333333331</ele><time>2026-04-19T08:01:21.613Z</time></trkpt><trkpt lat="38.8215506" lon="16.2992448"><ele>227.66666666666666</ele><time>2026-04-19T08:01:23.61Z</time></trkpt><trkpt lat="38.8214848" lon="16.299174"><ele>228.5</ele><time>2026-04-19T08:01:25.61Z</time></trkpt><trkpt lat="38.8214247" lon="16.2991027"><ele>229.33333333333331</ele><time>2026-04-19T08:01:28.605Z</time></trkpt><trkpt lat="38.8213788" lon="16.2990248"><ele>230.16666666666666</ele><time>2026-04-19T08:01:30.605Z</time></trkpt><trkpt lat="38.8213229" lon="16.2989512"><ele>231.0</ele><time>2026-04-19T08:01:33.608Z</time></trkpt><trkpt lat="38.8212651" lon="16.2988783"><ele>231.0</ele><time>2026-04-19T08:01:36.613Z</time></trkpt><trkpt lat="38.8212012" lon="16.298817"><ele>231.0</ele><time>2026-04-19T08:01:57.614Z</time></trkpt><trkpt lat="38.821141" lon="16.298856"><ele>231.0</ele><time>2026-04-19T08:02:05.612Z</time></trkpt><trkpt lat="38.8210771" lon="16.298846"><ele>231.0</ele><time>2026-04-19T08:03:19.611Z</time></trkpt><trkpt lat="38.8210434" lon="16.2987757"><ele>231.0</ele><time>2026-04-19T08:03:35.608Z</time></trkpt><trkpt lat="38.8210173" lon="16.2986962"><ele>231.0</ele><time>2026-04-19T08:03:41.608Z</time></trkpt><trkpt lat="38.820925" lon="16.2986234"><ele>238.4</ele><time>2026-04-19T08:03:44.607Z</time></trkpt><trkpt lat="38.8208184" lon="16.2985495"><ele>245.8</ele><time>2026-04-19T08:03:46.613Z</time></trkpt><trkpt lat="38.8207578" lon="16.298497"><ele>253.20000000000002</ele><time>2026-04-19T08:03:47.606Z</time></trkpt><trkpt lat="38.8207166" lon="16.2984308"><ele>260.6</ele><time>2026-04-19T08:03:48.607Z</time></trkpt><trkpt lat="38.8206626" lon="16.2983051"><ele>268.0</ele><time>2026-04-19T08:03:50.607Z</time></trkpt><trkpt lat="38.8205805" lon="16.2982821"><ele>268.0</ele><time>2026-04-19T08:03:56.61Z</time></trkpt><trkpt lat="38.8204924" lon="16.2982776"><ele>268.0</ele><time>2026-04-19T08:03:58.611Z</time></trkpt><trkpt lat="38.8204286" lon="16.2982888"><ele>268.0</ele><time>2026-04-19T08:03:59.608Z</time></trkpt><trkpt lat="38.8203589" lon="16.2982979"><ele>268.0</ele><time>2026-04-19T08:04:00.607Z</time></trkpt><trkpt lat="38.820286" lon="16.298305"><ele>268.0</ele><time>2026-04-19T08:04:01.607Z</time></trkpt><trkpt lat="38.8202132" lon="16.2983029"><ele>268.0</ele><time>2026-04-19T08:04:02.605Z</time></trkpt><trkpt lat="38.8201414" lon="16.2983"><ele>268.0</ele><time>2026-04-19T08:04:03.628Z</time></trkpt><trkpt lat="38.820075" lon="16.2983038"><ele>271.66666666666663</ele><time>2026-04-19T08:04:04.607Z</time></trkpt><trkpt lat="38.8200038" lon="16.2983019"><ele>275.3333333333333</ele><time>2026-04-19T08:04:05.61Z</time></trkpt><trkpt lat="38.8198998" lon="16.2982921"><ele>279.0</ele><time>2026-04-19T08:04:07.61Z</time></trkpt><trkpt lat="38.8198249" lon="16.2982875"><ele>282.6666666666667</ele><time>2026-04-19T08:04:09.609Z</time></trkpt><trkpt lat="38.8197404" lon="16.2982836"><ele>286.33333333333337</ele><time>2026-04-19T08:04:12.608Z</time></trkpt><trkpt lat="38.8196762" lon="16.2983121"><ele>290.0</ele><time>2026-04-19T08:04:14.611Z</time></trkpt><trkpt lat="38.8195917" lon="16.2983694"><ele>290.0</ele><time>2026-04-19T08:04:16.61Z</time></trkpt><trkpt lat="38.8195228" lon="16.2983913"><ele>290.0</ele><time>2026-04-19T08:04:17.604Z</time></trkpt><trkpt lat="38.8194221" lon="16.298427"><ele>290.0</ele><time>2026-04-19T08:04:19.615Z</time></trkpt><trkpt lat="38.8193394" lon="16.2984492"><ele>290.0</ele><time>2026-04-19T08:04:22.614Z</time></trkpt><trkpt lat="38.8192748" lon="16.298467"><ele>290.0</ele><time>2026-04-19T08:04:24.608Z</time></trkpt><trkpt lat="38.8192116" lon="16.2984927"><ele>290.0</ele><time>2026-04-19T08:04:26.611Z</time></trkpt><trkpt lat="38.8191451" lon="16.2985148"><ele>292.5</ele><time>2026-04-19T08:04:28.614Z</time></trkpt><trkpt lat="38.8190768" lon="16.2985278"><ele>295.0</ele><time>2026-04-19T08:04:30.611Z</time></trkpt><trkpt lat="38.8189979" lon="16.2985258"><ele>297.5</ele><time>2026-04-19T08:04:32.611Z</time></trkpt><trkpt lat="38.8189178" lon="16.2985303"><ele>300.0</ele><time>2026-04-19T08:04:34.611Z</time></trkpt><trkpt lat="38.8188542" lon="16.298558"><ele>302.5</ele><time>2026-04-19T08:04:36.606Z</time></trkpt><trkpt lat="38.8187715" lon="16.2986224"><ele>305.0</ele><time>2026-04-19T08:04:39.614Z</time></trkpt><trkpt lat="38.8187127" lon="16.298674"><ele>305.0</ele><time>2026-04-19T08:04:41.612Z</time></trkpt><trkpt lat="38.81866" lon="16.2987199"><ele>305.0</ele><time>2026-04-19T08:04:43.61Z</time></trkpt><trkpt lat="38.8185876" lon="16.2987831"><ele>305.0</ele><time>2026-04-19T08:04:45.606Z</time></trkpt><trkpt lat="38.8185179" lon="16.2988396"><ele>305.0</ele><time>2026-04-19T08:04:47.606Z</time></trkpt><trkpt lat="38.818451" lon="16.2989017"><ele>305.0</ele><time>2026-04-19T08:04:49.614Z</time></trkpt><trkpt lat="38.8183912" lon="16.2989594"><ele>305.0</ele><time>2026-04-19T08:04:51.611Z</time></trkpt><trkpt lat="38.8183209" lon="16.2990406"><ele>310.6</ele><time>2026-04-19T08:04:53.602Z</time></trkpt><trkpt lat="38.8182613" lon="16.2991579"><ele>316.2</ele><time>2026-04-19T08:04:55.609Z</time></trkpt><trkpt lat="38.8182156" lon="16.2992649"><ele>321.79999999999995</ele><time>2026-04-19T08:04:57.606Z</time></trkpt><trkpt lat="38.8181683" lon="16.2993826"><ele>327.4</ele><time>2026-04-19T08:04:59.604Z</time></trkpt><trkpt lat="38.8181199" lon="16.2994845"><ele>333.0</ele><time>2026-04-19T08:05:01.608Z</time></trkpt><trkpt lat="38.8180585" lon="16.2995714"><ele>333.0</ele><time>2026-04-19T08:05:03.607Z</time></trkpt><trkpt lat="38.8179426" lon="16.2996287"><ele>333.0</ele><time>2026-04-19T08:05:05.607Z</time></trkpt><trkpt lat="38.8178514" lon="16.2996981"><ele>333.0</ele><time>2026-04-19T08:05:07.615Z</time></trkpt><trkpt lat="38.8177829" lon="16.2998035"><ele>333.0</ele><time>2026-04-19T08:05:09.608Z</time></trkpt><trkpt lat="38.8177348" lon="16.2998884"><ele>333.0</ele><time>2026-04-19T08:05:11.609Z</time></trkpt><trkpt lat="38.8177135" lon="16.2999803"><ele>335.8333333333333</ele><time>2026-04-19T08:05:13.61Z</time></trkpt><trkpt lat="38.8176958" lon="16.3000789"><ele>338.6666666666667</ele><time>2026-04-19T08:05:16.605Z</time></trkpt><trkpt lat="38.8176571" lon="16.3001741"><ele>341.5</ele><time>2026-04-19T08:05:19.612Z</time></trkpt><trkpt lat="38.8175863" lon="16.3002623"><ele>344.33333333333337</ele><time>2026-04-19T08:05:21.608Z</time></trkpt><trkpt lat="38.8175103" lon="16.3003204"><ele>347.1666666666667</ele><time>2026-04-19T08:05:23.61Z</time></trkpt><trkpt lat="38.817445" lon="16.3003602"><ele>350.0</ele><time>2026-04-19T08:05:25.614Z</time></trkpt><trkpt lat="38.8174316" lon="16.3004692"><ele>355.1666666666667</ele><time>2026-04-19T08:05:27.625Z</time></trkpt><trkpt lat="38.8174559" lon="16.3005915"><ele>360.33333333333337</ele><time>2026-04-19T08:05:29.608Z</time></trkpt><trkpt lat="38.8174817" lon="16.3006809"><ele>365.5</ele><time>2026-04-19T08:05:31.604Z</time></trkpt><trkpt lat="38.8175081" lon="16.3007585"><ele>370.6666666666667</ele><time>2026-04-19T08:05:33.611Z</time></trkpt><trkpt lat="38.817534" lon="16.3008512"><ele>375.8333333333333</ele><time>2026-04-19T08:05:35.607Z</time></trkpt><trkpt lat="38.817574" lon="16.300961"><ele>381.0</ele><time>2026-04-19T08:05:37.612Z</time></trkpt><trkpt lat="38.8176363" lon="16.3010404"><ele>378.20000000000005</ele><time>2026-04-19T08:05:39.621Z</time></trkpt><trkpt lat="38.8176935" lon="16.3011333"><ele>375.40000000000003</ele><time>2026-04-19T08:05:41.613Z</time></trkpt><trkpt lat="38.8177017" lon="16.301239"><ele>372.6</ele><time>2026-04-19T08:05:43.607Z</time></trkpt><trkpt lat="38.817702" lon="16.3013704"><ele>369.8</ele><time>2026-04-19T08:05:45.607Z</time></trkpt><trkpt lat="38.8177134" lon="16.3014982"><ele>367.0</ele><time>2026-04-19T08:05:48.607Z</time></trkpt><trkpt lat="38.8177383" lon="16.3016205"><ele>367.0</ele><time>2026-04-19T08:05:50.608Z</time></trkpt><trkpt lat="38.8177617" lon="16.3017045"><ele>367.0</ele><time>2026-04-19T08:05:51.604Z</time></trkpt><trkpt lat="38.8177835" lon="16.3018008"><ele>367.0</ele><time>2026-04-19T08:05:52.613Z</time></trkpt><trkpt lat="38.817805" lon="16.3019116"><ele>367.0</ele><time>2026-04-19T08:05:53.614Z</time></trkpt><trkpt lat="38.8178301" lon="16.3020211"><ele>367.0</ele><time>2026-04-19T08:05:54.615Z</time></trkpt><trkpt lat="38.817851" lon="16.3021181"><ele>367.0</ele><time>2026-04-19T08:05:55.607Z</time></trkpt><trkpt lat="38.817852" lon="16.3022122"><ele>367.8333333333333</ele><time>2026-04-19T08:05:56.612Z</time></trkpt><trkpt lat="38.8178518" lon="16.3023107"><ele>368.66666666666663</ele><time>2026-04-19T08:05:57.608Z</time></trkpt><trkpt lat="38.8178458" lon="16.3024033"><ele>369.5</ele><time>2026-04-19T08:05:58.621Z</time></trkpt><trkpt lat="38.8178323" lon="16.3025086"><ele>370.3333333333333</ele><time>2026-04-19T08:05:59.603Z</time></trkpt><trkpt lat="38.8178231" lon="16.3026093"><ele>371.1666666666667</ele><time>2026-04-19T08:06:00.611Z</time></trkpt><trkpt lat="38.8178069" lon="16.3026921"><ele>372.0</ele><time>2026-04-19T08:06:01.606Z</time></trkpt><trkpt lat="38.8177779" lon="16.3028459"><ele>372.0</ele><time>2026-04-19T08:06:03.604Z</time></trkpt><trkpt lat="38.8177459" lon="16.3029251"><ele>372.0</ele><time>2026-04-19T08:06:04.608Z</time></trkpt><trkpt lat="38.8176934" lon="16.3030012"><ele>372.0</ele><time>2026-04-19T08:06:05.625Z</time></trkpt><trkpt lat="38.8176484" lon="16.3030615"><ele>372.0</ele><time>2026-04-19T08:06:06.616Z</time></trkpt><trkpt lat="38.8175754" lon="16.303149"><ele>372.0</ele><time>2026-04-19T08:06:08.61Z</time></trkpt><trkpt lat="38.8175109" lon="16.3032441"><ele>372.0</ele><time>2026-04-19T08:06:10.653Z</time></trkpt><trkpt lat="38.8174509" lon="16.303392"><ele>379.6666666666667</ele><time>2026-04-19T08:06:12.606Z</time></trkpt><trkpt lat="38.8174391" lon="16.3035102"><ele>387.33333333333337</ele><time>2026-04-19T08:06:13.612Z</time></trkpt><trkpt lat="38.8174315" lon="16.3036305"><ele>395.0</ele><time>2026-04-19T08:06:14.605Z</time></trkpt><trkpt lat="38.8174229" lon="16.3037376"><ele>402.6666666666667</ele><time>2026-04-19T08:06:15.608Z</time></trkpt><trkpt lat="38.817379" lon="16.3038271"><ele>410.33333333333337</ele><time>2026-04-19T08:06:17.608Z</time></trkpt><trkpt lat="38.8173223" lon="16.3037667"><ele>418.0</ele><time>2026-04-19T08:06:19.62Z</time></trkpt><trkpt lat="38.8172939" lon="16.3035882"><ele>418.00000000000006</ele><time>2026-04-19T08:06:21.606Z</time></trkpt><trkpt lat="38.8172741" lon="16.3034926"><ele>418.0</ele><time>2026-04-19T08:06:22.604Z</time></trkpt><trkpt lat="38.8172624" lon="16.3034059"><ele>418.0</ele><time>2026-04-19T08:06:23.608Z</time></trkpt><trkpt lat="38.8172747" lon="16.3033243"><ele>418.0</ele><time>2026-04-19T08:06:24.602Z</time></trkpt><trkpt lat="38.8173146" lon="16.3032126"><ele>418.00000000000006</ele><time>2026-04-19T08:06:26.607Z</time></trkpt><trkpt lat="38.8173586" lon="16.303106"><ele>418.0</ele><time>2026-04-19T08:06:28.607Z</time></trkpt><trkpt lat="38.817401" lon="16.303013"><ele>417.59999999999997</ele><time>2026-04-19T08:06:30.616Z</time></trkpt><trkpt lat="38.817445" lon="16.3029129"><ele>417.2</ele><time>2026-04-19T08:06:32.61Z</time></trkpt><trkpt lat="38.8174566" lon="16.3027966"><ele>416.8</ele><time>2026-04-19T08:06:35.621Z</time></trkpt><trkpt lat="38.8173749" lon="16.3027421"><ele>416.4</ele><time>2026-04-19T08:06:37.611Z</time></trkpt><trkpt lat="38.8172884" lon="16.3027613"><ele>416.0</ele><time>2026-04-19T08:06:39.611Z</time></trkpt><trkpt lat="38.8171893" lon="16.3027236"><ele>415.99999999999994</ele><time>2026-04-19T08:06:41.607Z</time></trkpt><trkpt lat="38.8171017" lon="16.3026865"><ele>416.0</ele><time>2026-04-19T08:06:43.613Z</time></trkpt><trkpt lat="38.8170277" lon="16.3026233"><ele>416.0</ele><time>2026-04-19T08:06:45.608Z</time></trkpt><trkpt lat="38.8169919" lon="16.3025456"><ele>416.0</ele><time>2026-04-19T08:06:48.613Z</time></trkpt><trkpt lat="38.8169079" lon="16.3024919"><ele>415.99999999999994</ele><time>2026-04-19T08:06:50.607Z</time></trkpt><trkpt lat="38.816833" lon="16.3024645"><ele>416.0</ele><time>2026-04-19T08:06:52.638Z</time></trkpt><trkpt lat="38.8167477" lon="16.3024695"><ele>419.66666666666663</ele><time>2026-04-19T08:06:55.679Z</time></trkpt><trkpt lat="38.8166769" lon="16.302515"><ele>423.3333333333333</ele><time>2026-04-19T08:06:57.61Z</time></trkpt><trkpt lat="38.8166352" lon="16.3025996"><ele>427.0</ele><time>2026-04-19T08:06:59.62Z</time></trkpt><trkpt lat="38.8166024" lon="16.3027009"><ele>430.66666666666663</ele><time>2026-04-19T08:07:01.575Z</time></trkpt><trkpt lat="38.8165705" lon="16.3028171"><ele>434.3333333333333</ele><time>2026-04-19T08:07:03.675Z</time></trkpt><trkpt lat="38.8165452" lon="16.3029107"><ele>438.0</ele><time>2026-04-19T08:07:05.698Z</time></trkpt><trkpt lat="38.8165193" lon="16.303008"><ele>441.0</ele><time>2026-04-19T08:07:07.623Z</time></trkpt><trkpt lat="38.8164797" lon="16.3031591"><ele>443.99999999999994</ele><time>2026-04-19T08:07:08.61Z</time></trkpt><trkpt lat="38.8164158" lon="16.303214"><ele>446.99999999999994</ele><time>2026-04-19T08:07:09.61Z</time></trkpt><trkpt lat="38.8163501" lon="16.3032671"><ele>450.0</ele><time>2026-04-19T08:07:10.613Z</time></trkpt><trkpt lat="38.8162451" lon="16.3033608"><ele>453.0</ele><time>2026-04-19T08:07:12.605Z</time></trkpt><trkpt lat="38.8161858" lon="16.3034376"><ele>453.0</ele><time>2026-04-19T08:07:13.609Z</time></trkpt><trkpt lat="38.8161412" lon="16.3035326"><ele>453.0</ele><time>2026-04-19T08:07:14.609Z</time></trkpt><trkpt lat="38.8161029" lon="16.3036017"><ele>453.0</ele><time>2026-04-19T08:07:15.608Z</time></trkpt><trkpt lat="38.8160283" lon="16.3037101"><ele>453.0</ele><time>2026-04-19T08:07:17.611Z</time></trkpt><trkpt lat="38.8159647" lon="16.3038138"><ele>453.0</ele><time>2026-04-19T08:07:19.61Z</time></trkpt><trkpt lat="38.8159162" lon="16.303874"><ele>453.0</ele><time>2026-04-19T08:07:20.607Z</time></trkpt><trkpt lat="38.8158614" lon="16.303928"><ele>455.6666666666667</ele><time>2026-04-19T08:07:21.607Z</time></trkpt><trkpt lat="38.8157995" lon="16.3039882"><ele>458.33333333333337</ele><time>2026-04-19T08:07:22.625Z</time></trkpt><trkpt lat="38.8157469" lon="16.3040626"><ele>461.0</ele><time>2026-04-19T08:07:23.615Z</time></trkpt><trkpt lat="38.8157051" lon="16.3041442"><ele>463.6666666666667</ele><time>2026-04-19T08:07:24.609Z</time></trkpt><trkpt lat="38.815668" lon="16.3042283"><ele>466.33333333333337</ele><time>2026-04-19T08:07:25.607Z</time></trkpt><trkpt lat="38.8156027" lon="16.3043053"><ele>469.0</ele><time>2026-04-19T08:07:26.61Z</time></trkpt><trkpt lat="38.8155247" lon="16.304385"><ele>469.0</ele><time>2026-04-19T08:07:27.639Z</time></trkpt><trkpt lat="38.8154617" lon="16.304467"><ele>469.0</ele><time>2026-04-19T08:07:28.607Z</time></trkpt><trkpt lat="38.8153865" lon="16.3045573"><ele>469.0</ele><time>2026-04-19T08:07:29.605Z</time></trkpt><trkpt lat="38.8152982" lon="16.3046559"><ele>469.0</ele><time>2026-04-19T08:07:30.607Z</time></trkpt><trkpt lat="38.8151932" lon="16.3047987"><ele>471.2</ele><time>2026-04-19T08:07:31.606Z</time></trkpt><trkpt lat="38.815127" lon="16.3049332"><ele>473.4</ele><time>2026-04-19T08:07:32.611Z</time></trkpt><trkpt lat="38.8150697" lon="16.305064"><ele>475.6</ele><time>2026-04-19T08:07:33.61Z</time></trkpt><trkpt lat="38.8150408" lon="16.3051835"><ele>477.8</ele><time>2026-04-19T08:07:34.622Z</time></trkpt><trkpt lat="38.815031" lon="16.3052912"><ele>480.0</ele><time>2026-04-19T08:07:35.608Z</time></trkpt><trkpt lat="38.8150303" lon="16.3054109"><ele>480.0</ele><time>2026-04-19T08:07:36.607Z</time></trkpt><trkpt lat="38.8150203" lon="16.3055377"><ele>480.0</ele><time>2026-04-19T08:07:37.609Z</time></trkpt><trkpt lat="38.8150002" lon="16.3056719"><ele>480.0</ele><time>2026-04-19T08:07:38.607Z</time></trkpt><trkpt lat="38.8149862" lon="16.3057794"><ele>480.0</ele><time>2026-04-19T08:07:39.628Z</time></trkpt><trkpt lat="38.8149785" lon="16.3058845"><ele>480.0</ele><time>2026-04-19T08:07:40.61Z</time></trkpt><trkpt lat="38.8149805" lon="16.3059885"><ele>481.5</ele><time>2026-04-19T08:07:41.609Z</time></trkpt><trkpt lat="38.8150013" lon="16.306083"><ele>483.0</ele><time>2026-04-19T08:07:42.612Z</time></trkpt><trkpt lat="38.8150269" lon="16.3062063"><ele>484.5</ele><time>2026-04-19T08:07:43.608Z</time></trkpt><trkpt lat="38.8150125" lon="16.3063271"><ele>486.0</ele><time>2026-04-19T08:07:44.616Z</time></trkpt><trkpt lat="38.8149969" lon="16.3064321"><ele>487.5</ele><time>2026-04-19T08:07:45.612Z</time></trkpt><trkpt lat="38.8149527" lon="16.3065103"><ele>489.0</ele><time>2026-04-19T08:07:46.629Z</time></trkpt><trkpt lat="38.814907" lon="16.3065762"><ele>489.2</ele><time>2026-04-19T08:07:47.609Z</time></trkpt><trkpt lat="38.8148202" lon="16.3066929"><ele>489.4</ele><time>2026-04-19T08:07:49.611Z</time></trkpt><trkpt lat="38.8147377" lon="16.3068282"><ele>489.6</ele><time>2026-04-19T08:07:51.625Z</time></trkpt><trkpt lat="38.8146944" lon="16.3068921"><ele>489.8</ele><time>2026-04-19T08:07:52.607Z</time></trkpt><trkpt lat="38.8146505" lon="16.3069517"><ele>490.0</ele><time>2026-04-19T08:07:53.609Z</time></trkpt><trkpt lat="38.8145737" lon="16.3070462"><ele>490.0</ele><time>2026-04-19T08:07:55.61Z</time></trkpt><trkpt lat="38.8144939" lon="16.3071422"><ele>490.0</ele><time>2026-04-19T08:07:57.613Z</time></trkpt><trkpt lat="38.8144235" lon="16.3072316"><ele>490.0</ele><time>2026-04-19T08:07:59.608Z</time></trkpt><trkpt lat="38.8143597" lon="16.3073069"><ele>490.0</ele><time>2026-04-19T08:08:01.61Z</time></trkpt><trkpt lat="38.8142808" lon="16.3073932"><ele>490.0</ele><time>2026-04-19T08:08:03.606Z</time></trkpt><trkpt lat="38.8142025" lon="16.3074877"><ele>492.57142857142856</ele><time>2026-04-19T08:08:05.605Z</time></trkpt><trkpt lat="38.8141543" lon="16.3075505"><ele>495.1428571428571</ele><time>2026-04-19T08:08:06.605Z</time></trkpt><trkpt lat="38.8141076" lon="16.3076279"><ele>497.7142857142857</ele><time>2026-04-19T08:08:07.626Z</time></trkpt><trkpt lat="38.8140704" lon="16.3076989"><ele>500.2857142857143</ele><time>2026-04-19T08:08:08.606Z</time></trkpt><trkpt lat="38.8140329" lon="16.3077651"><ele>502.85714285714283</ele><time>2026-04-19T08:08:09.616Z</time></trkpt><trkpt lat="38.8139924" lon="16.307834"><ele>505.42857142857144</ele><time>2026-04-19T08:08:10.619Z</time></trkpt><trkpt lat="38.8139466" lon="16.307908"><ele>508.0</ele><time>2026-04-19T08:08:11.608Z</time></trkpt><trkpt lat="38.8138959" lon="16.3079761"><ele>508.0</ele><time>2026-04-19T08:08:12.625Z</time></trkpt><trkpt lat="38.8138221" lon="16.3080531"><ele>507.99999999999994</ele><time>2026-04-19T08:08:13.614Z</time></trkpt><trkpt lat="38.8137324" lon="16.308151"><ele>507.99999999999994</ele><time>2026-04-19T08:08:14.644Z</time></trkpt><trkpt lat="38.8136523" lon="16.3082308"><ele>508.0</ele><time>2026-04-19T08:08:15.609Z</time></trkpt><trkpt lat="38.8135963" lon="16.3082929"><ele>508.0</ele><time>2026-04-19T08:08:16.616Z</time></trkpt><trkpt lat="38.813549" lon="16.3083539"><ele>507.4</ele><time>2026-04-19T08:08:17.611Z</time></trkpt><trkpt lat="38.8134967" lon="16.308419"><ele>506.79999999999995</ele><time>2026-04-19T08:08:18.61Z</time></trkpt><trkpt lat="38.8134283" lon="16.3084965"><ele>506.2</ele><time>2026-04-19T08:08:19.611Z</time></trkpt><trkpt lat="38.813342" lon="16.3085909"><ele>505.6</ele><time>2026-04-19T08:08:20.614Z</time></trkpt><trkpt lat="38.8132588" lon="16.3086777"><ele>505.0</ele><time>2026-04-19T08:08:21.611Z</time></trkpt><trkpt lat="38.8131771" lon="16.3087539"><ele>506.1666666666667</ele><time>2026-04-19T08:08:22.625Z</time></trkpt><trkpt lat="38.8130979" lon="16.3088211"><ele>507.33333333333337</ele><time>2026-04-19T08:08:23.614Z</time></trkpt><trkpt lat="38.8130231" lon="16.3088851"><ele>508.5</ele><time>2026-04-19T08:08:24.615Z</time></trkpt><trkpt lat="38.8129561" lon="16.308944"><ele>509.66666666666663</ele><time>2026-04-19T08:08:25.614Z</time></trkpt><trkpt lat="38.8128969" lon="16.3090002"><ele>510.8333333333333</ele><time>2026-04-19T08:08:26.617Z</time></trkpt><trkpt lat="38.8128398" lon="16.3090533"><ele>512.0</ele><time>2026-04-19T08:08:27.608Z</time></trkpt><trkpt lat="38.8127822" lon="16.3091005"><ele>511.99999999999994</ele><time>2026-04-19T08:08:28.626Z</time></trkpt><trkpt lat="38.812722" lon="16.3091563"><ele>512.0</ele><time>2026-04-19T08:08:29.621Z</time></trkpt><trkpt lat="38.8126585" lon="16.3092186"><ele>512.0</ele><time>2026-04-19T08:08:30.61Z</time></trkpt><trkpt lat="38.8125868" lon="16.3092858"><ele>512.0</ele><time>2026-04-19T08:08:31.613Z</time></trkpt><trkpt lat="38.8125121" lon="16.3093596"><ele>511.99999999999994</ele><time>2026-04-19T08:08:32.612Z</time></trkpt><trkpt lat="38.8124436" lon="16.3094272"><ele>512.0</ele><time>2026-04-19T08:08:33.607Z</time></trkpt><trkpt lat="38.8123622" lon="16.3094889"><ele>513.5</ele><time>2026-04-19T08:08:34.626Z</time></trkpt><trkpt lat="38.8122847" lon="16.3095444"><ele>515.0</ele><time>2026-04-19T08:08:35.61Z</time></trkpt><trkpt lat="38.8122198" lon="16.3095876"><ele>516.5</ele><time>2026-04-19T08:08:36.608Z</time></trkpt><trkpt lat="38.8121524" lon="16.3096336"><ele>518.0</ele><time>2026-04-19T08:08:37.618Z</time></trkpt><trkpt lat="38.8120712" lon="16.3096797"><ele>519.5</ele><time>2026-04-19T08:08:38.616Z</time></trkpt><trkpt lat="38.8119905" lon="16.3097047"><ele>521.0</ele><time>2026-04-19T08:08:39.626Z</time></trkpt><trkpt lat="38.8119182" lon="16.309721"><ele>520.75</ele><time>2026-04-19T08:08:40.619Z</time></trkpt><trkpt lat="38.8118375" lon="16.3097468"><ele>520.5</ele><time>2026-04-19T08:08:41.616Z</time></trkpt><trkpt lat="38.8117469" lon="16.3098086"><ele>520.25</ele><time>2026-04-19T08:08:42.609Z</time></trkpt><trkpt lat="38.8116065" lon="16.3098779"><ele>520.0</ele><time>2026-04-19T08:08:43.611Z</time></trkpt><trkpt lat="38.8114715" lon="16.3099443"><ele>521.8</ele><time>2026-04-19T08:08:44.614Z</time></trkpt><trkpt lat="38.8113546" lon="16.3100098"><ele>523.6</ele><time>2026-04-19T08:08:45.621Z</time></trkpt><trkpt lat="38.8112628" lon="16.3100833"><ele>525.4</ele><time>2026-04-19T08:08:46.609Z</time></trkpt><trkpt lat="38.8111869" lon="16.3101748"><ele>527.2</ele><time>2026-04-19T08:08:47.612Z</time></trkpt><trkpt lat="38.8111086" lon="16.3102721"><ele>529.0</ele><time>2026-04-19T08:08:48.616Z</time></trkpt><trkpt lat="38.811035" lon="16.3103932"><ele>528.0</ele><time>2026-04-19T08:08:49.618Z</time></trkpt><trkpt lat="38.810969" lon="16.3105269"><ele>527.0</ele><time>2026-04-19T08:08:50.619Z</time></trkpt><trkpt lat="38.8108924" lon="16.3106802"><ele>526.0</ele><time>2026-04-19T08:08:51.614Z</time></trkpt><trkpt lat="38.8108199" lon="16.3108359"><ele>525.0</ele><time>2026-04-19T08:08:52.617Z</time></trkpt><trkpt lat="38.8107411" lon="16.3110013"><ele>528.3333333333334</ele><time>2026-04-19T08:08:53.608Z</time></trkpt><trkpt lat="38.8106566" lon="16.3111771"><ele>531.6666666666667</ele><time>2026-04-19T08:08:54.628Z</time></trkpt><trkpt lat="38.8105663" lon="16.3113655"><ele>535.0</ele><time>2026-04-19T08:08:55.616Z</time></trkpt><trkpt lat="38.8104926" lon="16.3115224"><ele>537.0</ele><time>2026-04-19T08:08:56.609Z</time></trkpt><trkpt lat="38.8104089" lon="16.3116492"><ele>539.0</ele><time>2026-04-19T08:08:57.612Z</time></trkpt><trkpt lat="38.8103225" lon="16.3117364"><ele>541.0</ele><time>2026-04-19T08:08:58.611Z</time></trkpt><trkpt lat="38.8102605" lon="16.3118481"><ele>543.0</ele><time>2026-04-19T08:08:59.625Z</time></trkpt><trkpt lat="38.8102223" lon="16.3119775"><ele>543.0</ele><time>2026-04-19T08:09:00.606Z</time></trkpt><trkpt lat="38.8101977" lon="16.3121425"><ele>543.0</ele><time>2026-04-19T08:09:01.612Z</time></trkpt><trkpt lat="38.8101744" lon="16.3123274"><ele>543.0</ele><time>2026-04-19T08:09:02.609Z</time></trkpt><trkpt lat="38.8101394" lon="16.3125164"><ele>543.0</ele><time>2026-04-19T08:09:03.609Z</time></trkpt><trkpt lat="38.8100852" lon="16.3126985"><ele>545.5</ele><time>2026-04-19T08:09:04.612Z</time></trkpt><trkpt lat="38.8100242" lon="16.3128645"><ele>548.0</ele><time>2026-04-19T08:09:05.603Z</time></trkpt><trkpt lat="38.8099567" lon="16.3130241"><ele>550.5</ele><time>2026-04-19T08:09:06.624Z</time></trkpt><trkpt lat="38.8098822" lon="16.3131902"><ele>553.0</ele><time>2026-04-19T08:09:07.607Z</time></trkpt><trkpt lat="38.8097926" lon="16.3133736"><ele>555.3333333333334</ele><time>2026-04-19T08:09:08.606Z</time></trkpt><trkpt lat="38.8096896" lon="16.3135734"><ele>557.6666666666666</ele><time>2026-04-19T08:09:09.605Z</time></trkpt><trkpt lat="38.8095871" lon="16.3137654"><ele>560.0</ele><time>2026-04-19T08:09:10.605Z</time></trkpt><trkpt lat="38.8094872" lon="16.3139559"><ele>563.0</ele><time>2026-04-19T08:09:11.612Z</time></trkpt><trkpt lat="38.8093755" lon="16.3141603"><ele>566.0</ele><time>2026-04-19T08:09:12.605Z</time></trkpt><trkpt lat="38.809254" lon="16.314379"><ele>569.0</ele><time>2026-04-19T08:09:13.628Z</time></trkpt><trkpt lat="38.8091206" lon="16.3146054"><ele>570.5</ele><time>2026-04-19T08:09:14.607Z</time></trkpt><trkpt lat="38.8089782" lon="16.3148376"><ele>572.0</ele><time>2026-04-19T08:09:15.61Z</time></trkpt><trkpt lat="38.8088273" lon="16.315074"><ele>572.0</ele><time>2026-04-19T08:09:16.609Z</time></trkpt><trkpt lat="38.8086706" lon="16.3153135"><ele>572.0</ele><time>2026-04-19T08:09:17.61Z</time></trkpt><trkpt lat="38.8085082" lon="16.3155577"><ele>575.0</ele><time>2026-04-19T08:09:18.625Z</time></trkpt><trkpt lat="38.8083445" lon="16.3158082"><ele>578.0</ele><time>2026-04-19T08:09:19.608Z</time></trkpt><trkpt lat="38.8081928" lon="16.3160592"><ele>578.0</ele><time>2026-04-19T08:09:20.606Z</time></trkpt><trkpt lat="38.8080647" lon="16.3162764"><ele>578.0</ele><time>2026-04-19T08:09:21.615Z</time></trkpt><trkpt lat="38.8079445" lon="16.3164697"><ele>578.0</ele><time>2026-04-19T08:09:22.607Z</time></trkpt><trkpt lat="38.8078337" lon="16.3166565"><ele>579.25</ele><time>2026-04-19T08:09:23.625Z</time></trkpt><trkpt lat="38.80773" lon="16.3168367"><ele>580.5</ele><time>2026-04-19T08:09:24.614Z</time></trkpt><trkpt lat="38.807643" lon="16.3169778"><ele>581.75</ele><time>2026-04-19T08:09:25.606Z</time></trkpt><trkpt lat="38.8075679" lon="16.3170902"><ele>583.0</ele><time>2026-04-19T08:09:26.609Z</time></trkpt><trkpt lat="38.8074911" lon="16.3172085"><ele>585.5</ele><time>2026-04-19T08:09:27.609Z</time></trkpt><trkpt lat="38.8074159" lon="16.3173387"><ele>588.0</ele><time>2026-04-19T08:09:28.623Z</time></trkpt><trkpt lat="38.8073335" lon="16.3174824"><ele>590.5</ele><time>2026-04-19T08:09:29.609Z</time></trkpt><trkpt lat="38.8072191" lon="16.317631"><ele>593.0</ele><time>2026-04-19T08:09:30.619Z</time></trkpt><trkpt lat="38.8070899" lon="16.3177783"><ele>593.0</ele><time>2026-04-19T08:09:31.62Z</time></trkpt><trkpt lat="38.8069737" lon="16.3178979"><ele>593.0</ele><time>2026-04-19T08:09:32.611Z</time></trkpt><trkpt lat="38.806858" lon="16.3180155"><ele>593.0</ele><time>2026-04-19T08:09:33.633Z</time></trkpt><trkpt lat="38.8067395" lon="16.3181324"><ele>593.0</ele><time>2026-04-19T08:09:34.606Z</time></trkpt><trkpt lat="38.806648" lon="16.3182549"><ele>595.0</ele><time>2026-04-19T08:09:35.611Z</time></trkpt><trkpt lat="38.8065581" lon="16.3183616"><ele>597.0</ele><time>2026-04-19T08:09:36.608Z</time></trkpt><trkpt lat="38.8064463" lon="16.3184508"><ele>599.0</ele><time>2026-04-19T08:09:37.613Z</time></trkpt><trkpt lat="38.8063205" lon="16.3185297"><ele>601.0</ele><time>2026-04-19T08:09:38.611Z</time></trkpt><trkpt lat="38.8061787" lon="16.3185935"><ele>601.0</ele><time>2026-04-19T08:09:39.608Z</time></trkpt><trkpt lat="38.8060398" lon="16.3186511"><ele>601.0</ele><time>2026-04-19T08:09:40.62Z</time></trkpt><trkpt lat="38.8059219" lon="16.318684"><ele>601.0</ele><time>2026-04-19T08:09:41.626Z</time></trkpt><trkpt lat="38.8058135" lon="16.3187202"><ele>601.0</ele><time>2026-04-19T08:09:42.612Z</time></trkpt><trkpt lat="38.8057269" lon="16.3187534"><ele>601.1666666666667</ele><time>2026-04-19T08:09:43.62Z</time></trkpt><trkpt lat="38.8056569" lon="16.3187854"><ele>601.3333333333334</ele><time>2026-04-19T08:09:44.613Z</time></trkpt><trkpt lat="38.8055983" lon="16.3188304"><ele>601.5</ele><time>2026-04-19T08:09:45.61Z</time></trkpt><trkpt lat="38.8054817" lon="16.3188517"><ele>601.6666666666666</ele><time>2026-04-19T08:09:47.614Z</time></trkpt><trkpt lat="38.8054066" lon="16.3188827"><ele>601.8333333333333</ele><time>2026-04-19T08:09:49.611Z</time></trkpt><trkpt lat="38.8053234" lon="16.318893"><ele>602.0</ele><time>2026-04-19T08:09:53.61Z</time></trkpt><trkpt lat="38.8052553" lon="16.3189002"><ele>600.1666666666666</ele><time>2026-04-19T08:09:55.606Z</time></trkpt><trkpt lat="38.8051327" lon="16.3188766"><ele>598.3333333333333</ele><time>2026-04-19T08:09:57.61Z</time></trkpt><trkpt lat="38.8050662" lon="16.3188863"><ele>596.5</ele><time>2026-04-19T08:09:58.608Z</time></trkpt><trkpt lat="38.8050022" lon="16.3188906"><ele>594.6666666666666</ele><time>2026-04-19T08:09:59.612Z</time></trkpt><trkpt lat="38.8048981" lon="16.3189091"><ele>592.8333333333334</ele><time>2026-04-19T08:10:01.609Z</time></trkpt><trkpt lat="38.8048212" lon="16.3188957"><ele>591.0</ele><time>2026-04-19T08:10:02.609Z</time></trkpt><trkpt lat="38.8047191" lon="16.3188618"><ele>591.0</ele><time>2026-04-19T08:10:03.625Z</time></trkpt><trkpt lat="38.8046167" lon="16.3188471"><ele>591.0</ele><time>2026-04-19T08:10:04.608Z</time></trkpt><trkpt lat="38.8045434" lon="16.3189018"><ele>591.0</ele><time>2026-04-19T08:10:05.617Z</time></trkpt><trkpt lat="38.8044787" lon="16.3189526"><ele>591.0</ele><time>2026-04-19T08:10:06.614Z</time></trkpt><trkpt lat="38.8044148" lon="16.3189832"><ele>591.0</ele><time>2026-04-19T08:10:07.616Z</time></trkpt><trkpt lat="38.8043547" lon="16.3190276"><ele>591.0</ele><time>2026-04-19T08:10:09.614Z</time></trkpt><trkpt lat="38.8042812" lon="16.3190701"><ele>585.8</ele><time>2026-04-19T08:10:11.612Z</time></trkpt><trkpt lat="38.8042246" lon="16.3191092"><ele>580.6</ele><time>2026-04-19T08:10:12.609Z</time></trkpt><trkpt lat="38.8040937" lon="16.3191686"><ele>575.4</ele><time>2026-04-19T08:10:14.627Z</time></trkpt><trkpt lat="38.8040087" lon="16.319188"><ele>570.2</ele><time>2026-04-19T08:10:15.612Z</time></trkpt><trkpt lat="38.8039176" lon="16.3192007"><ele>565.0</ele><time>2026-04-19T08:10:17.61Z</time></trkpt><trkpt lat="38.8038498" lon="16.3191887"><ele>565.0</ele><time>2026-04-19T08:10:20.609Z</time></trkpt><trkpt lat="38.8037835" lon="16.319206"><ele>565.0</ele><time>2026-04-19T08:10:21.609Z</time></trkpt><trkpt lat="38.8037023" lon="16.3192835"><ele>565.0</ele><time>2026-04-19T08:10:23.621Z</time></trkpt><trkpt lat="38.8036857" lon="16.3193914"><ele>565.0</ele><time>2026-04-19T08:10:26.613Z</time></trkpt><trkpt lat="38.8036946" lon="16.3194989"><ele>565.0</ele><time>2026-04-19T08:10:28.698Z</time></trkpt><trkpt lat="38.8036894" lon="16.3195861"><ele>565.0</ele><time>2026-04-19T08:10:29.612Z</time></trkpt><trkpt lat="38.8036499" lon="16.3196828"><ele>563.1666666666667</ele><time>2026-04-19T08:10:32.606Z</time></trkpt><trkpt lat="38.8036182" lon="16.3198251"><ele>561.3333333333334</ele><time>2026-04-19T08:10:34.613Z</time></trkpt><trkpt lat="38.8035935" lon="16.3199348"><ele>559.5</ele><time>2026-04-19T08:10:35.611Z</time></trkpt><trkpt lat="38.803564" lon="16.3200298"><ele>557.6666666666666</ele><time>2026-04-19T08:10:36.636Z</time></trkpt><trkpt lat="38.8035277" lon="16.3201085"><ele>555.8333333333333</ele><time>2026-04-19T08:10:38.61Z</time></trkpt><trkpt lat="38.8034734" lon="16.3201804"><ele>554.0</ele><time>2026-04-19T08:10:41.622Z</time></trkpt><trkpt lat="38.8034088" lon="16.3202208"><ele>554.0</ele><time>2026-04-19T08:10:44.635Z</time></trkpt><trkpt lat="38.8033171" lon="16.320313"><ele>554.0</ele><time>2026-04-19T08:10:46.612Z</time></trkpt><trkpt lat="38.8032231" lon="16.320353"><ele>554.0</ele><time>2026-04-19T08:10:48.609Z</time></trkpt><trkpt lat="38.8031526" lon="16.3204195"><ele>554.0</ele><time>2026-04-19T08:10:50.614Z</time></trkpt><trkpt lat="38.8031682" lon="16.3205541"><ele>554.0</ele><time>2026-04-19T08:10:52.616Z</time></trkpt><trkpt lat="38.8031943" lon="16.3206469"><ele>552.2</ele><time>2026-04-19T08:10:53.613Z</time></trkpt><trkpt lat="38.8032325" lon="16.320729"><ele>550.4</ele><time>2026-04-19T08:10:54.612Z</time></trkpt><trkpt lat="38.8032661" lon="16.3208437"><ele>548.6</ele><time>2026-04-19T08:10:56.607Z</time></trkpt><trkpt lat="38.8033288" lon="16.3208623"><ele>546.8</ele><time>2026-04-19T08:10:58.617Z</time></trkpt><trkpt lat="38.8034719" lon="16.3208931"><ele>545.0</ele><time>2026-04-19T08:11:00.619Z</time></trkpt><trkpt lat="38.8035535" lon="16.3209668"><ele>543.6</ele><time>2026-04-19T08:11:01.609Z</time></trkpt><trkpt lat="38.8036138" lon="16.3210587"><ele>542.2</ele><time>2026-04-19T08:11:02.615Z</time></trkpt><trkpt lat="38.8036822" lon="16.3211725"><ele>540.8</ele><time>2026-04-19T08:11:04.61Z</time></trkpt><trkpt lat="38.8037581" lon="16.3211953"><ele>539.4</ele><time>2026-04-19T08:11:06.608Z</time></trkpt><trkpt lat="38.8038386" lon="16.3212273"><ele>538.0</ele><time>2026-04-19T08:11:08.625Z</time></trkpt><trkpt lat="38.8038505" lon="16.3213546"><ele>537.8333333333334</ele><time>2026-04-19T08:11:10.618Z</time></trkpt><trkpt lat="38.8038713" lon="16.3214347"><ele>537.6666666666667</ele><time>2026-04-19T08:11:11.616Z</time></trkpt><trkpt lat="38.8039286" lon="16.3214933"><ele>537.5</ele><time>2026-04-19T08:11:12.608Z</time></trkpt><trkpt lat="38.8039948" lon="16.3215421"><ele>537.3333333333334</ele><time>2026-04-19T08:11:13.606Z</time></trkpt><trkpt lat="38.8040609" lon="16.3215997"><ele>537.1666666666666</ele><time>2026-04-19T08:11:14.607Z</time></trkpt><trkpt lat="38.8041037" lon="16.3216724"><ele>537.0</ele><time>2026-04-19T08:11:15.608Z</time></trkpt><trkpt lat="38.8041043" lon="16.321784"><ele>537.0</ele><time>2026-04-19T08:11:17.61Z</time></trkpt><trkpt lat="38.8040179" lon="16.3218306"><ele>537.0</ele><time>2026-04-19T08:11:19.609Z</time></trkpt><trkpt lat="38.803947" lon="16.3218565"><ele>537.0</ele><time>2026-04-19T08:11:20.613Z</time></trkpt><trkpt lat="38.8038922" lon="16.321938"><ele>537.0</ele><time>2026-04-19T08:11:21.615Z</time></trkpt><trkpt lat="38.8038627" lon="16.3220456"><ele>537.0</ele><time>2026-04-19T08:11:22.614Z</time></trkpt><trkpt lat="38.8038219" lon="16.3221617"><ele>537.0</ele><time>2026-04-19T08:11:23.626Z</time></trkpt><trkpt lat="38.8037553" lon="16.3222846"><ele>538.75</ele><time>2026-04-19T08:11:24.609Z</time></trkpt><trkpt lat="38.8036615" lon="16.3224032"><ele>540.5</ele><time>2026-04-19T08:11:25.607Z</time></trkpt><trkpt lat="38.8035582" lon="16.3225157"><ele>542.25</ele><time>2026-04-19T08:11:26.608Z</time></trkpt><trkpt lat="38.8034609" lon="16.3226179"><ele>544.0</ele><time>2026-04-19T08:11:27.61Z</time></trkpt><trkpt lat="38.80338" lon="16.3227093"><ele>545.3333333333334</ele><time>2026-04-19T08:11:28.614Z</time></trkpt><trkpt lat="38.8033209" lon="16.3227849"><ele>546.6666666666667</ele><time>2026-04-19T08:11:29.608Z</time></trkpt><trkpt lat="38.8032344" lon="16.3228465"><ele>548.0</ele><time>2026-04-19T08:11:31.608Z</time></trkpt><trkpt lat="38.8031365" lon="16.3227489"><ele>549.3333333333334</ele><time>2026-04-19T08:11:33.608Z</time></trkpt><trkpt lat="38.8030893" lon="16.3226741"><ele>550.6666666666666</ele><time>2026-04-19T08:11:34.609Z</time></trkpt><trkpt lat="38.8031312" lon="16.322739"><ele>552.0</ele><time>2026-04-19T08:11:53.61Z</time></trkpt><trkpt lat="38.8031673" lon="16.3228137"><ele>552.0</ele><time>2026-04-19T08:11:59.61Z</time></trkpt><trkpt lat="38.8030536" lon="16.322787"><ele>552.0</ele><time>2026-04-19T08:12:08.616Z</time></trkpt><trkpt lat="38.8029683" lon="16.3227852"><ele>552.0</ele><time>2026-04-19T08:12:09.608Z</time></trkpt><trkpt lat="38.8028788" lon="16.3228026"><ele>552.0</ele><time>2026-04-19T08:12:10.623Z</time></trkpt><trkpt lat="38.8027934" lon="16.3227908"><ele>552.0</ele><time>2026-04-19T08:12:11.612Z</time></trkpt><trkpt lat="38.8027116" lon="16.3227827"><ele>552.4</ele><time>2026-04-19T08:12:12.611Z</time></trkpt><trkpt lat="38.8026171" lon="16.3227936"><ele>552.8000000000001</ele><time>2026-04-19T08:12:13.609Z</time></trkpt><trkpt lat="38.8025192" lon="16.3228323"><ele>553.2</ele><time>2026-04-19T08:12:14.607Z</time></trkpt><trkpt lat="38.8024343" lon="16.3228774"><ele>553.6</ele><time>2026-04-19T08:12:15.613Z</time></trkpt><trkpt lat="38.8023595" lon="16.3228978"><ele>554.0</ele><time>2026-04-19T08:12:16.615Z</time></trkpt><trkpt lat="38.8022623" lon="16.3228744"><ele>554.0</ele><time>2026-04-19T08:12:17.629Z</time></trkpt><trkpt lat="38.8021674" lon="16.3228519"><ele>554.0</ele><time>2026-04-19T08:12:18.607Z</time></trkpt><trkpt lat="38.8020735" lon="16.3228434"><ele>554.0</ele><time>2026-04-19T08:12:19.623Z</time></trkpt><trkpt lat="38.8019876" lon="16.3228521"><ele>554.0</ele><time>2026-04-19T08:12:20.61Z</time></trkpt><trkpt lat="38.8019059" lon="16.3228701"><ele>554.0</ele><time>2026-04-19T08:12:21.613Z</time></trkpt><trkpt lat="38.8018203" lon="16.3228812"><ele>554.0</ele><time>2026-04-19T08:12:22.612Z</time></trkpt><trkpt lat="38.8017413" lon="16.3228921"><ele>553.0</ele><time>2026-04-19T08:12:23.616Z</time></trkpt><trkpt lat="38.8016708" lon="16.3228963"><ele>552.0</ele><time>2026-04-19T08:12:24.614Z</time></trkpt><trkpt lat="38.8015679" lon="16.3228927"><ele>551.0</ele><time>2026-04-19T08:12:26.616Z</time></trkpt><trkpt lat="38.8014917" lon="16.3229416"><ele>550.0</ele><time>2026-04-19T08:12:28.621Z</time></trkpt><trkpt lat="38.8014291" lon="16.3229985"><ele>549.0</ele><time>2026-04-19T08:12:29.611Z</time></trkpt><trkpt lat="38.8013603" lon="16.323076"><ele>548.0</ele><time>2026-04-19T08:12:30.62Z</time></trkpt><trkpt lat="38.8013188" lon="16.3231879"><ele>546.8333333333333</ele><time>2026-04-19T08:12:31.607Z</time></trkpt><trkpt lat="38.8012854" lon="16.3232866"><ele>545.6666666666666</ele><time>2026-04-19T08:12:32.615Z</time></trkpt><trkpt lat="38.8012508" lon="16.3233784"><ele>544.5</ele><time>2026-04-19T08:12:33.607Z</time></trkpt><trkpt lat="38.8012171" lon="16.3234714"><ele>543.3333333333334</ele><time>2026-04-19T08:12:34.618Z</time></trkpt><trkpt lat="38.8011626" lon="16.3235533"><ele>542.1666666666667</ele><time>2026-04-19T08:12:35.617Z</time></trkpt><trkpt lat="38.8011156" lon="16.3236504"><ele>541.0</ele><time>2026-04-19T08:12:36.608Z</time></trkpt><trkpt lat="38.801096" lon="16.3237551"><ele>541.0</ele><time>2026-04-19T08:12:37.606Z</time></trkpt><trkpt lat="38.8010741" lon="16.3238591"><ele>541.0</ele><time>2026-04-19T08:12:38.611Z</time></trkpt><trkpt lat="38.8010598" lon="16.3239692"><ele>541.0</ele><time>2026-04-19T08:12:39.608Z</time></trkpt><trkpt lat="38.8010664" lon="16.3240747"><ele>541.0</ele><time>2026-04-19T08:12:40.632Z</time></trkpt><trkpt lat="38.8010741" lon="16.3241704"><ele>541.0</ele><time>2026-04-19T08:12:41.616Z</time></trkpt><trkpt lat="38.8010822" lon="16.3242606"><ele>541.0</ele><time>2026-04-19T08:12:42.609Z</time></trkpt><trkpt lat="38.8010539" lon="16.3243618"><ele>541.4285714285714</ele><time>2026-04-19T08:12:43.613Z</time></trkpt><trkpt lat="38.8010195" lon="16.3244599"><ele>541.8571428571429</ele><time>2026-04-19T08:12:44.611Z</time></trkpt><trkpt lat="38.8009853" lon="16.3245493"><ele>542.2857142857142</ele><time>2026-04-19T08:12:45.623Z</time></trkpt><trkpt lat="38.8009492" lon="16.3246322"><ele>542.7142857142858</ele><time>2026-04-19T08:12:46.612Z</time></trkpt><trkpt lat="38.8009087" lon="16.324704"><ele>543.1428571428571</ele><time>2026-04-19T08:12:47.608Z</time></trkpt><trkpt lat="38.8008594" lon="16.3247595"><ele>543.5714285714286</ele><time>2026-04-19T08:12:48.609Z</time></trkpt><trkpt lat="38.8007971" lon="16.3248145"><ele>544.0</ele><time>2026-04-19T08:12:49.614Z</time></trkpt><trkpt lat="38.8007286" lon="16.3248735"><ele>542.1666666666667</ele><time>2026-04-19T08:12:50.613Z</time></trkpt><trkpt lat="38.8006654" lon="16.324923"><ele>540.3333333333334</ele><time>2026-04-19T08:12:51.606Z</time></trkpt><trkpt lat="38.8005967" lon="16.325001"><ele>538.5</ele><time>2026-04-19T08:12:53.628Z</time></trkpt><trkpt lat="38.8005918" lon="16.3250962"><ele>536.6666666666666</ele><time>2026-04-19T08:12:55.612Z</time></trkpt><trkpt lat="38.8005855" lon="16.3252139"><ele>534.8333333333333</ele><time>2026-04-19T08:12:57.611Z</time></trkpt><trkpt lat="38.8005915" lon="16.3253223"><ele>533.0</ele><time>2026-04-19T08:13:00.631Z</time></trkpt><trkpt lat="38.8006591" lon="16.3253839"><ele>533.0</ele><time>2026-04-19T08:13:02.55Z</time></trkpt><trkpt lat="38.8007261" lon="16.3254222"><ele>533.0</ele><time>2026-04-19T08:13:03.612Z</time></trkpt><trkpt lat="38.8007884" lon="16.3254879"><ele>533.0</ele><time>2026-04-19T08:13:04.608Z</time></trkpt><trkpt lat="38.8008284" lon="16.3255672"><ele>533.0</ele><time>2026-04-19T08:13:05.62Z</time></trkpt><trkpt lat="38.800841" lon="16.3256499"><ele>533.0</ele><time>2026-04-19T08:13:06.607Z</time></trkpt><trkpt lat="38.800854" lon="16.3257333"><ele>533.0</ele><time>2026-04-19T08:13:07.61Z</time></trkpt><trkpt lat="38.8008802" lon="16.3258296"><ele>533.0</ele><time>2026-04-19T08:13:08.608Z</time></trkpt><trkpt lat="38.8009185" lon="16.3259879"><ele>533.0</ele><time>2026-04-19T08:13:09.608Z</time></trkpt><trkpt lat="38.8009515" lon="16.326165"><ele>533.0</ele><time>2026-04-19T08:13:10.625Z</time></trkpt><trkpt lat="38.8009781" lon="16.326328"><ele>533.0</ele><time>2026-04-19T08:13:11.608Z</time></trkpt><trkpt lat="38.8009991" lon="16.3264571"><ele>533.0</ele><time>2026-04-19T08:13:12.611Z</time></trkpt><trkpt lat="38.8010201" lon="16.3265547"><ele>532.1666666666666</ele><time>2026-04-19T08:13:13.605Z</time></trkpt><trkpt lat="38.8010524" lon="16.3266486"><ele>531.3333333333333</ele><time>2026-04-19T08:13:14.613Z</time></trkpt><trkpt lat="38.8010875" lon="16.3267543"><ele>530.5</ele><time>2026-04-19T08:13:15.612Z</time></trkpt><trkpt lat="38.8011141" lon="16.3268636"><ele>529.6666666666666</ele><time>2026-04-19T08:13:16.607Z</time></trkpt><trkpt lat="38.8011374" lon="16.3269804"><ele>528.8333333333334</ele><time>2026-04-19T08:13:17.621Z</time></trkpt><trkpt lat="38.8011619" lon="16.3270933"><ele>528.0</ele><time>2026-04-19T08:13:18.615Z</time></trkpt><trkpt lat="38.801178" lon="16.3271831"><ele>526.3333333333334</ele><time>2026-04-19T08:13:19.611Z</time></trkpt><trkpt lat="38.8011964" lon="16.3273141"><ele>524.6666666666666</ele><time>2026-04-19T08:13:21.613Z</time></trkpt><trkpt lat="38.8012033" lon="16.3274001"><ele>523.0</ele><time>2026-04-19T08:13:24.622Z</time></trkpt><trkpt lat="38.8012261" lon="16.327477"><ele>521.3333333333333</ele><time>2026-04-19T08:21:01.659Z</time></trkpt><trkpt lat="38.8012593" lon="16.3275479"><ele>519.6666666666666</ele><time>2026-04-19T08:21:03.699Z</time></trkpt><trkpt lat="38.8012731" lon="16.3276636"><ele>518.0</ele><time>2026-04-19T08:21:06.612Z</time></trkpt><trkpt lat="38.8012826" lon="16.327749"><ele>518.0</ele><time>2026-04-19T08:21:10.621Z</time></trkpt><trkpt lat="38.8013092" lon="16.3278239"><ele>518.0</ele><time>2026-04-19T08:50:43.583Z</time></trkpt><trkpt lat="38.8013236" lon="16.3277419"><ele>518.0</ele><time>2026-04-19T08:54:07.584Z</time></trkpt><trkpt lat="38.8012597" lon="16.3277284"><ele>518.0</ele><time>2026-04-19T08:59:36.575Z</time></trkpt><trkpt lat="38.8012693" lon="16.3278177"><ele>518.0</ele><time>2026-04-19T09:02:56.603Z</time></trkpt><trkpt lat="38.8012856" lon="16.3279043"><ele>518.0</ele><time>2026-04-19T09:03:00.609Z</time></trkpt><trkpt lat="38.8013126" lon="16.3280072"><ele>518.0</ele><time>2026-04-19T09:03:03.607Z</time></trkpt><trkpt lat="38.8013296" lon="16.3280885"><ele>517.2857142857143</ele><time>2026-04-19T09:03:06.608Z</time></trkpt><trkpt lat="38.8013489" lon="16.3281834"><ele>516.5714285714286</ele><time>2026-04-19T09:03:10.611Z</time></trkpt><trkpt lat="38.8013635" lon="16.3282678"><ele>515.8571428571429</ele><time>2026-04-19T09:03:14.605Z</time></trkpt><trkpt lat="38.8013871" lon="16.3283472"><ele>515.1428571428571</ele><time>2026-04-19T09:03:21.624Z</time></trkpt><trkpt lat="38.8013993" lon="16.3284458"><ele>514.4285714285714</ele><time>2026-04-19T09:03:27.606Z</time></trkpt><trkpt lat="38.8014155" lon="16.3285348"><ele>513.7142857142858</ele><time>2026-04-19T09:03:30.604Z</time></trkpt><trkpt lat="38.8014353" lon="16.3286271"><ele>513.0</ele><time>2026-04-19T09:03:33.621Z</time></trkpt><trkpt lat="38.8014598" lon="16.3287059"><ele>513.0000000000001</ele><time>2026-04-19T09:03:38.607Z</time></trkpt><trkpt lat="38.8014813" lon="16.328782"><ele>513.0</ele><time>2026-04-19T09:03:43.609Z</time></trkpt><trkpt lat="38.801496" lon="16.3288875"><ele>513.0</ele><time>2026-04-19T09:05:29.618Z</time></trkpt><trkpt lat="38.8015385" lon="16.3289611"><ele>513.0</ele><time>2026-04-19T09:05:36.607Z</time></trkpt><trkpt lat="38.8015443" lon="16.3290524"><ele>513.0</ele><time>2026-04-19T09:11:54.614Z</time></trkpt><trkpt lat="38.8015668" lon="16.3291297"><ele>513.0000000000001</ele><time>2026-04-19T09:12:01.611Z</time></trkpt><trkpt lat="38.8016076" lon="16.3292046"><ele>513.0</ele><time>2026-04-19T09:12:09.612Z</time></trkpt><trkpt lat="38.8016627" lon="16.3292527"><ele>512.2857142857143</ele><time>2026-04-19T09:12:42.615Z</time></trkpt><trkpt lat="38.8016554" lon="16.3293432"><ele>511.57142857142856</ele><time>2026-04-19T09:12:50.616Z</time></trkpt><trkpt lat="38.8016705" lon="16.329454"><ele>510.8571428571429</ele><time>2026-04-19T09:13:58.579Z</time></trkpt><trkpt lat="38.8016714" lon="16.3295359"><ele>510.14285714285717</ele><time>2026-04-19T09:14:17.607Z</time></trkpt><trkpt lat="38.8016984" lon="16.3296136"><ele>509.42857142857144</ele><time>2026-04-19T09:14:26.611Z</time></trkpt><trkpt lat="38.801744" lon="16.3296888"><ele>508.7142857142857</ele><time>2026-04-19T09:15:47.605Z</time></trkpt><trkpt lat="38.8017622" lon="16.3297699"><ele>508.0</ele><time>2026-04-19T09:16:01.613Z</time></trkpt><trkpt lat="38.8017589" lon="16.3298513"><ele>507.8571428571429</ele><time>2026-04-19T09:17:48.609Z</time></trkpt><trkpt lat="38.801818" lon="16.329923"><ele>507.71428571428567</ele><time>2026-04-19T09:18:29.618Z</time></trkpt><trkpt lat="38.8018908" lon="16.3299728"><ele>507.57142857142856</ele><time>2026-04-19T09:18:58.608Z</time></trkpt><trkpt lat="38.8018501" lon="16.3300518"><ele>507.42857142857144</ele><time>2026-04-19T09:19:04.609Z</time></trkpt><trkpt lat="38.8018317" lon="16.3301356"><ele>507.28571428571433</ele><time>2026-04-19T09:19:09.611Z</time></trkpt><trkpt lat="38.8018434" lon="16.3302314"><ele>507.1428571428571</ele><time>2026-04-19T09:19:14.623Z</time></trkpt><trkpt lat="38.8018533" lon="16.3303137"><ele>507.0</ele><time>2026-04-19T09:19:20.617Z</time></trkpt><trkpt lat="38.8019044" lon="16.3302296"><ele>507.0</ele><time>2026-04-19T09:19:32.607Z</time></trkpt><trkpt lat="38.801961" lon="16.3301657"><ele>507.0</ele><time>2026-04-19T09:19:35.607Z</time></trkpt><trkpt lat="38.8020168" lon="16.3300769"><ele>507.0</ele><time>2026-04-19T09:19:37.613Z</time></trkpt><trkpt lat="38.8020974" lon="16.3299732"><ele>507.0</ele><time>2026-04-19T09:19:40.607Z</time></trkpt><trkpt lat="38.8021881" lon="16.3299213"><ele>507.0</ele><time>2026-04-19T09:19:42.606Z</time></trkpt><trkpt lat="38.8022484" lon="16.3298815"><ele>507.0</ele><time>2026-04-19T09:19:44.606Z</time></trkpt><trkpt lat="38.8023129" lon="16.329862"><ele>507.0</ele><time>2026-04-19T09:19:47.605Z</time></trkpt><trkpt lat="38.8023893" lon="16.3298424"><ele>507.0</ele><time>2026-04-19T09:19:49.603Z</time></trkpt><trkpt lat="38.8024667" lon="16.3298194"><ele>507.0</ele><time>2026-04-19T09:19:51.605Z</time></trkpt><trkpt lat="38.8025501" lon="16.3297917"><ele>507.0</ele><time>2026-04-19T09:19:53.608Z</time></trkpt><trkpt lat="38.8026425" lon="16.329777"><ele>507.0</ele><time>2026-04-19T09:19:55.603Z</time></trkpt><trkpt lat="38.8027332" lon="16.3297664"><ele>507.0</ele><time>2026-04-19T09:19:57.606Z</time></trkpt><trkpt lat="38.8028162" lon="16.3297369"><ele>509.0</ele><time>2026-04-19T09:21:13.609Z</time></trkpt><trkpt lat="38.8029282" lon="16.3296951"><ele>511.00000000000006</ele><time>2026-04-19T09:21:15.612Z</time></trkpt><trkpt lat="38.8030239" lon="16.3296457"><ele>513.0</ele><time>2026-04-19T09:21:17.615Z</time></trkpt><trkpt lat="38.8031224" lon="16.329606"><ele>515.0</ele><time>2026-04-19T09:21:19.611Z</time></trkpt><trkpt lat="38.8032261" lon="16.3295694"><ele>517.0</ele><time>2026-04-19T09:21:21.609Z</time></trkpt><trkpt lat="38.8033516" lon="16.3295383"><ele>517.0</ele><time>2026-04-19T09:21:23.605Z</time></trkpt><trkpt lat="38.8034228" lon="16.3295235"><ele>517.0</ele><time>2026-04-19T09:21:24.603Z</time></trkpt><trkpt lat="38.8035003" lon="16.3295194"><ele>517.0</ele><time>2026-04-19T09:21:25.606Z</time></trkpt><trkpt lat="38.8035736" lon="16.3295149"><ele>517.0</ele><time>2026-04-19T09:21:26.602Z</time></trkpt><trkpt lat="38.8036446" lon="16.3295148"><ele>517.0</ele><time>2026-04-19T09:21:27.607Z</time></trkpt><trkpt lat="38.8037091" lon="16.3295116"><ele>517.0</ele><time>2026-04-19T09:21:28.61Z</time></trkpt><trkpt lat="38.8037882" lon="16.3294721"><ele>517.0</ele><time>2026-04-19T09:21:30.613Z</time></trkpt><trkpt lat="38.8040377" lon="16.3294706"><ele>516.5</ele><time>2026-04-19T09:21:44.613Z</time></trkpt><trkpt lat="38.8041123" lon="16.329467"><ele>516.0</ele><time>2026-04-19T09:21:48.61Z</time></trkpt><trkpt lat="38.8041875" lon="16.3295164"><ele>515.5</ele><time>2026-04-19T09:21:51.612Z</time></trkpt><trkpt lat="38.8042273" lon="16.3295863"><ele>515.0</ele><time>2026-04-19T09:21:54.616Z</time></trkpt><trkpt lat="38.8042935" lon="16.3296675"><ele>514.5</ele><time>2026-04-19T09:21:57.615Z</time></trkpt><trkpt lat="38.8043428" lon="16.3297475"><ele>514.0</ele><time>2026-04-19T09:21:59.612Z</time></trkpt><trkpt lat="38.8043822" lon="16.329845"><ele>514.0</ele><time>2026-04-19T09:22:01.612Z</time></trkpt><trkpt lat="38.8044425" lon="16.3299568"><ele>514.0</ele><time>2026-04-19T09:22:03.624Z</time></trkpt><trkpt lat="38.8044996" lon="16.3300598"><ele>514.0</ele><time>2026-04-19T09:22:05.615Z</time></trkpt><trkpt lat="38.8045432" lon="16.3301462"><ele>514.0</ele><time>2026-04-19T09:22:07.61Z</time></trkpt><trkpt lat="38.8045854" lon="16.3302455"><ele>514.0</ele><time>2026-04-19T09:22:09.626Z</time></trkpt><trkpt lat="38.8045936" lon="16.3303786"><ele>514.0</ele><time>2026-04-19T09:22:11.61Z</time></trkpt><trkpt lat="38.8045886" lon="16.3304875"><ele>514.0</ele><time>2026-04-19T09:22:13.612Z</time></trkpt><trkpt lat="38.804572" lon="16.3305748"><ele>514.0</ele><time>2026-04-19T09:22:16.621Z</time></trkpt><trkpt lat="38.8045454" lon="16.3306843"><ele>514.0</ele><time>2026-04-19T09:22:20.613Z</time></trkpt><trkpt lat="38.8045347" lon="16.3307829"><ele>514.0</ele><time>2026-04-19T09:22:25.669Z</time></trkpt><trkpt lat="38.8045378" lon="16.3308722"><ele>514.0</ele><time>2026-04-19T09:22:29.629Z</time></trkpt><trkpt lat="38.8045605" lon="16.3309724"><ele>513.0</ele><time>2026-04-19T09:22:31.651Z</time></trkpt><trkpt lat="38.8045816" lon="16.331057"><ele>512.0</ele><time>2026-04-19T09:22:33.673Z</time></trkpt><trkpt lat="38.8045646" lon="16.3311685"><ele>511.0</ele><time>2026-04-19T09:22:35.613Z</time></trkpt><trkpt lat="38.8045418" lon="16.3312486"><ele>510.0</ele><time>2026-04-19T09:22:39.608Z</time></trkpt><trkpt lat="38.8045247" lon="16.3313317"><ele>509.00000000000006</ele><time>2026-04-19T09:22:50.616Z</time></trkpt><trkpt lat="38.8045119" lon="16.3314319"><ele>508.0</ele><time>2026-04-19T09:22:54.618Z</time></trkpt><trkpt lat="38.8044873" lon="16.3315329"><ele>506.83333333333337</ele><time>2026-04-19T09:22:58.61Z</time></trkpt><trkpt lat="38.8044615" lon="16.3316111"><ele>505.6666666666667</ele><time>2026-04-19T09:23:01.616Z</time></trkpt><trkpt lat="38.8044291" lon="16.3317246"><ele>504.5</ele><time>2026-04-19T09:23:04.615Z</time></trkpt><trkpt lat="38.8043947" lon="16.3318209"><ele>503.33333333333337</ele><time>2026-04-19T09:23:06.611Z</time></trkpt><trkpt lat="38.8043787" lon="16.3319145"><ele>502.1666666666667</ele><time>2026-04-19T09:23:12.61Z</time></trkpt><trkpt lat="38.8043679" lon="16.3320122"><ele>501.0</ele><time>2026-04-19T09:23:14.609Z</time></trkpt><trkpt lat="38.8043684" lon="16.3321325"><ele>501.0</ele><time>2026-04-19T09:23:16.61Z</time></trkpt><trkpt lat="38.8043776" lon="16.3322654"><ele>501.0</ele><time>2026-04-19T09:23:18.605Z</time></trkpt><trkpt lat="38.804359" lon="16.3323614"><ele>501.0</ele><time>2026-04-19T09:23:19.607Z</time></trkpt><trkpt lat="38.8043474" lon="16.3324529"><ele>501.0</ele><time>2026-04-19T09:23:20.607Z</time></trkpt><trkpt lat="38.8043639" lon="16.3326115"><ele>501.0</ele><time>2026-04-19T09:23:22.625Z</time></trkpt><trkpt lat="38.804386" lon="16.3326998"><ele>501.0</ele><time>2026-04-19T09:23:23.605Z</time></trkpt><trkpt lat="38.8044241" lon="16.3328163"><ele>501.0</ele><time>2026-04-19T09:23:25.609Z</time></trkpt><trkpt lat="38.8044483" lon="16.3329286"><ele>501.0</ele><time>2026-04-19T09:23:28.607Z</time></trkpt><trkpt lat="38.8044385" lon="16.3330668"><ele>501.0</ele><time>2026-04-19T09:23:30.607Z</time></trkpt><trkpt lat="38.8044221" lon="16.3332151"><ele>501.0</ele><time>2026-04-19T09:23:32.625Z</time></trkpt><trkpt lat="38.8044795" lon="16.3333431"><ele>501.6666666666667</ele><time>2026-04-19T09:23:34.611Z</time></trkpt><trkpt lat="38.8045212" lon="16.3334151"><ele>502.33333333333337</ele><time>2026-04-19T09:23:35.608Z</time></trkpt><trkpt lat="38.804563" lon="16.3334888"><ele>503.0</ele><time>2026-04-19T09:23:36.605Z</time></trkpt><trkpt lat="38.8045846" lon="16.3335647"><ele>503.6666666666667</ele><time>2026-04-19T09:23:37.61Z</time></trkpt><trkpt lat="38.8045814" lon="16.3336665"><ele>504.33333333333337</ele><time>2026-04-19T09:23:39.605Z</time></trkpt><trkpt lat="38.8045834" lon="16.3337937"><ele>505.0</ele><time>2026-04-19T09:23:42.611Z</time></trkpt><trkpt lat="38.8046027" lon="16.3339212"><ele>505.6666666666667</ele><time>2026-04-19T09:23:44.608Z</time></trkpt><trkpt lat="38.8046175" lon="16.3340755"><ele>506.33333333333337</ele><time>2026-04-19T09:23:46.604Z</time></trkpt><trkpt lat="38.8046301" lon="16.3341614"><ele>507.0</ele><time>2026-04-19T09:23:47.607Z</time></trkpt><trkpt lat="38.8046463" lon="16.3342483"><ele>507.66666666666663</ele><time>2026-04-19T09:23:48.608Z</time></trkpt><trkpt lat="38.8046748" lon="16.3343292"><ele>508.3333333333333</ele><time>2026-04-19T09:23:49.612Z</time></trkpt><trkpt lat="38.8046998" lon="16.3344543"><ele>509.0</ele><time>2026-04-19T09:23:51.608Z</time></trkpt><trkpt lat="38.8046179" lon="16.3345797"><ele>508.99999999999994</ele><time>2026-04-19T09:23:53.608Z</time></trkpt><trkpt lat="38.8045621" lon="16.3346437"><ele>509.0</ele><time>2026-04-19T09:23:54.608Z</time></trkpt><trkpt lat="38.8045141" lon="16.3347024"><ele>509.0</ele><time>2026-04-19T09:23:55.61Z</time></trkpt><trkpt lat="38.8044387" lon="16.3348349"><ele>509.0</ele><time>2026-04-19T09:23:57.611Z</time></trkpt><trkpt lat="38.8043825" lon="16.3349047"><ele>508.99999999999994</ele><time>2026-04-19T09:23:58.622Z</time></trkpt><trkpt lat="38.8043176" lon="16.3349736"><ele>509.0</ele><time>2026-04-19T09:23:59.604Z</time></trkpt><trkpt lat="38.8042646" lon="16.3350554"><ele>511.99999999999994</ele><time>2026-04-19T09:24:00.604Z</time></trkpt><trkpt lat="38.8042031" lon="16.3351199"><ele>515.0</ele><time>2026-04-19T09:24:01.61Z</time></trkpt><trkpt lat="38.8041439" lon="16.3351856"><ele>518.0</ele><time>2026-04-19T09:24:02.608Z</time></trkpt><trkpt lat="38.8040742" lon="16.335257"><ele>521.0</ele><time>2026-04-19T09:24:03.618Z</time></trkpt><trkpt lat="38.804005" lon="16.3353075"><ele>524.0</ele><time>2026-04-19T09:24:04.605Z</time></trkpt><trkpt lat="38.8039407" lon="16.3353411"><ele>527.0</ele><time>2026-04-19T09:24:05.603Z</time></trkpt><trkpt lat="38.8038835" lon="16.3353793"><ele>527.0</ele><time>2026-04-19T09:24:06.621Z</time></trkpt><trkpt lat="38.8038221" lon="16.3354119"><ele>527.0</ele><time>2026-04-19T09:24:07.617Z</time></trkpt><trkpt lat="38.8037407" lon="16.3354637"><ele>527.0</ele><time>2026-04-19T09:24:09.609Z</time></trkpt><trkpt lat="38.8036799" lon="16.3355613"><ele>527.0</ele><time>2026-04-19T09:24:11.612Z</time></trkpt><trkpt lat="38.8036452" lon="16.3356322"><ele>527.0</ele><time>2026-04-19T09:24:12.61Z</time></trkpt><trkpt lat="38.8035807" lon="16.3357046"><ele>527.0</ele><time>2026-04-19T09:24:13.616Z</time></trkpt><trkpt lat="38.803517" lon="16.3357739"><ele>531.1666666666666</ele><time>2026-04-19T09:24:14.607Z</time></trkpt><trkpt lat="38.8034548" lon="16.3358515"><ele>535.3333333333333</ele><time>2026-04-19T09:24:15.612Z</time></trkpt><trkpt lat="38.8033769" lon="16.3359282"><ele>539.5</ele><time>2026-04-19T09:24:16.613Z</time></trkpt><trkpt lat="38.8033195" lon="16.3360032"><ele>543.6666666666666</ele><time>2026-04-19T09:24:17.606Z</time></trkpt><trkpt lat="38.803259" lon="16.336083"><ele>547.8333333333334</ele><time>2026-04-19T09:24:18.609Z</time></trkpt><trkpt lat="38.8032067" lon="16.3361626"><ele>552.0</ele><time>2026-04-19T09:24:19.608Z</time></trkpt><trkpt lat="38.8031744" lon="16.3362379"><ele>552.0</ele><time>2026-04-19T09:24:20.624Z</time></trkpt><trkpt lat="38.8031505" lon="16.3363326"><ele>552.0</ele><time>2026-04-19T09:24:21.61Z</time></trkpt><trkpt lat="38.8031669" lon="16.3364383"><ele>552.0</ele><time>2026-04-19T09:24:22.623Z</time></trkpt><trkpt lat="38.8031955" lon="16.3365387"><ele>552.0</ele><time>2026-04-19T09:24:23.606Z</time></trkpt><trkpt lat="38.8032002" lon="16.3366688"><ele>552.0</ele><time>2026-04-19T09:24:24.608Z</time></trkpt><trkpt lat="38.8031705" lon="16.3367875"><ele>552.0</ele><time>2026-04-19T09:24:25.606Z</time></trkpt><trkpt lat="38.8031412" lon="16.336884"><ele>552.1666666666666</ele><time>2026-04-19T09:24:26.608Z</time></trkpt><trkpt lat="38.8031096" lon="16.3369649"><ele>552.3333333333334</ele><time>2026-04-19T09:24:27.625Z</time></trkpt><trkpt lat="38.8030678" lon="16.3371077"><ele>552.5</ele><time>2026-04-19T09:24:29.611Z</time></trkpt><trkpt lat="38.8030325" lon="16.3371764"><ele>552.6666666666667</ele><time>2026-04-19T09:24:30.605Z</time></trkpt><trkpt lat="38.8029884" lon="16.3372591"><ele>552.8333333333334</ele><time>2026-04-19T09:24:31.608Z</time></trkpt><trkpt lat="38.8029456" lon="16.3373459"><ele>553.0</ele><time>2026-04-19T09:24:32.624Z</time></trkpt><trkpt lat="38.8029167" lon="16.337418"><ele>553.0</ele><time>2026-04-19T09:24:33.604Z</time></trkpt><trkpt lat="38.8028474" lon="16.337556"><ele>553.0</ele><time>2026-04-19T09:24:35.604Z</time></trkpt><trkpt lat="38.8028145" lon="16.3376355"><ele>553.0</ele><time>2026-04-19T09:24:36.61Z</time></trkpt><trkpt lat="38.8027955" lon="16.3377166"><ele>553.0</ele><time>2026-04-19T09:24:37.618Z</time></trkpt><trkpt lat="38.8027796" lon="16.3378328"><ele>553.0</ele><time>2026-04-19T09:24:39.606Z</time></trkpt><trkpt lat="38.8027857" lon="16.3379256"><ele>553.0</ele><time>2026-04-19T09:24:42.614Z</time></trkpt><trkpt lat="38.8027781" lon="16.3380259"><ele>552.75</ele><time>2026-04-19T09:24:44.609Z</time></trkpt><trkpt lat="38.8027945" lon="16.3382618"><ele>552.5</ele><time>2026-04-19T09:24:47.607Z</time></trkpt><trkpt lat="38.8028215" lon="16.3384071"><ele>552.25</ele><time>2026-04-19T09:24:48.611Z</time></trkpt><trkpt lat="38.8028498" lon="16.3385313"><ele>552.0</ele><time>2026-04-19T09:24:49.608Z</time></trkpt><trkpt lat="38.8028954" lon="16.3386364"><ele>552.0</ele><time>2026-04-19T09:24:50.632Z</time></trkpt><trkpt lat="38.8029468" lon="16.3387303"><ele>552.0</ele><time>2026-04-19T09:24:51.61Z</time></trkpt><trkpt lat="38.8029931" lon="16.3388123"><ele>552.0</ele><time>2026-04-19T09:24:52.608Z</time></trkpt><trkpt lat="38.8030438" lon="16.3389085"><ele>552.0</ele><time>2026-04-19T09:24:53.608Z</time></trkpt><trkpt lat="38.8030853" lon="16.338989"><ele>552.0</ele><time>2026-04-19T09:24:54.608Z</time></trkpt><trkpt lat="38.8031205" lon="16.3390628"><ele>552.0</ele><time>2026-04-19T09:24:55.612Z</time></trkpt><trkpt lat="38.8031831" lon="16.3391917"><ele>550.2</ele><time>2026-04-19T09:24:57.605Z</time></trkpt><trkpt lat="38.8032379" lon="16.3393125"><ele>548.4000000000001</ele><time>2026-04-19T09:24:59.606Z</time></trkpt><trkpt lat="38.8033035" lon="16.3394237"><ele>546.5999999999999</ele><time>2026-04-19T09:25:01.608Z</time></trkpt><trkpt lat="38.803362" lon="16.3394945"><ele>544.8</ele><time>2026-04-19T09:25:02.615Z</time></trkpt><trkpt lat="38.8034384" lon="16.3395719"><ele>543.0</ele><time>2026-04-19T09:25:03.64Z</time></trkpt><trkpt lat="38.803504" lon="16.3396471"><ele>544.8333333333334</ele><time>2026-04-19T09:25:04.609Z</time></trkpt><trkpt lat="38.8035652" lon="16.3397538"><ele>546.6666666666666</ele><time>2026-04-19T09:25:06.607Z</time></trkpt><trkpt lat="38.8036236" lon="16.3398377"><ele>548.5</ele><time>2026-04-19T09:25:09.609Z</time></trkpt><trkpt lat="38.8036683" lon="16.3399063"><ele>550.3333333333333</ele><time>2026-04-19T09:25:11.611Z</time></trkpt><trkpt lat="38.8037044" lon="16.339991"><ele>552.1666666666666</ele><time>2026-04-19T09:25:13.61Z</time></trkpt><trkpt lat="38.8037445" lon="16.3400746"><ele>554.0</ele><time>2026-04-19T09:25:15.609Z</time></trkpt><trkpt lat="38.8037736" lon="16.3401617"><ele>554.0</ele><time>2026-04-19T09:25:19.619Z</time></trkpt><trkpt lat="38.8037829" lon="16.3402569"><ele>554.0</ele><time>2026-04-19T09:25:24.62Z</time></trkpt><trkpt lat="38.8037718" lon="16.3403619"><ele>554.0</ele><time>2026-04-19T09:25:28.614Z</time></trkpt><trkpt lat="38.8037496" lon="16.3404486"><ele>554.0</ele><time>2026-04-19T09:25:30.614Z</time></trkpt><trkpt lat="38.8037123" lon="16.3405431"><ele>554.0</ele><time>2026-04-19T09:25:32.612Z</time></trkpt><trkpt lat="38.8037288" lon="16.3406413"><ele>554.0</ele><time>2026-04-19T09:25:35.607Z</time></trkpt><trkpt lat="38.8038215" lon="16.3406437"><ele>554.0</ele><time>2026-04-19T09:25:37.604Z</time></trkpt><trkpt lat="38.8039129" lon="16.340586"><ele>554.0</ele><time>2026-04-19T09:25:39.618Z</time></trkpt><trkpt lat="38.8040265" lon="16.3405072"><ele>554.0</ele><time>2026-04-19T09:25:41.618Z</time></trkpt><trkpt lat="38.8041112" lon="16.3405159"><ele>554.0</ele><time>2026-04-19T09:25:42.606Z</time></trkpt><trkpt lat="38.8042111" lon="16.3405088"><ele>554.0</ele><time>2026-04-19T09:25:43.608Z</time></trkpt><trkpt lat="38.8043132" lon="16.3404827"><ele>552.4</ele><time>2026-04-19T09:25:44.608Z</time></trkpt><trkpt lat="38.8044132" lon="16.3404604"><ele>550.8</ele><time>2026-04-19T09:25:45.608Z</time></trkpt><trkpt lat="38.8045007" lon="16.3404472"><ele>549.2</ele><time>2026-04-19T09:25:46.608Z</time></trkpt><trkpt lat="38.8045763" lon="16.3404422"><ele>547.6</ele><time>2026-04-19T09:25:47.608Z</time></trkpt><trkpt lat="38.8046829" lon="16.3404611"><ele>546.0</ele><time>2026-04-19T09:25:49.607Z</time></trkpt><trkpt lat="38.8047903" lon="16.3404937"><ele>546.0</ele><time>2026-04-19T09:25:51.607Z</time></trkpt><trkpt lat="38.8048577" lon="16.3405376"><ele>546.0</ele><time>2026-04-19T09:25:52.607Z</time></trkpt><trkpt lat="38.8049238" lon="16.3405995"><ele>546.0</ele><time>2026-04-19T09:25:53.615Z</time></trkpt><trkpt lat="38.8049708" lon="16.3406714"><ele>546.0</ele><time>2026-04-19T09:25:54.611Z</time></trkpt><trkpt lat="38.8050054" lon="16.3407519"><ele>546.0</ele><time>2026-04-19T09:25:55.608Z</time></trkpt><trkpt lat="38.805037" lon="16.3408519"><ele>546.0</ele><time>2026-04-19T09:25:58.611Z</time></trkpt><trkpt lat="38.8050167" lon="16.3409554"><ele>548.8</ele><time>2026-04-19T09:26:01.607Z</time></trkpt><trkpt lat="38.8049537" lon="16.3409724"><ele>551.6</ele><time>2026-04-19T09:26:02.615Z</time></trkpt><trkpt lat="38.8048666" lon="16.3409705"><ele>554.4</ele><time>2026-04-19T09:26:03.613Z</time></trkpt><trkpt lat="38.8047557" lon="16.3409598"><ele>557.2</ele><time>2026-04-19T09:26:04.614Z</time></trkpt><trkpt lat="38.8046685" lon="16.3409649"><ele>560.0</ele><time>2026-04-19T09:26:05.617Z</time></trkpt><trkpt lat="38.8045703" lon="16.3410219"><ele>560.0</ele><time>2026-04-19T09:26:07.613Z</time></trkpt><trkpt lat="38.8045406" lon="16.3411098"><ele>560.0</ele><time>2026-04-19T09:26:08.606Z</time></trkpt><trkpt lat="38.8045136" lon="16.3412275"><ele>560.0</ele><time>2026-04-19T09:26:09.625Z</time></trkpt><trkpt lat="38.8044776" lon="16.3413482"><ele>560.0</ele><time>2026-04-19T09:26:10.613Z</time></trkpt><trkpt lat="38.8044469" lon="16.3414576"><ele>560.0</ele><time>2026-04-19T09:26:11.621Z</time></trkpt><trkpt lat="38.8044049" lon="16.34158"><ele>562.1666666666666</ele><time>2026-04-19T09:26:12.614Z</time></trkpt><trkpt lat="38.8043597" lon="16.3416686"><ele>564.3333333333333</ele><time>2026-04-19T09:26:13.608Z</time></trkpt><trkpt lat="38.8042994" lon="16.3417283"><ele>566.5</ele><time>2026-04-19T09:26:14.609Z</time></trkpt><trkpt lat="38.8042389" lon="16.341777"><ele>568.6666666666666</ele><time>2026-04-19T09:26:15.609Z</time></trkpt><trkpt lat="38.8041543" lon="16.3418447"><ele>570.8333333333334</ele><time>2026-04-19T09:26:16.605Z</time></trkpt><trkpt lat="38.8040889" lon="16.3419076"><ele>573.0</ele><time>2026-04-19T09:26:17.625Z</time></trkpt><trkpt lat="38.8040331" lon="16.3419627"><ele>575.0</ele><time>2026-04-19T09:26:18.606Z</time></trkpt><trkpt lat="38.8039839" lon="16.342034"><ele>577.0</ele><time>2026-04-19T09:26:19.606Z</time></trkpt><trkpt lat="38.8039421" lon="16.3421299"><ele>579.0</ele><time>2026-04-19T09:26:20.608Z</time></trkpt><trkpt lat="38.803928" lon="16.3422269"><ele>581.0</ele><time>2026-04-19T09:26:21.603Z</time></trkpt><trkpt lat="38.8039064" lon="16.3423525"><ele>583.0</ele><time>2026-04-19T09:26:23.606Z</time></trkpt><trkpt lat="38.8038831" lon="16.3424476"><ele>585.0</ele><time>2026-04-19T09:26:26.607Z</time></trkpt><trkpt lat="38.8038599" lon="16.3425331"><ele>587.8333333333334</ele><time>2026-04-19T09:26:28.615Z</time></trkpt><trkpt lat="38.8038346" lon="16.3426356"><ele>590.6666666666666</ele><time>2026-04-19T09:26:31.608Z</time></trkpt><trkpt lat="38.8037968" lon="16.3427076"><ele>593.5</ele><time>2026-04-19T09:27:04.611Z</time></trkpt><trkpt lat="38.8037872" lon="16.3428204"><ele>596.3333333333333</ele><time>2026-04-19T09:29:40.607Z</time></trkpt><trkpt lat="38.8037745" lon="16.3429133"><ele>599.1666666666666</ele><time>2026-04-19T09:29:42.61Z</time></trkpt><trkpt lat="38.8037493" lon="16.3430382"><ele>602.0</ele><time>2026-04-19T09:29:45.618Z</time></trkpt><trkpt lat="38.8037136" lon="16.3431552"><ele>603.8000000000001</ele><time>2026-04-19T09:29:47.617Z</time></trkpt><trkpt lat="38.8036785" lon="16.3432257"><ele>605.6</ele><time>2026-04-19T09:29:48.61Z</time></trkpt><trkpt lat="38.803632" lon="16.3433108"><ele>607.4000000000001</ele><time>2026-04-19T09:29:49.612Z</time></trkpt><trkpt lat="38.8035641" lon="16.3434106"><ele>609.2</ele><time>2026-04-19T09:29:50.608Z</time></trkpt><trkpt lat="38.8034721" lon="16.3435215"><ele>611.0</ele><time>2026-04-19T09:29:51.609Z</time></trkpt><trkpt lat="38.8033858" lon="16.3436174"><ele>612.4</ele><time>2026-04-19T09:29:52.605Z</time></trkpt><trkpt lat="38.8033095" lon="16.3436997"><ele>613.8</ele><time>2026-04-19T09:29:53.606Z</time></trkpt><trkpt lat="38.8032407" lon="16.3437905"><ele>615.1999999999999</ele><time>2026-04-19T09:29:54.615Z</time></trkpt><trkpt lat="38.8031718" lon="16.3438773"><ele>616.6</ele><time>2026-04-19T09:29:55.611Z</time></trkpt><trkpt lat="38.8031137" lon="16.3439661"><ele>618.0</ele><time>2026-04-19T09:29:56.622Z</time></trkpt><trkpt lat="38.8030568" lon="16.3440714"><ele>621.4</ele><time>2026-04-19T09:29:57.608Z</time></trkpt><trkpt lat="38.8029997" lon="16.3441678"><ele>624.8</ele><time>2026-04-19T09:29:58.608Z</time></trkpt><trkpt lat="38.8029436" lon="16.3442625"><ele>628.2</ele><time>2026-04-19T09:29:59.603Z</time></trkpt><trkpt lat="38.8028818" lon="16.3443461"><ele>631.6</ele><time>2026-04-19T09:30:00.613Z</time></trkpt><trkpt lat="38.8028053" lon="16.3444327"><ele>635.0</ele><time>2026-04-19T09:30:01.61Z</time></trkpt><trkpt lat="38.8027462" lon="16.3445286"><ele>635.0</ele><time>2026-04-19T09:30:02.602Z</time></trkpt><trkpt lat="38.8026927" lon="16.3446202"><ele>635.0</ele><time>2026-04-19T09:30:03.607Z</time></trkpt><trkpt lat="38.8026657" lon="16.3447312"><ele>635.0</ele><time>2026-04-19T09:30:04.61Z</time></trkpt><trkpt lat="38.8026601" lon="16.3448687"><ele>635.0</ele><time>2026-04-19T09:30:05.607Z</time></trkpt><trkpt lat="38.8026584" lon="16.3450135"><ele>635.0</ele><time>2026-04-19T09:30:06.606Z</time></trkpt><trkpt lat="38.8026858" lon="16.3451238"><ele>636.6</ele><time>2026-04-19T09:30:07.608Z</time></trkpt><trkpt lat="38.8027532" lon="16.3452383"><ele>638.2</ele><time>2026-04-19T09:30:08.609Z</time></trkpt><trkpt lat="38.8028232" lon="16.3453459"><ele>639.8</ele><time>2026-04-19T09:30:09.609Z</time></trkpt><trkpt lat="38.8028696" lon="16.3454259"><ele>641.4</ele><time>2026-04-19T09:30:10.607Z</time></trkpt><trkpt lat="38.8028937" lon="16.3455913"><ele>643.0</ele><time>2026-04-19T09:30:12.606Z</time></trkpt><trkpt lat="38.8028085" lon="16.3456813"><ele>646.0</ele><time>2026-04-19T09:30:14.607Z</time></trkpt><trkpt lat="38.8027183" lon="16.3458268"><ele>649.0</ele><time>2026-04-19T09:30:16.607Z</time></trkpt><trkpt lat="38.8026674" lon="16.345959"><ele>652.0</ele><time>2026-04-19T09:30:17.61Z</time></trkpt><trkpt lat="38.802611" lon="16.3460975"><ele>655.0</ele><time>2026-04-19T09:30:18.612Z</time></trkpt><trkpt lat="38.8025631" lon="16.3462057"><ele>657.3333333333334</ele><time>2026-04-19T09:30:19.604Z</time></trkpt><trkpt lat="38.8025173" lon="16.3463055"><ele>659.6666666666667</ele><time>2026-04-19T09:30:20.613Z</time></trkpt><trkpt lat="38.8024715" lon="16.3464"><ele>662.0</ele><time>2026-04-19T09:30:21.605Z</time></trkpt><trkpt lat="38.8024281" lon="16.3464928"><ele>664.3333333333334</ele><time>2026-04-19T09:30:22.62Z</time></trkpt><trkpt lat="38.8023821" lon="16.3465739"><ele>666.6666666666666</ele><time>2026-04-19T09:30:23.609Z</time></trkpt><trkpt lat="38.802348" lon="16.3466499"><ele>669.0</ele><time>2026-04-19T09:30:24.609Z</time></trkpt><trkpt lat="38.8022988" lon="16.3467474"><ele>671.2</ele><time>2026-04-19T09:30:26.609Z</time></trkpt><trkpt lat="38.802249" lon="16.3468502"><ele>673.4000000000001</ele><time>2026-04-19T09:30:28.612Z</time></trkpt><trkpt lat="38.8022144" lon="16.3469328"><ele>675.6</ele><time>2026-04-19T09:30:29.611Z</time></trkpt><trkpt lat="38.8021587" lon="16.3470449"><ele>677.8</ele><time>2026-04-19T09:30:30.607Z</time></trkpt><trkpt lat="38.8020986" lon="16.3471703"><ele>680.0</ele><time>2026-04-19T09:30:31.606Z</time></trkpt><trkpt lat="38.8020312" lon="16.3473099"><ele>680.2</ele><time>2026-04-19T09:30:32.606Z</time></trkpt><trkpt lat="38.8019576" lon="16.3474499"><ele>680.4</ele><time>2026-04-19T09:30:33.606Z</time></trkpt><trkpt lat="38.8018866" lon="16.3475713"><ele>680.5999999999999</ele><time>2026-04-19T09:30:34.616Z</time></trkpt><trkpt lat="38.8018247" lon="16.3476749"><ele>680.8</ele><time>2026-04-19T09:30:35.617Z</time></trkpt><trkpt lat="38.8017702" lon="16.3477696"><ele>681.0</ele><time>2026-04-19T09:30:36.605Z</time></trkpt><trkpt lat="38.8017226" lon="16.3478647"><ele>682.6666666666666</ele><time>2026-04-19T09:30:37.613Z</time></trkpt><trkpt lat="38.8016801" lon="16.3479672"><ele>684.3333333333334</ele><time>2026-04-19T09:30:38.612Z</time></trkpt><trkpt lat="38.8016405" lon="16.3480655"><ele>686.0</ele><time>2026-04-19T09:30:39.626Z</time></trkpt><trkpt lat="38.8016034" lon="16.3481605"><ele>687.6666666666667</ele><time>2026-04-19T09:30:40.611Z</time></trkpt><trkpt lat="38.8015646" lon="16.3482547"><ele>689.3333333333334</ele><time>2026-04-19T09:30:41.608Z</time></trkpt><trkpt lat="38.8015224" lon="16.3483611"><ele>691.0</ele><time>2026-04-19T09:30:43.612Z</time></trkpt><trkpt lat="38.8014842" lon="16.3484345"><ele>692.25</ele><time>2026-04-19T09:30:48.61Z</time></trkpt><trkpt lat="38.8014268" lon="16.3485668"><ele>693.5</ele><time>2026-04-19T09:30:50.608Z</time></trkpt><trkpt lat="38.8013958" lon="16.3486584"><ele>694.75</ele><time>2026-04-19T09:30:51.608Z</time></trkpt><trkpt lat="38.8013989" lon="16.3488199"><ele>696.0</ele><time>2026-04-19T09:30:52.617Z</time></trkpt><trkpt lat="38.801411" lon="16.349009"><ele>698.0</ele><time>2026-04-19T09:30:53.618Z</time></trkpt><trkpt lat="38.8014302" lon="16.3492159"><ele>700.0</ele><time>2026-04-19T09:30:54.61Z</time></trkpt><trkpt lat="38.8014486" lon="16.3494021"><ele>702.0</ele><time>2026-04-19T09:30:55.609Z</time></trkpt><trkpt lat="38.8014779" lon="16.3495525"><ele>704.0</ele><time>2026-04-19T09:30:56.61Z</time></trkpt><trkpt lat="38.8015263" lon="16.3496659"><ele>704.8000000000001</ele><time>2026-04-19T09:30:57.61Z</time></trkpt><trkpt lat="38.8015762" lon="16.3497685"><ele>705.6</ele><time>2026-04-19T09:30:58.604Z</time></trkpt><trkpt lat="38.8016723" lon="16.3498403"><ele>706.4</ele><time>2026-04-19T09:30:59.618Z</time></trkpt><trkpt lat="38.8017935" lon="16.3498813"><ele>707.2</ele><time>2026-04-19T09:31:00.607Z</time></trkpt><trkpt lat="38.8018913" lon="16.3498967"><ele>708.0</ele><time>2026-04-19T09:31:01.605Z</time></trkpt><trkpt lat="38.8019648" lon="16.349923"><ele>708.0</ele><time>2026-04-19T09:31:02.608Z</time></trkpt><trkpt lat="38.8020488" lon="16.3500144"><ele>708.0</ele><time>2026-04-19T09:31:04.606Z</time></trkpt><trkpt lat="38.8020888" lon="16.350077"><ele>708.0</ele><time>2026-04-19T09:31:05.609Z</time></trkpt><trkpt lat="38.8020863" lon="16.3501784"><ele>708.0</ele><time>2026-04-19T09:31:06.616Z</time></trkpt><trkpt lat="38.8020624" lon="16.3502903"><ele>708.0</ele><time>2026-04-19T09:31:07.607Z</time></trkpt><trkpt lat="38.8020384" lon="16.3504166"><ele>708.0</ele><time>2026-04-19T09:31:09.613Z</time></trkpt><trkpt lat="38.8020101" lon="16.3505161"><ele>708.8333333333334</ele><time>2026-04-19T09:31:12.612Z</time></trkpt><trkpt lat="38.8019987" lon="16.3506059"><ele>709.6666666666666</ele><time>2026-04-19T09:31:13.609Z</time></trkpt><trkpt lat="38.8019667" lon="16.3507386"><ele>710.5</ele><time>2026-04-19T09:31:15.604Z</time></trkpt><trkpt lat="38.8019317" lon="16.3508172"><ele>711.3333333333333</ele><time>2026-04-19T09:31:17.612Z</time></trkpt><trkpt lat="38.8019034" lon="16.3508984"><ele>712.1666666666666</ele><time>2026-04-19T09:31:20.603Z</time></trkpt><trkpt lat="38.8018778" lon="16.3509769"><ele>713.0</ele><time>2026-04-19T09:31:23.612Z</time></trkpt><trkpt lat="38.8018594" lon="16.3510641"><ele>713.0</ele><time>2026-04-19T09:31:26.607Z</time></trkpt><trkpt lat="38.8018417" lon="16.3511485"><ele>713.0</ele><time>2026-04-19T09:31:29.622Z</time></trkpt><trkpt lat="38.8018215" lon="16.3512564"><ele>713.0</ele><time>2026-04-19T09:31:32.608Z</time></trkpt><trkpt lat="38.8018026" lon="16.3513584"><ele>713.0</ele><time>2026-04-19T09:31:35.607Z</time></trkpt><trkpt lat="38.8017759" lon="16.3514608"><ele>713.0</ele><time>2026-04-19T09:31:38.61Z</time></trkpt><trkpt lat="38.8017288" lon="16.351566"><ele>713.0</ele><time>2026-04-19T09:31:40.608Z</time></trkpt><trkpt lat="38.8016882" lon="16.351689"><ele>716.2</ele><time>2026-04-19T09:31:42.61Z</time></trkpt><trkpt lat="38.8016464" lon="16.3518279"><ele>719.4</ele><time>2026-04-19T09:31:44.629Z</time></trkpt><trkpt lat="38.8016212" lon="16.3519539"><ele>722.6</ele><time>2026-04-19T09:31:46.614Z</time></trkpt><trkpt lat="38.8016004" lon="16.3520665"><ele>725.8000000000001</ele><time>2026-04-19T09:31:48.611Z</time></trkpt><trkpt lat="38.8015754" lon="16.3521737"><ele>729.0</ele><time>2026-04-19T09:32:10.621Z</time></trkpt><trkpt lat="38.8015529" lon="16.3522682"><ele>730.0</ele><time>2026-04-19T09:32:15.613Z</time></trkpt><trkpt lat="38.8015326" lon="16.3523539"><ele>731.0</ele><time>2026-04-19T09:33:43.609Z</time></trkpt><trkpt lat="38.801506" lon="16.352442"><ele>732.0</ele><time>2026-04-19T09:33:48.614Z</time></trkpt><trkpt lat="38.8014639" lon="16.3525274"><ele>733.0</ele><time>2026-04-19T09:34:01.609Z</time></trkpt><trkpt lat="38.8014124" lon="16.3525917"><ele>734.0</ele><time>2026-04-19T09:34:07.609Z</time></trkpt><trkpt lat="38.8013639" lon="16.352648"><ele>735.0</ele><time>2026-04-19T09:34:11.631Z</time></trkpt><trkpt lat="38.8013169" lon="16.3527118"><ele>736.0</ele><time>2026-04-19T09:34:16.616Z</time></trkpt><trkpt lat="38.8012777" lon="16.3527837"><ele>736.0</ele><time>2026-04-19T09:34:21.607Z</time></trkpt><trkpt lat="38.8012351" lon="16.352868"><ele>736.0</ele><time>2026-04-19T09:34:26.609Z</time></trkpt><trkpt lat="38.8011981" lon="16.3529349"><ele>736.0</ele><time>2026-04-19T09:34:29.608Z</time></trkpt><trkpt lat="38.8011637" lon="16.3530096"><ele>736.0</ele><time>2026-04-19T09:34:31.611Z</time></trkpt><trkpt lat="38.8011159" lon="16.3531016"><ele>736.0</ele><time>2026-04-19T09:34:34.61Z</time></trkpt><trkpt lat="38.8010536" lon="16.3532166"><ele>736.0</ele><time>2026-04-19T09:34:37.526Z</time></trkpt><trkpt lat="38.8009964" lon="16.3533175"><ele>740.0</ele><time>2026-04-19T09:34:39.685Z</time></trkpt><trkpt lat="38.8009205" lon="16.3534024"><ele>744.0</ele><time>2026-04-19T09:34:41.622Z</time></trkpt><trkpt lat="38.8008467" lon="16.3534855"><ele>748.0</ele><time>2026-04-19T09:34:43.61Z</time></trkpt><trkpt lat="38.8007773" lon="16.3535817"><ele>752.0</ele><time>2026-04-19T09:34:45.619Z</time></trkpt><trkpt lat="38.8007189" lon="16.3536677"><ele>756.0</ele><time>2026-04-19T09:34:47.618Z</time></trkpt><trkpt lat="38.8006706" lon="16.353764"><ele>756.0</ele><time>2026-04-19T09:34:50.623Z</time></trkpt><trkpt lat="38.8006219" lon="16.353826"><ele>756.0</ele><time>2026-04-19T09:34:52.613Z</time></trkpt><trkpt lat="38.8005727" lon="16.3539065"><ele>756.0</ele><time>2026-04-19T09:34:54.615Z</time></trkpt><trkpt lat="38.8005346" lon="16.3539855"><ele>756.0</ele><time>2026-04-19T09:34:56.624Z</time></trkpt><trkpt lat="38.8004954" lon="16.354066"><ele>756.0</ele><time>2026-04-19T09:34:58.62Z</time></trkpt><trkpt lat="38.8004465" lon="16.354167"><ele>756.0</ele><time>2026-04-19T09:35:01.611Z</time></trkpt><trkpt lat="38.800417" lon="16.3542645"><ele>758.0</ele><time>2026-04-19T09:35:04.618Z</time></trkpt><trkpt lat="38.8003767" lon="16.3543764"><ele>760.0</ele><time>2026-04-19T09:35:07.615Z</time></trkpt><trkpt lat="38.8003295" lon="16.3544622"><ele>762.0</ele><time>2026-04-19T09:35:09.608Z</time></trkpt><trkpt lat="38.800262" lon="16.3545668"><ele>764.0</ele><time>2026-04-19T09:35:11.616Z</time></trkpt><trkpt lat="38.8001835" lon="16.3546667"><ele>766.0</ele><time>2026-04-19T09:35:13.622Z</time></trkpt><trkpt lat="38.8001277" lon="16.3547476"><ele>768.6666666666667</ele><time>2026-04-19T09:35:15.608Z</time></trkpt><trkpt lat="38.800071" lon="16.3548368"><ele>771.3333333333334</ele><time>2026-04-19T09:35:17.611Z</time></trkpt><trkpt lat="38.8000198" lon="16.3549085"><ele>774.0</ele><time>2026-04-19T09:35:19.611Z</time></trkpt><trkpt lat="38.7999611" lon="16.3549969"><ele>776.6666666666667</ele><time>2026-04-19T09:35:30.612Z</time></trkpt><trkpt lat="38.7999084" lon="16.3550611"><ele>779.3333333333334</ele><time>2026-04-19T09:35:32.617Z</time></trkpt><trkpt lat="38.7998583" lon="16.3551207"><ele>782.0</ele><time>2026-04-19T09:35:36.612Z</time></trkpt><trkpt lat="38.7997996" lon="16.3551575"><ele>782.0000000000001</ele><time>2026-04-19T09:35:41.62Z</time></trkpt><trkpt lat="38.7997324" lon="16.3552153"><ele>782.0</ele><time>2026-04-19T09:35:44.604Z</time></trkpt><trkpt lat="38.799665" lon="16.3552726"><ele>782.0</ele><time>2026-04-19T09:35:47.607Z</time></trkpt><trkpt lat="38.7996098" lon="16.3553383"><ele>782.0</ele><time>2026-04-19T09:35:51.607Z</time></trkpt><trkpt lat="38.7995463" lon="16.3553902"><ele>782.0000000000001</ele><time>2026-04-19T09:35:56.607Z</time></trkpt><trkpt lat="38.7994853" lon="16.3554489"><ele>782.0</ele><time>2026-04-19T09:36:00.603Z</time></trkpt><trkpt lat="38.7994356" lon="16.3555009"><ele>783.6666666666667</ele><time>2026-04-19T09:36:04.608Z</time></trkpt><trkpt lat="38.7993301" lon="16.3556092"><ele>785.3333333333334</ele><time>2026-04-19T09:36:25.614Z</time></trkpt><trkpt lat="38.7992712" lon="16.3556797"><ele>787.0</ele><time>2026-04-19T09:36:28.619Z</time></trkpt><trkpt lat="38.799219" lon="16.3557512"><ele>788.6666666666667</ele><time>2026-04-19T09:36:31.611Z</time></trkpt><trkpt lat="38.7991698" lon="16.3558204"><ele>790.3333333333334</ele><time>2026-04-19T09:36:35.616Z</time></trkpt><trkpt lat="38.799119" lon="16.3558889"><ele>792.0</ele><time>2026-04-19T09:36:39.614Z</time></trkpt><trkpt lat="38.7990632" lon="16.3559873"><ele>792.0</ele><time>2026-04-19T09:36:43.608Z</time></trkpt><trkpt lat="38.799023" lon="16.3560708"><ele>792.0</ele><time>2026-04-19T09:36:45.612Z</time></trkpt><trkpt lat="38.7989788" lon="16.3561385"><ele>792.0</ele><time>2026-04-19T09:36:47.617Z</time></trkpt><trkpt lat="38.7989111" lon="16.3561745"><ele>792.0</ele><time>2026-04-19T09:37:04.608Z</time></trkpt><trkpt lat="38.7988745" lon="16.356098"><ele>792.0</ele><time>2026-04-19T09:37:06.61Z</time></trkpt><trkpt lat="38.7988342" lon="16.3559966"><ele>792.0</ele><time>2026-04-19T09:37:08.61Z</time></trkpt><trkpt lat="38.798796" lon="16.3559217"><ele>792.0</ele><time>2026-04-19T09:37:09.61Z</time></trkpt><trkpt lat="38.7987537" lon="16.3558576"><ele>792.0</ele><time>2026-04-19T09:37:10.611Z</time></trkpt><trkpt lat="38.7986623" lon="16.3558106"><ele>792.0</ele><time>2026-04-19T09:37:12.608Z</time></trkpt><trkpt lat="38.7985745" lon="16.3558632"><ele>792.0</ele><time>2026-04-19T09:37:14.608Z</time></trkpt><trkpt lat="38.7984973" lon="16.3559393"><ele>792.0</ele><time>2026-04-19T09:37:16.607Z</time></trkpt><trkpt lat="38.7984138" lon="16.3559861"><ele>792.0</ele><time>2026-04-19T09:37:19.615Z</time></trkpt><trkpt lat="38.7983393" lon="16.3560301"><ele>792.6666666666666</ele><time>2026-04-19T09:37:22.608Z</time></trkpt><trkpt lat="38.7982692" lon="16.3560556"><ele>793.3333333333333</ele><time>2026-04-19T09:37:24.604Z</time></trkpt><trkpt lat="38.7981951" lon="16.3560844"><ele>794.0</ele><time>2026-04-19T09:37:26.605Z</time></trkpt><trkpt lat="38.7980967" lon="16.3561365"><ele>794.6666666666666</ele><time>2026-04-19T09:37:28.604Z</time></trkpt><trkpt lat="38.7980078" lon="16.3562092"><ele>795.3333333333333</ele><time>2026-04-19T09:37:30.615Z</time></trkpt><trkpt lat="38.7979501" lon="16.3562711"><ele>796.0</ele><time>2026-04-19T09:37:32.608Z</time></trkpt><trkpt lat="38.7978861" lon="16.3563438"><ele>796.2857142857142</ele><time>2026-04-19T09:37:34.607Z</time></trkpt><trkpt lat="38.7978297" lon="16.3564018"><ele>796.5714285714286</ele><time>2026-04-19T09:37:37.619Z</time></trkpt><trkpt lat="38.7977809" lon="16.3564693"><ele>796.8571428571429</ele><time>2026-04-19T09:37:42.609Z</time></trkpt><trkpt lat="38.7977346" lon="16.3565352"><ele>797.1428571428571</ele><time>2026-04-19T09:37:49.609Z</time></trkpt><trkpt lat="38.7976871" lon="16.3565968"><ele>797.4285714285714</ele><time>2026-04-19T09:37:55.613Z</time></trkpt><trkpt lat="38.7976063" lon="16.356586"><ele>797.7142857142857</ele><time>2026-04-19T09:38:01.61Z</time></trkpt><trkpt lat="38.7975475" lon="16.356551"><ele>798.0</ele><time>2026-04-19T09:38:04.606Z</time></trkpt><trkpt lat="38.7974828" lon="16.3565094"><ele>798.6666666666666</ele><time>2026-04-19T09:38:06.603Z</time></trkpt><trkpt lat="38.7974172" lon="16.3564714"><ele>799.3333333333333</ele><time>2026-04-19T09:38:08.604Z</time></trkpt><trkpt lat="38.7973399" lon="16.3564459"><ele>800.0</ele><time>2026-04-19T09:38:10.615Z</time></trkpt><trkpt lat="38.7972615" lon="16.3564541"><ele>800.6666666666666</ele><time>2026-04-19T09:38:12.606Z</time></trkpt><trkpt lat="38.7972237" lon="16.3565282"><ele>801.3333333333333</ele><time>2026-04-19T09:38:14.606Z</time></trkpt><trkpt lat="38.7972" lon="16.3566088"><ele>802.0</ele><time>2026-04-19T09:38:23.607Z</time></trkpt><trkpt lat="38.7971835" lon="16.356718"><ele>801.9999999999999</ele><time>2026-04-19T09:38:29.608Z</time></trkpt><trkpt lat="38.7971796" lon="16.3568159"><ele>802.0</ele><time>2026-04-19T09:38:31.609Z</time></trkpt><trkpt lat="38.7971881" lon="16.3569399"><ele>802.0</ele><time>2026-04-19T09:38:33.607Z</time></trkpt><trkpt lat="38.7971795" lon="16.3570461"><ele>802.0</ele><time>2026-04-19T09:38:35.605Z</time></trkpt><trkpt lat="38.7971302" lon="16.3571215"><ele>801.9999999999999</ele><time>2026-04-19T09:38:37.607Z</time></trkpt><trkpt lat="38.7971315" lon="16.3572091"><ele>802.0</ele><time>2026-04-19T09:38:39.617Z</time></trkpt><trkpt lat="38.7971314" lon="16.3573323"><ele>805.4000000000001</ele><time>2026-04-19T09:38:41.612Z</time></trkpt><trkpt lat="38.7970917" lon="16.3574447"><ele>808.8000000000001</ele><time>2026-04-19T09:38:43.612Z</time></trkpt><trkpt lat="38.7970865" lon="16.3575679"><ele>812.2</ele><time>2026-04-19T09:38:45.612Z</time></trkpt><trkpt lat="38.7969972" lon="16.3576065"><ele>815.6</ele><time>2026-04-19T09:38:48.607Z</time></trkpt><trkpt lat="38.7969113" lon="16.3576404"><ele>819.0</ele><time>2026-04-19T09:38:50.609Z</time></trkpt><trkpt lat="38.7967989" lon="16.3576721"><ele>820.5</ele><time>2026-04-19T09:38:52.61Z</time></trkpt><trkpt lat="38.7967304" lon="16.3576808"><ele>822.0</ele><time>2026-04-19T09:38:53.606Z</time></trkpt><trkpt lat="38.7966568" lon="16.3577016"><ele>823.5</ele><time>2026-04-19T09:38:54.609Z</time></trkpt><trkpt lat="38.7965748" lon="16.357726"><ele>825.0</ele><time>2026-04-19T09:38:55.607Z</time></trkpt><trkpt lat="38.7964991" lon="16.3577468"><ele>826.5</ele><time>2026-04-19T09:38:56.606Z</time></trkpt><trkpt lat="38.7963887" lon="16.3577594"><ele>828.0</ele><time>2026-04-19T09:38:58.606Z</time></trkpt><trkpt lat="38.7963246" lon="16.3577872"><ele>828.0</ele><time>2026-04-19T09:39:00.608Z</time></trkpt><trkpt lat="38.7962096" lon="16.3578409"><ele>828.0</ele><time>2026-04-19T09:39:05.609Z</time></trkpt><trkpt lat="38.7961176" lon="16.3578867"><ele>828.0</ele><time>2026-04-19T09:39:06.603Z</time></trkpt><trkpt lat="38.7960316" lon="16.3579283"><ele>828.0</ele><time>2026-04-19T09:39:07.608Z</time></trkpt><trkpt lat="38.7959387" lon="16.3579731"><ele>828.0</ele><time>2026-04-19T09:39:08.613Z</time></trkpt><trkpt lat="38.7958392" lon="16.3580192"><ele>832.0</ele><time>2026-04-19T09:39:09.603Z</time></trkpt><trkpt lat="38.7957399" lon="16.3580698"><ele>836.0</ele><time>2026-04-19T09:39:10.607Z</time></trkpt><trkpt lat="38.7956294" lon="16.3581219"><ele>840.0</ele><time>2026-04-19T09:39:11.614Z</time></trkpt><trkpt lat="38.7955315" lon="16.3581623"><ele>844.0</ele><time>2026-04-19T09:39:12.606Z</time></trkpt><trkpt lat="38.7954388" lon="16.3581907"><ele>848.0</ele><time>2026-04-19T09:39:13.611Z</time></trkpt><trkpt lat="38.7953539" lon="16.3582148"><ele>848.0000000000001</ele><time>2026-04-19T09:39:14.609Z</time></trkpt><trkpt lat="38.7952847" lon="16.3582337"><ele>848.0</ele><time>2026-04-19T09:39:15.606Z</time></trkpt><trkpt lat="38.7952268" lon="16.3582991"><ele>848.0</ele><time>2026-04-19T09:39:16.608Z</time></trkpt><trkpt lat="38.7951794" lon="16.3583554"><ele>848.0</ele><time>2026-04-19T09:39:17.608Z</time></trkpt><trkpt lat="38.7951124" lon="16.3583949"><ele>848.0000000000001</ele><time>2026-04-19T09:39:34.612Z</time></trkpt><trkpt lat="38.7950086" lon="16.358482"><ele>848.0</ele><time>2026-04-19T09:39:36.606Z</time></trkpt><trkpt lat="38.7949296" lon="16.3585312"><ele>850.0000000000001</ele><time>2026-04-19T09:39:37.621Z</time></trkpt><trkpt lat="38.794847" lon="16.3585827"><ele>852.0</ele><time>2026-04-19T09:39:38.611Z</time></trkpt><trkpt lat="38.7947696" lon="16.3586462"><ele>854.0</ele><time>2026-04-19T09:39:39.603Z</time></trkpt><trkpt lat="38.7947039" lon="16.3587217"><ele>856.0</ele><time>2026-04-19T09:39:40.608Z</time></trkpt><trkpt lat="38.7946423" lon="16.3588018"><ele>858.0000000000001</ele><time>2026-04-19T09:39:41.612Z</time></trkpt><trkpt lat="38.7945842" lon="16.3588893"><ele>860.0</ele><time>2026-04-19T09:39:42.605Z</time></trkpt><trkpt lat="38.7945349" lon="16.3589962"><ele>862.5000000000001</ele><time>2026-04-19T09:39:43.616Z</time></trkpt><trkpt lat="38.7944825" lon="16.3591046"><ele>865.0</ele><time>2026-04-19T09:39:44.605Z</time></trkpt><trkpt lat="38.7944307" lon="16.3592037"><ele>867.5</ele><time>2026-04-19T09:39:45.603Z</time></trkpt><trkpt lat="38.7943796" lon="16.3592857"><ele>870.0</ele><time>2026-04-19T09:39:46.603Z</time></trkpt><trkpt lat="38.7943391" lon="16.3593749"><ele>872.5000000000001</ele><time>2026-04-19T09:39:47.609Z</time></trkpt><trkpt lat="38.7943118" lon="16.3594763"><ele>875.0</ele><time>2026-04-19T09:39:48.607Z</time></trkpt><trkpt lat="38.7942899" lon="16.3595755"><ele>876.5</ele><time>2026-04-19T09:39:49.608Z</time></trkpt><trkpt lat="38.7943169" lon="16.3597143"><ele>878.0</ele><time>2026-04-19T09:39:51.607Z</time></trkpt><trkpt lat="38.794223" lon="16.3597502"><ele>879.5</ele><time>2026-04-19T09:39:53.607Z</time></trkpt><trkpt lat="38.7940976" lon="16.3597196"><ele>881.0</ele><time>2026-04-19T09:39:54.601Z</time></trkpt><trkpt lat="38.7939812" lon="16.3596857"><ele>881.0000000000001</ele><time>2026-04-19T09:39:55.605Z</time></trkpt><trkpt lat="38.7938973" lon="16.3596807"><ele>881.0</ele><time>2026-04-19T09:39:56.611Z</time></trkpt><trkpt lat="38.7938287" lon="16.3596999"><ele>881.0</ele><time>2026-04-19T09:39:58.609Z</time></trkpt><trkpt lat="38.7938357" lon="16.3598399"><ele>881.0</ele><time>2026-04-19T09:40:01.606Z</time></trkpt><trkpt lat="38.7938707" lon="16.3599534"><ele>881.0000000000001</ele><time>2026-04-19T09:40:03.623Z</time></trkpt><trkpt lat="38.7938945" lon="16.3600308"><ele>881.0</ele><time>2026-04-19T09:40:04.606Z</time></trkpt><trkpt lat="38.7939078" lon="16.3601245"><ele>880.6666666666667</ele><time>2026-04-19T09:40:05.605Z</time></trkpt><trkpt lat="38.7939134" lon="16.360229"><ele>880.3333333333334</ele><time>2026-04-19T09:40:06.604Z</time></trkpt><trkpt lat="38.7939074" lon="16.3603344"><ele>880.0</ele><time>2026-04-19T09:40:07.61Z</time></trkpt><trkpt lat="38.793901" lon="16.3604203"><ele>879.6666666666667</ele><time>2026-04-19T09:40:08.608Z</time></trkpt><trkpt lat="38.793827" lon="16.3605349"><ele>879.3333333333334</ele><time>2026-04-19T09:40:10.608Z</time></trkpt><trkpt lat="38.7937772" lon="16.3606056"><ele>879.0</ele><time>2026-04-19T09:40:11.613Z</time></trkpt><trkpt lat="38.7937253" lon="16.3606733"><ele>879.0</ele><time>2026-04-19T09:40:12.608Z</time></trkpt><trkpt lat="38.7936635" lon="16.3607375"><ele>879.0</ele><time>2026-04-19T09:40:13.627Z</time></trkpt><trkpt lat="38.7936082" lon="16.3607946"><ele>879.0</ele><time>2026-04-19T09:40:14.604Z</time></trkpt><trkpt lat="38.7935647" lon="16.3609209"><ele>879.0</ele><time>2026-04-19T09:40:16.611Z</time></trkpt><trkpt lat="38.79356" lon="16.3610195"><ele>879.0</ele><time>2026-04-19T09:40:18.607Z</time></trkpt><trkpt lat="38.793512" lon="16.3610775"><ele>879.0</ele><time>2026-04-19T09:40:21.611Z</time></trkpt><trkpt lat="38.7934754" lon="16.3611716"><ele>877.0</ele><time>2026-04-19T09:40:23.608Z</time></trkpt><trkpt lat="38.7934507" lon="16.3613193"><ele>875.0</ele><time>2026-04-19T09:40:25.61Z</time></trkpt><trkpt lat="38.7934501" lon="16.3614277"><ele>873.0</ele><time>2026-04-19T09:40:26.623Z</time></trkpt><trkpt lat="38.7934518" lon="16.3615163"><ele>871.0</ele><time>2026-04-19T09:40:27.606Z</time></trkpt><trkpt lat="38.7934509" lon="16.3616097"><ele>869.0</ele><time>2026-04-19T09:40:28.612Z</time></trkpt><trkpt lat="38.7934502" lon="16.3617102"><ele>867.0</ele><time>2026-04-19T09:40:29.618Z</time></trkpt><trkpt lat="38.7934496" lon="16.3618241"><ele>866.1666666666666</ele><time>2026-04-19T09:40:30.608Z</time></trkpt><trkpt lat="38.7934569" lon="16.3619361"><ele>865.3333333333333</ele><time>2026-04-19T09:40:31.632Z</time></trkpt><trkpt lat="38.7934638" lon="16.3620329"><ele>864.5</ele><time>2026-04-19T09:40:32.611Z</time></trkpt><trkpt lat="38.7934684" lon="16.3621337"><ele>863.6666666666666</ele><time>2026-04-19T09:40:33.612Z</time></trkpt><trkpt lat="38.7934763" lon="16.3622356"><ele>862.8333333333333</ele><time>2026-04-19T09:40:34.612Z</time></trkpt><trkpt lat="38.7935066" lon="16.3623157"><ele>862.0</ele><time>2026-04-19T09:40:35.617Z</time></trkpt><trkpt lat="38.7935961" lon="16.362331"><ele>860.8</ele><time>2026-04-19T09:40:37.608Z</time></trkpt><trkpt lat="38.7936697" lon="16.3623135"><ele>859.6</ele><time>2026-04-19T09:40:38.612Z</time></trkpt><trkpt lat="38.7937878" lon="16.3623254"><ele>858.3999999999999</ele><time>2026-04-19T09:40:39.614Z</time></trkpt><trkpt lat="38.793908" lon="16.36237"><ele>857.1999999999999</ele><time>2026-04-19T09:40:40.605Z</time></trkpt><trkpt lat="38.7940158" lon="16.3624211"><ele>856.0</ele><time>2026-04-19T09:40:41.612Z</time></trkpt><trkpt lat="38.7940889" lon="16.3624903"><ele>856.0</ele><time>2026-04-19T09:40:42.614Z</time></trkpt><trkpt lat="38.7941222" lon="16.3626186"><ele>856.0</ele><time>2026-04-19T09:40:43.626Z</time></trkpt><trkpt lat="38.7941317" lon="16.3627989"><ele>856.0</ele><time>2026-04-19T09:40:44.608Z</time></trkpt><trkpt lat="38.794138" lon="16.3629775"><ele>856.0</ele><time>2026-04-19T09:40:45.607Z</time></trkpt><trkpt lat="38.794141" lon="16.3631251"><ele>853.9999999999999</ele><time>2026-04-19T09:40:46.607Z</time></trkpt><trkpt lat="38.7941398" lon="16.3632569"><ele>852.0</ele><time>2026-04-19T09:40:47.61Z</time></trkpt><trkpt lat="38.7941396" lon="16.3633427"><ele>850.0</ele><time>2026-04-19T09:40:48.61Z</time></trkpt><trkpt lat="38.7942012" lon="16.3634495"><ele>848.0</ele><time>2026-04-19T09:40:50.612Z</time></trkpt><trkpt lat="38.7942585" lon="16.3635279"><ele>845.9999999999999</ele><time>2026-04-19T09:40:51.651Z</time></trkpt><trkpt lat="38.7942991" lon="16.3636175"><ele>844.0</ele><time>2026-04-19T09:40:52.612Z</time></trkpt><trkpt lat="38.7943019" lon="16.3637085"><ele>843.9999999999999</ele><time>2026-04-19T09:40:53.608Z</time></trkpt><trkpt lat="38.7942633" lon="16.3637935"><ele>844.0</ele><time>2026-04-19T09:40:54.612Z</time></trkpt><trkpt lat="38.794233" lon="16.3639043"><ele>844.0</ele><time>2026-04-19T09:40:55.609Z</time></trkpt><trkpt lat="38.7942077" lon="16.3639918"><ele>844.0</ele><time>2026-04-19T09:40:57.624Z</time></trkpt><trkpt lat="38.7941899" lon="16.3640746"><ele>843.9999999999999</ele><time>2026-04-19T09:41:00.606Z</time></trkpt><trkpt lat="38.7941824" lon="16.3641893"><ele>844.0</ele><time>2026-04-19T09:41:02.608Z</time></trkpt><trkpt lat="38.794179" lon="16.3643037"><ele>842.8333333333333</ele><time>2026-04-19T09:41:04.634Z</time></trkpt><trkpt lat="38.7941873" lon="16.3643884"><ele>841.6666666666666</ele><time>2026-04-19T09:41:06.613Z</time></trkpt><trkpt lat="38.7941896" lon="16.3645086"><ele>840.5</ele><time>2026-04-19T09:41:09.61Z</time></trkpt><trkpt lat="38.794223" lon="16.3646337"><ele>839.3333333333333</ele><time>2026-04-19T09:41:11.608Z</time></trkpt><trkpt lat="38.7942419" lon="16.3647427"><ele>838.1666666666666</ele><time>2026-04-19T09:41:13.606Z</time></trkpt><trkpt lat="38.7942442" lon="16.3648605"><ele>837.0</ele><time>2026-04-19T09:41:15.607Z</time></trkpt><trkpt lat="38.7942122" lon="16.365016"><ele>834.5</ele><time>2026-04-19T09:41:17.623Z</time></trkpt><trkpt lat="38.794199" lon="16.3651007"><ele>832.0</ele><time>2026-04-19T09:41:18.609Z</time></trkpt><trkpt lat="38.7941975" lon="16.3651848"><ele>829.5</ele><time>2026-04-19T09:41:19.606Z</time></trkpt><trkpt lat="38.7941985" lon="16.3652674"><ele>827.0</ele><time>2026-04-19T09:41:20.61Z</time></trkpt><trkpt lat="38.7941896" lon="16.3653475"><ele>824.5</ele><time>2026-04-19T09:41:21.617Z</time></trkpt><trkpt lat="38.7941515" lon="16.3654732"><ele>822.0</ele><time>2026-04-19T09:41:23.615Z</time></trkpt><trkpt lat="38.7940971" lon="16.3655697"><ele>820.0</ele><time>2026-04-19T09:41:25.62Z</time></trkpt><trkpt lat="38.7940376" lon="16.3656771"><ele>818.0</ele><time>2026-04-19T09:41:27.61Z</time></trkpt><trkpt lat="38.7939901" lon="16.3657959"><ele>816.0</ele><time>2026-04-19T09:41:29.607Z</time></trkpt><trkpt lat="38.793949" lon="16.3659274"><ele>814.0</ele><time>2026-04-19T09:41:31.604Z</time></trkpt><trkpt lat="38.7939104" lon="16.3660438"><ele>812.0</ele><time>2026-04-19T09:41:33.606Z</time></trkpt><trkpt lat="38.7938758" lon="16.366124"><ele>812.0000000000001</ele><time>2026-04-19T09:41:36.618Z</time></trkpt><trkpt lat="38.7938254" lon="16.3661946"><ele>812.0</ele><time>2026-04-19T09:41:41.613Z</time></trkpt><trkpt lat="38.7937673" lon="16.3662646"><ele>812.0</ele><time>2026-04-19T09:41:45.61Z</time></trkpt><trkpt lat="38.7937222" lon="16.3663244"><ele>812.0</ele><time>2026-04-19T09:41:47.621Z</time></trkpt><trkpt lat="38.793674" lon="16.3663891"><ele>812.0000000000001</ele><time>2026-04-19T09:41:49.616Z</time></trkpt><trkpt lat="38.7935916" lon="16.3664881"><ele>812.0</ele><time>2026-04-19T09:41:51.607Z</time></trkpt><trkpt lat="38.7935183" lon="16.3665785"><ele>810.3333333333334</ele><time>2026-04-19T09:41:53.603Z</time></trkpt><trkpt lat="38.7935041" lon="16.3666945"><ele>808.6666666666667</ele><time>2026-04-19T09:41:56.622Z</time></trkpt><trkpt lat="38.7935556" lon="16.3667919"><ele>807.0</ele><time>2026-04-19T09:41:58.609Z</time></trkpt><trkpt lat="38.7935925" lon="16.3668591"><ele>805.3333333333333</ele><time>2026-04-19T09:42:00.614Z</time></trkpt><trkpt lat="38.7936381" lon="16.3670081"><ele>803.6666666666666</ele><time>2026-04-19T09:42:02.613Z</time></trkpt><trkpt lat="38.7936673" lon="16.3670824"><ele>802.0</ele><time>2026-04-19T09:42:03.611Z</time></trkpt><trkpt lat="38.793703" lon="16.3671562"><ele>800.9999999999999</ele><time>2026-04-19T09:42:04.637Z</time></trkpt><trkpt lat="38.7937299" lon="16.3672639"><ele>800.0</ele><time>2026-04-19T09:42:06.613Z</time></trkpt><trkpt lat="38.7936793" lon="16.3673218"><ele>799.0</ele><time>2026-04-19T09:42:10.614Z</time></trkpt><trkpt lat="38.7936197" lon="16.367364"><ele>798.0</ele><time>2026-04-19T09:42:15.613Z</time></trkpt><trkpt lat="38.7935852" lon="16.3674517"><ele>796.9999999999999</ele><time>2026-04-19T09:42:22.611Z</time></trkpt><trkpt lat="38.7936308" lon="16.3675367"><ele>796.0</ele><time>2026-04-19T09:43:08.607Z</time></trkpt><trkpt lat="38.7936187" lon="16.367639"><ele>795.9999999999999</ele><time>2026-04-19T09:43:12.606Z</time></trkpt><trkpt lat="38.7935898" lon="16.3677249"><ele>796.0</ele><time>2026-04-19T09:43:15.618Z</time></trkpt><trkpt lat="38.7936118" lon="16.3678204"><ele>796.0</ele><time>2026-04-19T09:43:18.61Z</time></trkpt><trkpt lat="38.7936487" lon="16.3679046"><ele>796.0</ele><time>2026-04-19T09:43:20.605Z</time></trkpt><trkpt lat="38.7936627" lon="16.3679929"><ele>796.0</ele><time>2026-04-19T09:43:22.607Z</time></trkpt><trkpt lat="38.7936738" lon="16.3680913"><ele>795.9999999999999</ele><time>2026-04-19T09:43:24.61Z</time></trkpt><trkpt lat="38.7936825" lon="16.3681804"><ele>796.0</ele><time>2026-04-19T09:43:25.619Z</time></trkpt><trkpt lat="38.7936934" lon="16.3682701"><ele>796.0</ele><time>2026-04-19T09:43:26.609Z</time></trkpt><trkpt lat="38.7937083" lon="16.3683672"><ele>796.0</ele><time>2026-04-19T09:43:27.602Z</time></trkpt><trkpt lat="38.7937251" lon="16.3684794"><ele>796.0</ele><time>2026-04-19T09:43:28.603Z</time></trkpt><trkpt lat="38.7937614" lon="16.3686028"><ele>796.0</ele><time>2026-04-19T09:43:29.609Z</time></trkpt><trkpt lat="38.7938137" lon="16.3687216"><ele>796.0</ele><time>2026-04-19T09:43:30.604Z</time></trkpt><trkpt lat="38.7938654" lon="16.3688145"><ele>797.4999999999999</ele><time>2026-04-19T09:43:31.609Z</time></trkpt><trkpt lat="38.7939136" lon="16.3688972"><ele>799.0</ele><time>2026-04-19T09:43:32.603Z</time></trkpt><trkpt lat="38.7939598" lon="16.3689894"><ele>800.5</ele><time>2026-04-19T09:43:33.604Z</time></trkpt><trkpt lat="38.7940007" lon="16.3690791"><ele>802.0</ele><time>2026-04-19T09:43:34.602Z</time></trkpt><trkpt lat="38.7940476" lon="16.3691531"><ele>803.4999999999999</ele><time>2026-04-19T09:43:35.61Z</time></trkpt><trkpt lat="38.7941243" lon="16.3692435"><ele>805.0</ele><time>2026-04-19T09:43:36.609Z</time></trkpt><trkpt lat="38.7942162" lon="16.3693295"><ele>805.0</ele><time>2026-04-19T09:43:37.608Z</time></trkpt><trkpt lat="38.7943006" lon="16.3694197"><ele>805.0</ele><time>2026-04-19T09:43:38.616Z</time></trkpt><trkpt lat="38.7943841" lon="16.369539"><ele>805.0</ele><time>2026-04-19T09:43:39.612Z</time></trkpt><trkpt lat="38.7944822" lon="16.3696975"><ele>805.0</ele><time>2026-04-19T09:43:40.605Z</time></trkpt><trkpt lat="38.794551" lon="16.3698301"><ele>803.25</ele><time>2026-04-19T09:43:41.617Z</time></trkpt><trkpt lat="38.7946339" lon="16.3699938"><ele>801.5</ele><time>2026-04-19T09:43:42.605Z</time></trkpt><trkpt lat="38.7947033" lon="16.3701328"><ele>799.75</ele><time>2026-04-19T09:43:43.608Z</time></trkpt><trkpt lat="38.794754" lon="16.3702717"><ele>798.0</ele><time>2026-04-19T09:43:44.608Z</time></trkpt><trkpt lat="38.794807" lon="16.3704148"><ele>800.25</ele><time>2026-04-19T09:43:45.61Z</time></trkpt><trkpt lat="38.794872" lon="16.3705467"><ele>802.5</ele><time>2026-04-19T09:43:46.616Z</time></trkpt><trkpt lat="38.7949445" lon="16.3706818"><ele>804.75</ele><time>2026-04-19T09:43:47.6Z</time></trkpt><trkpt lat="38.7950164" lon="16.3708131"><ele>807.0</ele><time>2026-04-19T09:43:48.603Z</time></trkpt><trkpt lat="38.7950816" lon="16.3709335"><ele>807.0</ele><time>2026-04-19T09:43:49.602Z</time></trkpt><trkpt lat="38.7951458" lon="16.3710347"><ele>807.0</ele><time>2026-04-19T09:43:50.607Z</time></trkpt><trkpt lat="38.7952179" lon="16.37117"><ele>807.0</ele><time>2026-04-19T09:43:51.612Z</time></trkpt><trkpt lat="38.7952784" lon="16.3713038"><ele>807.0</ele><time>2026-04-19T09:43:52.607Z</time></trkpt><trkpt lat="38.7953348" lon="16.3714324"><ele>807.0</ele><time>2026-04-19T09:43:53.609Z</time></trkpt><trkpt lat="38.7953884" lon="16.3715289"><ele>807.0</ele><time>2026-04-19T09:43:54.611Z</time></trkpt><trkpt lat="38.7954381" lon="16.3716067"><ele>807.0</ele><time>2026-04-19T09:43:55.632Z</time></trkpt><trkpt lat="38.7954752" lon="16.3717219"><ele>807.0</ele><time>2026-04-19T09:43:56.6Z</time></trkpt><trkpt lat="38.7955251" lon="16.3718462"><ele>807.0</ele><time>2026-04-19T09:43:57.608Z</time></trkpt><trkpt lat="38.7956208" lon="16.3719909"><ele>807.0</ele><time>2026-04-19T09:43:58.609Z</time></trkpt><trkpt lat="38.7956877" lon="16.3721303"><ele>807.0</ele><time>2026-04-19T09:43:59.606Z</time></trkpt><trkpt lat="38.7957555" lon="16.3723001"><ele>807.0</ele><time>2026-04-19T09:44:00.611Z</time></trkpt><trkpt lat="38.7958221" lon="16.3724284"><ele>807.0</ele><time>2026-04-19T09:44:01.609Z</time></trkpt><trkpt lat="38.795911" lon="16.3725301"><ele>808.8</ele><time>2026-04-19T09:44:02.609Z</time></trkpt><trkpt lat="38.7960093" lon="16.3726114"><ele>810.6</ele><time>2026-04-19T09:44:03.623Z</time></trkpt><trkpt lat="38.7960818" lon="16.3727013"><ele>812.4</ele><time>2026-04-19T09:44:04.607Z</time></trkpt><trkpt lat="38.7961287" lon="16.3728126"><ele>814.1999999999999</ele><time>2026-04-19T09:44:05.609Z</time></trkpt><trkpt lat="38.7961641" lon="16.3729225"><ele>816.0</ele><time>2026-04-19T09:44:06.607Z</time></trkpt><trkpt lat="38.7962115" lon="16.3730237"><ele>817.0</ele><time>2026-04-19T09:44:07.61Z</time></trkpt><trkpt lat="38.7962471" lon="16.3730947"><ele>818.0</ele><time>2026-04-19T09:44:08.618Z</time></trkpt><trkpt lat="38.7962932" lon="16.3731933"><ele>819.0</ele><time>2026-04-19T09:44:10.619Z</time></trkpt><trkpt lat="38.7963594" lon="16.3733349"><ele>820.0</ele><time>2026-04-19T09:44:12.607Z</time></trkpt><trkpt lat="38.7963924" lon="16.3734255"><ele>821.0</ele><time>2026-04-19T09:44:13.612Z</time></trkpt><trkpt lat="38.7964437" lon="16.3735736"><ele>821.0000000000001</ele><time>2026-04-19T09:44:15.608Z</time></trkpt><trkpt lat="38.7964711" lon="16.3736493"><ele>821.0</ele><time>2026-04-19T09:44:16.606Z</time></trkpt><trkpt lat="38.79652" lon="16.3737173"><ele>821.0</ele><time>2026-04-19T09:44:17.603Z</time></trkpt><trkpt lat="38.7966206" lon="16.3737487"><ele>821.0</ele><time>2026-04-19T09:44:18.608Z</time></trkpt><trkpt lat="38.7967164" lon="16.3737749"><ele>821.0000000000001</ele><time>2026-04-19T09:44:19.611Z</time></trkpt><trkpt lat="38.7967962" lon="16.3737905"><ele>821.0</ele><time>2026-04-19T09:44:20.608Z</time></trkpt><trkpt lat="38.7968697" lon="16.3738045"><ele>821.8333333333334</ele><time>2026-04-19T09:44:21.614Z</time></trkpt><trkpt lat="38.7969453" lon="16.3738204"><ele>822.6666666666667</ele><time>2026-04-19T09:44:22.616Z</time></trkpt><trkpt lat="38.7970143" lon="16.3738394"><ele>823.5</ele><time>2026-04-19T09:44:23.614Z</time></trkpt><trkpt lat="38.7971002" lon="16.3738552"><ele>824.3333333333333</ele><time>2026-04-19T09:44:25.604Z</time></trkpt><trkpt lat="38.7971743" lon="16.3738704"><ele>825.1666666666666</ele><time>2026-04-19T09:44:34.607Z</time></trkpt><trkpt lat="38.7972416" lon="16.3738688"><ele>826.0</ele><time>2026-04-19T09:44:37.61Z</time></trkpt><trkpt lat="38.7973197" lon="16.3738516"><ele>825.9999999999999</ele><time>2026-04-19T09:44:43.607Z</time></trkpt><trkpt lat="38.7972474" lon="16.3738601"><ele>826.0</ele><time>2026-04-19T09:44:50.606Z</time></trkpt><trkpt lat="38.7971622" lon="16.3738592"><ele>826.0</ele><time>2026-04-19T09:44:54.609Z</time></trkpt><trkpt lat="38.7970972" lon="16.3738465"><ele>826.0</ele><time>2026-04-19T09:44:55.609Z</time></trkpt><trkpt lat="38.7969787" lon="16.3738276"><ele>825.9999999999999</ele><time>2026-04-19T09:44:57.61Z</time></trkpt><trkpt lat="38.7969099" lon="16.3738099"><ele>826.0</ele><time>2026-04-19T09:44:58.609Z</time></trkpt><trkpt lat="38.7968129" lon="16.3737833"><ele>826.0</ele><time>2026-04-19T09:45:00.612Z</time></trkpt><trkpt lat="38.7967497" lon="16.3737659"><ele>826.0</ele><time>2026-04-19T09:45:02.627Z</time></trkpt><trkpt lat="38.7967594" lon="16.3738503"><ele>826.0</ele><time>2026-04-19T09:45:10.615Z</time></trkpt><trkpt lat="38.7968682" lon="16.3739471"><ele>826.0</ele><time>2026-04-19T09:45:12.605Z</time></trkpt><trkpt lat="38.7969755" lon="16.3740581"><ele>826.0</ele><time>2026-04-19T09:45:13.608Z</time></trkpt><trkpt lat="38.7970989" lon="16.3741642"><ele>826.0</ele><time>2026-04-19T09:45:14.611Z</time></trkpt><trkpt lat="38.797205" lon="16.3742643"><ele>826.0</ele><time>2026-04-19T09:45:15.614Z</time></trkpt><trkpt lat="38.7972957" lon="16.3743465"><ele>826.0</ele><time>2026-04-19T09:45:16.607Z</time></trkpt><trkpt lat="38.7973881" lon="16.3743926"><ele>826.0</ele><time>2026-04-19T09:45:17.613Z</time></trkpt><trkpt lat="38.7974919" lon="16.3744229"><ele>826.0</ele><time>2026-04-19T09:45:18.62Z</time></trkpt><trkpt lat="38.7975741" lon="16.3744578"><ele>825.9999999999999</ele><time>2026-04-19T09:45:19.613Z</time></trkpt><trkpt lat="38.7976373" lon="16.3744924"><ele>826.0</ele><time>2026-04-19T09:45:20.607Z</time></trkpt><trkpt lat="38.7977013" lon="16.374541"><ele>826.0</ele><time>2026-04-19T09:45:21.615Z</time></trkpt><trkpt lat="38.7977555" lon="16.3745913"><ele>826.0</ele><time>2026-04-19T09:45:22.616Z</time></trkpt><trkpt lat="38.7978627" lon="16.3746873"><ele>825.9999999999999</ele><time>2026-04-19T09:45:24.615Z</time></trkpt><trkpt lat="38.7979201" lon="16.3747247"><ele>826.0</ele><time>2026-04-19T09:45:25.617Z</time></trkpt><trkpt lat="38.7980306" lon="16.3747579"><ele>823.75</ele><time>2026-04-19T09:45:27.608Z</time></trkpt><trkpt lat="38.798132" lon="16.3747409"><ele>821.5</ele><time>2026-04-19T09:45:29.613Z</time></trkpt><trkpt lat="38.7982471" lon="16.3747537"><ele>819.25</ele><time>2026-04-19T09:45:31.616Z</time></trkpt><trkpt lat="38.7983649" lon="16.3747997"><ele>817.0</ele><time>2026-04-19T09:45:33.611Z</time></trkpt><trkpt lat="38.79847" lon="16.3748626"><ele>816.6666666666666</ele><time>2026-04-19T09:45:35.642Z</time></trkpt><trkpt lat="38.7985286" lon="16.374912"><ele>816.3333333333333</ele><time>2026-04-19T09:45:36.61Z</time></trkpt><trkpt lat="38.7985838" lon="16.3749799"><ele>816.0</ele><time>2026-04-19T09:45:37.607Z</time></trkpt><trkpt lat="38.7986394" lon="16.3750273"><ele>815.6666666666667</ele><time>2026-04-19T09:45:38.614Z</time></trkpt><trkpt lat="38.7986951" lon="16.3750763"><ele>815.3333333333334</ele><time>2026-04-19T09:45:39.611Z</time></trkpt><trkpt lat="38.798781" lon="16.3751493"><ele>815.0</ele><time>2026-04-19T09:45:41.615Z</time></trkpt><trkpt lat="38.7988515" lon="16.3752243"><ele>815.0</ele><time>2026-04-19T09:45:43.614Z</time></trkpt><trkpt lat="38.7989317" lon="16.3753033"><ele>815.0</ele><time>2026-04-19T09:45:45.61Z</time></trkpt><trkpt lat="38.7990145" lon="16.3753989"><ele>815.0</ele><time>2026-04-19T09:45:47.624Z</time></trkpt><trkpt lat="38.7991084" lon="16.3754657"><ele>815.0</ele><time>2026-04-19T09:45:49.611Z</time></trkpt><trkpt lat="38.7991806" lon="16.3754706"><ele>815.0</ele><time>2026-04-19T09:45:50.607Z</time></trkpt><trkpt lat="38.7992816" lon="16.375486"><ele>812.8</ele><time>2026-04-19T09:45:52.616Z</time></trkpt><trkpt lat="38.7993256" lon="16.3755448"><ele>810.6</ele><time>2026-04-19T09:45:54.621Z</time></trkpt><trkpt lat="38.7992931" lon="16.3756568"><ele>808.4000000000001</ele><time>2026-04-19T09:45:56.623Z</time></trkpt><trkpt lat="38.7992338" lon="16.3757314"><ele>806.2</ele><time>2026-04-19T09:45:57.623Z</time></trkpt><trkpt lat="38.7991834" lon="16.375841"><ele>804.0</ele><time>2026-04-19T09:45:58.611Z</time></trkpt><trkpt lat="38.7991768" lon="16.3759956"><ele>804.0</ele><time>2026-04-19T09:45:59.617Z</time></trkpt><trkpt lat="38.7992044" lon="16.3761459"><ele>804.0</ele><time>2026-04-19T09:46:00.61Z</time></trkpt><trkpt lat="38.7992498" lon="16.3762656"><ele>804.0</ele><time>2026-04-19T09:46:01.611Z</time></trkpt><trkpt lat="38.7993377" lon="16.3763373"><ele>804.0</ele><time>2026-04-19T09:46:02.607Z</time></trkpt><trkpt lat="38.7994195" lon="16.3763976"><ele>804.0</ele><time>2026-04-19T09:46:03.646Z</time></trkpt><trkpt lat="38.7994809" lon="16.3764594"><ele>801.0</ele><time>2026-04-19T09:46:04.616Z</time></trkpt><trkpt lat="38.7995478" lon="16.3765143"><ele>798.0</ele><time>2026-04-19T09:46:05.611Z</time></trkpt><trkpt lat="38.7996186" lon="16.37658"><ele>795.0</ele><time>2026-04-19T09:46:06.611Z</time></trkpt><trkpt lat="38.7997085" lon="16.3766785"><ele>792.0</ele><time>2026-04-19T09:46:07.611Z</time></trkpt><trkpt lat="38.7998094" lon="16.376819"><ele>789.0</ele><time>2026-04-19T09:46:08.626Z</time></trkpt><trkpt lat="38.7998923" lon="16.3769578"><ele>789.0</ele><time>2026-04-19T09:46:09.607Z</time></trkpt><trkpt lat="38.7999583" lon="16.3770727"><ele>789.0</ele><time>2026-04-19T09:46:10.611Z</time></trkpt><trkpt lat="38.8000122" lon="16.3771624"><ele>789.0</ele><time>2026-04-19T09:46:11.606Z</time></trkpt><trkpt lat="38.8000612" lon="16.3772388"><ele>789.0</ele><time>2026-04-19T09:46:12.613Z</time></trkpt><trkpt lat="38.8001029" lon="16.3773069"><ele>789.0</ele><time>2026-04-19T09:46:13.616Z</time></trkpt><trkpt lat="38.8001032" lon="16.3774292"><ele>789.0</ele><time>2026-04-19T09:46:15.63Z</time></trkpt><trkpt lat="38.7999337" lon="16.3774285"><ele>787.25</ele><time>2026-04-19T09:46:17.606Z</time></trkpt><trkpt lat="38.7998199" lon="16.3774279"><ele>785.5</ele><time>2026-04-19T09:46:18.61Z</time></trkpt><trkpt lat="38.7996611" lon="16.3774237"><ele>783.75</ele><time>2026-04-19T09:46:19.618Z</time></trkpt><trkpt lat="38.7995054" lon="16.3774275"><ele>782.0</ele><time>2026-04-19T09:46:20.615Z</time></trkpt><trkpt lat="38.7993508" lon="16.3773977"><ele>782.25</ele><time>2026-04-19T09:46:21.619Z</time></trkpt><trkpt lat="38.7991914" lon="16.377359"><ele>782.5</ele><time>2026-04-19T09:46:22.614Z</time></trkpt><trkpt lat="38.7990634" lon="16.3772928"><ele>782.75</ele><time>2026-04-19T09:46:23.611Z</time></trkpt><trkpt lat="38.7989659" lon="16.3772558"><ele>783.0</ele><time>2026-04-19T09:46:24.62Z</time></trkpt><trkpt lat="38.7988729" lon="16.3772242"><ele>783.0</ele><time>2026-04-19T09:46:25.608Z</time></trkpt><trkpt lat="38.7987999" lon="16.3772005"><ele>783.0</ele><time>2026-04-19T09:46:26.608Z</time></trkpt><trkpt lat="38.7987352" lon="16.3771755"><ele>783.0</ele><time>2026-04-19T09:46:27.611Z</time></trkpt><trkpt lat="38.7986058" lon="16.3771169"><ele>783.0</ele><time>2026-04-19T09:46:29.609Z</time></trkpt><trkpt lat="38.798511" lon="16.3770566"><ele>783.0</ele><time>2026-04-19T09:46:30.621Z</time></trkpt><trkpt lat="38.7983988" lon="16.3769621"><ele>785.25</ele><time>2026-04-19T09:46:31.624Z</time></trkpt><trkpt lat="38.7982833" lon="16.3768645"><ele>787.5</ele><time>2026-04-19T09:46:32.613Z</time></trkpt><trkpt lat="38.7981628" lon="16.3768072"><ele>789.75</ele><time>2026-04-19T09:46:33.609Z</time></trkpt><trkpt lat="38.7980459" lon="16.3767966"><ele>792.0</ele><time>2026-04-19T09:46:34.606Z</time></trkpt><trkpt lat="38.797928" lon="16.3767978"><ele>792.0</ele><time>2026-04-19T09:46:35.605Z</time></trkpt><trkpt lat="38.797814" lon="16.3767996"><ele>792.0</ele><time>2026-04-19T09:46:36.608Z</time></trkpt><trkpt lat="38.7977146" lon="16.3768023"><ele>792.0</ele><time>2026-04-19T09:46:37.624Z</time></trkpt><trkpt lat="38.7976354" lon="16.3767869"><ele>792.0</ele><time>2026-04-19T09:46:38.617Z</time></trkpt><trkpt lat="38.7975678" lon="16.3767731"><ele>792.0</ele><time>2026-04-19T09:46:39.612Z</time></trkpt><trkpt lat="38.7974925" lon="16.3767693"><ele>792.0</ele><time>2026-04-19T09:46:40.612Z</time></trkpt><trkpt lat="38.7974303" lon="16.3767471"><ele>791.6666666666666</ele><time>2026-04-19T09:46:41.623Z</time></trkpt><trkpt lat="38.7973347" lon="16.3766958"><ele>791.3333333333333</ele><time>2026-04-19T09:46:43.614Z</time></trkpt><trkpt lat="38.7972686" lon="16.3767467"><ele>791.0</ele><time>2026-04-19T09:46:45.626Z</time></trkpt><trkpt lat="38.7972614" lon="16.3768293"><ele>790.6666666666666</ele><time>2026-04-19T09:46:46.627Z</time></trkpt><trkpt lat="38.7972734" lon="16.3769589"><ele>790.3333333333333</ele><time>2026-04-19T09:46:47.613Z</time></trkpt><trkpt lat="38.7972847" lon="16.377083"><ele>790.0</ele><time>2026-04-19T09:46:48.618Z</time></trkpt><trkpt lat="38.7973065" lon="16.3771898"><ele>789.9999999999999</ele><time>2026-04-19T09:46:49.606Z</time></trkpt><trkpt lat="38.797317" lon="16.3772977"><ele>790.0</ele><time>2026-04-19T09:46:50.607Z</time></trkpt><trkpt lat="38.7973396" lon="16.3773971"><ele>790.0</ele><time>2026-04-19T09:46:51.608Z</time></trkpt><trkpt lat="38.7973538" lon="16.3774851"><ele>790.0</ele><time>2026-04-19T09:46:52.607Z</time></trkpt><trkpt lat="38.7973724" lon="16.3775829"><ele>789.9999999999999</ele><time>2026-04-19T09:46:54.608Z</time></trkpt><trkpt lat="38.7973998" lon="16.3776701"><ele>790.0</ele><time>2026-04-19T09:46:56.619Z</time></trkpt><trkpt lat="38.7974265" lon="16.3778116"><ele>790.0</ele><time>2026-04-19T09:46:58.612Z</time></trkpt><trkpt lat="38.7974579" lon="16.3779961"><ele>790.0</ele><time>2026-04-19T09:47:00.605Z</time></trkpt><trkpt lat="38.7974815" lon="16.3781045"><ele>790.0</ele><time>2026-04-19T09:47:01.614Z</time></trkpt><trkpt lat="38.7975033" lon="16.3782194"><ele>790.0</ele><time>2026-04-19T09:47:02.629Z</time></trkpt><trkpt lat="38.7975286" lon="16.3783279"><ele>790.0</ele><time>2026-04-19T09:47:03.612Z</time></trkpt><trkpt lat="38.797557" lon="16.3784417"><ele>790.2</ele><time>2026-04-19T09:47:04.611Z</time></trkpt><trkpt lat="38.7975869" lon="16.3785605"><ele>790.4</ele><time>2026-04-19T09:47:05.61Z</time></trkpt><trkpt lat="38.7976132" lon="16.3786757"><ele>790.5999999999999</ele><time>2026-04-19T09:47:06.614Z</time></trkpt><trkpt lat="38.7976418" lon="16.3787875"><ele>790.8</ele><time>2026-04-19T09:47:07.609Z</time></trkpt><trkpt lat="38.7976703" lon="16.3789042"><ele>791.0</ele><time>2026-04-19T09:47:08.618Z</time></trkpt><trkpt lat="38.7976963" lon="16.379034"><ele>787.5999999999999</ele><time>2026-04-19T09:47:09.605Z</time></trkpt><trkpt lat="38.797724" lon="16.3791777"><ele>784.2</ele><time>2026-04-19T09:47:10.606Z</time></trkpt><trkpt lat="38.7977394" lon="16.3793119"><ele>780.8</ele><time>2026-04-19T09:47:11.62Z</time></trkpt><trkpt lat="38.7977595" lon="16.3794325"><ele>777.4000000000001</ele><time>2026-04-19T09:47:12.609Z</time></trkpt><trkpt lat="38.7977776" lon="16.3795376"><ele>774.0</ele><time>2026-04-19T09:47:13.624Z</time></trkpt><trkpt lat="38.7978081" lon="16.3796272"><ele>773.4000000000001</ele><time>2026-04-19T09:47:14.615Z</time></trkpt><trkpt lat="38.7978461" lon="16.3797085"><ele>772.8</ele><time>2026-04-19T09:47:15.607Z</time></trkpt><trkpt lat="38.7978939" lon="16.3797633"><ele>772.2</ele><time>2026-04-19T09:47:16.606Z</time></trkpt><trkpt lat="38.797979" lon="16.3798849"><ele>771.5999999999999</ele><time>2026-04-19T09:47:18.607Z</time></trkpt><trkpt lat="38.7980188" lon="16.3799489"><ele>771.0</ele><time>2026-04-19T09:47:19.605Z</time></trkpt><trkpt lat="38.7980859" lon="16.380085"><ele>771.0</ele><time>2026-04-19T09:47:21.604Z</time></trkpt><trkpt lat="38.7980986" lon="16.3801661"><ele>771.0</ele><time>2026-04-19T09:47:22.603Z</time></trkpt><trkpt lat="38.7981164" lon="16.3802971"><ele>771.0</ele><time>2026-04-19T09:47:24.616Z</time></trkpt><trkpt lat="38.7981249" lon="16.3804195"><ele>771.0</ele><time>2026-04-19T09:47:26.609Z</time></trkpt><trkpt lat="38.7981243" lon="16.3805516"><ele>771.0</ele><time>2026-04-19T09:47:28.61Z</time></trkpt><trkpt lat="38.7981805" lon="16.3806882"><ele>770.0</ele><time>2026-04-19T09:47:30.608Z</time></trkpt><trkpt lat="38.7982474" lon="16.3808292"><ele>769.0</ele><time>2026-04-19T09:47:32.607Z</time></trkpt><trkpt lat="38.7982719" lon="16.3809836"><ele>768.0</ele><time>2026-04-19T09:47:34.623Z</time></trkpt><trkpt lat="38.798254" lon="16.3810621"><ele>767.0</ele><time>2026-04-19T09:47:35.605Z</time></trkpt><trkpt lat="38.7982058" lon="16.3811323"><ele>766.0</ele><time>2026-04-19T09:47:36.614Z</time></trkpt><trkpt lat="38.7981542" lon="16.3811912"><ele>766.0</ele><time>2026-04-19T09:47:37.618Z</time></trkpt><trkpt lat="38.7980891" lon="16.3812181"><ele>766.0</ele><time>2026-04-19T09:47:38.614Z</time></trkpt><trkpt lat="38.7979849" lon="16.3812309"><ele>766.0</ele><time>2026-04-19T09:47:40.611Z</time></trkpt><trkpt lat="38.7979077" lon="16.3812281"><ele>766.0</ele><time>2026-04-19T09:47:42.608Z</time></trkpt><trkpt lat="38.7978395" lon="16.3812302"><ele>766.0</ele><time>2026-04-19T09:47:44.62Z</time></trkpt><trkpt lat="38.7977406" lon="16.381223"><ele>766.0</ele><time>2026-04-19T09:47:47.607Z</time></trkpt><trkpt lat="38.7976314" lon="16.3812296"><ele>765.4</ele><time>2026-04-19T09:47:49.621Z</time></trkpt><trkpt lat="38.7975672" lon="16.3812177"><ele>764.8</ele><time>2026-04-19T09:47:50.603Z</time></trkpt><trkpt lat="38.7974643" lon="16.3811928"><ele>764.1999999999999</ele><time>2026-04-19T09:47:52.608Z</time></trkpt><trkpt lat="38.7973403" lon="16.381184"><ele>763.5999999999999</ele><time>2026-04-19T09:47:54.627Z</time></trkpt><trkpt lat="38.7972392" lon="16.3812065"><ele>763.0</ele><time>2026-04-19T09:47:56.604Z</time></trkpt><trkpt lat="38.7971165" lon="16.3812526"><ele>763.0</ele><time>2026-04-19T09:47:58.613Z</time></trkpt><trkpt lat="38.7970033" lon="16.3813076"><ele>763.0</ele><time>2026-04-19T09:48:00.629Z</time></trkpt><trkpt lat="38.7969505" lon="16.3813636"><ele>763.0</ele><time>2026-04-19T09:48:01.616Z</time></trkpt><trkpt lat="38.7968969" lon="16.3814421"><ele>763.0</ele><time>2026-04-19T09:48:02.612Z</time></trkpt><trkpt lat="38.7968391" lon="16.3815264"><ele>763.0</ele><time>2026-04-19T09:48:03.611Z</time></trkpt><trkpt lat="38.7967898" lon="16.38161"><ele>763.0</ele><time>2026-04-19T09:48:04.61Z</time></trkpt><trkpt lat="38.7967514" lon="16.3816858"><ele>759.6666666666667</ele><time>2026-04-19T09:48:05.62Z</time></trkpt><trkpt lat="38.7967221" lon="16.3817575"><ele>756.3333333333334</ele><time>2026-04-19T09:48:06.607Z</time></trkpt><trkpt lat="38.7967111" lon="16.3818902"><ele>753.0</ele><time>2026-04-19T09:48:08.605Z</time></trkpt><trkpt lat="38.7967205" lon="16.3819739"><ele>749.6666666666666</ele><time>2026-04-19T09:48:11.613Z</time></trkpt><trkpt lat="38.7967245" lon="16.382067"><ele>746.3333333333333</ele><time>2026-04-19T09:48:16.617Z</time></trkpt><trkpt lat="38.7967292" lon="16.3821543"><ele>743.0</ele><time>2026-04-19T09:48:31.616Z</time></trkpt><trkpt lat="38.7967225" lon="16.382321"><ele>740.25</ele><time>2026-04-19T09:48:33.614Z</time></trkpt><trkpt lat="38.7966768" lon="16.3824847"><ele>737.5</ele><time>2026-04-19T09:48:34.623Z</time></trkpt><trkpt lat="38.796604" lon="16.382586"><ele>734.75</ele><time>2026-04-19T09:48:35.614Z</time></trkpt><trkpt lat="38.7965019" lon="16.3826409"><ele>732.0</ele><time>2026-04-19T09:48:36.62Z</time></trkpt><trkpt lat="38.7964043" lon="16.3826562"><ele>732.0</ele><time>2026-04-19T09:48:37.618Z</time></trkpt><trkpt lat="38.7963156" lon="16.3826561"><ele>732.0</ele><time>2026-04-19T09:48:38.614Z</time></trkpt><trkpt lat="38.7962237" lon="16.3826452"><ele>732.0</ele><time>2026-04-19T09:48:39.618Z</time></trkpt><trkpt lat="38.7961341" lon="16.3826186"><ele>732.0</ele><time>2026-04-19T09:48:40.606Z</time></trkpt><trkpt lat="38.7960291" lon="16.3825984"><ele>732.0</ele><time>2026-04-19T09:48:41.615Z</time></trkpt><trkpt lat="38.7959116" lon="16.3825893"><ele>729.5</ele><time>2026-04-19T09:48:42.608Z</time></trkpt><trkpt lat="38.7957846" lon="16.3825917"><ele>727.0</ele><time>2026-04-19T09:48:43.612Z</time></trkpt><trkpt lat="38.7956749" lon="16.3825954"><ele>724.5</ele><time>2026-04-19T09:48:44.609Z</time></trkpt><trkpt lat="38.7955645" lon="16.3825829"><ele>722.0</ele><time>2026-04-19T09:48:45.611Z</time></trkpt><trkpt lat="38.7954635" lon="16.3825299"><ele>722.0</ele><time>2026-04-19T09:48:46.606Z</time></trkpt><trkpt lat="38.7953677" lon="16.3824603"><ele>722.0</ele><time>2026-04-19T09:48:47.612Z</time></trkpt><trkpt lat="38.7952876" lon="16.3823995"><ele>722.0</ele><time>2026-04-19T09:48:48.615Z</time></trkpt><trkpt lat="38.7952217" lon="16.3823501"><ele>722.0</ele><time>2026-04-19T09:48:49.608Z</time></trkpt><trkpt lat="38.7951596" lon="16.3823051"><ele>722.0</ele><time>2026-04-19T09:48:50.615Z</time></trkpt><trkpt lat="38.7950789" lon="16.3822225"><ele>722.2</ele><time>2026-04-19T09:48:52.64Z</time></trkpt><trkpt lat="38.795018" lon="16.3821369"><ele>722.4000000000001</ele><time>2026-04-19T09:49:17.611Z</time></trkpt><trkpt lat="38.7949572" lon="16.3820673"><ele>722.5999999999999</ele><time>2026-04-19T09:49:21.626Z</time></trkpt><trkpt lat="38.7948961" lon="16.381965"><ele>722.8</ele><time>2026-04-19T09:49:24.608Z</time></trkpt><trkpt lat="38.7948128" lon="16.3818885"><ele>723.0</ele><time>2026-04-19T09:49:26.61Z</time></trkpt><trkpt lat="38.7947286" lon="16.381849"><ele>723.0</ele><time>2026-04-19T09:49:27.615Z</time></trkpt><trkpt lat="38.7946408" lon="16.381812"><ele>723.0</ele><time>2026-04-19T09:49:28.626Z</time></trkpt><trkpt lat="38.7945485" lon="16.3817816"><ele>723.0</ele><time>2026-04-19T09:49:29.607Z</time></trkpt><trkpt lat="38.7944643" lon="16.3817625"><ele>723.0</ele><time>2026-04-19T09:49:30.607Z</time></trkpt><trkpt lat="38.7943727" lon="16.3817941"><ele>723.0</ele><time>2026-04-19T09:49:32.61Z</time></trkpt><trkpt lat="38.7943387" lon="16.3818752"><ele>723.0</ele><time>2026-04-19T09:49:34.606Z</time></trkpt><trkpt lat="38.7943213" lon="16.381978"><ele>723.0</ele><time>2026-04-19T09:49:36.608Z</time></trkpt><trkpt lat="38.7943642" lon="16.3820616"><ele>723.0</ele><time>2026-04-19T09:49:38.606Z</time></trkpt><trkpt lat="38.7944345" lon="16.3821384"><ele>723.0</ele><time>2026-04-19T09:49:40.607Z</time></trkpt><trkpt lat="38.7944777" lon="16.3822561"><ele>723.0</ele><time>2026-04-19T09:49:42.605Z</time></trkpt><trkpt lat="38.7945023" lon="16.3823924"><ele>723.0</ele><time>2026-04-19T09:49:44.612Z</time></trkpt><trkpt lat="38.7944939" lon="16.3824969"><ele>724.0</ele><time>2026-04-19T09:49:45.607Z</time></trkpt><trkpt lat="38.7944718" lon="16.3826134"><ele>725.0</ele><time>2026-04-19T09:49:46.604Z</time></trkpt><trkpt lat="38.7944547" lon="16.3827358"><ele>726.0</ele><time>2026-04-19T09:49:47.613Z</time></trkpt><trkpt lat="38.7944249" lon="16.3828648"><ele>727.0</ele><time>2026-04-19T09:49:48.617Z</time></trkpt><trkpt lat="38.7943685" lon="16.3829747"><ele>728.0</ele><time>2026-04-19T09:49:49.627Z</time></trkpt><trkpt lat="38.7942696" lon="16.3830892"><ele>728.0</ele><time>2026-04-19T09:49:50.606Z</time></trkpt><trkpt lat="38.7941714" lon="16.3832044"><ele>728.0</ele><time>2026-04-19T09:49:51.611Z</time></trkpt><trkpt lat="38.7940669" lon="16.3833399"><ele>728.0</ele><time>2026-04-19T09:49:52.618Z</time></trkpt><trkpt lat="38.7939681" lon="16.3834576"><ele>728.0</ele><time>2026-04-19T09:49:53.611Z</time></trkpt><trkpt lat="38.7938699" lon="16.3835706"><ele>728.0</ele><time>2026-04-19T09:49:54.632Z</time></trkpt><trkpt lat="38.7937295" lon="16.3836629"><ele>728.0</ele><time>2026-04-19T09:49:55.608Z</time></trkpt><trkpt lat="38.793587" lon="16.3837542"><ele>728.0</ele><time>2026-04-19T09:49:56.602Z</time></trkpt><trkpt lat="38.7934427" lon="16.3838282"><ele>730.25</ele><time>2026-04-19T09:49:57.623Z</time></trkpt><trkpt lat="38.7933117" lon="16.3838822"><ele>732.5</ele><time>2026-04-19T09:49:58.613Z</time></trkpt><trkpt lat="38.7931857" lon="16.3839266"><ele>734.75</ele><time>2026-04-19T09:49:59.646Z</time></trkpt><trkpt lat="38.7930583" lon="16.3839695"><ele>737.0</ele><time>2026-04-19T09:50:00.614Z</time></trkpt><trkpt lat="38.7929337" lon="16.3839891"><ele>737.0</ele><time>2026-04-19T09:50:01.611Z</time></trkpt><trkpt lat="38.7928145" lon="16.3839808"><ele>737.0</ele><time>2026-04-19T09:50:02.614Z</time></trkpt><trkpt lat="38.7926991" lon="16.3839544"><ele>737.0</ele><time>2026-04-19T09:50:03.607Z</time></trkpt><trkpt lat="38.7925962" lon="16.3838835"><ele>737.0</ele><time>2026-04-19T09:50:04.611Z</time></trkpt><trkpt lat="38.7924816" lon="16.383803"><ele>741.25</ele><time>2026-04-19T09:50:05.614Z</time></trkpt><trkpt lat="38.792363" lon="16.383712"><ele>745.5</ele><time>2026-04-19T09:50:06.617Z</time></trkpt><trkpt lat="38.7922402" lon="16.3836264"><ele>749.75</ele><time>2026-04-19T09:50:07.618Z</time></trkpt><trkpt lat="38.7921288" lon="16.3835565"><ele>754.0</ele><time>2026-04-19T09:50:08.606Z</time></trkpt><trkpt lat="38.7920229" lon="16.3834683"><ele>754.0</ele><time>2026-04-19T09:50:09.616Z</time></trkpt><trkpt lat="38.7919255" lon="16.3833652"><ele>754.0</ele><time>2026-04-19T09:50:10.609Z</time></trkpt><trkpt lat="38.7918374" lon="16.3832613"><ele>754.0</ele><time>2026-04-19T09:50:11.608Z</time></trkpt><trkpt lat="38.7917639" lon="16.3831712"><ele>754.0</ele><time>2026-04-19T09:50:12.608Z</time></trkpt><trkpt lat="38.7916941" lon="16.3831086"><ele>754.0</ele><time>2026-04-19T09:50:13.611Z</time></trkpt><trkpt lat="38.7916301" lon="16.3830743"><ele>752.2</ele><time>2026-04-19T09:50:14.612Z</time></trkpt><trkpt lat="38.7915642" lon="16.3830402"><ele>750.4000000000001</ele><time>2026-04-19T09:50:15.619Z</time></trkpt><trkpt lat="38.7914855" lon="16.3830261"><ele>748.6</ele><time>2026-04-19T09:50:16.615Z</time></trkpt><trkpt lat="38.7913899" lon="16.3830237"><ele>746.8</ele><time>2026-04-19T09:50:17.615Z</time></trkpt><trkpt lat="38.791286" lon="16.383024"><ele>745.0</ele><time>2026-04-19T09:50:18.612Z</time></trkpt><trkpt lat="38.7911811" lon="16.3830214"><ele>747.2</ele><time>2026-04-19T09:50:19.608Z</time></trkpt><trkpt lat="38.791077" lon="16.3830004"><ele>749.4</ele><time>2026-04-19T09:50:20.618Z</time></trkpt><trkpt lat="38.7909779" lon="16.3829779"><ele>751.5999999999999</ele><time>2026-04-19T09:50:21.612Z</time></trkpt><trkpt lat="38.7909041" lon="16.3829123"><ele>753.8</ele><time>2026-04-19T09:50:22.612Z</time></trkpt><trkpt lat="38.790883" lon="16.3827934"><ele>756.0</ele><time>2026-04-19T09:50:23.62Z</time></trkpt><trkpt lat="38.7908904" lon="16.3826615"><ele>756.0</ele><time>2026-04-19T09:50:24.623Z</time></trkpt><trkpt lat="38.7909052" lon="16.3825236"><ele>756.0</ele><time>2026-04-19T09:50:25.606Z</time></trkpt><trkpt lat="38.7909181" lon="16.3823767"><ele>756.0</ele><time>2026-04-19T09:50:26.607Z</time></trkpt><trkpt lat="38.790922" lon="16.3822211"><ele>756.0</ele><time>2026-04-19T09:50:27.616Z</time></trkpt><trkpt lat="38.7909153" lon="16.3820683"><ele>759.0</ele><time>2026-04-19T09:50:28.61Z</time></trkpt><trkpt lat="38.7908995" lon="16.38192"><ele>762.0</ele><time>2026-04-19T09:50:29.61Z</time></trkpt><trkpt lat="38.7908691" lon="16.3817799"><ele>765.0</ele><time>2026-04-19T09:50:30.622Z</time></trkpt><trkpt lat="38.7908287" lon="16.381651"><ele>768.0</ele><time>2026-04-19T09:50:31.607Z</time></trkpt><trkpt lat="38.7907822" lon="16.3815279"><ele>771.0</ele><time>2026-04-19T09:50:32.609Z</time></trkpt><trkpt lat="38.7907254" lon="16.3814212"><ele>773.8</ele><time>2026-04-19T09:50:33.615Z</time></trkpt><trkpt lat="38.7906572" lon="16.3813337"><ele>776.5999999999999</ele><time>2026-04-19T09:50:34.61Z</time></trkpt><trkpt lat="38.7905774" lon="16.3812643"><ele>779.4</ele><time>2026-04-19T09:50:35.613Z</time></trkpt><trkpt lat="38.790486" lon="16.381214"><ele>782.2</ele><time>2026-04-19T09:50:36.61Z</time></trkpt><trkpt lat="38.7903937" lon="16.3811675"><ele>785.0</ele><time>2026-04-19T09:50:37.614Z</time></trkpt><trkpt lat="38.7902877" lon="16.3811711"><ele>785.0</ele><time>2026-04-19T09:50:38.612Z</time></trkpt><trkpt lat="38.790179" lon="16.3811736"><ele>785.0</ele><time>2026-04-19T09:50:39.63Z</time></trkpt><trkpt lat="38.7900664" lon="16.3811522"><ele>785.0</ele><time>2026-04-19T09:50:40.614Z</time></trkpt><trkpt lat="38.7899626" lon="16.381097"><ele>785.0</ele><time>2026-04-19T09:50:41.615Z</time></trkpt><trkpt lat="38.7898908" lon="16.3810251"><ele>785.0</ele><time>2026-04-19T09:50:42.608Z</time></trkpt><trkpt lat="38.7898463" lon="16.3809668"><ele>785.2</ele><time>2026-04-19T09:50:43.608Z</time></trkpt><trkpt lat="38.7897916" lon="16.3808674"><ele>785.4</ele><time>2026-04-19T09:50:48.613Z</time></trkpt><trkpt lat="38.7897748" lon="16.3807872"><ele>785.5999999999999</ele><time>2026-04-19T09:50:49.616Z</time></trkpt><trkpt lat="38.7897393" lon="16.3806554"><ele>785.8</ele><time>2026-04-19T09:50:51.613Z</time></trkpt><trkpt lat="38.7896192" lon="16.3807081"><ele>786.0</ele><time>2026-04-19T09:50:53.609Z</time></trkpt><trkpt lat="38.789536" lon="16.3807543"><ele>786.0</ele><time>2026-04-19T09:50:54.611Z</time></trkpt><trkpt lat="38.7894423" lon="16.3807981"><ele>786.0</ele><time>2026-04-19T09:50:55.615Z</time></trkpt><trkpt lat="38.7893298" lon="16.380832"><ele>786.0</ele><time>2026-04-19T09:50:56.604Z</time></trkpt><trkpt lat="38.7892138" lon="16.3808679"><ele>786.0</ele><time>2026-04-19T09:50:57.642Z</time></trkpt><trkpt lat="38.7890952" lon="16.3808849"><ele>786.8</ele><time>2026-04-19T09:50:58.617Z</time></trkpt><trkpt lat="38.7889825" lon="16.3808916"><ele>787.5999999999999</ele><time>2026-04-19T09:50:59.617Z</time></trkpt><trkpt lat="38.788884" lon="16.3808805"><ele>788.4</ele><time>2026-04-19T09:51:00.615Z</time></trkpt><trkpt lat="38.7887963" lon="16.3808699"><ele>789.2</ele><time>2026-04-19T09:51:01.612Z</time></trkpt><trkpt lat="38.7887097" lon="16.3808698"><ele>790.0</ele><time>2026-04-19T09:51:02.614Z</time></trkpt><trkpt lat="38.7886287" lon="16.3808661"><ele>789.9999999999999</ele><time>2026-04-19T09:51:03.618Z</time></trkpt><trkpt lat="38.7885434" lon="16.380857"><ele>790.0</ele><time>2026-04-19T09:51:04.615Z</time></trkpt><trkpt lat="38.7884671" lon="16.3808471"><ele>790.0</ele><time>2026-04-19T09:51:05.612Z</time></trkpt><trkpt lat="38.7883967" lon="16.3808348"><ele>790.0</ele><time>2026-04-19T09:51:06.61Z</time></trkpt><trkpt lat="38.7882923" lon="16.3808127"><ele>789.9999999999999</ele><time>2026-04-19T09:51:08.617Z</time></trkpt><trkpt lat="38.788203" lon="16.3808389"><ele>790.0</ele><time>2026-04-19T09:51:10.628Z</time></trkpt><trkpt lat="38.7881476" lon="16.3808816"><ele>788.9999999999999</ele><time>2026-04-19T09:51:11.61Z</time></trkpt><trkpt lat="38.7880877" lon="16.3809301"><ele>788.0</ele><time>2026-04-19T09:51:12.61Z</time></trkpt><trkpt lat="38.7880217" lon="16.380987"><ele>787.0</ele><time>2026-04-19T09:51:13.614Z</time></trkpt><trkpt lat="38.7879571" lon="16.3810456"><ele>786.0</ele><time>2026-04-19T09:51:14.614Z</time></trkpt><trkpt lat="38.7878906" lon="16.3810977"><ele>784.9999999999999</ele><time>2026-04-19T09:51:15.607Z</time></trkpt><trkpt lat="38.7878292" lon="16.3811533"><ele>784.0</ele><time>2026-04-19T09:51:16.614Z</time></trkpt><trkpt lat="38.7877717" lon="16.3812174"><ele>783.9999999999999</ele><time>2026-04-19T09:51:17.606Z</time></trkpt><trkpt lat="38.7877019" lon="16.381257"><ele>784.0</ele><time>2026-04-19T09:51:18.614Z</time></trkpt><trkpt lat="38.787633" lon="16.3812915"><ele>784.0</ele><time>2026-04-19T09:51:19.605Z</time></trkpt><trkpt lat="38.7875611" lon="16.38128"><ele>784.0</ele><time>2026-04-19T09:51:20.616Z</time></trkpt><trkpt lat="38.7874858" lon="16.3812531"><ele>783.9999999999999</ele><time>2026-04-19T09:51:21.611Z</time></trkpt><trkpt lat="38.7874131" lon="16.3812301"><ele>784.0</ele><time>2026-04-19T09:51:22.614Z</time></trkpt><trkpt lat="38.7873259" lon="16.3812297"><ele>781.9999999999999</ele><time>2026-04-19T09:51:23.61Z</time></trkpt><trkpt lat="38.7872392" lon="16.3812259"><ele>780.0</ele><time>2026-04-19T09:51:24.618Z</time></trkpt><trkpt lat="38.7871481" lon="16.3812326"><ele>778.0</ele><time>2026-04-19T09:51:25.613Z</time></trkpt><trkpt lat="38.7870714" lon="16.381253"><ele>776.0</ele><time>2026-04-19T09:51:26.612Z</time></trkpt><trkpt lat="38.7870027" lon="16.3812894"><ele>773.9999999999999</ele><time>2026-04-19T09:51:27.626Z</time></trkpt><trkpt lat="38.7869381" lon="16.3813483"><ele>772.0</ele><time>2026-04-19T09:51:28.609Z</time></trkpt><trkpt lat="38.7868757" lon="16.3814108"><ele>769.8333333333333</ele><time>2026-04-19T09:51:29.628Z</time></trkpt><trkpt lat="38.7868273" lon="16.3815108"><ele>767.6666666666666</ele><time>2026-04-19T09:51:30.615Z</time></trkpt><trkpt lat="38.7868013" lon="16.3816224"><ele>765.5</ele><time>2026-04-19T09:51:31.606Z</time></trkpt><trkpt lat="38.7867951" lon="16.381726"><ele>763.3333333333333</ele><time>2026-04-19T09:51:32.611Z</time></trkpt><trkpt lat="38.7867895" lon="16.381828"><ele>761.1666666666666</ele><time>2026-04-19T09:51:33.617Z</time></trkpt><trkpt lat="38.7867825" lon="16.3819362"><ele>759.0</ele><time>2026-04-19T09:51:34.621Z</time></trkpt><trkpt lat="38.7867347" lon="16.3820316"><ele>759.0</ele><time>2026-04-19T09:51:35.626Z</time></trkpt><trkpt lat="38.7866708" lon="16.3821299"><ele>759.0</ele><time>2026-04-19T09:51:36.614Z</time></trkpt><trkpt lat="38.786615" lon="16.3822339"><ele>759.0</ele><time>2026-04-19T09:51:37.618Z</time></trkpt><trkpt lat="38.7865669" lon="16.3823384"><ele>759.0</ele><time>2026-04-19T09:51:38.611Z</time></trkpt><trkpt lat="38.7865207" lon="16.3824451"><ele>759.0</ele><time>2026-04-19T09:51:39.603Z</time></trkpt><trkpt lat="38.786512" lon="16.382568"><ele>756.6</ele><time>2026-04-19T09:51:40.608Z</time></trkpt><trkpt lat="38.7864965" lon="16.3826859"><ele>754.2</ele><time>2026-04-19T09:51:41.607Z</time></trkpt><trkpt lat="38.7864639" lon="16.3828029"><ele>751.8000000000001</ele><time>2026-04-19T09:51:42.619Z</time></trkpt><trkpt lat="38.786394" lon="16.3829072"><ele>749.4000000000001</ele><time>2026-04-19T09:51:43.603Z</time></trkpt><trkpt lat="38.7863227" lon="16.3829914"><ele>747.0</ele><time>2026-04-19T09:51:44.612Z</time></trkpt><trkpt lat="38.7862616" lon="16.3830781"><ele>745.3333333333334</ele><time>2026-04-19T09:51:45.607Z</time></trkpt><trkpt lat="38.7862182" lon="16.3831681"><ele>743.6666666666666</ele><time>2026-04-19T09:51:46.614Z</time></trkpt><trkpt lat="38.786176" lon="16.3832561"><ele>742.0</ele><time>2026-04-19T09:51:47.608Z</time></trkpt><trkpt lat="38.7861268" lon="16.3833426"><ele>740.3333333333333</ele><time>2026-04-19T09:51:48.611Z</time></trkpt><trkpt lat="38.7860718" lon="16.3834334"><ele>738.6666666666666</ele><time>2026-04-19T09:51:49.614Z</time></trkpt><trkpt lat="38.7859695" lon="16.3834884"><ele>737.0</ele><time>2026-04-19T09:51:50.61Z</time></trkpt><trkpt lat="38.7858682" lon="16.3835272"><ele>736.6666666666666</ele><time>2026-04-19T09:51:51.605Z</time></trkpt><trkpt lat="38.7857772" lon="16.3835604"><ele>736.3333333333333</ele><time>2026-04-19T09:51:52.607Z</time></trkpt><trkpt lat="38.7856971" lon="16.3835948"><ele>736.0</ele><time>2026-04-19T09:51:53.614Z</time></trkpt><trkpt lat="38.7856245" lon="16.3836341"><ele>735.6666666666666</ele><time>2026-04-19T09:51:54.622Z</time></trkpt><trkpt lat="38.7855657" lon="16.3836919"><ele>735.3333333333334</ele><time>2026-04-19T09:51:55.613Z</time></trkpt><trkpt lat="38.7855149" lon="16.3837604"><ele>735.0</ele><time>2026-04-19T09:51:56.616Z</time></trkpt><trkpt lat="38.7854678" lon="16.3838302"><ele>733.2</ele><time>2026-04-19T09:51:57.611Z</time></trkpt><trkpt lat="38.7854206" lon="16.3839017"><ele>731.4</ele><time>2026-04-19T09:51:58.603Z</time></trkpt><trkpt lat="38.7853375" lon="16.3840202"><ele>729.5999999999999</ele><time>2026-04-19T09:52:00.609Z</time></trkpt><trkpt lat="38.7852891" lon="16.3840904"><ele>727.8</ele><time>2026-04-19T09:52:01.627Z</time></trkpt><trkpt lat="38.7852232" lon="16.384232"><ele>726.0</ele><time>2026-04-19T09:52:03.622Z</time></trkpt><trkpt lat="38.7851879" lon="16.3843065"><ele>725.1666666666666</ele><time>2026-04-19T09:52:04.622Z</time></trkpt><trkpt lat="38.7851535" lon="16.3844284"><ele>724.3333333333334</ele><time>2026-04-19T09:52:06.628Z</time></trkpt><trkpt lat="38.7851292" lon="16.3845156"><ele>723.5</ele><time>2026-04-19T09:52:07.611Z</time></trkpt><trkpt lat="38.7850849" lon="16.3845934"><ele>722.6666666666667</ele><time>2026-04-19T09:52:08.603Z</time></trkpt><trkpt lat="38.7850197" lon="16.3846557"><ele>721.8333333333334</ele><time>2026-04-19T09:52:09.617Z</time></trkpt><trkpt lat="38.7849566" lon="16.3847095"><ele>721.0</ele><time>2026-04-19T09:52:10.607Z</time></trkpt><trkpt lat="38.7849088" lon="16.3847664"><ele>719.8</ele><time>2026-04-19T09:52:11.632Z</time></trkpt><trkpt lat="38.7848594" lon="16.3848275"><ele>718.5999999999999</ele><time>2026-04-19T09:52:12.609Z</time></trkpt><trkpt lat="38.78481" lon="16.3849176"><ele>717.4</ele><time>2026-04-19T09:52:13.617Z</time></trkpt><trkpt lat="38.7847471" lon="16.3850618"><ele>716.2</ele><time>2026-04-19T09:52:14.606Z</time></trkpt><trkpt lat="38.7847153" lon="16.3851641"><ele>715.0</ele><time>2026-04-19T09:52:15.608Z</time></trkpt><trkpt lat="38.7846788" lon="16.3852785"><ele>715.0</ele><time>2026-04-19T09:52:16.623Z</time></trkpt><trkpt lat="38.7846353" lon="16.3853679"><ele>715.0</ele><time>2026-04-19T09:52:17.608Z</time></trkpt><trkpt lat="38.7845651" lon="16.3854217"><ele>715.0</ele><time>2026-04-19T09:52:18.609Z</time></trkpt><trkpt lat="38.78449" lon="16.3854333"><ele>715.0</ele><time>2026-04-19T09:52:19.614Z</time></trkpt><trkpt lat="38.7844187" lon="16.3854158"><ele>715.0</ele><time>2026-04-19T09:52:20.616Z</time></trkpt><trkpt lat="38.784345" lon="16.3853866"><ele>715.0</ele><time>2026-04-19T09:52:21.621Z</time></trkpt><trkpt lat="38.784255" lon="16.3854189"><ele>714.4</ele><time>2026-04-19T09:52:22.621Z</time></trkpt><trkpt lat="38.7841488" lon="16.3854036"><ele>713.8</ele><time>2026-04-19T09:52:24.605Z</time></trkpt><trkpt lat="38.7840624" lon="16.3854216"><ele>713.2</ele><time>2026-04-19T09:52:26.615Z</time></trkpt><trkpt lat="38.7839951" lon="16.385502"><ele>712.6</ele><time>2026-04-19T09:52:28.607Z</time></trkpt><trkpt lat="38.783896" lon="16.38558"><ele>712.0</ele><time>2026-04-19T09:52:30.629Z</time></trkpt><trkpt lat="38.7837723" lon="16.385707"><ele>710.6</ele><time>2026-04-19T09:52:32.61Z</time></trkpt><trkpt lat="38.7836983" lon="16.3857546"><ele>709.2</ele><time>2026-04-19T09:52:33.609Z</time></trkpt><trkpt lat="38.7836221" lon="16.385789"><ele>707.8</ele><time>2026-04-19T09:52:34.615Z</time></trkpt><trkpt lat="38.783508" lon="16.3858502"><ele>706.4</ele><time>2026-04-19T09:52:35.613Z</time></trkpt><trkpt lat="38.7834104" lon="16.3858959"><ele>705.0</ele><time>2026-04-19T09:52:36.621Z</time></trkpt><trkpt lat="38.7833179" lon="16.3859371"><ele>704.5</ele><time>2026-04-19T09:52:37.618Z</time></trkpt><trkpt lat="38.7832373" lon="16.3859631"><ele>704.0</ele><time>2026-04-19T09:52:38.615Z</time></trkpt><trkpt lat="38.7831661" lon="16.3859807"><ele>703.5</ele><time>2026-04-19T09:52:39.607Z</time></trkpt><trkpt lat="38.7831003" lon="16.385999"><ele>703.0</ele><time>2026-04-19T09:52:40.614Z</time></trkpt><trkpt lat="38.7830181" lon="16.3860494"><ele>702.5</ele><time>2026-04-19T09:52:42.612Z</time></trkpt><trkpt lat="38.7829645" lon="16.3861218"><ele>702.0</ele><time>2026-04-19T09:53:45.616Z</time></trkpt><trkpt lat="38.7828644" lon="16.3862553"><ele>702.0</ele><time>2026-04-19T09:54:24.616Z</time></trkpt><trkpt lat="38.7828283" lon="16.386327"><ele>702.0</ele><time>2026-04-19T09:54:30.609Z</time></trkpt><trkpt lat="38.7828021" lon="16.3864144"><ele>702.0</ele><time>2026-04-19T09:54:40.611Z</time></trkpt><trkpt lat="38.7827691" lon="16.3865151"><ele>702.0</ele><time>2026-04-19T09:54:42.616Z</time></trkpt><trkpt lat="38.7827381" lon="16.3866469"><ele>702.0</ele><time>2026-04-19T09:54:44.613Z</time></trkpt><trkpt lat="38.782695" lon="16.3867991"><ele>702.0000000000001</ele><time>2026-04-19T09:54:46.606Z</time></trkpt><trkpt lat="38.7826536" lon="16.3868626"><ele>702.0</ele><time>2026-04-19T09:54:47.605Z</time></trkpt><trkpt lat="38.7825906" lon="16.386905"><ele>702.0</ele><time>2026-04-19T09:54:48.608Z</time></trkpt><trkpt lat="38.7825248" lon="16.3869196"><ele>702.0</ele><time>2026-04-19T09:54:49.605Z</time></trkpt><trkpt lat="38.7824551" lon="16.3869211"><ele>702.0</ele><time>2026-04-19T09:54:50.61Z</time></trkpt><trkpt lat="38.7823905" lon="16.38693"><ele>702.0000000000001</ele><time>2026-04-19T09:54:51.628Z</time></trkpt><trkpt lat="38.7823266" lon="16.3869308"><ele>702.0</ele><time>2026-04-19T09:54:54.61Z</time></trkpt><trkpt lat="38.782238" lon="16.3869266"><ele>702.0</ele><time>2026-04-19T09:54:56.613Z</time></trkpt><trkpt lat="38.7821463" lon="16.3869188"><ele>702.0</ele><time>2026-04-19T09:54:57.611Z</time></trkpt><trkpt lat="38.7820505" lon="16.386898"><ele>702.0</ele><time>2026-04-19T09:54:58.61Z</time></trkpt><trkpt lat="38.7819686" lon="16.3868701"><ele>702.0</ele><time>2026-04-19T09:54:59.626Z</time></trkpt><trkpt lat="38.781905" lon="16.3868456"><ele>702.0</ele><time>2026-04-19T09:55:00.606Z</time></trkpt><trkpt lat="38.7818294" lon="16.3868203"><ele>702.0</ele><time>2026-04-19T09:55:02.608Z</time></trkpt><trkpt lat="38.7817653" lon="16.3868797"><ele>701.6666666666666</ele><time>2026-04-19T09:55:09.621Z</time></trkpt><trkpt lat="38.7817197" lon="16.3869722"><ele>701.3333333333334</ele><time>2026-04-19T09:55:13.612Z</time></trkpt><trkpt lat="38.781675" lon="16.3870665"><ele>701.0</ele><time>2026-04-19T09:55:15.609Z</time></trkpt><trkpt lat="38.7816403" lon="16.3871441"><ele>700.6666666666667</ele><time>2026-04-19T09:55:18.621Z</time></trkpt><trkpt lat="38.781598" lon="16.3872462"><ele>700.3333333333334</ele><time>2026-04-19T09:55:20.608Z</time></trkpt><trkpt lat="38.7815684" lon="16.3873208"><ele>700.0</ele><time>2026-04-19T09:55:21.608Z</time></trkpt><trkpt lat="38.7815232" lon="16.3874749"><ele>700.0</ele><time>2026-04-19T09:55:23.621Z</time></trkpt><trkpt lat="38.7814876" lon="16.3876301"><ele>700.0</ele><time>2026-04-19T09:55:25.63Z</time></trkpt><trkpt lat="38.7814881" lon="16.3877655"><ele>700.0</ele><time>2026-04-19T09:55:27.606Z</time></trkpt><trkpt lat="38.7815058" lon="16.3878901"><ele>700.0</ele><time>2026-04-19T09:55:29.611Z</time></trkpt><trkpt lat="38.7815269" lon="16.3880033"><ele>700.0</ele><time>2026-04-19T09:55:31.623Z</time></trkpt><trkpt lat="38.781538" lon="16.3881062"><ele>699.0</ele><time>2026-04-19T09:55:33.608Z</time></trkpt><trkpt lat="38.7815752" lon="16.3882219"><ele>698.0</ele><time>2026-04-19T09:55:36.618Z</time></trkpt><trkpt lat="38.7816068" lon="16.3883347"><ele>697.0</ele><time>2026-04-19T09:55:38.619Z</time></trkpt><trkpt lat="38.781644" lon="16.3884704"><ele>696.0</ele><time>2026-04-19T09:55:40.615Z</time></trkpt><trkpt lat="38.7816466" lon="16.3886055"><ele>695.0</ele><time>2026-04-19T09:55:42.608Z</time></trkpt><trkpt lat="38.7816356" lon="16.3886988"><ele>695.0</ele><time>2026-04-19T09:55:45.588Z</time></trkpt><trkpt lat="38.7816313" lon="16.3887921"><ele>695.0</ele><time>2026-04-19T09:55:47.608Z</time></trkpt><trkpt lat="38.7816202" lon="16.3889007"><ele>695.0</ele><time>2026-04-19T09:55:50.623Z</time></trkpt><trkpt lat="38.781627" lon="16.3890057"><ele>695.0</ele><time>2026-04-19T09:55:53.61Z</time></trkpt><trkpt lat="38.7816105" lon="16.3890847"><ele>695.0</ele><time>2026-04-19T09:55:59.614Z</time></trkpt><trkpt lat="38.7816119" lon="16.3891827"><ele>695.0</ele><time>2026-04-19T09:56:05.637Z</time></trkpt><trkpt lat="38.7816218" lon="16.3892782"><ele>695.6</ele><time>2026-04-19T09:56:06.607Z</time></trkpt><trkpt lat="38.7815919" lon="16.3893867"><ele>696.2</ele><time>2026-04-19T09:56:10.614Z</time></trkpt><trkpt lat="38.7815334" lon="16.3894585"><ele>696.8</ele><time>2026-04-19T09:56:11.604Z</time></trkpt><trkpt lat="38.781456" lon="16.3895529"><ele>697.4</ele><time>2026-04-19T09:56:12.612Z</time></trkpt><trkpt lat="38.7813875" lon="16.389624"><ele>698.0</ele><time>2026-04-19T09:56:13.604Z</time></trkpt><trkpt lat="38.7813122" lon="16.3896857"><ele>698.0</ele><time>2026-04-19T09:56:14.61Z</time></trkpt><trkpt lat="38.7812201" lon="16.3896909"><ele>698.0</ele><time>2026-04-19T09:56:16.609Z</time></trkpt><trkpt lat="38.7811476" lon="16.3896579"><ele>698.0</ele><time>2026-04-19T09:56:22.609Z</time></trkpt><trkpt lat="38.7810717" lon="16.3896124"><ele>698.0</ele><time>2026-04-19T09:56:27.607Z</time></trkpt><trkpt lat="38.7810079" lon="16.3895939"><ele>698.0</ele><time>2026-04-19T09:56:30.623Z</time></trkpt><trkpt lat="38.7809307" lon="16.3895659"><ele>698.0</ele><time>2026-04-19T09:56:32.621Z</time></trkpt><trkpt lat="38.7808601" lon="16.389551"><ele>698.8</ele><time>2026-04-19T09:56:34.607Z</time></trkpt><trkpt lat="38.7807946" lon="16.3895013"><ele>699.5999999999999</ele><time>2026-04-19T09:56:36.611Z</time></trkpt><trkpt lat="38.780747" lon="16.3894103"><ele>700.4000000000001</ele><time>2026-04-19T09:56:38.611Z</time></trkpt><trkpt lat="38.780697" lon="16.3892996"><ele>701.2</ele><time>2026-04-19T09:56:40.618Z</time></trkpt><trkpt lat="38.7806345" lon="16.3891945"><ele>702.0</ele><time>2026-04-19T09:56:42.616Z</time></trkpt><trkpt lat="38.7805688" lon="16.389098"><ele>702.0</ele><time>2026-04-19T09:56:44.607Z</time></trkpt><trkpt lat="38.7805123" lon="16.3890179"><ele>702.0</ele><time>2026-04-19T09:56:46.615Z</time></trkpt><trkpt lat="38.7804385" lon="16.3889874"><ele>702.0</ele><time>2026-04-19T09:56:51.623Z</time></trkpt><trkpt lat="38.7803713" lon="16.3889694"><ele>702.0</ele><time>2026-04-19T09:56:53.62Z</time></trkpt><trkpt lat="38.7803302" lon="16.3888999"><ele>702.0</ele><time>2026-04-19T09:56:55.609Z</time></trkpt><trkpt lat="38.7802521" lon="16.3888477"><ele>702.0</ele><time>2026-04-19T09:56:57.619Z</time></trkpt><trkpt lat="38.7801756" lon="16.3887588"><ele>701.6666666666666</ele><time>2026-04-19T09:56:58.617Z</time></trkpt><trkpt lat="38.7801037" lon="16.3886793"><ele>701.3333333333334</ele><time>2026-04-19T09:56:59.614Z</time></trkpt><trkpt lat="38.7800481" lon="16.3886327"><ele>701.0</ele><time>2026-04-19T09:57:00.618Z</time></trkpt><trkpt lat="38.7799422" lon="16.3886312"><ele>700.6666666666667</ele><time>2026-04-19T09:57:02.606Z</time></trkpt><trkpt lat="38.7798352" lon="16.3885713"><ele>700.3333333333334</ele><time>2026-04-19T09:57:04.609Z</time></trkpt><trkpt lat="38.7797711" lon="16.3885714"><ele>700.0</ele><time>2026-04-19T09:57:05.614Z</time></trkpt><trkpt lat="38.7796981" lon="16.3885683"><ele>700.0</ele><time>2026-04-19T09:57:06.604Z</time></trkpt><trkpt lat="38.7796187" lon="16.3885705"><ele>700.0</ele><time>2026-04-19T09:57:07.62Z</time></trkpt><trkpt lat="38.7795395" lon="16.3886023"><ele>700.0</ele><time>2026-04-19T09:57:08.61Z</time></trkpt><trkpt lat="38.7794368" lon="16.388595"><ele>700.0</ele><time>2026-04-19T09:57:10.612Z</time></trkpt><trkpt lat="38.7793258" lon="16.3885549"><ele>700.0</ele><time>2026-04-19T09:57:16.61Z</time></trkpt><trkpt lat="38.779267" lon="16.3885039"><ele>701.6</ele><time>2026-04-19T09:57:26.612Z</time></trkpt><trkpt lat="38.7792014" lon="16.3884412"><ele>703.2</ele><time>2026-04-19T09:57:38.609Z</time></trkpt><trkpt lat="38.7790876" lon="16.3883873"><ele>704.8</ele><time>2026-04-19T09:57:47.613Z</time></trkpt><trkpt lat="38.7789884" lon="16.3883289"><ele>706.4</ele><time>2026-04-19T09:58:03.612Z</time></trkpt><trkpt lat="38.7789117" lon="16.3882413"><ele>708.0</ele><time>2026-04-19T09:59:26.608Z</time></trkpt><trkpt lat="38.7788276" lon="16.3882238"><ele>708.0</ele><time>2026-04-19T10:02:51.62Z</time></trkpt><trkpt lat="38.778777" lon="16.3881467"><ele>708.0</ele><time>2026-04-19T10:02:58.605Z</time></trkpt><trkpt lat="38.7787448" lon="16.3880766"><ele>708.0</ele><time>2026-04-19T10:03:01.613Z</time></trkpt><trkpt lat="38.7787178" lon="16.3879935"><ele>708.0</ele><time>2026-04-19T10:03:05.607Z</time></trkpt><trkpt lat="38.7786522" lon="16.3879648"><ele>708.0</ele><time>2026-04-19T10:03:16.609Z</time></trkpt><trkpt lat="38.7785887" lon="16.3879309"><ele>708.0</ele><time>2026-04-19T10:03:21.613Z</time></trkpt><trkpt lat="38.7785889" lon="16.3878488"><ele>708.0</ele><time>2026-04-19T10:03:49.611Z</time></trkpt><trkpt lat="38.7786057" lon="16.387757"><ele>708.1666666666666</ele><time>2026-04-19T10:03:53.61Z</time></trkpt><trkpt lat="38.7786028" lon="16.387664"><ele>708.3333333333334</ele><time>2026-04-19T10:04:04.613Z</time></trkpt><trkpt lat="38.7785581" lon="16.38759"><ele>708.5</ele><time>2026-04-19T10:04:08.615Z</time></trkpt><trkpt lat="38.778518" lon="16.3875028"><ele>708.6666666666667</ele><time>2026-04-19T10:04:11.622Z</time></trkpt><trkpt lat="38.7784533" lon="16.3874039"><ele>708.8333333333334</ele><time>2026-04-19T10:04:13.611Z</time></trkpt><trkpt lat="38.7783976" lon="16.3873159"><ele>709.0</ele><time>2026-04-19T10:04:15.613Z</time></trkpt><trkpt lat="38.7783448" lon="16.387263"><ele>709.0</ele><time>2026-04-19T10:04:18.613Z</time></trkpt><trkpt lat="38.7782813" lon="16.3871836"><ele>709.0</ele><time>2026-04-19T10:04:21.613Z</time></trkpt><trkpt lat="38.7782297" lon="16.3871143"><ele>709.0</ele><time>2026-04-19T10:04:23.609Z</time></trkpt><trkpt lat="38.778163" lon="16.387076"><ele>709.0</ele><time>2026-04-19T10:04:31.606Z</time></trkpt><trkpt lat="38.77808" lon="16.3870872"><ele>709.0</ele><time>2026-04-19T10:04:35.604Z</time></trkpt><trkpt lat="38.7780089" lon="16.3870703"><ele>709.0</ele><time>2026-04-19T10:04:40.607Z</time></trkpt><trkpt lat="38.7779499" lon="16.3870268"><ele>709.8571428571429</ele><time>2026-04-19T10:04:45.607Z</time></trkpt><trkpt lat="38.7778857" lon="16.3869721"><ele>710.7142857142858</ele><time>2026-04-19T10:04:49.619Z</time></trkpt><trkpt lat="38.7778392" lon="16.3868923"><ele>711.5714285714287</ele><time>2026-04-19T10:04:53.611Z</time></trkpt><trkpt lat="38.7777876" lon="16.3868319"><ele>712.4285714285714</ele><time>2026-04-19T10:04:56.608Z</time></trkpt><trkpt lat="38.7777286" lon="16.3868001"><ele>713.2857142857142</ele><time>2026-04-19T10:05:03.623Z</time></trkpt><trkpt lat="38.7776638" lon="16.3867468"><ele>714.1428571428572</ele><time>2026-04-19T10:05:10.604Z</time></trkpt><trkpt lat="38.7776485" lon="16.3866654"><ele>715.0</ele><time>2026-04-19T10:05:13.616Z</time></trkpt><trkpt lat="38.7776723" lon="16.3865556"><ele>715.0</ele><time>2026-04-19T10:05:16.623Z</time></trkpt><trkpt lat="38.7776496" lon="16.3864724"><ele>715.0</ele><time>2026-04-19T10:05:18.612Z</time></trkpt><trkpt lat="38.7776306" lon="16.3863917"><ele>715.0</ele><time>2026-04-19T10:05:20.616Z</time></trkpt><trkpt lat="38.7775645" lon="16.3863415"><ele>715.0</ele><time>2026-04-19T10:05:23.61Z</time></trkpt><trkpt lat="38.7774933" lon="16.3863484"><ele>715.0</ele><time>2026-04-19T10:05:26.608Z</time></trkpt><trkpt lat="38.7774235" lon="16.3862578"><ele>715.0</ele><time>2026-04-19T10:05:29.625Z</time></trkpt><trkpt lat="38.7773712" lon="16.386184"><ele>713.6666666666667</ele><time>2026-04-19T10:05:31.615Z</time></trkpt><trkpt lat="38.7773225" lon="16.3860967"><ele>712.3333333333334</ele><time>2026-04-19T10:05:35.616Z</time></trkpt><trkpt lat="38.7772826" lon="16.3860244"><ele>711.0</ele><time>2026-04-19T10:05:38.609Z</time></trkpt><trkpt lat="38.7772354" lon="16.3859305"><ele>709.6666666666666</ele><time>2026-04-19T10:05:40.611Z</time></trkpt><trkpt lat="38.7771769" lon="16.3858277"><ele>708.3333333333333</ele><time>2026-04-19T10:05:42.609Z</time></trkpt><trkpt lat="38.7771317" lon="16.38572"><ele>707.0</ele><time>2026-04-19T10:05:44.61Z</time></trkpt><trkpt lat="38.7770715" lon="16.3856486"><ele>707.0</ele><time>2026-04-19T10:05:48.618Z</time></trkpt><trkpt lat="38.7770113" lon="16.3856067"><ele>707.0</ele><time>2026-04-19T10:05:51.608Z</time></trkpt><trkpt lat="38.776944" lon="16.3855655"><ele>707.0</ele><time>2026-04-19T10:05:55.608Z</time></trkpt><trkpt lat="38.7769456" lon="16.385472"><ele>707.0</ele><time>2026-04-19T10:05:59.622Z</time></trkpt><trkpt lat="38.7769061" lon="16.3853556"><ele>707.0</ele><time>2026-04-19T10:06:02.607Z</time></trkpt><trkpt lat="38.7768684" lon="16.3852488"><ele>707.0</ele><time>2026-04-19T10:06:04.614Z</time></trkpt><trkpt lat="38.7768498" lon="16.3851503"><ele>707.6666666666666</ele><time>2026-04-19T10:06:07.608Z</time></trkpt><trkpt lat="38.7768351" lon="16.3850613"><ele>708.3333333333333</ele><time>2026-04-19T10:06:10.609Z</time></trkpt><trkpt lat="38.7767802" lon="16.3849964"><ele>709.0</ele><time>2026-04-19T10:06:12.614Z</time></trkpt><trkpt lat="38.776716" lon="16.3849341"><ele>709.6666666666666</ele><time>2026-04-19T10:06:15.613Z</time></trkpt><trkpt lat="38.776654" lon="16.3849048"><ele>710.3333333333334</ele><time>2026-04-19T10:06:17.612Z</time></trkpt><trkpt lat="38.7765669" lon="16.384888"><ele>711.0</ele><time>2026-04-19T10:06:20.609Z</time></trkpt><trkpt lat="38.7765028" lon="16.3848452"><ele>711.0</ele><time>2026-04-19T10:06:22.613Z</time></trkpt><trkpt lat="38.7764321" lon="16.3848322"><ele>711.0</ele><time>2026-04-19T10:06:25.608Z</time></trkpt><trkpt lat="38.7763512" lon="16.3847865"><ele>711.0</ele><time>2026-04-19T10:06:29.611Z</time></trkpt><trkpt lat="38.7762738" lon="16.3847368"><ele>711.0</ele><time>2026-04-19T10:06:31.61Z</time></trkpt><trkpt lat="38.7762052" lon="16.3847144"><ele>711.0</ele><time>2026-04-19T10:06:33.613Z</time></trkpt><trkpt lat="38.7761445" lon="16.3846823"><ele>711.0</ele><time>2026-04-19T10:06:36.613Z</time></trkpt><trkpt lat="38.7761026" lon="16.3846103"><ele>711.0</ele><time>2026-04-19T10:06:42.614Z</time></trkpt><trkpt lat="38.7760252" lon="16.3845478"><ele>711.0</ele><time>2026-04-19T10:06:47.606Z</time></trkpt><trkpt lat="38.7759382" lon="16.3845158"><ele>711.0</ele><time>2026-04-19T10:06:51.621Z</time></trkpt><trkpt lat="38.7758559" lon="16.3844553"><ele>711.0</ele><time>2026-04-19T10:06:54.61Z</time></trkpt><trkpt lat="38.7757839" lon="16.3844156"><ele>711.0</ele><time>2026-04-19T10:06:57.622Z</time></trkpt><trkpt lat="38.7757053" lon="16.3844166"><ele>711.0</ele><time>2026-04-19T10:07:02.606Z</time></trkpt><trkpt lat="38.7756405" lon="16.3844142"><ele>711.0</ele><time>2026-04-19T10:07:06.617Z</time></trkpt><trkpt lat="38.775563" lon="16.3844799"><ele>711.0</ele><time>2026-04-19T10:07:11.608Z</time></trkpt><trkpt lat="38.7755141" lon="16.3845368"><ele>711.0</ele><time>2026-04-19T10:07:13.606Z</time></trkpt><trkpt lat="38.7754539" lon="16.3845849"><ele>711.0</ele><time>2026-04-19T10:07:16.608Z</time></trkpt><trkpt lat="38.7753775" lon="16.3845889"><ele>711.0</ele><time>2026-04-19T10:07:20.61Z</time></trkpt><trkpt lat="38.775294" lon="16.3846153"><ele>711.0</ele><time>2026-04-19T10:07:25.627Z</time></trkpt><trkpt lat="38.7752164" lon="16.3846436"><ele>711.2857142857143</ele><time>2026-04-19T10:07:28.607Z</time></trkpt><trkpt lat="38.7751413" lon="16.3846573"><ele>711.5714285714286</ele><time>2026-04-19T10:07:32.613Z</time></trkpt><trkpt lat="38.7750853" lon="16.3846956"><ele>711.8571428571429</ele><time>2026-04-19T10:07:36.61Z</time></trkpt><trkpt lat="38.7750211" lon="16.3847375"><ele>712.1428571428571</ele><time>2026-04-19T10:07:41.615Z</time></trkpt><trkpt lat="38.7749502" lon="16.3847668"><ele>712.4285714285714</ele><time>2026-04-19T10:07:43.617Z</time></trkpt><trkpt lat="38.7748659" lon="16.3847274"><ele>712.7142857142857</ele><time>2026-04-19T10:07:46.607Z</time></trkpt><trkpt lat="38.7747967" lon="16.3847264"><ele>713.0</ele><time>2026-04-19T10:07:49.608Z</time></trkpt><trkpt lat="38.7747251" lon="16.3846702"><ele>713.0</ele><time>2026-04-19T10:07:51.607Z</time></trkpt><trkpt lat="38.7746573" lon="16.3846477"><ele>713.0</ele><time>2026-04-19T10:07:53.614Z</time></trkpt><trkpt lat="38.7745842" lon="16.3846622"><ele>713.0</ele><time>2026-04-19T10:07:55.616Z</time></trkpt><trkpt lat="38.7745027" lon="16.3846765"><ele>713.0</ele><time>2026-04-19T10:07:57.604Z</time></trkpt><trkpt lat="38.7744088" lon="16.3846409"><ele>713.0</ele><time>2026-04-19T10:07:59.614Z</time></trkpt><trkpt lat="38.7743769" lon="16.3845265"><ele>713.0</ele><time>2026-04-19T10:08:02.61Z</time></trkpt><trkpt lat="38.7743413" lon="16.3844494"><ele>714.1428571428571</ele><time>2026-04-19T10:08:04.611Z</time></trkpt><trkpt lat="38.7743036" lon="16.384364"><ele>715.2857142857143</ele><time>2026-04-19T10:08:06.609Z</time></trkpt><trkpt lat="38.7742362" lon="16.3843274"><ele>716.4285714285714</ele><time>2026-04-19T10:08:10.611Z</time></trkpt><trkpt lat="38.7741618" lon="16.3843531"><ele>717.5714285714286</ele><time>2026-04-19T10:08:15.613Z</time></trkpt><trkpt lat="38.7740986" lon="16.3843648"><ele>718.7142857142858</ele><time>2026-04-19T10:08:18.617Z</time></trkpt><trkpt lat="38.7740399" lon="16.384405"><ele>719.8571428571429</ele><time>2026-04-19T10:08:21.611Z</time></trkpt><trkpt lat="38.7739683" lon="16.3844268"><ele>721.0</ele><time>2026-04-19T10:08:28.616Z</time></trkpt><trkpt lat="38.7738961" lon="16.384426"><ele>721.0</ele><time>2026-04-19T10:08:32.607Z</time></trkpt><trkpt lat="38.7738306" lon="16.3844368"><ele>721.0</ele><time>2026-04-19T10:08:35.615Z</time></trkpt><trkpt lat="38.7737668" lon="16.3844615"><ele>721.0</ele><time>2026-04-19T10:08:41.612Z</time></trkpt><trkpt lat="38.7736989" lon="16.3844819"><ele>721.0</ele><time>2026-04-19T10:08:58.607Z</time></trkpt><trkpt lat="38.773632" lon="16.384508"><ele>721.0</ele><time>2026-04-19T10:09:04.622Z</time></trkpt><trkpt lat="38.7735344" lon="16.3844953"><ele>721.0</ele><time>2026-04-19T10:09:22.611Z</time></trkpt><trkpt lat="38.7734901" lon="16.3845624"><ele>721.0</ele><time>2026-04-19T10:09:27.617Z</time></trkpt><trkpt lat="38.7734384" lon="16.384615"><ele>721.4285714285714</ele><time>2026-04-19T10:09:31.611Z</time></trkpt><trkpt lat="38.7733682" lon="16.3846231"><ele>721.8571428571429</ele><time>2026-04-19T10:09:34.616Z</time></trkpt><trkpt lat="38.7732952" lon="16.3846111"><ele>722.2857142857142</ele><time>2026-04-19T10:09:38.611Z</time></trkpt><trkpt lat="38.7732237" lon="16.3846148"><ele>722.7142857142858</ele><time>2026-04-19T10:09:41.606Z</time></trkpt><trkpt lat="38.77313" lon="16.3846051"><ele>723.1428571428571</ele><time>2026-04-19T10:09:44.614Z</time></trkpt><trkpt lat="38.7730666" lon="16.3846049"><ele>723.5714285714286</ele><time>2026-04-19T10:09:48.613Z</time></trkpt><trkpt lat="38.7731384" lon="16.3846122"><ele>724.0</ele><time>2026-04-19T10:10:09.608Z</time></trkpt><trkpt lat="38.7732166" lon="16.3846124"><ele>724.0</ele><time>2026-04-19T10:10:13.621Z</time></trkpt><trkpt lat="38.7732828" lon="16.3846153"><ele>724.0</ele><time>2026-04-19T10:10:19.607Z</time></trkpt><trkpt lat="38.7733613" lon="16.384639"><ele>724.0</ele><time>2026-04-19T10:10:23.622Z</time></trkpt><trkpt lat="38.7734303" lon="16.3846442"><ele>724.0</ele><time>2026-04-19T10:10:27.614Z</time></trkpt><trkpt lat="38.7733529" lon="16.3846469"><ele>724.0</ele><time>2026-04-19T10:13:17.613Z</time></trkpt><trkpt lat="38.7732696" lon="16.3846143"><ele>724.0</ele><time>2026-04-19T10:13:21.608Z</time></trkpt><trkpt lat="38.7732031" lon="16.3846307"><ele>724.0</ele><time>2026-04-19T10:13:24.611Z</time></trkpt><trkpt lat="38.7731034" lon="16.3846063"><ele>724.0</ele><time>2026-04-19T10:13:27.613Z</time></trkpt><trkpt lat="38.7730237" lon="16.3845924"><ele>724.0</ele><time>2026-04-19T10:13:29.606Z</time></trkpt><trkpt lat="38.7728932" lon="16.3846506"><ele>724.0</ele><time>2026-04-19T10:13:31.61Z</time></trkpt><trkpt lat="38.7728229" lon="16.3846669"><ele>724.0</ele><time>2026-04-19T10:13:32.62Z</time></trkpt><trkpt lat="38.772763" lon="16.384716"><ele>724.0</ele><time>2026-04-19T10:13:33.607Z</time></trkpt><trkpt lat="38.7726955" lon="16.3847967"><ele>724.8000000000001</ele><time>2026-04-19T10:13:35.613Z</time></trkpt><trkpt lat="38.7726544" lon="16.3848735"><ele>725.6</ele><time>2026-04-19T10:13:37.616Z</time></trkpt><trkpt lat="38.7725837" lon="16.3849981"><ele>726.4</ele><time>2026-04-19T10:13:39.612Z</time></trkpt><trkpt lat="38.7725059" lon="16.3850912"><ele>727.2</ele><time>2026-04-19T10:13:41.608Z</time></trkpt><trkpt lat="38.7724279" lon="16.3851879"><ele>728.0</ele><time>2026-04-19T10:13:43.614Z</time></trkpt><trkpt lat="38.7723306" lon="16.3853142"><ele>728.0</ele><time>2026-04-19T10:13:45.611Z</time></trkpt><trkpt lat="38.7722602" lon="16.3853818"><ele>728.0</ele><time>2026-04-19T10:13:46.611Z</time></trkpt><trkpt lat="38.7722018" lon="16.3854252"><ele>728.0</ele><time>2026-04-19T10:13:47.611Z</time></trkpt><trkpt lat="38.7720965" lon="16.3855565"><ele>728.0</ele><time>2026-04-19T10:13:49.624Z</time></trkpt><trkpt lat="38.7720441" lon="16.3856253"><ele>728.0</ele><time>2026-04-19T10:13:50.616Z</time></trkpt><trkpt lat="38.7720079" lon="16.3857097"><ele>729.5</ele><time>2026-04-19T10:13:51.607Z</time></trkpt><trkpt lat="38.7719647" lon="16.3857951"><ele>731.0</ele><time>2026-04-19T10:13:52.606Z</time></trkpt><trkpt lat="38.7719203" lon="16.3858701"><ele>732.5</ele><time>2026-04-19T10:13:53.605Z</time></trkpt><trkpt lat="38.7718659" lon="16.3859414"><ele>734.0</ele><time>2026-04-19T10:13:54.608Z</time></trkpt><trkpt lat="38.7718148" lon="16.3860007"><ele>735.5</ele><time>2026-04-19T10:13:55.608Z</time></trkpt><trkpt lat="38.7717603" lon="16.3860507"><ele>737.0</ele><time>2026-04-19T10:13:56.63Z</time></trkpt><trkpt lat="38.7716592" lon="16.3861161"><ele>737.0</ele><time>2026-04-19T10:13:58.61Z</time></trkpt><trkpt lat="38.7716819" lon="16.3862268"><ele>737.0</ele><time>2026-04-19T10:14:01.611Z</time></trkpt><trkpt lat="38.771754" lon="16.3862559"><ele>737.0</ele><time>2026-04-19T10:14:02.617Z</time></trkpt><trkpt lat="38.7718363" lon="16.3862855"><ele>737.0</ele><time>2026-04-19T10:14:03.614Z</time></trkpt><trkpt lat="38.7719155" lon="16.3863333"><ele>737.0</ele><time>2026-04-19T10:14:04.612Z</time></trkpt><trkpt lat="38.7719927" lon="16.3863917"><ele>737.0</ele><time>2026-04-19T10:14:05.61Z</time></trkpt><trkpt lat="38.7720633" lon="16.3864255"><ele>740.1666666666666</ele><time>2026-04-19T10:14:06.607Z</time></trkpt><trkpt lat="38.7721671" lon="16.3864403"><ele>743.3333333333333</ele><time>2026-04-19T10:14:08.606Z</time></trkpt><trkpt lat="38.7722411" lon="16.3864427"><ele>746.5</ele><time>2026-04-19T10:14:09.612Z</time></trkpt><trkpt lat="38.7723174" lon="16.3864575"><ele>749.6666666666666</ele><time>2026-04-19T10:14:10.614Z</time></trkpt><trkpt lat="38.7723868" lon="16.3864881"><ele>752.8333333333334</ele><time>2026-04-19T10:14:11.607Z</time></trkpt><trkpt lat="38.7724487" lon="16.3865466"><ele>756.0</ele><time>2026-04-19T10:14:12.621Z</time></trkpt><trkpt lat="38.7725076" lon="16.3866109"><ele>756.0</ele><time>2026-04-19T10:14:13.612Z</time></trkpt><trkpt lat="38.7725719" lon="16.3866698"><ele>756.0</ele><time>2026-04-19T10:14:14.612Z</time></trkpt><trkpt lat="38.7726482" lon="16.38677"><ele>756.0</ele><time>2026-04-19T10:14:16.604Z</time></trkpt><trkpt lat="38.7726605" lon="16.3868522"><ele>756.0</ele><time>2026-04-19T10:14:17.615Z</time></trkpt><trkpt lat="38.7726678" lon="16.3869474"><ele>756.0</ele><time>2026-04-19T10:14:18.617Z</time></trkpt><trkpt lat="38.7726691" lon="16.3870299"><ele>756.0</ele><time>2026-04-19T10:14:19.611Z</time></trkpt><trkpt lat="38.7726878" lon="16.3871824"><ele>758.4285714285714</ele><time>2026-04-19T10:14:21.611Z</time></trkpt><trkpt lat="38.7727045" lon="16.3872753"><ele>760.8571428571429</ele><time>2026-04-19T10:14:22.606Z</time></trkpt><trkpt lat="38.7727096" lon="16.3873629"><ele>763.2857142857142</ele><time>2026-04-19T10:14:23.607Z</time></trkpt><trkpt lat="38.7727139" lon="16.3874579"><ele>765.7142857142858</ele><time>2026-04-19T10:14:24.617Z</time></trkpt><trkpt lat="38.7727232" lon="16.3875605"><ele>768.1428571428571</ele><time>2026-04-19T10:14:25.617Z</time></trkpt><trkpt lat="38.7727305" lon="16.3876429"><ele>770.5714285714286</ele><time>2026-04-19T10:14:26.629Z</time></trkpt><trkpt lat="38.772748" lon="16.387724"><ele>773.0</ele><time>2026-04-19T10:14:28.609Z</time></trkpt><trkpt lat="38.7727665" lon="16.3878039"><ele>773.0</ele><time>2026-04-19T10:14:32.678Z</time></trkpt><trkpt lat="38.7727608" lon="16.3879156"><ele>773.0</ele><time>2026-04-19T10:14:38.614Z</time></trkpt><trkpt lat="38.7727813" lon="16.3880271"><ele>773.0</ele><time>2026-04-19T10:14:39.617Z</time></trkpt><trkpt lat="38.7728046" lon="16.3881712"><ele>773.0</ele><time>2026-04-19T10:14:40.608Z</time></trkpt><trkpt lat="38.772823" lon="16.3883394"><ele>773.0</ele><time>2026-04-19T10:14:41.61Z</time></trkpt><trkpt lat="38.7728365" lon="16.3884918"><ele>775.0</ele><time>2026-04-19T10:14:42.62Z</time></trkpt><trkpt lat="38.7728464" lon="16.3886257"><ele>777.0</ele><time>2026-04-19T10:14:43.607Z</time></trkpt><trkpt lat="38.7728548" lon="16.3887519"><ele>779.0</ele><time>2026-04-19T10:14:44.628Z</time></trkpt><trkpt lat="38.7728664" lon="16.3888774"><ele>781.0</ele><time>2026-04-19T10:14:45.606Z</time></trkpt><trkpt lat="38.7728778" lon="16.3890171"><ele>783.0</ele><time>2026-04-19T10:14:46.606Z</time></trkpt><trkpt lat="38.7728935" lon="16.3891569"><ele>784.8333333333334</ele><time>2026-04-19T10:14:47.608Z</time></trkpt><trkpt lat="38.7729088" lon="16.3892817"><ele>786.6666666666667</ele><time>2026-04-19T10:14:48.608Z</time></trkpt><trkpt lat="38.772927" lon="16.3893815"><ele>788.5</ele><time>2026-04-19T10:14:49.607Z</time></trkpt><trkpt lat="38.7729254" lon="16.3895377"><ele>790.3333333333334</ele><time>2026-04-19T10:14:51.604Z</time></trkpt><trkpt lat="38.7728987" lon="16.3896112"><ele>792.1666666666667</ele><time>2026-04-19T10:14:52.636Z</time></trkpt><trkpt lat="38.7728557" lon="16.3896839"><ele>794.0</ele><time>2026-04-19T10:14:53.606Z</time></trkpt><trkpt lat="38.772802" lon="16.3897657"><ele>796.2</ele><time>2026-04-19T10:14:54.606Z</time></trkpt><trkpt lat="38.7727436" lon="16.3898471"><ele>798.4000000000001</ele><time>2026-04-19T10:14:55.612Z</time></trkpt><trkpt lat="38.7726768" lon="16.3899375"><ele>800.6</ele><time>2026-04-19T10:14:56.608Z</time></trkpt><trkpt lat="38.772601" lon="16.3900358"><ele>802.8</ele><time>2026-04-19T10:14:57.612Z</time></trkpt><trkpt lat="38.7725112" lon="16.39013"><ele>805.0</ele><time>2026-04-19T10:14:58.61Z</time></trkpt><trkpt lat="38.7724138" lon="16.3902202"><ele>805.0</ele><time>2026-04-19T10:14:59.627Z</time></trkpt><trkpt lat="38.7723071" lon="16.3903048"><ele>805.0</ele><time>2026-04-19T10:15:00.608Z</time></trkpt><trkpt lat="38.7721944" lon="16.3903915"><ele>805.0</ele><time>2026-04-19T10:15:01.611Z</time></trkpt><trkpt lat="38.7720961" lon="16.3904639"><ele>805.0</ele><time>2026-04-19T10:15:02.607Z</time></trkpt><trkpt lat="38.7720148" lon="16.3905294"><ele>806.0</ele><time>2026-04-19T10:15:03.608Z</time></trkpt><trkpt lat="38.7719429" lon="16.3906031"><ele>807.0</ele><time>2026-04-19T10:15:04.605Z</time></trkpt><trkpt lat="38.7718654" lon="16.3906771"><ele>808.0</ele><time>2026-04-19T10:15:05.615Z</time></trkpt><trkpt lat="38.7717822" lon="16.3907506"><ele>809.0</ele><time>2026-04-19T10:15:06.608Z</time></trkpt><trkpt lat="38.7716808" lon="16.390827"><ele>810.0</ele><time>2026-04-19T10:15:07.607Z</time></trkpt><trkpt lat="38.7715562" lon="16.3909129"><ele>810.0</ele><time>2026-04-19T10:15:08.607Z</time></trkpt><trkpt lat="38.7714293" lon="16.3909978"><ele>810.0</ele><time>2026-04-19T10:15:09.61Z</time></trkpt><trkpt lat="38.7713159" lon="16.3910736"><ele>810.0</ele><time>2026-04-19T10:15:10.617Z</time></trkpt><trkpt lat="38.7712148" lon="16.3911465"><ele>810.0</ele><time>2026-04-19T10:15:11.609Z</time></trkpt><trkpt lat="38.7711257" lon="16.3912187"><ele>810.0</ele><time>2026-04-19T10:15:12.613Z</time></trkpt><trkpt lat="38.7710454" lon="16.3912917"><ele>810.0</ele><time>2026-04-19T10:15:13.604Z</time></trkpt><trkpt lat="38.7709608" lon="16.3913711"><ele>810.0</ele><time>2026-04-19T10:15:14.611Z</time></trkpt><trkpt lat="38.7708952" lon="16.391455"><ele>810.0</ele><time>2026-04-19T10:15:15.606Z</time></trkpt><trkpt lat="38.7708348" lon="16.3915512"><ele>810.0</ele><time>2026-04-19T10:15:16.605Z</time></trkpt><trkpt lat="38.7707895" lon="16.3916552"><ele>811.2</ele><time>2026-04-19T10:15:17.607Z</time></trkpt><trkpt lat="38.7707757" lon="16.3917689"><ele>812.4</ele><time>2026-04-19T10:15:18.604Z</time></trkpt><trkpt lat="38.7707605" lon="16.3919009"><ele>813.5999999999999</ele><time>2026-04-19T10:15:19.617Z</time></trkpt><trkpt lat="38.7707363" lon="16.3920266"><ele>814.8</ele><time>2026-04-19T10:15:20.607Z</time></trkpt><trkpt lat="38.7707094" lon="16.3921037"><ele>816.0</ele><time>2026-04-19T10:15:21.609Z</time></trkpt><trkpt lat="38.7706003" lon="16.3920858"><ele>816.0</ele><time>2026-04-19T10:15:23.611Z</time></trkpt><trkpt lat="38.7705103" lon="16.3920325"><ele>816.0</ele><time>2026-04-19T10:15:24.611Z</time></trkpt><trkpt lat="38.7704249" lon="16.3919633"><ele>816.0</ele><time>2026-04-19T10:15:25.607Z</time></trkpt><trkpt lat="38.7703391" lon="16.3918958"><ele>816.0</ele><time>2026-04-19T10:15:26.609Z</time></trkpt><trkpt lat="38.7702481" lon="16.3918381"><ele>816.0</ele><time>2026-04-19T10:15:27.606Z</time></trkpt><trkpt lat="38.7701379" lon="16.3918053"><ele>816.8</ele><time>2026-04-19T10:15:28.61Z</time></trkpt><trkpt lat="38.7700186" lon="16.3918089"><ele>817.5999999999999</ele><time>2026-04-19T10:15:29.607Z</time></trkpt><trkpt lat="38.7699209" lon="16.3918288"><ele>818.4</ele><time>2026-04-19T10:15:30.613Z</time></trkpt><trkpt lat="38.7698554" lon="16.3918704"><ele>819.2</ele><time>2026-04-19T10:15:31.609Z</time></trkpt><trkpt lat="38.7697801" lon="16.3919396"><ele>820.0</ele><time>2026-04-19T10:15:33.611Z</time></trkpt><trkpt lat="38.7697193" lon="16.3920359"><ele>820.0</ele><time>2026-04-19T10:15:36.611Z</time></trkpt><trkpt lat="38.7696282" lon="16.3920753"><ele>820.0</ele><time>2026-04-19T10:15:38.617Z</time></trkpt><trkpt lat="38.7695575" lon="16.39205"><ele>820.0</ele><time>2026-04-19T10:15:39.609Z</time></trkpt><trkpt lat="38.7694705" lon="16.3920079"><ele>820.0</ele><time>2026-04-19T10:15:40.609Z</time></trkpt><trkpt lat="38.7694047" lon="16.3919756"><ele>820.0</ele><time>2026-04-19T10:15:41.616Z</time></trkpt><trkpt lat="38.7692944" lon="16.3919217"><ele>819.0</ele><time>2026-04-19T10:15:43.611Z</time></trkpt><trkpt lat="38.7692158" lon="16.3918501"><ele>818.0</ele><time>2026-04-19T10:15:45.613Z</time></trkpt><trkpt lat="38.7692318" lon="16.3917226"><ele>817.0</ele><time>2026-04-19T10:15:47.608Z</time></trkpt><trkpt lat="38.7692477" lon="16.3916024"><ele>816.0</ele><time>2026-04-19T10:15:49.607Z</time></trkpt><trkpt lat="38.7692441" lon="16.3914868"><ele>815.0</ele><time>2026-04-19T10:15:51.608Z</time></trkpt><trkpt lat="38.7692063" lon="16.3913397"><ele>815.0</ele><time>2026-04-19T10:15:54.616Z</time></trkpt><trkpt lat="38.7691289" lon="16.3912797"><ele>815.0</ele><time>2026-04-19T10:15:56.72Z</time></trkpt><trkpt lat="38.7690118" lon="16.3913128"><ele>815.0</ele><time>2026-04-19T10:15:58.621Z</time></trkpt><trkpt lat="38.7689395" lon="16.3913648"><ele>815.0</ele><time>2026-04-19T10:15:59.612Z</time></trkpt><trkpt lat="38.7688408" lon="16.3914281"><ele>815.0</ele><time>2026-04-19T10:16:01.604Z</time></trkpt><trkpt lat="38.7687768" lon="16.3914307"><ele>815.0000000000001</ele><time>2026-04-19T10:16:02.61Z</time></trkpt><trkpt lat="38.7687041" lon="16.3914204"><ele>815.0</ele><time>2026-04-19T10:16:03.612Z</time></trkpt><trkpt lat="38.7686377" lon="16.391375"><ele>815.0</ele><time>2026-04-19T10:16:04.622Z</time></trkpt><trkpt lat="38.7685759" lon="16.3913148"><ele>815.0</ele><time>2026-04-19T10:16:05.616Z</time></trkpt><trkpt lat="38.7685266" lon="16.391258"><ele>815.0000000000001</ele><time>2026-04-19T10:16:06.611Z</time></trkpt><trkpt lat="38.7684552" lon="16.3911852"><ele>815.0</ele><time>2026-04-19T10:16:08.611Z</time></trkpt><trkpt lat="38.7683433" lon="16.3911118"><ele>813.0000000000001</ele><time>2026-04-19T10:16:48.622Z</time></trkpt><trkpt lat="38.7682598" lon="16.3910503"><ele>811.0</ele><time>2026-04-19T10:16:51.609Z</time></trkpt><trkpt lat="38.768194" lon="16.3910062"><ele>809.0</ele><time>2026-04-19T10:16:52.614Z</time></trkpt><trkpt lat="38.7680872" lon="16.3909606"><ele>807.0</ele><time>2026-04-19T10:16:54.608Z</time></trkpt><trkpt lat="38.7680105" lon="16.3909322"><ele>805.0000000000001</ele><time>2026-04-19T10:16:56.617Z</time></trkpt><trkpt lat="38.7679578" lon="16.3908499"><ele>803.0</ele><time>2026-04-19T10:16:58.609Z</time></trkpt><trkpt lat="38.7679001" lon="16.3907081"><ele>803.0000000000001</ele><time>2026-04-19T10:17:00.613Z</time></trkpt><trkpt lat="38.7678226" lon="16.3905961"><ele>803.0</ele><time>2026-04-19T10:17:02.605Z</time></trkpt><trkpt lat="38.7677634" lon="16.3905523"><ele>803.0</ele><time>2026-04-19T10:17:03.606Z</time></trkpt><trkpt lat="38.7676977" lon="16.3905646"><ele>803.0</ele><time>2026-04-19T10:17:04.606Z</time></trkpt><trkpt lat="38.767576" lon="16.3905418"><ele>803.0000000000001</ele><time>2026-04-19T10:17:06.611Z</time></trkpt><trkpt lat="38.7675072" lon="16.3905179"><ele>803.0</ele><time>2026-04-19T10:17:07.61Z</time></trkpt><trkpt lat="38.7674354" lon="16.3905019"><ele>801.6666666666667</ele><time>2026-04-19T10:17:08.604Z</time></trkpt><trkpt lat="38.7673639" lon="16.3904782"><ele>800.3333333333334</ele><time>2026-04-19T10:17:09.605Z</time></trkpt><trkpt lat="38.7672944" lon="16.3904623"><ele>799.0</ele><time>2026-04-19T10:17:10.608Z</time></trkpt><trkpt lat="38.7672226" lon="16.3904472"><ele>797.6666666666667</ele><time>2026-04-19T10:17:11.606Z</time></trkpt><trkpt lat="38.7671158" lon="16.3904329"><ele>796.3333333333334</ele><time>2026-04-19T10:17:13.607Z</time></trkpt><trkpt lat="38.7670393" lon="16.3903964"><ele>795.0</ele><time>2026-04-19T10:17:16.614Z</time></trkpt><trkpt lat="38.7669546" lon="16.3903517"><ele>795.0</ele><time>2026-04-19T10:17:19.621Z</time></trkpt><trkpt lat="38.7668659" lon="16.3903333"><ele>795.0</ele><time>2026-04-19T10:17:21.608Z</time></trkpt><trkpt lat="38.7667771" lon="16.3903332"><ele>795.0</ele><time>2026-04-19T10:17:24.612Z</time></trkpt><trkpt lat="38.7667098" lon="16.3902584"><ele>795.0</ele><time>2026-04-19T10:17:26.605Z</time></trkpt><trkpt lat="38.7666271" lon="16.3901403"><ele>795.0</ele><time>2026-04-19T10:17:28.613Z</time></trkpt><trkpt lat="38.766572" lon="16.3900834"><ele>796.1666666666666</ele><time>2026-04-19T10:17:29.604Z</time></trkpt><trkpt lat="38.766521" lon="16.3900277"><ele>797.3333333333333</ele><time>2026-04-19T10:17:30.62Z</time></trkpt><trkpt lat="38.7664911" lon="16.3899507"><ele>798.5</ele><time>2026-04-19T10:17:31.61Z</time></trkpt><trkpt lat="38.7665" lon="16.3898602"><ele>799.6666666666666</ele><time>2026-04-19T10:17:32.609Z</time></trkpt><trkpt lat="38.7665136" lon="16.3897759"><ele>800.8333333333333</ele><time>2026-04-19T10:17:33.613Z</time></trkpt><trkpt lat="38.7665157" lon="16.3896454"><ele>802.0</ele><time>2026-04-19T10:17:35.603Z</time></trkpt><trkpt lat="38.7665223" lon="16.3895226"><ele>802.0</ele><time>2026-04-19T10:17:37.606Z</time></trkpt><trkpt lat="38.7665785" lon="16.3893846"><ele>802.0</ele><time>2026-04-19T10:17:39.609Z</time></trkpt><trkpt lat="38.7666269" lon="16.3893191"><ele>802.0</ele><time>2026-04-19T10:17:40.614Z</time></trkpt><trkpt lat="38.7667245" lon="16.3892007"><ele>802.0</ele><time>2026-04-19T10:17:42.605Z</time></trkpt><trkpt lat="38.7667684" lon="16.3891409"><ele>802.0</ele><time>2026-04-19T10:17:43.609Z</time></trkpt><trkpt lat="38.7668151" lon="16.3890803"><ele>798.8333333333333</ele><time>2026-04-19T10:17:44.611Z</time></trkpt><trkpt lat="38.7668668" lon="16.3889818"><ele>795.6666666666666</ele><time>2026-04-19T10:17:46.617Z</time></trkpt><trkpt lat="38.766886" lon="16.3889012"><ele>792.5</ele><time>2026-04-19T10:17:48.611Z</time></trkpt><trkpt lat="38.7669106" lon="16.388813"><ele>789.3333333333333</ele><time>2026-04-19T10:17:50.611Z</time></trkpt><trkpt lat="38.7669371" lon="16.3887235"><ele>786.1666666666666</ele><time>2026-04-19T10:17:52.613Z</time></trkpt><trkpt lat="38.766942" lon="16.3886298"><ele>783.0</ele><time>2026-04-19T10:17:54.603Z</time></trkpt><trkpt lat="38.7669188" lon="16.3885083"><ele>782.7142857142857</ele><time>2026-04-19T10:17:56.608Z</time></trkpt><trkpt lat="38.7669007" lon="16.388423"><ele>782.4285714285714</ele><time>2026-04-19T10:17:57.61Z</time></trkpt><trkpt lat="38.766882" lon="16.3883415"><ele>782.1428571428571</ele><time>2026-04-19T10:17:58.616Z</time></trkpt><trkpt lat="38.7668464" lon="16.3882411"><ele>781.8571428571429</ele><time>2026-04-19T10:18:00.607Z</time></trkpt><trkpt lat="38.7668103" lon="16.3881527"><ele>781.5714285714287</ele><time>2026-04-19T10:18:02.614Z</time></trkpt><trkpt lat="38.7667845" lon="16.3880702"><ele>781.2857142857143</ele><time>2026-04-19T10:18:04.606Z</time></trkpt><trkpt lat="38.7667609" lon="16.387976"><ele>781.0</ele><time>2026-04-19T10:18:07.607Z</time></trkpt><trkpt lat="38.7667424" lon="16.3878815"><ele>782.4</ele><time>2026-04-19T10:18:09.617Z</time></trkpt><trkpt lat="38.7667379" lon="16.3877911"><ele>783.8</ele><time>2026-04-19T10:18:11.609Z</time></trkpt><trkpt lat="38.7667244" lon="16.3876588"><ele>785.1999999999999</ele><time>2026-04-19T10:18:13.608Z</time></trkpt><trkpt lat="38.7667128" lon="16.3875778"><ele>786.5999999999999</ele><time>2026-04-19T10:18:14.604Z</time></trkpt><trkpt lat="38.7667017" lon="16.3874472"><ele>788.0</ele><time>2026-04-19T10:18:16.614Z</time></trkpt><trkpt lat="38.7666863" lon="16.3872851"><ele>788.0000000000001</ele><time>2026-04-19T10:18:18.609Z</time></trkpt><trkpt lat="38.7666794" lon="16.3871962"><ele>788.0</ele><time>2026-04-19T10:18:19.616Z</time></trkpt><trkpt lat="38.766692" lon="16.3870943"><ele>788.0</ele><time>2026-04-19T10:18:20.606Z</time></trkpt><trkpt lat="38.7667044" lon="16.3869899"><ele>788.0</ele><time>2026-04-19T10:18:21.604Z</time></trkpt><trkpt lat="38.7667153" lon="16.3868806"><ele>788.0000000000001</ele><time>2026-04-19T10:18:22.603Z</time></trkpt><trkpt lat="38.7667079" lon="16.3867795"><ele>788.0</ele><time>2026-04-19T10:18:23.607Z</time></trkpt><trkpt lat="38.7666989" lon="16.3866935"><ele>787.5000000000001</ele><time>2026-04-19T10:18:24.608Z</time></trkpt><trkpt lat="38.7666915" lon="16.3866114"><ele>787.0</ele><time>2026-04-19T10:18:25.607Z</time></trkpt><trkpt lat="38.7666792" lon="16.3865066"><ele>786.5</ele><time>2026-04-19T10:18:26.612Z</time></trkpt><trkpt lat="38.7666657" lon="16.3863977"><ele>786.0</ele><time>2026-04-19T10:18:27.608Z</time></trkpt><trkpt lat="38.7666564" lon="16.3863121"><ele>785.5000000000001</ele><time>2026-04-19T10:18:28.609Z</time></trkpt><trkpt lat="38.7665994" lon="16.3861745"><ele>785.0</ele><time>2026-04-19T10:18:30.608Z</time></trkpt><trkpt lat="38.7665506" lon="16.3861039"><ele>783.3333333333334</ele><time>2026-04-19T10:18:31.606Z</time></trkpt><trkpt lat="38.7664931" lon="16.3860434"><ele>781.6666666666667</ele><time>2026-04-19T10:18:32.621Z</time></trkpt><trkpt lat="38.7664107" lon="16.3859713"><ele>780.0</ele><time>2026-04-19T10:18:33.605Z</time></trkpt><trkpt lat="38.7663347" lon="16.3859203"><ele>778.3333333333333</ele><time>2026-04-19T10:18:34.616Z</time></trkpt><trkpt lat="38.7662597" lon="16.3858875"><ele>776.6666666666666</ele><time>2026-04-19T10:18:35.609Z</time></trkpt><trkpt lat="38.7661869" lon="16.3858593"><ele>775.0</ele><time>2026-04-19T10:18:36.607Z</time></trkpt><trkpt lat="38.7661177" lon="16.3858409"><ele>776.3333333333333</ele><time>2026-04-19T10:18:37.612Z</time></trkpt><trkpt lat="38.7660065" lon="16.385831"><ele>777.6666666666666</ele><time>2026-04-19T10:18:39.63Z</time></trkpt><trkpt lat="38.7659325" lon="16.3858536"><ele>779.0</ele><time>2026-04-19T10:18:40.61Z</time></trkpt><trkpt lat="38.7658726" lon="16.3858819"><ele>780.3333333333333</ele><time>2026-04-19T10:18:41.605Z</time></trkpt><trkpt lat="38.7658131" lon="16.3859284"><ele>781.6666666666666</ele><time>2026-04-19T10:18:43.611Z</time></trkpt><trkpt lat="38.7657406" lon="16.3859671"><ele>783.0</ele><time>2026-04-19T10:18:45.61Z</time></trkpt><trkpt lat="38.765658" lon="16.3859967"><ele>783.0</ele><time>2026-04-19T10:18:47.609Z</time></trkpt><trkpt lat="38.7655889" lon="16.3860125"><ele>783.0</ele><time>2026-04-19T10:18:48.611Z</time></trkpt><trkpt lat="38.7655147" lon="16.3860077"><ele>783.0</ele><time>2026-04-19T10:18:49.607Z</time></trkpt><trkpt lat="38.7654076" lon="16.3860051"><ele>783.0</ele><time>2026-04-19T10:18:51.612Z</time></trkpt><trkpt lat="38.7652757" lon="16.3859978"><ele>783.0</ele><time>2026-04-19T10:18:53.603Z</time></trkpt><trkpt lat="38.7652075" lon="16.3859952"><ele>783.5714285714286</ele><time>2026-04-19T10:18:54.609Z</time></trkpt><trkpt lat="38.7651439" lon="16.3860011"><ele>784.1428571428572</ele><time>2026-04-19T10:18:55.621Z</time></trkpt><trkpt lat="38.7650805" lon="16.3860091"><ele>784.7142857142858</ele><time>2026-04-19T10:18:56.607Z</time></trkpt><trkpt lat="38.7650158" lon="16.3860138"><ele>785.2857142857142</ele><time>2026-04-19T10:18:57.612Z</time></trkpt><trkpt lat="38.7649463" lon="16.3860224"><ele>785.8571428571429</ele><time>2026-04-19T10:18:58.609Z</time></trkpt><trkpt lat="38.7648785" lon="16.3860436"><ele>786.4285714285714</ele><time>2026-04-19T10:18:59.604Z</time></trkpt><trkpt lat="38.7648111" lon="16.386078"><ele>787.0</ele><time>2026-04-19T10:19:00.606Z</time></trkpt><trkpt lat="38.7647422" lon="16.3861394"><ele>786.9999999999999</ele><time>2026-04-19T10:19:02.615Z</time></trkpt><trkpt lat="38.7646829" lon="16.38619"><ele>787.0</ele><time>2026-04-19T10:19:10.603Z</time></trkpt><trkpt lat="38.7646207" lon="16.3861606"><ele>787.0</ele><time>2026-04-19T10:19:14.61Z</time></trkpt><trkpt lat="38.7646052" lon="16.386063"><ele>787.0</ele><time>2026-04-19T10:19:16.614Z</time></trkpt><trkpt lat="38.7645941" lon="16.3859385"><ele>786.9999999999999</ele><time>2026-04-19T10:19:18.62Z</time></trkpt><trkpt lat="38.7646032" lon="16.3857874"><ele>787.0</ele><time>2026-04-19T10:19:20.606Z</time></trkpt><trkpt lat="38.7646145" lon="16.3857"><ele>787.0</ele><time>2026-04-19T10:19:21.603Z</time></trkpt><trkpt lat="38.7646355" lon="16.3855891"><ele>787.0</ele><time>2026-04-19T10:19:23.611Z</time></trkpt><trkpt lat="38.7646519" lon="16.3855013"><ele>787.0</ele><time>2026-04-19T10:19:27.61Z</time></trkpt><trkpt lat="38.7646542" lon="16.3854039"><ele>787.0</ele><time>2026-04-19T10:19:30.607Z</time></trkpt><trkpt lat="38.7646522" lon="16.3853158"><ele>787.0</ele><time>2026-04-19T10:19:33.617Z</time></trkpt><trkpt lat="38.7646664" lon="16.3852369"><ele>787.0</ele><time>2026-04-19T10:19:38.622Z</time></trkpt><trkpt lat="38.7646864" lon="16.38516"><ele>787.0</ele><time>2026-04-19T10:19:42.618Z</time></trkpt><trkpt lat="38.7646954" lon="16.3850416"><ele>786.8571428571429</ele><time>2026-04-19T10:19:47.613Z</time></trkpt><trkpt lat="38.7646929" lon="16.3849516"><ele>786.7142857142857</ele><time>2026-04-19T10:19:50.608Z</time></trkpt><trkpt lat="38.7647157" lon="16.3848543"><ele>786.5714285714287</ele><time>2026-04-19T10:19:55.608Z</time></trkpt><trkpt lat="38.7647708" lon="16.3847695"><ele>786.4285714285714</ele><time>2026-04-19T10:19:58.613Z</time></trkpt><trkpt lat="38.7648256" lon="16.3847112"><ele>786.2857142857143</ele><time>2026-04-19T10:20:00.605Z</time></trkpt><trkpt lat="38.764875" lon="16.3846611"><ele>786.1428571428572</ele><time>2026-04-19T10:20:03.62Z</time></trkpt><trkpt lat="38.7649366" lon="16.3846385"><ele>786.0</ele><time>2026-04-19T10:20:06.612Z</time></trkpt><trkpt lat="38.7650031" lon="16.3846103"><ele>786.0</ele><time>2026-04-19T10:20:10.607Z</time></trkpt><trkpt lat="38.7650862" lon="16.3845855"><ele>786.0</ele><time>2026-04-19T10:20:14.614Z</time></trkpt><trkpt lat="38.7651511" lon="16.3846163"><ele>786.0</ele><time>2026-04-19T10:20:18.614Z</time></trkpt><trkpt lat="38.765192" lon="16.3846918"><ele>786.0</ele><time>2026-04-19T10:20:27.619Z</time></trkpt><trkpt lat="38.7652498" lon="16.3847494"><ele>786.0</ele><time>2026-04-19T10:20:38.611Z</time></trkpt><trkpt lat="38.7652838" lon="16.3848184"><ele>786.0</ele><time>2026-04-19T10:20:44.614Z</time></trkpt><trkpt lat="38.765376" lon="16.3849397"><ele>784.8</ele><time>2026-04-19T10:21:11.606Z</time></trkpt><trkpt lat="38.7654553" lon="16.3849448"><ele>783.5999999999999</ele><time>2026-04-19T10:21:18.607Z</time></trkpt><trkpt lat="38.7655265" lon="16.3849362"><ele>782.4</ele><time>2026-04-19T10:21:20.609Z</time></trkpt><trkpt lat="38.7656026" lon="16.3849226"><ele>781.2</ele><time>2026-04-19T10:21:22.608Z</time></trkpt><trkpt lat="38.7654473" lon="16.3848697"><ele>780.0</ele><time>2026-04-19T10:21:23.618Z</time></trkpt><trkpt lat="38.7655078" lon="16.3848444"><ele>780.0</ele><time>2026-04-19T10:21:27.696Z</time></trkpt><trkpt lat="38.7658004" lon="16.3849644"><ele>780.0</ele><time>2026-04-19T10:21:28.607Z</time></trkpt><trkpt lat="38.7658664" lon="16.3850047"><ele>780.0</ele><time>2026-04-19T10:21:30.606Z</time></trkpt><trkpt lat="38.7660328" lon="16.3850718"><ele>779.1666666666666</ele><time>2026-04-19T10:21:34.611Z</time></trkpt><trkpt lat="38.766116" lon="16.3850776"><ele>778.3333333333333</ele><time>2026-04-19T10:21:35.607Z</time></trkpt><trkpt lat="38.7661782" lon="16.3850381"><ele>777.5</ele><time>2026-04-19T10:21:36.606Z</time></trkpt><trkpt lat="38.7662492" lon="16.3849805"><ele>776.6666666666666</ele><time>2026-04-19T10:21:37.613Z</time></trkpt><trkpt lat="38.7663078" lon="16.3849285"><ele>775.8333333333333</ele><time>2026-04-19T10:21:38.606Z</time></trkpt><trkpt lat="38.766414" lon="16.384838"><ele>775.0</ele><time>2026-04-19T10:21:40.613Z</time></trkpt><trkpt lat="38.7664931" lon="16.3847411"><ele>777.0</ele><time>2026-04-19T10:21:42.608Z</time></trkpt><trkpt lat="38.7665693" lon="16.3846325"><ele>779.0</ele><time>2026-04-19T10:21:44.606Z</time></trkpt><trkpt lat="38.7666323" lon="16.3845653"><ele>781.0</ele><time>2026-04-19T10:21:45.611Z</time></trkpt><trkpt lat="38.7666855" lon="16.3844947"><ele>783.0</ele><time>2026-04-19T10:21:46.607Z</time></trkpt><trkpt lat="38.7668042" lon="16.3844233"><ele>785.0</ele><time>2026-04-19T10:21:47.621Z</time></trkpt><trkpt lat="38.7669377" lon="16.3843294"><ele>785.0</ele><time>2026-04-19T10:21:48.605Z</time></trkpt><trkpt lat="38.7670192" lon="16.3842298"><ele>785.0</ele><time>2026-04-19T10:21:50.609Z</time></trkpt><trkpt lat="38.7671017" lon="16.3840646"><ele>785.0</ele><time>2026-04-19T10:21:52.601Z</time></trkpt><trkpt lat="38.7671495" lon="16.3839824"><ele>785.0</ele><time>2026-04-19T10:21:53.606Z</time></trkpt><trkpt lat="38.7671661" lon="16.3838883"><ele>785.0</ele><time>2026-04-19T10:21:55.608Z</time></trkpt><trkpt lat="38.7672596" lon="16.3837581"><ele>784.6666666666667</ele><time>2026-04-19T10:21:57.619Z</time></trkpt><trkpt lat="38.7673304" lon="16.3836531"><ele>784.3333333333334</ele><time>2026-04-19T10:22:01.607Z</time></trkpt><trkpt lat="38.7673296" lon="16.3835713"><ele>784.0</ele><time>2026-04-19T10:22:07.602Z</time></trkpt><trkpt lat="38.7673239" lon="16.3834605"><ele>783.6666666666667</ele><time>2026-04-19T10:22:14.613Z</time></trkpt><trkpt lat="38.7673385" lon="16.3833677"><ele>783.3333333333334</ele><time>2026-04-19T10:22:17.612Z</time></trkpt><trkpt lat="38.7673723" lon="16.3832404"><ele>783.0</ele><time>2026-04-19T10:22:19.616Z</time></trkpt><trkpt lat="38.7674028" lon="16.3831296"><ele>783.0</ele><time>2026-04-19T10:22:21.617Z</time></trkpt><trkpt lat="38.7674215" lon="16.3830513"><ele>783.0</ele><time>2026-04-19T10:22:23.611Z</time></trkpt><trkpt lat="38.7674644" lon="16.3829464"><ele>783.0</ele><time>2026-04-19T10:22:26.607Z</time></trkpt><trkpt lat="38.7675127" lon="16.3828309"><ele>783.0</ele><time>2026-04-19T10:22:28.607Z</time></trkpt><trkpt lat="38.7675465" lon="16.3827356"><ele>783.0</ele><time>2026-04-19T10:22:30.611Z</time></trkpt><trkpt lat="38.7675615" lon="16.382585"><ele>781.3333333333334</ele><time>2026-04-19T10:22:32.612Z</time></trkpt><trkpt lat="38.7675771" lon="16.3824803"><ele>779.6666666666667</ele><time>2026-04-19T10:22:34.617Z</time></trkpt><trkpt lat="38.7675702" lon="16.3823807"><ele>778.0</ele><time>2026-04-19T10:22:36.611Z</time></trkpt><trkpt lat="38.7675369" lon="16.3822822"><ele>776.3333333333334</ele><time>2026-04-19T10:22:39.605Z</time></trkpt><trkpt lat="38.767493" lon="16.3821985"><ele>774.6666666666667</ele><time>2026-04-19T10:22:42.608Z</time></trkpt><trkpt lat="38.7674503" lon="16.3821266"><ele>773.0</ele><time>2026-04-19T10:22:44.604Z</time></trkpt><trkpt lat="38.767378" lon="16.3820218"><ele>769.5000000000001</ele><time>2026-04-19T10:22:46.61Z</time></trkpt><trkpt lat="38.7673253" lon="16.3819542"><ele>766.0</ele><time>2026-04-19T10:22:48.622Z</time></trkpt><trkpt lat="38.7672688" lon="16.3818735"><ele>762.5</ele><time>2026-04-19T10:22:51.616Z</time></trkpt><trkpt lat="38.7671958" lon="16.3817944"><ele>759.0</ele><time>2026-04-19T10:22:54.609Z</time></trkpt><trkpt lat="38.7671321" lon="16.3817245"><ele>755.5</ele><time>2026-04-19T10:22:56.615Z</time></trkpt><trkpt lat="38.7670772" lon="16.3816601"><ele>752.0</ele><time>2026-04-19T10:22:59.608Z</time></trkpt><trkpt lat="38.767032" lon="16.3815946"><ele>752.0</ele><time>2026-04-19T10:23:02.613Z</time></trkpt><trkpt lat="38.7669851" lon="16.3815103"><ele>752.0</ele><time>2026-04-19T10:23:06.604Z</time></trkpt><trkpt lat="38.7669501" lon="16.3814424"><ele>752.0</ele><time>2026-04-19T10:23:09.62Z</time></trkpt><trkpt lat="38.7669174" lon="16.3813643"><ele>752.0</ele><time>2026-04-19T10:23:11.61Z</time></trkpt><trkpt lat="38.7668708" lon="16.3812816"><ele>752.0</ele><time>2026-04-19T10:23:14.611Z</time></trkpt><trkpt lat="38.7668049" lon="16.3811988"><ele>752.0</ele><time>2026-04-19T10:23:17.606Z</time></trkpt><trkpt lat="38.7667596" lon="16.3811242"><ele>751.0</ele><time>2026-04-19T10:23:19.61Z</time></trkpt><trkpt lat="38.7667095" lon="16.3810452"><ele>750.0</ele><time>2026-04-19T10:23:21.608Z</time></trkpt><trkpt lat="38.7666664" lon="16.3809863"><ele>749.0</ele><time>2026-04-19T10:23:23.624Z</time></trkpt><trkpt lat="38.7665806" lon="16.3809026"><ele>748.0</ele><time>2026-04-19T10:23:25.604Z</time></trkpt><trkpt lat="38.7664847" lon="16.3808423"><ele>747.0</ele><time>2026-04-19T10:23:27.61Z</time></trkpt><trkpt lat="38.7664081" lon="16.3808001"><ele>746.0</ele><time>2026-04-19T10:23:29.608Z</time></trkpt><trkpt lat="38.7663129" lon="16.3807528"><ele>746.0</ele><time>2026-04-19T10:23:31.603Z</time></trkpt><trkpt lat="38.7662357" lon="16.3807417"><ele>746.0</ele><time>2026-04-19T10:23:33.604Z</time></trkpt><trkpt lat="38.7661658" lon="16.3807274"><ele>746.0</ele><time>2026-04-19T10:23:40.619Z</time></trkpt><trkpt lat="38.766099" lon="16.380748"><ele>746.0</ele><time>2026-04-19T10:23:48.604Z</time></trkpt><trkpt lat="38.7660263" lon="16.3807983"><ele>746.0</ele><time>2026-04-19T10:23:55.607Z</time></trkpt><trkpt lat="38.7659643" lon="16.3808289"><ele>746.0</ele><time>2026-04-19T10:23:58.61Z</time></trkpt><trkpt lat="38.7659008" lon="16.380844"><ele>746.0</ele><time>2026-04-19T10:24:01.609Z</time></trkpt><trkpt lat="38.7658239" lon="16.3808775"><ele>746.5999999999999</ele><time>2026-04-19T10:24:03.615Z</time></trkpt><trkpt lat="38.7657551" lon="16.3809584"><ele>747.2</ele><time>2026-04-19T10:24:05.605Z</time></trkpt><trkpt lat="38.7657085" lon="16.3811318"><ele>747.8</ele><time>2026-04-19T10:24:07.611Z</time></trkpt><trkpt lat="38.7656852" lon="16.3812357"><ele>748.4000000000001</ele><time>2026-04-19T10:24:08.604Z</time></trkpt><trkpt lat="38.7656259" lon="16.3813528"><ele>749.0</ele><time>2026-04-19T10:24:10.607Z</time></trkpt><trkpt lat="38.7655502" lon="16.381488"><ele>750.5</ele><time>2026-04-19T10:24:12.603Z</time></trkpt><trkpt lat="38.7654919" lon="16.3815573"><ele>752.0</ele><time>2026-04-19T10:24:13.607Z</time></trkpt><trkpt lat="38.7654272" lon="16.3815773"><ele>753.5</ele><time>2026-04-19T10:24:14.609Z</time></trkpt><trkpt lat="38.7653514" lon="16.3815842"><ele>755.0</ele><time>2026-04-19T10:24:15.605Z</time></trkpt><trkpt lat="38.7652831" lon="16.3815706"><ele>756.5</ele><time>2026-04-19T10:24:16.6Z</time></trkpt><trkpt lat="38.7651853" lon="16.3815649"><ele>758.0</ele><time>2026-04-19T10:24:17.601Z</time></trkpt><trkpt lat="38.7650919" lon="16.3815808"><ele>758.0</ele><time>2026-04-19T10:24:18.599Z</time></trkpt><trkpt lat="38.765027" lon="16.381623"><ele>758.0</ele><time>2026-04-19T10:24:19.605Z</time></trkpt><trkpt lat="38.7649614" lon="16.381721"><ele>758.0</ele><time>2026-04-19T10:24:20.627Z</time></trkpt><trkpt lat="38.7648975" lon="16.3818152"><ele>758.0</ele><time>2026-04-19T10:24:21.602Z</time></trkpt><trkpt lat="38.7648391" lon="16.3818836"><ele>758.0</ele><time>2026-04-19T10:24:22.607Z</time></trkpt><trkpt lat="38.7647717" lon="16.381919"><ele>758.0</ele><time>2026-04-19T10:24:23.61Z</time></trkpt><trkpt lat="38.7646993" lon="16.3819431"><ele>758.0</ele><time>2026-04-19T10:24:24.605Z</time></trkpt><trkpt lat="38.7646225" lon="16.3819635"><ele>758.0</ele><time>2026-04-19T10:24:25.608Z</time></trkpt><trkpt lat="38.7645562" lon="16.3819782"><ele>758.0</ele><time>2026-04-19T10:24:26.612Z</time></trkpt><trkpt lat="38.7644856" lon="16.3820102"><ele>758.0</ele><time>2026-04-19T10:24:27.606Z</time></trkpt><trkpt lat="38.7643952" lon="16.3820689"><ele>758.0</ele><time>2026-04-19T10:24:29.617Z</time></trkpt><trkpt lat="38.764337" lon="16.3821112"><ele>758.0</ele><time>2026-04-19T10:24:32.611Z</time></trkpt><trkpt lat="38.7642763" lon="16.3821501"><ele>758.8</ele><time>2026-04-19T10:24:35.613Z</time></trkpt><trkpt lat="38.7642154" lon="16.3821747"><ele>759.5999999999999</ele><time>2026-04-19T10:24:38.612Z</time></trkpt><trkpt lat="38.7641131" lon="16.3821908"><ele>760.4000000000001</ele><time>2026-04-19T10:24:41.609Z</time></trkpt><trkpt lat="38.764015" lon="16.3821617"><ele>761.2</ele><time>2026-04-19T10:24:43.609Z</time></trkpt><trkpt lat="38.7638868" lon="16.3821309"><ele>762.0</ele><time>2026-04-19T10:24:45.611Z</time></trkpt><trkpt lat="38.7638233" lon="16.3821196"><ele>762.0</ele><time>2026-04-19T10:24:46.607Z</time></trkpt><trkpt lat="38.7637231" lon="16.3821063"><ele>762.0</ele><time>2026-04-19T10:24:48.604Z</time></trkpt><trkpt lat="38.7636601" lon="16.3821244"><ele>762.0</ele><time>2026-04-19T10:24:49.606Z</time></trkpt><trkpt lat="38.7635863" lon="16.3821744"><ele>762.0</ele><time>2026-04-19T10:24:50.604Z</time></trkpt><trkpt lat="38.7635088" lon="16.3822184"><ele>762.0</ele><time>2026-04-19T10:24:51.604Z</time></trkpt><trkpt lat="38.7634366" lon="16.3822622"><ele>762.0</ele><time>2026-04-19T10:24:52.608Z</time></trkpt><trkpt lat="38.7633673" lon="16.3823149"><ele>762.0</ele><time>2026-04-19T10:24:53.605Z</time></trkpt><trkpt lat="38.7632965" lon="16.3823791"><ele>762.0</ele><time>2026-04-19T10:24:54.608Z</time></trkpt><trkpt lat="38.7632231" lon="16.3824431"><ele>762.0</ele><time>2026-04-19T10:24:55.617Z</time></trkpt><trkpt lat="38.7631271" lon="16.3825166"><ele>762.0</ele><time>2026-04-19T10:24:56.606Z</time></trkpt><trkpt lat="38.7630544" lon="16.3825697"><ele>762.0</ele><time>2026-04-19T10:24:57.602Z</time></trkpt><trkpt lat="38.7629851" lon="16.3826283"><ele>762.0</ele><time>2026-04-19T10:24:58.608Z</time></trkpt><trkpt lat="38.7629206" lon="16.3826944"><ele>762.0</ele><time>2026-04-19T10:24:59.613Z</time></trkpt><trkpt lat="38.7628683" lon="16.3827773"><ele>762.0</ele><time>2026-04-19T10:25:00.603Z</time></trkpt><trkpt lat="38.7627989" lon="16.3828608"><ele>762.0</ele><time>2026-04-19T10:25:01.631Z</time></trkpt><trkpt lat="38.7627328" lon="16.3829699"><ele>762.0</ele><time>2026-04-19T10:25:02.604Z</time></trkpt><trkpt lat="38.7626861" lon="16.3830779"><ele>763.6666666666666</ele><time>2026-04-19T10:25:03.611Z</time></trkpt><trkpt lat="38.7626669" lon="16.3831821"><ele>765.3333333333333</ele><time>2026-04-19T10:25:04.606Z</time></trkpt><trkpt lat="38.7626517" lon="16.3832882"><ele>767.0</ele><time>2026-04-19T10:25:05.597Z</time></trkpt><trkpt lat="38.7626273" lon="16.3834095"><ele>768.6666666666666</ele><time>2026-04-19T10:25:06.603Z</time></trkpt><trkpt lat="38.7626201" lon="16.3835083"><ele>770.3333333333333</ele><time>2026-04-19T10:25:07.6Z</time></trkpt><trkpt lat="38.762612" lon="16.3836053"><ele>772.0</ele><time>2026-04-19T10:25:08.61Z</time></trkpt><trkpt lat="38.7626024" lon="16.3836973"><ele>771.9999999999999</ele><time>2026-04-19T10:25:09.598Z</time></trkpt><trkpt lat="38.7625746" lon="16.3837997"><ele>772.0</ele><time>2026-04-19T10:25:10.603Z</time></trkpt><trkpt lat="38.7625419" lon="16.3838898"><ele>772.0</ele><time>2026-04-19T10:25:11.608Z</time></trkpt><trkpt lat="38.7625221" lon="16.3839821"><ele>772.0</ele><time>2026-04-19T10:25:12.604Z</time></trkpt><trkpt lat="38.7624898" lon="16.384078"><ele>771.9999999999999</ele><time>2026-04-19T10:25:13.61Z</time></trkpt><trkpt lat="38.7624484" lon="16.3841967"><ele>772.0</ele><time>2026-04-19T10:25:15.606Z</time></trkpt><trkpt lat="38.7624374" lon="16.3843047"><ele>772.75</ele><time>2026-04-19T10:25:17.612Z</time></trkpt><trkpt lat="38.7623676" lon="16.3843935"><ele>773.5</ele><time>2026-04-19T10:25:19.61Z</time></trkpt><trkpt lat="38.7622386" lon="16.3844547"><ele>774.25</ele><time>2026-04-19T10:25:21.608Z</time></trkpt><trkpt lat="38.7621242" lon="16.3845075"><ele>775.0</ele><time>2026-04-19T10:25:22.602Z</time></trkpt><trkpt lat="38.7620281" lon="16.3845353"><ele>775.0</ele><time>2026-04-19T10:25:23.609Z</time></trkpt><trkpt lat="38.7619112" lon="16.3845911"><ele>775.0</ele><time>2026-04-19T10:25:24.6Z</time></trkpt><trkpt lat="38.7617827" lon="16.3846505"><ele>775.0</ele><time>2026-04-19T10:25:25.605Z</time></trkpt><trkpt lat="38.7617054" lon="16.3847076"><ele>775.0</ele><time>2026-04-19T10:25:26.613Z</time></trkpt><trkpt lat="38.7616416" lon="16.3847617"><ele>775.0</ele><time>2026-04-19T10:25:27.607Z</time></trkpt><trkpt lat="38.7615701" lon="16.3847945"><ele>775.9999999999999</ele><time>2026-04-19T10:25:30.603Z</time></trkpt><trkpt lat="38.7615088" lon="16.3848458"><ele>777.0</ele><time>2026-04-19T10:25:33.606Z</time></trkpt><trkpt lat="38.7614545" lon="16.3848899"><ele>778.0</ele><time>2026-04-19T10:25:35.604Z</time></trkpt><trkpt lat="38.7613275" lon="16.3849404"><ele>779.0</ele><time>2026-04-19T10:25:37.61Z</time></trkpt><trkpt lat="38.7612603" lon="16.3849636"><ele>779.9999999999999</ele><time>2026-04-19T10:25:38.601Z</time></trkpt><trkpt lat="38.7611995" lon="16.3850078"><ele>781.0</ele><time>2026-04-19T10:25:39.622Z</time></trkpt><trkpt lat="38.7611434" lon="16.3850558"><ele>781.0</ele><time>2026-04-19T10:25:40.605Z</time></trkpt><trkpt lat="38.7610679" lon="16.3851157"><ele>781.0</ele><time>2026-04-19T10:25:41.603Z</time></trkpt><trkpt lat="38.7610093" lon="16.3851565"><ele>781.0</ele><time>2026-04-19T10:25:42.606Z</time></trkpt><trkpt lat="38.7609086" lon="16.3852178"><ele>781.0</ele><time>2026-04-19T10:25:44.603Z</time></trkpt><trkpt lat="38.7608089" lon="16.3852749"><ele>781.0</ele><time>2026-04-19T10:25:46.603Z</time></trkpt><trkpt lat="38.7607212" lon="16.3853332"><ele>782.5999999999999</ele><time>2026-04-19T10:25:48.604Z</time></trkpt><trkpt lat="38.7606306" lon="16.3853915"><ele>784.2</ele><time>2026-04-19T10:25:50.603Z</time></trkpt><trkpt lat="38.7605331" lon="16.3854168"><ele>785.8</ele><time>2026-04-19T10:25:52.62Z</time></trkpt><trkpt lat="38.7604129" lon="16.3853651"><ele>787.4000000000001</ele><time>2026-04-19T10:25:54.608Z</time></trkpt><trkpt lat="38.7603531" lon="16.3853091"><ele>789.0</ele><time>2026-04-19T10:25:55.606Z</time></trkpt><trkpt lat="38.760298" lon="16.3852538"><ele>789.0</ele><time>2026-04-19T10:25:56.61Z</time></trkpt><trkpt lat="38.7602108" lon="16.3851803"><ele>789.0</ele><time>2026-04-19T10:25:58.611Z</time></trkpt><trkpt lat="38.7601021" lon="16.3851251"><ele>789.0</ele><time>2026-04-19T10:26:00.61Z</time></trkpt><trkpt lat="38.7600211" lon="16.3850989"><ele>789.0</ele><time>2026-04-19T10:26:01.603Z</time></trkpt><trkpt lat="38.759943" lon="16.3850786"><ele>789.0</ele><time>2026-04-19T10:26:02.612Z</time></trkpt><trkpt lat="38.7598625" lon="16.385048"><ele>789.5</ele><time>2026-04-19T10:26:03.608Z</time></trkpt><trkpt lat="38.7597911" lon="16.3850303"><ele>790.0</ele><time>2026-04-19T10:26:04.605Z</time></trkpt><trkpt lat="38.7597088" lon="16.3850519"><ele>790.5</ele><time>2026-04-19T10:26:06.609Z</time></trkpt><trkpt lat="38.759647" lon="16.3850857"><ele>791.0</ele><time>2026-04-19T10:26:13.617Z</time></trkpt><trkpt lat="38.7596017" lon="16.3851498"><ele>791.5</ele><time>2026-04-19T10:26:15.614Z</time></trkpt><trkpt lat="38.7595692" lon="16.3852447"><ele>792.0</ele><time>2026-04-19T10:26:17.604Z</time></trkpt><trkpt lat="38.759526" lon="16.3853732"><ele>792.0</ele><time>2026-04-19T10:26:19.61Z</time></trkpt><trkpt lat="38.7594816" lon="16.3854824"><ele>792.0</ele><time>2026-04-19T10:26:20.608Z</time></trkpt><trkpt lat="38.7594378" lon="16.3855724"><ele>792.0</ele><time>2026-04-19T10:26:22.605Z</time></trkpt><trkpt lat="38.759414" lon="16.3856522"><ele>792.0</ele><time>2026-04-19T10:26:26.612Z</time></trkpt><trkpt lat="38.759355" lon="16.3857682"><ele>792.0</ele><time>2026-04-19T10:26:37.618Z</time></trkpt><trkpt lat="38.7593262" lon="16.3858707"><ele>792.0</ele><time>2026-04-19T10:26:48.612Z</time></trkpt><trkpt lat="38.7593173" lon="16.3859555"><ele>793.1666666666666</ele><time>2026-04-19T10:26:50.605Z</time></trkpt><trkpt lat="38.7593191" lon="16.386051"><ele>794.3333333333333</ele><time>2026-04-19T10:26:52.608Z</time></trkpt><trkpt lat="38.7593201" lon="16.386175"><ele>795.5</ele><time>2026-04-19T10:29:04.618Z</time></trkpt><trkpt lat="38.7593342" lon="16.3862698"><ele>796.6666666666666</ele><time>2026-04-19T10:29:10.606Z</time></trkpt><trkpt lat="38.7593183" lon="16.3864199"><ele>797.8333333333333</ele><time>2026-04-19T10:29:35.614Z</time></trkpt><trkpt lat="38.7593047" lon="16.3865248"><ele>799.0</ele><time>2026-04-19T10:29:45.61Z</time></trkpt><trkpt lat="38.7592158" lon="16.3865209"><ele>800.3333333333333</ele><time>2026-04-19T10:30:16.61Z</time></trkpt><trkpt lat="38.7591401" lon="16.3865974"><ele>801.6666666666666</ele><time>2026-04-19T10:30:19.612Z</time></trkpt><trkpt lat="38.7591017" lon="16.3866757"><ele>803.0</ele><time>2026-04-19T10:30:21.606Z</time></trkpt><trkpt lat="38.7591781" lon="16.3867051"><ele>804.3333333333333</ele><time>2026-04-19T10:30:27.608Z</time></trkpt><trkpt lat="38.7592881" lon="16.3867187"><ele>805.6666666666666</ele><time>2026-04-19T10:32:24.608Z</time></trkpt><trkpt lat="38.7593584" lon="16.3867262"><ele>807.0</ele><time>2026-04-19T10:32:28.608Z</time></trkpt><trkpt lat="38.7594171" lon="16.3866659"><ele>808.0</ele><time>2026-04-19T10:32:36.604Z</time></trkpt><trkpt lat="38.7595023" lon="16.386628"><ele>809.0</ele><time>2026-04-19T10:32:39.611Z</time></trkpt><trkpt lat="38.7595716" lon="16.3866262"><ele>810.0</ele><time>2026-04-19T10:32:41.606Z</time></trkpt><trkpt lat="38.7596567" lon="16.3865994"><ele>811.0</ele><time>2026-04-19T10:32:46.61Z</time></trkpt><trkpt lat="38.7597591" lon="16.3866292"><ele>812.0</ele><time>2026-04-19T10:33:20.607Z</time></trkpt><trkpt lat="38.7598217" lon="16.3866632"><ele>813.0</ele><time>2026-04-19T10:33:22.608Z</time></trkpt><trkpt lat="38.759884" lon="16.3867099"><ele>813.0</ele><time>2026-04-19T10:33:24.611Z</time></trkpt><trkpt lat="38.7599416" lon="16.3867628"><ele>813.0</ele><time>2026-04-19T10:33:26.605Z</time></trkpt><trkpt lat="38.7599972" lon="16.3868126"><ele>813.0</ele><time>2026-04-19T10:33:27.607Z</time></trkpt><trkpt lat="38.7600651" lon="16.3868863"><ele>813.0</ele><time>2026-04-19T10:33:28.613Z</time></trkpt><trkpt lat="38.7601368" lon="16.3869622"><ele>813.0</ele><time>2026-04-19T10:33:29.603Z</time></trkpt><trkpt lat="38.7602156" lon="16.3870338"><ele>813.0</ele><time>2026-04-19T10:33:30.607Z</time></trkpt><trkpt lat="38.7602836" lon="16.3871048"><ele>814.8333333333334</ele><time>2026-04-19T10:33:31.606Z</time></trkpt><trkpt lat="38.7603303" lon="16.3871863"><ele>816.6666666666667</ele><time>2026-04-19T10:33:32.602Z</time></trkpt><trkpt lat="38.7603834" lon="16.3872655"><ele>818.5</ele><time>2026-04-19T10:33:33.605Z</time></trkpt><trkpt lat="38.7604487" lon="16.3873567"><ele>820.3333333333334</ele><time>2026-04-19T10:33:34.604Z</time></trkpt><trkpt lat="38.7605083" lon="16.3874469"><ele>822.1666666666667</ele><time>2026-04-19T10:33:35.607Z</time></trkpt><trkpt lat="38.7605633" lon="16.3875272"><ele>824.0</ele><time>2026-04-19T10:33:36.6Z</time></trkpt><trkpt lat="38.7606074" lon="16.3875978"><ele>824.0000000000001</ele><time>2026-04-19T10:33:37.607Z</time></trkpt><trkpt lat="38.760649" lon="16.3876798"><ele>824.0</ele><time>2026-04-19T10:33:38.607Z</time></trkpt><trkpt lat="38.7606744" lon="16.38778"><ele>824.0</ele><time>2026-04-19T10:33:39.601Z</time></trkpt><trkpt lat="38.760705" lon="16.3878775"><ele>824.0</ele><time>2026-04-19T10:33:40.608Z</time></trkpt><trkpt lat="38.7607399" lon="16.3879824"><ele>824.0000000000001</ele><time>2026-04-19T10:33:41.609Z</time></trkpt><trkpt lat="38.7607736" lon="16.3880832"><ele>824.0</ele><time>2026-04-19T10:33:42.6Z</time></trkpt><trkpt lat="38.7608127" lon="16.3881869"><ele>826.6666666666667</ele><time>2026-04-19T10:33:43.61Z</time></trkpt><trkpt lat="38.7608559" lon="16.3882909"><ele>829.3333333333334</ele><time>2026-04-19T10:33:44.604Z</time></trkpt><trkpt lat="38.7609013" lon="16.3883751"><ele>832.0</ele><time>2026-04-19T10:33:45.609Z</time></trkpt><trkpt lat="38.7609735" lon="16.3884661"><ele>834.6666666666667</ele><time>2026-04-19T10:33:47.605Z</time></trkpt><trkpt lat="38.7610617" lon="16.3884739"><ele>837.3333333333334</ele><time>2026-04-19T10:33:49.606Z</time></trkpt><trkpt lat="38.7611317" lon="16.3884814"><ele>840.0</ele><time>2026-04-19T10:33:50.605Z</time></trkpt><trkpt lat="38.7612279" lon="16.3885089"><ele>840.5</ele><time>2026-04-19T10:33:51.608Z</time></trkpt><trkpt lat="38.7613251" lon="16.3885557"><ele>841.0</ele><time>2026-04-19T10:33:52.608Z</time></trkpt><trkpt lat="38.7614104" lon="16.3886156"><ele>841.5</ele><time>2026-04-19T10:33:53.609Z</time></trkpt><trkpt lat="38.7614852" lon="16.3886713"><ele>842.0</ele><time>2026-04-19T10:33:54.602Z</time></trkpt><trkpt lat="38.7615531" lon="16.3887092"><ele>842.5</ele><time>2026-04-19T10:33:55.606Z</time></trkpt><trkpt lat="38.7616247" lon="16.3887312"><ele>843.0</ele><time>2026-04-19T10:33:56.601Z</time></trkpt><trkpt lat="38.7616963" lon="16.3887437"><ele>843.0</ele><time>2026-04-19T10:33:57.6Z</time></trkpt><trkpt lat="38.7617706" lon="16.3887599"><ele>843.0</ele><time>2026-04-19T10:33:58.618Z</time></trkpt><trkpt lat="38.761833" lon="16.3887856"><ele>843.0</ele><time>2026-04-19T10:33:59.609Z</time></trkpt><trkpt lat="38.7618664" lon="16.3888893"><ele>843.0</ele><time>2026-04-19T10:34:01.611Z</time></trkpt><trkpt lat="38.7618339" lon="16.388984"><ele>843.0</ele><time>2026-04-19T10:34:03.61Z</time></trkpt><trkpt lat="38.7617482" lon="16.3890838"><ele>843.0</ele><time>2026-04-19T10:34:05.61Z</time></trkpt><trkpt lat="38.7616874" lon="16.3891595"><ele>845.0</ele><time>2026-04-19T10:34:06.606Z</time></trkpt><trkpt lat="38.7616243" lon="16.3892437"><ele>847.0</ele><time>2026-04-19T10:34:07.606Z</time></trkpt><trkpt lat="38.7615629" lon="16.3893285"><ele>849.0</ele><time>2026-04-19T10:34:08.608Z</time></trkpt><trkpt lat="38.7615111" lon="16.3894045"><ele>851.0</ele><time>2026-04-19T10:34:09.609Z</time></trkpt><trkpt lat="38.7614436" lon="16.389527"><ele>853.0</ele><time>2026-04-19T10:34:10.606Z</time></trkpt><trkpt lat="38.7613506" lon="16.3896758"><ele>855.5</ele><time>2026-04-19T10:34:11.616Z</time></trkpt><trkpt lat="38.7612707" lon="16.3897978"><ele>858.0</ele><time>2026-04-19T10:34:12.6Z</time></trkpt><trkpt lat="38.7611828" lon="16.3899068"><ele>860.5</ele><time>2026-04-19T10:34:13.601Z</time></trkpt><trkpt lat="38.7611027" lon="16.3900139"><ele>863.0</ele><time>2026-04-19T10:34:14.603Z</time></trkpt><trkpt lat="38.7610156" lon="16.3901347"><ele>863.0</ele><time>2026-04-19T10:34:15.601Z</time></trkpt><trkpt lat="38.7609261" lon="16.3902709"><ele>863.0</ele><time>2026-04-19T10:34:16.609Z</time></trkpt><trkpt lat="38.7608351" lon="16.3904018"><ele>863.0</ele><time>2026-04-19T10:34:17.601Z</time></trkpt><trkpt lat="38.760734" lon="16.3905207"><ele>863.0</ele><time>2026-04-19T10:34:18.608Z</time></trkpt><trkpt lat="38.7606371" lon="16.390617"><ele>863.0000000000001</ele><time>2026-04-19T10:34:19.606Z</time></trkpt><trkpt lat="38.7605539" lon="16.390695"><ele>863.0</ele><time>2026-04-19T10:34:20.615Z</time></trkpt><trkpt lat="38.7604799" lon="16.3907491"><ele>863.0</ele><time>2026-04-19T10:34:21.601Z</time></trkpt><trkpt lat="38.7604298" lon="16.3908043"><ele>863.0</ele><time>2026-04-19T10:34:22.603Z</time></trkpt><trkpt lat="38.7603851" lon="16.3908787"><ele>863.0000000000001</ele><time>2026-04-19T10:34:23.607Z</time></trkpt><trkpt lat="38.7603152" lon="16.3909733"><ele>863.0</ele><time>2026-04-19T10:34:25.605Z</time></trkpt><trkpt lat="38.7602592" lon="16.3910739"><ele>863.0000000000001</ele><time>2026-04-19T10:34:27.607Z</time></trkpt><trkpt lat="38.7602077" lon="16.3911658"><ele>863.0</ele><time>2026-04-19T10:34:29.603Z</time></trkpt><trkpt lat="38.7601608" lon="16.3912476"><ele>863.0</ele><time>2026-04-19T10:34:31.606Z</time></trkpt><trkpt lat="38.7601028" lon="16.3913274"><ele>863.0</ele><time>2026-04-19T10:34:36.622Z</time></trkpt><trkpt lat="38.7600573" lon="16.3914031"><ele>863.0000000000001</ele><time>2026-04-19T10:34:38.69Z</time></trkpt><trkpt lat="38.7600326" lon="16.3914894"><ele>863.0</ele><time>2026-04-19T10:34:40.608Z</time></trkpt><trkpt lat="38.7599933" lon="16.3915735"><ele>864.5999999999999</ele><time>2026-04-19T10:34:42.662Z</time></trkpt><trkpt lat="38.7599555" lon="16.3916443"><ele>866.1999999999999</ele><time>2026-04-19T10:34:44.604Z</time></trkpt><trkpt lat="38.7599121" lon="16.3917273"><ele>867.8</ele><time>2026-04-19T10:34:47.662Z</time></trkpt><trkpt lat="38.7598855" lon="16.3918093"><ele>869.4</ele><time>2026-04-19T10:34:51.62Z</time></trkpt><trkpt lat="38.7598172" lon="16.3919989"><ele>871.0</ele><time>2026-04-19T10:34:53.722Z</time></trkpt><trkpt lat="38.7595845" lon="16.3926336"><ele>871.5</ele><time>2026-04-19T10:34:55.216Z</time></trkpt><trkpt lat="38.7594998" lon="16.3928717"><ele>872.0</ele><time>2026-04-19T10:34:56.449Z</time></trkpt><trkpt lat="38.7594284" lon="16.3930469"><ele>872.5</ele><time>2026-04-19T10:34:57.624Z</time></trkpt><trkpt lat="38.7593988" lon="16.3931207"><ele>873.0</ele><time>2026-04-19T10:35:02.585Z</time></trkpt><trkpt lat="38.7594168" lon="16.3932349"><ele>873.6666666666666</ele><time>2026-04-19T10:35:04.67Z</time></trkpt><trkpt lat="38.7594066" lon="16.3933489"><ele>874.3333333333333</ele><time>2026-04-19T10:35:09.613Z</time></trkpt><trkpt lat="38.7593915" lon="16.3934319"><ele>875.0</ele><time>2026-04-19T10:35:14.583Z</time></trkpt><trkpt lat="38.7593704" lon="16.3935104"><ele>875.6666666666666</ele><time>2026-04-19T10:35:19.649Z</time></trkpt><trkpt lat="38.7593052" lon="16.3936223"><ele>876.3333333333333</ele><time>2026-04-19T10:36:00.61Z</time></trkpt><trkpt lat="38.7593153" lon="16.3937033"><ele>877.0</ele><time>2026-04-19T10:36:22.611Z</time></trkpt><trkpt lat="38.7593067" lon="16.3938273"><ele>878.6666666666666</ele><time>2026-04-19T10:36:24.61Z</time></trkpt><trkpt lat="38.7592857" lon="16.3939142"><ele>880.3333333333333</ele><time>2026-04-19T10:36:25.607Z</time></trkpt><trkpt lat="38.7592613" lon="16.3939912"><ele>882.0</ele><time>2026-04-19T10:36:26.607Z</time></trkpt><trkpt lat="38.7592282" lon="16.3940684"><ele>883.6666666666667</ele><time>2026-04-19T10:36:27.601Z</time></trkpt><trkpt lat="38.7591891" lon="16.3941643"><ele>885.3333333333334</ele><time>2026-04-19T10:36:28.609Z</time></trkpt><trkpt lat="38.759152" lon="16.3942355"><ele>887.0</ele><time>2026-04-19T10:36:29.619Z</time></trkpt><trkpt lat="38.7590927" lon="16.3943417"><ele>887.0000000000001</ele><time>2026-04-19T10:36:31.615Z</time></trkpt><trkpt lat="38.7590427" lon="16.394413"><ele>887.0</ele><time>2026-04-19T10:36:33.614Z</time></trkpt><trkpt lat="38.7589976" lon="16.3944926"><ele>887.0</ele><time>2026-04-19T10:36:35.606Z</time></trkpt><trkpt lat="38.7589425" lon="16.3945776"><ele>887.0</ele><time>2026-04-19T10:36:37.61Z</time></trkpt><trkpt lat="38.7588693" lon="16.3946802"><ele>887.0000000000001</ele><time>2026-04-19T10:36:39.604Z</time></trkpt><trkpt lat="38.7588245" lon="16.3947417"><ele>887.0</ele><time>2026-04-19T10:36:40.618Z</time></trkpt><trkpt lat="38.7587729" lon="16.394818"><ele>884.8333333333334</ele><time>2026-04-19T10:36:41.608Z</time></trkpt><trkpt lat="38.7587237" lon="16.3949062"><ele>882.6666666666667</ele><time>2026-04-19T10:36:42.604Z</time></trkpt><trkpt lat="38.7586876" lon="16.3949796"><ele>880.5</ele><time>2026-04-19T10:36:43.622Z</time></trkpt><trkpt lat="38.7586279" lon="16.395076"><ele>878.3333333333333</ele><time>2026-04-19T10:36:45.606Z</time></trkpt><trkpt lat="38.7585783" lon="16.3951506"><ele>876.1666666666666</ele><time>2026-04-19T10:36:47.612Z</time></trkpt><trkpt lat="38.7585228" lon="16.3952276"><ele>874.0</ele><time>2026-04-19T10:36:50.621Z</time></trkpt><trkpt lat="38.7584742" lon="16.3952847"><ele>873.9999999999999</ele><time>2026-04-19T10:36:52.607Z</time></trkpt><trkpt lat="38.7584231" lon="16.3953599"><ele>874.0</ele><time>2026-04-19T10:36:55.609Z</time></trkpt><trkpt lat="38.7583956" lon="16.3954536"><ele>874.0</ele><time>2026-04-19T10:37:01.609Z</time></trkpt><trkpt lat="38.7583788" lon="16.3955335"><ele>874.0</ele><time>2026-04-19T10:37:05.608Z</time></trkpt><trkpt lat="38.7583663" lon="16.3956227"><ele>873.9999999999999</ele><time>2026-04-19T10:37:10.608Z</time></trkpt><trkpt lat="38.758349" lon="16.395731"><ele>874.0</ele><time>2026-04-19T10:37:24.618Z</time></trkpt><trkpt lat="38.7583124" lon="16.3958237"><ele>872.3333333333333</ele><time>2026-04-19T10:37:31.614Z</time></trkpt><trkpt lat="38.758281" lon="16.3958962"><ele>870.6666666666666</ele><time>2026-04-19T10:37:33.618Z</time></trkpt><trkpt lat="38.7582398" lon="16.3959993"><ele>869.0</ele><time>2026-04-19T10:37:35.612Z</time></trkpt><trkpt lat="38.7582077" lon="16.3961083"><ele>867.3333333333333</ele><time>2026-04-19T10:37:37.61Z</time></trkpt><trkpt lat="38.7581734" lon="16.3962612"><ele>865.6666666666666</ele><time>2026-04-19T10:37:39.607Z</time></trkpt><trkpt lat="38.7581771" lon="16.3963598"><ele>864.0</ele><time>2026-04-19T10:37:40.606Z</time></trkpt><trkpt lat="38.7581663" lon="16.396464"><ele>862.0</ele><time>2026-04-19T10:37:41.613Z</time></trkpt><trkpt lat="38.7581428" lon="16.3965848"><ele>860.0000000000001</ele><time>2026-04-19T10:37:42.604Z</time></trkpt><trkpt lat="38.7581188" lon="16.3966846"><ele>858.0000000000001</ele><time>2026-04-19T10:37:43.612Z</time></trkpt><trkpt lat="38.7580889" lon="16.3968081"><ele>856.0</ele><time>2026-04-19T10:37:44.61Z</time></trkpt><trkpt lat="38.7580452" lon="16.3969443"><ele>854.0</ele><time>2026-04-19T10:37:45.608Z</time></trkpt><trkpt lat="38.7580156" lon="16.3970543"><ele>854.0000000000001</ele><time>2026-04-19T10:37:46.623Z</time></trkpt><trkpt lat="38.7579998" lon="16.3971551"><ele>854.0</ele><time>2026-04-19T10:37:47.609Z</time></trkpt><trkpt lat="38.7580217" lon="16.3972672"><ele>854.0</ele><time>2026-04-19T10:37:48.603Z</time></trkpt><trkpt lat="38.7580468" lon="16.397368"><ele>854.0</ele><time>2026-04-19T10:37:49.603Z</time></trkpt><trkpt lat="38.7580561" lon="16.3974703"><ele>854.0000000000001</ele><time>2026-04-19T10:37:50.603Z</time></trkpt><trkpt lat="38.7580394" lon="16.3975838"><ele>854.0</ele><time>2026-04-19T10:37:51.618Z</time></trkpt><trkpt lat="38.7580165" lon="16.3977031"><ele>852.5000000000001</ele><time>2026-04-19T10:37:52.608Z</time></trkpt><trkpt lat="38.7579813" lon="16.3978124"><ele>851.0</ele><time>2026-04-19T10:37:53.614Z</time></trkpt><trkpt lat="38.7579497" lon="16.3979125"><ele>849.5</ele><time>2026-04-19T10:37:54.607Z</time></trkpt><trkpt lat="38.757925" lon="16.3980033"><ele>848.0</ele><time>2026-04-19T10:37:55.608Z</time></trkpt><trkpt lat="38.7579084" lon="16.398082"><ele>846.5000000000001</ele><time>2026-04-19T10:37:56.614Z</time></trkpt><trkpt lat="38.7578903" lon="16.398165"><ele>845.0</ele><time>2026-04-19T10:37:57.604Z</time></trkpt><trkpt lat="38.7578731" lon="16.3982506"><ele>844.0000000000001</ele><time>2026-04-19T10:37:58.609Z</time></trkpt><trkpt lat="38.7578471" lon="16.3983768"><ele>843.0</ele><time>2026-04-19T10:38:00.609Z</time></trkpt><trkpt lat="38.7578212" lon="16.3984509"><ele>842.0</ele><time>2026-04-19T10:38:02.616Z</time></trkpt><trkpt lat="38.7577867" lon="16.3985397"><ele>841.0</ele><time>2026-04-19T10:38:05.609Z</time></trkpt><trkpt lat="38.757749" lon="16.3986082"><ele>840.0000000000001</ele><time>2026-04-19T10:38:07.608Z</time></trkpt><trkpt lat="38.7577087" lon="16.3986996"><ele>839.0</ele><time>2026-04-19T10:38:10.615Z</time></trkpt><trkpt lat="38.7576628" lon="16.3987757"><ele>838.3333333333334</ele><time>2026-04-19T10:38:12.606Z</time></trkpt><trkpt lat="38.7576055" lon="16.3988731"><ele>837.6666666666667</ele><time>2026-04-19T10:38:15.613Z</time></trkpt><trkpt lat="38.7575378" lon="16.3990016"><ele>837.0</ele><time>2026-04-19T10:38:17.609Z</time></trkpt><trkpt lat="38.7575045" lon="16.3990899"><ele>836.3333333333333</ele><time>2026-04-19T10:38:18.605Z</time></trkpt><trkpt lat="38.7574739" lon="16.3991727"><ele>835.6666666666666</ele><time>2026-04-19T10:38:19.61Z</time></trkpt><trkpt lat="38.7574465" lon="16.3992517"><ele>835.0</ele><time>2026-04-19T10:38:20.607Z</time></trkpt><trkpt lat="38.7574073" lon="16.3993741"><ele>834.9999999999999</ele><time>2026-04-19T10:38:22.61Z</time></trkpt><trkpt lat="38.7573777" lon="16.3994578"><ele>835.0</ele><time>2026-04-19T10:38:25.615Z</time></trkpt><trkpt lat="38.7573316" lon="16.3995432"><ele>835.0</ele><time>2026-04-19T10:38:32.609Z</time></trkpt><trkpt lat="38.7572944" lon="16.3996215"><ele>835.0</ele><time>2026-04-19T10:38:36.607Z</time></trkpt><trkpt lat="38.7572499" lon="16.3997114"><ele>834.9999999999999</ele><time>2026-04-19T10:38:38.616Z</time></trkpt><trkpt lat="38.7572129" lon="16.3998003"><ele>835.0</ele><time>2026-04-19T10:38:41.611Z</time></trkpt><trkpt lat="38.7571581" lon="16.3998854"><ele>834.4</ele><time>2026-04-19T10:38:43.608Z</time></trkpt><trkpt lat="38.7571005" lon="16.3999785"><ele>833.8</ele><time>2026-04-19T10:38:45.615Z</time></trkpt><trkpt lat="38.7570399" lon="16.4001111"><ele>833.2</ele><time>2026-04-19T10:38:47.611Z</time></trkpt><trkpt lat="38.7569929" lon="16.4002218"><ele>832.6</ele><time>2026-04-19T10:38:49.604Z</time></trkpt><trkpt lat="38.7569369" lon="16.4003006"><ele>832.0</ele><time>2026-04-19T10:38:51.608Z</time></trkpt><trkpt lat="38.7568942" lon="16.4003609"><ele>830.9999999999999</ele><time>2026-04-19T10:38:53.607Z</time></trkpt><trkpt lat="38.7568159" lon="16.4004511"><ele>830.0</ele><time>2026-04-19T10:38:56.611Z</time></trkpt><trkpt lat="38.7567557" lon="16.4005208"><ele>829.0</ele><time>2026-04-19T10:38:58.606Z</time></trkpt><trkpt lat="38.7567086" lon="16.4005896"><ele>828.0</ele><time>2026-04-19T10:39:00.613Z</time></trkpt><trkpt lat="38.7566454" lon="16.4006656"><ele>826.9999999999999</ele><time>2026-04-19T10:39:02.603Z</time></trkpt><trkpt lat="38.7565653" lon="16.4007042"><ele>826.0</ele><time>2026-04-19T10:39:04.61Z</time></trkpt><trkpt lat="38.7565029" lon="16.4007508"><ele>824.9999999999999</ele><time>2026-04-19T10:39:08.61Z</time></trkpt><trkpt lat="38.756459" lon="16.4008257"><ele>824.0</ele><time>2026-04-19T10:39:13.608Z</time></trkpt><trkpt lat="38.7564546" lon="16.4009083"><ele>823.0</ele><time>2026-04-19T10:39:15.612Z</time></trkpt><trkpt lat="38.7564167" lon="16.400998"><ele>822.0</ele><time>2026-04-19T10:39:17.605Z</time></trkpt><trkpt lat="38.7563559" lon="16.4010906"><ele>820.9999999999999</ele><time>2026-04-19T10:39:19.607Z</time></trkpt><trkpt lat="38.756288" lon="16.401217"><ele>820.0</ele><time>2026-04-19T10:39:21.609Z</time></trkpt><trkpt lat="38.75624" lon="16.4013272"><ele>819.5</ele><time>2026-04-19T10:39:22.604Z</time></trkpt><trkpt lat="38.7561841" lon="16.4014468"><ele>819.0</ele><time>2026-04-19T10:39:23.606Z</time></trkpt><trkpt lat="38.7561245" lon="16.4015595"><ele>818.5</ele><time>2026-04-19T10:39:24.605Z</time></trkpt><trkpt lat="38.7560472" lon="16.4016696"><ele>818.0</ele><time>2026-04-19T10:39:25.606Z</time></trkpt><trkpt lat="38.7559389" lon="16.4017738"><ele>818.0000000000001</ele><time>2026-04-19T10:39:26.602Z</time></trkpt><trkpt lat="38.7558193" lon="16.4018271"><ele>818.0</ele><time>2026-04-19T10:39:27.609Z</time></trkpt><trkpt lat="38.7557358" lon="16.4018835"><ele>818.0</ele><time>2026-04-19T10:39:28.607Z</time></trkpt><trkpt lat="38.75568" lon="16.4019274"><ele>818.0</ele><time>2026-04-19T10:39:29.603Z</time></trkpt><trkpt lat="38.7556149" lon="16.401959"><ele>818.0000000000001</ele><time>2026-04-19T10:39:42.62Z</time></trkpt><trkpt lat="38.7556399" lon="16.4020442"><ele>818.0</ele><time>2026-04-19T10:39:47.611Z</time></trkpt><trkpt lat="38.7557027" lon="16.4021618"><ele>815.4</ele><time>2026-04-19T10:39:49.609Z</time></trkpt><trkpt lat="38.7557214" lon="16.4022472"><ele>812.8</ele><time>2026-04-19T10:39:50.609Z</time></trkpt><trkpt lat="38.7556831" lon="16.4023539"><ele>810.2</ele><time>2026-04-19T10:39:52.617Z</time></trkpt><trkpt lat="38.7556069" lon="16.4024498"><ele>807.6</ele><time>2026-04-19T10:39:54.618Z</time></trkpt><trkpt lat="38.7555283" lon="16.4025317"><ele>805.0</ele><time>2026-04-19T10:39:56.607Z</time></trkpt><trkpt lat="38.7554938" lon="16.4026418"><ele>805.0</ele><time>2026-04-19T10:39:58.607Z</time></trkpt><trkpt lat="38.7554658" lon="16.4028021"><ele>805.0</ele><time>2026-04-19T10:40:00.612Z</time></trkpt><trkpt lat="38.7554408" lon="16.4028819"><ele>805.0</ele><time>2026-04-19T10:40:01.607Z</time></trkpt><trkpt lat="38.7554051" lon="16.4030022"><ele>805.0</ele><time>2026-04-19T10:40:03.608Z</time></trkpt><trkpt lat="38.7553693" lon="16.4031309"><ele>805.0</ele><time>2026-04-19T10:40:05.606Z</time></trkpt><trkpt lat="38.7553574" lon="16.4032212"><ele>805.0</ele><time>2026-04-19T10:40:06.609Z</time></trkpt><trkpt lat="38.7553442" lon="16.403303"><ele>805.0</ele><time>2026-04-19T10:40:07.608Z</time></trkpt><trkpt lat="38.7553227" lon="16.4034332"><ele>805.0</ele><time>2026-04-19T10:40:09.606Z</time></trkpt><trkpt lat="38.755298" lon="16.4035991"><ele>805.0</ele><time>2026-04-19T10:40:11.607Z</time></trkpt><trkpt lat="38.7552832" lon="16.4036997"><ele>805.0</ele><time>2026-04-19T10:40:12.61Z</time></trkpt><trkpt lat="38.7552646" lon="16.4038023"><ele>806.4</ele><time>2026-04-19T10:40:13.607Z</time></trkpt><trkpt lat="38.7552454" lon="16.4039116"><ele>807.8</ele><time>2026-04-19T10:40:14.615Z</time></trkpt><trkpt lat="38.7552207" lon="16.4040235"><ele>809.2</ele><time>2026-04-19T10:40:15.608Z</time></trkpt><trkpt lat="38.755196" lon="16.4041243"><ele>810.6</ele><time>2026-04-19T10:40:16.636Z</time></trkpt><trkpt lat="38.755155" lon="16.4042693"><ele>812.0</ele><time>2026-04-19T10:40:18.614Z</time></trkpt><trkpt lat="38.7551529" lon="16.4043628"><ele>812.8333333333334</ele><time>2026-04-19T10:40:19.615Z</time></trkpt><trkpt lat="38.7551509" lon="16.4044634"><ele>813.6666666666667</ele><time>2026-04-19T10:40:20.611Z</time></trkpt><trkpt lat="38.7551531" lon="16.4045628"><ele>814.5</ele><time>2026-04-19T10:40:21.617Z</time></trkpt><trkpt lat="38.7551631" lon="16.4046612"><ele>815.3333333333333</ele><time>2026-04-19T10:40:22.61Z</time></trkpt><trkpt lat="38.7551797" lon="16.4047637"><ele>816.1666666666666</ele><time>2026-04-19T10:40:23.62Z</time></trkpt><trkpt lat="38.7551941" lon="16.4048634"><ele>817.0</ele><time>2026-04-19T10:40:24.609Z</time></trkpt><trkpt lat="38.7552029" lon="16.4049605"><ele>817.3333333333333</ele><time>2026-04-19T10:40:25.609Z</time></trkpt><trkpt lat="38.7552149" lon="16.405086"><ele>817.6666666666666</ele><time>2026-04-19T10:40:27.616Z</time></trkpt><trkpt lat="38.7552338" lon="16.4051923"><ele>818.0</ele><time>2026-04-19T10:40:29.616Z</time></trkpt><trkpt lat="38.7552479" lon="16.4052887"><ele>818.3333333333333</ele><time>2026-04-19T10:40:31.612Z</time></trkpt><trkpt lat="38.7552614" lon="16.4053978"><ele>818.6666666666666</ele><time>2026-04-19T10:40:34.608Z</time></trkpt><trkpt lat="38.7551898" lon="16.4054372"><ele>819.0</ele><time>2026-04-19T10:40:38.605Z</time></trkpt><trkpt lat="38.7551221" lon="16.4053725"><ele>819.1666666666666</ele><time>2026-04-19T10:40:40.61Z</time></trkpt><trkpt lat="38.75507" lon="16.405325"><ele>819.3333333333333</ele><time>2026-04-19T10:40:42.616Z</time></trkpt><trkpt lat="38.7550156" lon="16.4052699"><ele>819.5</ele><time>2026-04-19T10:40:44.608Z</time></trkpt><trkpt lat="38.7549563" lon="16.4052068"><ele>819.6666666666666</ele><time>2026-04-19T10:40:46.62Z</time></trkpt><trkpt lat="38.7548846" lon="16.4051486"><ele>819.8333333333333</ele><time>2026-04-19T10:40:48.608Z</time></trkpt><trkpt lat="38.7547739" lon="16.4050781"><ele>820.0</ele><time>2026-04-19T10:40:50.605Z</time></trkpt><trkpt lat="38.754709" lon="16.4050487"><ele>819.9999999999999</ele><time>2026-04-19T10:40:51.606Z</time></trkpt><trkpt lat="38.75463" lon="16.4050067"><ele>820.0</ele><time>2026-04-19T10:40:52.611Z</time></trkpt><trkpt lat="38.754559" lon="16.4049606"><ele>820.0</ele><time>2026-04-19T10:40:53.611Z</time></trkpt><trkpt lat="38.7544907" lon="16.4049263"><ele>820.0</ele><time>2026-04-19T10:40:54.606Z</time></trkpt><trkpt lat="38.754432" lon="16.4048959"><ele>819.9999999999999</ele><time>2026-04-19T10:40:55.625Z</time></trkpt><trkpt lat="38.7543167" lon="16.4048417"><ele>820.0</ele><time>2026-04-19T10:40:57.611Z</time></trkpt><trkpt lat="38.7541982" lon="16.4047952"><ele>819.9999999999999</ele><time>2026-04-19T10:40:59.604Z</time></trkpt><trkpt lat="38.7541255" lon="16.4047639"><ele>820.0</ele><time>2026-04-19T10:41:00.603Z</time></trkpt><trkpt lat="38.7540473" lon="16.4047376"><ele>820.0</ele><time>2026-04-19T10:41:01.61Z</time></trkpt><trkpt lat="38.7539772" lon="16.4047165"><ele>820.0</ele><time>2026-04-19T10:41:02.609Z</time></trkpt><trkpt lat="38.7539092" lon="16.4046922"><ele>819.9999999999999</ele><time>2026-04-19T10:41:03.617Z</time></trkpt><trkpt lat="38.7537898" lon="16.404626"><ele>820.0</ele><time>2026-04-19T10:41:05.617Z</time></trkpt><trkpt lat="38.7537233" lon="16.4045682"><ele>819.9999999999999</ele><time>2026-04-19T10:41:06.604Z</time></trkpt><trkpt lat="38.7536537" lon="16.4045185"><ele>820.0</ele><time>2026-04-19T10:41:07.611Z</time></trkpt><trkpt lat="38.7535784" lon="16.4044788"><ele>820.0</ele><time>2026-04-19T10:41:08.605Z</time></trkpt><trkpt lat="38.7535027" lon="16.4044471"><ele>820.0</ele><time>2026-04-19T10:41:09.607Z</time></trkpt><trkpt lat="38.7534279" lon="16.4044523"><ele>819.9999999999999</ele><time>2026-04-19T10:41:10.61Z</time></trkpt><trkpt lat="38.7533495" lon="16.4045044"><ele>820.0</ele><time>2026-04-19T10:41:11.607Z</time></trkpt><trkpt lat="38.7532961" lon="16.4046001"><ele>822.6</ele><time>2026-04-19T10:41:12.613Z</time></trkpt><trkpt lat="38.7532659" lon="16.404708"><ele>825.2</ele><time>2026-04-19T10:41:13.609Z</time></trkpt><trkpt lat="38.7532311" lon="16.4048273"><ele>827.8</ele><time>2026-04-19T10:41:14.613Z</time></trkpt><trkpt lat="38.7531908" lon="16.4049699"><ele>830.4</ele><time>2026-04-19T10:41:15.603Z</time></trkpt><trkpt lat="38.7531433" lon="16.4051013"><ele>833.0</ele><time>2026-04-19T10:41:16.604Z</time></trkpt><trkpt lat="38.7531032" lon="16.4052308"><ele>833.0</ele><time>2026-04-19T10:41:17.605Z</time></trkpt><trkpt lat="38.7530433" lon="16.4053302"><ele>833.0</ele><time>2026-04-19T10:41:18.602Z</time></trkpt><trkpt lat="38.7529721" lon="16.4054242"><ele>833.0</ele><time>2026-04-19T10:41:19.628Z</time></trkpt><trkpt lat="38.7528944" lon="16.4055261"><ele>833.0</ele><time>2026-04-19T10:41:20.604Z</time></trkpt><trkpt lat="38.7528128" lon="16.405637"><ele>833.0</ele><time>2026-04-19T10:41:21.603Z</time></trkpt><trkpt lat="38.7527372" lon="16.4057562"><ele>833.75</ele><time>2026-04-19T10:41:22.614Z</time></trkpt><trkpt lat="38.7526676" lon="16.4058722"><ele>834.5</ele><time>2026-04-19T10:41:23.61Z</time></trkpt><trkpt lat="38.7526066" lon="16.4059999"><ele>835.25</ele><time>2026-04-19T10:41:24.608Z</time></trkpt><trkpt lat="38.7525336" lon="16.4061397"><ele>836.0</ele><time>2026-04-19T10:41:25.616Z</time></trkpt><trkpt lat="38.7524616" lon="16.4062712"><ele>836.8333333333334</ele><time>2026-04-19T10:41:26.613Z</time></trkpt><trkpt lat="38.7523947" lon="16.4063705"><ele>837.6666666666667</ele><time>2026-04-19T10:41:27.604Z</time></trkpt><trkpt lat="38.7523258" lon="16.4064383"><ele>838.5</ele><time>2026-04-19T10:41:28.608Z</time></trkpt><trkpt lat="38.7522744" lon="16.4064869"><ele>839.3333333333333</ele><time>2026-04-19T10:41:29.605Z</time></trkpt><trkpt lat="38.7521533" lon="16.406474"><ele>840.1666666666666</ele><time>2026-04-19T10:41:31.609Z</time></trkpt><trkpt lat="38.7520895" lon="16.4065231"><ele>841.0</ele><time>2026-04-19T10:41:34.603Z</time></trkpt><trkpt lat="38.7521174" lon="16.406643"><ele>841.0</ele><time>2026-04-19T10:41:36.606Z</time></trkpt><trkpt lat="38.7521109" lon="16.4067291"><ele>841.0</ele><time>2026-04-19T10:41:39.607Z</time></trkpt><trkpt lat="38.7521414" lon="16.4068858"><ele>841.0</ele><time>2026-04-19T10:41:41.606Z</time></trkpt><trkpt lat="38.7521719" lon="16.4070074"><ele>841.0</ele><time>2026-04-19T10:41:42.601Z</time></trkpt><trkpt lat="38.7522208" lon="16.4071468"><ele>841.0</ele><time>2026-04-19T10:41:43.62Z</time></trkpt><trkpt lat="38.7522857" lon="16.4073216"><ele>842.1999999999999</ele><time>2026-04-19T10:41:44.611Z</time></trkpt><trkpt lat="38.7523422" lon="16.4074667"><ele>843.4</ele><time>2026-04-19T10:41:45.608Z</time></trkpt><trkpt lat="38.7523891" lon="16.4076"><ele>844.6</ele><time>2026-04-19T10:41:46.597Z</time></trkpt><trkpt lat="38.7524362" lon="16.4077252"><ele>845.8</ele><time>2026-04-19T10:41:47.6Z</time></trkpt><trkpt lat="38.7524718" lon="16.407821"><ele>847.0</ele><time>2026-04-19T10:41:48.605Z</time></trkpt><trkpt lat="38.7525001" lon="16.4079273"><ele>846.8</ele><time>2026-04-19T10:41:49.602Z</time></trkpt><trkpt lat="38.7525237" lon="16.4080282"><ele>846.6</ele><time>2026-04-19T10:41:50.607Z</time></trkpt><trkpt lat="38.7525365" lon="16.4081153"><ele>846.4</ele><time>2026-04-19T10:41:51.6Z</time></trkpt><trkpt lat="38.7525803" lon="16.4082661"><ele>846.1999999999999</ele><time>2026-04-19T10:41:53.605Z</time></trkpt><trkpt lat="38.7526082" lon="16.4083719"><ele>846.0</ele><time>2026-04-19T10:41:54.605Z</time></trkpt><trkpt lat="38.7526382" lon="16.4084943"><ele>846.0</ele><time>2026-04-19T10:41:55.605Z</time></trkpt><trkpt lat="38.7526608" lon="16.4086202"><ele>846.0</ele><time>2026-04-19T10:41:56.606Z</time></trkpt><trkpt lat="38.752687" lon="16.4087456"><ele>846.0</ele><time>2026-04-19T10:41:57.615Z</time></trkpt><trkpt lat="38.7527242" lon="16.4088644"><ele>846.0</ele><time>2026-04-19T10:41:58.605Z</time></trkpt><trkpt lat="38.7527696" lon="16.4089696"><ele>846.0</ele><time>2026-04-19T10:41:59.603Z</time></trkpt><trkpt lat="38.7528251" lon="16.4090761"><ele>844.5999999999999</ele><time>2026-04-19T10:42:00.602Z</time></trkpt><trkpt lat="38.7528906" lon="16.409179"><ele>843.2</ele><time>2026-04-19T10:42:01.606Z</time></trkpt><trkpt lat="38.7529361" lon="16.409276"><ele>841.8</ele><time>2026-04-19T10:42:02.606Z</time></trkpt><trkpt lat="38.7529897" lon="16.4093577"><ele>840.4000000000001</ele><time>2026-04-19T10:42:03.609Z</time></trkpt><trkpt lat="38.753061" lon="16.4094416"><ele>839.0</ele><time>2026-04-19T10:42:04.6Z</time></trkpt><trkpt lat="38.7531228" lon="16.4095281"><ele>839.0</ele><time>2026-04-19T10:42:05.614Z</time></trkpt><trkpt lat="38.7531755" lon="16.4096225"><ele>839.0</ele><time>2026-04-19T10:42:06.61Z</time></trkpt><trkpt lat="38.7532278" lon="16.4097281"><ele>839.0</ele><time>2026-04-19T10:42:07.61Z</time></trkpt><trkpt lat="38.7532539" lon="16.4098457"><ele>839.0</ele><time>2026-04-19T10:42:08.607Z</time></trkpt><trkpt lat="38.7532821" lon="16.4099719"><ele>839.0</ele><time>2026-04-19T10:42:09.603Z</time></trkpt><trkpt lat="38.7532898" lon="16.4101052"><ele>839.2</ele><time>2026-04-19T10:42:10.618Z</time></trkpt><trkpt lat="38.7532442" lon="16.4102235"><ele>839.4000000000001</ele><time>2026-04-19T10:42:11.602Z</time></trkpt><trkpt lat="38.753195" lon="16.41035"><ele>839.6</ele><time>2026-04-19T10:42:12.609Z</time></trkpt><trkpt lat="38.7531026" lon="16.4104399"><ele>839.8</ele><time>2026-04-19T10:42:13.602Z</time></trkpt><trkpt lat="38.7530279" lon="16.4105419"><ele>840.0</ele><time>2026-04-19T10:42:14.609Z</time></trkpt><trkpt lat="38.7529535" lon="16.4106458"><ele>838.6666666666666</ele><time>2026-04-19T10:42:15.619Z</time></trkpt><trkpt lat="38.7528842" lon="16.410743"><ele>837.3333333333333</ele><time>2026-04-19T10:42:16.606Z</time></trkpt><trkpt lat="38.7528296" lon="16.4108244"><ele>836.0</ele><time>2026-04-19T10:42:17.611Z</time></trkpt><trkpt lat="38.7527861" lon="16.4109001"><ele>834.6666666666666</ele><time>2026-04-19T10:42:18.608Z</time></trkpt><trkpt lat="38.7527546" lon="16.4109855"><ele>833.3333333333333</ele><time>2026-04-19T10:42:19.61Z</time></trkpt><trkpt lat="38.7527249" lon="16.4110873"><ele>832.0</ele><time>2026-04-19T10:42:20.62Z</time></trkpt><trkpt lat="38.7527303" lon="16.4111997"><ele>831.75</ele><time>2026-04-19T10:42:21.615Z</time></trkpt><trkpt lat="38.7527613" lon="16.4113349"><ele>831.5</ele><time>2026-04-19T10:42:22.609Z</time></trkpt><trkpt lat="38.7527921" lon="16.411478"><ele>831.25</ele><time>2026-04-19T10:42:23.605Z</time></trkpt><trkpt lat="38.752848" lon="16.4116122"><ele>831.0</ele><time>2026-04-19T10:42:24.605Z</time></trkpt><trkpt lat="38.7528968" lon="16.4117567"><ele>831.0</ele><time>2026-04-19T10:42:25.606Z</time></trkpt><trkpt lat="38.752943" lon="16.4119093"><ele>831.0</ele><time>2026-04-19T10:42:26.607Z</time></trkpt><trkpt lat="38.7529865" lon="16.4120636"><ele>831.0</ele><time>2026-04-19T10:42:27.609Z</time></trkpt><trkpt lat="38.7530348" lon="16.4122194"><ele>831.0</ele><time>2026-04-19T10:42:28.602Z</time></trkpt><trkpt lat="38.7530874" lon="16.4123682"><ele>831.75</ele><time>2026-04-19T10:42:29.618Z</time></trkpt><trkpt lat="38.7531522" lon="16.412521"><ele>832.5</ele><time>2026-04-19T10:42:30.603Z</time></trkpt><trkpt lat="38.7532122" lon="16.4126831"><ele>833.25</ele><time>2026-04-19T10:42:31.603Z</time></trkpt><trkpt lat="38.7532785" lon="16.4128631"><ele>834.0</ele><time>2026-04-19T10:42:32.605Z</time></trkpt><trkpt lat="38.7533374" lon="16.4130334"><ele>834.75</ele><time>2026-04-19T10:42:33.601Z</time></trkpt><trkpt lat="38.7533959" lon="16.4132027"><ele>835.5</ele><time>2026-04-19T10:42:34.603Z</time></trkpt><trkpt lat="38.7534359" lon="16.4133525"><ele>836.25</ele><time>2026-04-19T10:42:35.606Z</time></trkpt><trkpt lat="38.7534753" lon="16.4135325"><ele>837.0</ele><time>2026-04-19T10:42:36.603Z</time></trkpt><trkpt lat="38.7535142" lon="16.4136864"><ele>835.5</ele><time>2026-04-19T10:42:37.607Z</time></trkpt><trkpt lat="38.7535594" lon="16.4138364"><ele>834.0</ele><time>2026-04-19T10:42:38.615Z</time></trkpt><trkpt lat="38.7536142" lon="16.4139666"><ele>832.5</ele><time>2026-04-19T10:42:39.604Z</time></trkpt><trkpt lat="38.7536668" lon="16.4140868"><ele>831.0</ele><time>2026-04-19T10:42:40.611Z</time></trkpt><trkpt lat="38.753713" lon="16.414238"><ele>831.0</ele><time>2026-04-19T10:42:41.605Z</time></trkpt><trkpt lat="38.7537494" lon="16.4144028"><ele>831.0</ele><time>2026-04-19T10:42:42.604Z</time></trkpt><trkpt lat="38.7537807" lon="16.4145948"><ele>831.0</ele><time>2026-04-19T10:42:43.617Z</time></trkpt><trkpt lat="38.7538255" lon="16.4148073"><ele>831.6666666666667</ele><time>2026-04-19T10:42:44.604Z</time></trkpt><trkpt lat="38.7538482" lon="16.4150102"><ele>832.3333333333334</ele><time>2026-04-19T10:42:45.607Z</time></trkpt><trkpt lat="38.7538846" lon="16.4152083"><ele>833.0</ele><time>2026-04-19T10:42:46.612Z</time></trkpt><trkpt lat="38.7539227" lon="16.4154266"><ele>833.3333333333334</ele><time>2026-04-19T10:42:47.599Z</time></trkpt><trkpt lat="38.7539599" lon="16.4156364"><ele>833.6666666666667</ele><time>2026-04-19T10:42:48.607Z</time></trkpt><trkpt lat="38.7540049" lon="16.4158317"><ele>834.0</ele><time>2026-04-19T10:42:49.603Z</time></trkpt><trkpt lat="38.7540115" lon="16.4160186"><ele>834.0</ele><time>2026-04-19T10:42:50.603Z</time></trkpt><trkpt lat="38.7540124" lon="16.416221"><ele>834.0</ele><time>2026-04-19T10:42:51.611Z</time></trkpt><trkpt lat="38.7540338" lon="16.4164294"><ele>834.0</ele><time>2026-04-19T10:42:52.606Z</time></trkpt><trkpt lat="38.7540427" lon="16.4166421"><ele>834.3333333333333</ele><time>2026-04-19T10:42:53.597Z</time></trkpt><trkpt lat="38.754059" lon="16.4168469"><ele>834.6666666666666</ele><time>2026-04-19T10:42:54.604Z</time></trkpt><trkpt lat="38.7540965" lon="16.41703"><ele>835.0</ele><time>2026-04-19T10:42:55.602Z</time></trkpt><trkpt lat="38.7541167" lon="16.4172439"><ele>835.3333333333333</ele><time>2026-04-19T10:42:56.603Z</time></trkpt><trkpt lat="38.7541429" lon="16.4174358"><ele>835.6666666666667</ele><time>2026-04-19T10:42:57.602Z</time></trkpt><trkpt lat="38.754167" lon="16.417631"><ele>836.0</ele><time>2026-04-19T10:42:58.605Z</time></trkpt><trkpt lat="38.7541971" lon="16.4178142"><ele>835.25</ele><time>2026-04-19T10:42:59.607Z</time></trkpt><trkpt lat="38.7542279" lon="16.4179895"><ele>834.5</ele><time>2026-04-19T10:43:00.605Z</time></trkpt><trkpt lat="38.754231" lon="16.4181623"><ele>833.75</ele><time>2026-04-19T10:43:01.6Z</time></trkpt><trkpt lat="38.7542562" lon="16.4183242"><ele>833.0</ele><time>2026-04-19T10:43:02.603Z</time></trkpt><trkpt lat="38.7542655" lon="16.4185362"><ele>833.0</ele><time>2026-04-19T10:43:03.601Z</time></trkpt><trkpt lat="38.7541902" lon="16.4187999"><ele>833.0</ele><time>2026-04-19T10:43:04.604Z</time></trkpt><trkpt lat="38.7541879" lon="16.4189956"><ele>833.0</ele><time>2026-04-19T10:43:05.604Z</time></trkpt><trkpt lat="38.754185" lon="16.4191774"><ele>832.75</ele><time>2026-04-19T10:43:06.607Z</time></trkpt><trkpt lat="38.7541221" lon="16.4193463"><ele>832.5</ele><time>2026-04-19T10:43:07.605Z</time></trkpt><trkpt lat="38.7540892" lon="16.4195221"><ele>832.25</ele><time>2026-04-19T10:43:08.609Z</time></trkpt><trkpt lat="38.7540662" lon="16.41971"><ele>832.0</ele><time>2026-04-19T10:43:09.617Z</time></trkpt><trkpt lat="38.7540317" lon="16.4198735"><ele>832.75</ele><time>2026-04-19T10:43:10.607Z</time></trkpt><trkpt lat="38.7539821" lon="16.4200232"><ele>833.5</ele><time>2026-04-19T10:43:11.605Z</time></trkpt><trkpt lat="38.7538963" lon="16.4201195"><ele>834.25</ele><time>2026-04-19T10:43:12.604Z</time></trkpt><trkpt lat="38.7537925" lon="16.4202382"><ele>835.0</ele><time>2026-04-19T10:43:13.603Z</time></trkpt><trkpt lat="38.7536758" lon="16.4203295"><ele>835.0</ele><time>2026-04-19T10:43:14.604Z</time></trkpt><trkpt lat="38.7535501" lon="16.4204359"><ele>835.0</ele><time>2026-04-19T10:43:15.605Z</time></trkpt><trkpt lat="38.7534414" lon="16.420548"><ele>835.0</ele><time>2026-04-19T10:43:16.605Z</time></trkpt><trkpt lat="38.7533521" lon="16.4206553"><ele>835.0</ele><time>2026-04-19T10:43:17.6Z</time></trkpt><trkpt lat="38.7532795" lon="16.4207836"><ele>834.6</ele><time>2026-04-19T10:43:18.602Z</time></trkpt><trkpt lat="38.7531917" lon="16.4208612"><ele>834.2</ele><time>2026-04-19T10:43:19.604Z</time></trkpt><trkpt lat="38.753122" lon="16.4209721"><ele>833.8</ele><time>2026-04-19T10:43:20.604Z</time></trkpt><trkpt lat="38.7530529" lon="16.4210765"><ele>833.4</ele><time>2026-04-19T10:43:21.605Z</time></trkpt><trkpt lat="38.7529863" lon="16.4211904"><ele>833.0</ele><time>2026-04-19T10:43:22.614Z</time></trkpt><trkpt lat="38.7529134" lon="16.4212982"><ele>833.0</ele><time>2026-04-19T10:43:23.602Z</time></trkpt><trkpt lat="38.7528484" lon="16.4214421"><ele>833.0</ele><time>2026-04-19T10:43:24.605Z</time></trkpt><trkpt lat="38.7527687" lon="16.4215776"><ele>833.0</ele><time>2026-04-19T10:43:25.61Z</time></trkpt><trkpt lat="38.7526304" lon="16.4216938"><ele>833.0</ele><time>2026-04-19T10:43:26.603Z</time></trkpt><trkpt lat="38.7525248" lon="16.4218302"><ele>831.0</ele><time>2026-04-19T10:43:27.619Z</time></trkpt><trkpt lat="38.7524374" lon="16.4219667"><ele>829.0</ele><time>2026-04-19T10:43:28.609Z</time></trkpt><trkpt lat="38.7523394" lon="16.4221048"><ele>827.0</ele><time>2026-04-19T10:43:29.61Z</time></trkpt><trkpt lat="38.7522321" lon="16.4222269"><ele>825.0</ele><time>2026-04-19T10:43:30.608Z</time></trkpt><trkpt lat="38.7521478" lon="16.4223123"><ele>824.8333333333334</ele><time>2026-04-19T10:43:31.602Z</time></trkpt><trkpt lat="38.7520951" lon="16.4224013"><ele>824.6666666666667</ele><time>2026-04-19T10:43:32.607Z</time></trkpt><trkpt lat="38.7520547" lon="16.4224836"><ele>824.5</ele><time>2026-04-19T10:43:33.599Z</time></trkpt><trkpt lat="38.752015" lon="16.4225649"><ele>824.3333333333334</ele><time>2026-04-19T10:43:34.621Z</time></trkpt><trkpt lat="38.7519597" lon="16.4226533"><ele>824.1666666666667</ele><time>2026-04-19T10:43:35.606Z</time></trkpt><trkpt lat="38.7518967" lon="16.4227134"><ele>824.0</ele><time>2026-04-19T10:43:36.607Z</time></trkpt><trkpt lat="38.7518395" lon="16.4227545"><ele>823.2</ele><time>2026-04-19T10:43:37.61Z</time></trkpt><trkpt lat="38.7517077" lon="16.422729"><ele>822.4000000000001</ele><time>2026-04-19T10:43:47.61Z</time></trkpt><trkpt lat="38.7515962" lon="16.4226745"><ele>821.6</ele><time>2026-04-19T10:43:54.608Z</time></trkpt><trkpt lat="38.7515278" lon="16.4226938"><ele>820.8</ele><time>2026-04-19T10:43:56.607Z</time></trkpt><trkpt lat="38.7514484" lon="16.4227182"><ele>820.0</ele><time>2026-04-19T10:43:58.606Z</time></trkpt><trkpt lat="38.7513609" lon="16.4227503"><ele>820.0</ele><time>2026-04-19T10:44:00.605Z</time></trkpt><trkpt lat="38.7512831" lon="16.4227613"><ele>820.0</ele><time>2026-04-19T10:44:02.609Z</time></trkpt><trkpt lat="38.7511937" lon="16.4227919"><ele>820.0</ele><time>2026-04-19T10:44:04.608Z</time></trkpt><trkpt lat="38.7511078" lon="16.4228297"><ele>820.0</ele><time>2026-04-19T10:44:06.619Z</time></trkpt><trkpt lat="38.7510182" lon="16.422855"><ele>820.0</ele><time>2026-04-19T10:44:08.604Z</time></trkpt><trkpt lat="38.7508979" lon="16.4228938"><ele>820.1666666666666</ele><time>2026-04-19T10:44:10.605Z</time></trkpt><trkpt lat="38.7507726" lon="16.4229419"><ele>820.3333333333333</ele><time>2026-04-19T10:44:12.599Z</time></trkpt><trkpt lat="38.7507033" lon="16.4229662"><ele>820.5</ele><time>2026-04-19T10:44:13.612Z</time></trkpt><trkpt lat="38.750627" lon="16.4229956"><ele>820.6666666666667</ele><time>2026-04-19T10:44:14.603Z</time></trkpt><trkpt lat="38.7505466" lon="16.4230203"><ele>820.8333333333334</ele><time>2026-04-19T10:44:15.608Z</time></trkpt><trkpt lat="38.7504711" lon="16.423048"><ele>821.0</ele><time>2026-04-19T10:44:16.613Z</time></trkpt><trkpt lat="38.7504033" lon="16.4230924"><ele>820.1666666666667</ele><time>2026-04-19T10:44:17.605Z</time></trkpt><trkpt lat="38.7503298" lon="16.4231328"><ele>819.3333333333334</ele><time>2026-04-19T10:44:18.603Z</time></trkpt><trkpt lat="38.7502552" lon="16.4231874"><ele>818.5</ele><time>2026-04-19T10:44:19.607Z</time></trkpt><trkpt lat="38.7501922" lon="16.423234"><ele>817.6666666666667</ele><time>2026-04-19T10:44:20.607Z</time></trkpt><trkpt lat="38.7501267" lon="16.4233039"><ele>816.8333333333334</ele><time>2026-04-19T10:44:21.608Z</time></trkpt><trkpt lat="38.7500346" lon="16.4233674"><ele>816.0</ele><time>2026-04-19T10:44:23.614Z</time></trkpt><trkpt lat="38.7499763" lon="16.4233138"><ele>815.8333333333334</ele><time>2026-04-19T10:44:25.611Z</time></trkpt><trkpt lat="38.7499478" lon="16.4232227"><ele>815.6666666666667</ele><time>2026-04-19T10:44:26.611Z</time></trkpt><trkpt lat="38.7499374" lon="16.423142"><ele>815.5</ele><time>2026-04-19T10:44:27.606Z</time></trkpt><trkpt lat="38.7498798" lon="16.4230524"><ele>815.3333333333334</ele><time>2026-04-19T10:44:29.609Z</time></trkpt><trkpt lat="38.7498238" lon="16.4229704"><ele>815.1666666666667</ele><time>2026-04-19T10:44:31.615Z</time></trkpt><trkpt lat="38.7497174" lon="16.4229158"><ele>815.0</ele><time>2026-04-19T10:44:33.604Z</time></trkpt><trkpt lat="38.7496389" lon="16.4229094"><ele>815.0</ele><time>2026-04-19T10:44:35.607Z</time></trkpt><trkpt lat="38.7495273" lon="16.4228927"><ele>815.0</ele><time>2026-04-19T10:44:37.627Z</time></trkpt><trkpt lat="38.7494719" lon="16.4228507"><ele>815.0</ele><time>2026-04-19T10:44:38.609Z</time></trkpt><trkpt lat="38.7493761" lon="16.4227911"><ele>815.0</ele><time>2026-04-19T10:44:40.608Z</time></trkpt><trkpt lat="38.7492925" lon="16.4228074"><ele>815.0</ele><time>2026-04-19T10:44:42.614Z</time></trkpt><trkpt lat="38.7492223" lon="16.4229072"><ele>812.5000000000001</ele><time>2026-04-19T10:44:46.608Z</time></trkpt><trkpt lat="38.7492536" lon="16.4230101"><ele>810.0</ele><time>2026-04-19T10:44:48.608Z</time></trkpt><trkpt lat="38.7492481" lon="16.4231537"><ele>807.5</ele><time>2026-04-19T10:44:50.611Z</time></trkpt><trkpt lat="38.7492539" lon="16.4232578"><ele>805.0</ele><time>2026-04-19T10:45:04.61Z</time></trkpt><trkpt lat="38.7492259" lon="16.4233448"><ele>802.5000000000001</ele><time>2026-04-19T10:45:05.611Z</time></trkpt><trkpt lat="38.749157" lon="16.4233364"><ele>800.0</ele><time>2026-04-19T10:45:10.612Z</time></trkpt><trkpt lat="38.7490522" lon="16.4233364"><ele>800.0</ele><time>2026-04-19T10:45:13.619Z</time></trkpt><trkpt lat="38.7489275" lon="16.4233366"><ele>800.0</ele><time>2026-04-19T10:45:15.609Z</time></trkpt><trkpt lat="38.7488113" lon="16.4233743"><ele>800.0</ele><time>2026-04-19T10:45:17.603Z</time></trkpt><trkpt lat="38.7487498" lon="16.4234345"><ele>800.0</ele><time>2026-04-19T10:45:18.61Z</time></trkpt><trkpt lat="38.74869" lon="16.4235002"><ele>800.0</ele><time>2026-04-19T10:45:19.603Z</time></trkpt><trkpt lat="38.7486097" lon="16.4236017"><ele>800.0000000000001</ele><time>2026-04-19T10:45:21.613Z</time></trkpt><trkpt lat="38.74855" lon="16.4236379"><ele>800.0</ele><time>2026-04-19T10:45:23.605Z</time></trkpt><trkpt lat="38.7484716" lon="16.4236607"><ele>800.0</ele><time>2026-04-19T10:45:25.607Z</time></trkpt><trkpt lat="38.7484027" lon="16.4236756"><ele>800.0</ele><time>2026-04-19T10:45:27.606Z</time></trkpt><trkpt lat="38.7483308" lon="16.4237103"><ele>800.0000000000001</ele><time>2026-04-19T10:45:29.61Z</time></trkpt><trkpt lat="38.7482554" lon="16.4237573"><ele>800.0</ele><time>2026-04-19T10:45:31.608Z</time></trkpt><trkpt lat="38.7481519" lon="16.4238085"><ele>797.2857142857143</ele><time>2026-04-19T10:45:33.611Z</time></trkpt><trkpt lat="38.7480852" lon="16.4238299"><ele>794.5714285714286</ele><time>2026-04-19T10:45:34.603Z</time></trkpt><trkpt lat="38.7480073" lon="16.4238382"><ele>791.8571428571429</ele><time>2026-04-19T10:45:35.604Z</time></trkpt><trkpt lat="38.7479365" lon="16.423844"><ele>789.1428571428571</ele><time>2026-04-19T10:45:36.606Z</time></trkpt><trkpt lat="38.7478703" lon="16.4238573"><ele>786.4285714285714</ele><time>2026-04-19T10:45:37.609Z</time></trkpt><trkpt lat="38.7478125" lon="16.4239006"><ele>783.7142857142858</ele><time>2026-04-19T10:45:38.607Z</time></trkpt><trkpt lat="38.7477411" lon="16.4239215"><ele>781.0</ele><time>2026-04-19T10:45:39.605Z</time></trkpt><trkpt lat="38.747674" lon="16.4239307"><ele>779.9999999999999</ele><time>2026-04-19T10:45:40.62Z</time></trkpt><trkpt lat="38.7476049" lon="16.4239257"><ele>779.0</ele><time>2026-04-19T10:45:41.611Z</time></trkpt><trkpt lat="38.7475343" lon="16.423928"><ele>778.0</ele><time>2026-04-19T10:45:42.611Z</time></trkpt><trkpt lat="38.7474537" lon="16.4239595"><ele>777.0</ele><time>2026-04-19T10:45:43.603Z</time></trkpt><trkpt lat="38.7473819" lon="16.4240305"><ele>775.9999999999999</ele><time>2026-04-19T10:45:44.615Z</time></trkpt><trkpt lat="38.7473085" lon="16.4241039"><ele>775.0</ele><time>2026-04-19T10:45:45.6Z</time></trkpt><trkpt lat="38.7472162" lon="16.4241579"><ele>775.0</ele><time>2026-04-19T10:45:46.614Z</time></trkpt><trkpt lat="38.7471397" lon="16.424205"><ele>775.0</ele><time>2026-04-19T10:45:47.611Z</time></trkpt><trkpt lat="38.7470505" lon="16.4243087"><ele>775.0</ele><time>2026-04-19T10:45:49.605Z</time></trkpt><trkpt lat="38.7470044" lon="16.4243873"><ele>775.0</ele><time>2026-04-19T10:45:50.605Z</time></trkpt><trkpt lat="38.7469456" lon="16.4245034"><ele>775.0</ele><time>2026-04-19T10:45:51.604Z</time></trkpt><trkpt lat="38.7468704" lon="16.4246089"><ele>774.0</ele><time>2026-04-19T10:45:52.605Z</time></trkpt><trkpt lat="38.7468058" lon="16.4246932"><ele>773.0</ele><time>2026-04-19T10:45:53.603Z</time></trkpt><trkpt lat="38.7467383" lon="16.424747"><ele>772.0</ele><time>2026-04-19T10:45:54.603Z</time></trkpt><trkpt lat="38.7466431" lon="16.4247936"><ele>771.0</ele><time>2026-04-19T10:45:56.603Z</time></trkpt><trkpt lat="38.7466045" lon="16.4247142"><ele>770.0</ele><time>2026-04-19T10:45:58.611Z</time></trkpt><trkpt lat="38.7465287" lon="16.4245756"><ele>769.4285714285714</ele><time>2026-04-19T10:46:00.607Z</time></trkpt><trkpt lat="38.7464955" lon="16.4244888"><ele>768.8571428571429</ele><time>2026-04-19T10:46:01.607Z</time></trkpt><trkpt lat="38.7464729" lon="16.4243932"><ele>768.2857142857142</ele><time>2026-04-19T10:46:02.603Z</time></trkpt><trkpt lat="38.7464656" lon="16.4242923"><ele>767.7142857142858</ele><time>2026-04-19T10:46:03.603Z</time></trkpt><trkpt lat="38.7464674" lon="16.4242011"><ele>767.1428571428571</ele><time>2026-04-19T10:46:04.609Z</time></trkpt><trkpt lat="38.7464631" lon="16.4241203"><ele>766.5714285714286</ele><time>2026-04-19T10:46:05.607Z</time></trkpt><trkpt lat="38.7464571" lon="16.4240351"><ele>766.0</ele><time>2026-04-19T10:46:06.601Z</time></trkpt><trkpt lat="38.7464461" lon="16.4239451"><ele>766.0</ele><time>2026-04-19T10:46:07.604Z</time></trkpt><trkpt lat="38.7464284" lon="16.4238556"><ele>766.0</ele><time>2026-04-19T10:46:08.606Z</time></trkpt><trkpt lat="38.7464142" lon="16.4237634"><ele>766.0</ele><time>2026-04-19T10:46:09.606Z</time></trkpt><trkpt lat="38.7464029" lon="16.4236663"><ele>766.0</ele><time>2026-04-19T10:46:10.608Z</time></trkpt><trkpt lat="38.7463853" lon="16.4235779"><ele>766.0</ele><time>2026-04-19T10:46:11.605Z</time></trkpt><trkpt lat="38.7463712" lon="16.4234905"><ele>766.0</ele><time>2026-04-19T10:46:12.606Z</time></trkpt><trkpt lat="38.7463521" lon="16.4234108"><ele>766.0</ele><time>2026-04-19T10:46:13.636Z</time></trkpt><trkpt lat="38.7463159" lon="16.4233315"><ele>765.1999999999999</ele><time>2026-04-19T10:46:14.607Z</time></trkpt><trkpt lat="38.746259" lon="16.4232461"><ele>764.4</ele><time>2026-04-19T10:46:15.604Z</time></trkpt><trkpt lat="38.74621" lon="16.4231677"><ele>763.6</ele><time>2026-04-19T10:46:16.611Z</time></trkpt><trkpt lat="38.7461633" lon="16.4230995"><ele>762.8</ele><time>2026-04-19T10:46:17.612Z</time></trkpt><trkpt lat="38.7461037" lon="16.4229849"><ele>762.0</ele><time>2026-04-19T10:46:19.607Z</time></trkpt><trkpt lat="38.7460035" lon="16.4228166"><ele>758.6666666666666</ele><time>2026-04-19T10:46:53.606Z</time></trkpt><trkpt lat="38.7459763" lon="16.4227312"><ele>755.3333333333334</ele><time>2026-04-19T10:47:02.611Z</time></trkpt><trkpt lat="38.7459464" lon="16.4226261"><ele>752.0</ele><time>2026-04-19T10:47:08.61Z</time></trkpt><trkpt lat="38.745926" lon="16.4225103"><ele>748.6666666666667</ele><time>2026-04-19T10:47:10.603Z</time></trkpt><trkpt lat="38.7459189" lon="16.4223814"><ele>745.3333333333334</ele><time>2026-04-19T10:47:12.609Z</time></trkpt><trkpt lat="38.7459419" lon="16.4222936"><ele>742.0</ele><time>2026-04-19T10:47:13.605Z</time></trkpt><trkpt lat="38.7459747" lon="16.4222039"><ele>742.0</ele><time>2026-04-19T10:47:14.61Z</time></trkpt><trkpt lat="38.7460126" lon="16.4221262"><ele>742.0</ele><time>2026-04-19T10:47:15.613Z</time></trkpt><trkpt lat="38.7460429" lon="16.4220448"><ele>742.0</ele><time>2026-04-19T10:47:16.603Z</time></trkpt><trkpt lat="38.7460769" lon="16.4219633"><ele>742.0</ele><time>2026-04-19T10:47:17.605Z</time></trkpt><trkpt lat="38.7461243" lon="16.4218804"><ele>742.0</ele><time>2026-04-19T10:47:18.606Z</time></trkpt><trkpt lat="38.7461675" lon="16.421805"><ele>742.0</ele><time>2026-04-19T10:47:19.606Z</time></trkpt><trkpt lat="38.746194" lon="16.4217219"><ele>742.0</ele><time>2026-04-19T10:47:20.603Z</time></trkpt><trkpt lat="38.7462203" lon="16.4216397"><ele>744.3333333333334</ele><time>2026-04-19T10:47:21.609Z</time></trkpt><trkpt lat="38.7462504" lon="16.421553"><ele>746.6666666666667</ele><time>2026-04-19T10:47:22.604Z</time></trkpt><trkpt lat="38.7462767" lon="16.4214599"><ele>749.0</ele><time>2026-04-19T10:47:23.601Z</time></trkpt><trkpt lat="38.7463092" lon="16.4213697"><ele>751.3333333333334</ele><time>2026-04-19T10:47:24.604Z</time></trkpt><trkpt lat="38.7463528" lon="16.42128"><ele>753.6666666666666</ele><time>2026-04-19T10:47:25.604Z</time></trkpt><trkpt lat="38.7463847" lon="16.4211781"><ele>756.0</ele><time>2026-04-19T10:47:27.605Z</time></trkpt><trkpt lat="38.7463985" lon="16.4210976"><ele>756.0</ele><time>2026-04-19T10:47:36.612Z</time></trkpt><trkpt lat="38.7464423" lon="16.4209854"><ele>756.0</ele><time>2026-04-19T10:47:37.608Z</time></trkpt><trkpt lat="38.7464804" lon="16.4208884"><ele>756.0</ele><time>2026-04-19T10:47:38.608Z</time></trkpt><trkpt lat="38.7465152" lon="16.4207818"><ele>756.0</ele><time>2026-04-19T10:47:39.603Z</time></trkpt><trkpt lat="38.7465493" lon="16.4206797"><ele>756.0</ele><time>2026-04-19T10:47:40.603Z</time></trkpt><trkpt lat="38.7465848" lon="16.4205608"><ele>755.5999999999999</ele><time>2026-04-19T10:47:41.604Z</time></trkpt><trkpt lat="38.7466212" lon="16.4204293"><ele>755.2</ele><time>2026-04-19T10:47:42.606Z</time></trkpt><trkpt lat="38.7466565" lon="16.4202811"><ele>754.8</ele><time>2026-04-19T10:47:43.601Z</time></trkpt><trkpt lat="38.7466851" lon="16.4201591"><ele>754.4000000000001</ele><time>2026-04-19T10:47:44.613Z</time></trkpt><trkpt lat="38.746725" lon="16.4200482"><ele>754.0</ele><time>2026-04-19T10:47:45.604Z</time></trkpt><trkpt lat="38.7467639" lon="16.4199605"><ele>754.0</ele><time>2026-04-19T10:47:46.606Z</time></trkpt><trkpt lat="38.7468101" lon="16.4198808"><ele>754.0</ele><time>2026-04-19T10:47:47.602Z</time></trkpt><trkpt lat="38.7468626" lon="16.4198088"><ele>754.0</ele><time>2026-04-19T10:47:48.6Z</time></trkpt><trkpt lat="38.7469435" lon="16.4197191"><ele>754.0</ele><time>2026-04-19T10:47:50.611Z</time></trkpt><trkpt lat="38.7470187" lon="16.4196276"><ele>754.0</ele><time>2026-04-19T10:47:52.608Z</time></trkpt><trkpt lat="38.7471007" lon="16.4195511"><ele>755.6666666666667</ele><time>2026-04-19T10:47:54.606Z</time></trkpt><trkpt lat="38.7471666" lon="16.4194992"><ele>757.3333333333334</ele><time>2026-04-19T10:47:56.613Z</time></trkpt><trkpt lat="38.7472357" lon="16.4194536"><ele>759.0</ele><time>2026-04-19T10:47:58.618Z</time></trkpt><trkpt lat="38.7472978" lon="16.4194288"><ele>760.6666666666666</ele><time>2026-04-19T10:48:00.605Z</time></trkpt><trkpt lat="38.7473949" lon="16.4194119"><ele>762.3333333333333</ele><time>2026-04-19T10:48:12.603Z</time></trkpt><trkpt lat="38.7474206" lon="16.4193293"><ele>764.0</ele><time>2026-04-19T10:48:16.602Z</time></trkpt><trkpt lat="38.7474269" lon="16.4191878"><ele>764.0</ele><time>2026-04-19T10:48:19.617Z</time></trkpt><trkpt lat="38.7474246" lon="16.4190646"><ele>764.0</ele><time>2026-04-19T10:48:21.604Z</time></trkpt><trkpt lat="38.7474221" lon="16.4189735"><ele>764.0</ele><time>2026-04-19T10:48:23.609Z</time></trkpt><trkpt lat="38.7474065" lon="16.4188741"><ele>764.0</ele><time>2026-04-19T10:48:25.6Z</time></trkpt><trkpt lat="38.7473725" lon="16.4187318"><ele>764.0</ele><time>2026-04-19T10:48:27.606Z</time></trkpt><trkpt lat="38.7473544" lon="16.4186473"><ele>764.0</ele><time>2026-04-19T10:48:28.605Z</time></trkpt><trkpt lat="38.7473363" lon="16.418566"><ele>765.1666666666666</ele><time>2026-04-19T10:48:29.614Z</time></trkpt><trkpt lat="38.747317" lon="16.4184759"><ele>766.3333333333333</ele><time>2026-04-19T10:48:30.603Z</time></trkpt><trkpt lat="38.7473042" lon="16.4183837"><ele>767.5</ele><time>2026-04-19T10:48:31.603Z</time></trkpt><trkpt lat="38.7472787" lon="16.4183042"><ele>768.6666666666666</ele><time>2026-04-19T10:48:32.601Z</time></trkpt><trkpt lat="38.7471634" lon="16.4182632"><ele>769.8333333333334</ele><time>2026-04-19T10:48:34.605Z</time></trkpt><trkpt lat="38.747093" lon="16.4182983"><ele>771.0</ele><time>2026-04-19T10:48:35.609Z</time></trkpt><trkpt lat="38.7470258" lon="16.4183271"><ele>771.0</ele><time>2026-04-19T10:48:36.598Z</time></trkpt><trkpt lat="38.7469248" lon="16.4183766"><ele>771.0</ele><time>2026-04-19T10:48:38.608Z</time></trkpt><trkpt lat="38.746837" lon="16.4183834"><ele>771.0</ele><time>2026-04-19T10:48:45.608Z</time></trkpt><trkpt lat="38.746765" lon="16.4183743"><ele>771.0</ele><time>2026-04-19T10:48:47.615Z</time></trkpt><trkpt lat="38.7466756" lon="16.4183419"><ele>771.0</ele><time>2026-04-19T10:48:49.618Z</time></trkpt><trkpt lat="38.7466061" lon="16.4183159"><ele>771.0</ele><time>2026-04-19T10:48:50.604Z</time></trkpt><trkpt lat="38.7465362" lon="16.4182661"><ele>770.5999999999999</ele><time>2026-04-19T10:48:51.608Z</time></trkpt><trkpt lat="38.7464828" lon="16.418221"><ele>770.2</ele><time>2026-04-19T10:48:52.603Z</time></trkpt><trkpt lat="38.7463892" lon="16.41814"><ele>769.8</ele><time>2026-04-19T10:48:54.599Z</time></trkpt><trkpt lat="38.7463129" lon="16.4180245"><ele>769.4000000000001</ele><time>2026-04-19T10:48:56.608Z</time></trkpt><trkpt lat="38.7462477" lon="16.4179423"><ele>769.0</ele><time>2026-04-19T10:48:58.602Z</time></trkpt><trkpt lat="38.7461696" lon="16.4178533"><ele>769.6666666666666</ele><time>2026-04-19T10:49:00.613Z</time></trkpt><trkpt lat="38.74608" lon="16.417783"><ele>770.3333333333333</ele><time>2026-04-19T10:49:02.607Z</time></trkpt><trkpt lat="38.7460133" lon="16.4176845"><ele>771.0</ele><time>2026-04-19T10:49:04.611Z</time></trkpt><trkpt lat="38.7459726" lon="16.4176188"><ele>771.6666666666667</ele><time>2026-04-19T10:49:06.604Z</time></trkpt><trkpt lat="38.7459427" lon="16.4175293"><ele>772.3333333333334</ele><time>2026-04-19T10:49:08.606Z</time></trkpt><trkpt lat="38.7459052" lon="16.4174301"><ele>773.0</ele><time>2026-04-19T10:49:10.606Z</time></trkpt><trkpt lat="38.7458695" lon="16.417318"><ele>770.8333333333334</ele><time>2026-04-19T10:49:12.604Z</time></trkpt><trkpt lat="38.7458507" lon="16.4172174"><ele>768.6666666666667</ele><time>2026-04-19T10:49:14.611Z</time></trkpt><trkpt lat="38.7458407" lon="16.4171058"><ele>766.5</ele><time>2026-04-19T10:49:16.603Z</time></trkpt><trkpt lat="38.7458173" lon="16.4169662"><ele>764.3333333333334</ele><time>2026-04-19T10:49:18.599Z</time></trkpt><trkpt lat="38.745813" lon="16.4168674"><ele>762.1666666666667</ele><time>2026-04-19T10:49:20.602Z</time></trkpt><trkpt lat="38.7458058" lon="16.4167805"><ele>760.0</ele><time>2026-04-19T10:49:22.602Z</time></trkpt><trkpt lat="38.7457903" lon="16.4166891"><ele>759.8</ele><time>2026-04-19T10:49:24.606Z</time></trkpt><trkpt lat="38.7457415" lon="16.4165595"><ele>759.6</ele><time>2026-04-19T10:49:26.601Z</time></trkpt><trkpt lat="38.7457281" lon="16.4164301"><ele>759.4000000000001</ele><time>2026-04-19T10:49:28.601Z</time></trkpt><trkpt lat="38.7457228" lon="16.4163239"><ele>759.2</ele><time>2026-04-19T10:49:30.603Z</time></trkpt><trkpt lat="38.7457039" lon="16.4162007"><ele>759.0</ele><time>2026-04-19T10:49:34.611Z</time></trkpt><trkpt lat="38.7456998" lon="16.4160818"><ele>758.4000000000001</ele><time>2026-04-19T10:49:36.575Z</time></trkpt><trkpt lat="38.7456837" lon="16.4158823"><ele>757.8</ele><time>2026-04-19T10:49:37.603Z</time></trkpt><trkpt lat="38.7456784" lon="16.4157652"><ele>757.2</ele><time>2026-04-19T10:49:38.606Z</time></trkpt><trkpt lat="38.7456859" lon="16.4156632"><ele>756.5999999999999</ele><time>2026-04-19T10:49:39.608Z</time></trkpt><trkpt lat="38.7456858" lon="16.4155696"><ele>756.0</ele><time>2026-04-19T10:49:40.619Z</time></trkpt><trkpt lat="38.7456835" lon="16.4154882"><ele>755.1666666666666</ele><time>2026-04-19T10:49:41.606Z</time></trkpt><trkpt lat="38.7456782" lon="16.4153507"><ele>754.3333333333334</ele><time>2026-04-19T10:49:43.609Z</time></trkpt><trkpt lat="38.7456744" lon="16.4152498"><ele>753.5</ele><time>2026-04-19T10:49:44.603Z</time></trkpt><trkpt lat="38.745669" lon="16.4151504"><ele>752.6666666666667</ele><time>2026-04-19T10:49:45.607Z</time></trkpt><trkpt lat="38.74566" lon="16.4150579"><ele>751.8333333333334</ele><time>2026-04-19T10:49:46.621Z</time></trkpt><trkpt lat="38.7456553" lon="16.4149194"><ele>751.0</ele><time>2026-04-19T10:49:48.604Z</time></trkpt><trkpt lat="38.7456566" lon="16.4148296"><ele>751.0</ele><time>2026-04-19T10:49:50.603Z</time></trkpt><trkpt lat="38.7456518" lon="16.4146597"><ele>751.0</ele><time>2026-04-19T10:49:53.607Z</time></trkpt><trkpt lat="38.7456582" lon="16.414557"><ele>751.0</ele><time>2026-04-19T10:49:54.605Z</time></trkpt><trkpt lat="38.7456694" lon="16.4144665"><ele>751.0</ele><time>2026-04-19T10:49:55.599Z</time></trkpt><trkpt lat="38.745693" lon="16.4143836"><ele>751.0</ele><time>2026-04-19T10:49:56.608Z</time></trkpt><trkpt lat="38.7457469" lon="16.4142305"><ele>751.8</ele><time>2026-04-19T10:49:58.608Z</time></trkpt><trkpt lat="38.7457643" lon="16.4141495"><ele>752.5999999999999</ele><time>2026-04-19T10:49:59.607Z</time></trkpt><trkpt lat="38.7458259" lon="16.4140218"><ele>753.4</ele><time>2026-04-19T10:50:01.605Z</time></trkpt><trkpt lat="38.7459055" lon="16.4139128"><ele>754.2</ele><time>2026-04-19T10:50:03.607Z</time></trkpt><trkpt lat="38.7460022" lon="16.4138148"><ele>755.0</ele><time>2026-04-19T10:50:05.618Z</time></trkpt><trkpt lat="38.7460195" lon="16.4136936"><ele>755.0</ele><time>2026-04-19T10:50:07.604Z</time></trkpt><trkpt lat="38.7459155" lon="16.4136325"><ele>755.0</ele><time>2026-04-19T10:50:09.6Z</time></trkpt><trkpt lat="38.7458358" lon="16.4136573"><ele>755.0</ele><time>2026-04-19T10:50:10.601Z</time></trkpt><trkpt lat="38.7457312" lon="16.4136871"><ele>755.0</ele><time>2026-04-19T10:50:11.605Z</time></trkpt><trkpt lat="38.7455975" lon="16.4137239"><ele>755.0</ele><time>2026-04-19T10:50:12.609Z</time></trkpt><trkpt lat="38.7454253" lon="16.4137783"><ele>752.75</ele><time>2026-04-19T10:50:13.602Z</time></trkpt><trkpt lat="38.7452685" lon="16.41383"><ele>750.5</ele><time>2026-04-19T10:50:14.603Z</time></trkpt><trkpt lat="38.745138" lon="16.413894"><ele>748.25</ele><time>2026-04-19T10:50:15.599Z</time></trkpt><trkpt lat="38.7450188" lon="16.4139512"><ele>746.0</ele><time>2026-04-19T10:50:16.601Z</time></trkpt><trkpt lat="38.7449036" lon="16.4140061"><ele>746.3333333333333</ele><time>2026-04-19T10:50:17.608Z</time></trkpt><trkpt lat="38.7447931" lon="16.4140587"><ele>746.6666666666666</ele><time>2026-04-19T10:50:18.609Z</time></trkpt><trkpt lat="38.7447002" lon="16.4140353"><ele>747.0</ele><time>2026-04-19T10:50:19.626Z</time></trkpt><trkpt lat="38.744625" lon="16.4140126"><ele>747.3333333333334</ele><time>2026-04-19T10:50:20.602Z</time></trkpt><trkpt lat="38.7445943" lon="16.4139248"><ele>747.6666666666667</ele><time>2026-04-19T10:50:21.604Z</time></trkpt><trkpt lat="38.7445612" lon="16.4138372"><ele>748.0</ele><time>2026-04-19T10:50:22.604Z</time></trkpt><trkpt lat="38.7445284" lon="16.4137524"><ele>748.0</ele><time>2026-04-19T10:50:23.605Z</time></trkpt><trkpt lat="38.7444256" lon="16.4136801"><ele>748.0</ele><time>2026-04-19T10:50:25.601Z</time></trkpt><trkpt lat="38.7443448" lon="16.4137206"><ele>748.0</ele><time>2026-04-19T10:50:27.603Z</time></trkpt><trkpt lat="38.7443158" lon="16.4138049"><ele>748.0</ele><time>2026-04-19T10:50:28.606Z</time></trkpt><trkpt lat="38.7442804" lon="16.4139049"><ele>748.0</ele><time>2026-04-19T10:50:29.603Z</time></trkpt><trkpt lat="38.7442241" lon="16.4140374"><ele>745.5</ele><time>2026-04-19T10:50:30.617Z</time></trkpt><trkpt lat="38.7441643" lon="16.4141748"><ele>743.0</ele><time>2026-04-19T10:50:31.599Z</time></trkpt><trkpt lat="38.7441254" lon="16.4143125"><ele>740.5</ele><time>2026-04-19T10:50:32.608Z</time></trkpt><trkpt lat="38.7440997" lon="16.4144497"><ele>738.0</ele><time>2026-04-19T10:50:33.605Z</time></trkpt><trkpt lat="38.7440736" lon="16.4145813"><ele>735.4</ele><time>2026-04-19T10:50:34.603Z</time></trkpt><trkpt lat="38.7440465" lon="16.4147089"><ele>732.8</ele><time>2026-04-19T10:50:35.606Z</time></trkpt><trkpt lat="38.7440192" lon="16.4148298"><ele>730.2</ele><time>2026-04-19T10:50:36.603Z</time></trkpt><trkpt lat="38.7439874" lon="16.4149497"><ele>727.6</ele><time>2026-04-19T10:50:37.622Z</time></trkpt><trkpt lat="38.7439524" lon="16.4150606"><ele>725.0</ele><time>2026-04-19T10:50:38.608Z</time></trkpt><trkpt lat="38.7439011" lon="16.415144"><ele>725.0</ele><time>2026-04-19T10:50:39.605Z</time></trkpt><trkpt lat="38.743835" lon="16.4151794"><ele>725.0</ele><time>2026-04-19T10:50:40.608Z</time></trkpt><trkpt lat="38.7437616" lon="16.4151756"><ele>725.0</ele><time>2026-04-19T10:50:41.605Z</time></trkpt><trkpt lat="38.7436889" lon="16.4151231"><ele>725.0</ele><time>2026-04-19T10:50:42.602Z</time></trkpt><trkpt lat="38.743627" lon="16.4150311"><ele>725.0</ele><time>2026-04-19T10:50:43.604Z</time></trkpt><trkpt lat="38.7435706" lon="16.4149511"><ele>725.0</ele><time>2026-04-19T10:50:44.61Z</time></trkpt><trkpt lat="38.7435133" lon="16.4148765"><ele>725.6666666666666</ele><time>2026-04-19T10:50:45.603Z</time></trkpt><trkpt lat="38.7434401" lon="16.4148297"><ele>726.3333333333333</ele><time>2026-04-19T10:50:46.607Z</time></trkpt><trkpt lat="38.7433592" lon="16.4148177"><ele>727.0</ele><time>2026-04-19T10:50:47.603Z</time></trkpt><trkpt lat="38.7432709" lon="16.4148193"><ele>727.6666666666666</ele><time>2026-04-19T10:50:48.606Z</time></trkpt><trkpt lat="38.7431878" lon="16.4148222"><ele>728.3333333333334</ele><time>2026-04-19T10:50:49.612Z</time></trkpt><trkpt lat="38.7431067" lon="16.4148326"><ele>729.0</ele><time>2026-04-19T10:50:50.607Z</time></trkpt><trkpt lat="38.7430001" lon="16.4149154"><ele>729.0</ele><time>2026-04-19T10:50:52.603Z</time></trkpt><trkpt lat="38.7429481" lon="16.415071"><ele>729.0</ele><time>2026-04-19T10:50:54.605Z</time></trkpt><trkpt lat="38.7429403" lon="16.4151968"><ele>729.0</ele><time>2026-04-19T10:50:55.62Z</time></trkpt><trkpt lat="38.742956" lon="16.415324"><ele>729.0</ele><time>2026-04-19T10:50:56.605Z</time></trkpt><trkpt lat="38.742965" lon="16.4154464"><ele>729.0</ele><time>2026-04-19T10:50:57.607Z</time></trkpt><trkpt lat="38.7429618" lon="16.4155681"><ele>726.8000000000001</ele><time>2026-04-19T10:50:58.607Z</time></trkpt><trkpt lat="38.7429409" lon="16.4156899"><ele>724.6</ele><time>2026-04-19T10:50:59.604Z</time></trkpt><trkpt lat="38.7429243" lon="16.4158257"><ele>722.4</ele><time>2026-04-19T10:51:00.63Z</time></trkpt><trkpt lat="38.7429053" lon="16.4159593"><ele>720.2</ele><time>2026-04-19T10:51:01.601Z</time></trkpt><trkpt lat="38.7428878" lon="16.4160903"><ele>718.0</ele><time>2026-04-19T10:51:02.607Z</time></trkpt><trkpt lat="38.7428649" lon="16.4162031"><ele>718.0</ele><time>2026-04-19T10:51:03.602Z</time></trkpt><trkpt lat="38.7428293" lon="16.4163076"><ele>718.0</ele><time>2026-04-19T10:51:04.61Z</time></trkpt><trkpt lat="38.7427466" lon="16.416436"><ele>718.0</ele><time>2026-04-19T10:51:05.601Z</time></trkpt><trkpt lat="38.742651" lon="16.4165464"><ele>718.0</ele><time>2026-04-19T10:51:06.604Z</time></trkpt><trkpt lat="38.7425302" lon="16.4165983"><ele>718.8333333333334</ele><time>2026-04-19T10:51:07.6Z</time></trkpt><trkpt lat="38.7424297" lon="16.4165919"><ele>719.6666666666667</ele><time>2026-04-19T10:51:08.602Z</time></trkpt><trkpt lat="38.7423364" lon="16.4165421"><ele>720.5</ele><time>2026-04-19T10:51:09.603Z</time></trkpt><trkpt lat="38.7422655" lon="16.4164809"><ele>721.3333333333334</ele><time>2026-04-19T10:51:10.612Z</time></trkpt><trkpt lat="38.7422125" lon="16.4164226"><ele>722.1666666666666</ele><time>2026-04-19T10:51:11.609Z</time></trkpt><trkpt lat="38.7421472" lon="16.4163846"><ele>723.0</ele><time>2026-04-19T10:51:12.625Z</time></trkpt><trkpt lat="38.7420359" lon="16.4164242"><ele>723.0</ele><time>2026-04-19T10:51:14.608Z</time></trkpt><trkpt lat="38.7419862" lon="16.4164872"><ele>723.0</ele><time>2026-04-19T10:51:15.603Z</time></trkpt><trkpt lat="38.7419663" lon="16.4165889"><ele>723.0</ele><time>2026-04-19T10:51:16.606Z</time></trkpt><trkpt lat="38.7419553" lon="16.4166918"><ele>723.0</ele><time>2026-04-19T10:51:17.604Z</time></trkpt><trkpt lat="38.7419431" lon="16.4167934"><ele>723.0</ele><time>2026-04-19T10:51:18.608Z</time></trkpt><trkpt lat="38.7419202" lon="16.4168968"><ele>723.0</ele><time>2026-04-19T10:51:19.601Z</time></trkpt><trkpt lat="38.741881" lon="16.4169949"><ele>723.25</ele><time>2026-04-19T10:51:20.613Z</time></trkpt><trkpt lat="38.7418323" lon="16.4171052"><ele>723.5</ele><time>2026-04-19T10:51:21.604Z</time></trkpt><trkpt lat="38.741755" lon="16.4172153"><ele>723.75</ele><time>2026-04-19T10:51:22.605Z</time></trkpt><trkpt lat="38.7416453" lon="16.4173116"><ele>724.0</ele><time>2026-04-19T10:51:23.604Z</time></trkpt><trkpt lat="38.7415406" lon="16.4174073"><ele>724.0</ele><time>2026-04-19T10:51:24.605Z</time></trkpt><trkpt lat="38.7414427" lon="16.4175139"><ele>724.0</ele><time>2026-04-19T10:51:25.604Z</time></trkpt><trkpt lat="38.7413541" lon="16.4176276"><ele>724.0</ele><time>2026-04-19T10:51:26.601Z</time></trkpt><trkpt lat="38.7412711" lon="16.4177486"><ele>724.0</ele><time>2026-04-19T10:51:27.602Z</time></trkpt><trkpt lat="38.7411841" lon="16.4178666"><ele>724.0</ele><time>2026-04-19T10:51:28.605Z</time></trkpt><trkpt lat="38.7411047" lon="16.4179763"><ele>724.0</ele><time>2026-04-19T10:51:29.604Z</time></trkpt><trkpt lat="38.7410367" lon="16.4180731"><ele>724.0</ele><time>2026-04-19T10:51:30.606Z</time></trkpt><trkpt lat="38.7409678" lon="16.4181703"><ele>724.0</ele><time>2026-04-19T10:51:31.607Z</time></trkpt><trkpt lat="38.7409027" lon="16.4182647"><ele>724.0</ele><time>2026-04-19T10:51:32.605Z</time></trkpt><trkpt lat="38.7408408" lon="16.4183429"><ele>723.8333333333334</ele><time>2026-04-19T10:51:33.604Z</time></trkpt><trkpt lat="38.7407789" lon="16.4183791"><ele>723.6666666666667</ele><time>2026-04-19T10:51:34.625Z</time></trkpt><trkpt lat="38.7407098" lon="16.4183412"><ele>723.5</ele><time>2026-04-19T10:51:35.604Z</time></trkpt><trkpt lat="38.740646" lon="16.418285"><ele>723.3333333333334</ele><time>2026-04-19T10:51:37.604Z</time></trkpt><trkpt lat="38.7406088" lon="16.4182004"><ele>723.1666666666666</ele><time>2026-04-19T10:51:40.608Z</time></trkpt><trkpt lat="38.7405652" lon="16.4181088"><ele>723.0</ele><time>2026-04-19T10:51:44.606Z</time></trkpt><trkpt lat="38.7405154" lon="16.418018"><ele>723.8333333333334</ele><time>2026-04-19T10:51:47.61Z</time></trkpt><trkpt lat="38.7404531" lon="16.4179267"><ele>724.6666666666666</ele><time>2026-04-19T10:51:50.606Z</time></trkpt><trkpt lat="38.7404147" lon="16.4178568"><ele>725.5</ele><time>2026-04-19T10:51:54.606Z</time></trkpt><trkpt lat="38.7403646" lon="16.4177879"><ele>726.3333333333333</ele><time>2026-04-19T11:00:03.581Z</time></trkpt><trkpt lat="38.7403161" lon="16.4177019"><ele>727.1666666666666</ele><time>2026-04-19T11:00:05.623Z</time></trkpt><trkpt lat="38.7402293" lon="16.4176019"><ele>728.0</ele><time>2026-04-19T11:00:07.614Z</time></trkpt><trkpt lat="38.7402946" lon="16.4176652"><ele>728.0</ele><time>2026-04-19T11:00:29.607Z</time></trkpt><trkpt lat="38.7403604" lon="16.4177189"><ele>728.0</ele><time>2026-04-19T11:00:32.616Z</time></trkpt><trkpt lat="38.7404123" lon="16.4177698"><ele>728.0</ele><time>2026-04-19T11:01:09.616Z</time></trkpt><trkpt lat="38.740478" lon="16.4177492"><ele>728.0</ele><time>2026-04-19T11:01:14.614Z</time></trkpt><trkpt lat="38.7405514" lon="16.4177345"><ele>728.0</ele><time>2026-04-19T11:01:16.611Z</time></trkpt><trkpt lat="38.7406048" lon="16.417686"><ele>728.0</ele><time>2026-04-19T11:01:18.618Z</time></trkpt><trkpt lat="38.740648" lon="16.4175943"><ele>728.0</ele><time>2026-04-19T11:01:20.616Z</time></trkpt><trkpt lat="38.7406854" lon="16.4174604"><ele>728.0</ele><time>2026-04-19T11:01:22.609Z</time></trkpt><trkpt lat="38.7407185" lon="16.4173633"><ele>728.0</ele><time>2026-04-19T11:01:24.612Z</time></trkpt><trkpt lat="38.7407509" lon="16.4172628"><ele>728.0</ele><time>2026-04-19T11:01:33.608Z</time></trkpt><trkpt lat="38.7407844" lon="16.4171081"><ele>728.0</ele><time>2026-04-19T11:01:35.61Z</time></trkpt><trkpt lat="38.7408083" lon="16.4170042"><ele>728.0</ele><time>2026-04-19T11:01:36.612Z</time></trkpt><trkpt lat="38.7408595" lon="16.4169433"><ele>728.0</ele><time>2026-04-19T11:01:37.606Z</time></trkpt><trkpt lat="38.7409093" lon="16.4168757"><ele>729.2</ele><time>2026-04-19T11:01:38.611Z</time></trkpt><trkpt lat="38.7409606" lon="16.4167715"><ele>730.4</ele><time>2026-04-19T11:01:39.605Z</time></trkpt><trkpt lat="38.7410243" lon="16.4166675"><ele>731.6</ele><time>2026-04-19T11:01:40.613Z</time></trkpt><trkpt lat="38.7411067" lon="16.4165578"><ele>732.8000000000001</ele><time>2026-04-19T11:01:41.605Z</time></trkpt><trkpt lat="38.7411758" lon="16.4164688"><ele>734.0</ele><time>2026-04-19T11:01:42.611Z</time></trkpt><trkpt lat="38.7412514" lon="16.4163718"><ele>736.8000000000001</ele><time>2026-04-19T11:01:43.607Z</time></trkpt><trkpt lat="38.7413253" lon="16.4162739"><ele>739.6</ele><time>2026-04-19T11:01:44.601Z</time></trkpt><trkpt lat="38.7413828" lon="16.4161657"><ele>742.4</ele><time>2026-04-19T11:01:45.602Z</time></trkpt><trkpt lat="38.7414306" lon="16.4160585"><ele>745.2</ele><time>2026-04-19T11:01:46.61Z</time></trkpt><trkpt lat="38.7414716" lon="16.4159409"><ele>748.0</ele><time>2026-04-19T11:01:47.604Z</time></trkpt><trkpt lat="38.7415244" lon="16.4158114"><ele>748.0</ele><time>2026-04-19T11:01:48.612Z</time></trkpt><trkpt lat="38.74159" lon="16.415702"><ele>748.0</ele><time>2026-04-19T11:01:49.606Z</time></trkpt><trkpt lat="38.7416508" lon="16.4156148"><ele>748.0</ele><time>2026-04-19T11:01:50.61Z</time></trkpt><trkpt lat="38.7417224" lon="16.4155445"><ele>748.0</ele><time>2026-04-19T11:01:51.606Z</time></trkpt><trkpt lat="38.7417961" lon="16.4154959"><ele>748.0</ele><time>2026-04-19T11:01:52.606Z</time></trkpt><trkpt lat="38.7418548" lon="16.415455"><ele>748.0</ele><time>2026-04-19T11:01:53.618Z</time></trkpt><trkpt lat="38.7419087" lon="16.4154063"><ele>748.8</ele><time>2026-04-19T11:01:55.615Z</time></trkpt><trkpt lat="38.7419402" lon="16.4153346"><ele>749.5999999999999</ele><time>2026-04-19T11:01:56.616Z</time></trkpt><trkpt lat="38.7419835" lon="16.4152222"><ele>750.4000000000001</ele><time>2026-04-19T11:01:57.612Z</time></trkpt><trkpt lat="38.74203" lon="16.4150935"><ele>751.2</ele><time>2026-04-19T11:01:58.608Z</time></trkpt><trkpt lat="38.7420735" lon="16.4149683"><ele>752.0</ele><time>2026-04-19T11:01:59.606Z</time></trkpt><trkpt lat="38.7421076" lon="16.4148436"><ele>752.0</ele><time>2026-04-19T11:02:00.611Z</time></trkpt><trkpt lat="38.7421275" lon="16.4147076"><ele>752.0</ele><time>2026-04-19T11:02:01.604Z</time></trkpt><trkpt lat="38.7421601" lon="16.4145767"><ele>752.0</ele><time>2026-04-19T11:02:02.61Z</time></trkpt><trkpt lat="38.7421972" lon="16.414457"><ele>752.0</ele><time>2026-04-19T11:02:03.61Z</time></trkpt><trkpt lat="38.7422192" lon="16.41434"><ele>752.0</ele><time>2026-04-19T11:02:04.607Z</time></trkpt><trkpt lat="38.7422439" lon="16.4142331"><ele>753.0</ele><time>2026-04-19T11:02:05.614Z</time></trkpt><trkpt lat="38.7422896" lon="16.4141303"><ele>754.0</ele><time>2026-04-19T11:02:06.608Z</time></trkpt><trkpt lat="38.7423389" lon="16.4140277"><ele>755.0</ele><time>2026-04-19T11:02:07.604Z</time></trkpt><trkpt lat="38.7423727" lon="16.4139131"><ele>756.0</ele><time>2026-04-19T11:02:08.606Z</time></trkpt><trkpt lat="38.7423878" lon="16.4137881"><ele>757.0</ele><time>2026-04-19T11:02:09.616Z</time></trkpt><trkpt lat="38.7424038" lon="16.4136528"><ele>757.8333333333334</ele><time>2026-04-19T11:02:10.617Z</time></trkpt><trkpt lat="38.7424149" lon="16.4135174"><ele>758.6666666666667</ele><time>2026-04-19T11:02:11.607Z</time></trkpt><trkpt lat="38.7424194" lon="16.4134063"><ele>759.5</ele><time>2026-04-19T11:02:12.609Z</time></trkpt><trkpt lat="38.7424179" lon="16.4133218"><ele>760.3333333333334</ele><time>2026-04-19T11:02:13.614Z</time></trkpt><trkpt lat="38.742402" lon="16.4132295"><ele>761.1666666666666</ele><time>2026-04-19T11:02:14.607Z</time></trkpt><trkpt lat="38.7423624" lon="16.413128"><ele>762.0</ele><time>2026-04-19T11:02:15.625Z</time></trkpt><trkpt lat="38.7423436" lon="16.413004"><ele>763.5</ele><time>2026-04-19T11:02:16.609Z</time></trkpt><trkpt lat="38.7423279" lon="16.4128802"><ele>765.0</ele><time>2026-04-19T11:02:17.611Z</time></trkpt><trkpt lat="38.7423134" lon="16.4127671"><ele>766.5</ele><time>2026-04-19T11:02:18.606Z</time></trkpt><trkpt lat="38.7423016" lon="16.4126739"><ele>768.0</ele><time>2026-04-19T11:02:19.612Z</time></trkpt><trkpt lat="38.7423015" lon="16.412579"><ele>769.5</ele><time>2026-04-19T11:02:20.614Z</time></trkpt><trkpt lat="38.7423005" lon="16.4124816"><ele>771.0</ele><time>2026-04-19T11:02:21.603Z</time></trkpt><trkpt lat="38.7422979" lon="16.412395"><ele>771.0</ele><time>2026-04-19T11:02:22.605Z</time></trkpt><trkpt lat="38.7423068" lon="16.4123114"><ele>771.0</ele><time>2026-04-19T11:02:23.602Z</time></trkpt><trkpt lat="38.7423107" lon="16.4122182"><ele>771.0</ele><time>2026-04-19T11:02:24.616Z</time></trkpt><trkpt lat="38.7423033" lon="16.41212"><ele>771.0</ele><time>2026-04-19T11:02:25.604Z</time></trkpt><trkpt lat="38.742278" lon="16.4120228"><ele>771.0</ele><time>2026-04-19T11:02:26.602Z</time></trkpt><trkpt lat="38.7422409" lon="16.4119333"><ele>771.0</ele><time>2026-04-19T11:02:27.601Z</time></trkpt><trkpt lat="38.7421791" lon="16.4118687"><ele>770.8333333333334</ele><time>2026-04-19T11:02:28.603Z</time></trkpt><trkpt lat="38.7421034" lon="16.4118421"><ele>770.6666666666667</ele><time>2026-04-19T11:02:29.609Z</time></trkpt><trkpt lat="38.7420109" lon="16.4118255"><ele>770.5</ele><time>2026-04-19T11:02:30.611Z</time></trkpt><trkpt lat="38.7419401" lon="16.4117971"><ele>770.3333333333334</ele><time>2026-04-19T11:02:31.606Z</time></trkpt><trkpt lat="38.7418746" lon="16.4117686"><ele>770.1666666666667</ele><time>2026-04-19T11:02:32.608Z</time></trkpt><trkpt lat="38.7418024" lon="16.411651"><ele>770.0</ele><time>2026-04-19T11:02:34.617Z</time></trkpt><trkpt lat="38.7417776" lon="16.4115632"><ele>770.0000000000001</ele><time>2026-04-19T11:02:35.613Z</time></trkpt><trkpt lat="38.7417517" lon="16.4114708"><ele>770.0</ele><time>2026-04-19T11:02:36.606Z</time></trkpt><trkpt lat="38.7417222" lon="16.4113775"><ele>770.0</ele><time>2026-04-19T11:02:37.611Z</time></trkpt><trkpt lat="38.7416976" lon="16.4112801"><ele>770.0</ele><time>2026-04-19T11:02:38.603Z</time></trkpt><trkpt lat="38.7416801" lon="16.4111748"><ele>770.0000000000001</ele><time>2026-04-19T11:02:39.605Z</time></trkpt><trkpt lat="38.7416862" lon="16.4110675"><ele>770.0</ele><time>2026-04-19T11:02:40.609Z</time></trkpt><trkpt lat="38.7417055" lon="16.4109659"><ele>771.6666666666667</ele><time>2026-04-19T11:02:41.615Z</time></trkpt><trkpt lat="38.7417509" lon="16.4108751"><ele>773.3333333333334</ele><time>2026-04-19T11:02:42.609Z</time></trkpt><trkpt lat="38.7418024" lon="16.4107769"><ele>775.0</ele><time>2026-04-19T11:02:43.622Z</time></trkpt><trkpt lat="38.7418378" lon="16.4106714"><ele>776.6666666666667</ele><time>2026-04-19T11:02:44.624Z</time></trkpt><trkpt lat="38.7418586" lon="16.4105648"><ele>778.3333333333334</ele><time>2026-04-19T11:02:45.613Z</time></trkpt><trkpt lat="38.7418663" lon="16.4104538"><ele>780.0</ele><time>2026-04-19T11:02:46.613Z</time></trkpt><trkpt lat="38.7418676" lon="16.4103612"><ele>781.4</ele><time>2026-04-19T11:02:47.61Z</time></trkpt><trkpt lat="38.7418615" lon="16.4102641"><ele>782.8</ele><time>2026-04-19T11:02:49.608Z</time></trkpt><trkpt lat="38.7418081" lon="16.4102162"><ele>784.2</ele><time>2026-04-19T11:02:51.604Z</time></trkpt><trkpt lat="38.7417313" lon="16.4101893"><ele>785.6</ele><time>2026-04-19T11:02:53.612Z</time></trkpt><trkpt lat="38.7416663" lon="16.41015"><ele>787.0</ele><time>2026-04-19T11:03:10.619Z</time></trkpt><trkpt lat="38.7415059" lon="16.4101799"><ele>787.0</ele><time>2026-04-19T11:03:21.616Z</time></trkpt><trkpt lat="38.7414266" lon="16.4101942"><ele>787.0</ele><time>2026-04-19T11:03:34.612Z</time></trkpt><trkpt lat="38.7413557" lon="16.4102271"><ele>787.0</ele><time>2026-04-19T11:04:52.624Z</time></trkpt><trkpt lat="38.74133" lon="16.4103011"><ele>787.0</ele><time>2026-04-19T11:08:01.583Z</time></trkpt><trkpt lat="38.7413949" lon="16.4103226"><ele>787.0</ele><time>2026-04-19T11:12:28.608Z</time></trkpt><trkpt lat="38.7413321" lon="16.4103396"><ele>787.0</ele><time>2026-04-19T11:13:38.565Z</time></trkpt><trkpt lat="38.7412612" lon="16.410345"><ele>787.0</ele><time>2026-04-19T11:13:59.564Z</time></trkpt><trkpt lat="38.7412927" lon="16.4102655"><ele>787.0</ele><time>2026-04-19T11:16:11.568Z</time></trkpt><trkpt lat="38.7412579" lon="16.4103329"><ele>787.0</ele><time>2026-04-19T11:22:17.562Z</time></trkpt><trkpt lat="38.741319" lon="16.4103035"><ele>787.0</ele><time>2026-04-19T11:25:41.565Z</time></trkpt><trkpt lat="38.741264" lon="16.4103463"><ele>787.0</ele><time>2026-04-19T11:27:23.564Z</time></trkpt><trkpt lat="38.7413147" lon="16.4102957"><ele>787.0</ele><time>2026-04-19T11:32:55.563Z</time></trkpt><trkpt lat="38.7413739" lon="16.4102641"><ele>787.0</ele><time>2026-04-19T11:34:59.569Z</time></trkpt><trkpt lat="38.7413912" lon="16.4101862"><ele>787.0</ele><time>2026-04-19T11:36:38.567Z</time></trkpt><trkpt lat="38.741354" lon="16.4102519"><ele>787.0</ele><time>2026-04-19T11:39:47.566Z</time></trkpt><trkpt lat="38.7413482" lon="16.4101687"><ele>787.0</ele><time>2026-04-19T11:43:32.568Z</time></trkpt><trkpt lat="38.7414125" lon="16.4101681"><ele>787.0</ele><time>2026-04-19T11:44:10.566Z</time></trkpt><trkpt lat="38.7414164" lon="16.4102493"><ele>787.0</ele><time>2026-04-19T11:44:25.564Z</time></trkpt><trkpt lat="38.7413603" lon="16.4103427"><ele>787.0</ele><time>2026-04-19T11:45:01.591Z</time></trkpt><trkpt lat="38.7413925" lon="16.4104144"><ele>787.0</ele><time>2026-04-19T11:45:07.564Z</time></trkpt><trkpt lat="38.7413451" lon="16.4103597"><ele>787.0</ele><time>2026-04-19T11:45:24.56Z</time></trkpt><trkpt lat="38.7412909" lon="16.4102943"><ele>787.0</ele><time>2026-04-19T11:46:54.555Z</time></trkpt><trkpt lat="38.7413789" lon="16.4103484"><ele>786.9999999999999</ele><time>2026-04-19T11:50:46.552Z</time></trkpt><trkpt lat="38.7413324" lon="16.4104389"><ele>787.0</ele><time>2026-04-19T11:51:35.596Z</time></trkpt><trkpt lat="38.7413087" lon="16.4105439"><ele>787.0</ele><time>2026-04-19T11:51:38.59Z</time></trkpt><trkpt lat="38.7412573" lon="16.4106089"><ele>787.0</ele><time>2026-04-19T11:51:40.602Z</time></trkpt><trkpt lat="38.7412495" lon="16.4104969"><ele>786.9999999999999</ele><time>2026-04-19T11:51:46.588Z</time></trkpt><trkpt lat="38.7412366" lon="16.4104123"><ele>787.0</ele><time>2026-04-19T11:51:47.595Z</time></trkpt><trkpt lat="38.7412127" lon="16.4102806"><ele>787.0</ele><time>2026-04-19T11:51:48.593Z</time></trkpt><trkpt lat="38.7411646" lon="16.4101467"><ele>787.0</ele><time>2026-04-19T11:51:49.586Z</time></trkpt><trkpt lat="38.7411158" lon="16.4100102"><ele>787.0</ele><time>2026-04-19T11:51:50.591Z</time></trkpt><trkpt lat="38.7410791" lon="16.4098961"><ele>787.0</ele><time>2026-04-19T11:51:51.587Z</time></trkpt><trkpt lat="38.7410512" lon="16.4097969"><ele>787.0</ele><time>2026-04-19T11:51:52.589Z</time></trkpt><trkpt lat="38.7410294" lon="16.409696"><ele>788.1666666666666</ele><time>2026-04-19T11:51:53.588Z</time></trkpt><trkpt lat="38.7410196" lon="16.4095835"><ele>789.3333333333333</ele><time>2026-04-19T11:51:54.585Z</time></trkpt><trkpt lat="38.7410275" lon="16.4094917"><ele>790.5</ele><time>2026-04-19T11:51:55.591Z</time></trkpt><trkpt lat="38.7410614" lon="16.4093984"><ele>791.6666666666667</ele><time>2026-04-19T11:51:56.6Z</time></trkpt><trkpt lat="38.7410935" lon="16.409304"><ele>792.8333333333334</ele><time>2026-04-19T11:51:57.586Z</time></trkpt><trkpt lat="38.7411293" lon="16.4092168"><ele>794.0</ele><time>2026-04-19T11:51:58.585Z</time></trkpt><trkpt lat="38.7411684" lon="16.4091504"><ele>795.0</ele><time>2026-04-19T11:51:59.588Z</time></trkpt><trkpt lat="38.7412149" lon="16.4090763"><ele>796.0</ele><time>2026-04-19T11:52:00.591Z</time></trkpt><trkpt lat="38.7412664" lon="16.4089416"><ele>797.0</ele><time>2026-04-19T11:52:02.608Z</time></trkpt><trkpt lat="38.7412606" lon="16.4088362"><ele>798.0</ele><time>2026-04-19T11:52:03.58Z</time></trkpt><trkpt lat="38.7412214" lon="16.4087307"><ele>799.0</ele><time>2026-04-19T11:52:04.583Z</time></trkpt><trkpt lat="38.7411782" lon="16.4086079"><ele>798.6666666666666</ele><time>2026-04-19T11:52:05.584Z</time></trkpt><trkpt lat="38.7411164" lon="16.4085021"><ele>798.3333333333333</ele><time>2026-04-19T11:52:06.586Z</time></trkpt><trkpt lat="38.7410764" lon="16.4084053"><ele>798.0</ele><time>2026-04-19T11:52:07.597Z</time></trkpt><trkpt lat="38.7410522" lon="16.4083019"><ele>797.6666666666667</ele><time>2026-04-19T11:52:08.587Z</time></trkpt><trkpt lat="38.7410386" lon="16.4082073"><ele>797.3333333333334</ele><time>2026-04-19T11:52:09.607Z</time></trkpt><trkpt lat="38.7410299" lon="16.4081113"><ele>797.0</ele><time>2026-04-19T11:52:10.583Z</time></trkpt><trkpt lat="38.7410103" lon="16.4080214"><ele>797.1666666666667</ele><time>2026-04-19T11:52:11.584Z</time></trkpt><trkpt lat="38.740983" lon="16.4079234"><ele>797.3333333333334</ele><time>2026-04-19T11:52:12.586Z</time></trkpt><trkpt lat="38.7409586" lon="16.407816"><ele>797.5</ele><time>2026-04-19T11:52:13.587Z</time></trkpt><trkpt lat="38.7409339" lon="16.4077158"><ele>797.6666666666667</ele><time>2026-04-19T11:52:14.585Z</time></trkpt><trkpt lat="38.7409056" lon="16.4075979"><ele>797.8333333333334</ele><time>2026-04-19T11:52:15.588Z</time></trkpt><trkpt lat="38.7408773" lon="16.4074723"><ele>798.0</ele><time>2026-04-19T11:52:16.589Z</time></trkpt><trkpt lat="38.740849" lon="16.407364"><ele>798.0</ele><time>2026-04-19T11:52:17.586Z</time></trkpt><trkpt lat="38.7408241" lon="16.407262"><ele>798.0</ele><time>2026-04-19T11:52:18.585Z</time></trkpt><trkpt lat="38.7408021" lon="16.4071813"><ele>798.0</ele><time>2026-04-19T11:52:19.591Z</time></trkpt><trkpt lat="38.7407708" lon="16.4070562"><ele>798.0</ele><time>2026-04-19T11:52:21.606Z</time></trkpt><trkpt lat="38.7407446" lon="16.4069493"><ele>798.0</ele><time>2026-04-19T11:52:23.581Z</time></trkpt><trkpt lat="38.7407333" lon="16.4068602"><ele>798.0</ele><time>2026-04-19T11:52:25.591Z</time></trkpt><trkpt lat="38.740708" lon="16.4067594"><ele>799.1666666666666</ele><time>2026-04-19T11:52:28.586Z</time></trkpt><trkpt lat="38.7407033" lon="16.4066543"><ele>800.3333333333333</ele><time>2026-04-19T11:52:31.589Z</time></trkpt><trkpt lat="38.740672" lon="16.4065641"><ele>801.5</ele><time>2026-04-19T11:52:35.593Z</time></trkpt><trkpt lat="38.7406419" lon="16.4064752"><ele>802.6666666666666</ele><time>2026-04-19T11:52:39.591Z</time></trkpt><trkpt lat="38.7406102" lon="16.4063963"><ele>803.8333333333333</ele><time>2026-04-19T11:52:41.591Z</time></trkpt><trkpt lat="38.7406007" lon="16.4063068"><ele>805.0</ele><time>2026-04-19T11:52:43.587Z</time></trkpt><trkpt lat="38.7405688" lon="16.4061825"><ele>805.6666666666666</ele><time>2026-04-19T11:52:45.591Z</time></trkpt><trkpt lat="38.7405317" lon="16.406059"><ele>806.3333333333333</ele><time>2026-04-19T11:52:47.594Z</time></trkpt><trkpt lat="38.740497" lon="16.4059202"><ele>807.0</ele><time>2026-04-19T11:52:49.596Z</time></trkpt><trkpt lat="38.7404716" lon="16.4058257"><ele>807.6666666666667</ele><time>2026-04-19T11:52:50.588Z</time></trkpt><trkpt lat="38.740448" lon="16.4057336"><ele>808.3333333333334</ele><time>2026-04-19T11:52:51.589Z</time></trkpt><trkpt lat="38.740417" lon="16.4056407"><ele>809.0</ele><time>2026-04-19T11:52:52.589Z</time></trkpt><trkpt lat="38.7403867" lon="16.4055483"><ele>809.2</ele><time>2026-04-19T11:52:53.601Z</time></trkpt><trkpt lat="38.7403636" lon="16.4054666"><ele>809.4000000000001</ele><time>2026-04-19T11:52:54.587Z</time></trkpt><trkpt lat="38.7403447" lon="16.4053867"><ele>809.6</ele><time>2026-04-19T11:52:55.583Z</time></trkpt><trkpt lat="38.7403215" lon="16.4052407"><ele>809.8</ele><time>2026-04-19T11:52:57.587Z</time></trkpt><trkpt lat="38.7402935" lon="16.4051091"><ele>810.0</ele><time>2026-04-19T11:52:59.591Z</time></trkpt><trkpt lat="38.7403024" lon="16.4049517"><ele>810.0</ele><time>2026-04-19T11:53:01.594Z</time></trkpt><trkpt lat="38.7403355" lon="16.404869"><ele>810.0</ele><time>2026-04-19T11:53:02.589Z</time></trkpt><trkpt lat="38.7403623" lon="16.4047934"><ele>810.0</ele><time>2026-04-19T11:53:03.589Z</time></trkpt><trkpt lat="38.7403851" lon="16.4046874"><ele>810.0</ele><time>2026-04-19T11:53:05.592Z</time></trkpt><trkpt lat="38.7404089" lon="16.4045761"><ele>810.0</ele><time>2026-04-19T11:53:07.597Z</time></trkpt><trkpt lat="38.7404362" lon="16.4044825"><ele>810.0</ele><time>2026-04-19T11:53:08.587Z</time></trkpt><trkpt lat="38.7404712" lon="16.4043878"><ele>809.6666666666666</ele><time>2026-04-19T11:53:09.591Z</time></trkpt><trkpt lat="38.7405104" lon="16.4043002"><ele>809.3333333333333</ele><time>2026-04-19T11:53:10.586Z</time></trkpt><trkpt lat="38.7405475" lon="16.4042132"><ele>809.0</ele><time>2026-04-19T11:53:11.593Z</time></trkpt><trkpt lat="38.7405783" lon="16.4041062"><ele>808.6666666666666</ele><time>2026-04-19T11:53:12.601Z</time></trkpt><trkpt lat="38.740622" lon="16.4040132"><ele>808.3333333333333</ele><time>2026-04-19T11:53:13.598Z</time></trkpt><trkpt lat="38.7406558" lon="16.4039409"><ele>808.0</ele><time>2026-04-19T11:53:14.59Z</time></trkpt><trkpt lat="38.7406928" lon="16.4038531"><ele>807.5999999999999</ele><time>2026-04-19T11:53:15.593Z</time></trkpt><trkpt lat="38.7407132" lon="16.4037657"><ele>807.1999999999999</ele><time>2026-04-19T11:53:16.591Z</time></trkpt><trkpt lat="38.740763" lon="16.403628"><ele>806.8</ele><time>2026-04-19T11:53:18.588Z</time></trkpt><trkpt lat="38.7408209" lon="16.4034848"><ele>806.4</ele><time>2026-04-19T11:53:20.591Z</time></trkpt><trkpt lat="38.7408688" lon="16.4034041"><ele>806.0</ele><time>2026-04-19T11:53:21.589Z</time></trkpt><trkpt lat="38.7409059" lon="16.403303"><ele>806.0000000000001</ele><time>2026-04-19T11:53:22.603Z</time></trkpt><trkpt lat="38.7409412" lon="16.4032009"><ele>806.0</ele><time>2026-04-19T11:53:23.594Z</time></trkpt><trkpt lat="38.7409739" lon="16.4031007"><ele>806.0</ele><time>2026-04-19T11:53:24.595Z</time></trkpt><trkpt lat="38.7410083" lon="16.40301"><ele>806.0</ele><time>2026-04-19T11:53:25.591Z</time></trkpt><trkpt lat="38.7410418" lon="16.4029054"><ele>806.0000000000001</ele><time>2026-04-19T11:53:26.593Z</time></trkpt><trkpt lat="38.7410636" lon="16.4028023"><ele>806.0</ele><time>2026-04-19T11:53:27.595Z</time></trkpt><trkpt lat="38.7410872" lon="16.4027077"><ele>807.8333333333334</ele><time>2026-04-19T11:53:28.589Z</time></trkpt><trkpt lat="38.7411238" lon="16.4026277"><ele>809.6666666666667</ele><time>2026-04-19T11:53:29.61Z</time></trkpt><trkpt lat="38.7411633" lon="16.4025525"><ele>811.5</ele><time>2026-04-19T11:53:30.589Z</time></trkpt><trkpt lat="38.7412105" lon="16.4024685"><ele>813.3333333333333</ele><time>2026-04-19T11:53:31.592Z</time></trkpt><trkpt lat="38.7412464" lon="16.4023795"><ele>815.1666666666666</ele><time>2026-04-19T11:53:32.597Z</time></trkpt><trkpt lat="38.7412745" lon="16.4022818"><ele>817.0</ele><time>2026-04-19T11:53:33.591Z</time></trkpt><trkpt lat="38.7413073" lon="16.4021698"><ele>816.9999999999999</ele><time>2026-04-19T11:53:34.605Z</time></trkpt><trkpt lat="38.7413263" lon="16.4020763"><ele>817.0</ele><time>2026-04-19T11:53:35.588Z</time></trkpt><trkpt lat="38.74135" lon="16.4019827"><ele>817.0</ele><time>2026-04-19T11:53:36.593Z</time></trkpt><trkpt lat="38.7413795" lon="16.4019"><ele>817.0</ele><time>2026-04-19T11:53:37.596Z</time></trkpt><trkpt lat="38.741403" lon="16.4018236"><ele>816.9999999999999</ele><time>2026-04-19T11:53:38.591Z</time></trkpt><trkpt lat="38.7414805" lon="16.4016889"><ele>817.0</ele><time>2026-04-19T11:53:40.593Z</time></trkpt><trkpt lat="38.7415477" lon="16.401639"><ele>816.9999999999999</ele><time>2026-04-19T11:53:41.599Z</time></trkpt><trkpt lat="38.7416017" lon="16.4015846"><ele>817.0</ele><time>2026-04-19T11:53:42.591Z</time></trkpt><trkpt lat="38.7416405" lon="16.401519"><ele>817.0</ele><time>2026-04-19T11:53:43.607Z</time></trkpt><trkpt lat="38.7416924" lon="16.4014553"><ele>817.0</ele><time>2026-04-19T11:53:44.595Z</time></trkpt><trkpt lat="38.7417509" lon="16.4013997"><ele>816.9999999999999</ele><time>2026-04-19T11:53:45.589Z</time></trkpt><trkpt lat="38.7418183" lon="16.4013171"><ele>817.0</ele><time>2026-04-19T11:53:46.59Z</time></trkpt><trkpt lat="38.7418808" lon="16.4012232"><ele>819.7142857142857</ele><time>2026-04-19T11:53:47.585Z</time></trkpt><trkpt lat="38.7419247" lon="16.4011554"><ele>822.4285714285714</ele><time>2026-04-19T11:53:48.589Z</time></trkpt><trkpt lat="38.7419515" lon="16.4010799"><ele>825.1428571428571</ele><time>2026-04-19T11:53:49.591Z</time></trkpt><trkpt lat="38.7419634" lon="16.4009992"><ele>827.8571428571429</ele><time>2026-04-19T11:53:50.587Z</time></trkpt><trkpt lat="38.7419606" lon="16.4009153"><ele>830.5714285714286</ele><time>2026-04-19T11:53:51.585Z</time></trkpt><trkpt lat="38.7419373" lon="16.400818"><ele>833.2857142857142</ele><time>2026-04-19T11:53:52.588Z</time></trkpt><trkpt lat="38.7419079" lon="16.4007315"><ele>836.0</ele><time>2026-04-19T11:53:53.584Z</time></trkpt><trkpt lat="38.7418918" lon="16.4006462"><ele>835.0</ele><time>2026-04-19T11:53:54.586Z</time></trkpt><trkpt lat="38.7419393" lon="16.4004687"><ele>834.0</ele><time>2026-04-19T11:53:56.588Z</time></trkpt><trkpt lat="38.7419806" lon="16.4003338"><ele>833.0</ele><time>2026-04-19T11:53:57.6Z</time></trkpt><trkpt lat="38.7420327" lon="16.4002036"><ele>832.0</ele><time>2026-04-19T11:53:58.588Z</time></trkpt><trkpt lat="38.742085" lon="16.4000833"><ele>832.0</ele><time>2026-04-19T11:53:59.587Z</time></trkpt><trkpt lat="38.7421342" lon="16.3999915"><ele>832.0</ele><time>2026-04-19T11:54:00.59Z</time></trkpt><trkpt lat="38.7421701" lon="16.3999234"><ele>832.0</ele><time>2026-04-19T11:54:01.586Z</time></trkpt><trkpt lat="38.7421952" lon="16.3998438"><ele>832.0</ele><time>2026-04-19T11:54:02.606Z</time></trkpt><trkpt lat="38.742242" lon="16.3997716"><ele>832.0</ele><time>2026-04-19T11:54:03.587Z</time></trkpt><trkpt lat="38.7423111" lon="16.3997211"><ele>832.0</ele><time>2026-04-19T11:54:04.589Z</time></trkpt><trkpt lat="38.7423824" lon="16.3996997"><ele>832.0</ele><time>2026-04-19T11:54:05.587Z</time></trkpt><trkpt lat="38.7425048" lon="16.399647"><ele>830.3333333333333</ele><time>2026-04-19T11:54:07.593Z</time></trkpt><trkpt lat="38.7425806" lon="16.3996175"><ele>828.6666666666666</ele><time>2026-04-19T11:54:08.583Z</time></trkpt><trkpt lat="38.7426603" lon="16.3996056"><ele>827.0</ele><time>2026-04-19T11:54:09.613Z</time></trkpt><trkpt lat="38.7427312" lon="16.3996"><ele>825.3333333333333</ele><time>2026-04-19T11:54:10.589Z</time></trkpt><trkpt lat="38.7428237" lon="16.399565"><ele>823.6666666666666</ele><time>2026-04-19T11:54:12.585Z</time></trkpt><trkpt lat="38.7428829" lon="16.3995358"><ele>822.0</ele><time>2026-04-19T11:54:15.591Z</time></trkpt><trkpt lat="38.7429685" lon="16.3995312"><ele>821.0</ele><time>2026-04-19T11:54:17.586Z</time></trkpt><trkpt lat="38.7430539" lon="16.3995425"><ele>820.0</ele><time>2026-04-19T11:54:19.582Z</time></trkpt><trkpt lat="38.7431199" lon="16.3995495"><ele>819.0</ele><time>2026-04-19T11:54:20.586Z</time></trkpt><trkpt lat="38.7431904" lon="16.3995608"><ele>818.0</ele><time>2026-04-19T11:54:21.583Z</time></trkpt><trkpt lat="38.7432525" lon="16.39958"><ele>817.0</ele><time>2026-04-19T11:54:22.592Z</time></trkpt><trkpt lat="38.7433564" lon="16.399603"><ele>816.0</ele><time>2026-04-19T11:54:24.583Z</time></trkpt><trkpt lat="38.7434287" lon="16.3996119"><ele>816.0</ele><time>2026-04-19T11:54:25.583Z</time></trkpt><trkpt lat="38.7435067" lon="16.3996363"><ele>816.0</ele><time>2026-04-19T11:54:26.6Z</time></trkpt><trkpt lat="38.7435926" lon="16.3996646"><ele>816.0</ele><time>2026-04-19T11:54:27.59Z</time></trkpt><trkpt lat="38.743698" lon="16.3996931"><ele>816.0</ele><time>2026-04-19T11:54:28.585Z</time></trkpt><trkpt lat="38.7438099" lon="16.3997524"><ele>816.0</ele><time>2026-04-19T11:54:29.582Z</time></trkpt><trkpt lat="38.7439205" lon="16.3998096"><ele>815.8333333333334</ele><time>2026-04-19T11:54:30.582Z</time></trkpt><trkpt lat="38.7440109" lon="16.3998407"><ele>815.6666666666667</ele><time>2026-04-19T11:54:31.589Z</time></trkpt><trkpt lat="38.7441013" lon="16.3998723"><ele>815.5</ele><time>2026-04-19T11:54:32.587Z</time></trkpt><trkpt lat="38.7441839" lon="16.3998988"><ele>815.3333333333334</ele><time>2026-04-19T11:54:33.588Z</time></trkpt><trkpt lat="38.7442581" lon="16.399919"><ele>815.1666666666667</ele><time>2026-04-19T11:54:34.585Z</time></trkpt><trkpt lat="38.7443302" lon="16.3999435"><ele>815.0</ele><time>2026-04-19T11:54:35.607Z</time></trkpt><trkpt lat="38.7443938" lon="16.3999662"><ele>815.0000000000001</ele><time>2026-04-19T11:54:36.581Z</time></trkpt><trkpt lat="38.7444561" lon="16.3999905"><ele>815.0</ele><time>2026-04-19T11:54:37.586Z</time></trkpt><trkpt lat="38.7445219" lon="16.4000162"><ele>815.0</ele><time>2026-04-19T11:54:38.583Z</time></trkpt><trkpt lat="38.7445949" lon="16.4000417"><ele>815.0</ele><time>2026-04-19T11:54:39.581Z</time></trkpt><trkpt lat="38.7446638" lon="16.4000671"><ele>815.0000000000001</ele><time>2026-04-19T11:54:40.59Z</time></trkpt><trkpt lat="38.7447757" lon="16.4001102"><ele>815.0</ele><time>2026-04-19T11:54:42.586Z</time></trkpt><trkpt lat="38.7448808" lon="16.4001433"><ele>815.0</ele><time>2026-04-19T11:54:44.58Z</time></trkpt><trkpt lat="38.7449679" lon="16.4001825"><ele>815.0</ele><time>2026-04-19T11:54:46.585Z</time></trkpt><trkpt lat="38.7450491" lon="16.4002126"><ele>815.0</ele><time>2026-04-19T11:54:48.603Z</time></trkpt><trkpt lat="38.7451304" lon="16.4002452"><ele>815.0</ele><time>2026-04-19T11:54:50.586Z</time></trkpt><trkpt lat="38.74527" lon="16.4002953"><ele>815.0</ele><time>2026-04-19T11:54:52.584Z</time></trkpt><trkpt lat="38.7453783" lon="16.4003343"><ele>816.5</ele><time>2026-04-19T11:54:53.584Z</time></trkpt><trkpt lat="38.7454916" lon="16.4003764"><ele>818.0</ele><time>2026-04-19T11:54:54.586Z</time></trkpt><trkpt lat="38.7456114" lon="16.400435"><ele>819.5</ele><time>2026-04-19T11:54:55.584Z</time></trkpt><trkpt lat="38.7457382" lon="16.4004925"><ele>821.0</ele><time>2026-04-19T11:54:56.588Z</time></trkpt><trkpt lat="38.7458586" lon="16.400541"><ele>822.75</ele><time>2026-04-19T11:54:57.582Z</time></trkpt><trkpt lat="38.7459832" lon="16.4005846"><ele>824.5</ele><time>2026-04-19T11:54:58.59Z</time></trkpt><trkpt lat="38.7461181" lon="16.4006474"><ele>826.25</ele><time>2026-04-19T11:54:59.589Z</time></trkpt><trkpt lat="38.7462534" lon="16.400701"><ele>828.0</ele><time>2026-04-19T11:55:00.604Z</time></trkpt><trkpt lat="38.7463844" lon="16.4007453"><ele>830.4</ele><time>2026-04-19T11:55:01.588Z</time></trkpt><trkpt lat="38.746498" lon="16.4007905"><ele>832.8</ele><time>2026-04-19T11:55:02.586Z</time></trkpt><trkpt lat="38.7465972" lon="16.4008249"><ele>835.2</ele><time>2026-04-19T11:55:03.588Z</time></trkpt><trkpt lat="38.7467007" lon="16.4008657"><ele>837.6</ele><time>2026-04-19T11:55:04.586Z</time></trkpt><trkpt lat="38.7468042" lon="16.400924"><ele>840.0</ele><time>2026-04-19T11:55:05.595Z</time></trkpt><trkpt lat="38.7469002" lon="16.4009991"><ele>842.2</ele><time>2026-04-19T11:55:06.585Z</time></trkpt><trkpt lat="38.7469876" lon="16.4010707"><ele>844.4</ele><time>2026-04-19T11:55:07.605Z</time></trkpt><trkpt lat="38.7470512" lon="16.4011238"><ele>846.5999999999999</ele><time>2026-04-19T11:55:08.585Z</time></trkpt><trkpt lat="38.7471436" lon="16.4011975"><ele>848.8</ele><time>2026-04-19T11:55:10.588Z</time></trkpt><trkpt lat="38.7472379" lon="16.4012828"><ele>851.0</ele><time>2026-04-19T11:55:12.606Z</time></trkpt><trkpt lat="38.7473482" lon="16.40136"><ele>851.4</ele><time>2026-04-19T11:55:14.587Z</time></trkpt><trkpt lat="38.7474126" lon="16.4013975"><ele>851.8</ele><time>2026-04-19T11:55:15.587Z</time></trkpt><trkpt lat="38.7474912" lon="16.4014497"><ele>852.1999999999999</ele><time>2026-04-19T11:55:17.6Z</time></trkpt><trkpt lat="38.7475291" lon="16.4016522"><ele>852.5999999999999</ele><time>2026-04-19T11:55:19.581Z</time></trkpt><trkpt lat="38.7475414" lon="16.401806"><ele>853.0</ele><time>2026-04-19T11:55:20.587Z</time></trkpt><trkpt lat="38.7475546" lon="16.4019405"><ele>852.9999999999999</ele><time>2026-04-19T11:55:21.584Z</time></trkpt><trkpt lat="38.7475574" lon="16.402067"><ele>853.0</ele><time>2026-04-19T11:55:22.585Z</time></trkpt><trkpt lat="38.7475552" lon="16.4021791"><ele>853.0</ele><time>2026-04-19T11:55:23.593Z</time></trkpt><trkpt lat="38.7475551" lon="16.4022713"><ele>853.0</ele><time>2026-04-19T11:55:24.585Z</time></trkpt><trkpt lat="38.7475564" lon="16.4024081"><ele>852.9999999999999</ele><time>2026-04-19T11:55:26.579Z</time></trkpt><trkpt lat="38.7475561" lon="16.4024978"><ele>853.0</ele><time>2026-04-19T11:55:28.587Z</time></trkpt><trkpt lat="38.7476597" lon="16.4025015"><ele>856.0</ele><time>2026-04-19T11:55:31.587Z</time></trkpt><trkpt lat="38.7477166" lon="16.402423"><ele>859.0</ele><time>2026-04-19T11:55:32.59Z</time></trkpt><trkpt lat="38.7477859" lon="16.4022925"><ele>862.0</ele><time>2026-04-19T11:55:33.603Z</time></trkpt><trkpt lat="38.7478833" lon="16.4021077"><ele>865.0</ele><time>2026-04-19T11:55:34.593Z</time></trkpt><trkpt lat="38.7479913" lon="16.4018968"><ele>865.3333333333333</ele><time>2026-04-19T11:55:35.582Z</time></trkpt><trkpt lat="38.7481046" lon="16.4016941"><ele>865.6666666666667</ele><time>2026-04-19T11:55:36.583Z</time></trkpt><trkpt lat="38.7482154" lon="16.4015058"><ele>866.0</ele><time>2026-04-19T11:55:37.593Z</time></trkpt><trkpt lat="38.7483372" lon="16.4013179"><ele>864.6666666666667</ele><time>2026-04-19T11:55:38.589Z</time></trkpt><trkpt lat="38.7484525" lon="16.4011332"><ele>863.3333333333333</ele><time>2026-04-19T11:55:39.59Z</time></trkpt><trkpt lat="38.7485607" lon="16.4009359"><ele>862.0</ele><time>2026-04-19T11:55:40.585Z</time></trkpt><trkpt lat="38.7486594" lon="16.4007864"><ele>864.25</ele><time>2026-04-19T11:55:41.591Z</time></trkpt><trkpt lat="38.7487397" lon="16.4006381"><ele>866.5</ele><time>2026-04-19T11:55:42.586Z</time></trkpt><trkpt lat="38.7488114" lon="16.4005017"><ele>868.75</ele><time>2026-04-19T11:55:43.604Z</time></trkpt><trkpt lat="38.7488814" lon="16.4003453"><ele>871.0</ele><time>2026-04-19T11:55:44.589Z</time></trkpt><trkpt lat="38.7489412" lon="16.400176"><ele>871.0</ele><time>2026-04-19T11:55:45.589Z</time></trkpt><trkpt lat="38.7490163" lon="16.399995"><ele>871.0</ele><time>2026-04-19T11:55:46.584Z</time></trkpt><trkpt lat="38.7490754" lon="16.3998368"><ele>871.0</ele><time>2026-04-19T11:55:47.587Z</time></trkpt><trkpt lat="38.7491455" lon="16.3997022"><ele>871.0</ele><time>2026-04-19T11:55:48.583Z</time></trkpt><trkpt lat="38.7492143" lon="16.3995734"><ele>870.75</ele><time>2026-04-19T11:55:49.586Z</time></trkpt><trkpt lat="38.7492778" lon="16.3994356"><ele>870.5</ele><time>2026-04-19T11:55:50.597Z</time></trkpt><trkpt lat="38.7493661" lon="16.3993022"><ele>870.25</ele><time>2026-04-19T11:55:51.589Z</time></trkpt><trkpt lat="38.749442" lon="16.3991399"><ele>870.0</ele><time>2026-04-19T11:55:52.586Z</time></trkpt><trkpt lat="38.7494971" lon="16.3989683"><ele>872.25</ele><time>2026-04-19T11:55:53.582Z</time></trkpt><trkpt lat="38.7495473" lon="16.3988146"><ele>874.5</ele><time>2026-04-19T11:55:54.594Z</time></trkpt><trkpt lat="38.7496003" lon="16.3986456"><ele>876.75</ele><time>2026-04-19T11:55:55.599Z</time></trkpt><trkpt lat="38.7496576" lon="16.3984672"><ele>879.0</ele><time>2026-04-19T11:55:56.594Z</time></trkpt><trkpt lat="38.7497146" lon="16.3983248"><ele>879.0</ele><time>2026-04-19T11:55:57.592Z</time></trkpt><trkpt lat="38.7497667" lon="16.3982136"><ele>879.0</ele><time>2026-04-19T11:55:58.591Z</time></trkpt><trkpt lat="38.7498076" lon="16.398113"><ele>879.0</ele><time>2026-04-19T11:55:59.593Z</time></trkpt><trkpt lat="38.7498486" lon="16.3980242"><ele>879.0</ele><time>2026-04-19T11:56:00.603Z</time></trkpt><trkpt lat="38.7498865" lon="16.3979409"><ele>879.0</ele><time>2026-04-19T11:56:01.589Z</time></trkpt><trkpt lat="38.749916" lon="16.3978619"><ele>879.0</ele><time>2026-04-19T11:56:02.586Z</time></trkpt><trkpt lat="38.7499543" lon="16.3977953"><ele>880.8000000000001</ele><time>2026-04-19T11:56:03.587Z</time></trkpt><trkpt lat="38.7500263" lon="16.3976858"><ele>882.6000000000001</ele><time>2026-04-19T11:56:05.591Z</time></trkpt><trkpt lat="38.7500731" lon="16.3976206"><ele>884.4</ele><time>2026-04-19T11:56:06.589Z</time></trkpt><trkpt lat="38.7501262" lon="16.3975528"><ele>886.2</ele><time>2026-04-19T11:56:07.59Z</time></trkpt><trkpt lat="38.7501994" lon="16.3974672"><ele>888.0</ele><time>2026-04-19T11:56:09.61Z</time></trkpt><trkpt lat="38.750324" lon="16.3974234"><ele>888.0</ele><time>2026-04-19T11:56:11.59Z</time></trkpt><trkpt lat="38.7503835" lon="16.3973736"><ele>888.0</ele><time>2026-04-19T11:56:12.596Z</time></trkpt><trkpt lat="38.7504657" lon="16.3972721"><ele>888.0</ele><time>2026-04-19T11:56:14.595Z</time></trkpt><trkpt lat="38.7505348" lon="16.3971271"><ele>888.0</ele><time>2026-04-19T11:56:16.598Z</time></trkpt><trkpt lat="38.7505693" lon="16.3970316"><ele>888.0</ele><time>2026-04-19T11:56:17.593Z</time></trkpt><trkpt lat="38.7505896" lon="16.3969063"><ele>889.2</ele><time>2026-04-19T11:56:18.591Z</time></trkpt><trkpt lat="38.7506235" lon="16.3967971"><ele>890.4</ele><time>2026-04-19T11:56:19.605Z</time></trkpt><trkpt lat="38.7506645" lon="16.3966877"><ele>891.6000000000001</ele><time>2026-04-19T11:56:20.599Z</time></trkpt><trkpt lat="38.7506922" lon="16.3965866"><ele>892.8000000000001</ele><time>2026-04-19T11:56:21.593Z</time></trkpt><trkpt lat="38.7507364" lon="16.3964857"><ele>894.0</ele><time>2026-04-19T11:56:22.593Z</time></trkpt><trkpt lat="38.7507782" lon="16.396379"><ele>894.2</ele><time>2026-04-19T11:56:23.597Z</time></trkpt><trkpt lat="38.7508417" lon="16.3962678"><ele>894.4000000000001</ele><time>2026-04-19T11:56:24.612Z</time></trkpt><trkpt lat="38.7509273" lon="16.3961696"><ele>894.6</ele><time>2026-04-19T11:56:25.583Z</time></trkpt><trkpt lat="38.7509912" lon="16.3960629"><ele>894.8</ele><time>2026-04-19T11:56:26.589Z</time></trkpt><trkpt lat="38.751069" lon="16.3959767"><ele>895.0</ele><time>2026-04-19T11:56:27.597Z</time></trkpt><trkpt lat="38.7511284" lon="16.395893"><ele>895.0</ele><time>2026-04-19T11:56:28.587Z</time></trkpt><trkpt lat="38.7511688" lon="16.3957661"><ele>895.0</ele><time>2026-04-19T11:56:29.591Z</time></trkpt><trkpt lat="38.7511795" lon="16.3954465"><ele>895.0</ele><time>2026-04-19T11:56:31.588Z</time></trkpt><trkpt lat="38.7511802" lon="16.3952874"><ele>895.2</ele><time>2026-04-19T11:56:32.589Z</time></trkpt><trkpt lat="38.7511505" lon="16.395148"><ele>895.4</ele><time>2026-04-19T11:56:33.587Z</time></trkpt><trkpt lat="38.7511278" lon="16.395037"><ele>895.5999999999999</ele><time>2026-04-19T11:56:34.588Z</time></trkpt><trkpt lat="38.7511532" lon="16.3949415"><ele>895.8</ele><time>2026-04-19T11:56:35.585Z</time></trkpt><trkpt lat="38.7511636" lon="16.3948007"><ele>896.0</ele><time>2026-04-19T11:56:37.584Z</time></trkpt><trkpt lat="38.7511758" lon="16.3946713"><ele>895.5</ele><time>2026-04-19T11:56:39.585Z</time></trkpt><trkpt lat="38.7511507" lon="16.394569"><ele>895.0</ele><time>2026-04-19T11:56:40.59Z</time></trkpt><trkpt lat="38.751253" lon="16.3944463"><ele>894.5</ele><time>2026-04-19T11:56:49.585Z</time></trkpt><trkpt lat="38.7512821" lon="16.3943017"><ele>894.0</ele><time>2026-04-19T11:57:42.594Z</time></trkpt><trkpt lat="38.7513508" lon="16.3941068"><ele>894.0</ele><time>2026-04-19T11:57:44.587Z</time></trkpt><trkpt lat="38.7513973" lon="16.3939524"><ele>894.0</ele><time>2026-04-19T11:57:45.597Z</time></trkpt><trkpt lat="38.7514318" lon="16.3937958"><ele>894.0</ele><time>2026-04-19T11:57:46.585Z</time></trkpt><trkpt lat="38.7514849" lon="16.3936121"><ele>894.0</ele><time>2026-04-19T11:57:47.585Z</time></trkpt><trkpt lat="38.7515293" lon="16.3934456"><ele>893.75</ele><time>2026-04-19T11:57:48.59Z</time></trkpt><trkpt lat="38.7515644" lon="16.3932994"><ele>893.5</ele><time>2026-04-19T11:57:49.584Z</time></trkpt><trkpt lat="38.7516255" lon="16.3931513"><ele>893.25</ele><time>2026-04-19T11:57:50.588Z</time></trkpt><trkpt lat="38.7516737" lon="16.39302"><ele>893.0</ele><time>2026-04-19T11:57:51.586Z</time></trkpt><trkpt lat="38.7517212" lon="16.3928686"><ele>893.0</ele><time>2026-04-19T11:57:52.589Z</time></trkpt><trkpt lat="38.7517829" lon="16.3926682"><ele>893.0</ele><time>2026-04-19T11:57:53.586Z</time></trkpt><trkpt lat="38.7518273" lon="16.3924724"><ele>893.0</ele><time>2026-04-19T11:57:54.599Z</time></trkpt><trkpt lat="38.7518822" lon="16.3923061"><ele>890.25</ele><time>2026-04-19T11:57:55.588Z</time></trkpt><trkpt lat="38.7519338" lon="16.392136"><ele>887.5</ele><time>2026-04-19T11:57:56.587Z</time></trkpt><trkpt lat="38.7520081" lon="16.3920616"><ele>884.75</ele><time>2026-04-19T11:57:57.587Z</time></trkpt><trkpt lat="38.752055" lon="16.3919349"><ele>882.0</ele><time>2026-04-19T11:57:58.59Z</time></trkpt><trkpt lat="38.7520863" lon="16.3918047"><ele>882.0</ele><time>2026-04-19T11:57:59.584Z</time></trkpt><trkpt lat="38.7521261" lon="16.3916898"><ele>882.0</ele><time>2026-04-19T11:58:00.586Z</time></trkpt><trkpt lat="38.7521633" lon="16.3915784"><ele>882.0</ele><time>2026-04-19T11:58:01.595Z</time></trkpt><trkpt lat="38.7522007" lon="16.3914861"><ele>882.0</ele><time>2026-04-19T11:58:02.591Z</time></trkpt><trkpt lat="38.7522311" lon="16.3914153"><ele>882.0</ele><time>2026-04-19T11:58:03.59Z</time></trkpt><trkpt lat="38.7522952" lon="16.3913404"><ele>882.0</ele><time>2026-04-19T11:58:05.587Z</time></trkpt><trkpt lat="38.752327" lon="16.3912654"><ele>881.75</ele><time>2026-04-19T11:58:07.599Z</time></trkpt><trkpt lat="38.7523057" lon="16.3911856"><ele>881.5</ele><time>2026-04-19T11:58:08.591Z</time></trkpt><trkpt lat="38.7522752" lon="16.3910044"><ele>881.25</ele><time>2026-04-19T11:58:09.584Z</time></trkpt><trkpt lat="38.7522399" lon="16.3908082"><ele>881.0</ele><time>2026-04-19T11:58:10.602Z</time></trkpt><trkpt lat="38.7521823" lon="16.3906084"><ele>881.3333333333334</ele><time>2026-04-19T11:58:11.593Z</time></trkpt><trkpt lat="38.7521114" lon="16.3903958"><ele>881.6666666666667</ele><time>2026-04-19T11:58:12.584Z</time></trkpt><trkpt lat="38.7520324" lon="16.3901511"><ele>882.0</ele><time>2026-04-19T11:58:13.584Z</time></trkpt><trkpt lat="38.7519112" lon="16.3899381"><ele>879.6666666666667</ele><time>2026-04-19T11:58:14.589Z</time></trkpt><trkpt lat="38.7517851" lon="16.3897341"><ele>877.3333333333334</ele><time>2026-04-19T11:58:15.588Z</time></trkpt><trkpt lat="38.7516954" lon="16.3895296"><ele>875.0</ele><time>2026-04-19T11:58:16.597Z</time></trkpt><trkpt lat="38.751602" lon="16.3893366"><ele>874.0</ele><time>2026-04-19T11:58:17.593Z</time></trkpt><trkpt lat="38.7514984" lon="16.3891616"><ele>873.0</ele><time>2026-04-19T11:58:18.586Z</time></trkpt><trkpt lat="38.7513895" lon="16.3890092"><ele>872.0</ele><time>2026-04-19T11:58:19.586Z</time></trkpt><trkpt lat="38.7512754" lon="16.3888889"><ele>872.5</ele><time>2026-04-19T11:58:20.587Z</time></trkpt><trkpt lat="38.7511662" lon="16.3887708"><ele>873.0</ele><time>2026-04-19T11:58:21.613Z</time></trkpt><trkpt lat="38.751073" lon="16.3886647"><ele>873.5</ele><time>2026-04-19T11:58:22.591Z</time></trkpt><trkpt lat="38.7509757" lon="16.388571"><ele>874.0</ele><time>2026-04-19T11:58:23.586Z</time></trkpt><trkpt lat="38.7508793" lon="16.3884822"><ele>874.0</ele><time>2026-04-19T11:58:24.594Z</time></trkpt><trkpt lat="38.7507958" lon="16.3883987"><ele>874.0000000000001</ele><time>2026-04-19T11:58:25.591Z</time></trkpt><trkpt lat="38.7507192" lon="16.3883036"><ele>874.0000000000001</ele><time>2026-04-19T11:58:26.599Z</time></trkpt><trkpt lat="38.750638" lon="16.3882176"><ele>874.0</ele><time>2026-04-19T11:58:27.592Z</time></trkpt><trkpt lat="38.7505527" lon="16.3881273"><ele>874.0</ele><time>2026-04-19T11:58:28.591Z</time></trkpt><trkpt lat="38.7504542" lon="16.3880098"><ele>875.0</ele><time>2026-04-19T11:58:29.587Z</time></trkpt><trkpt lat="38.7503607" lon="16.3878643"><ele>876.0</ele><time>2026-04-19T11:58:30.591Z</time></trkpt><trkpt lat="38.7502711" lon="16.3877355"><ele>877.0</ele><time>2026-04-19T11:58:31.59Z</time></trkpt><trkpt lat="38.750178" lon="16.3876266"><ele>878.0</ele><time>2026-04-19T11:58:32.588Z</time></trkpt><trkpt lat="38.7500876" lon="16.387511"><ele>878.0</ele><time>2026-04-19T11:58:33.597Z</time></trkpt><trkpt lat="38.7499897" lon="16.3873985"><ele>878.0</ele><time>2026-04-19T11:58:34.588Z</time></trkpt><trkpt lat="38.7498988" lon="16.3872855"><ele>878.0</ele><time>2026-04-19T11:58:35.589Z</time></trkpt><trkpt lat="38.749822" lon="16.3871966"><ele>878.0</ele><time>2026-04-19T11:58:36.59Z</time></trkpt><trkpt lat="38.7497421" lon="16.3871153"><ele>877.2</ele><time>2026-04-19T11:58:37.583Z</time></trkpt><trkpt lat="38.7496775" lon="16.3870122"><ele>876.4</ele><time>2026-04-19T11:58:38.591Z</time></trkpt><trkpt lat="38.7496024" lon="16.3869089"><ele>875.6000000000001</ele><time>2026-04-19T11:58:39.589Z</time></trkpt><trkpt lat="38.7495185" lon="16.3868239"><ele>874.8000000000001</ele><time>2026-04-19T11:58:40.606Z</time></trkpt><trkpt lat="38.7494412" lon="16.3867433"><ele>874.0</ele><time>2026-04-19T11:58:41.591Z</time></trkpt><trkpt lat="38.7493589" lon="16.3866457"><ele>875.4000000000001</ele><time>2026-04-19T11:58:42.586Z</time></trkpt><trkpt lat="38.749271" lon="16.3865289"><ele>876.8000000000001</ele><time>2026-04-19T11:58:43.588Z</time></trkpt><trkpt lat="38.7491834" lon="16.386423"><ele>878.1999999999999</ele><time>2026-04-19T11:58:44.587Z</time></trkpt><trkpt lat="38.7491136" lon="16.3863286"><ele>879.5999999999999</ele><time>2026-04-19T11:58:45.587Z</time></trkpt><trkpt lat="38.7490596" lon="16.3862434"><ele>881.0</ele><time>2026-04-19T11:58:46.59Z</time></trkpt><trkpt lat="38.7490062" lon="16.3861557"><ele>881.0</ele><time>2026-04-19T11:58:47.586Z</time></trkpt><trkpt lat="38.7489615" lon="16.3860351"><ele>880.9999999999999</ele><time>2026-04-19T11:58:48.586Z</time></trkpt><trkpt lat="38.7488882" lon="16.385935"><ele>880.9999999999999</ele><time>2026-04-19T11:58:49.591Z</time></trkpt><trkpt lat="38.7488043" lon="16.3858486"><ele>881.0</ele><time>2026-04-19T11:58:50.587Z</time></trkpt><trkpt lat="38.7487181" lon="16.3857508"><ele>881.0</ele><time>2026-04-19T11:58:51.595Z</time></trkpt><trkpt lat="38.748653" lon="16.3856379"><ele>881.0</ele><time>2026-04-19T11:58:52.587Z</time></trkpt><trkpt lat="38.748598" lon="16.3855248"><ele>880.9999999999999</ele><time>2026-04-19T11:58:53.586Z</time></trkpt><trkpt lat="38.7485413" lon="16.3854287"><ele>880.9999999999999</ele><time>2026-04-19T11:58:54.595Z</time></trkpt><trkpt lat="38.7484855" lon="16.3853423"><ele>881.0</ele><time>2026-04-19T11:58:55.585Z</time></trkpt><trkpt lat="38.7484204" lon="16.3852712"><ele>881.0</ele><time>2026-04-19T11:58:56.597Z</time></trkpt><trkpt lat="38.7483657" lon="16.3851985"><ele>882.0</ele><time>2026-04-19T11:58:57.589Z</time></trkpt><trkpt lat="38.7483131" lon="16.3851164"><ele>882.9999999999999</ele><time>2026-04-19T11:58:58.585Z</time></trkpt><trkpt lat="38.7482567" lon="16.385037"><ele>883.9999999999999</ele><time>2026-04-19T11:58:59.584Z</time></trkpt><trkpt lat="38.7482049" lon="16.3849496"><ele>885.0</ele><time>2026-04-19T11:59:00.583Z</time></trkpt><trkpt lat="38.7481414" lon="16.384838"><ele>886.0</ele><time>2026-04-19T11:59:01.587Z</time></trkpt><trkpt lat="38.7480562" lon="16.3847113"><ele>886.0</ele><time>2026-04-19T11:59:02.593Z</time></trkpt><trkpt lat="38.7479658" lon="16.384593"><ele>886.0</ele><time>2026-04-19T11:59:03.587Z</time></trkpt><trkpt lat="38.7478818" lon="16.3844742"><ele>886.0</ele><time>2026-04-19T11:59:04.598Z</time></trkpt><trkpt lat="38.7478004" lon="16.3843658"><ele>886.0</ele><time>2026-04-19T11:59:05.588Z</time></trkpt><trkpt lat="38.7477162" lon="16.3842602"><ele>886.1999999999999</ele><time>2026-04-19T11:59:06.595Z</time></trkpt><trkpt lat="38.7476509" lon="16.3841659"><ele>886.3999999999999</ele><time>2026-04-19T11:59:07.588Z</time></trkpt><trkpt lat="38.7475913" lon="16.3840706"><ele>886.6</ele><time>2026-04-19T11:59:08.58Z</time></trkpt><trkpt lat="38.7475271" lon="16.3839748"><ele>886.8</ele><time>2026-04-19T11:59:09.585Z</time></trkpt><trkpt lat="38.7474624" lon="16.3838935"><ele>887.0</ele><time>2026-04-19T11:59:10.592Z</time></trkpt><trkpt lat="38.7474107" lon="16.3838241"><ele>887.0</ele><time>2026-04-19T11:59:11.587Z</time></trkpt><trkpt lat="38.7473567" lon="16.383758"><ele>887.0</ele><time>2026-04-19T11:59:12.595Z</time></trkpt><trkpt lat="38.7472974" lon="16.383694"><ele>887.0</ele><time>2026-04-19T11:59:13.581Z</time></trkpt><trkpt lat="38.7472306" lon="16.3836176"><ele>887.0</ele><time>2026-04-19T11:59:14.582Z</time></trkpt><trkpt lat="38.7471416" lon="16.3835259"><ele>887.0</ele><time>2026-04-19T11:59:15.59Z</time></trkpt><trkpt lat="38.7470526" lon="16.383424"><ele>887.0</ele><time>2026-04-19T11:59:16.591Z</time></trkpt><trkpt lat="38.7469663" lon="16.3833185"><ele>887.0</ele><time>2026-04-19T11:59:17.599Z</time></trkpt><trkpt lat="38.7468778" lon="16.3832209"><ele>887.0</ele><time>2026-04-19T11:59:18.585Z</time></trkpt><trkpt lat="38.7467876" lon="16.3831468"><ele>887.0</ele><time>2026-04-19T11:59:19.576Z</time></trkpt><trkpt lat="38.7466882" lon="16.383098"><ele>887.4000000000001</ele><time>2026-04-19T11:59:20.58Z</time></trkpt><trkpt lat="38.7465955" lon="16.3830672"><ele>887.8000000000001</ele><time>2026-04-19T11:59:21.588Z</time></trkpt><trkpt lat="38.7465111" lon="16.3830287"><ele>888.2</ele><time>2026-04-19T11:59:22.585Z</time></trkpt><trkpt lat="38.7464095" lon="16.3829856"><ele>888.6</ele><time>2026-04-19T11:59:23.591Z</time></trkpt><trkpt lat="38.7462992" lon="16.382946"><ele>889.0</ele><time>2026-04-19T11:59:24.587Z</time></trkpt><trkpt lat="38.746169" lon="16.382887"><ele>890.0</ele><time>2026-04-19T11:59:25.589Z</time></trkpt><trkpt lat="38.7460305" lon="16.3828759"><ele>891.0</ele><time>2026-04-19T11:59:26.587Z</time></trkpt><trkpt lat="38.7459136" lon="16.3828385"><ele>892.0</ele><time>2026-04-19T11:59:27.591Z</time></trkpt><trkpt lat="38.7457829" lon="16.3827711"><ele>893.0</ele><time>2026-04-19T11:59:28.585Z</time></trkpt><trkpt lat="38.7456575" lon="16.3827172"><ele>893.0000000000001</ele><time>2026-04-19T11:59:29.592Z</time></trkpt><trkpt lat="38.7455789" lon="16.3826632"><ele>893.0</ele><time>2026-04-19T11:59:30.59Z</time></trkpt><trkpt lat="38.7454844" lon="16.3826281"><ele>893.0</ele><time>2026-04-19T11:59:31.588Z</time></trkpt><trkpt lat="38.7453978" lon="16.3825893"><ele>893.0</ele><time>2026-04-19T11:59:32.587Z</time></trkpt><trkpt lat="38.7453309" lon="16.3825463"><ele>893.0000000000001</ele><time>2026-04-19T11:59:33.587Z</time></trkpt><trkpt lat="38.7452734" lon="16.3825036"><ele>893.0</ele><time>2026-04-19T11:59:34.584Z</time></trkpt><trkpt lat="38.7452223" lon="16.3824545"><ele>895.4</ele><time>2026-04-19T11:59:35.591Z</time></trkpt><trkpt lat="38.745158" lon="16.3823941"><ele>897.8</ele><time>2026-04-19T11:59:36.59Z</time></trkpt><trkpt lat="38.7450903" lon="16.3823484"><ele>900.2</ele><time>2026-04-19T11:59:37.583Z</time></trkpt><trkpt lat="38.7450389" lon="16.3822859"><ele>902.6</ele><time>2026-04-19T11:59:38.59Z</time></trkpt><trkpt lat="38.7449287" lon="16.3822441"><ele>905.0</ele><time>2026-04-19T11:59:40.582Z</time></trkpt><trkpt lat="38.7448149" lon="16.3821995"><ele>905.1666666666667</ele><time>2026-04-19T11:59:42.573Z</time></trkpt><trkpt lat="38.7447546" lon="16.3821504"><ele>905.3333333333334</ele><time>2026-04-19T11:59:43.587Z</time></trkpt><trkpt lat="38.7446787" lon="16.3820986"><ele>905.5</ele><time>2026-04-19T11:59:44.576Z</time></trkpt><trkpt lat="38.744611" lon="16.3820564"><ele>905.6666666666667</ele><time>2026-04-19T11:59:45.584Z</time></trkpt><trkpt lat="38.7445479" lon="16.3820345"><ele>905.8333333333334</ele><time>2026-04-19T11:59:46.584Z</time></trkpt><trkpt lat="38.7444694" lon="16.3820028"><ele>906.0</ele><time>2026-04-19T11:59:47.576Z</time></trkpt><trkpt lat="38.744414" lon="16.3819369"><ele>907.8</ele><time>2026-04-19T11:59:48.577Z</time></trkpt><trkpt lat="38.7443151" lon="16.3818801"><ele>909.5999999999999</ele><time>2026-04-19T11:59:49.578Z</time></trkpt><trkpt lat="38.7442072" lon="16.3818322"><ele>911.4</ele><time>2026-04-19T11:59:50.574Z</time></trkpt><trkpt lat="38.7441126" lon="16.3817774"><ele>913.2</ele><time>2026-04-19T11:59:51.579Z</time></trkpt><trkpt lat="38.7440072" lon="16.3817157"><ele>915.0</ele><time>2026-04-19T11:59:52.588Z</time></trkpt><trkpt lat="38.7439316" lon="16.3816382"><ele>915.0</ele><time>2026-04-19T11:59:53.572Z</time></trkpt><trkpt lat="38.7438571" lon="16.381578"><ele>915.0</ele><time>2026-04-19T11:59:54.572Z</time></trkpt><trkpt lat="38.7437949" lon="16.3815227"><ele>915.0</ele><time>2026-04-19T11:59:55.577Z</time></trkpt><trkpt lat="38.7437313" lon="16.3814518"><ele>915.0</ele><time>2026-04-19T11:59:56.58Z</time></trkpt><trkpt lat="38.743657" lon="16.3813775"><ele>915.0</ele><time>2026-04-19T11:59:57.583Z</time></trkpt><trkpt lat="38.7435859" lon="16.3813177"><ele>915.0</ele><time>2026-04-19T11:59:58.581Z</time></trkpt><trkpt lat="38.7435103" lon="16.3812428"><ele>916.8</ele><time>2026-04-19T11:59:59.579Z</time></trkpt><trkpt lat="38.7434479" lon="16.3811514"><ele>918.6</ele><time>2026-04-19T12:00:00.596Z</time></trkpt><trkpt lat="38.7434031" lon="16.381055"><ele>920.4000000000001</ele><time>2026-04-19T12:00:01.574Z</time></trkpt><trkpt lat="38.7433471" lon="16.3809717"><ele>922.2</ele><time>2026-04-19T12:00:02.582Z</time></trkpt><trkpt lat="38.7432993" lon="16.3808262"><ele>924.0</ele><time>2026-04-19T12:00:03.575Z</time></trkpt><trkpt lat="38.7432482" lon="16.3806723"><ele>924.0</ele><time>2026-04-19T12:00:04.576Z</time></trkpt><trkpt lat="38.743211" lon="16.3805892"><ele>924.0</ele><time>2026-04-19T12:00:05.576Z</time></trkpt><trkpt lat="38.7431721" lon="16.3804896"><ele>924.0</ele><time>2026-04-19T12:00:06.581Z</time></trkpt><trkpt lat="38.7431347" lon="16.3804031"><ele>924.0</ele><time>2026-04-19T12:00:07.581Z</time></trkpt><trkpt lat="38.7430957" lon="16.380324"><ele>924.0</ele><time>2026-04-19T12:00:08.592Z</time></trkpt><trkpt lat="38.7430703" lon="16.3802322"><ele>924.0</ele><time>2026-04-19T12:00:09.579Z</time></trkpt><trkpt lat="38.7430521" lon="16.3801295"><ele>924.6</ele><time>2026-04-19T12:00:10.577Z</time></trkpt><trkpt lat="38.7430361" lon="16.3799611"><ele>925.2</ele><time>2026-04-19T12:00:12.579Z</time></trkpt><trkpt lat="38.7430102" lon="16.3798473"><ele>925.8000000000001</ele><time>2026-04-19T12:00:13.594Z</time></trkpt><trkpt lat="38.7429687" lon="16.379753"><ele>926.4000000000001</ele><time>2026-04-19T12:00:14.578Z</time></trkpt><trkpt lat="38.7429334" lon="16.3796437"><ele>927.0</ele><time>2026-04-19T12:00:15.577Z</time></trkpt><trkpt lat="38.7429115" lon="16.3795328"><ele>927.25</ele><time>2026-04-19T12:00:16.574Z</time></trkpt><trkpt lat="38.742905" lon="16.3793835"><ele>927.5</ele><time>2026-04-19T12:00:17.575Z</time></trkpt><trkpt lat="38.7428854" lon="16.3792043"><ele>927.75</ele><time>2026-04-19T12:00:18.58Z</time></trkpt><trkpt lat="38.7428693" lon="16.3790708"><ele>928.0</ele><time>2026-04-19T12:00:19.575Z</time></trkpt><trkpt lat="38.7428398" lon="16.3789309"><ele>928.3333333333333</ele><time>2026-04-19T12:00:20.587Z</time></trkpt><trkpt lat="38.7428242" lon="16.3788074"><ele>928.6666666666666</ele><time>2026-04-19T12:00:21.578Z</time></trkpt><trkpt lat="38.7428181" lon="16.3787149"><ele>929.0</ele><time>2026-04-19T12:00:22.58Z</time></trkpt><trkpt lat="38.7428191" lon="16.3786149"><ele>929.3333333333333</ele><time>2026-04-19T12:00:23.576Z</time></trkpt><trkpt lat="38.7428159" lon="16.3785143"><ele>929.6666666666666</ele><time>2026-04-19T12:00:24.576Z</time></trkpt><trkpt lat="38.7428003" lon="16.3784216"><ele>930.0</ele><time>2026-04-19T12:00:25.583Z</time></trkpt><trkpt lat="38.7427872" lon="16.3783007"><ele>930.0</ele><time>2026-04-19T12:00:26.578Z</time></trkpt><trkpt lat="38.7427674" lon="16.3781716"><ele>930.0</ele><time>2026-04-19T12:00:27.596Z</time></trkpt><trkpt lat="38.7427456" lon="16.3780324"><ele>930.0</ele><time>2026-04-19T12:00:28.581Z</time></trkpt><trkpt lat="38.742735" lon="16.3779224"><ele>930.0</ele><time>2026-04-19T12:00:29.575Z</time></trkpt><trkpt lat="38.7427293" lon="16.3777991"><ele>930.0</ele><time>2026-04-19T12:00:30.574Z</time></trkpt><trkpt lat="38.742731" lon="16.3776632"><ele>932.0</ele><time>2026-04-19T12:00:31.568Z</time></trkpt><trkpt lat="38.7427061" lon="16.3775414"><ele>934.0</ele><time>2026-04-19T12:00:32.59Z</time></trkpt><trkpt lat="38.7426817" lon="16.3774157"><ele>936.0</ele><time>2026-04-19T12:00:33.578Z</time></trkpt><trkpt lat="38.7426651" lon="16.3773337"><ele>938.0</ele><time>2026-04-19T12:00:34.578Z</time></trkpt><trkpt lat="38.7426566" lon="16.3772191"><ele>940.0</ele><time>2026-04-19T12:00:36.584Z</time></trkpt><trkpt lat="38.7426768" lon="16.3770989"><ele>940.0</ele><time>2026-04-19T12:00:39.586Z</time></trkpt><trkpt lat="38.7426894" lon="16.3769842"><ele>940.0</ele><time>2026-04-19T12:00:41.578Z</time></trkpt><trkpt lat="38.7427372" lon="16.3768684"><ele>940.0</ele><time>2026-04-19T12:00:43.58Z</time></trkpt><trkpt lat="38.7427613" lon="16.3767749"><ele>940.0</ele><time>2026-04-19T12:00:46.58Z</time></trkpt><trkpt lat="38.7428067" lon="16.3766315"><ele>940.0</ele><time>2026-04-19T12:00:48.578Z</time></trkpt><trkpt lat="38.7428616" lon="16.3765003"><ele>940.1666666666666</ele><time>2026-04-19T12:00:50.578Z</time></trkpt><trkpt lat="38.7429421" lon="16.3763949"><ele>940.3333333333333</ele><time>2026-04-19T12:00:52.575Z</time></trkpt><trkpt lat="38.7429953" lon="16.3763351"><ele>940.5</ele><time>2026-04-19T12:00:53.584Z</time></trkpt><trkpt lat="38.743039" lon="16.3762768"><ele>940.6666666666667</ele><time>2026-04-19T12:00:54.609Z</time></trkpt><trkpt lat="38.7430764" lon="16.3762043"><ele>940.8333333333334</ele><time>2026-04-19T12:00:55.579Z</time></trkpt><trkpt lat="38.7431098" lon="16.3761089"><ele>941.0</ele><time>2026-04-19T12:00:56.579Z</time></trkpt><trkpt lat="38.7431407" lon="16.3760007"><ele>941.75</ele><time>2026-04-19T12:00:57.576Z</time></trkpt><trkpt lat="38.7431856" lon="16.3758578"><ele>942.5</ele><time>2026-04-19T12:00:58.574Z</time></trkpt><trkpt lat="38.7432445" lon="16.3757125"><ele>943.25</ele><time>2026-04-19T12:00:59.577Z</time></trkpt><trkpt lat="38.743309" lon="16.3755771"><ele>944.0</ele><time>2026-04-19T12:01:00.575Z</time></trkpt><trkpt lat="38.743365" lon="16.3754395"><ele>944.1666666666667</ele><time>2026-04-19T12:01:01.592Z</time></trkpt><trkpt lat="38.7434142" lon="16.3753216"><ele>944.3333333333334</ele><time>2026-04-19T12:01:02.574Z</time></trkpt><trkpt lat="38.7434504" lon="16.3752034"><ele>944.5</ele><time>2026-04-19T12:01:03.578Z</time></trkpt><trkpt lat="38.7434863" lon="16.3751097"><ele>944.6666666666667</ele><time>2026-04-19T12:01:04.575Z</time></trkpt><trkpt lat="38.7435033" lon="16.3750193"><ele>944.8333333333334</ele><time>2026-04-19T12:01:05.579Z</time></trkpt><trkpt lat="38.7435206" lon="16.374906"><ele>945.0</ele><time>2026-04-19T12:01:06.572Z</time></trkpt><trkpt lat="38.7435154" lon="16.3747893"><ele>945.0</ele><time>2026-04-19T12:01:07.576Z</time></trkpt><trkpt lat="38.7434955" lon="16.3746982"><ele>945.0</ele><time>2026-04-19T12:01:08.577Z</time></trkpt><trkpt lat="38.7434747" lon="16.3745733"><ele>945.0</ele><time>2026-04-19T12:01:09.575Z</time></trkpt><trkpt lat="38.7434609" lon="16.3744936"><ele>945.0</ele><time>2026-04-19T12:01:10.578Z</time></trkpt><trkpt lat="38.7434599" lon="16.3743946"><ele>945.0</ele><time>2026-04-19T12:01:11.576Z</time></trkpt><trkpt lat="38.7434538" lon="16.374294"><ele>945.0</ele><time>2026-04-19T12:01:12.593Z</time></trkpt><trkpt lat="38.7434402" lon="16.3741803"><ele>946.6</ele><time>2026-04-19T12:01:13.575Z</time></trkpt><trkpt lat="38.7434223" lon="16.3740625"><ele>948.2</ele><time>2026-04-19T12:01:14.578Z</time></trkpt><trkpt lat="38.7434102" lon="16.3739728"><ele>949.8</ele><time>2026-04-19T12:01:15.576Z</time></trkpt><trkpt lat="38.7433928" lon="16.3738777"><ele>951.4</ele><time>2026-04-19T12:01:16.574Z</time></trkpt><trkpt lat="38.7433608" lon="16.3737301"><ele>953.0</ele><time>2026-04-19T12:01:18.6Z</time></trkpt><trkpt lat="38.7433342" lon="16.373602"><ele>954.2</ele><time>2026-04-19T12:01:20.573Z</time></trkpt><trkpt lat="38.7432952" lon="16.373474"><ele>955.4</ele><time>2026-04-19T12:01:22.579Z</time></trkpt><trkpt lat="38.7432819" lon="16.3733285"><ele>956.6000000000001</ele><time>2026-04-19T12:01:24.58Z</time></trkpt><trkpt lat="38.743284" lon="16.3732295"><ele>957.8000000000001</ele><time>2026-04-19T12:01:25.578Z</time></trkpt><trkpt lat="38.7432673" lon="16.3730918"><ele>959.0</ele><time>2026-04-19T12:01:27.577Z</time></trkpt><trkpt lat="38.7432223" lon="16.3730131"><ele>959.5000000000001</ele><time>2026-04-19T12:01:32.582Z</time></trkpt><trkpt lat="38.743183" lon="16.372942"><ele>960.0</ele><time>2026-04-19T12:01:34.613Z</time></trkpt><trkpt lat="38.7431394" lon="16.3728432"><ele>960.5</ele><time>2026-04-19T12:01:37.575Z</time></trkpt><trkpt lat="38.743105" lon="16.3727597"><ele>961.0</ele><time>2026-04-19T12:01:39.578Z</time></trkpt><trkpt lat="38.743088" lon="16.3726735"><ele>961.5000000000001</ele><time>2026-04-19T12:01:41.579Z</time></trkpt><trkpt lat="38.7430861" lon="16.3725683"><ele>962.0</ele><time>2026-04-19T12:01:43.581Z</time></trkpt><trkpt lat="38.7430912" lon="16.3724503"><ele>962.0</ele><time>2026-04-19T12:01:45.602Z</time></trkpt><trkpt lat="38.7430883" lon="16.3723022"><ele>962.0</ele><time>2026-04-19T12:01:47.587Z</time></trkpt><trkpt lat="38.7430811" lon="16.3721287"><ele>962.0</ele><time>2026-04-19T12:01:49.575Z</time></trkpt><trkpt lat="38.7430633" lon="16.372004"><ele>962.0</ele><time>2026-04-19T12:01:50.572Z</time></trkpt><trkpt lat="38.7430007" lon="16.3718426"><ele>961.25</ele><time>2026-04-19T12:01:51.575Z</time></trkpt><trkpt lat="38.7429067" lon="16.3717155"><ele>960.5</ele><time>2026-04-19T12:01:52.598Z</time></trkpt><trkpt lat="38.7428015" lon="16.3715685"><ele>959.75</ele><time>2026-04-19T12:01:53.579Z</time></trkpt><trkpt lat="38.742686" lon="16.3714373"><ele>959.0</ele><time>2026-04-19T12:01:54.569Z</time></trkpt><trkpt lat="38.7425782" lon="16.3712905"><ele>959.0</ele><time>2026-04-19T12:01:55.581Z</time></trkpt><trkpt lat="38.742494" lon="16.3711389"><ele>959.0</ele><time>2026-04-19T12:01:56.575Z</time></trkpt><trkpt lat="38.7424162" lon="16.371006"><ele>959.0</ele><time>2026-04-19T12:01:57.59Z</time></trkpt><trkpt lat="38.7423346" lon="16.3708611"><ele>959.0</ele><time>2026-04-19T12:01:58.574Z</time></trkpt><trkpt lat="38.742258" lon="16.3707544"><ele>959.0000000000001</ele><time>2026-04-19T12:01:59.574Z</time></trkpt><trkpt lat="38.7421899" lon="16.3706841"><ele>959.0</ele><time>2026-04-19T12:02:00.579Z</time></trkpt><trkpt lat="38.7421291" lon="16.3706325"><ele>959.0</ele><time>2026-04-19T12:02:01.582Z</time></trkpt><trkpt lat="38.7420844" lon="16.3705756"><ele>959.0</ele><time>2026-04-19T12:02:02.576Z</time></trkpt><trkpt lat="38.7420396" lon="16.3705141"><ele>959.0000000000001</ele><time>2026-04-19T12:02:03.601Z</time></trkpt><trkpt lat="38.7419929" lon="16.3703617"><ele>959.0</ele><time>2026-04-19T12:02:05.582Z</time></trkpt><trkpt lat="38.7419523" lon="16.3702881"><ele>958.1666666666667</ele><time>2026-04-19T12:02:06.578Z</time></trkpt><trkpt lat="38.7418805" lon="16.3702532"><ele>957.3333333333334</ele><time>2026-04-19T12:02:07.578Z</time></trkpt><trkpt lat="38.7417961" lon="16.3702622"><ele>956.5</ele><time>2026-04-19T12:02:08.583Z</time></trkpt><trkpt lat="38.7417193" lon="16.3702323"><ele>955.6666666666667</ele><time>2026-04-19T12:02:09.58Z</time></trkpt><trkpt lat="38.7416453" lon="16.3701724"><ele>954.8333333333334</ele><time>2026-04-19T12:02:10.599Z</time></trkpt><trkpt lat="38.7415826" lon="16.3701088"><ele>954.0</ele><time>2026-04-19T12:02:11.571Z</time></trkpt><trkpt lat="38.7415234" lon="16.370032"><ele>954.0</ele><time>2026-04-19T12:02:12.572Z</time></trkpt><trkpt lat="38.7414668" lon="16.3699206"><ele>954.0</ele><time>2026-04-19T12:02:13.579Z</time></trkpt><trkpt lat="38.7414154" lon="16.3697782"><ele>954.0</ele><time>2026-04-19T12:02:14.58Z</time></trkpt><trkpt lat="38.7413594" lon="16.3696228"><ele>954.0</ele><time>2026-04-19T12:02:15.581Z</time></trkpt><trkpt lat="38.7412845" lon="16.3694666"><ele>952.75</ele><time>2026-04-19T12:02:16.574Z</time></trkpt><trkpt lat="38.7412066" lon="16.3693251"><ele>951.5</ele><time>2026-04-19T12:02:17.598Z</time></trkpt><trkpt lat="38.7411445" lon="16.3691974"><ele>950.25</ele><time>2026-04-19T12:02:18.572Z</time></trkpt><trkpt lat="38.7410835" lon="16.3690982"><ele>949.0</ele><time>2026-04-19T12:02:19.575Z</time></trkpt><trkpt lat="38.7410045" lon="16.3690217"><ele>952.0</ele><time>2026-04-19T12:02:20.572Z</time></trkpt><trkpt lat="38.7409166" lon="16.3689458"><ele>955.0000000000001</ele><time>2026-04-19T12:02:21.574Z</time></trkpt><trkpt lat="38.7408338" lon="16.3688453"><ele>958.0000000000001</ele><time>2026-04-19T12:02:22.576Z</time></trkpt><trkpt lat="38.740772" lon="16.3687324"><ele>961.0</ele><time>2026-04-19T12:02:23.579Z</time></trkpt><trkpt lat="38.7407201" lon="16.3686413"><ele>964.0</ele><time>2026-04-19T12:02:24.597Z</time></trkpt><trkpt lat="38.7406832" lon="16.3685623"><ele>963.9999999999999</ele><time>2026-04-19T12:02:25.575Z</time></trkpt><trkpt lat="38.7406358" lon="16.3684837"><ele>964.0</ele><time>2026-04-19T12:02:29.573Z</time></trkpt><trkpt lat="38.7405804" lon="16.3684019"><ele>964.0</ele><time>2026-04-19T12:02:33.594Z</time></trkpt><trkpt lat="38.7405213" lon="16.3683046"><ele>964.0</ele><time>2026-04-19T12:02:35.578Z</time></trkpt><trkpt lat="38.7404799" lon="16.3682333"><ele>963.9999999999999</ele><time>2026-04-19T12:02:36.575Z</time></trkpt><trkpt lat="38.7404273" lon="16.3681612"><ele>964.0</ele><time>2026-04-19T12:02:37.582Z</time></trkpt><trkpt lat="38.7403596" lon="16.368081"><ele>964.0</ele><time>2026-04-19T12:02:38.578Z</time></trkpt><trkpt lat="38.7402865" lon="16.3679767"><ele>964.0</ele><time>2026-04-19T12:02:39.573Z</time></trkpt><trkpt lat="38.740193" lon="16.3678488"><ele>964.0</ele><time>2026-04-19T12:02:40.576Z</time></trkpt><trkpt lat="38.7401157" lon="16.3677058"><ele>964.0</ele><time>2026-04-19T12:02:41.576Z</time></trkpt><trkpt lat="38.7400481" lon="16.3675528"><ele>964.0</ele><time>2026-04-19T12:02:42.577Z</time></trkpt><trkpt lat="38.7399968" lon="16.3674215"><ele>964.0</ele><time>2026-04-19T12:02:43.575Z</time></trkpt><trkpt lat="38.7399368" lon="16.3672915"><ele>964.0</ele><time>2026-04-19T12:02:44.582Z</time></trkpt><trkpt lat="38.739858" lon="16.3671685"><ele>964.0</ele><time>2026-04-19T12:02:45.597Z</time></trkpt><trkpt lat="38.7397668" lon="16.3670603"><ele>963.9999999999999</ele><time>2026-04-19T12:02:46.577Z</time></trkpt><trkpt lat="38.7396689" lon="16.3670047"><ele>964.0</ele><time>2026-04-19T12:02:47.577Z</time></trkpt><trkpt lat="38.7395861" lon="16.3669566"><ele>964.0</ele><time>2026-04-19T12:02:48.572Z</time></trkpt><trkpt lat="38.7395168" lon="16.366925"><ele>964.0</ele><time>2026-04-19T12:02:49.571Z</time></trkpt><trkpt lat="38.7394306" lon="16.3668903"><ele>963.9999999999999</ele><time>2026-04-19T12:02:51.574Z</time></trkpt><trkpt lat="38.7393727" lon="16.366858"><ele>964.0</ele><time>2026-04-19T12:02:53.591Z</time></trkpt><trkpt lat="38.7392827" lon="16.3668135"><ele>963.4999999999999</ele><time>2026-04-19T12:02:56.575Z</time></trkpt><trkpt lat="38.7392165" lon="16.3668006"><ele>963.0</ele><time>2026-04-19T12:02:58.58Z</time></trkpt><trkpt lat="38.7390959" lon="16.3667627"><ele>962.5</ele><time>2026-04-19T12:03:00.576Z</time></trkpt><trkpt lat="38.7390198" lon="16.3667248"><ele>962.0</ele><time>2026-04-19T12:03:01.575Z</time></trkpt><trkpt lat="38.7389428" lon="16.3666871"><ele>961.4999999999999</ele><time>2026-04-19T12:03:02.595Z</time></trkpt><trkpt lat="38.7388562" lon="16.3666393"><ele>961.0</ele><time>2026-04-19T12:03:03.573Z</time></trkpt><trkpt lat="38.738776" lon="16.3665863"><ele>961.0</ele><time>2026-04-19T12:03:04.572Z</time></trkpt><trkpt lat="38.7386944" lon="16.3665234"><ele>960.9999999999999</ele><time>2026-04-19T12:03:05.575Z</time></trkpt><trkpt lat="38.7386005" lon="16.3664668"><ele>960.9999999999999</ele><time>2026-04-19T12:03:06.579Z</time></trkpt><trkpt lat="38.7385068" lon="16.3664212"><ele>961.0</ele><time>2026-04-19T12:03:07.58Z</time></trkpt><trkpt lat="38.7384333" lon="16.3663896"><ele>961.0</ele><time>2026-04-19T12:03:08.575Z</time></trkpt><trkpt lat="38.7383233" lon="16.3663417"><ele>961.8571428571428</ele><time>2026-04-19T12:03:10.584Z</time></trkpt><trkpt lat="38.7382399" lon="16.3662755"><ele>962.7142857142856</ele><time>2026-04-19T12:03:12.579Z</time></trkpt><trkpt lat="38.7381833" lon="16.3662322"><ele>963.5714285714286</ele><time>2026-04-19T12:03:13.582Z</time></trkpt><trkpt lat="38.7381206" lon="16.3661834"><ele>964.4285714285713</ele><time>2026-04-19T12:03:14.574Z</time></trkpt><trkpt lat="38.7380597" lon="16.3661315"><ele>965.2857142857142</ele><time>2026-04-19T12:03:15.597Z</time></trkpt><trkpt lat="38.7380051" lon="16.3660758"><ele>966.1428571428571</ele><time>2026-04-19T12:03:16.582Z</time></trkpt><trkpt lat="38.737957" lon="16.3660162"><ele>967.0</ele><time>2026-04-19T12:03:17.578Z</time></trkpt><trkpt lat="38.7378785" lon="16.3659234"><ele>967.0</ele><time>2026-04-19T12:03:19.585Z</time></trkpt><trkpt lat="38.7378234" lon="16.3658671"><ele>967.0</ele><time>2026-04-19T12:03:21.607Z</time></trkpt><trkpt lat="38.7377415" lon="16.3657624"><ele>967.0</ele><time>2026-04-19T12:03:23.587Z</time></trkpt><trkpt lat="38.7376543" lon="16.3656532"><ele>967.0</ele><time>2026-04-19T12:03:25.583Z</time></trkpt><trkpt lat="38.7375958" lon="16.3655737"><ele>967.0</ele><time>2026-04-19T12:03:26.582Z</time></trkpt><trkpt lat="38.7375158" lon="16.3654729"><ele>968.1666666666666</ele><time>2026-04-19T12:03:27.578Z</time></trkpt><trkpt lat="38.7374412" lon="16.3653834"><ele>969.3333333333333</ele><time>2026-04-19T12:03:28.61Z</time></trkpt><trkpt lat="38.7373778" lon="16.365325"><ele>970.5</ele><time>2026-04-19T12:03:29.585Z</time></trkpt><trkpt lat="38.7373238" lon="16.3652709"><ele>971.6666666666667</ele><time>2026-04-19T12:03:30.582Z</time></trkpt><trkpt lat="38.737262" lon="16.3652153"><ele>972.8333333333334</ele><time>2026-04-19T12:03:33.586Z</time></trkpt><trkpt lat="38.7371947" lon="16.3651477"><ele>974.0</ele><time>2026-04-19T12:03:36.589Z</time></trkpt><trkpt lat="38.737142" lon="16.3650777"><ele>974.0000000000001</ele><time>2026-04-19T12:03:38.597Z</time></trkpt><trkpt lat="38.7371085" lon="16.3649832"><ele>974.0</ele><time>2026-04-19T12:03:40.587Z</time></trkpt><trkpt lat="38.7371027" lon="16.36488"><ele>974.0</ele><time>2026-04-19T12:03:42.585Z</time></trkpt><trkpt lat="38.7370985" lon="16.364763"><ele>974.0</ele><time>2026-04-19T12:03:44.588Z</time></trkpt><trkpt lat="38.7370943" lon="16.3646427"><ele>974.0000000000001</ele><time>2026-04-19T12:03:46.61Z</time></trkpt><trkpt lat="38.7370886" lon="16.36452"><ele>974.0</ele><time>2026-04-19T12:03:48.59Z</time></trkpt><trkpt lat="38.7370779" lon="16.3644233"><ele>974.1666666666667</ele><time>2026-04-19T12:03:50.586Z</time></trkpt><trkpt lat="38.7370536" lon="16.364314"><ele>974.3333333333334</ele><time>2026-04-19T12:03:52.585Z</time></trkpt><trkpt lat="38.7370209" lon="16.3641634"><ele>974.5</ele><time>2026-04-19T12:03:54.585Z</time></trkpt><trkpt lat="38.7370024" lon="16.3640774"><ele>974.6666666666667</ele><time>2026-04-19T12:03:55.582Z</time></trkpt><trkpt lat="38.7369775" lon="16.3639884"><ele>974.8333333333334</ele><time>2026-04-19T12:03:56.582Z</time></trkpt><trkpt lat="38.73695" lon="16.3639097"><ele>975.0</ele><time>2026-04-19T12:03:57.582Z</time></trkpt><trkpt lat="38.7368906" lon="16.363783"><ele>975.8</ele><time>2026-04-19T12:03:59.585Z</time></trkpt><trkpt lat="38.7368149" lon="16.3636732"><ele>976.6</ele><time>2026-04-19T12:04:01.582Z</time></trkpt><trkpt lat="38.7367603" lon="16.3636158"><ele>977.4000000000001</ele><time>2026-04-19T12:04:02.578Z</time></trkpt><trkpt lat="38.7367066" lon="16.3635731"><ele>978.2</ele><time>2026-04-19T12:04:03.607Z</time></trkpt><trkpt lat="38.7366108" lon="16.3634942"><ele>979.0</ele><time>2026-04-19T12:04:05.586Z</time></trkpt><trkpt lat="38.7365197" lon="16.3634127"><ele>978.9999999999999</ele><time>2026-04-19T12:04:07.58Z</time></trkpt><trkpt lat="38.7364364" lon="16.3633381"><ele>979.0</ele><time>2026-04-19T12:04:09.585Z</time></trkpt><trkpt lat="38.7363609" lon="16.3632802"><ele>979.0</ele><time>2026-04-19T12:04:11.609Z</time></trkpt><trkpt lat="38.7362666" lon="16.3632549"><ele>979.0</ele><time>2026-04-19T12:04:13.582Z</time></trkpt><trkpt lat="38.7361827" lon="16.3632345"><ele>978.9999999999999</ele><time>2026-04-19T12:04:15.577Z</time></trkpt><trkpt lat="38.7361099" lon="16.3632063"><ele>979.0</ele><time>2026-04-19T12:04:17.586Z</time></trkpt><trkpt lat="38.7360309" lon="16.3631718"><ele>981.3333333333333</ele><time>2026-04-19T12:04:23.587Z</time></trkpt><trkpt lat="38.7359474" lon="16.3631415"><ele>983.6666666666666</ele><time>2026-04-19T12:04:27.591Z</time></trkpt><trkpt lat="38.7358807" lon="16.3630938"><ele>986.0</ele><time>2026-04-19T12:04:29.588Z</time></trkpt><trkpt lat="38.735838" lon="16.3629923"><ele>988.3333333333333</ele><time>2026-04-19T12:04:31.575Z</time></trkpt><trkpt lat="38.735857" lon="16.3628415"><ele>990.6666666666666</ele><time>2026-04-19T12:04:33.584Z</time></trkpt><trkpt lat="38.7358812" lon="16.3627538"><ele>993.0</ele><time>2026-04-19T12:04:34.578Z</time></trkpt><trkpt lat="38.7359067" lon="16.3626734"><ele>991.8</ele><time>2026-04-19T12:04:35.599Z</time></trkpt><trkpt lat="38.7359553" lon="16.3625446"><ele>990.5999999999999</ele><time>2026-04-19T12:04:37.575Z</time></trkpt><trkpt lat="38.7359869" lon="16.3624307"><ele>989.4000000000001</ele><time>2026-04-19T12:04:39.586Z</time></trkpt><trkpt lat="38.7360022" lon="16.3623296"><ele>988.2</ele><time>2026-04-19T12:04:41.587Z</time></trkpt><trkpt lat="38.7360232" lon="16.362252"><ele>987.0</ele><time>2026-04-19T12:04:43.61Z</time></trkpt><trkpt lat="38.7360559" lon="16.3620603"><ele>987.0</ele><time>2026-04-19T12:04:46.581Z</time></trkpt><trkpt lat="38.7360679" lon="16.3619578"><ele>987.0</ele><time>2026-04-19T12:04:48.588Z</time></trkpt><trkpt lat="38.7360732" lon="16.3618408"><ele>987.0</ele><time>2026-04-19T12:04:50.603Z</time></trkpt><trkpt lat="38.7360531" lon="16.3616901"><ele>987.0</ele><time>2026-04-19T12:04:52.591Z</time></trkpt><trkpt lat="38.7360082" lon="16.3615364"><ele>987.0</ele><time>2026-04-19T12:04:54.578Z</time></trkpt><trkpt lat="38.7359646" lon="16.3614656"><ele>989.8333333333334</ele><time>2026-04-19T12:04:55.582Z</time></trkpt><trkpt lat="38.7359277" lon="16.3613892"><ele>992.6666666666667</ele><time>2026-04-19T12:04:56.581Z</time></trkpt><trkpt lat="38.73587" lon="16.3613097"><ele>995.5</ele><time>2026-04-19T12:04:57.582Z</time></trkpt><trkpt lat="38.7358229" lon="16.3612375"><ele>998.3333333333334</ele><time>2026-04-19T12:04:58.583Z</time></trkpt><trkpt lat="38.735769" lon="16.3611625"><ele>1001.1666666666667</ele><time>2026-04-19T12:04:59.581Z</time></trkpt><trkpt lat="38.7357122" lon="16.3610647"><ele>1004.0</ele><time>2026-04-19T12:05:00.581Z</time></trkpt><trkpt lat="38.7356554" lon="16.361005"><ele>1004.0</ele><time>2026-04-19T12:05:01.581Z</time></trkpt><trkpt lat="38.7355616" lon="16.3609461"><ele>1004.0000000000001</ele><time>2026-04-19T12:05:02.58Z</time></trkpt><trkpt lat="38.7354716" lon="16.3609186"><ele>1004.0000000000001</ele><time>2026-04-19T12:05:03.585Z</time></trkpt><trkpt lat="38.7353895" lon="16.3608894"><ele>1004.0</ele><time>2026-04-19T12:05:05.586Z</time></trkpt><trkpt lat="38.7352849" lon="16.3608229"><ele>1004.0</ele><time>2026-04-19T12:05:08.577Z</time></trkpt><trkpt lat="38.7352019" lon="16.360749"><ele>1005.0000000000001</ele><time>2026-04-19T12:05:09.581Z</time></trkpt><trkpt lat="38.7351269" lon="16.3606685"><ele>1006.0</ele><time>2026-04-19T12:05:10.577Z</time></trkpt><trkpt lat="38.7350838" lon="16.3605966"><ele>1007.0</ele><time>2026-04-19T12:05:11.578Z</time></trkpt><trkpt lat="38.7350398" lon="16.3604992"><ele>1008.0</ele><time>2026-04-19T12:05:12.576Z</time></trkpt><trkpt lat="38.7350194" lon="16.3604139"><ele>1009.0000000000001</ele><time>2026-04-19T12:05:13.578Z</time></trkpt><trkpt lat="38.735007" lon="16.3603281"><ele>1010.0</ele><time>2026-04-19T12:05:14.58Z</time></trkpt><trkpt lat="38.7350183" lon="16.3602255"><ele>1011.1666666666667</ele><time>2026-04-19T12:05:15.583Z</time></trkpt><trkpt lat="38.7350435" lon="16.3601388"><ele>1012.3333333333334</ele><time>2026-04-19T12:05:16.594Z</time></trkpt><trkpt lat="38.7350658" lon="16.3600202"><ele>1013.5</ele><time>2026-04-19T12:05:17.579Z</time></trkpt><trkpt lat="38.735064" lon="16.3599241"><ele>1014.6666666666667</ele><time>2026-04-19T12:05:18.576Z</time></trkpt><trkpt lat="38.7350674" lon="16.3598015"><ele>1015.8333333333334</ele><time>2026-04-19T12:05:19.579Z</time></trkpt><trkpt lat="38.7350612" lon="16.3596678"><ele>1017.0</ele><time>2026-04-19T12:05:20.582Z</time></trkpt><trkpt lat="38.7350542" lon="16.359526"><ele>1017.8</ele><time>2026-04-19T12:05:21.591Z</time></trkpt><trkpt lat="38.7350817" lon="16.3593897"><ele>1018.6</ele><time>2026-04-19T12:05:22.583Z</time></trkpt><trkpt lat="38.7350772" lon="16.359241"><ele>1019.3999999999999</ele><time>2026-04-19T12:05:23.578Z</time></trkpt><trkpt lat="38.7350895" lon="16.3591489"><ele>1020.1999999999999</ele><time>2026-04-19T12:05:24.58Z</time></trkpt><trkpt lat="38.7350884" lon="16.3590612"><ele>1021.0</ele><time>2026-04-19T12:05:25.577Z</time></trkpt><trkpt lat="38.7350612" lon="16.358961"><ele>1021.4999999999999</ele><time>2026-04-19T12:05:26.576Z</time></trkpt><trkpt lat="38.7350396" lon="16.3588653"><ele>1022.0</ele><time>2026-04-19T12:05:27.58Z</time></trkpt><trkpt lat="38.7350119" lon="16.3587542"><ele>1022.5</ele><time>2026-04-19T12:05:28.577Z</time></trkpt><trkpt lat="38.7350009" lon="16.3586055"><ele>1023.0</ele><time>2026-04-19T12:05:30.586Z</time></trkpt><trkpt lat="38.7350179" lon="16.3585083"><ele>1023.4999999999999</ele><time>2026-04-19T12:05:31.579Z</time></trkpt><trkpt lat="38.7350595" lon="16.358418"><ele>1024.0</ele><time>2026-04-19T12:05:32.576Z</time></trkpt><trkpt lat="38.7350925" lon="16.3583335"><ele>1023.9999999999999</ele><time>2026-04-19T12:05:33.593Z</time></trkpt><trkpt lat="38.7350848" lon="16.3582119"><ele>1024.0</ele><time>2026-04-19T12:05:35.581Z</time></trkpt><trkpt lat="38.7350444" lon="16.3580929"><ele>1024.0</ele><time>2026-04-19T12:05:37.582Z</time></trkpt><trkpt lat="38.735011" lon="16.3580226"><ele>1024.0</ele><time>2026-04-19T12:05:38.596Z</time></trkpt><trkpt lat="38.7349791" lon="16.3579519"><ele>1023.9999999999999</ele><time>2026-04-19T12:05:39.584Z</time></trkpt><trkpt lat="38.7349471" lon="16.3578756"><ele>1024.0</ele><time>2026-04-19T12:05:40.584Z</time></trkpt><trkpt lat="38.7349054" lon="16.3578006"><ele>1024.6000000000001</ele><time>2026-04-19T12:05:41.575Z</time></trkpt><trkpt lat="38.7348534" lon="16.3577239"><ele>1025.2</ele><time>2026-04-19T12:05:42.576Z</time></trkpt><trkpt lat="38.7347962" lon="16.3576481"><ele>1025.8000000000002</ele><time>2026-04-19T12:05:43.577Z</time></trkpt><trkpt lat="38.7347322" lon="16.3575496"><ele>1026.4</ele><time>2026-04-19T12:05:44.575Z</time></trkpt><trkpt lat="38.7346707" lon="16.3574511"><ele>1027.0</ele><time>2026-04-19T12:05:45.586Z</time></trkpt><trkpt lat="38.7345938" lon="16.3573462"><ele>1027.0</ele><time>2026-04-19T12:05:46.576Z</time></trkpt><trkpt lat="38.7345201" lon="16.3572615"><ele>1027.0</ele><time>2026-04-19T12:05:47.578Z</time></trkpt><trkpt lat="38.7344616" lon="16.3571923"><ele>1027.0</ele><time>2026-04-19T12:05:48.576Z</time></trkpt><trkpt lat="38.734415" lon="16.3571231"><ele>1027.0</ele><time>2026-04-19T12:05:49.577Z</time></trkpt><trkpt lat="38.7343652" lon="16.3570514"><ele>1027.0</ele><time>2026-04-19T12:05:50.577Z</time></trkpt><trkpt lat="38.7343075" lon="16.3569682"><ele>1027.0</ele><time>2026-04-19T12:05:51.578Z</time></trkpt><trkpt lat="38.7342579" lon="16.3568947"><ele>1024.5</ele><time>2026-04-19T12:05:52.577Z</time></trkpt><trkpt lat="38.7341956" lon="16.3567777"><ele>1022.0</ele><time>2026-04-19T12:05:54.584Z</time></trkpt><trkpt lat="38.7341679" lon="16.3566969"><ele>1019.5</ele><time>2026-04-19T12:05:55.591Z</time></trkpt><trkpt lat="38.7341446" lon="16.3566141"><ele>1017.0</ele><time>2026-04-19T12:05:56.575Z</time></trkpt><trkpt lat="38.7341262" lon="16.356534"><ele>1014.4999999999999</ele><time>2026-04-19T12:05:57.579Z</time></trkpt><trkpt lat="38.7341317" lon="16.3564058"><ele>1012.0</ele><time>2026-04-19T12:05:59.582Z</time></trkpt><trkpt lat="38.7341555" lon="16.3563083"><ele>1010.4000000000001</ele><time>2026-04-19T12:06:01.59Z</time></trkpt><trkpt lat="38.7342044" lon="16.356179"><ele>1008.8000000000001</ele><time>2026-04-19T12:06:03.58Z</time></trkpt><trkpt lat="38.7342527" lon="16.3561069"><ele>1007.2</ele><time>2026-04-19T12:06:04.582Z</time></trkpt><trkpt lat="38.7342999" lon="16.3560498"><ele>1005.6</ele><time>2026-04-19T12:06:05.577Z</time></trkpt><trkpt lat="38.734398" lon="16.3559036"><ele>1004.0</ele><time>2026-04-19T12:06:07.579Z</time></trkpt><trkpt lat="38.7344439" lon="16.3558047"><ele>1006.2</ele><time>2026-04-19T12:06:08.577Z</time></trkpt><trkpt lat="38.7344613" lon="16.3557043"><ele>1008.4000000000001</ele><time>2026-04-19T12:06:09.58Z</time></trkpt><trkpt lat="38.7344652" lon="16.3556206"><ele>1010.6</ele><time>2026-04-19T12:06:10.578Z</time></trkpt><trkpt lat="38.7344726" lon="16.3554829"><ele>1012.8</ele><time>2026-04-19T12:06:12.575Z</time></trkpt><trkpt lat="38.7344916" lon="16.3553442"><ele>1015.0</ele><time>2026-04-19T12:06:14.58Z</time></trkpt><trkpt lat="38.734516" lon="16.3552229"><ele>1015.0</ele><time>2026-04-19T12:06:16.582Z</time></trkpt><trkpt lat="38.7345435" lon="16.3551036"><ele>1015.0</ele><time>2026-04-19T12:06:18.601Z</time></trkpt><trkpt lat="38.7345773" lon="16.3549987"><ele>1015.0</ele><time>2026-04-19T12:06:20.588Z</time></trkpt><trkpt lat="38.7346426" lon="16.3549533"><ele>1015.0</ele><time>2026-04-19T12:06:22.581Z</time></trkpt><trkpt lat="38.7347815" lon="16.3549301"><ele>1015.0</ele><time>2026-04-19T12:06:24.579Z</time></trkpt><trkpt lat="38.7348747" lon="16.3549076"><ele>1015.0</ele><time>2026-04-19T12:06:25.577Z</time></trkpt><trkpt lat="38.7349776" lon="16.3548965"><ele>1015.0</ele><time>2026-04-19T12:06:26.581Z</time></trkpt><trkpt lat="38.7351071" lon="16.3548905"><ele>1015.0</ele><time>2026-04-19T12:06:27.582Z</time></trkpt><trkpt lat="38.7352024" lon="16.3549229"><ele>1015.0</ele><time>2026-04-19T12:06:28.576Z</time></trkpt><trkpt lat="38.7353042" lon="16.3549692"><ele>1015.0</ele><time>2026-04-19T12:06:29.577Z</time></trkpt><trkpt lat="38.735389" lon="16.3550462"><ele>1012.9999999999999</ele><time>2026-04-19T12:06:30.578Z</time></trkpt><trkpt lat="38.7354647" lon="16.3551115"><ele>1011.0</ele><time>2026-04-19T12:06:31.575Z</time></trkpt><trkpt lat="38.7355364" lon="16.3551716"><ele>1009.0</ele><time>2026-04-19T12:06:32.604Z</time></trkpt><trkpt lat="38.7356005" lon="16.3552201"><ele>1007.0</ele><time>2026-04-19T12:06:33.581Z</time></trkpt><trkpt lat="38.7356756" lon="16.355248"><ele>1004.9999999999999</ele><time>2026-04-19T12:06:34.58Z</time></trkpt><trkpt lat="38.735764" lon="16.3552632"><ele>1003.0</ele><time>2026-04-19T12:06:35.58Z</time></trkpt><trkpt lat="38.7358328" lon="16.3552653"><ele>1003.0</ele><time>2026-04-19T12:06:36.579Z</time></trkpt><trkpt lat="38.7359523" lon="16.355326"><ele>1003.0</ele><time>2026-04-19T12:06:38.576Z</time></trkpt><trkpt lat="38.7360648" lon="16.3553752"><ele>1003.0</ele><time>2026-04-19T12:06:40.588Z</time></trkpt><trkpt lat="38.736147" lon="16.3554765"><ele>1003.0</ele><time>2026-04-19T12:06:42.597Z</time></trkpt><trkpt lat="38.7361657" lon="16.3555671"><ele>1003.0</ele><time>2026-04-19T12:06:43.579Z</time></trkpt><trkpt lat="38.7361901" lon="16.3556513"><ele>1000.7142857142857</ele><time>2026-04-19T12:06:44.585Z</time></trkpt><trkpt lat="38.7362167" lon="16.3557252"><ele>998.4285714285713</ele><time>2026-04-19T12:06:45.581Z</time></trkpt><trkpt lat="38.7362518" lon="16.3558201"><ele>996.1428571428571</ele><time>2026-04-19T12:06:47.598Z</time></trkpt><trkpt lat="38.7362768" lon="16.355898"><ele>993.8571428571429</ele><time>2026-04-19T12:06:49.581Z</time></trkpt><trkpt lat="38.7363444" lon="16.3559328"><ele>991.5714285714286</ele><time>2026-04-19T12:06:52.576Z</time></trkpt><trkpt lat="38.7364134" lon="16.355888"><ele>989.2857142857142</ele><time>2026-04-19T12:06:55.581Z</time></trkpt><trkpt lat="38.7364476" lon="16.355798"><ele>987.0</ele><time>2026-04-19T12:06:58.578Z</time></trkpt><trkpt lat="38.7364667" lon="16.3556841"><ele>987.0</ele><time>2026-04-19T12:07:01.579Z</time></trkpt><trkpt lat="38.7364575" lon="16.3555489"><ele>987.0</ele><time>2026-04-19T12:07:07.575Z</time></trkpt><trkpt lat="38.73647" lon="16.3554401"><ele>987.0</ele><time>2026-04-19T12:07:11.576Z</time></trkpt><trkpt lat="38.7365008" lon="16.3553212"><ele>987.0</ele><time>2026-04-19T12:07:13.58Z</time></trkpt><trkpt lat="38.7365756" lon="16.3553695"><ele>987.0</ele><time>2026-04-19T12:07:16.582Z</time></trkpt><trkpt lat="38.7366287" lon="16.3554833"><ele>987.0</ele><time>2026-04-19T12:07:18.581Z</time></trkpt><trkpt lat="38.7366888" lon="16.3555474"><ele>987.0</ele><time>2026-04-19T12:07:21.579Z</time></trkpt><trkpt lat="38.7367583" lon="16.3554782"><ele>987.0</ele><time>2026-04-19T12:07:25.575Z</time></trkpt><trkpt lat="38.7368204" lon="16.355398"><ele>987.0</ele><time>2026-04-19T12:07:27.589Z</time></trkpt><trkpt lat="38.7368994" lon="16.3553025"><ele>987.0</ele><time>2026-04-19T12:07:32.572Z</time></trkpt><trkpt lat="38.7369719" lon="16.3551626"><ele>981.8</ele><time>2026-04-19T12:07:33.58Z</time></trkpt><trkpt lat="38.7370147" lon="16.3550605"><ele>976.6</ele><time>2026-04-19T12:07:35.576Z</time></trkpt><trkpt lat="38.7370402" lon="16.3549307"><ele>971.3999999999999</ele><time>2026-04-19T12:07:37.579Z</time></trkpt><trkpt lat="38.7371347" lon="16.3548281"><ele>966.1999999999999</ele><time>2026-04-19T12:07:39.582Z</time></trkpt><trkpt lat="38.7372473" lon="16.3548729"><ele>961.0</ele><time>2026-04-19T12:07:41.579Z</time></trkpt><trkpt lat="38.7373141" lon="16.3549074"><ele>960.9999999999999</ele><time>2026-04-19T12:07:42.574Z</time></trkpt><trkpt lat="38.7373782" lon="16.3549532"><ele>961.0</ele><time>2026-04-19T12:07:43.578Z</time></trkpt><trkpt lat="38.7374653" lon="16.3549817"><ele>961.0</ele><time>2026-04-19T12:07:44.578Z</time></trkpt><trkpt lat="38.7375409" lon="16.3550126"><ele>961.0</ele><time>2026-04-19T12:07:45.593Z</time></trkpt><trkpt lat="38.737601" lon="16.3550946"><ele>960.9999999999999</ele><time>2026-04-19T12:07:46.577Z</time></trkpt><trkpt lat="38.7376288" lon="16.3551695"><ele>961.0</ele><time>2026-04-19T12:07:47.584Z</time></trkpt><trkpt lat="38.7376768" lon="16.3553269"><ele>960.9999999999999</ele><time>2026-04-19T12:07:49.575Z</time></trkpt><trkpt lat="38.7376876" lon="16.355407"><ele>961.0</ele><time>2026-04-19T12:07:50.573Z</time></trkpt><trkpt lat="38.7377099" lon="16.355509"><ele>961.0</ele><time>2026-04-19T12:07:52.578Z</time></trkpt><trkpt lat="38.7377228" lon="16.3556192"><ele>961.0</ele><time>2026-04-19T12:07:54.591Z</time></trkpt><trkpt lat="38.7377242" lon="16.3557172"><ele>960.9999999999999</ele><time>2026-04-19T12:07:56.579Z</time></trkpt><trkpt lat="38.737797" lon="16.3557388"><ele>961.0</ele><time>2026-04-19T12:07:59.589Z</time></trkpt><trkpt lat="38.7378795" lon="16.355683"><ele>957.4</ele><time>2026-04-19T12:08:01.666Z</time></trkpt><trkpt lat="38.7380039" lon="16.3556816"><ele>953.8</ele><time>2026-04-19T12:08:02.573Z</time></trkpt><trkpt lat="38.7380852" lon="16.3556599"><ele>950.1999999999999</ele><time>2026-04-19T12:08:04.594Z</time></trkpt><trkpt lat="38.7381784" lon="16.3556326"><ele>946.5999999999999</ele><time>2026-04-19T12:08:06.577Z</time></trkpt><trkpt lat="38.7382781" lon="16.3556437"><ele>943.0</ele><time>2026-04-19T12:08:08.582Z</time></trkpt><trkpt lat="38.7383815" lon="16.3556856"><ele>942.9999999999999</ele><time>2026-04-19T12:08:10.576Z</time></trkpt><trkpt lat="38.7384408" lon="16.3557238"><ele>943.0</ele><time>2026-04-19T12:08:11.577Z</time></trkpt><trkpt lat="38.7385024" lon="16.3557565"><ele>943.0</ele><time>2026-04-19T12:08:12.572Z</time></trkpt><trkpt lat="38.7386005" lon="16.3558112"><ele>943.0</ele><time>2026-04-19T12:08:14.576Z</time></trkpt><trkpt lat="38.7386813" lon="16.3558603"><ele>942.9999999999999</ele><time>2026-04-19T12:08:16.583Z</time></trkpt><trkpt lat="38.7387836" lon="16.355928"><ele>943.0</ele><time>2026-04-19T12:08:18.576Z</time></trkpt><trkpt lat="38.7388725" lon="16.3559942"><ele>939.0</ele><time>2026-04-19T12:08:20.585Z</time></trkpt><trkpt lat="38.7389511" lon="16.3560917"><ele>935.0</ele><time>2026-04-19T12:08:22.582Z</time></trkpt><trkpt lat="38.7390172" lon="16.3561793"><ele>931.0</ele><time>2026-04-19T12:08:24.577Z</time></trkpt><trkpt lat="38.7390708" lon="16.3563248"><ele>927.0</ele><time>2026-04-19T12:08:26.58Z</time></trkpt><trkpt lat="38.7391307" lon="16.3564224"><ele>923.0</ele><time>2026-04-19T12:08:28.586Z</time></trkpt><trkpt lat="38.739201" lon="16.3563872"><ele>923.0000000000001</ele><time>2026-04-19T12:08:30.575Z</time></trkpt><trkpt lat="38.7392837" lon="16.3562867"><ele>923.0</ele><time>2026-04-19T12:08:33.578Z</time></trkpt><trkpt lat="38.7393354" lon="16.3562015"><ele>923.0</ele><time>2026-04-19T12:08:35.578Z</time></trkpt><trkpt lat="38.7393505" lon="16.3560875"><ele>923.0</ele><time>2026-04-19T12:08:37.588Z</time></trkpt><trkpt lat="38.7393347" lon="16.356003"><ele>923.0000000000001</ele><time>2026-04-19T12:08:39.579Z</time></trkpt><trkpt lat="38.7393022" lon="16.3559143"><ele>923.0</ele><time>2026-04-19T12:08:42.593Z</time></trkpt><trkpt lat="38.7392689" lon="16.3557963"><ele>923.0</ele><time>2026-04-19T12:08:45.581Z</time></trkpt><trkpt lat="38.7392422" lon="16.3556386"><ele>923.0</ele><time>2026-04-19T12:08:47.596Z</time></trkpt><trkpt lat="38.7392401" lon="16.3555495"><ele>923.0</ele><time>2026-04-19T12:08:48.573Z</time></trkpt><trkpt lat="38.7392486" lon="16.3554186"><ele>923.0</ele><time>2026-04-19T12:08:50.577Z</time></trkpt><trkpt lat="38.7392371" lon="16.35533"><ele>923.0</ele><time>2026-04-19T12:08:52.573Z</time></trkpt><trkpt lat="38.7391538" lon="16.3552545"><ele>919.25</ele><time>2026-04-19T12:08:54.578Z</time></trkpt><trkpt lat="38.7390608" lon="16.3552129"><ele>915.5</ele><time>2026-04-19T12:08:56.578Z</time></trkpt><trkpt lat="38.7389947" lon="16.3550575"><ele>911.75</ele><time>2026-04-19T12:08:58.575Z</time></trkpt><trkpt lat="38.7389728" lon="16.3549051"><ele>908.0</ele><time>2026-04-19T12:08:59.572Z</time></trkpt><trkpt lat="38.7389707" lon="16.3547715"><ele>905.5000000000001</ele><time>2026-04-19T12:09:00.585Z</time></trkpt><trkpt lat="38.738942" lon="16.3546686"><ele>903.0</ele><time>2026-04-19T12:09:01.577Z</time></trkpt><trkpt lat="38.738905" lon="16.354588"><ele>900.5</ele><time>2026-04-19T12:09:02.576Z</time></trkpt><trkpt lat="38.7388651" lon="16.3545032"><ele>898.0</ele><time>2026-04-19T12:09:03.572Z</time></trkpt><trkpt lat="38.7388151" lon="16.3544518"><ele>895.5000000000001</ele><time>2026-04-19T12:09:04.577Z</time></trkpt><trkpt lat="38.7387527" lon="16.3544101"><ele>893.0</ele><time>2026-04-19T12:09:05.592Z</time></trkpt><trkpt lat="38.738649" lon="16.3543597"><ele>893.0000000000001</ele><time>2026-04-19T12:09:07.583Z</time></trkpt><trkpt lat="38.7385787" lon="16.3543228"><ele>893.0</ele><time>2026-04-19T12:09:10.583Z</time></trkpt><trkpt lat="38.738507" lon="16.3543173"><ele>893.0</ele><time>2026-04-19T12:10:00.579Z</time></trkpt><trkpt lat="38.738405" lon="16.3542879"><ele>893.0</ele><time>2026-04-19T12:10:13.576Z</time></trkpt><trkpt lat="38.738388" lon="16.3541925"><ele>893.0000000000001</ele><time>2026-04-19T12:10:17.582Z</time></trkpt><trkpt lat="38.7384156" lon="16.3541133"><ele>893.0</ele><time>2026-04-19T12:10:19.575Z</time></trkpt><trkpt lat="38.7384695" lon="16.3540535"><ele>893.0</ele><time>2026-04-19T12:10:22.576Z</time></trkpt><trkpt lat="38.738507" lon="16.353975"><ele>893.0</ele><time>2026-04-19T12:10:24.571Z</time></trkpt><trkpt lat="38.7385743" lon="16.3538902"><ele>893.0</ele><time>2026-04-19T12:10:26.578Z</time></trkpt><trkpt lat="38.7386559" lon="16.3537819"><ele>893.0</ele><time>2026-04-19T12:10:28.578Z</time></trkpt><trkpt lat="38.7387256" lon="16.3536925"><ele>893.0</ele><time>2026-04-19T12:10:30.586Z</time></trkpt><trkpt lat="38.7387622" lon="16.3535875"><ele>892.3333333333334</ele><time>2026-04-19T12:10:32.581Z</time></trkpt><trkpt lat="38.738768" lon="16.3534759"><ele>891.6666666666667</ele><time>2026-04-19T12:10:34.578Z</time></trkpt><trkpt lat="38.7387621" lon="16.3533786"><ele>891.0</ele><time>2026-04-19T12:10:36.579Z</time></trkpt><trkpt lat="38.738739" lon="16.3532463"><ele>890.3333333333333</ele><time>2026-04-19T12:10:39.59Z</time></trkpt><trkpt lat="38.7387687" lon="16.3531582"><ele>889.6666666666666</ele><time>2026-04-19T12:10:42.58Z</time></trkpt><trkpt lat="38.7388351" lon="16.3530949"><ele>889.0</ele><time>2026-04-19T12:10:45.579Z</time></trkpt><trkpt lat="38.7389417" lon="16.3530949"><ele>888.9999999999999</ele><time>2026-04-19T12:10:47.571Z</time></trkpt><trkpt lat="38.7390052" lon="16.3531245"><ele>889.0</ele><time>2026-04-19T12:10:48.582Z</time></trkpt><trkpt lat="38.7390717" lon="16.353139"><ele>889.0</ele><time>2026-04-19T12:10:49.577Z</time></trkpt><trkpt lat="38.7391518" lon="16.3531622"><ele>889.0</ele><time>2026-04-19T12:10:51.579Z</time></trkpt><trkpt lat="38.7392441" lon="16.3532071"><ele>888.9999999999999</ele><time>2026-04-19T12:10:53.578Z</time></trkpt><trkpt lat="38.7393319" lon="16.3532279"><ele>889.0</ele><time>2026-04-19T12:10:55.571Z</time></trkpt><trkpt lat="38.7394031" lon="16.3532455"><ele>885.4999999999999</ele><time>2026-04-19T12:10:56.578Z</time></trkpt><trkpt lat="38.7394673" lon="16.3532667"><ele>882.0</ele><time>2026-04-19T12:10:57.581Z</time></trkpt><trkpt lat="38.7395539" lon="16.3533101"><ele>878.5</ele><time>2026-04-19T12:10:59.581Z</time></trkpt><trkpt lat="38.7396274" lon="16.3533556"><ele>875.0</ele><time>2026-04-19T12:11:01.574Z</time></trkpt><trkpt lat="38.7397042" lon="16.3533849"><ele>871.4999999999999</ele><time>2026-04-19T12:11:04.575Z</time></trkpt><trkpt lat="38.7397779" lon="16.3533194"><ele>868.0</ele><time>2026-04-19T12:11:07.587Z</time></trkpt><trkpt lat="38.7398115" lon="16.3531874"><ele>867.9999999999999</ele><time>2026-04-19T12:11:09.579Z</time></trkpt><trkpt lat="38.7398269" lon="16.35309"><ele>868.0</ele><time>2026-04-19T12:11:10.577Z</time></trkpt><trkpt lat="38.7398377" lon="16.3529879"><ele>868.0</ele><time>2026-04-19T12:11:11.577Z</time></trkpt><trkpt lat="38.7398491" lon="16.3528981"><ele>868.0</ele><time>2026-04-19T12:11:12.591Z</time></trkpt><trkpt lat="38.7398684" lon="16.3528107"><ele>867.9999999999999</ele><time>2026-04-19T12:11:13.578Z</time></trkpt><trkpt lat="38.7399255" lon="16.352647"><ele>868.0</ele><time>2026-04-19T12:11:15.576Z</time></trkpt><trkpt lat="38.7399742" lon="16.3525856"><ele>872.5999999999999</ele><time>2026-04-19T12:11:16.573Z</time></trkpt><trkpt lat="38.7400199" lon="16.3525242"><ele>877.1999999999999</ele><time>2026-04-19T12:11:17.6Z</time></trkpt><trkpt lat="38.7400768" lon="16.3523986"><ele>881.8</ele><time>2026-04-19T12:11:19.572Z</time></trkpt><trkpt lat="38.7400932" lon="16.352259"><ele>886.4</ele><time>2026-04-19T12:11:21.575Z</time></trkpt><trkpt lat="38.7401076" lon="16.3521216"><ele>891.0</ele><time>2026-04-19T12:11:23.578Z</time></trkpt><trkpt lat="38.7401471" lon="16.3520072"><ele>888.6666666666666</ele><time>2026-04-19T12:11:25.575Z</time></trkpt><trkpt lat="38.7402133" lon="16.3519341"><ele>886.3333333333333</ele><time>2026-04-19T12:11:26.572Z</time></trkpt><trkpt lat="38.7403051" lon="16.3519029"><ele>884.0</ele><time>2026-04-19T12:11:27.57Z</time></trkpt><trkpt lat="38.7403893" lon="16.3518648"><ele>881.6666666666666</ele><time>2026-04-19T12:11:28.571Z</time></trkpt><trkpt lat="38.7404551" lon="16.351815"><ele>879.3333333333333</ele><time>2026-04-19T12:11:29.593Z</time></trkpt><trkpt lat="38.7405225" lon="16.3517502"><ele>877.0</ele><time>2026-04-19T12:11:30.571Z</time></trkpt><trkpt lat="38.740605" lon="16.3516872"><ele>877.0</ele><time>2026-04-19T12:11:31.574Z</time></trkpt><trkpt lat="38.740663" lon="16.3516259"><ele>877.0</ele><time>2026-04-19T12:11:32.573Z</time></trkpt><trkpt lat="38.7407148" lon="16.3515604"><ele>877.0</ele><time>2026-04-19T12:11:33.573Z</time></trkpt><trkpt lat="38.7407826" lon="16.3514733"><ele>877.0</ele><time>2026-04-19T12:11:34.572Z</time></trkpt><trkpt lat="38.7408594" lon="16.3513742"><ele>877.0</ele><time>2026-04-19T12:11:35.572Z</time></trkpt><trkpt lat="38.7409633" lon="16.3511387"><ele>874.9999999999999</ele><time>2026-04-19T12:11:37.573Z</time></trkpt><trkpt lat="38.7410004" lon="16.3510117"><ele>873.0</ele><time>2026-04-19T12:11:38.572Z</time></trkpt><trkpt lat="38.7410378" lon="16.3508876"><ele>871.0</ele><time>2026-04-19T12:11:39.579Z</time></trkpt><trkpt lat="38.7410848" lon="16.3508214"><ele>869.0</ele><time>2026-04-19T12:11:40.571Z</time></trkpt><trkpt lat="38.741108" lon="16.3507243"><ele>866.9999999999999</ele><time>2026-04-19T12:11:41.589Z</time></trkpt><trkpt lat="38.7411349" lon="16.3506192"><ele>865.0</ele><time>2026-04-19T12:11:42.564Z</time></trkpt><trkpt lat="38.7411624" lon="16.3505165"><ele>865.0</ele><time>2026-04-19T12:11:43.569Z</time></trkpt><trkpt lat="38.7411785" lon="16.3503991"><ele>865.0</ele><time>2026-04-19T12:11:44.569Z</time></trkpt><trkpt lat="38.7411924" lon="16.3502638"><ele>865.0</ele><time>2026-04-19T12:11:45.575Z</time></trkpt><trkpt lat="38.7412294" lon="16.3501321"><ele>865.0</ele><time>2026-04-19T12:11:46.564Z</time></trkpt><trkpt lat="38.7412784" lon="16.3500263"><ele>865.0</ele><time>2026-04-19T12:11:47.575Z</time></trkpt><trkpt lat="38.741332" lon="16.3499365"><ele>865.0</ele><time>2026-04-19T12:11:48.566Z</time></trkpt><trkpt lat="38.7414659" lon="16.3498439"><ele>865.0</ele><time>2026-04-19T12:11:50.567Z</time></trkpt><trkpt lat="38.741549" lon="16.349858"><ele>865.0</ele><time>2026-04-19T12:11:51.569Z</time></trkpt><trkpt lat="38.7416287" lon="16.3498917"><ele>865.0</ele><time>2026-04-19T12:11:52.579Z</time></trkpt><trkpt lat="38.7417059" lon="16.3499164"><ele>865.0</ele><time>2026-04-19T12:11:53.568Z</time></trkpt><trkpt lat="38.7417747" lon="16.3499166"><ele>861.6</ele><time>2026-04-19T12:11:54.583Z</time></trkpt><trkpt lat="38.7418871" lon="16.349879"><ele>858.2</ele><time>2026-04-19T12:11:56.567Z</time></trkpt><trkpt lat="38.7419689" lon="16.3497952"><ele>854.8</ele><time>2026-04-19T12:11:58.573Z</time></trkpt><trkpt lat="38.7420146" lon="16.3496773"><ele>851.4</ele><time>2026-04-19T12:12:00.57Z</time></trkpt><trkpt lat="38.742082" lon="16.3495443"><ele>848.0</ele><time>2026-04-19T12:12:02.565Z</time></trkpt><trkpt lat="38.7422034" lon="16.3495116"><ele>848.0</ele><time>2026-04-19T12:12:04.567Z</time></trkpt><trkpt lat="38.7423347" lon="16.3495142"><ele>848.0</ele><time>2026-04-19T12:12:06.568Z</time></trkpt><trkpt lat="38.7424386" lon="16.3495607"><ele>848.0</ele><time>2026-04-19T12:12:08.566Z</time></trkpt><trkpt lat="38.7425123" lon="16.3495896"><ele>848.0</ele><time>2026-04-19T12:12:10.583Z</time></trkpt><trkpt lat="38.7425919" lon="16.349615"><ele>848.0</ele><time>2026-04-19T12:12:12.568Z</time></trkpt><trkpt lat="38.7426797" lon="16.3495803"><ele>846.1666666666667</ele><time>2026-04-19T12:12:15.574Z</time></trkpt><trkpt lat="38.7427604" lon="16.349515"><ele>844.3333333333334</ele><time>2026-04-19T12:12:17.573Z</time></trkpt><trkpt lat="38.742836" lon="16.3495091"><ele>842.5</ele><time>2026-04-19T12:12:18.573Z</time></trkpt><trkpt lat="38.742946" lon="16.3494677"><ele>840.6666666666667</ele><time>2026-04-19T12:12:20.576Z</time></trkpt><trkpt lat="38.7429969" lon="16.3493978"><ele>838.8333333333334</ele><time>2026-04-19T12:12:22.59Z</time></trkpt><trkpt lat="38.7430583" lon="16.3493358"><ele>837.0</ele><time>2026-04-19T12:12:24.57Z</time></trkpt><trkpt lat="38.7431055" lon="16.3492678"><ele>837.0</ele><time>2026-04-19T12:12:28.579Z</time></trkpt><trkpt lat="38.7431399" lon="16.3491879"><ele>837.0</ele><time>2026-04-19T12:12:30.575Z</time></trkpt><trkpt lat="38.7432484" lon="16.3490853"><ele>837.0</ele><time>2026-04-19T12:12:32.571Z</time></trkpt><trkpt lat="38.7433413" lon="16.349016"><ele>837.0</ele><time>2026-04-19T12:12:33.576Z</time></trkpt><trkpt lat="38.7434166" lon="16.348947"><ele>837.0</ele><time>2026-04-19T12:12:34.569Z</time></trkpt><trkpt lat="38.7435233" lon="16.3488682"><ele>836.0</ele><time>2026-04-19T12:12:35.574Z</time></trkpt><trkpt lat="38.743603" lon="16.3488254"><ele>835.0</ele><time>2026-04-19T12:12:36.569Z</time></trkpt><trkpt lat="38.7436728" lon="16.3487826"><ele>834.0</ele><time>2026-04-19T12:12:37.574Z</time></trkpt><trkpt lat="38.7437608" lon="16.3487282"><ele>833.0</ele><time>2026-04-19T12:12:38.571Z</time></trkpt><trkpt lat="38.7438269" lon="16.3486062"><ele>832.0</ele><time>2026-04-19T12:12:39.567Z</time></trkpt><trkpt lat="38.743869" lon="16.3484879"><ele>832.0</ele><time>2026-04-19T12:12:40.59Z</time></trkpt><trkpt lat="38.7439233" lon="16.3483549"><ele>832.0</ele><time>2026-04-19T12:12:41.566Z</time></trkpt><trkpt lat="38.7440003" lon="16.3482413"><ele>832.0</ele><time>2026-04-19T12:12:42.572Z</time></trkpt><trkpt lat="38.7440894" lon="16.3481559"><ele>832.0</ele><time>2026-04-19T12:12:43.564Z</time></trkpt><trkpt lat="38.7441822" lon="16.3480761"><ele>831.8</ele><time>2026-04-19T12:12:44.572Z</time></trkpt><trkpt lat="38.744274" lon="16.347985"><ele>831.6</ele><time>2026-04-19T12:12:45.566Z</time></trkpt><trkpt lat="38.7443517" lon="16.3479038"><ele>831.4</ele><time>2026-04-19T12:12:46.569Z</time></trkpt><trkpt lat="38.7444195" lon="16.3478224"><ele>831.1999999999999</ele><time>2026-04-19T12:12:47.569Z</time></trkpt><trkpt lat="38.744492" lon="16.3477474"><ele>831.0</ele><time>2026-04-19T12:12:48.575Z</time></trkpt><trkpt lat="38.7445582" lon="16.3476658"><ele>831.0</ele><time>2026-04-19T12:12:49.587Z</time></trkpt><trkpt lat="38.7446248" lon="16.3475877"><ele>831.0</ele><time>2026-04-19T12:12:50.572Z</time></trkpt><trkpt lat="38.744689" lon="16.3475084"><ele>831.0</ele><time>2026-04-19T12:12:51.571Z</time></trkpt><trkpt lat="38.744724" lon="16.3474197"><ele>831.0</ele><time>2026-04-19T12:12:52.572Z</time></trkpt><trkpt lat="38.7447831" lon="16.3473361"><ele>831.0</ele><time>2026-04-19T12:12:53.562Z</time></trkpt><trkpt lat="38.7448255" lon="16.347267"><ele>831.0</ele><time>2026-04-19T12:12:54.568Z</time></trkpt><trkpt lat="38.7448944" lon="16.3471625"><ele>829.4</ele><time>2026-04-19T12:12:56.585Z</time></trkpt><trkpt lat="38.7449841" lon="16.3470541"><ele>827.8</ele><time>2026-04-19T12:12:58.566Z</time></trkpt><trkpt lat="38.7450458" lon="16.3470072"><ele>826.1999999999999</ele><time>2026-04-19T12:12:59.567Z</time></trkpt><trkpt lat="38.7451582" lon="16.3469933"><ele>824.5999999999999</ele><time>2026-04-19T12:13:01.569Z</time></trkpt><trkpt lat="38.7452404" lon="16.3469033"><ele>823.0</ele><time>2026-04-19T12:13:03.58Z</time></trkpt><trkpt lat="38.7453148" lon="16.3467688"><ele>823.0</ele><time>2026-04-19T12:13:05.567Z</time></trkpt><trkpt lat="38.7453729" lon="16.3466643"><ele>823.0</ele><time>2026-04-19T12:13:07.562Z</time></trkpt><trkpt lat="38.7454396" lon="16.3465463"><ele>823.0</ele><time>2026-04-19T12:13:09.58Z</time></trkpt><trkpt lat="38.7454994" lon="16.346422"><ele>823.0</ele><time>2026-04-19T12:13:11.571Z</time></trkpt><trkpt lat="38.745548" lon="16.3463051"><ele>823.0</ele><time>2026-04-19T12:13:13.57Z</time></trkpt><trkpt lat="38.7455813" lon="16.3461966"><ele>821.9999999999999</ele><time>2026-04-19T12:13:15.572Z</time></trkpt><trkpt lat="38.7456322" lon="16.3460469"><ele>821.0</ele><time>2026-04-19T12:13:17.57Z</time></trkpt><trkpt lat="38.7456604" lon="16.345964"><ele>820.0</ele><time>2026-04-19T12:13:18.575Z</time></trkpt><trkpt lat="38.7456863" lon="16.3458789"><ele>819.0</ele><time>2026-04-19T12:13:19.57Z</time></trkpt><trkpt lat="38.7457105" lon="16.3457859"><ele>817.9999999999999</ele><time>2026-04-19T12:13:20.57Z</time></trkpt><trkpt lat="38.7457377" lon="16.3456782"><ele>817.0</ele><time>2026-04-19T12:13:21.586Z</time></trkpt><trkpt lat="38.7457655" lon="16.3455494"><ele>814.6</ele><time>2026-04-19T12:13:22.571Z</time></trkpt><trkpt lat="38.7457944" lon="16.3454201"><ele>812.2</ele><time>2026-04-19T12:13:23.573Z</time></trkpt><trkpt lat="38.7458236" lon="16.3453052"><ele>809.8</ele><time>2026-04-19T12:13:24.563Z</time></trkpt><trkpt lat="38.7458664" lon="16.3451847"><ele>807.4</ele><time>2026-04-19T12:13:25.575Z</time></trkpt><trkpt lat="38.7459203" lon="16.3450634"><ele>805.0</ele><time>2026-04-19T12:13:26.571Z</time></trkpt><trkpt lat="38.7459732" lon="16.3449679"><ele>804.9999999999999</ele><time>2026-04-19T12:13:27.57Z</time></trkpt><trkpt lat="38.7460262" lon="16.344872"><ele>805.0</ele><time>2026-04-19T12:13:28.567Z</time></trkpt><trkpt lat="38.7460688" lon="16.3447843"><ele>805.0</ele><time>2026-04-19T12:13:29.601Z</time></trkpt><trkpt lat="38.7461037" lon="16.3447074"><ele>805.0</ele><time>2026-04-19T12:13:30.569Z</time></trkpt><trkpt lat="38.7461709" lon="16.3445583"><ele>804.9999999999999</ele><time>2026-04-19T12:13:32.571Z</time></trkpt><trkpt lat="38.7462007" lon="16.3444836"><ele>805.0</ele><time>2026-04-19T12:13:33.57Z</time></trkpt><trkpt lat="38.7462308" lon="16.3443509"><ele>806.0</ele><time>2026-04-19T12:13:35.574Z</time></trkpt><trkpt lat="38.7462203" lon="16.3442156"><ele>807.0</ele><time>2026-04-19T12:13:37.576Z</time></trkpt><trkpt lat="38.7462053" lon="16.3441318"><ele>808.0</ele><time>2026-04-19T12:13:38.572Z</time></trkpt><trkpt lat="38.7461888" lon="16.3440485"><ele>809.0</ele><time>2026-04-19T12:13:39.591Z</time></trkpt><trkpt lat="38.7461967" lon="16.3439153"><ele>810.0</ele><time>2026-04-19T12:13:40.579Z</time></trkpt><trkpt lat="38.7461895" lon="16.3437683"><ele>807.25</ele><time>2026-04-19T12:13:42.569Z</time></trkpt><trkpt lat="38.7462077" lon="16.3435754"><ele>804.5</ele><time>2026-04-19T12:13:44.574Z</time></trkpt><trkpt lat="38.7462123" lon="16.3434226"><ele>801.75</ele><time>2026-04-19T12:13:45.576Z</time></trkpt><trkpt lat="38.7462143" lon="16.3433014"><ele>799.0</ele><time>2026-04-19T12:13:46.571Z</time></trkpt><trkpt lat="38.7462132" lon="16.343188"><ele>799.0</ele><time>2026-04-19T12:13:47.57Z</time></trkpt><trkpt lat="38.7462105" lon="16.3430639"><ele>799.0</ele><time>2026-04-19T12:13:48.591Z</time></trkpt><trkpt lat="38.746205" lon="16.3429132"><ele>799.0</ele><time>2026-04-19T12:13:50.568Z</time></trkpt><trkpt lat="38.746208" lon="16.3427862"><ele>799.0</ele><time>2026-04-19T12:13:51.572Z</time></trkpt><trkpt lat="38.7462207" lon="16.3426938"><ele>799.0</ele><time>2026-04-19T12:13:52.574Z</time></trkpt><trkpt lat="38.7462591" lon="16.3425489"><ele>796.2</ele><time>2026-04-19T12:13:53.576Z</time></trkpt><trkpt lat="38.7463202" lon="16.3424951"><ele>793.4000000000001</ele><time>2026-04-19T12:13:54.571Z</time></trkpt><trkpt lat="38.7463877" lon="16.3424977"><ele>790.6</ele><time>2026-04-19T12:13:55.596Z</time></trkpt><trkpt lat="38.7464686" lon="16.3425489"><ele>787.8</ele><time>2026-04-19T12:13:57.576Z</time></trkpt><trkpt lat="38.7466541" lon="16.3425102"><ele>785.0</ele><time>2026-04-19T12:14:01.577Z</time></trkpt><trkpt lat="38.7467293" lon="16.3423914"><ele>785.0</ele><time>2026-04-19T12:14:03.574Z</time></trkpt><trkpt lat="38.7466868" lon="16.3422423"><ele>785.0</ele><time>2026-04-19T12:14:05.571Z</time></trkpt><trkpt lat="38.7466294" lon="16.3421659"><ele>785.0</ele><time>2026-04-19T12:14:06.57Z</time></trkpt><trkpt lat="38.7465681" lon="16.3420856"><ele>785.0</ele><time>2026-04-19T12:14:07.569Z</time></trkpt><trkpt lat="38.7465155" lon="16.3420067"><ele>785.0</ele><time>2026-04-19T12:14:08.57Z</time></trkpt><trkpt lat="38.7464605" lon="16.3419259"><ele>781.8</ele><time>2026-04-19T12:14:09.574Z</time></trkpt><trkpt lat="38.7464421" lon="16.3418469"><ele>778.6</ele><time>2026-04-19T12:14:11.572Z</time></trkpt><trkpt lat="38.7463616" lon="16.3418272"><ele>775.4000000000001</ele><time>2026-04-19T12:14:13.586Z</time></trkpt><trkpt lat="38.746278" lon="16.3418943"><ele>772.2</ele><time>2026-04-19T12:14:15.571Z</time></trkpt><trkpt lat="38.7462038" lon="16.3420079"><ele>769.0</ele><time>2026-04-19T12:14:17.569Z</time></trkpt><trkpt lat="38.7461477" lon="16.3421374"><ele>768.9999999999999</ele><time>2026-04-19T12:14:19.569Z</time></trkpt><trkpt lat="38.7461108" lon="16.3422055"><ele>769.0</ele><time>2026-04-19T12:14:20.59Z</time></trkpt><trkpt lat="38.7460666" lon="16.342279"><ele>769.0</ele><time>2026-04-19T12:14:21.572Z</time></trkpt><trkpt lat="38.7459968" lon="16.3423984"><ele>769.0</ele><time>2026-04-19T12:14:23.569Z</time></trkpt><trkpt lat="38.7459525" lon="16.3424694"><ele>768.9999999999999</ele><time>2026-04-19T12:14:24.568Z</time></trkpt><trkpt lat="38.7458989" lon="16.3425627"><ele>769.0</ele><time>2026-04-19T12:14:25.579Z</time></trkpt><trkpt lat="38.7458658" lon="16.342632"><ele>768.1666666666666</ele><time>2026-04-19T12:14:26.572Z</time></trkpt><trkpt lat="38.7458353" lon="16.3427127"><ele>767.3333333333333</ele><time>2026-04-19T12:14:27.581Z</time></trkpt><trkpt lat="38.7458302" lon="16.3428575"><ele>766.5</ele><time>2026-04-19T12:14:29.576Z</time></trkpt><trkpt lat="38.7457787" lon="16.3429971"><ele>765.6666666666666</ele><time>2026-04-19T12:14:31.574Z</time></trkpt><trkpt lat="38.7457297" lon="16.3430724"><ele>764.8333333333333</ele><time>2026-04-19T12:14:32.571Z</time></trkpt><trkpt lat="38.7456977" lon="16.3431513"><ele>764.0</ele><time>2026-04-19T12:14:33.572Z</time></trkpt><trkpt lat="38.7456588" lon="16.3432913"><ele>767.2</ele><time>2026-04-19T12:14:35.578Z</time></trkpt><trkpt lat="38.7456212" lon="16.3434031"><ele>770.4000000000001</ele><time>2026-04-19T12:14:37.573Z</time></trkpt><trkpt lat="38.7455428" lon="16.3435621"><ele>773.6</ele><time>2026-04-19T12:14:39.574Z</time></trkpt><trkpt lat="38.745497" lon="16.3436587"><ele>776.8</ele><time>2026-04-19T12:14:40.569Z</time></trkpt><trkpt lat="38.7454596" lon="16.3437288"><ele>780.0</ele><time>2026-04-19T12:14:42.571Z</time></trkpt><trkpt lat="38.7454009" lon="16.3437926"><ele>780.0</ele><time>2026-04-19T12:14:45.576Z</time></trkpt><trkpt lat="38.7453773" lon="16.3438762"><ele>780.0</ele><time>2026-04-19T12:14:48.569Z</time></trkpt><trkpt lat="38.7453047" lon="16.3439673"><ele>780.0</ele><time>2026-04-19T12:14:52.566Z</time></trkpt><trkpt lat="38.7452513" lon="16.3440261"><ele>780.0</ele><time>2026-04-19T12:14:53.566Z</time></trkpt><trkpt lat="38.7451767" lon="16.3440489"><ele>780.0</ele><time>2026-04-19T12:14:54.568Z</time></trkpt><trkpt lat="38.7450785" lon="16.3440877"><ele>780.0</ele><time>2026-04-19T12:14:55.568Z</time></trkpt><trkpt lat="38.7450106" lon="16.3440995"><ele>777.3333333333334</ele><time>2026-04-19T12:14:56.575Z</time></trkpt><trkpt lat="38.7449385" lon="16.3441723"><ele>774.6666666666666</ele><time>2026-04-19T12:14:57.57Z</time></trkpt><trkpt lat="38.7448761" lon="16.3442535"><ele>772.0</ele><time>2026-04-19T12:14:58.572Z</time></trkpt><trkpt lat="38.7448154" lon="16.3443281"><ele>769.3333333333333</ele><time>2026-04-19T12:14:59.567Z</time></trkpt><trkpt lat="38.7447756" lon="16.3444031"><ele>766.6666666666666</ele><time>2026-04-19T12:15:00.569Z</time></trkpt><trkpt lat="38.7447265" lon="16.3444739"><ele>764.0</ele><time>2026-04-19T12:15:01.571Z</time></trkpt><trkpt lat="38.7446909" lon="16.3445484"><ele>764.0</ele><time>2026-04-19T12:15:02.578Z</time></trkpt><trkpt lat="38.7446596" lon="16.3446352"><ele>764.0</ele><time>2026-04-19T12:15:03.57Z</time></trkpt><trkpt lat="38.7446206" lon="16.344713"><ele>764.0</ele><time>2026-04-19T12:15:04.566Z</time></trkpt><trkpt lat="38.7445633" lon="16.3447991"><ele>764.0</ele><time>2026-04-19T12:15:05.572Z</time></trkpt><trkpt lat="38.7445019" lon="16.3448927"><ele>764.0</ele><time>2026-04-19T12:15:06.567Z</time></trkpt><trkpt lat="38.7444365" lon="16.3449629"><ele>764.0</ele><time>2026-04-19T12:15:07.6Z</time></trkpt><trkpt lat="38.7443789" lon="16.3450694"><ele>764.8000000000001</ele><time>2026-04-19T12:15:08.574Z</time></trkpt><trkpt lat="38.7443341" lon="16.3451433"><ele>765.6</ele><time>2026-04-19T12:15:09.572Z</time></trkpt><trkpt lat="38.7442875" lon="16.3452425"><ele>766.4</ele><time>2026-04-19T12:15:10.562Z</time></trkpt><trkpt lat="38.7442261" lon="16.3453278"><ele>767.2</ele><time>2026-04-19T12:15:12.567Z</time></trkpt><trkpt lat="38.7441737" lon="16.3453872"><ele>768.0</ele><time>2026-04-19T12:15:14.57Z</time></trkpt><trkpt lat="38.7440446" lon="16.3453307"><ele>768.0</ele><time>2026-04-19T12:15:22.567Z</time></trkpt><trkpt lat="38.7440078" lon="16.3452476"><ele>768.0</ele><time>2026-04-19T12:15:23.569Z</time></trkpt><trkpt lat="38.7440186" lon="16.3451122"><ele>768.0</ele><time>2026-04-19T12:15:25.562Z</time></trkpt><trkpt lat="38.7440414" lon="16.345035"><ele>768.0</ele><time>2026-04-19T12:15:26.569Z</time></trkpt><trkpt lat="38.7440347" lon="16.3449355"><ele>768.0</ele><time>2026-04-19T12:15:27.569Z</time></trkpt><trkpt lat="38.744013" lon="16.3448544"><ele>768.0</ele><time>2026-04-19T12:15:28.573Z</time></trkpt><trkpt lat="38.7439755" lon="16.3447509"><ele>767.2</ele><time>2026-04-19T12:15:29.57Z</time></trkpt><trkpt lat="38.7439301" lon="16.3446374"><ele>766.4</ele><time>2026-04-19T12:15:30.572Z</time></trkpt><trkpt lat="38.7438745" lon="16.3445111"><ele>765.6</ele><time>2026-04-19T12:15:31.572Z</time></trkpt><trkpt lat="38.743824" lon="16.3443981"><ele>764.8000000000001</ele><time>2026-04-19T12:15:32.567Z</time></trkpt><trkpt lat="38.7437691" lon="16.3442866"><ele>764.0</ele><time>2026-04-19T12:15:33.571Z</time></trkpt><trkpt lat="38.7437248" lon="16.3441991"><ele>764.0</ele><time>2026-04-19T12:15:34.574Z</time></trkpt><trkpt lat="38.7436939" lon="16.3440406"><ele>764.0</ele><time>2026-04-19T12:15:36.578Z</time></trkpt><trkpt lat="38.743691" lon="16.3438893"><ele>764.0</ele><time>2026-04-19T12:15:37.567Z</time></trkpt><trkpt lat="38.7437059" lon="16.3437526"><ele>764.0</ele><time>2026-04-19T12:15:38.565Z</time></trkpt><trkpt lat="38.7437145" lon="16.3436202"><ele>764.25</ele><time>2026-04-19T12:15:39.566Z</time></trkpt><trkpt lat="38.743725" lon="16.3434967"><ele>764.5</ele><time>2026-04-19T12:15:40.569Z</time></trkpt><trkpt lat="38.7437163" lon="16.3433748"><ele>764.75</ele><time>2026-04-19T12:15:41.572Z</time></trkpt><trkpt lat="38.7437003" lon="16.3432231"><ele>765.0</ele><time>2026-04-19T12:15:42.567Z</time></trkpt><trkpt lat="38.7436666" lon="16.3430183"><ele>766.6666666666667</ele><time>2026-04-19T12:15:43.582Z</time></trkpt><trkpt lat="38.7436643" lon="16.3428017"><ele>768.3333333333334</ele><time>2026-04-19T12:15:44.569Z</time></trkpt><trkpt lat="38.7436547" lon="16.3425725"><ele>770.0</ele><time>2026-04-19T12:15:45.566Z</time></trkpt><trkpt lat="38.7436204" lon="16.3423313"><ele>770.0</ele><time>2026-04-19T12:15:46.561Z</time></trkpt><trkpt lat="38.7435821" lon="16.34208"><ele>770.0</ele><time>2026-04-19T12:15:47.562Z</time></trkpt><trkpt lat="38.7435618" lon="16.341826"><ele>770.0</ele><time>2026-04-19T12:15:48.585Z</time></trkpt><trkpt lat="38.7435393" lon="16.3415767"><ele>775.6666666666667</ele><time>2026-04-19T12:15:49.563Z</time></trkpt><trkpt lat="38.7435069" lon="16.3413377"><ele>781.3333333333333</ele><time>2026-04-19T12:15:50.562Z</time></trkpt><trkpt lat="38.7434588" lon="16.3411564"><ele>787.0</ele><time>2026-04-19T12:15:51.56Z</time></trkpt><trkpt lat="38.7434094" lon="16.3410007"><ele>787.0</ele><time>2026-04-19T12:15:52.56Z</time></trkpt><trkpt lat="38.7433789" lon="16.3408725"><ele>787.0</ele><time>2026-04-19T12:15:53.568Z</time></trkpt><trkpt lat="38.7433462" lon="16.3407007"><ele>787.0</ele><time>2026-04-19T12:15:54.567Z</time></trkpt><trkpt lat="38.7433703" lon="16.3405281"><ele>787.0</ele><time>2026-04-19T12:15:55.559Z</time></trkpt><trkpt lat="38.743385" lon="16.3404121"><ele>785.8</ele><time>2026-04-19T12:15:56.565Z</time></trkpt><trkpt lat="38.7433579" lon="16.3403049"><ele>784.6</ele><time>2026-04-19T12:15:58.567Z</time></trkpt><trkpt lat="38.7432824" lon="16.3402186"><ele>783.4</ele><time>2026-04-19T12:16:00.57Z</time></trkpt><trkpt lat="38.7432022" lon="16.3401797"><ele>782.1999999999999</ele><time>2026-04-19T12:16:01.572Z</time></trkpt><trkpt lat="38.7431101" lon="16.340115"><ele>781.0</ele><time>2026-04-19T12:16:02.567Z</time></trkpt><trkpt lat="38.7430386" lon="16.3400708"><ele>781.0</ele><time>2026-04-19T12:16:03.567Z</time></trkpt><trkpt lat="38.7429822" lon="16.3400232"><ele>781.0</ele><time>2026-04-19T12:16:04.564Z</time></trkpt><trkpt lat="38.7428548" lon="16.3398466"><ele>781.0</ele><time>2026-04-19T12:16:06.565Z</time></trkpt><trkpt lat="38.7427943" lon="16.3397227"><ele>781.0</ele><time>2026-04-19T12:16:07.587Z</time></trkpt><trkpt lat="38.7427453" lon="16.3396453"><ele>781.0</ele><time>2026-04-19T12:16:08.563Z</time></trkpt><trkpt lat="38.7426413" lon="16.3395031"><ele>781.5999999999999</ele><time>2026-04-19T12:16:10.566Z</time></trkpt><trkpt lat="38.7425708" lon="16.339422"><ele>782.2</ele><time>2026-04-19T12:16:11.565Z</time></trkpt><trkpt lat="38.7425088" lon="16.339312"><ele>782.8</ele><time>2026-04-19T12:16:12.587Z</time></trkpt><trkpt lat="38.7424572" lon="16.339209"><ele>783.4000000000001</ele><time>2026-04-19T12:16:13.562Z</time></trkpt><trkpt lat="38.742387" lon="16.339128"><ele>784.0</ele><time>2026-04-19T12:16:14.561Z</time></trkpt><trkpt lat="38.7422866" lon="16.3390505"><ele>784.0</ele><time>2026-04-19T12:16:15.564Z</time></trkpt><trkpt lat="38.7421967" lon="16.3389935"><ele>784.0</ele><time>2026-04-19T12:16:16.565Z</time></trkpt><trkpt lat="38.7421043" lon="16.3389199"><ele>784.0</ele><time>2026-04-19T12:16:17.57Z</time></trkpt><trkpt lat="38.7420097" lon="16.3388316"><ele>784.0</ele><time>2026-04-19T12:16:18.563Z</time></trkpt><trkpt lat="38.7419349" lon="16.3387549"><ele>784.0</ele><time>2026-04-19T12:16:19.576Z</time></trkpt><trkpt lat="38.7418768" lon="16.3386816"><ele>783.2</ele><time>2026-04-19T12:16:20.568Z</time></trkpt><trkpt lat="38.7418066" lon="16.3386432"><ele>782.4000000000001</ele><time>2026-04-19T12:16:21.571Z</time></trkpt><trkpt lat="38.7417273" lon="16.3385904"><ele>781.6</ele><time>2026-04-19T12:16:22.562Z</time></trkpt><trkpt lat="38.7416408" lon="16.3385249"><ele>780.8</ele><time>2026-04-19T12:16:23.569Z</time></trkpt><trkpt lat="38.741573" lon="16.338486"><ele>780.0</ele><time>2026-04-19T12:16:24.593Z</time></trkpt><trkpt lat="38.7414498" lon="16.3384426"><ele>780.0</ele><time>2026-04-19T12:16:26.566Z</time></trkpt><trkpt lat="38.7413609" lon="16.338412"><ele>780.0</ele><time>2026-04-19T12:16:27.566Z</time></trkpt><trkpt lat="38.7411663" lon="16.3382826"><ele>780.0</ele><time>2026-04-19T12:16:30.572Z</time></trkpt><trkpt lat="38.7411063" lon="16.3382212"><ele>780.0</ele><time>2026-04-19T12:16:31.564Z</time></trkpt><trkpt lat="38.7409984" lon="16.3381449"><ele>778.75</ele><time>2026-04-19T12:16:32.567Z</time></trkpt><trkpt lat="38.7409067" lon="16.3379891"><ele>777.5</ele><time>2026-04-19T12:16:33.567Z</time></trkpt><trkpt lat="38.7408478" lon="16.3378537"><ele>776.25</ele><time>2026-04-19T12:16:34.567Z</time></trkpt><trkpt lat="38.7407772" lon="16.3377211"><ele>775.0</ele><time>2026-04-19T12:16:35.569Z</time></trkpt><trkpt lat="38.7407048" lon="16.3375901"><ele>775.0</ele><time>2026-04-19T12:16:36.568Z</time></trkpt><trkpt lat="38.7406306" lon="16.3374797"><ele>775.0</ele><time>2026-04-19T12:16:37.568Z</time></trkpt><trkpt lat="38.7405476" lon="16.3374283"><ele>775.0</ele><time>2026-04-19T12:16:38.566Z</time></trkpt><trkpt lat="38.7404576" lon="16.3373828"><ele>775.0</ele><time>2026-04-19T12:16:39.565Z</time></trkpt><trkpt lat="38.7403535" lon="16.337294"><ele>775.0</ele><time>2026-04-19T12:16:40.559Z</time></trkpt><trkpt lat="38.7402408" lon="16.3372152"><ele>774.25</ele><time>2026-04-19T12:16:41.565Z</time></trkpt><trkpt lat="38.7401031" lon="16.3371971"><ele>773.5</ele><time>2026-04-19T12:16:42.564Z</time></trkpt><trkpt lat="38.7399736" lon="16.3371067"><ele>772.75</ele><time>2026-04-19T12:16:43.576Z</time></trkpt><trkpt lat="38.7398612" lon="16.3370463"><ele>772.0</ele><time>2026-04-19T12:16:44.57Z</time></trkpt><trkpt lat="38.7397478" lon="16.3369782"><ele>772.0</ele><time>2026-04-19T12:16:45.566Z</time></trkpt><trkpt lat="38.7396858" lon="16.3368642"><ele>772.0</ele><time>2026-04-19T12:16:46.565Z</time></trkpt><trkpt lat="38.739621" lon="16.3367997"><ele>772.0</ele><time>2026-04-19T12:16:47.571Z</time></trkpt><trkpt lat="38.7395898" lon="16.3366906"><ele>772.0</ele><time>2026-04-19T12:16:48.561Z</time></trkpt><trkpt lat="38.7395841" lon="16.3365937"><ele>772.0</ele><time>2026-04-19T12:16:49.565Z</time></trkpt><trkpt lat="38.7395571" lon="16.3363456"><ele>771.4000000000001</ele><time>2026-04-19T12:16:52.579Z</time></trkpt><trkpt lat="38.7395283" lon="16.3362579"><ele>770.8000000000001</ele><time>2026-04-19T12:16:53.567Z</time></trkpt><trkpt lat="38.739512" lon="16.3361598"><ele>770.2</ele><time>2026-04-19T12:16:54.562Z</time></trkpt><trkpt lat="38.7394273" lon="16.3359944"><ele>769.6</ele><time>2026-04-19T12:16:56.569Z</time></trkpt><trkpt lat="38.7393722" lon="16.3358764"><ele>769.0</ele><time>2026-04-19T12:16:57.581Z</time></trkpt><trkpt lat="38.739332" lon="16.3357464"><ele>769.0</ele><time>2026-04-19T12:16:58.56Z</time></trkpt><trkpt lat="38.7393166" lon="16.3356227"><ele>769.0</ele><time>2026-04-19T12:16:59.567Z</time></trkpt><trkpt lat="38.7392694" lon="16.3355359"><ele>769.0</ele><time>2026-04-19T12:17:00.567Z</time></trkpt><trkpt lat="38.7392232" lon="16.3354474"><ele>769.0</ele><time>2026-04-19T12:17:01.567Z</time></trkpt><trkpt lat="38.7391545" lon="16.3353573"><ele>769.0</ele><time>2026-04-19T12:17:02.564Z</time></trkpt><trkpt lat="38.7390663" lon="16.3352601"><ele>765.0</ele><time>2026-04-19T12:17:03.573Z</time></trkpt><trkpt lat="38.7389733" lon="16.3351942"><ele>761.0</ele><time>2026-04-19T12:17:04.564Z</time></trkpt><trkpt lat="38.7388775" lon="16.3351385"><ele>757.0</ele><time>2026-04-19T12:17:05.595Z</time></trkpt><trkpt lat="38.7387928" lon="16.3350786"><ele>753.0</ele><time>2026-04-19T12:17:06.564Z</time></trkpt><trkpt lat="38.7387206" lon="16.3350208"><ele>749.0</ele><time>2026-04-19T12:17:07.564Z</time></trkpt><trkpt lat="38.73865" lon="16.3349351"><ele>749.0</ele><time>2026-04-19T12:17:08.566Z</time></trkpt><trkpt lat="38.7385624" lon="16.3348568"><ele>749.0</ele><time>2026-04-19T12:17:09.568Z</time></trkpt><trkpt lat="38.7384784" lon="16.3348046"><ele>749.0</ele><time>2026-04-19T12:17:10.57Z</time></trkpt><trkpt lat="38.7383894" lon="16.3347589"><ele>749.0</ele><time>2026-04-19T12:17:11.564Z</time></trkpt><trkpt lat="38.7383158" lon="16.3347154"><ele>749.0</ele><time>2026-04-19T12:17:12.57Z</time></trkpt><trkpt lat="38.7382533" lon="16.3346768"><ele>749.0</ele><time>2026-04-19T12:17:13.568Z</time></trkpt><trkpt lat="38.7382004" lon="16.3346115"><ele>746.2</ele><time>2026-04-19T12:17:14.583Z</time></trkpt><trkpt lat="38.7381403" lon="16.3344675"><ele>743.4000000000001</ele><time>2026-04-19T12:17:16.566Z</time></trkpt><trkpt lat="38.7381259" lon="16.3343627"><ele>740.6</ele><time>2026-04-19T12:17:17.568Z</time></trkpt><trkpt lat="38.7380876" lon="16.3342606"><ele>737.8</ele><time>2026-04-19T12:17:18.564Z</time></trkpt><trkpt lat="38.7380398" lon="16.3341602"><ele>735.0</ele><time>2026-04-19T12:17:19.569Z</time></trkpt><trkpt lat="38.7379789" lon="16.334071"><ele>735.0</ele><time>2026-04-19T12:17:20.568Z</time></trkpt><trkpt lat="38.737923" lon="16.3339577"><ele>735.0</ele><time>2026-04-19T12:17:21.578Z</time></trkpt><trkpt lat="38.7378543" lon="16.3338679"><ele>735.0</ele><time>2026-04-19T12:17:22.568Z</time></trkpt><trkpt lat="38.7377954" lon="16.3337744"><ele>735.0</ele><time>2026-04-19T12:17:23.572Z</time></trkpt><trkpt lat="38.7377423" lon="16.3336879"><ele>735.0</ele><time>2026-04-19T12:17:24.571Z</time></trkpt><trkpt lat="38.7376681" lon="16.3336428"><ele>734.0</ele><time>2026-04-19T12:17:25.569Z</time></trkpt><trkpt lat="38.7375794" lon="16.3336208"><ele>733.0</ele><time>2026-04-19T12:17:26.564Z</time></trkpt><trkpt lat="38.737462" lon="16.3335669"><ele>732.0</ele><time>2026-04-19T12:17:27.563Z</time></trkpt><trkpt lat="38.7373717" lon="16.333523"><ele>731.0</ele><time>2026-04-19T12:17:28.571Z</time></trkpt><trkpt lat="38.7372936" lon="16.3334822"><ele>730.0</ele><time>2026-04-19T12:17:29.559Z</time></trkpt><trkpt lat="38.7370781" lon="16.3334316"><ele>730.0</ele><time>2026-04-19T12:17:31.574Z</time></trkpt><trkpt lat="38.736985" lon="16.3334026"><ele>730.0</ele><time>2026-04-19T12:17:32.565Z</time></trkpt><trkpt lat="38.7368318" lon="16.3333404"><ele>730.0</ele><time>2026-04-19T12:17:33.558Z</time></trkpt><trkpt lat="38.7366989" lon="16.3333033"><ele>730.0</ele><time>2026-04-19T12:17:34.563Z</time></trkpt><trkpt lat="38.7365956" lon="16.3332701"><ele>729.5</ele><time>2026-04-19T12:17:35.561Z</time></trkpt><trkpt lat="38.7364683" lon="16.3332879"><ele>729.0</ele><time>2026-04-19T12:17:37.58Z</time></trkpt><trkpt lat="38.7364129" lon="16.3333306"><ele>728.5</ele><time>2026-04-19T12:17:38.561Z</time></trkpt><trkpt lat="38.7363366" lon="16.3333733"><ele>728.0</ele><time>2026-04-19T12:17:40.563Z</time></trkpt><trkpt lat="38.7361994" lon="16.3332365"><ele>728.0</ele><time>2026-04-19T12:17:44.568Z</time></trkpt><trkpt lat="38.7361607" lon="16.3331448"><ele>728.0</ele><time>2026-04-19T12:17:45.565Z</time></trkpt><trkpt lat="38.7361247" lon="16.3330578"><ele>728.0</ele><time>2026-04-19T12:17:46.566Z</time></trkpt><trkpt lat="38.7360633" lon="16.3330244"><ele>728.0</ele><time>2026-04-19T12:17:47.579Z</time></trkpt><trkpt lat="38.7359702" lon="16.3329135"><ele>728.0</ele><time>2026-04-19T12:17:49.563Z</time></trkpt><trkpt lat="38.7359859" lon="16.3328305"><ele>728.0</ele><time>2026-04-19T12:17:50.562Z</time></trkpt><trkpt lat="38.7360318" lon="16.3327437"><ele>727.25</ele><time>2026-04-19T12:17:51.57Z</time></trkpt><trkpt lat="38.7359796" lon="16.33268"><ele>726.5</ele><time>2026-04-19T12:17:52.559Z</time></trkpt><trkpt lat="38.73608" lon="16.3327867"><ele>725.75</ele><time>2026-04-19T12:17:53.57Z</time></trkpt><trkpt lat="38.7361293" lon="16.3327182"><ele>725.0</ele><time>2026-04-19T12:17:54.565Z</time></trkpt><trkpt lat="38.7362303" lon="16.3325057"><ele>721.0</ele><time>2026-04-19T12:17:56.567Z</time></trkpt><trkpt lat="38.7363719" lon="16.3323567"><ele>717.0</ele><time>2026-04-19T12:17:57.567Z</time></trkpt><trkpt lat="38.7364548" lon="16.3322142"><ele>713.0</ele><time>2026-04-19T12:17:58.566Z</time></trkpt><trkpt lat="38.7364531" lon="16.3320606"><ele>709.0</ele><time>2026-04-19T12:17:59.579Z</time></trkpt><trkpt lat="38.7364563" lon="16.3319749"><ele>706.4000000000001</ele><time>2026-04-19T12:18:00.565Z</time></trkpt><trkpt lat="38.7364703" lon="16.3318241"><ele>703.8</ele><time>2026-04-19T12:18:01.573Z</time></trkpt><trkpt lat="38.7364962" lon="16.3317214"><ele>701.2</ele><time>2026-04-19T12:18:02.57Z</time></trkpt><trkpt lat="38.7365438" lon="16.3316241"><ele>698.5999999999999</ele><time>2026-04-19T12:18:04.58Z</time></trkpt><trkpt lat="38.736633" lon="16.3315778"><ele>696.0</ele><time>2026-04-19T12:18:06.578Z</time></trkpt><trkpt lat="38.7367118" lon="16.3314307"><ele>694.5</ele><time>2026-04-19T12:18:08.572Z</time></trkpt><trkpt lat="38.7367259" lon="16.3313026"><ele>693.0</ele><time>2026-04-19T12:18:09.572Z</time></trkpt><trkpt lat="38.7367364" lon="16.3311858"><ele>691.5</ele><time>2026-04-19T12:18:10.583Z</time></trkpt><trkpt lat="38.736725" lon="16.3310926"><ele>690.0</ele><time>2026-04-19T12:18:11.569Z</time></trkpt><trkpt lat="38.7367007" lon="16.3309895"><ele>688.5</ele><time>2026-04-19T12:18:12.565Z</time></trkpt><trkpt lat="38.7366467" lon="16.3308889"><ele>687.0</ele><time>2026-04-19T12:18:13.571Z</time></trkpt><trkpt lat="38.7365761" lon="16.3308007"><ele>687.0</ele><time>2026-04-19T12:18:14.57Z</time></trkpt><trkpt lat="38.7364827" lon="16.330715"><ele>687.0</ele><time>2026-04-19T12:18:15.593Z</time></trkpt><trkpt lat="38.7363555" lon="16.3306501"><ele>687.0</ele><time>2026-04-19T12:18:16.571Z</time></trkpt><trkpt lat="38.7362493" lon="16.3305492"><ele>687.0</ele><time>2026-04-19T12:18:17.58Z</time></trkpt><trkpt lat="38.7361341" lon="16.3304627"><ele>686.5</ele><time>2026-04-19T12:18:18.574Z</time></trkpt><trkpt lat="38.7360396" lon="16.3303415"><ele>686.0</ele><time>2026-04-19T12:18:19.578Z</time></trkpt><trkpt lat="38.7359852" lon="16.3301962"><ele>685.5</ele><time>2026-04-19T12:18:20.576Z</time></trkpt><trkpt lat="38.7359361" lon="16.3300721"><ele>685.0</ele><time>2026-04-19T12:18:21.571Z</time></trkpt><trkpt lat="38.7358901" lon="16.3299707"><ele>685.0</ele><time>2026-04-19T12:18:22.567Z</time></trkpt><trkpt lat="38.7357953" lon="16.3298777"><ele>685.0</ele><time>2026-04-19T12:18:23.57Z</time></trkpt><trkpt lat="38.7356608" lon="16.3297979"><ele>685.0</ele><time>2026-04-19T12:18:24.621Z</time></trkpt><trkpt lat="38.7355447" lon="16.3297"><ele>685.0</ele><time>2026-04-19T12:18:25.575Z</time></trkpt><trkpt lat="38.7354586" lon="16.3296281"><ele>685.6</ele><time>2026-04-19T12:18:26.572Z</time></trkpt><trkpt lat="38.7353823" lon="16.3295654"><ele>686.2</ele><time>2026-04-19T12:18:27.578Z</time></trkpt><trkpt lat="38.7353008" lon="16.3294718"><ele>686.8</ele><time>2026-04-19T12:18:28.575Z</time></trkpt><trkpt lat="38.7352034" lon="16.3293667"><ele>687.4</ele><time>2026-04-19T12:18:29.575Z</time></trkpt><trkpt lat="38.7351052" lon="16.3292762"><ele>688.0</ele><time>2026-04-19T12:18:30.574Z</time></trkpt><trkpt lat="38.734982" lon="16.3291913"><ele>688.0</ele><time>2026-04-19T12:18:31.574Z</time></trkpt><trkpt lat="38.7348689" lon="16.3291086"><ele>688.0</ele><time>2026-04-19T12:18:32.57Z</time></trkpt><trkpt lat="38.7347695" lon="16.3290332"><ele>688.0</ele><time>2026-04-19T12:18:33.627Z</time></trkpt><trkpt lat="38.7346899" lon="16.3289341"><ele>688.0</ele><time>2026-04-19T12:18:34.575Z</time></trkpt><trkpt lat="38.734621" lon="16.328846"><ele>687.5999999999999</ele><time>2026-04-19T12:18:35.573Z</time></trkpt><trkpt lat="38.7345502" lon="16.3287559"><ele>687.1999999999999</ele><time>2026-04-19T12:18:36.58Z</time></trkpt><trkpt lat="38.7344807" lon="16.3286592"><ele>686.8</ele><time>2026-04-19T12:18:37.575Z</time></trkpt><trkpt lat="38.7344099" lon="16.3285629"><ele>686.4</ele><time>2026-04-19T12:18:38.576Z</time></trkpt><trkpt lat="38.7343462" lon="16.3284865"><ele>686.0</ele><time>2026-04-19T12:18:39.574Z</time></trkpt><trkpt lat="38.7342926" lon="16.3284256"><ele>686.0</ele><time>2026-04-19T12:18:40.582Z</time></trkpt><trkpt lat="38.7342025" lon="16.3283277"><ele>686.0</ele><time>2026-04-19T12:18:42.578Z</time></trkpt><trkpt lat="38.7341393" lon="16.3282839"><ele>686.0</ele><time>2026-04-19T12:18:43.577Z</time></trkpt><trkpt lat="38.7340631" lon="16.3282296"><ele>686.0</ele><time>2026-04-19T12:18:44.579Z</time></trkpt><trkpt lat="38.7339616" lon="16.328185"><ele>686.0</ele><time>2026-04-19T12:18:45.577Z</time></trkpt><trkpt lat="38.7338317" lon="16.328148"><ele>686.0</ele><time>2026-04-19T12:18:46.57Z</time></trkpt><trkpt lat="38.7336638" lon="16.3281105"><ele>686.0</ele><time>2026-04-19T12:18:47.573Z</time></trkpt><trkpt lat="38.7334843" lon="16.3280654"><ele>686.0</ele><time>2026-04-19T12:18:48.581Z</time></trkpt><trkpt lat="38.7333325" lon="16.3280243"><ele>684.8</ele><time>2026-04-19T12:18:49.573Z</time></trkpt><trkpt lat="38.733206" lon="16.3279581"><ele>683.5999999999999</ele><time>2026-04-19T12:18:50.579Z</time></trkpt><trkpt lat="38.7330995" lon="16.3279127"><ele>682.4</ele><time>2026-04-19T12:18:51.594Z</time></trkpt><trkpt lat="38.7330018" lon="16.327909"><ele>681.2</ele><time>2026-04-19T12:18:52.578Z</time></trkpt><trkpt lat="38.7329193" lon="16.3278985"><ele>680.0</ele><time>2026-04-19T12:18:53.572Z</time></trkpt><trkpt lat="38.7328465" lon="16.3278963"><ele>680.0</ele><time>2026-04-19T12:18:54.574Z</time></trkpt><trkpt lat="38.732718" lon="16.3278866"><ele>680.0</ele><time>2026-04-19T12:18:56.576Z</time></trkpt><trkpt lat="38.7326203" lon="16.3278721"><ele>680.0</ele><time>2026-04-19T12:18:57.575Z</time></trkpt><trkpt lat="38.732518" lon="16.3278525"><ele>680.0</ele><time>2026-04-19T12:18:58.598Z</time></trkpt><trkpt lat="38.732427" lon="16.3278389"><ele>680.0</ele><time>2026-04-19T12:18:59.572Z</time></trkpt><trkpt lat="38.7323505" lon="16.3278472"><ele>680.0</ele><time>2026-04-19T12:19:00.577Z</time></trkpt><trkpt lat="38.7322694" lon="16.3278552"><ele>680.0</ele><time>2026-04-19T12:19:01.571Z</time></trkpt><trkpt lat="38.7322065" lon="16.3278277"><ele>680.0</ele><time>2026-04-19T12:19:02.574Z</time></trkpt><trkpt lat="38.7321292" lon="16.3278177"><ele>680.0</ele><time>2026-04-19T12:19:03.569Z</time></trkpt><trkpt lat="38.732065" lon="16.3278122"><ele>680.0</ele><time>2026-04-19T12:19:04.571Z</time></trkpt><trkpt lat="38.7319621" lon="16.3277878"><ele>680.0</ele><time>2026-04-19T12:19:06.578Z</time></trkpt><trkpt lat="38.7319059" lon="16.3276974"><ele>682.25</ele><time>2026-04-19T12:19:07.582Z</time></trkpt><trkpt lat="38.7318656" lon="16.3276012"><ele>684.5</ele><time>2026-04-19T12:19:08.571Z</time></trkpt><trkpt lat="38.7318196" lon="16.3274822"><ele>686.75</ele><time>2026-04-19T12:19:09.576Z</time></trkpt><trkpt lat="38.7317246" lon="16.3273181"><ele>689.0</ele><time>2026-04-19T12:19:10.569Z</time></trkpt><trkpt lat="38.731693" lon="16.3271253"><ele>689.0</ele><time>2026-04-19T12:19:11.578Z</time></trkpt><trkpt lat="38.7316934" lon="16.3269125"><ele>689.0</ele><time>2026-04-19T12:19:12.576Z</time></trkpt><trkpt lat="38.7316464" lon="16.3267398"><ele>689.0</ele><time>2026-04-19T12:19:13.583Z</time></trkpt><trkpt lat="38.7316166" lon="16.326584"><ele>689.0</ele><time>2026-04-19T12:19:14.579Z</time></trkpt><trkpt lat="38.7316201" lon="16.3264582"><ele>686.5</ele><time>2026-04-19T12:19:15.571Z</time></trkpt><trkpt lat="38.7316246" lon="16.3262938"><ele>684.0</ele><time>2026-04-19T12:19:16.578Z</time></trkpt><trkpt lat="38.7316105" lon="16.3261494"><ele>681.5</ele><time>2026-04-19T12:19:17.574Z</time></trkpt><trkpt lat="38.7315828" lon="16.3260123"><ele>679.0</ele><time>2026-04-19T12:19:18.571Z</time></trkpt><trkpt lat="38.7315385" lon="16.325883"><ele>679.0</ele><time>2026-04-19T12:19:19.571Z</time></trkpt><trkpt lat="38.7314954" lon="16.3257576"><ele>679.0</ele><time>2026-04-19T12:19:20.577Z</time></trkpt><trkpt lat="38.7314299" lon="16.3256594"><ele>679.0</ele><time>2026-04-19T12:19:21.586Z</time></trkpt><trkpt lat="38.7313502" lon="16.3255724"><ele>679.0</ele><time>2026-04-19T12:19:22.575Z</time></trkpt><trkpt lat="38.731268" lon="16.325492"><ele>679.0</ele><time>2026-04-19T12:19:23.575Z</time></trkpt><trkpt lat="38.7312119" lon="16.3254119"><ele>679.0</ele><time>2026-04-19T12:19:24.577Z</time></trkpt><trkpt lat="38.7311682" lon="16.3253405"><ele>679.0</ele><time>2026-04-19T12:19:25.57Z</time></trkpt><trkpt lat="38.7311288" lon="16.3252722"><ele>679.0</ele><time>2026-04-19T12:19:26.579Z</time></trkpt><trkpt lat="38.7310802" lon="16.3252092"><ele>679.0</ele><time>2026-04-19T12:19:27.576Z</time></trkpt><trkpt lat="38.7310332" lon="16.3251323"><ele>679.0</ele><time>2026-04-19T12:19:28.582Z</time></trkpt><trkpt lat="38.7309772" lon="16.3250561"><ele>679.0</ele><time>2026-04-19T12:19:29.572Z</time></trkpt><trkpt lat="38.7309142" lon="16.3249736"><ele>679.0</ele><time>2026-04-19T12:19:30.579Z</time></trkpt><trkpt lat="38.7308476" lon="16.3248996"><ele>679.0</ele><time>2026-04-19T12:19:31.57Z</time></trkpt><trkpt lat="38.7307879" lon="16.3248358"><ele>679.0</ele><time>2026-04-19T12:19:32.576Z</time></trkpt><trkpt lat="38.7307234" lon="16.3247862"><ele>679.0</ele><time>2026-04-19T12:19:33.575Z</time></trkpt><trkpt lat="38.7306618" lon="16.3247546"><ele>679.0</ele><time>2026-04-19T12:19:34.576Z</time></trkpt><trkpt lat="38.7305901" lon="16.3247027"><ele>679.0</ele><time>2026-04-19T12:19:35.566Z</time></trkpt><trkpt lat="38.7305133" lon="16.3246605"><ele>677.6</ele><time>2026-04-19T12:19:36.57Z</time></trkpt><trkpt lat="38.7304335" lon="16.3246279"><ele>676.2</ele><time>2026-04-19T12:19:37.567Z</time></trkpt><trkpt lat="38.7303009" lon="16.3245772"><ele>674.8000000000001</ele><time>2026-04-19T12:19:38.563Z</time></trkpt><trkpt lat="38.7301831" lon="16.3245477"><ele>673.4000000000001</ele><time>2026-04-19T12:19:39.566Z</time></trkpt><trkpt lat="38.7300853" lon="16.3245086"><ele>672.0</ele><time>2026-04-19T12:19:40.567Z</time></trkpt><trkpt lat="38.729975" lon="16.3244735"><ele>672.0</ele><time>2026-04-19T12:19:41.562Z</time></trkpt><trkpt lat="38.7298494" lon="16.3244405"><ele>672.0</ele><time>2026-04-19T12:19:42.571Z</time></trkpt><trkpt lat="38.7297343" lon="16.3244133"><ele>672.0</ele><time>2026-04-19T12:19:43.566Z</time></trkpt><trkpt lat="38.7296401" lon="16.3243888"><ele>672.0</ele><time>2026-04-19T12:19:44.567Z</time></trkpt><trkpt lat="38.7295462" lon="16.3243576"><ele>672.0</ele><time>2026-04-19T12:19:45.567Z</time></trkpt><trkpt lat="38.7294494" lon="16.3242856"><ele>673.5</ele><time>2026-04-19T12:19:46.569Z</time></trkpt><trkpt lat="38.7293346" lon="16.324163"><ele>675.0</ele><time>2026-04-19T12:19:47.571Z</time></trkpt><trkpt lat="38.7292464" lon="16.324031"><ele>676.5</ele><time>2026-04-19T12:19:48.571Z</time></trkpt><trkpt lat="38.7291306" lon="16.3239309"><ele>678.0</ele><time>2026-04-19T12:19:49.595Z</time></trkpt><trkpt lat="38.7290166" lon="16.3238436"><ele>675.0</ele><time>2026-04-19T12:19:50.566Z</time></trkpt><trkpt lat="38.7289512" lon="16.3237937"><ele>672.0</ele><time>2026-04-19T12:19:51.569Z</time></trkpt><trkpt lat="38.728831" lon="16.3237551"><ele>669.0</ele><time>2026-04-19T12:19:52.57Z</time></trkpt><trkpt lat="38.7286783" lon="16.323738"><ele>666.0</ele><time>2026-04-19T12:19:53.563Z</time></trkpt><trkpt lat="38.7285736" lon="16.3237438"><ele>667.1999999999999</ele><time>2026-04-19T12:19:54.57Z</time></trkpt><trkpt lat="38.7284695" lon="16.3237627"><ele>668.4</ele><time>2026-04-19T12:19:55.563Z</time></trkpt><trkpt lat="38.7283699" lon="16.3237942"><ele>669.6</ele><time>2026-04-19T12:19:56.601Z</time></trkpt><trkpt lat="38.7282493" lon="16.3238332"><ele>670.8</ele><time>2026-04-19T12:19:57.564Z</time></trkpt><trkpt lat="38.7281455" lon="16.3238665"><ele>672.0</ele><time>2026-04-19T12:19:58.565Z</time></trkpt><trkpt lat="38.7280538" lon="16.3239004"><ele>672.0</ele><time>2026-04-19T12:19:59.563Z</time></trkpt><trkpt lat="38.7279713" lon="16.3239183"><ele>672.0</ele><time>2026-04-19T12:20:00.565Z</time></trkpt><trkpt lat="38.7279081" lon="16.3239172"><ele>672.0</ele><time>2026-04-19T12:20:01.587Z</time></trkpt><trkpt lat="38.7278494" lon="16.3238745"><ele>672.0</ele><time>2026-04-19T12:20:02.561Z</time></trkpt><trkpt lat="38.7278038" lon="16.3238011"><ele>672.0</ele><time>2026-04-19T12:20:03.562Z</time></trkpt><trkpt lat="38.7277579" lon="16.323742"><ele>672.0</ele><time>2026-04-19T12:20:04.564Z</time></trkpt><trkpt lat="38.7277475" lon="16.3236589"><ele>672.0</ele><time>2026-04-19T12:20:05.562Z</time></trkpt><trkpt lat="38.7277379" lon="16.3235689"><ele>672.0</ele><time>2026-04-19T12:20:06.561Z</time></trkpt><trkpt lat="38.7277301" lon="16.3234345"><ele>672.0</ele><time>2026-04-19T12:20:07.562Z</time></trkpt><trkpt lat="38.7277221" lon="16.3232668"><ele>672.0</ele><time>2026-04-19T12:20:08.573Z</time></trkpt><trkpt lat="38.7276861" lon="16.3231384"><ele>672.0</ele><time>2026-04-19T12:20:09.561Z</time></trkpt><trkpt lat="38.727665" lon="16.3230057"><ele>672.0</ele><time>2026-04-19T12:20:10.564Z</time></trkpt><trkpt lat="38.7276335" lon="16.322866"><ele>671.0</ele><time>2026-04-19T12:20:11.562Z</time></trkpt><trkpt lat="38.7276245" lon="16.3227358"><ele>670.0</ele><time>2026-04-19T12:20:12.56Z</time></trkpt><trkpt lat="38.7276257" lon="16.322624"><ele>669.0</ele><time>2026-04-19T12:20:13.57Z</time></trkpt><trkpt lat="38.7276199" lon="16.3225262"><ele>668.0</ele><time>2026-04-19T12:20:14.559Z</time></trkpt><trkpt lat="38.7276245" lon="16.3224269"><ele>667.0</ele><time>2026-04-19T12:20:15.599Z</time></trkpt><trkpt lat="38.7276276" lon="16.3223365"><ele>666.0</ele><time>2026-04-19T12:20:16.562Z</time></trkpt><trkpt lat="38.7276459" lon="16.3222387"><ele>664.8333333333334</ele><time>2026-04-19T12:20:17.563Z</time></trkpt><trkpt lat="38.7276643" lon="16.3221559"><ele>663.6666666666666</ele><time>2026-04-19T12:20:18.564Z</time></trkpt><trkpt lat="38.7276919" lon="16.3220488"><ele>662.5</ele><time>2026-04-19T12:20:19.563Z</time></trkpt><trkpt lat="38.7277326" lon="16.3219778"><ele>661.3333333333333</ele><time>2026-04-19T12:20:20.563Z</time></trkpt><trkpt lat="38.7278208" lon="16.3219053"><ele>660.1666666666666</ele><time>2026-04-19T12:20:21.576Z</time></trkpt><trkpt lat="38.7279173" lon="16.3218227"><ele>659.0</ele><time>2026-04-19T12:20:22.563Z</time></trkpt><trkpt lat="38.7280254" lon="16.3217255"><ele>659.0</ele><time>2026-04-19T12:20:23.564Z</time></trkpt><trkpt lat="38.7281145" lon="16.3216716"><ele>659.0</ele><time>2026-04-19T12:20:24.564Z</time></trkpt><trkpt lat="38.7282188" lon="16.3216451"><ele>659.0</ele><time>2026-04-19T12:20:25.571Z</time></trkpt><trkpt lat="38.728301" lon="16.3215822"><ele>659.0</ele><time>2026-04-19T12:20:26.562Z</time></trkpt><trkpt lat="38.7283403" lon="16.3214496"><ele>659.0</ele><time>2026-04-19T12:20:28.565Z</time></trkpt><trkpt lat="38.7282946" lon="16.3213369"><ele>655.5</ele><time>2026-04-19T12:20:30.565Z</time></trkpt><trkpt lat="38.728213" lon="16.3212692"><ele>652.0</ele><time>2026-04-19T12:20:31.566Z</time></trkpt><trkpt lat="38.728084" lon="16.321222"><ele>648.5</ele><time>2026-04-19T12:20:32.587Z</time></trkpt><trkpt lat="38.7279749" lon="16.3211483"><ele>645.0</ele><time>2026-04-19T12:20:33.565Z</time></trkpt><trkpt lat="38.7278861" lon="16.3211025"><ele>645.0</ele><time>2026-04-19T12:20:34.561Z</time></trkpt><trkpt lat="38.7278165" lon="16.3210355"><ele>645.0</ele><time>2026-04-19T12:20:35.564Z</time></trkpt><trkpt lat="38.7277591" lon="16.3209798"><ele>645.0</ele><time>2026-04-19T12:20:36.563Z</time></trkpt><trkpt lat="38.7276872" lon="16.3209022"><ele>645.0</ele><time>2026-04-19T12:20:37.562Z</time></trkpt><trkpt lat="38.7276091" lon="16.3208361"><ele>645.0</ele><time>2026-04-19T12:20:38.556Z</time></trkpt><trkpt lat="38.7275215" lon="16.3208344"><ele>645.0</ele><time>2026-04-19T12:20:39.578Z</time></trkpt><trkpt lat="38.7274575" lon="16.3207959"><ele>645.0</ele><time>2026-04-19T12:20:40.565Z</time></trkpt><trkpt lat="38.7274071" lon="16.3207377"><ele>645.0</ele><time>2026-04-19T12:20:41.563Z</time></trkpt><trkpt lat="38.727379" lon="16.3206634"><ele>645.0</ele><time>2026-04-19T12:20:42.568Z</time></trkpt><trkpt lat="38.7273653" lon="16.3205702"><ele>645.0</ele><time>2026-04-19T12:20:44.586Z</time></trkpt><trkpt lat="38.727376" lon="16.3204571"><ele>645.0</ele><time>2026-04-19T12:20:47.569Z</time></trkpt><trkpt lat="38.7274351" lon="16.3203253"><ele>645.0</ele><time>2026-04-19T12:20:49.566Z</time></trkpt><trkpt lat="38.7275194" lon="16.3202103"><ele>645.2</ele><time>2026-04-19T12:20:51.591Z</time></trkpt><trkpt lat="38.7275635" lon="16.3201251"><ele>645.4</ele><time>2026-04-19T12:20:52.565Z</time></trkpt><trkpt lat="38.7276045" lon="16.3200137"><ele>645.5999999999999</ele><time>2026-04-19T12:20:53.567Z</time></trkpt><trkpt lat="38.7276329" lon="16.319876"><ele>645.8</ele><time>2026-04-19T12:20:54.571Z</time></trkpt><trkpt lat="38.7276345" lon="16.3197306"><ele>646.0</ele><time>2026-04-19T12:20:55.571Z</time></trkpt><trkpt lat="38.7276298" lon="16.3195983"><ele>646.75</ele><time>2026-04-19T12:20:56.565Z</time></trkpt><trkpt lat="38.7276189" lon="16.3194614"><ele>647.5</ele><time>2026-04-19T12:20:57.568Z</time></trkpt><trkpt lat="38.7276051" lon="16.319297"><ele>648.25</ele><time>2026-04-19T12:20:58.57Z</time></trkpt><trkpt lat="38.7275911" lon="16.3191274"><ele>649.0</ele><time>2026-04-19T12:20:59.566Z</time></trkpt><trkpt lat="38.727572" lon="16.3190104"><ele>649.0</ele><time>2026-04-19T12:21:00.568Z</time></trkpt><trkpt lat="38.7275493" lon="16.3189188"><ele>649.0</ele><time>2026-04-19T12:21:01.567Z</time></trkpt><trkpt lat="38.727517" lon="16.3187876"><ele>649.0</ele><time>2026-04-19T12:21:03.567Z</time></trkpt><trkpt lat="38.7274662" lon="16.3186631"><ele>649.0</ele><time>2026-04-19T12:21:05.58Z</time></trkpt><trkpt lat="38.7274071" lon="16.3185685"><ele>649.0</ele><time>2026-04-19T12:21:07.585Z</time></trkpt><trkpt lat="38.7273307" lon="16.3184563"><ele>648.6</ele><time>2026-04-19T12:21:09.57Z</time></trkpt><trkpt lat="38.7272778" lon="16.3183879"><ele>648.2</ele><time>2026-04-19T12:21:10.57Z</time></trkpt><trkpt lat="38.7272103" lon="16.3183092"><ele>647.8000000000001</ele><time>2026-04-19T12:21:11.575Z</time></trkpt><trkpt lat="38.7271369" lon="16.3182182"><ele>647.4000000000001</ele><time>2026-04-19T12:21:12.568Z</time></trkpt><trkpt lat="38.7270542" lon="16.318118"><ele>647.0</ele><time>2026-04-19T12:21:13.575Z</time></trkpt><trkpt lat="38.7269802" lon="16.3180225"><ele>648.5</ele><time>2026-04-19T12:21:14.571Z</time></trkpt><trkpt lat="38.7269195" lon="16.3179613"><ele>650.0</ele><time>2026-04-19T12:21:15.572Z</time></trkpt><trkpt lat="38.7268305" lon="16.3178921"><ele>651.5</ele><time>2026-04-19T12:21:17.57Z</time></trkpt><trkpt lat="38.7268542" lon="16.3177891"><ele>653.0</ele><time>2026-04-19T12:21:20.574Z</time></trkpt><trkpt lat="38.7268991" lon="16.3177198"><ele>654.5</ele><time>2026-04-19T12:21:21.58Z</time></trkpt><trkpt lat="38.7269527" lon="16.3176265"><ele>656.0</ele><time>2026-04-19T12:21:22.568Z</time></trkpt><trkpt lat="38.7270087" lon="16.3175188"><ele>656.0</ele><time>2026-04-19T12:21:23.591Z</time></trkpt><trkpt lat="38.7270559" lon="16.3174291"><ele>656.0</ele><time>2026-04-19T12:21:24.575Z</time></trkpt><trkpt lat="38.7271029" lon="16.3173462"><ele>656.0</ele><time>2026-04-19T12:21:25.573Z</time></trkpt><trkpt lat="38.7271473" lon="16.3172663"><ele>656.0</ele><time>2026-04-19T12:21:26.573Z</time></trkpt><trkpt lat="38.7271916" lon="16.3171829"><ele>656.0</ele><time>2026-04-19T12:21:27.578Z</time></trkpt><trkpt lat="38.7272315" lon="16.3171094"><ele>656.0</ele><time>2026-04-19T12:21:28.601Z</time></trkpt><trkpt lat="38.727269" lon="16.3170386"><ele>655.3333333333333</ele><time>2026-04-19T12:21:29.577Z</time></trkpt><trkpt lat="38.727311" lon="16.31696"><ele>654.6666666666666</ele><time>2026-04-19T12:21:30.573Z</time></trkpt><trkpt lat="38.727355" lon="16.3168778"><ele>654.0</ele><time>2026-04-19T12:21:31.579Z</time></trkpt><trkpt lat="38.7273999" lon="16.3167939"><ele>653.3333333333334</ele><time>2026-04-19T12:21:32.572Z</time></trkpt><trkpt lat="38.7274417" lon="16.3167154"><ele>652.6666666666667</ele><time>2026-04-19T12:21:33.593Z</time></trkpt><trkpt lat="38.7274979" lon="16.316609"><ele>652.0</ele><time>2026-04-19T12:21:35.576Z</time></trkpt><trkpt lat="38.7275474" lon="16.3165294"><ele>652.0</ele><time>2026-04-19T12:21:37.579Z</time></trkpt><trkpt lat="38.7275904" lon="16.3164479"><ele>652.0</ele><time>2026-04-19T12:21:39.584Z</time></trkpt><trkpt lat="38.7276484" lon="16.3163512"><ele>652.0</ele><time>2026-04-19T12:21:41.583Z</time></trkpt><trkpt lat="38.7276945" lon="16.3162675"><ele>652.0</ele><time>2026-04-19T12:21:43.588Z</time></trkpt><trkpt lat="38.7277405" lon="16.3161802"><ele>652.0</ele><time>2026-04-19T12:21:46.579Z</time></trkpt><trkpt lat="38.7277943" lon="16.3161012"><ele>652.0</ele><time>2026-04-19T12:21:49.587Z</time></trkpt><trkpt lat="38.7278432" lon="16.3160184"><ele>649.5</ele><time>2026-04-19T12:21:52.583Z</time></trkpt><trkpt lat="38.7278936" lon="16.3159439"><ele>647.0</ele><time>2026-04-19T12:21:54.581Z</time></trkpt><trkpt lat="38.7279483" lon="16.3158821"><ele>644.5</ele><time>2026-04-19T12:21:56.586Z</time></trkpt><trkpt lat="38.7280115" lon="16.315787"><ele>642.0</ele><time>2026-04-19T12:21:59.585Z</time></trkpt><trkpt lat="38.7280233" lon="16.3156984"><ele>639.5</ele><time>2026-04-19T12:22:02.598Z</time></trkpt><trkpt lat="38.7279889" lon="16.3156294"><ele>637.0</ele><time>2026-04-19T12:22:06.621Z</time></trkpt><trkpt lat="38.7279549" lon="16.3155284"><ele>635.8333333333334</ele><time>2026-04-19T12:22:09.601Z</time></trkpt><trkpt lat="38.727928" lon="16.3154271"><ele>634.6666666666667</ele><time>2026-04-19T12:22:11.642Z</time></trkpt><trkpt lat="38.7279035" lon="16.315349"><ele>633.5</ele><time>2026-04-19T12:22:14.642Z</time></trkpt><trkpt lat="38.7278794" lon="16.3152714"><ele>632.3333333333334</ele><time>2026-04-19T12:22:21.611Z</time></trkpt><trkpt lat="38.7278376" lon="16.3151727"><ele>631.1666666666666</ele><time>2026-04-19T12:22:24.585Z</time></trkpt><trkpt lat="38.7278042" lon="16.3150544"><ele>630.0</ele><time>2026-04-19T12:22:26.585Z</time></trkpt><trkpt lat="38.7277728" lon="16.3149371"><ele>630.0</ele><time>2026-04-19T12:22:28.582Z</time></trkpt><trkpt lat="38.7277845" lon="16.3148451"><ele>630.0</ele><time>2026-04-19T12:22:30.586Z</time></trkpt><trkpt lat="38.727795" lon="16.3147621"><ele>630.0</ele><time>2026-04-19T12:22:32.592Z</time></trkpt><trkpt lat="38.7277907" lon="16.3146706"><ele>630.0</ele><time>2026-04-19T12:22:35.589Z</time></trkpt><trkpt lat="38.7277945" lon="16.3145894"><ele>630.0</ele><time>2026-04-19T12:22:37.588Z</time></trkpt><trkpt lat="38.7277954" lon="16.3144814"><ele>630.0</ele><time>2026-04-19T12:22:39.584Z</time></trkpt><trkpt lat="38.7277728" lon="16.3143729"><ele>630.0</ele><time>2026-04-19T12:22:41.578Z</time></trkpt><trkpt lat="38.7277254" lon="16.3142656"><ele>630.0</ele><time>2026-04-19T12:22:43.583Z</time></trkpt><trkpt lat="38.7277201" lon="16.3141721"><ele>630.0</ele><time>2026-04-19T12:22:45.582Z</time></trkpt><trkpt lat="38.7277097" lon="16.3140651"><ele>630.0</ele><time>2026-04-19T12:22:47.583Z</time></trkpt><trkpt lat="38.727662" lon="16.3139773"><ele>630.0</ele><time>2026-04-19T12:22:51.591Z</time></trkpt><trkpt lat="38.727639" lon="16.3138723"><ele>630.0</ele><time>2026-04-19T12:22:59.584Z</time></trkpt><trkpt lat="38.7276479" lon="16.3137839"><ele>630.0</ele><time>2026-04-19T12:23:06.578Z</time></trkpt><trkpt lat="38.7276617" lon="16.3136903"><ele>628.4285714285714</ele><time>2026-04-19T12:23:11.582Z</time></trkpt><trkpt lat="38.7276754" lon="16.3136071"><ele>626.8571428571429</ele><time>2026-04-19T12:23:16.578Z</time></trkpt><trkpt lat="38.7276746" lon="16.3135245"><ele>625.2857142857142</ele><time>2026-04-19T12:23:23.575Z</time></trkpt><trkpt lat="38.7277092" lon="16.3134346"><ele>623.7142857142858</ele><time>2026-04-19T12:23:28.578Z</time></trkpt><trkpt lat="38.7277389" lon="16.3133397"><ele>622.1428571428571</ele><time>2026-04-19T12:23:32.586Z</time></trkpt><trkpt lat="38.7277849" lon="16.3132702"><ele>620.5714285714286</ele><time>2026-04-19T12:23:36.579Z</time></trkpt><trkpt lat="38.7278356" lon="16.3132056"><ele>619.0</ele><time>2026-04-19T12:23:46.575Z</time></trkpt><trkpt lat="38.7278887" lon="16.3131381"><ele>617.5714285714286</ele><time>2026-04-19T12:23:51.575Z</time></trkpt><trkpt lat="38.7279551" lon="16.3130556"><ele>616.1428571428571</ele><time>2026-04-19T12:23:55.588Z</time></trkpt><trkpt lat="38.7280137" lon="16.3130033"><ele>614.7142857142858</ele><time>2026-04-19T12:23:58.578Z</time></trkpt><trkpt lat="38.7280848" lon="16.3129579"><ele>613.2857142857142</ele><time>2026-04-19T12:24:01.578Z</time></trkpt><trkpt lat="38.7281398" lon="16.312916"><ele>611.8571428571429</ele><time>2026-04-19T12:24:03.575Z</time></trkpt><trkpt lat="38.7282084" lon="16.3128804"><ele>610.4285714285714</ele><time>2026-04-19T12:24:05.574Z</time></trkpt><trkpt lat="38.7282664" lon="16.3128402"><ele>609.0</ele><time>2026-04-19T12:24:07.576Z</time></trkpt><trkpt lat="38.7283371" lon="16.3127617"><ele>609.0</ele><time>2026-04-19T12:24:09.576Z</time></trkpt><trkpt lat="38.7284024" lon="16.3126732"><ele>609.0</ele><time>2026-04-19T12:24:11.574Z</time></trkpt><trkpt lat="38.7284718" lon="16.3125891"><ele>609.0</ele><time>2026-04-19T12:24:13.577Z</time></trkpt><trkpt lat="38.7285346" lon="16.3125357"><ele>609.0</ele><time>2026-04-19T12:24:17.57Z</time></trkpt><trkpt lat="38.7285833" lon="16.3124741"><ele>609.0</ele><time>2026-04-19T12:24:21.583Z</time></trkpt><trkpt lat="38.7286425" lon="16.3124239"><ele>609.0</ele><time>2026-04-19T12:24:24.581Z</time></trkpt><trkpt lat="38.7286794" lon="16.3123568"><ele>607.5714285714286</ele><time>2026-04-19T12:24:26.582Z</time></trkpt><trkpt lat="38.7287098" lon="16.312232"><ele>606.1428571428571</ele><time>2026-04-19T12:24:29.581Z</time></trkpt><trkpt lat="38.728738" lon="16.3121515"><ele>604.7142857142858</ele><time>2026-04-19T12:24:31.581Z</time></trkpt><trkpt lat="38.7287637" lon="16.3120717"><ele>603.2857142857142</ele><time>2026-04-19T12:24:46.581Z</time></trkpt><trkpt lat="38.7288012" lon="16.3120019"><ele>601.8571428571429</ele><time>2026-04-19T12:24:58.591Z</time></trkpt><trkpt lat="38.7288368" lon="16.3119349"><ele>600.4285714285714</ele><time>2026-04-19T12:30:02.547Z</time></trkpt><trkpt lat="38.7288959" lon="16.3118981"><ele>599.0</ele><time>2026-04-19T12:30:10.579Z</time></trkpt><trkpt lat="38.7289457" lon="16.3118454"><ele>599.0</ele><time>2026-04-19T12:30:19.573Z</time></trkpt><trkpt lat="38.7290105" lon="16.3118104"><ele>599.0</ele><time>2026-04-19T12:30:27.583Z</time></trkpt><trkpt lat="38.7290775" lon="16.3117771"><ele>599.0</ele><time>2026-04-19T12:30:33.576Z</time></trkpt><trkpt lat="38.7291638" lon="16.3117146"><ele>599.0</ele><time>2026-04-19T12:31:04.571Z</time></trkpt><trkpt lat="38.7292218" lon="16.3116669"><ele>599.0</ele><time>2026-04-19T12:33:18.578Z</time></trkpt><trkpt lat="38.7292499" lon="16.3115689"><ele>599.0</ele><time>2026-04-19T12:33:21.583Z</time></trkpt><trkpt lat="38.72928" lon="16.3114886"><ele>599.0</ele><time>2026-04-19T12:33:24.587Z</time></trkpt><trkpt lat="38.7293204" lon="16.3114114"><ele>599.0</ele><time>2026-04-19T12:33:30.578Z</time></trkpt><trkpt lat="38.7293572" lon="16.3113204"><ele>599.0</ele><time>2026-04-19T12:33:32.583Z</time></trkpt><trkpt lat="38.7293896" lon="16.3112118"><ele>599.0</ele><time>2026-04-19T12:33:34.585Z</time></trkpt><trkpt lat="38.7294038" lon="16.3110921"><ele>599.0</ele><time>2026-04-19T12:33:36.584Z</time></trkpt><trkpt lat="38.7293743" lon="16.3109991"><ele>599.0</ele><time>2026-04-19T12:33:38.58Z</time></trkpt><trkpt lat="38.7293575" lon="16.3109151"><ele>598.0</ele><time>2026-04-19T12:33:40.582Z</time></trkpt><trkpt lat="38.7293716" lon="16.3108036"><ele>597.0</ele><time>2026-04-19T12:33:44.58Z</time></trkpt><trkpt lat="38.7294091" lon="16.3106694"><ele>596.0</ele><time>2026-04-19T12:33:47.595Z</time></trkpt><trkpt lat="38.7294562" lon="16.3105432"><ele>595.0</ele><time>2026-04-19T12:33:49.578Z</time></trkpt><trkpt lat="38.7294946" lon="16.3104254"><ele>594.0</ele><time>2026-04-19T12:33:52.606Z</time></trkpt><trkpt lat="38.7295463" lon="16.3103318"><ele>593.3333333333334</ele><time>2026-04-19T12:33:54.578Z</time></trkpt><trkpt lat="38.7295962" lon="16.3102787"><ele>592.6666666666666</ele><time>2026-04-19T12:33:58.579Z</time></trkpt><trkpt lat="38.7296594" lon="16.3102195"><ele>592.0</ele><time>2026-04-19T12:34:02.58Z</time></trkpt><trkpt lat="38.7297243" lon="16.3101483"><ele>591.3333333333333</ele><time>2026-04-19T12:34:05.582Z</time></trkpt><trkpt lat="38.7297733" lon="16.3100604"><ele>590.6666666666666</ele><time>2026-04-19T12:34:09.598Z</time></trkpt><trkpt lat="38.729815" lon="16.30997"><ele>590.0</ele><time>2026-04-19T12:34:12.588Z</time></trkpt><trkpt lat="38.7298473" lon="16.3098891"><ele>590.0</ele><time>2026-04-19T12:34:15.593Z</time></trkpt><trkpt lat="38.7298957" lon="16.3097953"><ele>590.0</ele><time>2026-04-19T12:34:20.581Z</time></trkpt><trkpt lat="38.7299267" lon="16.3097061"><ele>590.0</ele><time>2026-04-19T12:34:24.588Z</time></trkpt><trkpt lat="38.7299602" lon="16.3096079"><ele>590.0</ele><time>2026-04-19T12:34:29.586Z</time></trkpt><trkpt lat="38.7299786" lon="16.3095249"><ele>590.0</ele><time>2026-04-19T12:34:31.576Z</time></trkpt><trkpt lat="38.7300006" lon="16.3094442"><ele>590.0</ele><time>2026-04-19T12:34:33.582Z</time></trkpt><trkpt lat="38.7300191" lon="16.3093454"><ele>588.5</ele><time>2026-04-19T12:34:35.576Z</time></trkpt><trkpt lat="38.730029" lon="16.3092422"><ele>587.0</ele><time>2026-04-19T12:34:38.582Z</time></trkpt><trkpt lat="38.7300452" lon="16.3091477"><ele>585.5</ele><time>2026-04-19T12:34:42.576Z</time></trkpt><trkpt lat="38.7300629" lon="16.3090519"><ele>584.0</ele><time>2026-04-19T12:34:48.58Z</time></trkpt><trkpt lat="38.7300768" lon="16.3089698"><ele>582.5</ele><time>2026-04-19T12:34:54.58Z</time></trkpt><trkpt lat="38.7300908" lon="16.3088854"><ele>581.0</ele><time>2026-04-19T12:34:59.587Z</time></trkpt><trkpt lat="38.7300741" lon="16.3087759"><ele>579.2857142857143</ele><time>2026-04-19T12:35:03.582Z</time></trkpt><trkpt lat="38.7301252" lon="16.3086801"><ele>577.5714285714286</ele><time>2026-04-19T12:35:05.588Z</time></trkpt><trkpt lat="38.7302042" lon="16.3086366"><ele>575.8571428571429</ele><time>2026-04-19T12:35:08.584Z</time></trkpt><trkpt lat="38.7302531" lon="16.3086927"><ele>574.1428571428571</ele><time>2026-04-19T12:35:10.586Z</time></trkpt><trkpt lat="38.7303127" lon="16.308752"><ele>572.4285714285714</ele><time>2026-04-19T12:35:12.607Z</time></trkpt><trkpt lat="38.7303574" lon="16.308811"><ele>570.7142857142858</ele><time>2026-04-19T12:35:13.587Z</time></trkpt><trkpt lat="38.7304038" lon="16.3088672"><ele>569.0</ele><time>2026-04-19T12:35:14.577Z</time></trkpt><trkpt lat="38.7304828" lon="16.308946"><ele>569.0</ele><time>2026-04-19T12:35:16.574Z</time></trkpt><trkpt lat="38.7305599" lon="16.3089919"><ele>569.0</ele><time>2026-04-19T12:35:18.582Z</time></trkpt><trkpt lat="38.7306219" lon="16.3090389"><ele>569.0</ele><time>2026-04-19T12:35:20.578Z</time></trkpt><trkpt lat="38.7306988" lon="16.3090676"><ele>569.0</ele><time>2026-04-19T12:35:23.597Z</time></trkpt><trkpt lat="38.730773" lon="16.3090866"><ele>569.0</ele><time>2026-04-19T12:35:26.583Z</time></trkpt><trkpt lat="38.7308389" lon="16.3091092"><ele>569.0</ele><time>2026-04-19T12:35:28.596Z</time></trkpt><trkpt lat="38.7309145" lon="16.3091319"><ele>569.0</ele><time>2026-04-19T12:35:30.584Z</time></trkpt><trkpt lat="38.7309825" lon="16.3091479"><ele>569.0</ele><time>2026-04-19T12:35:33.583Z</time></trkpt><trkpt lat="38.7310805" lon="16.309149"><ele>569.0</ele><time>2026-04-19T12:35:36.586Z</time></trkpt><trkpt lat="38.7311624" lon="16.3091727"><ele>569.0</ele><time>2026-04-19T12:35:38.58Z</time></trkpt><trkpt lat="38.7311851" lon="16.3090836"><ele>569.0</ele><time>2026-04-19T12:35:40.587Z</time></trkpt><trkpt lat="38.7311509" lon="16.3089854"><ele>569.0</ele><time>2026-04-19T12:35:46.595Z</time></trkpt><trkpt lat="38.7311252" lon="16.3088988"><ele>565.1428571428572</ele><time>2026-04-19T12:35:49.591Z</time></trkpt><trkpt lat="38.7311188" lon="16.308816"><ele>561.2857142857143</ele><time>2026-04-19T12:35:51.588Z</time></trkpt><trkpt lat="38.731095" lon="16.3087088"><ele>557.4285714285714</ele><time>2026-04-19T12:35:54.592Z</time></trkpt><trkpt lat="38.7310665" lon="16.3086234"><ele>553.5714285714287</ele><time>2026-04-19T12:35:57.663Z</time></trkpt><trkpt lat="38.7310373" lon="16.3085456"><ele>549.7142857142858</ele><time>2026-04-19T12:36:01.653Z</time></trkpt><trkpt lat="38.7309874" lon="16.3084651"><ele>545.8571428571429</ele><time>2026-04-19T12:36:04.606Z</time></trkpt><trkpt lat="38.7309389" lon="16.3084105"><ele>542.0</ele><time>2026-04-19T12:36:08.633Z</time></trkpt><trkpt lat="38.7308694" lon="16.3083588"><ele>542.0</ele><time>2026-04-19T12:36:12.709Z</time></trkpt><trkpt lat="38.7308102" lon="16.3083159"><ele>542.0</ele><time>2026-04-19T12:36:15.03Z</time></trkpt><trkpt lat="38.7307617" lon="16.3082478"><ele>542.0</ele><time>2026-04-19T12:36:17.587Z</time></trkpt><trkpt lat="38.7307209" lon="16.308186"><ele>542.0</ele><time>2026-04-19T12:36:19.599Z</time></trkpt><trkpt lat="38.7306927" lon="16.3081087"><ele>542.0</ele><time>2026-04-19T12:36:22.589Z</time></trkpt><trkpt lat="38.7306487" lon="16.3080079"><ele>542.0</ele><time>2026-04-19T12:36:26.582Z</time></trkpt><trkpt lat="38.7306253" lon="16.3079221"><ele>542.0</ele><time>2026-04-19T12:36:28.591Z</time></trkpt><trkpt lat="38.7306135" lon="16.3078296"><ele>537.6</ele><time>2026-04-19T12:36:30.587Z</time></trkpt><trkpt lat="38.7305791" lon="16.30772"><ele>533.2</ele><time>2026-04-19T12:36:32.587Z</time></trkpt><trkpt lat="38.7305551" lon="16.3075804"><ele>528.8</ele><time>2026-04-19T12:36:34.587Z</time></trkpt><trkpt lat="38.730532" lon="16.3074778"><ele>524.4</ele><time>2026-04-19T12:36:36.593Z</time></trkpt><trkpt lat="38.7305466" lon="16.3073478"><ele>520.0</ele><time>2026-04-19T12:36:43.593Z</time></trkpt><trkpt lat="38.7305604" lon="16.307256"><ele>514.2</ele><time>2026-04-19T12:36:46.587Z</time></trkpt><trkpt lat="38.730548" lon="16.3071216"><ele>508.4</ele><time>2026-04-19T12:36:49.589Z</time></trkpt><trkpt lat="38.7305376" lon="16.3069759"><ele>502.6</ele><time>2026-04-19T12:36:51.587Z</time></trkpt><trkpt lat="38.7305298" lon="16.3068467"><ele>496.8</ele><time>2026-04-19T12:36:53.603Z</time></trkpt><trkpt lat="38.7304927" lon="16.3067661"><ele>491.0</ele><time>2026-04-19T12:36:55.593Z</time></trkpt><trkpt lat="38.7304387" lon="16.3067125"><ele>490.99999999999994</ele><time>2026-04-19T12:36:57.592Z</time></trkpt><trkpt lat="38.7303579" lon="16.3066546"><ele>491.0</ele><time>2026-04-19T12:36:59.588Z</time></trkpt><trkpt lat="38.7302623" lon="16.3066098"><ele>491.0</ele><time>2026-04-19T12:37:01.584Z</time></trkpt><trkpt lat="38.7301843" lon="16.3065805"><ele>491.0</ele><time>2026-04-19T12:37:03.591Z</time></trkpt><trkpt lat="38.730115" lon="16.3065967"><ele>490.99999999999994</ele><time>2026-04-19T12:37:05.594Z</time></trkpt><trkpt lat="38.7300354" lon="16.306647"><ele>491.0</ele><time>2026-04-19T12:37:07.598Z</time></trkpt><trkpt lat="38.7299532" lon="16.3067054"><ele>492.49999999999994</ele><time>2026-04-19T12:37:09.587Z</time></trkpt><trkpt lat="38.7298691" lon="16.3067437"><ele>494.0</ele><time>2026-04-19T12:37:11.584Z</time></trkpt><trkpt lat="38.7297829" lon="16.3067325"><ele>495.5</ele><time>2026-04-19T12:37:14.588Z</time></trkpt><trkpt lat="38.7296995" lon="16.3067304"><ele>497.0</ele><time>2026-04-19T12:37:19.593Z</time></trkpt><trkpt lat="38.7296566" lon="16.3066466"><ele>498.49999999999994</ele><time>2026-04-19T12:37:23.589Z</time></trkpt><trkpt lat="38.7296275" lon="16.306528"><ele>500.0</ele><time>2026-04-19T12:37:26.595Z</time></trkpt><trkpt lat="38.7296382" lon="16.3064307"><ele>495.66666666666663</ele><time>2026-04-19T12:37:28.607Z</time></trkpt><trkpt lat="38.7296627" lon="16.3063491"><ele>491.3333333333333</ele><time>2026-04-19T12:37:30.599Z</time></trkpt><trkpt lat="38.7296934" lon="16.306268"><ele>487.0</ele><time>2026-04-19T12:37:32.593Z</time></trkpt><trkpt lat="38.7297155" lon="16.3061911"><ele>482.66666666666663</ele><time>2026-04-19T12:37:35.588Z</time></trkpt><trkpt lat="38.7297515" lon="16.3060779"><ele>478.3333333333333</ele><time>2026-04-19T12:37:38.583Z</time></trkpt><trkpt lat="38.7297779" lon="16.3059726"><ele>474.0</ele><time>2026-04-19T12:37:40.591Z</time></trkpt><trkpt lat="38.7297956" lon="16.3058897"><ele>474.0</ele><time>2026-04-19T12:37:42.588Z</time></trkpt><trkpt lat="38.7298339" lon="16.3057704"><ele>474.0</ele><time>2026-04-19T12:37:44.584Z</time></trkpt><trkpt lat="38.7298495" lon="16.305689"><ele>474.0</ele><time>2026-04-19T12:37:45.588Z</time></trkpt><trkpt lat="38.7298719" lon="16.3056101"><ele>474.0</ele><time>2026-04-19T12:37:46.583Z</time></trkpt><trkpt lat="38.7298926" lon="16.3055337"><ele>474.0</ele><time>2026-04-19T12:37:47.588Z</time></trkpt><trkpt lat="38.7299258" lon="16.3054515"><ele>474.0</ele><time>2026-04-19T12:37:49.586Z</time></trkpt><trkpt lat="38.7299918" lon="16.3053798"><ele>469.3333333333333</ele><time>2026-04-19T12:37:51.59Z</time></trkpt><trkpt lat="38.7300874" lon="16.3053217"><ele>464.66666666666663</ele><time>2026-04-19T12:37:53.606Z</time></trkpt><trkpt lat="38.7301666" lon="16.3052513"><ele>460.0</ele><time>2026-04-19T12:37:55.588Z</time></trkpt><trkpt lat="38.730234" lon="16.305264"><ele>455.3333333333333</ele><time>2026-04-19T12:37:56.58Z</time></trkpt><trkpt lat="38.7303148" lon="16.3052895"><ele>450.66666666666663</ele><time>2026-04-19T12:37:57.582Z</time></trkpt><trkpt lat="38.7303846" lon="16.305331"><ele>446.0</ele><time>2026-04-19T12:37:58.579Z</time></trkpt><trkpt lat="38.7304962" lon="16.3053198"><ele>445.99999999999994</ele><time>2026-04-19T12:38:00.591Z</time></trkpt><trkpt lat="38.7305842" lon="16.3052927"><ele>446.0</ele><time>2026-04-19T12:38:02.588Z</time></trkpt><trkpt lat="38.7306472" lon="16.3052772"><ele>446.0</ele><time>2026-04-19T12:38:04.591Z</time></trkpt><trkpt lat="38.7307209" lon="16.3052751"><ele>446.0</ele><time>2026-04-19T12:38:09.588Z</time></trkpt><trkpt lat="38.7308082" lon="16.3052852"><ele>445.99999999999994</ele><time>2026-04-19T12:38:11.589Z</time></trkpt><trkpt lat="38.7309141" lon="16.3053294"><ele>446.0</ele><time>2026-04-19T12:38:13.584Z</time></trkpt><trkpt lat="38.7309928" lon="16.3053871"><ele>444.99999999999994</ele><time>2026-04-19T12:38:15.581Z</time></trkpt><trkpt lat="38.7310844" lon="16.3054891"><ele>444.0</ele><time>2026-04-19T12:38:17.586Z</time></trkpt><trkpt lat="38.7311416" lon="16.3055432"><ele>443.0</ele><time>2026-04-19T12:38:18.588Z</time></trkpt><trkpt lat="38.7311941" lon="16.3055945"><ele>442.0</ele><time>2026-04-19T12:38:19.584Z</time></trkpt><trkpt lat="38.7312412" lon="16.3056505"><ele>440.99999999999994</ele><time>2026-04-19T12:38:20.589Z</time></trkpt><trkpt lat="38.7312949" lon="16.3057076"><ele>440.0</ele><time>2026-04-19T12:38:21.589Z</time></trkpt><trkpt lat="38.7313671" lon="16.3058174"><ele>439.99999999999994</ele><time>2026-04-19T12:38:23.597Z</time></trkpt><trkpt lat="38.7313872" lon="16.3059366"><ele>440.0</ele><time>2026-04-19T12:38:25.59Z</time></trkpt><trkpt lat="38.7313823" lon="16.3060267"><ele>440.0</ele><time>2026-04-19T12:38:27.591Z</time></trkpt><trkpt lat="38.7313873" lon="16.3061535"><ele>440.0</ele><time>2026-04-19T12:38:30.585Z</time></trkpt><trkpt lat="38.7314474" lon="16.3061851"><ele>439.99999999999994</ele><time>2026-04-19T12:38:33.593Z</time></trkpt><trkpt lat="38.7315561" lon="16.3061247"><ele>440.0</ele><time>2026-04-19T12:38:35.584Z</time></trkpt><trkpt lat="38.7316143" lon="16.3060791"><ele>440.0</ele><time>2026-04-19T12:38:36.585Z</time></trkpt><trkpt lat="38.7317001" lon="16.3059953"><ele>440.0</ele><time>2026-04-19T12:38:38.586Z</time></trkpt><trkpt lat="38.7317852" lon="16.3059115"><ele>440.0</ele><time>2026-04-19T12:38:40.59Z</time></trkpt><trkpt lat="38.7318322" lon="16.3058534"><ele>440.0</ele><time>2026-04-19T12:38:41.584Z</time></trkpt><trkpt lat="38.7318734" lon="16.3057866"><ele>440.0</ele><time>2026-04-19T12:38:42.586Z</time></trkpt><trkpt lat="38.731925" lon="16.305621"><ele>433.66666666666663</ele><time>2026-04-19T12:38:44.591Z</time></trkpt><trkpt lat="38.7319492" lon="16.3055341"><ele>427.3333333333333</ele><time>2026-04-19T12:38:45.582Z</time></trkpt><trkpt lat="38.7319798" lon="16.3054535"><ele>421.0</ele><time>2026-04-19T12:38:46.605Z</time></trkpt><trkpt lat="38.7320237" lon="16.3053923"><ele>414.66666666666663</ele><time>2026-04-19T12:38:47.59Z</time></trkpt><trkpt lat="38.7321109" lon="16.3053273"><ele>408.3333333333333</ele><time>2026-04-19T12:38:49.589Z</time></trkpt><trkpt lat="38.7322407" lon="16.3053064"><ele>402.0</ele><time>2026-04-19T12:38:51.582Z</time></trkpt><trkpt lat="38.7323218" lon="16.3053255"><ele>402.0</ele><time>2026-04-19T12:38:52.581Z</time></trkpt><trkpt lat="38.7324245" lon="16.3053591"><ele>402.0</ele><time>2026-04-19T12:38:53.604Z</time></trkpt><trkpt lat="38.7324942" lon="16.3053795"><ele>402.0</ele><time>2026-04-19T12:38:54.585Z</time></trkpt><trkpt lat="38.7325787" lon="16.3053784"><ele>402.0</ele><time>2026-04-19T12:38:55.585Z</time></trkpt><trkpt lat="38.7326471" lon="16.3053565"><ele>402.0</ele><time>2026-04-19T12:38:56.586Z</time></trkpt><trkpt lat="38.7327167" lon="16.3053189"><ele>402.0</ele><time>2026-04-19T12:38:57.584Z</time></trkpt><trkpt lat="38.7328091" lon="16.3052643"><ele>401.0</ele><time>2026-04-19T12:38:58.583Z</time></trkpt><trkpt lat="38.7328926" lon="16.3052103"><ele>400.0</ele><time>2026-04-19T12:38:59.588Z</time></trkpt><trkpt lat="38.7329841" lon="16.3051649"><ele>399.0</ele><time>2026-04-19T12:39:00.6Z</time></trkpt><trkpt lat="38.7330585" lon="16.3051362"><ele>398.0</ele><time>2026-04-19T12:39:01.582Z</time></trkpt><trkpt lat="38.7331209" lon="16.3051106"><ele>397.0</ele><time>2026-04-19T12:39:02.581Z</time></trkpt><trkpt lat="38.733112" lon="16.30502"><ele>396.0</ele><time>2026-04-19T12:39:05.588Z</time></trkpt><trkpt lat="38.7329964" lon="16.3050096"><ele>396.0</ele><time>2026-04-19T12:39:07.592Z</time></trkpt><trkpt lat="38.7328842" lon="16.3050005"><ele>396.0</ele><time>2026-04-19T12:39:09.582Z</time></trkpt><trkpt lat="38.7327919" lon="16.3049793"><ele>396.0</ele><time>2026-04-19T12:39:11.576Z</time></trkpt><trkpt lat="38.7326954" lon="16.3049538"><ele>396.0</ele><time>2026-04-19T12:39:13.6Z</time></trkpt><trkpt lat="38.7326262" lon="16.3049217"><ele>396.0</ele><time>2026-04-19T12:39:15.585Z</time></trkpt><trkpt lat="38.7325769" lon="16.3048706"><ele>396.0</ele><time>2026-04-19T12:39:17.586Z</time></trkpt><trkpt lat="38.732523" lon="16.3047817"><ele>393.0</ele><time>2026-04-19T12:39:19.585Z</time></trkpt><trkpt lat="38.7324759" lon="16.3046944"><ele>390.0</ele><time>2026-04-19T12:39:21.586Z</time></trkpt><trkpt lat="38.7324076" lon="16.3046087"><ele>387.0</ele><time>2026-04-19T12:39:23.586Z</time></trkpt><trkpt lat="38.7323527" lon="16.3045532"><ele>384.0</ele><time>2026-04-19T12:39:24.58Z</time></trkpt><trkpt lat="38.7322943" lon="16.3045058"><ele>381.0</ele><time>2026-04-19T12:39:25.583Z</time></trkpt><trkpt lat="38.7322315" lon="16.3044786"><ele>378.0</ele><time>2026-04-19T12:39:26.589Z</time></trkpt><trkpt lat="38.7321426" lon="16.3044289"><ele>378.0</ele><time>2026-04-19T12:39:28.587Z</time></trkpt><trkpt lat="38.7321145" lon="16.3043426"><ele>378.0</ele><time>2026-04-19T12:39:30.587Z</time></trkpt><trkpt lat="38.7321322" lon="16.3042297"><ele>378.0</ele><time>2026-04-19T12:39:32.591Z</time></trkpt><trkpt lat="38.7322037" lon="16.3041268"><ele>378.0</ele><time>2026-04-19T12:39:34.582Z</time></trkpt><trkpt lat="38.7322462" lon="16.3040527"><ele>378.0</ele><time>2026-04-19T12:39:35.577Z</time></trkpt><trkpt lat="38.732275" lon="16.3039728"><ele>378.0</ele><time>2026-04-19T12:39:36.594Z</time></trkpt><trkpt lat="38.732308" lon="16.3038428"><ele>378.0</ele><time>2026-04-19T12:39:38.577Z</time></trkpt><trkpt lat="38.7323557" lon="16.3037735"><ele>378.0</ele><time>2026-04-19T12:39:43.629Z</time></trkpt><trkpt lat="38.7324445" lon="16.303829"><ele>378.0</ele><time>2026-04-19T12:39:47.599Z</time></trkpt><trkpt lat="38.7324889" lon="16.3039054"><ele>378.0</ele><time>2026-04-19T12:39:50.587Z</time></trkpt><trkpt lat="38.7325474" lon="16.3039766"><ele>378.0</ele><time>2026-04-19T12:39:52.598Z</time></trkpt><trkpt lat="38.7325999" lon="16.3040224"><ele>378.0</ele><time>2026-04-19T12:39:53.582Z</time></trkpt><trkpt lat="38.7326641" lon="16.3040742"><ele>376.59999999999997</ele><time>2026-04-19T12:39:54.579Z</time></trkpt><trkpt lat="38.7327322" lon="16.3041127"><ele>375.2</ele><time>2026-04-19T12:39:55.581Z</time></trkpt><trkpt lat="38.7328123" lon="16.3041304"><ele>373.8</ele><time>2026-04-19T12:39:56.585Z</time></trkpt><trkpt lat="38.7329048" lon="16.3041187"><ele>372.4</ele><time>2026-04-19T12:39:57.609Z</time></trkpt><trkpt lat="38.7329909" lon="16.3041095"><ele>371.0</ele><time>2026-04-19T12:39:58.582Z</time></trkpt><trkpt lat="38.7331083" lon="16.3040677"><ele>365.75</ele><time>2026-04-19T12:39:59.576Z</time></trkpt><trkpt lat="38.7332337" lon="16.3039114"><ele>360.5</ele><time>2026-04-19T12:40:00.581Z</time></trkpt><trkpt lat="38.7333284" lon="16.3038489"><ele>355.25</ele><time>2026-04-19T12:40:01.584Z</time></trkpt><trkpt lat="38.7334149" lon="16.3037743"><ele>350.0</ele><time>2026-04-19T12:40:02.598Z</time></trkpt><trkpt lat="38.7334877" lon="16.3037519"><ele>350.0</ele><time>2026-04-19T12:40:03.583Z</time></trkpt><trkpt lat="38.7335515" lon="16.3037651"><ele>350.0</ele><time>2026-04-19T12:40:04.579Z</time></trkpt><trkpt lat="38.733609" lon="16.303819"><ele>350.0</ele><time>2026-04-19T12:40:05.58Z</time></trkpt><trkpt lat="38.7336519" lon="16.3039478"><ele>350.0</ele><time>2026-04-19T12:40:06.576Z</time></trkpt><trkpt lat="38.7336975" lon="16.3040954"><ele>350.0</ele><time>2026-04-19T12:40:07.592Z</time></trkpt><trkpt lat="38.7337604" lon="16.3042701"><ele>349.5</ele><time>2026-04-19T12:40:08.582Z</time></trkpt><trkpt lat="38.7338135" lon="16.3044261"><ele>349.0</ele><time>2026-04-19T12:40:09.583Z</time></trkpt><trkpt lat="38.7338565" lon="16.3045718"><ele>348.5</ele><time>2026-04-19T12:40:10.587Z</time></trkpt><trkpt lat="38.7338947" lon="16.304707"><ele>348.0</ele><time>2026-04-19T12:40:11.589Z</time></trkpt><trkpt lat="38.7339246" lon="16.3048113"><ele>349.42857142857144</ele><time>2026-04-19T12:40:12.585Z</time></trkpt><trkpt lat="38.7339576" lon="16.3048885"><ele>350.8571428571429</ele><time>2026-04-19T12:40:13.588Z</time></trkpt><trkpt lat="38.7340103" lon="16.3049365"><ele>352.28571428571433</ele><time>2026-04-19T12:40:14.585Z</time></trkpt><trkpt lat="38.7340728" lon="16.3049558"><ele>353.7142857142857</ele><time>2026-04-19T12:40:15.585Z</time></trkpt><trkpt lat="38.7341369" lon="16.3049467"><ele>355.14285714285717</ele><time>2026-04-19T12:40:16.586Z</time></trkpt><trkpt lat="38.7342496" lon="16.3049598"><ele>356.5714285714286</ele><time>2026-04-19T12:40:18.582Z</time></trkpt><trkpt lat="38.734321" lon="16.3049732"><ele>358.0</ele><time>2026-04-19T12:40:20.588Z</time></trkpt><trkpt lat="38.7344102" lon="16.3049913"><ele>354.2</ele><time>2026-04-19T12:40:23.583Z</time></trkpt><trkpt lat="38.7344774" lon="16.3050006"><ele>350.4</ele><time>2026-04-19T12:40:25.584Z</time></trkpt><trkpt lat="38.73455" lon="16.3049302"><ele>346.59999999999997</ele><time>2026-04-19T12:40:28.586Z</time></trkpt><trkpt lat="38.7345498" lon="16.3047442"><ele>342.79999999999995</ele><time>2026-04-19T12:40:30.578Z</time></trkpt><trkpt lat="38.7345454" lon="16.3046241"><ele>339.0</ele><time>2026-04-19T12:40:31.592Z</time></trkpt><trkpt lat="38.7345584" lon="16.3045227"><ele>339.0</ele><time>2026-04-19T12:40:32.581Z</time></trkpt><trkpt lat="38.7345935" lon="16.3044308"><ele>339.0</ele><time>2026-04-19T12:40:33.588Z</time></trkpt><trkpt lat="38.7346286" lon="16.3043389"><ele>339.0</ele><time>2026-04-19T12:40:34.582Z</time></trkpt><trkpt lat="38.7346522" lon="16.3042358"><ele>339.0</ele><time>2026-04-19T12:40:35.594Z</time></trkpt><trkpt lat="38.7346698" lon="16.3041323"><ele>339.0</ele><time>2026-04-19T12:40:36.585Z</time></trkpt><trkpt lat="38.7347041" lon="16.3040329"><ele>339.0</ele><time>2026-04-19T12:40:37.586Z</time></trkpt><trkpt lat="38.7347447" lon="16.3039418"><ele>340.1666666666667</ele><time>2026-04-19T12:40:38.59Z</time></trkpt><trkpt lat="38.7347951" lon="16.3038618"><ele>341.3333333333333</ele><time>2026-04-19T12:40:39.583Z</time></trkpt><trkpt lat="38.734842" lon="16.3038003"><ele>342.5</ele><time>2026-04-19T12:40:40.59Z</time></trkpt><trkpt lat="38.7348818" lon="16.3037333"><ele>343.66666666666663</ele><time>2026-04-19T12:40:42.585Z</time></trkpt><trkpt lat="38.734929" lon="16.3036442"><ele>344.8333333333333</ele><time>2026-04-19T12:40:44.59Z</time></trkpt><trkpt lat="38.7349957" lon="16.3035197"><ele>346.0</ele><time>2026-04-19T12:40:46.6Z</time></trkpt><trkpt lat="38.7350524" lon="16.3034089"><ele>346.0</ele><time>2026-04-19T12:40:48.586Z</time></trkpt><trkpt lat="38.7350909" lon="16.3033435"><ele>346.0</ele><time>2026-04-19T12:40:49.584Z</time></trkpt><trkpt lat="38.7351368" lon="16.3032673"><ele>346.0</ele><time>2026-04-19T12:40:50.579Z</time></trkpt><trkpt lat="38.7351792" lon="16.3031924"><ele>346.0</ele><time>2026-04-19T12:40:51.583Z</time></trkpt><trkpt lat="38.7352085" lon="16.3031075"><ele>346.0</ele><time>2026-04-19T12:40:52.583Z</time></trkpt><trkpt lat="38.7352333" lon="16.3030054"><ele>346.0</ele><time>2026-04-19T12:40:53.582Z</time></trkpt><trkpt lat="38.7352593" lon="16.3028942"><ele>343.8</ele><time>2026-04-19T12:40:54.582Z</time></trkpt><trkpt lat="38.7352849" lon="16.3027813"><ele>341.6</ele><time>2026-04-19T12:40:55.582Z</time></trkpt><trkpt lat="38.7353126" lon="16.3026657"><ele>339.4</ele><time>2026-04-19T12:40:56.601Z</time></trkpt><trkpt lat="38.735344" lon="16.3025405"><ele>337.2</ele><time>2026-04-19T12:40:57.584Z</time></trkpt><trkpt lat="38.7353733" lon="16.3024141"><ele>335.0</ele><time>2026-04-19T12:40:58.591Z</time></trkpt><trkpt lat="38.7353994" lon="16.3022906"><ele>336.1666666666667</ele><time>2026-04-19T12:40:59.589Z</time></trkpt><trkpt lat="38.7354266" lon="16.3021704"><ele>337.33333333333337</ele><time>2026-04-19T12:41:00.581Z</time></trkpt><trkpt lat="38.7354513" lon="16.3020587"><ele>338.5</ele><time>2026-04-19T12:41:01.6Z</time></trkpt><trkpt lat="38.7354748" lon="16.3019521"><ele>339.6666666666667</ele><time>2026-04-19T12:41:02.584Z</time></trkpt><trkpt lat="38.7354958" lon="16.3018501"><ele>340.8333333333333</ele><time>2026-04-19T12:41:03.585Z</time></trkpt><trkpt lat="38.7355119" lon="16.3017534"><ele>342.0</ele><time>2026-04-19T12:41:04.589Z</time></trkpt><trkpt lat="38.73551" lon="16.3016667"><ele>341.99999999999994</ele><time>2026-04-19T12:41:05.584Z</time></trkpt><trkpt lat="38.7355093" lon="16.3015825"><ele>342.0</ele><time>2026-04-19T12:41:06.61Z</time></trkpt><trkpt lat="38.7355003" lon="16.3014968"><ele>342.0</ele><time>2026-04-19T12:41:07.583Z</time></trkpt><trkpt lat="38.7354859" lon="16.3014085"><ele>342.0</ele><time>2026-04-19T12:41:08.588Z</time></trkpt><trkpt lat="38.7354708" lon="16.3013165"><ele>342.0</ele><time>2026-04-19T12:41:09.586Z</time></trkpt><trkpt lat="38.7354513" lon="16.3012212"><ele>341.99999999999994</ele><time>2026-04-19T12:41:10.583Z</time></trkpt><trkpt lat="38.7354246" lon="16.3011063"><ele>342.0</ele><time>2026-04-19T12:41:11.586Z</time></trkpt><trkpt lat="38.735388" lon="16.300991"><ele>342.3333333333333</ele><time>2026-04-19T12:41:12.589Z</time></trkpt><trkpt lat="38.7353457" lon="16.3008916"><ele>342.6666666666667</ele><time>2026-04-19T12:41:13.587Z</time></trkpt><trkpt lat="38.7353059" lon="16.3007904"><ele>343.0</ele><time>2026-04-19T12:41:14.603Z</time></trkpt><trkpt lat="38.7352718" lon="16.3007015"><ele>343.33333333333337</ele><time>2026-04-19T12:41:15.594Z</time></trkpt><trkpt lat="38.7352402" lon="16.3006239"><ele>343.6666666666667</ele><time>2026-04-19T12:41:16.585Z</time></trkpt><trkpt lat="38.735186" lon="16.3004965"><ele>344.0</ele><time>2026-04-19T12:41:18.592Z</time></trkpt><trkpt lat="38.73513" lon="16.3003816"><ele>340.75</ele><time>2026-04-19T12:41:20.588Z</time></trkpt><trkpt lat="38.7350639" lon="16.3002782"><ele>337.5</ele><time>2026-04-19T12:41:22.597Z</time></trkpt><trkpt lat="38.7349807" lon="16.3000892"><ele>334.25</ele><time>2026-04-19T12:41:24.591Z</time></trkpt><trkpt lat="38.7349488" lon="16.2999419"><ele>331.0</ele><time>2026-04-19T12:41:25.592Z</time></trkpt><trkpt lat="38.7349298" lon="16.2998038"><ele>331.0</ele><time>2026-04-19T12:41:26.591Z</time></trkpt><trkpt lat="38.734912" lon="16.2996687"><ele>331.0</ele><time>2026-04-19T12:41:27.589Z</time></trkpt><trkpt lat="38.7349268" lon="16.2995244"><ele>331.0</ele><time>2026-04-19T12:41:28.609Z</time></trkpt><trkpt lat="38.7349481" lon="16.2994055"><ele>331.0</ele><time>2026-04-19T12:41:29.593Z</time></trkpt><trkpt lat="38.7349608" lon="16.2993145"><ele>331.0</ele><time>2026-04-19T12:41:30.594Z</time></trkpt><trkpt lat="38.7349695" lon="16.2992294"><ele>331.0</ele><time>2026-04-19T12:41:31.596Z</time></trkpt><trkpt lat="38.7349788" lon="16.2991471"><ele>331.0</ele><time>2026-04-19T12:41:32.593Z</time></trkpt><trkpt lat="38.7349961" lon="16.2990357"><ele>331.0</ele><time>2026-04-19T12:41:34.59Z</time></trkpt><trkpt lat="38.7350076" lon="16.2989457"><ele>331.0</ele><time>2026-04-19T12:41:38.614Z</time></trkpt><trkpt lat="38.7350334" lon="16.2988093"><ele>331.0</ele><time>2026-04-19T12:41:41.593Z</time></trkpt><trkpt lat="38.7350472" lon="16.2987157"><ele>331.0</ele><time>2026-04-19T12:41:42.591Z</time></trkpt><trkpt lat="38.7350624" lon="16.2985995"><ele>330.25</ele><time>2026-04-19T12:41:43.598Z</time></trkpt><trkpt lat="38.7350799" lon="16.298479"><ele>329.5</ele><time>2026-04-19T12:41:44.596Z</time></trkpt><trkpt lat="38.7351189" lon="16.2983014"><ele>328.75</ele><time>2026-04-19T12:41:45.603Z</time></trkpt><trkpt lat="38.7351527" lon="16.2981594"><ele>328.0</ele><time>2026-04-19T12:41:46.591Z</time></trkpt><trkpt lat="38.7351701" lon="16.298015"><ele>325.5</ele><time>2026-04-19T12:41:47.594Z</time></trkpt><trkpt lat="38.7351819" lon="16.2978637"><ele>323.0</ele><time>2026-04-19T12:41:48.591Z</time></trkpt><trkpt lat="38.7352003" lon="16.2977199"><ele>320.5</ele><time>2026-04-19T12:41:49.594Z</time></trkpt><trkpt lat="38.7352277" lon="16.2975474"><ele>318.0</ele><time>2026-04-19T12:41:50.614Z</time></trkpt><trkpt lat="38.7352511" lon="16.2973662"><ele>314.75</ele><time>2026-04-19T12:41:51.59Z</time></trkpt><trkpt lat="38.7352745" lon="16.2971836"><ele>311.5</ele><time>2026-04-19T12:41:52.591Z</time></trkpt><trkpt lat="38.7352935" lon="16.2970168"><ele>308.25</ele><time>2026-04-19T12:41:53.593Z</time></trkpt><trkpt lat="38.735317" lon="16.2968505"><ele>305.0</ele><time>2026-04-19T12:41:54.593Z</time></trkpt><trkpt lat="38.7353448" lon="16.2966939"><ele>305.0</ele><time>2026-04-19T12:41:55.614Z</time></trkpt><trkpt lat="38.7353778" lon="16.2965372"><ele>305.0</ele><time>2026-04-19T12:41:56.596Z</time></trkpt><trkpt lat="38.7354043" lon="16.2963974"><ele>305.0</ele><time>2026-04-19T12:41:57.594Z</time></trkpt><trkpt lat="38.73542" lon="16.2962723"><ele>305.0</ele><time>2026-04-19T12:41:58.596Z</time></trkpt><trkpt lat="38.7354244" lon="16.2961599"><ele>305.0</ele><time>2026-04-19T12:41:59.592Z</time></trkpt><trkpt lat="38.7354279" lon="16.29605"><ele>304.6666666666667</ele><time>2026-04-19T12:42:00.609Z</time></trkpt><trkpt lat="38.7354052" lon="16.2959402"><ele>304.33333333333337</ele><time>2026-04-19T12:42:01.59Z</time></trkpt><trkpt lat="38.7353693" lon="16.2958301"><ele>304.0</ele><time>2026-04-19T12:42:02.593Z</time></trkpt><trkpt lat="38.7353197" lon="16.2957264"><ele>303.6666666666667</ele><time>2026-04-19T12:42:03.59Z</time></trkpt><trkpt lat="38.735273" lon="16.2956287"><ele>303.3333333333333</ele><time>2026-04-19T12:42:04.592Z</time></trkpt><trkpt lat="38.7352365" lon="16.2955398"><ele>303.0</ele><time>2026-04-19T12:42:05.589Z</time></trkpt><trkpt lat="38.7352197" lon="16.295455"><ele>302.6</ele><time>2026-04-19T12:42:06.59Z</time></trkpt><trkpt lat="38.7352014" lon="16.2953222"><ele>302.20000000000005</ele><time>2026-04-19T12:42:08.59Z</time></trkpt><trkpt lat="38.7351975" lon="16.2952153"><ele>301.8</ele><time>2026-04-19T12:42:10.594Z</time></trkpt><trkpt lat="38.7351793" lon="16.2950502"><ele>301.40000000000003</ele><time>2026-04-19T12:42:12.596Z</time></trkpt><trkpt lat="38.7351668" lon="16.2949452"><ele>301.0</ele><time>2026-04-19T12:42:13.597Z</time></trkpt><trkpt lat="38.7351532" lon="16.2948024"><ele>298.8</ele><time>2026-04-19T12:42:14.59Z</time></trkpt><trkpt lat="38.7351449" lon="16.2946637"><ele>296.6</ele><time>2026-04-19T12:42:15.59Z</time></trkpt><trkpt lat="38.7351392" lon="16.2945433"><ele>294.4</ele><time>2026-04-19T12:42:16.59Z</time></trkpt><trkpt lat="38.7351333" lon="16.2944298"><ele>292.2</ele><time>2026-04-19T12:42:17.594Z</time></trkpt><trkpt lat="38.7351238" lon="16.2943164"><ele>290.0</ele><time>2026-04-19T12:42:18.593Z</time></trkpt><trkpt lat="38.7351136" lon="16.2942104"><ele>290.0</ele><time>2026-04-19T12:42:19.593Z</time></trkpt><trkpt lat="38.7350943" lon="16.2941187"><ele>290.0</ele><time>2026-04-19T12:42:20.606Z</time></trkpt><trkpt lat="38.7350668" lon="16.2940211"><ele>290.0</ele><time>2026-04-19T12:42:21.598Z</time></trkpt><trkpt lat="38.735041" lon="16.2939174"><ele>290.0</ele><time>2026-04-19T12:42:22.587Z</time></trkpt><trkpt lat="38.7350389" lon="16.2938149"><ele>290.0</ele><time>2026-04-19T12:42:23.595Z</time></trkpt><trkpt lat="38.7350394" lon="16.2937118"><ele>290.0</ele><time>2026-04-19T12:42:24.588Z</time></trkpt><trkpt lat="38.7350494" lon="16.2936081"><ele>289.6666666666667</ele><time>2026-04-19T12:42:25.612Z</time></trkpt><trkpt lat="38.7350756" lon="16.2935168"><ele>289.33333333333337</ele><time>2026-04-19T12:42:26.589Z</time></trkpt><trkpt lat="38.7351199" lon="16.2934368"><ele>289.0</ele><time>2026-04-19T12:42:27.596Z</time></trkpt><trkpt lat="38.7351655" lon="16.2933522"><ele>288.6666666666667</ele><time>2026-04-19T12:42:28.591Z</time></trkpt><trkpt lat="38.7352072" lon="16.2932732"><ele>288.3333333333333</ele><time>2026-04-19T12:42:29.588Z</time></trkpt><trkpt lat="38.7352307" lon="16.2931885"><ele>288.0</ele><time>2026-04-19T12:42:30.593Z</time></trkpt><trkpt lat="38.7352394" lon="16.2930905"><ele>291.3333333333333</ele><time>2026-04-19T12:42:31.592Z</time></trkpt><trkpt lat="38.7352501" lon="16.2929774"><ele>294.6666666666667</ele><time>2026-04-19T12:42:32.594Z</time></trkpt><trkpt lat="38.7352784" lon="16.2928555"><ele>298.0</ele><time>2026-04-19T12:42:33.594Z</time></trkpt><trkpt lat="38.7353037" lon="16.2927516"><ele>301.33333333333337</ele><time>2026-04-19T12:42:34.606Z</time></trkpt><trkpt lat="38.7353292" lon="16.2926534"><ele>304.6666666666667</ele><time>2026-04-19T12:42:35.588Z</time></trkpt><trkpt lat="38.735353" lon="16.2925694"><ele>308.0</ele><time>2026-04-19T12:42:36.592Z</time></trkpt><trkpt lat="38.7353821" lon="16.2924943"><ele>308.0</ele><time>2026-04-19T12:42:37.587Z</time></trkpt><trkpt lat="38.7354258" lon="16.2923602"><ele>308.0</ele><time>2026-04-19T12:42:39.619Z</time></trkpt><trkpt lat="38.7354491" lon="16.2922802"><ele>308.0</ele><time>2026-04-19T12:42:41.59Z</time></trkpt><trkpt lat="38.7354557" lon="16.2921616"><ele>308.0</ele><time>2026-04-19T12:42:43.592Z</time></trkpt><trkpt lat="38.7354344" lon="16.2920502"><ele>308.0</ele><time>2026-04-19T12:42:45.594Z</time></trkpt><trkpt lat="38.7353995" lon="16.291943"><ele>306.5</ele><time>2026-04-19T12:42:47.609Z</time></trkpt><trkpt lat="38.7353764" lon="16.2918361"><ele>305.0</ele><time>2026-04-19T12:42:49.592Z</time></trkpt><trkpt lat="38.7353727" lon="16.2917375"><ele>303.5</ele><time>2026-04-19T12:42:51.59Z</time></trkpt><trkpt lat="38.7353904" lon="16.2916395"><ele>302.0</ele><time>2026-04-19T12:42:53.594Z</time></trkpt><trkpt lat="38.7354219" lon="16.2915353"><ele>300.5</ele><time>2026-04-19T12:42:55.591Z</time></trkpt><trkpt lat="38.7354495" lon="16.2914531"><ele>299.0</ele><time>2026-04-19T12:42:57.582Z</time></trkpt><trkpt lat="38.7354656" lon="16.2913624"><ele>296.8</ele><time>2026-04-19T12:42:59.588Z</time></trkpt><trkpt lat="38.7354748" lon="16.2912629"><ele>294.59999999999997</ele><time>2026-04-19T12:43:00.582Z</time></trkpt><trkpt lat="38.7354858" lon="16.2911706"><ele>292.4</ele><time>2026-04-19T12:43:02.584Z</time></trkpt><trkpt lat="38.735493" lon="16.2910786"><ele>290.2</ele><time>2026-04-19T12:43:04.585Z</time></trkpt><trkpt lat="38.735501" lon="16.2908914"><ele>288.0</ele><time>2026-04-19T12:43:06.578Z</time></trkpt><trkpt lat="38.7355194" lon="16.2907868"><ele>288.0</ele><time>2026-04-19T12:43:07.582Z</time></trkpt><trkpt lat="38.7355579" lon="16.2906633"><ele>288.0</ele><time>2026-04-19T12:43:09.585Z</time></trkpt><trkpt lat="38.735586" lon="16.2905477"><ele>288.0</ele><time>2026-04-19T12:43:11.586Z</time></trkpt><trkpt lat="38.7356062" lon="16.2903916"><ele>288.0</ele><time>2026-04-19T12:43:13.581Z</time></trkpt><trkpt lat="38.7356529" lon="16.290285"><ele>288.0</ele><time>2026-04-19T12:43:15.579Z</time></trkpt><trkpt lat="38.7357173" lon="16.2901318"><ele>284.5</ele><time>2026-04-19T12:43:17.581Z</time></trkpt><trkpt lat="38.7357784" lon="16.2899992"><ele>281.0</ele><time>2026-04-19T12:43:19.594Z</time></trkpt><trkpt lat="38.7358473" lon="16.2898932"><ele>277.5</ele><time>2026-04-19T12:43:21.585Z</time></trkpt><trkpt lat="38.7359172" lon="16.2897805"><ele>274.0</ele><time>2026-04-19T12:43:23.576Z</time></trkpt><trkpt lat="38.735946" lon="16.2896129"><ele>271.16666666666663</ele><time>2026-04-19T12:43:25.586Z</time></trkpt><trkpt lat="38.7359482" lon="16.2895171"><ele>268.3333333333333</ele><time>2026-04-19T12:43:26.58Z</time></trkpt><trkpt lat="38.7359491" lon="16.2894317"><ele>265.5</ele><time>2026-04-19T12:43:27.579Z</time></trkpt><trkpt lat="38.7359542" lon="16.289348"><ele>262.6666666666667</ele><time>2026-04-19T12:43:28.583Z</time></trkpt><trkpt lat="38.7359516" lon="16.289195"><ele>259.83333333333337</ele><time>2026-04-19T12:43:29.584Z</time></trkpt><trkpt lat="38.7359564" lon="16.2890884"><ele>257.0</ele><time>2026-04-19T12:43:30.588Z</time></trkpt><trkpt lat="38.7359676" lon="16.2889744"><ele>255.66666666666669</ele><time>2026-04-19T12:43:31.58Z</time></trkpt><trkpt lat="38.7359771" lon="16.2888553"><ele>254.33333333333334</ele><time>2026-04-19T12:43:32.587Z</time></trkpt><trkpt lat="38.7359954" lon="16.2887415"><ele>253.0</ele><time>2026-04-19T12:43:33.581Z</time></trkpt><trkpt lat="38.7360102" lon="16.2886425"><ele>251.66666666666669</ele><time>2026-04-19T12:43:34.579Z</time></trkpt><trkpt lat="38.736029" lon="16.2885415"><ele>250.33333333333334</ele><time>2026-04-19T12:43:35.582Z</time></trkpt><trkpt lat="38.7360469" lon="16.2884459"><ele>249.0</ele><time>2026-04-19T12:43:36.581Z</time></trkpt><trkpt lat="38.7360663" lon="16.288356"><ele>249.0</ele><time>2026-04-19T12:43:37.602Z</time></trkpt><trkpt lat="38.7360881" lon="16.2882753"><ele>248.99999999999997</ele><time>2026-04-19T12:43:38.581Z</time></trkpt><trkpt lat="38.7361227" lon="16.2881981"><ele>249.0</ele><time>2026-04-19T12:43:39.581Z</time></trkpt><trkpt lat="38.7361685" lon="16.288126"><ele>249.0</ele><time>2026-04-19T12:43:40.576Z</time></trkpt><trkpt lat="38.7362105" lon="16.2880547"><ele>248.99999999999997</ele><time>2026-04-19T12:43:41.577Z</time></trkpt><trkpt lat="38.7362464" lon="16.2879747"><ele>249.0</ele><time>2026-04-19T12:43:42.586Z</time></trkpt><trkpt lat="38.7362777" lon="16.2878958"><ele>249.0</ele><time>2026-04-19T12:43:43.586Z</time></trkpt><trkpt lat="38.736288" lon="16.287816"><ele>249.0</ele><time>2026-04-19T12:43:44.593Z</time></trkpt><trkpt lat="38.7362927" lon="16.2877322"><ele>249.0</ele><time>2026-04-19T12:43:45.588Z</time></trkpt><trkpt lat="38.7362901" lon="16.2876345"><ele>249.0</ele><time>2026-04-19T12:43:46.589Z</time></trkpt><trkpt lat="38.7362794" lon="16.2875164"><ele>249.0</ele><time>2026-04-19T12:43:47.589Z</time></trkpt><trkpt lat="38.7362602" lon="16.2873958"><ele>249.0</ele><time>2026-04-19T12:43:48.593Z</time></trkpt><trkpt lat="38.7362403" lon="16.287287"><ele>249.0</ele><time>2026-04-19T12:43:49.589Z</time></trkpt><trkpt lat="38.7362167" lon="16.287184"><ele>247.79999999999998</ele><time>2026-04-19T12:43:50.618Z</time></trkpt><trkpt lat="38.7361926" lon="16.2870779"><ele>246.59999999999997</ele><time>2026-04-19T12:43:51.594Z</time></trkpt><trkpt lat="38.7361858" lon="16.2869682"><ele>245.4</ele><time>2026-04-19T12:43:52.587Z</time></trkpt><trkpt lat="38.7361864" lon="16.2868516"><ele>244.2</ele><time>2026-04-19T12:43:53.586Z</time></trkpt><trkpt lat="38.7361702" lon="16.2867408"><ele>243.0</ele><time>2026-04-19T12:43:54.589Z</time></trkpt><trkpt lat="38.7361596" lon="16.2866129"><ele>243.0</ele><time>2026-04-19T12:43:55.583Z</time></trkpt><trkpt lat="38.7361406" lon="16.2864932"><ele>243.0</ele><time>2026-04-19T12:43:56.606Z</time></trkpt><trkpt lat="38.7361212" lon="16.2863759"><ele>243.0</ele><time>2026-04-19T12:43:57.586Z</time></trkpt><trkpt lat="38.7361026" lon="16.2862886"><ele>243.0</ele><time>2026-04-19T12:43:58.586Z</time></trkpt><trkpt lat="38.7360912" lon="16.2862003"><ele>243.0</ele><time>2026-04-19T12:43:59.586Z</time></trkpt><trkpt lat="38.7360932" lon="16.2861164"><ele>243.0</ele><time>2026-04-19T12:44:00.587Z</time></trkpt><trkpt lat="38.7361275" lon="16.285995"><ele>241.8</ele><time>2026-04-19T12:44:02.597Z</time></trkpt><trkpt lat="38.7361768" lon="16.2858498"><ele>240.60000000000002</ele><time>2026-04-19T12:44:04.585Z</time></trkpt><trkpt lat="38.7361962" lon="16.2857693"><ele>239.39999999999998</ele><time>2026-04-19T12:44:05.584Z</time></trkpt><trkpt lat="38.7361949" lon="16.285633"><ele>238.2</ele><time>2026-04-19T12:44:07.585Z</time></trkpt><trkpt lat="38.7361737" lon="16.2854702"><ele>237.0</ele><time>2026-04-19T12:44:09.581Z</time></trkpt><trkpt lat="38.7361676" lon="16.285383"><ele>236.83333333333334</ele><time>2026-04-19T12:44:10.589Z</time></trkpt><trkpt lat="38.7361702" lon="16.2852382"><ele>236.66666666666669</ele><time>2026-04-19T12:44:12.585Z</time></trkpt><trkpt lat="38.736161" lon="16.2851509"><ele>236.5</ele><time>2026-04-19T12:44:13.593Z</time></trkpt><trkpt lat="38.7361433" lon="16.2850388"><ele>236.33333333333334</ele><time>2026-04-19T12:44:14.588Z</time></trkpt><trkpt lat="38.736142" lon="16.2849285"><ele>236.16666666666669</ele><time>2026-04-19T12:44:15.591Z</time></trkpt><trkpt lat="38.7361402" lon="16.28483"><ele>236.0</ele><time>2026-04-19T12:44:16.602Z</time></trkpt><trkpt lat="38.7361356" lon="16.2847423"><ele>236.0</ele><time>2026-04-19T12:44:17.583Z</time></trkpt><trkpt lat="38.7361597" lon="16.2846509"><ele>236.00000000000003</ele><time>2026-04-19T12:44:18.583Z</time></trkpt><trkpt lat="38.73622" lon="16.28447"><ele>236.00000000000003</ele><time>2026-04-19T12:44:19.582Z</time></trkpt><trkpt lat="38.7362495" lon="16.2843527"><ele>236.0</ele><time>2026-04-19T12:44:20.583Z</time></trkpt><trkpt lat="38.7362944" lon="16.2842608"><ele>236.0</ele><time>2026-04-19T12:44:21.608Z</time></trkpt><trkpt lat="38.7363346" lon="16.2841913"><ele>236.0</ele><time>2026-04-19T12:44:22.587Z</time></trkpt><trkpt lat="38.7363968" lon="16.284033"><ele>236.00000000000003</ele><time>2026-04-19T12:44:24.583Z</time></trkpt><trkpt lat="38.7364406" lon="16.2839614"><ele>236.00000000000003</ele><time>2026-04-19T12:44:25.583Z</time></trkpt><trkpt lat="38.736542" lon="16.2838501"><ele>236.0</ele><time>2026-04-19T12:44:27.606Z</time></trkpt><trkpt lat="38.7365909" lon="16.2837512"><ele>236.0</ele><time>2026-04-19T12:44:29.581Z</time></trkpt><trkpt lat="38.7366257" lon="16.2836493"><ele>235.8</ele><time>2026-04-19T12:44:30.585Z</time></trkpt><trkpt lat="38.7366662" lon="16.2835868"><ele>235.60000000000002</ele><time>2026-04-19T12:44:31.576Z</time></trkpt><trkpt lat="38.7367306" lon="16.2835328"><ele>235.4</ele><time>2026-04-19T12:44:33.587Z</time></trkpt><trkpt lat="38.7368341" lon="16.2834296"><ele>235.2</ele><time>2026-04-19T12:44:35.589Z</time></trkpt><trkpt lat="38.7369225" lon="16.2833567"><ele>235.0</ele><time>2026-04-19T12:44:37.577Z</time></trkpt><trkpt lat="38.7369733" lon="16.2832828"><ele>230.83333333333331</ele><time>2026-04-19T12:44:39.584Z</time></trkpt><trkpt lat="38.7369958" lon="16.2832072"><ele>226.66666666666666</ele><time>2026-04-19T12:44:41.578Z</time></trkpt><trkpt lat="38.7370263" lon="16.2831058"><ele>222.5</ele><time>2026-04-19T12:44:43.579Z</time></trkpt><trkpt lat="38.7370623" lon="16.2830127"><ele>218.33333333333331</ele><time>2026-04-19T12:44:44.587Z</time></trkpt><trkpt lat="38.7370892" lon="16.2829279"><ele>214.16666666666666</ele><time>2026-04-19T12:44:45.586Z</time></trkpt><trkpt lat="38.7371155" lon="16.2828501"><ele>210.0</ele><time>2026-04-19T12:44:46.596Z</time></trkpt><trkpt lat="38.7371806" lon="16.2827008"><ele>209.8</ele><time>2026-04-19T12:44:48.58Z</time></trkpt><trkpt lat="38.7372414" lon="16.2825774"><ele>209.6</ele><time>2026-04-19T12:44:50.58Z</time></trkpt><trkpt lat="38.7373524" lon="16.2824632"><ele>209.39999999999998</ele><time>2026-04-19T12:44:51.597Z</time></trkpt><trkpt lat="38.7373935" lon="16.2823945"><ele>209.2</ele><time>2026-04-19T12:44:52.581Z</time></trkpt><trkpt lat="38.7374596" lon="16.2823125"><ele>209.0</ele><time>2026-04-19T12:44:53.577Z</time></trkpt><trkpt lat="38.7375173" lon="16.2822312"><ele>208.83333333333334</ele><time>2026-04-19T12:44:54.579Z</time></trkpt><trkpt lat="38.737583" lon="16.2821601"><ele>208.66666666666669</ele><time>2026-04-19T12:44:55.586Z</time></trkpt><trkpt lat="38.7376643" lon="16.282111"><ele>208.5</ele><time>2026-04-19T12:44:56.579Z</time></trkpt><trkpt lat="38.737737" lon="16.2820699"><ele>208.33333333333331</ele><time>2026-04-19T12:44:57.602Z</time></trkpt><trkpt lat="38.7378035" lon="16.2820253"><ele>208.16666666666666</ele><time>2026-04-19T12:44:58.585Z</time></trkpt><trkpt lat="38.7378511" lon="16.2819412"><ele>208.0</ele><time>2026-04-19T12:44:59.586Z</time></trkpt><trkpt lat="38.7379002" lon="16.2818401"><ele>207.99999999999997</ele><time>2026-04-19T12:45:00.583Z</time></trkpt><trkpt lat="38.7379673" lon="16.281742"><ele>208.0</ele><time>2026-04-19T12:45:01.586Z</time></trkpt><trkpt lat="38.7380309" lon="16.2816692"><ele>208.0</ele><time>2026-04-19T12:45:02.603Z</time></trkpt><trkpt lat="38.7381039" lon="16.2816134"><ele>208.0</ele><time>2026-04-19T12:45:03.587Z</time></trkpt><trkpt lat="38.7381906" lon="16.2815839"><ele>207.99999999999997</ele><time>2026-04-19T12:45:04.588Z</time></trkpt><trkpt lat="38.7382726" lon="16.2815516"><ele>208.0</ele><time>2026-04-19T12:45:05.582Z</time></trkpt><trkpt lat="38.7383487" lon="16.2815063"><ele>207.8</ele><time>2026-04-19T12:45:06.586Z</time></trkpt><trkpt lat="38.7384333" lon="16.2813856"><ele>207.60000000000002</ele><time>2026-04-19T12:45:08.589Z</time></trkpt><trkpt lat="38.738455" lon="16.2812993"><ele>207.39999999999998</ele><time>2026-04-19T12:45:09.584Z</time></trkpt><trkpt lat="38.7385115" lon="16.2812121"><ele>207.2</ele><time>2026-04-19T12:45:10.602Z</time></trkpt><trkpt lat="38.7385699" lon="16.281124"><ele>207.0</ele><time>2026-04-19T12:45:11.586Z</time></trkpt><trkpt lat="38.7386425" lon="16.2810531"><ele>207.0</ele><time>2026-04-19T12:45:12.591Z</time></trkpt><trkpt lat="38.7387201" lon="16.2809836"><ele>207.0</ele><time>2026-04-19T12:45:13.594Z</time></trkpt><trkpt lat="38.7387857" lon="16.2809263"><ele>207.0</ele><time>2026-04-19T12:45:14.592Z</time></trkpt><trkpt lat="38.73884" lon="16.2808649"><ele>207.0</ele><time>2026-04-19T12:45:15.607Z</time></trkpt><trkpt lat="38.7388972" lon="16.2808217"><ele>207.0</ele><time>2026-04-19T12:45:16.593Z</time></trkpt><trkpt lat="38.7389579" lon="16.2807669"><ele>207.0</ele><time>2026-04-19T12:45:17.583Z</time></trkpt><trkpt lat="38.7390117" lon="16.2807073"><ele>208.5</ele><time>2026-04-19T12:45:18.588Z</time></trkpt><trkpt lat="38.7390648" lon="16.2805773"><ele>210.0</ele><time>2026-04-19T12:45:20.586Z</time></trkpt><trkpt lat="38.7390662" lon="16.2804946"><ele>211.5</ele><time>2026-04-19T12:45:21.6Z</time></trkpt><trkpt lat="38.7390582" lon="16.2803947"><ele>213.0</ele><time>2026-04-19T12:45:22.589Z</time></trkpt><trkpt lat="38.7390416" lon="16.2803037"><ele>214.5</ele><time>2026-04-19T12:45:23.585Z</time></trkpt><trkpt lat="38.7390422" lon="16.2802017"><ele>216.0</ele><time>2026-04-19T12:45:24.594Z</time></trkpt><trkpt lat="38.7390495" lon="16.2800959"><ele>216.0</ele><time>2026-04-19T12:45:25.589Z</time></trkpt><trkpt lat="38.7390655" lon="16.279962"><ele>216.00000000000003</ele><time>2026-04-19T12:45:26.623Z</time></trkpt><trkpt lat="38.7390733" lon="16.2798525"><ele>216.00000000000003</ele><time>2026-04-19T12:45:27.587Z</time></trkpt><trkpt lat="38.7390708" lon="16.2797475"><ele>216.0</ele><time>2026-04-19T12:45:28.583Z</time></trkpt><trkpt lat="38.7390629" lon="16.2796499"><ele>216.0</ele><time>2026-04-19T12:45:29.6Z</time></trkpt><trkpt lat="38.7390813" lon="16.279501"><ele>216.33333333333334</ele><time>2026-04-19T12:45:31.611Z</time></trkpt><trkpt lat="38.7390885" lon="16.2794029"><ele>216.66666666666669</ele><time>2026-04-19T12:45:32.585Z</time></trkpt><trkpt lat="38.7390936" lon="16.2793203"><ele>217.0</ele><time>2026-04-19T12:45:33.588Z</time></trkpt><trkpt lat="38.7391052" lon="16.2792359"><ele>217.33333333333334</ele><time>2026-04-19T12:45:34.59Z</time></trkpt><trkpt lat="38.7391418" lon="16.2790926"><ele>217.66666666666669</ele><time>2026-04-19T12:45:36.619Z</time></trkpt><trkpt lat="38.739185" lon="16.2790325"><ele>218.0</ele><time>2026-04-19T12:45:37.589Z</time></trkpt><trkpt lat="38.7392733" lon="16.2789352"><ele>216.60000000000002</ele><time>2026-04-19T12:45:39.585Z</time></trkpt><trkpt lat="38.739333" lon="16.278822"><ele>215.20000000000002</ele><time>2026-04-19T12:45:41.592Z</time></trkpt><trkpt lat="38.7393661" lon="16.2786746"><ele>213.8</ele><time>2026-04-19T12:45:43.612Z</time></trkpt><trkpt lat="38.7393904" lon="16.2785482"><ele>212.4</ele><time>2026-04-19T12:45:45.587Z</time></trkpt><trkpt lat="38.739402" lon="16.2784193"><ele>211.0</ele><time>2026-04-19T12:45:47.59Z</time></trkpt><trkpt lat="38.7394065" lon="16.2782798"><ele>208.0</ele><time>2026-04-19T12:45:49.591Z</time></trkpt><trkpt lat="38.7393883" lon="16.278128"><ele>205.0</ele><time>2026-04-19T12:45:51.583Z</time></trkpt><trkpt lat="38.739373" lon="16.278042"><ele>202.0</ele><time>2026-04-19T12:45:52.59Z</time></trkpt><trkpt lat="38.739359" lon="16.2779584"><ele>199.0</ele><time>2026-04-19T12:45:53.599Z</time></trkpt><trkpt lat="38.7393404" lon="16.2778111"><ele>196.0</ele><time>2026-04-19T12:45:55.59Z</time></trkpt><trkpt lat="38.7393209" lon="16.2776816"><ele>195.99999999999997</ele><time>2026-04-19T12:45:57.593Z</time></trkpt><trkpt lat="38.739302" lon="16.2775916"><ele>196.0</ele><time>2026-04-19T12:45:58.59Z</time></trkpt><trkpt lat="38.7392752" lon="16.277486"><ele>196.0</ele><time>2026-04-19T12:45:59.59Z</time></trkpt><trkpt lat="38.7392478" lon="16.2773842"><ele>196.0</ele><time>2026-04-19T12:46:00.591Z</time></trkpt><trkpt lat="38.7392234" lon="16.2772907"><ele>195.99999999999997</ele><time>2026-04-19T12:46:01.59Z</time></trkpt><trkpt lat="38.7392006" lon="16.2772135"><ele>196.0</ele><time>2026-04-19T12:46:02.589Z</time></trkpt><trkpt lat="38.7391727" lon="16.2771045"><ele>194.60000000000002</ele><time>2026-04-19T12:46:04.582Z</time></trkpt><trkpt lat="38.7391434" lon="16.2769759"><ele>193.2</ele><time>2026-04-19T12:46:07.589Z</time></trkpt><trkpt lat="38.7391108" lon="16.2768295"><ele>191.8</ele><time>2026-04-19T12:46:09.592Z</time></trkpt><trkpt lat="38.7390867" lon="16.2767505"><ele>190.39999999999998</ele><time>2026-04-19T12:46:10.599Z</time></trkpt><trkpt lat="38.7390417" lon="16.2766113"><ele>189.0</ele><time>2026-04-19T12:46:12.593Z</time></trkpt><trkpt lat="38.7390211" lon="16.2765292"><ele>189.0</ele><time>2026-04-19T12:46:14.587Z</time></trkpt><trkpt lat="38.7390035" lon="16.2764364"><ele>189.0</ele><time>2026-04-19T12:46:18.595Z</time></trkpt><trkpt lat="38.7389961" lon="16.2763351"><ele>189.0</ele><time>2026-04-19T12:46:38.599Z</time></trkpt><trkpt lat="38.7389877" lon="16.2762285"><ele>189.0</ele><time>2026-04-19T12:46:42.592Z</time></trkpt><trkpt lat="38.7389825" lon="16.2760941"><ele>189.0</ele><time>2026-04-19T12:46:45.595Z</time></trkpt><trkpt lat="38.7389807" lon="16.2760133"><ele>189.0</ele><time>2026-04-19T12:46:46.6Z</time></trkpt><trkpt lat="38.7389828" lon="16.2758573"><ele>187.0</ele><time>2026-04-19T12:46:48.593Z</time></trkpt><trkpt lat="38.7389915" lon="16.2757146"><ele>185.0</ele><time>2026-04-19T12:46:50.589Z</time></trkpt><trkpt lat="38.7390001" lon="16.2755873"><ele>183.0</ele><time>2026-04-19T12:46:52.594Z</time></trkpt><trkpt lat="38.7389972" lon="16.2754912"><ele>181.0</ele><time>2026-04-19T12:46:54.592Z</time></trkpt><trkpt lat="38.7389878" lon="16.2754059"><ele>179.0</ele><time>2026-04-19T12:46:58.592Z</time></trkpt><trkpt lat="38.7389661" lon="16.2753151"><ele>177.0</ele><time>2026-04-19T12:47:02.603Z</time></trkpt><trkpt lat="38.7389365" lon="16.2752143"><ele>175.0</ele><time>2026-04-19T12:47:05.594Z</time></trkpt><trkpt lat="38.7389123" lon="16.2750983"><ele>173.0</ele><time>2026-04-19T12:47:07.598Z</time></trkpt><trkpt lat="38.7388975" lon="16.2749954"><ele>171.0</ele><time>2026-04-19T12:47:09.596Z</time></trkpt><trkpt lat="38.7388872" lon="16.2748753"><ele>169.0</ele><time>2026-04-19T12:47:12.601Z</time></trkpt><trkpt lat="38.7388766" lon="16.2747603"><ele>167.0</ele><time>2026-04-19T12:47:14.594Z</time></trkpt><trkpt lat="38.7388628" lon="16.2746642"><ele>165.0</ele><time>2026-04-19T12:47:16.603Z</time></trkpt><trkpt lat="38.7388542" lon="16.2745645"><ele>161.0</ele><time>2026-04-19T12:47:18.599Z</time></trkpt><trkpt lat="38.7388501" lon="16.2744675"><ele>157.0</ele><time>2026-04-19T12:47:20.59Z</time></trkpt><trkpt lat="38.7388387" lon="16.27438"><ele>153.0</ele><time>2026-04-19T12:47:22.59Z</time></trkpt><trkpt lat="38.7388156" lon="16.2742861"><ele>149.0</ele><time>2026-04-19T12:47:24.599Z</time></trkpt><trkpt lat="38.7387791" lon="16.2741969"><ele>145.0</ele><time>2026-04-19T12:47:26.596Z</time></trkpt><trkpt lat="38.7387586" lon="16.2740909"><ele>141.0</ele><time>2026-04-19T12:47:28.596Z</time></trkpt><trkpt lat="38.7387433" lon="16.2739462"><ele>136.4</ele><time>2026-04-19T12:47:30.592Z</time></trkpt><trkpt lat="38.7387327" lon="16.2738231"><ele>131.8</ele><time>2026-04-19T12:47:32.592Z</time></trkpt><trkpt lat="38.7387148" lon="16.2736685"><ele>127.20000000000002</ele><time>2026-04-19T12:47:34.593Z</time></trkpt><trkpt lat="38.7387056" lon="16.2735843"><ele>122.60000000000001</ele><time>2026-04-19T12:47:35.595Z</time></trkpt><trkpt lat="38.7386958" lon="16.2735034"><ele>118.0</ele><time>2026-04-19T12:47:36.593Z</time></trkpt><trkpt lat="38.7386746" lon="16.2733647"><ele>118.0</ele><time>2026-04-19T12:47:38.59Z</time></trkpt><trkpt lat="38.7386572" lon="16.2732852"><ele>118.00000000000001</ele><time>2026-04-19T12:47:39.594Z</time></trkpt><trkpt lat="38.7386229" lon="16.2731416"><ele>118.00000000000001</ele><time>2026-04-19T12:47:41.594Z</time></trkpt><trkpt lat="38.7385914" lon="16.2730295"><ele>118.0</ele><time>2026-04-19T12:47:43.595Z</time></trkpt><trkpt lat="38.7385748" lon="16.2728967"><ele>118.0</ele><time>2026-04-19T12:47:45.589Z</time></trkpt><trkpt lat="38.7385449" lon="16.2727543"><ele>119.00000000000001</ele><time>2026-04-19T12:47:47.587Z</time></trkpt><trkpt lat="38.7384943" lon="16.2726279"><ele>120.0</ele><time>2026-04-19T12:47:49.589Z</time></trkpt><trkpt lat="38.738475" lon="16.2725124"><ele>121.0</ele><time>2026-04-19T12:47:51.593Z</time></trkpt><trkpt lat="38.7384631" lon="16.2724308"><ele>122.0</ele><time>2026-04-19T12:47:53.592Z</time></trkpt><trkpt lat="38.7384513" lon="16.2723238"><ele>123.00000000000001</ele><time>2026-04-19T12:47:56.599Z</time></trkpt><trkpt lat="38.7384595" lon="16.2722285"><ele>124.0</ele><time>2026-04-19T12:47:59.596Z</time></trkpt><trkpt lat="38.7385104" lon="16.2721607"><ele>120.85714285714286</ele><time>2026-04-19T12:48:02.591Z</time></trkpt><trkpt lat="38.7385933" lon="16.2721578"><ele>117.71428571428572</ele><time>2026-04-19T12:48:05.596Z</time></trkpt><trkpt lat="38.7386669" lon="16.2722001"><ele>114.57142857142858</ele><time>2026-04-19T12:48:09.593Z</time></trkpt><trkpt lat="38.7387364" lon="16.2722086"><ele>111.42857142857143</ele><time>2026-04-19T12:48:13.587Z</time></trkpt><trkpt lat="38.7387088" lon="16.2721261"><ele>108.28571428571429</ele><time>2026-04-19T12:48:18.588Z</time></trkpt><trkpt lat="38.7386826" lon="16.2720377"><ele>105.14285714285714</ele><time>2026-04-19T12:48:20.595Z</time></trkpt><trkpt lat="38.7386561" lon="16.2719557"><ele>102.0</ele><time>2026-04-19T12:48:22.594Z</time></trkpt><trkpt lat="38.7386346" lon="16.2718306"><ele>102.0</ele><time>2026-04-19T12:48:25.592Z</time></trkpt><trkpt lat="38.7386274" lon="16.27173"><ele>102.0</ele><time>2026-04-19T12:48:27.593Z</time></trkpt><trkpt lat="38.7386198" lon="16.2716103"><ele>102.0</ele><time>2026-04-19T12:48:30.586Z</time></trkpt><trkpt lat="38.738608" lon="16.2715202"><ele>102.0</ele><time>2026-04-19T12:48:32.589Z</time></trkpt><trkpt lat="38.738598" lon="16.2714282"><ele>102.0</ele><time>2026-04-19T12:48:34.595Z</time></trkpt><trkpt lat="38.7385898" lon="16.2713409"><ele>102.0</ele><time>2026-04-19T12:48:36.589Z</time></trkpt><trkpt lat="38.7385909" lon="16.2712123"><ele>100.16666666666667</ele><time>2026-04-19T12:48:38.587Z</time></trkpt><trkpt lat="38.7385815" lon="16.2711015"><ele>98.33333333333333</ele><time>2026-04-19T12:48:39.586Z</time></trkpt><trkpt lat="38.7386045" lon="16.2710177"><ele>96.5</ele><time>2026-04-19T12:48:41.592Z</time></trkpt><trkpt lat="38.7386552" lon="16.2709441"><ele>94.66666666666666</ele><time>2026-04-19T12:48:43.586Z</time></trkpt><trkpt lat="38.738708" lon="16.2708459"><ele>92.83333333333333</ele><time>2026-04-19T12:48:45.592Z</time></trkpt><trkpt lat="38.738747" lon="16.2707218"><ele>91.0</ele><time>2026-04-19T12:48:47.594Z</time></trkpt><trkpt lat="38.7387735" lon="16.2706441"><ele>89.28571428571429</ele><time>2026-04-19T12:48:49.585Z</time></trkpt><trkpt lat="38.7388082" lon="16.2705715"><ele>87.57142857142857</ele><time>2026-04-19T12:48:51.593Z</time></trkpt><trkpt lat="38.738853" lon="16.2705043"><ele>85.85714285714286</ele><time>2026-04-19T12:48:53.585Z</time></trkpt><trkpt lat="38.7388852" lon="16.2704248"><ele>84.14285714285714</ele><time>2026-04-19T12:48:55.591Z</time></trkpt><trkpt lat="38.7389183" lon="16.2703402"><ele>82.42857142857143</ele><time>2026-04-19T12:48:58.599Z</time></trkpt><trkpt lat="38.7389266" lon="16.2702482"><ele>80.71428571428572</ele><time>2026-04-19T12:49:01.593Z</time></trkpt><trkpt lat="38.7389452" lon="16.2701561"><ele>79.0</ele><time>2026-04-19T12:49:06.595Z</time></trkpt><trkpt lat="38.7389548" lon="16.2700705"><ele>79.0</ele><time>2026-04-19T12:49:11.596Z</time></trkpt><trkpt lat="38.7389848" lon="16.2699965"><ele>79.0</ele><time>2026-04-19T12:49:19.592Z</time></trkpt><trkpt lat="38.7390385" lon="16.2699267"><ele>79.0</ele><time>2026-04-19T12:49:23.597Z</time></trkpt><trkpt lat="38.7390936" lon="16.2698528"><ele>79.0</ele><time>2026-04-19T12:49:27.595Z</time></trkpt><trkpt lat="38.7391443" lon="16.2697668"><ele>79.0</ele><time>2026-04-19T12:49:30.587Z</time></trkpt><trkpt lat="38.7392049" lon="16.2696574"><ele>79.0</ele><time>2026-04-19T12:49:33.59Z</time></trkpt><trkpt lat="38.7392487" lon="16.2695685"><ele>79.0</ele><time>2026-04-19T12:49:35.588Z</time></trkpt><trkpt lat="38.7392955" lon="16.2694361"><ele>79.0</ele><time>2026-04-19T12:49:39.589Z</time></trkpt><trkpt lat="38.739282" lon="16.2692996"><ele>79.0</ele><time>2026-04-19T12:49:41.591Z</time></trkpt><trkpt lat="38.7392669" lon="16.2692129"><ele>79.0</ele><time>2026-04-19T12:49:42.587Z</time></trkpt><trkpt lat="38.7392319" lon="16.2691043"><ele>79.0</ele><time>2026-04-19T12:49:43.6Z</time></trkpt><trkpt lat="38.7392009" lon="16.2690042"><ele>78.16666666666666</ele><time>2026-04-19T12:49:44.585Z</time></trkpt><trkpt lat="38.7391404" lon="16.2688677"><ele>77.33333333333333</ele><time>2026-04-19T12:49:46.59Z</time></trkpt><trkpt lat="38.7390853" lon="16.2688093"><ele>76.5</ele><time>2026-04-19T12:49:47.591Z</time></trkpt><trkpt lat="38.7390293" lon="16.268751"><ele>75.66666666666667</ele><time>2026-04-19T12:49:48.586Z</time></trkpt><trkpt lat="38.7389661" lon="16.268706"><ele>74.83333333333334</ele><time>2026-04-19T12:49:49.601Z</time></trkpt><trkpt lat="38.7388952" lon="16.2686812"><ele>74.0</ele><time>2026-04-19T12:49:50.586Z</time></trkpt><trkpt lat="38.7388284" lon="16.2686519"><ele>74.0</ele><time>2026-04-19T12:49:51.587Z</time></trkpt><trkpt lat="38.7387672" lon="16.268586"><ele>74.0</ele><time>2026-04-19T12:49:52.586Z</time></trkpt><trkpt lat="38.7387178" lon="16.2685039"><ele>74.0</ele><time>2026-04-19T12:49:53.591Z</time></trkpt><trkpt lat="38.7386441" lon="16.2683664"><ele>74.0</ele><time>2026-04-19T12:49:55.58Z</time></trkpt><trkpt lat="38.7385974" lon="16.2682895"><ele>74.0</ele><time>2026-04-19T12:49:56.597Z</time></trkpt><trkpt lat="38.7385239" lon="16.2681816"><ele>72.2</ele><time>2026-04-19T12:49:57.586Z</time></trkpt><trkpt lat="38.7384455" lon="16.2680683"><ele>70.4</ele><time>2026-04-19T12:49:58.584Z</time></trkpt><trkpt lat="38.7383762" lon="16.2679664"><ele>68.6</ele><time>2026-04-19T12:49:59.59Z</time></trkpt><trkpt lat="38.7383068" lon="16.2678677"><ele>66.8</ele><time>2026-04-19T12:50:00.589Z</time></trkpt><trkpt lat="38.738234" lon="16.267769"><ele>65.0</ele><time>2026-04-19T12:50:01.602Z</time></trkpt><trkpt lat="38.7381559" lon="16.2676616"><ele>65.0</ele><time>2026-04-19T12:50:02.584Z</time></trkpt><trkpt lat="38.7380835" lon="16.2675514"><ele>65.0</ele><time>2026-04-19T12:50:03.594Z</time></trkpt><trkpt lat="38.7380371" lon="16.2674758"><ele>65.0</ele><time>2026-04-19T12:50:04.583Z</time></trkpt><trkpt lat="38.737993" lon="16.2674082"><ele>65.0</ele><time>2026-04-19T12:50:05.587Z</time></trkpt><trkpt lat="38.7379856" lon="16.2672971"><ele>65.0</ele><time>2026-04-19T12:50:07.596Z</time></trkpt><trkpt lat="38.7380819" lon="16.2671908"><ele>65.0</ele><time>2026-04-19T12:50:09.593Z</time></trkpt><trkpt lat="38.7381397" lon="16.2671267"><ele>65.0</ele><time>2026-04-19T12:50:10.585Z</time></trkpt><trkpt lat="38.7382112" lon="16.2670656"><ele>65.0</ele><time>2026-04-19T12:50:11.586Z</time></trkpt><trkpt lat="38.738295" lon="16.2669827"><ele>65.0</ele><time>2026-04-19T12:50:12.584Z</time></trkpt><trkpt lat="38.7383825" lon="16.2668931"><ele>65.0</ele><time>2026-04-19T12:50:13.591Z</time></trkpt><trkpt lat="38.7384646" lon="16.266814"><ele>65.0</ele><time>2026-04-19T12:50:14.589Z</time></trkpt><trkpt lat="38.7385341" lon="16.2667696"><ele>65.0</ele><time>2026-04-19T12:50:15.589Z</time></trkpt><trkpt lat="38.7386028" lon="16.2667086"><ele>65.0</ele><time>2026-04-19T12:50:17.586Z</time></trkpt><trkpt lat="38.7386427" lon="16.2666031"><ele>65.0</ele><time>2026-04-19T12:51:02.59Z</time></trkpt><trkpt lat="38.7386936" lon="16.2665307"><ele>65.0</ele><time>2026-04-19T12:51:06.587Z</time></trkpt><trkpt lat="38.7387404" lon="16.2664565"><ele>65.0</ele><time>2026-04-19T12:51:11.592Z</time></trkpt><trkpt lat="38.7387744" lon="16.2663642"><ele>65.0</ele><time>2026-04-19T12:51:15.604Z</time></trkpt><trkpt lat="38.7387756" lon="16.2662721"><ele>65.0</ele><time>2026-04-19T12:51:20.589Z</time></trkpt><trkpt lat="38.7387396" lon="16.2662024"><ele>65.0</ele><time>2026-04-19T12:51:24.586Z</time></trkpt><trkpt lat="38.738692" lon="16.266118"><ele>65.0</ele><time>2026-04-19T12:51:27.593Z</time></trkpt><trkpt lat="38.7386314" lon="16.2660602"><ele>65.0</ele><time>2026-04-19T12:51:29.591Z</time></trkpt><trkpt lat="38.7385754" lon="16.2660034"><ele>65.0</ele><time>2026-04-19T12:51:31.609Z</time></trkpt><trkpt lat="38.7385294" lon="16.2659068"><ele>64.66666666666667</ele><time>2026-04-19T12:51:34.593Z</time></trkpt><trkpt lat="38.7385006" lon="16.2658337"><ele>64.33333333333334</ele><time>2026-04-19T12:51:36.599Z</time></trkpt><trkpt lat="38.7384615" lon="16.265735"><ele>64.0</ele><time>2026-04-19T12:51:38.595Z</time></trkpt><trkpt lat="38.7384252" lon="16.265622"><ele>63.66666666666667</ele><time>2026-04-19T12:51:40.585Z</time></trkpt><trkpt lat="38.7383861" lon="16.2654997"><ele>63.333333333333336</ele><time>2026-04-19T12:51:42.582Z</time></trkpt><trkpt lat="38.7383435" lon="16.265383"><ele>63.0</ele><time>2026-04-19T12:51:44.589Z</time></trkpt><trkpt lat="38.738296" lon="16.2652732"><ele>62.4</ele><time>2026-04-19T12:51:46.607Z</time></trkpt><trkpt lat="38.7382533" lon="16.2651642"><ele>61.8</ele><time>2026-04-19T12:51:48.589Z</time></trkpt><trkpt lat="38.7382048" lon="16.2650387"><ele>61.2</ele><time>2026-04-19T12:51:50.587Z</time></trkpt><trkpt lat="38.7381621" lon="16.2649291"><ele>60.6</ele><time>2026-04-19T12:51:52.607Z</time></trkpt><trkpt lat="38.7381065" lon="16.2648261"><ele>60.0</ele><time>2026-04-19T12:51:54.594Z</time></trkpt><trkpt lat="38.7380543" lon="16.2647345"><ele>59.5</ele><time>2026-04-19T12:51:56.595Z</time></trkpt><trkpt lat="38.7380095" lon="16.2646612"><ele>59.0</ele><time>2026-04-19T12:51:58.601Z</time></trkpt><trkpt lat="38.7379562" lon="16.2645558"><ele>58.5</ele><time>2026-04-19T12:52:01.595Z</time></trkpt><trkpt lat="38.7379157" lon="16.2644725"><ele>58.0</ele><time>2026-04-19T12:52:03.605Z</time></trkpt><trkpt lat="38.7379109" lon="16.2643764"><ele>57.5</ele><time>2026-04-19T12:52:05.602Z</time></trkpt><trkpt lat="38.7378721" lon="16.2642865"><ele>57.0</ele><time>2026-04-19T12:52:08.594Z</time></trkpt><trkpt lat="38.7377668" lon="16.2642923"><ele>57.0</ele><time>2026-04-19T12:52:09.595Z</time></trkpt><trkpt lat="38.7376961" lon="16.2643127"><ele>57.0</ele><time>2026-04-19T12:52:10.598Z</time></trkpt><trkpt lat="38.7376408" lon="16.2644021"><ele>57.0</ele><time>2026-04-19T12:52:13.598Z</time></trkpt><trkpt lat="38.737683" lon="16.2644997"><ele>57.0</ele><time>2026-04-19T12:52:15.604Z</time></trkpt><trkpt lat="38.7377312" lon="16.2646035"><ele>57.0</ele><time>2026-04-19T12:52:17.59Z</time></trkpt><trkpt lat="38.737786" lon="16.2646446"><ele>57.0</ele><time>2026-04-19T12:52:19.599Z</time></trkpt><trkpt lat="38.7378557" lon="16.2646912"><ele>57.0</ele><time>2026-04-19T12:52:21.593Z</time></trkpt><trkpt lat="38.7379112" lon="16.2647668"><ele>57.0</ele><time>2026-04-19T12:52:24.598Z</time></trkpt><trkpt lat="38.7379541" lon="16.2648594"><ele>57.0</ele><time>2026-04-19T12:52:26.602Z</time></trkpt><trkpt lat="38.7380075" lon="16.2649381"><ele>57.0</ele><time>2026-04-19T12:52:28.594Z</time></trkpt><trkpt lat="38.7380401" lon="16.2650119"><ele>57.0</ele><time>2026-04-19T12:52:30.592Z</time></trkpt><trkpt lat="38.7380903" lon="16.2650698"><ele>57.0</ele><time>2026-04-19T12:52:32.59Z</time></trkpt><trkpt lat="38.7380729" lon="16.2651723"><ele>57.0</ele><time>2026-04-19T12:52:35.594Z</time></trkpt><trkpt lat="38.738013" lon="16.2650899"><ele>57.0</ele><time>2026-04-19T12:52:39.607Z</time></trkpt><trkpt lat="38.7379915" lon="16.2649782"><ele>57.0</ele><time>2026-04-19T12:52:41.601Z</time></trkpt><trkpt lat="38.7379598" lon="16.2648683"><ele>57.0</ele><time>2026-04-19T12:52:43.595Z</time></trkpt><trkpt lat="38.7379004" lon="16.2647562"><ele>57.0</ele><time>2026-04-19T12:52:45.592Z</time></trkpt><trkpt lat="38.7378498" lon="16.2646632"><ele>57.0</ele><time>2026-04-19T12:52:47.592Z</time></trkpt><trkpt lat="38.7377972" lon="16.264562"><ele>57.0</ele><time>2026-04-19T12:52:49.597Z</time></trkpt><trkpt lat="38.7377494" lon="16.2644606"><ele>57.0</ele><time>2026-04-19T12:52:51.594Z</time></trkpt><trkpt lat="38.7377213" lon="16.2643711"><ele>57.0</ele><time>2026-04-19T12:52:53.594Z</time></trkpt><trkpt lat="38.7376694" lon="16.2642864"><ele>57.0</ele><time>2026-04-19T12:52:55.593Z</time></trkpt><trkpt lat="38.7376242" lon="16.264212"><ele>57.0</ele><time>2026-04-19T12:52:57.593Z</time></trkpt><trkpt lat="38.7375781" lon="16.2641447"><ele>57.0</ele><time>2026-04-19T12:53:01.647Z</time></trkpt><trkpt lat="38.7375416" lon="16.2640711"><ele>56.99999999999999</ele><time>2026-04-19T12:53:03.604Z</time></trkpt><trkpt lat="38.7374883" lon="16.2640055"><ele>57.0</ele><time>2026-04-19T12:53:06.626Z</time></trkpt><trkpt lat="38.7374729" lon="16.2639131"><ele>57.0</ele><time>2026-04-19T12:53:09.651Z</time></trkpt><trkpt lat="38.7374329" lon="16.2638295"><ele>56.99999999999999</ele><time>2026-04-19T12:53:14.594Z</time></trkpt><trkpt lat="38.737362" lon="16.263802"><ele>57.0</ele><time>2026-04-19T12:53:18.608Z</time></trkpt><trkpt lat="38.7373045" lon="16.2638459"><ele>57.0</ele><time>2026-04-19T12:53:23.63Z</time></trkpt><trkpt lat="38.7372371" lon="16.2638406"><ele>57.0</ele><time>2026-04-19T12:53:29.523Z</time></trkpt><trkpt lat="38.7372405" lon="16.263732"><ele>57.0</ele><time>2026-04-19T12:53:43.645Z</time></trkpt><trkpt lat="38.7373059" lon="16.2634684"><ele>57.0</ele><time>2026-04-19T12:53:45.592Z</time></trkpt><trkpt lat="38.7373278" lon="16.2633644"><ele>57.0</ele><time>2026-04-19T12:53:46.592Z</time></trkpt><trkpt lat="38.737353" lon="16.2632487"><ele>57.0</ele><time>2026-04-19T12:53:48.594Z</time></trkpt><trkpt lat="38.7373858" lon="16.2631383"><ele>57.0</ele><time>2026-04-19T12:53:50.593Z</time></trkpt><trkpt lat="38.7374195" lon="16.2629956"><ele>57.0</ele><time>2026-04-19T12:53:52.592Z</time></trkpt><trkpt lat="38.7374414" lon="16.2628941"><ele>57.0</ele><time>2026-04-19T12:53:54.602Z</time></trkpt><trkpt lat="38.7374813" lon="16.2627711"><ele>57.0</ele><time>2026-04-19T12:53:57.593Z</time></trkpt><trkpt lat="38.7375137" lon="16.2626564"><ele>57.666666666666664</ele><time>2026-04-19T12:53:59.595Z</time></trkpt><trkpt lat="38.7375614" lon="16.2625307"><ele>58.33333333333333</ele><time>2026-04-19T12:54:01.617Z</time></trkpt><trkpt lat="38.7376013" lon="16.2624187"><ele>59.0</ele><time>2026-04-19T12:54:03.592Z</time></trkpt><trkpt lat="38.7376295" lon="16.2623335"><ele>59.666666666666664</ele><time>2026-04-19T12:54:05.596Z</time></trkpt><trkpt lat="38.7376643" lon="16.2622439"><ele>60.33333333333333</ele><time>2026-04-19T12:54:07.595Z</time></trkpt><trkpt lat="38.7376847" lon="16.2621397"><ele>61.0</ele><time>2026-04-19T12:54:09.591Z</time></trkpt><trkpt lat="38.7376895" lon="16.2620408"><ele>61.33333333333333</ele><time>2026-04-19T12:54:11.596Z</time></trkpt><trkpt lat="38.7377104" lon="16.2619529"><ele>61.666666666666664</ele><time>2026-04-19T12:54:13.598Z</time></trkpt><trkpt lat="38.7377415" lon="16.2618603"><ele>62.0</ele><time>2026-04-19T12:54:15.593Z</time></trkpt><trkpt lat="38.7377751" lon="16.2617792"><ele>62.33333333333333</ele><time>2026-04-19T12:54:17.591Z</time></trkpt><trkpt lat="38.737802" lon="16.2616795"><ele>62.666666666666664</ele><time>2026-04-19T12:54:19.593Z</time></trkpt><trkpt lat="38.7378175" lon="16.2615695"><ele>63.0</ele><time>2026-04-19T12:54:21.594Z</time></trkpt><trkpt lat="38.7378343" lon="16.261463"><ele>61.833333333333336</ele><time>2026-04-19T12:54:23.595Z</time></trkpt><trkpt lat="38.7378547" lon="16.2613859"><ele>60.66666666666667</ele><time>2026-04-19T12:54:25.592Z</time></trkpt><trkpt lat="38.7379127" lon="16.2613536"><ele>59.5</ele><time>2026-04-19T12:54:27.592Z</time></trkpt><trkpt lat="38.737982" lon="16.2613677"><ele>58.333333333333336</ele><time>2026-04-19T12:54:29.601Z</time></trkpt><trkpt lat="38.7380552" lon="16.2613539"><ele>57.16666666666667</ele><time>2026-04-19T12:54:33.591Z</time></trkpt><trkpt lat="38.7381532" lon="16.2612994"><ele>56.0</ele><time>2026-04-19T12:54:36.597Z</time></trkpt><trkpt lat="38.7382361" lon="16.2612646"><ele>56.00000000000001</ele><time>2026-04-19T12:54:38.592Z</time></trkpt><trkpt lat="38.7383338" lon="16.2612481"><ele>56.0</ele><time>2026-04-19T12:54:40.599Z</time></trkpt><trkpt lat="38.7384356" lon="16.2612274"><ele>56.0</ele><time>2026-04-19T12:54:42.593Z</time></trkpt><trkpt lat="38.7385045" lon="16.2612136"><ele>56.0</ele><time>2026-04-19T12:54:44.593Z</time></trkpt><trkpt lat="38.7385746" lon="16.2611954"><ele>56.00000000000001</ele><time>2026-04-19T12:54:47.597Z</time></trkpt><trkpt lat="38.73864" lon="16.2611885"><ele>56.0</ele><time>2026-04-19T12:54:51.652Z</time></trkpt><trkpt lat="38.7386826" lon="16.2611205"><ele>56.00000000000001</ele><time>2026-04-19T12:55:10.595Z</time></trkpt><trkpt lat="38.7386641" lon="16.2610349"><ele>56.0</ele><time>2026-04-19T12:55:14.588Z</time></trkpt><trkpt lat="38.738626" lon="16.2609412"><ele>56.0</ele><time>2026-04-19T12:55:17.596Z</time></trkpt><trkpt lat="38.738561" lon="16.2608819"><ele>56.0</ele><time>2026-04-19T12:55:19.597Z</time></trkpt><trkpt lat="38.7384799" lon="16.2607999"><ele>56.00000000000001</ele><time>2026-04-19T12:55:21.592Z</time></trkpt><trkpt lat="38.7384102" lon="16.2607047"><ele>56.0</ele><time>2026-04-19T12:55:23.592Z</time></trkpt><trkpt lat="38.738375" lon="16.260567"><ele>55.599999999999994</ele><time>2026-04-19T12:55:25.596Z</time></trkpt><trkpt lat="38.7383288" lon="16.260442"><ele>55.199999999999996</ele><time>2026-04-19T12:55:27.592Z</time></trkpt><trkpt lat="38.7382911" lon="16.2603186"><ele>54.800000000000004</ele><time>2026-04-19T12:55:29.599Z</time></trkpt><trkpt lat="38.7382677" lon="16.2601959"><ele>54.400000000000006</ele><time>2026-04-19T12:55:31.611Z</time></trkpt><trkpt lat="38.7382523" lon="16.260082"><ele>54.0</ele><time>2026-04-19T12:55:34.592Z</time></trkpt><trkpt lat="38.7382422" lon="16.259986"><ele>54.0</ele><time>2026-04-19T12:55:36.597Z</time></trkpt><trkpt lat="38.7382357" lon="16.2598727"><ele>54.0</ele><time>2026-04-19T12:55:38.602Z</time></trkpt><trkpt lat="38.7382406" lon="16.2597721"><ele>54.0</ele><time>2026-04-19T12:55:40.589Z</time></trkpt><trkpt lat="38.7382191" lon="16.2596581"><ele>54.0</ele><time>2026-04-19T12:55:42.59Z</time></trkpt><trkpt lat="38.7382322" lon="16.2595338"><ele>54.0</ele><time>2026-04-19T12:55:44.606Z</time></trkpt><trkpt lat="38.7382316" lon="16.2594505"><ele>54.0</ele><time>2026-04-19T12:55:45.592Z</time></trkpt><trkpt lat="38.7382436" lon="16.2593026"><ele>53.2</ele><time>2026-04-19T12:55:47.587Z</time></trkpt><trkpt lat="38.7382796" lon="16.2591728"><ele>52.400000000000006</ele><time>2026-04-19T12:55:49.594Z</time></trkpt><trkpt lat="38.7383014" lon="16.2590194"><ele>51.6</ele><time>2026-04-19T12:55:51.595Z</time></trkpt><trkpt lat="38.7382936" lon="16.2588806"><ele>50.8</ele><time>2026-04-19T12:55:53.588Z</time></trkpt><trkpt lat="38.7382682" lon="16.2587777"><ele>50.0</ele><time>2026-04-19T12:56:00.593Z</time></trkpt><trkpt lat="38.7382361" lon="16.2587022"><ele>49.8</ele><time>2026-04-19T12:56:02.603Z</time></trkpt><trkpt lat="38.7381887" lon="16.258603"><ele>49.6</ele><time>2026-04-19T12:56:05.59Z</time></trkpt><trkpt lat="38.7381984" lon="16.2584586"><ele>49.400000000000006</ele><time>2026-04-19T12:56:07.587Z</time></trkpt><trkpt lat="38.7381937" lon="16.2583208"><ele>49.2</ele><time>2026-04-19T12:56:08.594Z</time></trkpt><trkpt lat="38.738184" lon="16.2581701"><ele>49.0</ele><time>2026-04-19T12:56:09.608Z</time></trkpt><trkpt lat="38.7381678" lon="16.2580381"><ele>48.99999999999999</ele><time>2026-04-19T12:56:10.599Z</time></trkpt><trkpt lat="38.7381346" lon="16.257934"><ele>49.0</ele><time>2026-04-19T12:56:11.591Z</time></trkpt><trkpt lat="38.738117" lon="16.2578421"><ele>49.0</ele><time>2026-04-19T12:56:12.583Z</time></trkpt><trkpt lat="38.7380976" lon="16.2577411"><ele>49.0</ele><time>2026-04-19T12:56:13.587Z</time></trkpt><trkpt lat="38.7380651" lon="16.2576332"><ele>48.99999999999999</ele><time>2026-04-19T12:56:14.593Z</time></trkpt><trkpt lat="38.7380572" lon="16.2575236"><ele>49.0</ele><time>2026-04-19T12:56:15.591Z</time></trkpt><trkpt lat="38.7380611" lon="16.2573835"><ele>48.99999999999999</ele><time>2026-04-19T12:56:16.603Z</time></trkpt><trkpt lat="38.7380712" lon="16.2572959"><ele>49.0</ele><time>2026-04-19T12:56:17.598Z</time></trkpt><trkpt lat="38.7380534" lon="16.2571593"><ele>49.0</ele><time>2026-04-19T12:56:19.595Z</time></trkpt><trkpt lat="38.7379965" lon="16.2570903"><ele>49.0</ele><time>2026-04-19T12:56:20.591Z</time></trkpt><trkpt lat="38.7379458" lon="16.2570342"><ele>48.99999999999999</ele><time>2026-04-19T12:56:21.589Z</time></trkpt><trkpt lat="38.7378957" lon="16.2569405"><ele>49.0</ele><time>2026-04-19T12:56:23.594Z</time></trkpt><trkpt lat="38.7378563" lon="16.2568594"><ele>48.666666666666664</ele><time>2026-04-19T12:56:25.607Z</time></trkpt><trkpt lat="38.7378075" lon="16.2567358"><ele>48.33333333333333</ele><time>2026-04-19T12:56:27.6Z</time></trkpt><trkpt lat="38.737774" lon="16.256638"><ele>48.0</ele><time>2026-04-19T12:56:28.59Z</time></trkpt><trkpt lat="38.7377456" lon="16.2565306"><ele>47.666666666666664</ele><time>2026-04-19T12:56:29.588Z</time></trkpt><trkpt lat="38.737718" lon="16.2564142"><ele>47.33333333333333</ele><time>2026-04-19T12:56:30.595Z</time></trkpt><trkpt lat="38.737708" lon="16.2563214"><ele>47.0</ele><time>2026-04-19T12:56:31.59Z</time></trkpt><trkpt lat="38.7376951" lon="16.2562402"><ele>47.0</ele><time>2026-04-19T12:56:32.609Z</time></trkpt><trkpt lat="38.7377008" lon="16.2561295"><ele>47.0</ele><time>2026-04-19T12:56:34.592Z</time></trkpt><trkpt lat="38.7377031" lon="16.2560004"><ele>47.0</ele><time>2026-04-19T12:56:36.599Z</time></trkpt><trkpt lat="38.737732" lon="16.2558794"><ele>47.0</ele><time>2026-04-19T12:56:38.592Z</time></trkpt><trkpt lat="38.7377297" lon="16.2557815"><ele>47.0</ele><time>2026-04-19T12:56:40.591Z</time></trkpt><trkpt lat="38.7377143" lon="16.2556854"><ele>47.0</ele><time>2026-04-19T12:56:42.599Z</time></trkpt><trkpt lat="38.7376968" lon="16.2555948"><ele>48.83333333333333</ele><time>2026-04-19T12:56:44.597Z</time></trkpt><trkpt lat="38.7377003" lon="16.2554697"><ele>50.666666666666664</ele><time>2026-04-19T12:56:46.593Z</time></trkpt><trkpt lat="38.7376977" lon="16.2553828"><ele>52.5</ele><time>2026-04-19T12:56:47.594Z</time></trkpt><trkpt lat="38.7376756" lon="16.2552978"><ele>54.33333333333333</ele><time>2026-04-19T12:56:48.593Z</time></trkpt><trkpt lat="38.7376438" lon="16.2552044"><ele>56.166666666666664</ele><time>2026-04-19T12:56:49.589Z</time></trkpt><trkpt lat="38.7376126" lon="16.2551155"><ele>58.0</ele><time>2026-04-19T12:56:50.594Z</time></trkpt><trkpt lat="38.7375472" lon="16.2550053"><ele>58.0</ele><time>2026-04-19T12:56:52.591Z</time></trkpt><trkpt lat="38.7374868" lon="16.2549218"><ele>58.0</ele><time>2026-04-19T12:56:54.592Z</time></trkpt><trkpt lat="38.737408" lon="16.2548576"><ele>58.0</ele><time>2026-04-19T12:56:56.608Z</time></trkpt><trkpt lat="38.7373221" lon="16.2547935"><ele>58.0</ele><time>2026-04-19T12:56:58.6Z</time></trkpt><trkpt lat="38.7372417" lon="16.2546775"><ele>58.0</ele><time>2026-04-19T12:57:00.595Z</time></trkpt><trkpt lat="38.7372071" lon="16.2546061"><ele>58.83333333333333</ele><time>2026-04-19T12:57:01.59Z</time></trkpt><trkpt lat="38.7372096" lon="16.2545248"><ele>59.666666666666664</ele><time>2026-04-19T12:57:02.592Z</time></trkpt><trkpt lat="38.7372262" lon="16.2544421"><ele>60.5</ele><time>2026-04-19T12:57:03.594Z</time></trkpt><trkpt lat="38.7372616" lon="16.254348"><ele>61.33333333333333</ele><time>2026-04-19T12:57:04.59Z</time></trkpt><trkpt lat="38.7373172" lon="16.2542287"><ele>62.166666666666664</ele><time>2026-04-19T12:57:05.589Z</time></trkpt><trkpt lat="38.7373747" lon="16.2541224"><ele>63.0</ele><time>2026-04-19T12:57:06.604Z</time></trkpt><trkpt lat="38.7374137" lon="16.2540352"><ele>63.0</ele><time>2026-04-19T12:57:07.592Z</time></trkpt><trkpt lat="38.7374486" lon="16.2539299"><ele>63.0</ele><time>2026-04-19T12:57:09.59Z</time></trkpt><trkpt lat="38.737466" lon="16.2538502"><ele>63.0</ele><time>2026-04-19T12:57:15.592Z</time></trkpt><trkpt lat="38.7374834" lon="16.2537469"><ele>63.0</ele><time>2026-04-19T12:57:53.598Z</time></trkpt><trkpt lat="38.7374967" lon="16.2536441"><ele>63.0</ele><time>2026-04-19T12:57:57.6Z</time></trkpt><trkpt lat="38.7375051" lon="16.2535237"><ele>63.0</ele><time>2026-04-19T12:57:59.598Z</time></trkpt><trkpt lat="38.7375106" lon="16.2534404"><ele>63.0</ele><time>2026-04-19T12:58:00.593Z</time></trkpt><trkpt lat="38.737522" lon="16.2533291"><ele>63.0</ele><time>2026-04-19T12:58:01.607Z</time></trkpt><trkpt lat="38.737526" lon="16.2532086"><ele>63.0</ele><time>2026-04-19T12:58:02.592Z</time></trkpt><trkpt lat="38.7375197" lon="16.2531126"><ele>63.0</ele><time>2026-04-19T12:58:03.596Z</time></trkpt><trkpt lat="38.7375175" lon="16.2530303"><ele>63.0</ele><time>2026-04-19T12:58:04.596Z</time></trkpt><trkpt lat="38.737514" lon="16.2529371"><ele>63.0</ele><time>2026-04-19T12:58:05.59Z</time></trkpt><trkpt lat="38.7375098" lon="16.2528417"><ele>62.75</ele><time>2026-04-19T12:58:06.59Z</time></trkpt><trkpt lat="38.7375032" lon="16.2527087"><ele>62.5</ele><time>2026-04-19T12:58:07.592Z</time></trkpt><trkpt lat="38.7375001" lon="16.2525258"><ele>62.25</ele><time>2026-04-19T12:58:08.588Z</time></trkpt><trkpt lat="38.7374984" lon="16.2523148"><ele>62.0</ele><time>2026-04-19T12:58:09.588Z</time></trkpt><trkpt lat="38.7374979" lon="16.2521293"><ele>62.0</ele><time>2026-04-19T12:58:10.592Z</time></trkpt><trkpt lat="38.737498" lon="16.2519526"><ele>62.0</ele><time>2026-04-19T12:58:11.59Z</time></trkpt><trkpt lat="38.737499" lon="16.2517968"><ele>62.0</ele><time>2026-04-19T12:58:12.594Z</time></trkpt><trkpt lat="38.7374974" lon="16.251653"><ele>62.0</ele><time>2026-04-19T12:58:13.592Z</time></trkpt><trkpt lat="38.7374982" lon="16.2514942"><ele>61.2</ele><time>2026-04-19T12:58:14.592Z</time></trkpt><trkpt lat="38.7374989" lon="16.2513498"><ele>60.400000000000006</ele><time>2026-04-19T12:58:15.603Z</time></trkpt><trkpt lat="38.7374995" lon="16.2512146"><ele>59.599999999999994</ele><time>2026-04-19T12:58:16.592Z</time></trkpt><trkpt lat="38.737503" lon="16.2510943"><ele>58.8</ele><time>2026-04-19T12:58:17.596Z</time></trkpt><trkpt lat="38.7375058" lon="16.2509722"><ele>58.0</ele><time>2026-04-19T12:58:18.597Z</time></trkpt><trkpt lat="38.7375106" lon="16.2508222"><ele>58.0</ele><time>2026-04-19T12:58:19.595Z</time></trkpt><trkpt lat="38.737516" lon="16.2506648"><ele>58.0</ele><time>2026-04-19T12:58:20.592Z</time></trkpt><trkpt lat="38.7375228" lon="16.2505095"><ele>58.0</ele><time>2026-04-19T12:58:21.61Z</time></trkpt><trkpt lat="38.7375281" lon="16.2503508"><ele>58.0</ele><time>2026-04-19T12:58:22.593Z</time></trkpt><trkpt lat="38.7375352" lon="16.2502062"><ele>56.5</ele><time>2026-04-19T12:58:23.598Z</time></trkpt><trkpt lat="38.7375423" lon="16.2500595"><ele>55.0</ele><time>2026-04-19T12:58:24.59Z</time></trkpt><trkpt lat="38.7375639" lon="16.2498848"><ele>53.5</ele><time>2026-04-19T12:58:25.594Z</time></trkpt><trkpt lat="38.7375993" lon="16.2497378"><ele>52.0</ele><time>2026-04-19T12:58:26.591Z</time></trkpt><trkpt lat="38.7376397" lon="16.249614"><ele>52.2</ele><time>2026-04-19T12:58:27.594Z</time></trkpt><trkpt lat="38.7376928" lon="16.2495147"><ele>52.400000000000006</ele><time>2026-04-19T12:58:28.594Z</time></trkpt><trkpt lat="38.7377503" lon="16.2494077"><ele>52.599999999999994</ele><time>2026-04-19T12:58:29.597Z</time></trkpt><trkpt lat="38.7378175" lon="16.2492919"><ele>52.8</ele><time>2026-04-19T12:58:30.599Z</time></trkpt><trkpt lat="38.737892" lon="16.2491621"><ele>53.0</ele><time>2026-04-19T12:58:31.592Z</time></trkpt><trkpt lat="38.7379847" lon="16.248999"><ele>52.66666666666667</ele><time>2026-04-19T12:58:32.591Z</time></trkpt><trkpt lat="38.7380893" lon="16.2488154"><ele>52.33333333333333</ele><time>2026-04-19T12:58:33.603Z</time></trkpt><trkpt lat="38.7381977" lon="16.2486272"><ele>52.0</ele><time>2026-04-19T12:58:34.598Z</time></trkpt><trkpt lat="38.7383002" lon="16.248447"><ele>52.0</ele><time>2026-04-19T12:58:35.593Z</time></trkpt><trkpt lat="38.7383951" lon="16.2482821"><ele>52.0</ele><time>2026-04-19T12:58:36.592Z</time></trkpt><trkpt lat="38.7384767" lon="16.2481393"><ele>52.0</ele><time>2026-04-19T12:58:37.595Z</time></trkpt><trkpt lat="38.7385507" lon="16.2480065"><ele>52.0</ele><time>2026-04-19T12:58:38.607Z</time></trkpt><trkpt lat="38.7386167" lon="16.2478851"><ele>53.75</ele><time>2026-04-19T12:58:39.598Z</time></trkpt><trkpt lat="38.7386784" lon="16.2477714"><ele>55.5</ele><time>2026-04-19T12:58:40.592Z</time></trkpt><trkpt lat="38.7387429" lon="16.2476526"><ele>57.25</ele><time>2026-04-19T12:58:41.595Z</time></trkpt><trkpt lat="38.7388163" lon="16.2475227"><ele>59.0</ele><time>2026-04-19T12:58:42.594Z</time></trkpt><trkpt lat="38.7388872" lon="16.2473952"><ele>57.75</ele><time>2026-04-19T12:58:43.612Z</time></trkpt><trkpt lat="38.7389508" lon="16.2472767"><ele>56.5</ele><time>2026-04-19T12:58:44.6Z</time></trkpt><trkpt lat="38.7390048" lon="16.247142"><ele>55.25</ele><time>2026-04-19T12:58:45.595Z</time></trkpt><trkpt lat="38.7390647" lon="16.2470012"><ele>54.0</ele><time>2026-04-19T12:58:46.593Z</time></trkpt><trkpt lat="38.7390853" lon="16.2468216"><ele>54.0</ele><time>2026-04-19T12:58:47.599Z</time></trkpt><trkpt lat="38.7391244" lon="16.2466239"><ele>54.0</ele><time>2026-04-19T12:58:48.627Z</time></trkpt><trkpt lat="38.7391662" lon="16.2464196"><ele>54.0</ele><time>2026-04-19T12:58:49.599Z</time></trkpt><trkpt lat="38.7392081" lon="16.2461973"><ele>55.66666666666667</ele><time>2026-04-19T12:58:50.597Z</time></trkpt><trkpt lat="38.7392475" lon="16.245975"><ele>57.333333333333336</ele><time>2026-04-19T12:58:51.592Z</time></trkpt><trkpt lat="38.7392929" lon="16.2457576"><ele>59.0</ele><time>2026-04-19T12:58:52.591Z</time></trkpt><trkpt lat="38.7393598" lon="16.2455518"><ele>64.25</ele><time>2026-04-19T12:58:53.591Z</time></trkpt><trkpt lat="38.7394292" lon="16.2453833"><ele>69.5</ele><time>2026-04-19T12:58:54.596Z</time></trkpt><trkpt lat="38.7394737" lon="16.2452333"><ele>74.75</ele><time>2026-04-19T12:58:55.592Z</time></trkpt><trkpt lat="38.7394876" lon="16.2450971"><ele>80.0</ele><time>2026-04-19T12:58:56.595Z</time></trkpt><trkpt lat="38.7394994" lon="16.2449685"><ele>80.0</ele><time>2026-04-19T12:58:57.604Z</time></trkpt><trkpt lat="38.7394495" lon="16.2448495"><ele>80.0</ele><time>2026-04-19T12:58:58.595Z</time></trkpt><trkpt lat="38.7393733" lon="16.2447235"><ele>80.0</ele><time>2026-04-19T12:58:59.597Z</time></trkpt><trkpt lat="38.7392619" lon="16.2446982"><ele>80.0</ele><time>2026-04-19T12:59:00.597Z</time></trkpt><trkpt lat="38.7391408" lon="16.2446607"><ele>78.75</ele><time>2026-04-19T12:59:01.603Z</time></trkpt><trkpt lat="38.7390005" lon="16.2446157"><ele>77.5</ele><time>2026-04-19T12:59:02.596Z</time></trkpt><trkpt lat="38.7388544" lon="16.2446107"><ele>76.25</ele><time>2026-04-19T12:59:03.605Z</time></trkpt><trkpt lat="38.7387251" lon="16.2446028"><ele>75.0</ele><time>2026-04-19T12:59:04.588Z</time></trkpt><trkpt lat="38.7385977" lon="16.2446072"><ele>72.25</ele><time>2026-04-19T12:59:05.59Z</time></trkpt><trkpt lat="38.738485" lon="16.2445559"><ele>69.5</ele><time>2026-04-19T12:59:06.589Z</time></trkpt><trkpt lat="38.7383803" lon="16.2444906"><ele>66.75</ele><time>2026-04-19T12:59:07.598Z</time></trkpt><trkpt lat="38.7382971" lon="16.2443527"><ele>64.0</ele><time>2026-04-19T12:59:08.609Z</time></trkpt><trkpt lat="38.7382617" lon="16.2441837"><ele>64.0</ele><time>2026-04-19T12:59:09.593Z</time></trkpt><trkpt lat="38.7382646" lon="16.2440189"><ele>64.0</ele><time>2026-04-19T12:59:10.594Z</time></trkpt><trkpt lat="38.7382943" lon="16.2438548"><ele>64.0</ele><time>2026-04-19T12:59:11.596Z</time></trkpt><trkpt lat="38.7383576" lon="16.2437081"><ele>64.0</ele><time>2026-04-19T12:59:12.589Z</time></trkpt><trkpt lat="38.7384552" lon="16.2435883"><ele>67.66666666666666</ele><time>2026-04-19T12:59:13.597Z</time></trkpt><trkpt lat="38.7385905" lon="16.2434968"><ele>71.33333333333333</ele><time>2026-04-19T12:59:14.591Z</time></trkpt><trkpt lat="38.7387465" lon="16.2434073"><ele>75.0</ele><time>2026-04-19T12:59:15.593Z</time></trkpt><trkpt lat="38.7388922" lon="16.2433343"><ele>75.0</ele><time>2026-04-19T12:59:16.603Z</time></trkpt><trkpt lat="38.739035" lon="16.2432643"><ele>75.0</ele><time>2026-04-19T12:59:17.592Z</time></trkpt><trkpt lat="38.7391472" lon="16.2431959"><ele>75.0</ele><time>2026-04-19T12:59:18.593Z</time></trkpt><trkpt lat="38.7392201" lon="16.2431531"><ele>75.0</ele><time>2026-04-19T12:59:19.591Z</time></trkpt><trkpt lat="38.739325" lon="16.2430839"><ele>73.83333333333333</ele><time>2026-04-19T12:59:21.592Z</time></trkpt><trkpt lat="38.7394239" lon="16.2430328"><ele>72.66666666666667</ele><time>2026-04-19T12:59:23.596Z</time></trkpt><trkpt lat="38.7395322" lon="16.2429886"><ele>71.5</ele><time>2026-04-19T12:59:25.6Z</time></trkpt><trkpt lat="38.739595" lon="16.242961"><ele>70.33333333333334</ele><time>2026-04-19T12:59:26.598Z</time></trkpt><trkpt lat="38.73966" lon="16.2429264"><ele>69.16666666666667</ele><time>2026-04-19T12:59:27.594Z</time></trkpt><trkpt lat="38.7397285" lon="16.2428825"><ele>68.0</ele><time>2026-04-19T12:59:28.602Z</time></trkpt><trkpt lat="38.7398012" lon="16.2428363"><ele>68.0</ele><time>2026-04-19T12:59:29.598Z</time></trkpt><trkpt lat="38.7398782" lon="16.2427913"><ele>68.0</ele><time>2026-04-19T12:59:30.592Z</time></trkpt><trkpt lat="38.7399627" lon="16.2427587"><ele>68.0</ele><time>2026-04-19T12:59:31.595Z</time></trkpt><trkpt lat="38.7400447" lon="16.2427292"><ele>68.0</ele><time>2026-04-19T12:59:32.591Z</time></trkpt><trkpt lat="38.7401409" lon="16.2426807"><ele>68.0</ele><time>2026-04-19T12:59:33.62Z</time></trkpt><trkpt lat="38.7402489" lon="16.2426255"><ele>67.75</ele><time>2026-04-19T12:59:34.591Z</time></trkpt><trkpt lat="38.7403562" lon="16.2425574"><ele>67.5</ele><time>2026-04-19T12:59:35.593Z</time></trkpt><trkpt lat="38.740461" lon="16.2424693"><ele>67.25</ele><time>2026-04-19T12:59:36.594Z</time></trkpt><trkpt lat="38.740563" lon="16.2423645"><ele>67.0</ele><time>2026-04-19T12:59:37.594Z</time></trkpt><trkpt lat="38.7406639" lon="16.2422493"><ele>67.0</ele><time>2026-04-19T12:59:38.62Z</time></trkpt><trkpt lat="38.7407678" lon="16.2421312"><ele>67.0</ele><time>2026-04-19T12:59:39.595Z</time></trkpt><trkpt lat="38.740878" lon="16.2420156"><ele>67.0</ele><time>2026-04-19T12:59:40.593Z</time></trkpt><trkpt lat="38.7409857" lon="16.2419058"><ele>67.0</ele><time>2026-04-19T12:59:41.597Z</time></trkpt><trkpt lat="38.7410829" lon="16.2418128"><ele>68.5</ele><time>2026-04-19T12:59:42.593Z</time></trkpt><trkpt lat="38.7411801" lon="16.2417206"><ele>70.0</ele><time>2026-04-19T12:59:43.61Z</time></trkpt><trkpt lat="38.7412699" lon="16.2416361"><ele>71.5</ele><time>2026-04-19T12:59:44.6Z</time></trkpt><trkpt lat="38.7413606" lon="16.2415529"><ele>73.0</ele><time>2026-04-19T12:59:45.601Z</time></trkpt><trkpt lat="38.7414492" lon="16.2414697"><ele>70.25</ele><time>2026-04-19T12:59:46.597Z</time></trkpt><trkpt lat="38.7415425" lon="16.2413833"><ele>67.5</ele><time>2026-04-19T12:59:47.595Z</time></trkpt><trkpt lat="38.7416562" lon="16.2412861"><ele>64.75</ele><time>2026-04-19T12:59:48.592Z</time></trkpt><trkpt lat="38.7417986" lon="16.2411576"><ele>62.0</ele><time>2026-04-19T12:59:49.593Z</time></trkpt><trkpt lat="38.7419476" lon="16.2410224"><ele>62.0</ele><time>2026-04-19T12:59:50.602Z</time></trkpt><trkpt lat="38.7420852" lon="16.2408962"><ele>62.0</ele><time>2026-04-19T12:59:51.598Z</time></trkpt><trkpt lat="38.7422141" lon="16.2407817"><ele>62.0</ele><time>2026-04-19T12:59:52.595Z</time></trkpt><trkpt lat="38.7423331" lon="16.2406937"><ele>62.0</ele><time>2026-04-19T12:59:53.601Z</time></trkpt><trkpt lat="38.7424354" lon="16.2406443"><ele>62.0</ele><time>2026-04-19T12:59:54.6Z</time></trkpt><trkpt lat="38.7425336" lon="16.2406087"><ele>62.0</ele><time>2026-04-19T12:59:55.597Z</time></trkpt><trkpt lat="38.7426232" lon="16.2406598"><ele>62.0</ele><time>2026-04-19T12:59:56.591Z</time></trkpt><trkpt lat="38.742721" lon="16.2407413"><ele>62.0</ele><time>2026-04-19T12:59:57.594Z</time></trkpt><trkpt lat="38.7427884" lon="16.2408756"><ele>61.5</ele><time>2026-04-19T12:59:58.597Z</time></trkpt><trkpt lat="38.7428392" lon="16.2410461"><ele>61.0</ele><time>2026-04-19T12:59:59.59Z</time></trkpt><trkpt lat="38.7428967" lon="16.2412282"><ele>60.5</ele><time>2026-04-19T13:00:00.595Z</time></trkpt><trkpt lat="38.7429616" lon="16.2413823"><ele>60.0</ele><time>2026-04-19T13:00:01.604Z</time></trkpt><trkpt lat="38.7430356" lon="16.2414819"><ele>60.0</ele><time>2026-04-19T13:00:02.597Z</time></trkpt><trkpt lat="38.7431228" lon="16.2415528"><ele>60.0</ele><time>2026-04-19T13:00:03.613Z</time></trkpt><trkpt lat="38.743213" lon="16.2416"><ele>60.0</ele><time>2026-04-19T13:00:04.597Z</time></trkpt><trkpt lat="38.7433006" lon="16.2416174"><ele>60.0</ele><time>2026-04-19T13:00:05.591Z</time></trkpt><trkpt lat="38.7433909" lon="16.2416034"><ele>60.0</ele><time>2026-04-19T13:00:06.6Z</time></trkpt><trkpt lat="38.7434825" lon="16.2415605"><ele>67.0</ele><time>2026-04-19T13:00:07.596Z</time></trkpt><trkpt lat="38.7435696" lon="16.2415022"><ele>74.0</ele><time>2026-04-19T13:00:08.591Z</time></trkpt><trkpt lat="38.7436371" lon="16.2413976"><ele>81.0</ele><time>2026-04-19T13:00:09.595Z</time></trkpt><trkpt lat="38.7436856" lon="16.2412479"><ele>88.0</ele><time>2026-04-19T13:00:10.601Z</time></trkpt><trkpt lat="38.7437276" lon="16.2410609"><ele>88.0</ele><time>2026-04-19T13:00:11.599Z</time></trkpt><trkpt lat="38.7437738" lon="16.2408569"><ele>88.0</ele><time>2026-04-19T13:00:12.588Z</time></trkpt><trkpt lat="38.7438199" lon="16.2406681"><ele>88.0</ele><time>2026-04-19T13:00:13.595Z</time></trkpt><trkpt lat="38.7438912" lon="16.2405015"><ele>83.75</ele><time>2026-04-19T13:00:14.593Z</time></trkpt><trkpt lat="38.7439807" lon="16.2403366"><ele>79.5</ele><time>2026-04-19T13:00:15.625Z</time></trkpt><trkpt lat="38.7440793" lon="16.2401888"><ele>75.25</ele><time>2026-04-19T13:00:16.598Z</time></trkpt><trkpt lat="38.7441779" lon="16.2400698"><ele>71.0</ele><time>2026-04-19T13:00:17.597Z</time></trkpt><trkpt lat="38.7442801" lon="16.2399644"><ele>71.0</ele><time>2026-04-19T13:00:18.594Z</time></trkpt><trkpt lat="38.7444096" lon="16.2399152"><ele>71.0</ele><time>2026-04-19T13:00:19.598Z</time></trkpt><trkpt lat="38.7445437" lon="16.2398715"><ele>71.0</ele><time>2026-04-19T13:00:20.598Z</time></trkpt><trkpt lat="38.7446872" lon="16.2398358"><ele>71.0</ele><time>2026-04-19T13:00:21.596Z</time></trkpt><trkpt lat="38.7448415" lon="16.2397982"><ele>71.0</ele><time>2026-04-19T13:00:22.603Z</time></trkpt><trkpt lat="38.7450027" lon="16.2397553"><ele>71.0</ele><time>2026-04-19T13:00:23.597Z</time></trkpt><trkpt lat="38.7451681" lon="16.2397093"><ele>71.0</ele><time>2026-04-19T13:00:24.595Z</time></trkpt><trkpt lat="38.745334" lon="16.2396578"><ele>74.33333333333334</ele><time>2026-04-19T13:00:25.592Z</time></trkpt><trkpt lat="38.7454978" lon="16.2396136"><ele>77.66666666666667</ele><time>2026-04-19T13:00:26.597Z</time></trkpt><trkpt lat="38.7456485" lon="16.2395705"><ele>81.0</ele><time>2026-04-19T13:00:27.604Z</time></trkpt><trkpt lat="38.7457838" lon="16.2395364"><ele>81.0</ele><time>2026-04-19T13:00:28.594Z</time></trkpt><trkpt lat="38.7459102" lon="16.2395001"><ele>81.0</ele><time>2026-04-19T13:00:29.596Z</time></trkpt><trkpt lat="38.7460238" lon="16.2395014"><ele>81.0</ele><time>2026-04-19T13:00:30.591Z</time></trkpt><trkpt lat="38.7461345" lon="16.2395477"><ele>81.0</ele><time>2026-04-19T13:00:31.594Z</time></trkpt><trkpt lat="38.7462485" lon="16.2396071"><ele>83.5</ele><time>2026-04-19T13:00:32.596Z</time></trkpt><trkpt lat="38.7463356" lon="16.239721"><ele>86.0</ele><time>2026-04-19T13:00:33.595Z</time></trkpt><trkpt lat="38.7463952" lon="16.2398707"><ele>88.5</ele><time>2026-04-19T13:00:34.593Z</time></trkpt><trkpt lat="38.7464567" lon="16.24004"><ele>91.0</ele><time>2026-04-19T13:00:35.599Z</time></trkpt><trkpt lat="38.7465198" lon="16.2402458"><ele>91.0</ele><time>2026-04-19T13:00:36.595Z</time></trkpt><trkpt lat="38.7465984" lon="16.2404724"><ele>91.0</ele><time>2026-04-19T13:00:37.593Z</time></trkpt><trkpt lat="38.7466569" lon="16.2406661"><ele>91.0</ele><time>2026-04-19T13:00:38.618Z</time></trkpt><trkpt lat="38.7466973" lon="16.2408295"><ele>91.0</ele><time>2026-04-19T13:00:39.592Z</time></trkpt><trkpt lat="38.7467679" lon="16.2409456"><ele>91.0</ele><time>2026-04-19T13:00:40.6Z</time></trkpt><trkpt lat="38.7468688" lon="16.2410446"><ele>91.0</ele><time>2026-04-19T13:00:41.589Z</time></trkpt><trkpt lat="38.7469634" lon="16.2411309"><ele>91.0</ele><time>2026-04-19T13:00:42.591Z</time></trkpt><trkpt lat="38.7470872" lon="16.2411731"><ele>87.5</ele><time>2026-04-19T13:00:43.599Z</time></trkpt><trkpt lat="38.7472423" lon="16.2411918"><ele>84.0</ele><time>2026-04-19T13:00:44.599Z</time></trkpt><trkpt lat="38.7473914" lon="16.2411712"><ele>80.5</ele><time>2026-04-19T13:00:45.611Z</time></trkpt><trkpt lat="38.7475151" lon="16.2410918"><ele>77.0</ele><time>2026-04-19T13:00:46.592Z</time></trkpt><trkpt lat="38.7476411" lon="16.240967"><ele>81.33333333333334</ele><time>2026-04-19T13:00:47.597Z</time></trkpt><trkpt lat="38.7477663" lon="16.2407881"><ele>85.66666666666667</ele><time>2026-04-19T13:00:48.598Z</time></trkpt><trkpt lat="38.7479013" lon="16.240625"><ele>90.0</ele><time>2026-04-19T13:00:49.597Z</time></trkpt><trkpt lat="38.7480167" lon="16.2404811"><ele>80.33333333333333</ele><time>2026-04-19T13:00:50.593Z</time></trkpt><trkpt lat="38.7481513" lon="16.2403827"><ele>70.66666666666666</ele><time>2026-04-19T13:00:51.594Z</time></trkpt><trkpt lat="38.7483138" lon="16.2402883"><ele>61.0</ele><time>2026-04-19T13:00:52.593Z</time></trkpt><trkpt lat="38.7485246" lon="16.2402404"><ele>61.33333333333333</ele><time>2026-04-19T13:00:53.594Z</time></trkpt><trkpt lat="38.748731" lon="16.2401928"><ele>61.66666666666667</ele><time>2026-04-19T13:00:54.589Z</time></trkpt><trkpt lat="38.748925" lon="16.2401505"><ele>62.0</ele><time>2026-04-19T13:00:55.622Z</time></trkpt><trkpt lat="38.7490997" lon="16.240106"><ele>62.0</ele><time>2026-04-19T13:00:56.599Z</time></trkpt><trkpt lat="38.7492672" lon="16.2400748"><ele>62.0</ele><time>2026-04-19T13:00:57.593Z</time></trkpt><trkpt lat="38.749422" lon="16.240054"><ele>62.0</ele><time>2026-04-19T13:00:58.594Z</time></trkpt><trkpt lat="38.7495689" lon="16.2400274"><ele>59.0</ele><time>2026-04-19T13:00:59.594Z</time></trkpt><trkpt lat="38.7497031" lon="16.2399987"><ele>56.0</ele><time>2026-04-19T13:01:00.592Z</time></trkpt><trkpt lat="38.7498218" lon="16.2399661"><ele>53.0</ele><time>2026-04-19T13:01:01.592Z</time></trkpt><trkpt lat="38.7499228" lon="16.2399309"><ele>50.0</ele><time>2026-04-19T13:01:02.594Z</time></trkpt><trkpt lat="38.7500221" lon="16.2399128"><ele>50.0</ele><time>2026-04-19T13:01:03.594Z</time></trkpt><trkpt lat="38.7501138" lon="16.239897"><ele>50.0</ele><time>2026-04-19T13:01:04.606Z</time></trkpt><trkpt lat="38.7502084" lon="16.2398747"><ele>50.0</ele><time>2026-04-19T13:01:05.595Z</time></trkpt><trkpt lat="38.7502907" lon="16.2398542"><ele>50.0</ele><time>2026-04-19T13:01:06.592Z</time></trkpt><trkpt lat="38.7503642" lon="16.2398367"><ele>50.0</ele><time>2026-04-19T13:01:07.597Z</time></trkpt><trkpt lat="38.7504763" lon="16.2397926"><ele>50.50000000000001</ele><time>2026-04-19T13:01:09.612Z</time></trkpt><trkpt lat="38.7505488" lon="16.2397629"><ele>51.0</ele><time>2026-04-19T13:01:11.6Z</time></trkpt><trkpt lat="38.7505953" lon="16.2398191"><ele>51.5</ele><time>2026-04-19T13:01:13.598Z</time></trkpt><trkpt lat="38.7505343" lon="16.2398987"><ele>52.0</ele><time>2026-04-19T13:01:15.599Z</time></trkpt><trkpt lat="38.7504467" lon="16.2399375"><ele>52.50000000000001</ele><time>2026-04-19T13:01:16.604Z</time></trkpt><trkpt lat="38.7503514" lon="16.2399768"><ele>53.0</ele><time>2026-04-19T13:01:17.597Z</time></trkpt><trkpt lat="38.7502573" lon="16.2400174"><ele>52.50000000000001</ele><time>2026-04-19T13:01:18.606Z</time></trkpt><trkpt lat="38.7501691" lon="16.2400522"><ele>52.0</ele><time>2026-04-19T13:01:19.595Z</time></trkpt><trkpt lat="38.7500964" lon="16.2400927"><ele>51.5</ele><time>2026-04-19T13:01:20.591Z</time></trkpt><trkpt lat="38.7500325" lon="16.2401401"><ele>51.0</ele><time>2026-04-19T13:01:21.595Z</time></trkpt><trkpt lat="38.7499892" lon="16.2402274"><ele>50.50000000000001</ele><time>2026-04-19T13:01:22.594Z</time></trkpt><trkpt lat="38.7499495" lon="16.2403212"><ele>50.0</ele><time>2026-04-19T13:01:23.611Z</time></trkpt><trkpt lat="38.7499261" lon="16.240431"><ele>50.0</ele><time>2026-04-19T13:01:24.595Z</time></trkpt><trkpt lat="38.7499059" lon="16.2405457"><ele>50.0</ele><time>2026-04-19T13:01:25.595Z</time></trkpt><trkpt lat="38.7498994" lon="16.2406661"><ele>50.0</ele><time>2026-04-19T13:01:26.601Z</time></trkpt><trkpt lat="38.7498986" lon="16.2408021"><ele>50.0</ele><time>2026-04-19T13:01:27.595Z</time></trkpt><trkpt lat="38.74989" lon="16.2409443"><ele>50.0</ele><time>2026-04-19T13:01:28.607Z</time></trkpt><trkpt lat="38.7498775" lon="16.241088"><ele>50.66666666666667</ele><time>2026-04-19T13:01:29.589Z</time></trkpt><trkpt lat="38.7498636" lon="16.2412231"><ele>51.333333333333336</ele><time>2026-04-19T13:01:30.596Z</time></trkpt><trkpt lat="38.7498697" lon="16.2413205"><ele>52.0</ele><time>2026-04-19T13:01:31.594Z</time></trkpt><trkpt lat="38.7498894" lon="16.2413986"><ele>52.66666666666667</ele><time>2026-04-19T13:01:32.593Z</time></trkpt><trkpt lat="38.7499681" lon="16.2415181"><ele>53.333333333333336</ele><time>2026-04-19T13:01:34.6Z</time></trkpt><trkpt lat="38.7500296" lon="16.2415806"><ele>54.0</ele><time>2026-04-19T13:01:35.609Z</time></trkpt><trkpt lat="38.7501166" lon="16.24165"><ele>55.0</ele><time>2026-04-19T13:01:36.593Z</time></trkpt><trkpt lat="38.750182" lon="16.2417103"><ele>56.00000000000001</ele><time>2026-04-19T13:01:37.6Z</time></trkpt><trkpt lat="38.7503243" lon="16.2417682"><ele>57.00000000000001</ele><time>2026-04-19T13:01:44.598Z</time></trkpt><trkpt lat="38.7504072" lon="16.2418427"><ele>58.0</ele><time>2026-04-19T13:01:46.592Z</time></trkpt><trkpt lat="38.7504896" lon="16.2419329"><ele>59.0</ele><time>2026-04-19T13:01:48.598Z</time></trkpt><trkpt lat="38.7505468" lon="16.2419911"><ele>62.400000000000006</ele><time>2026-04-19T13:01:49.599Z</time></trkpt><trkpt lat="38.7506322" lon="16.2420586"><ele>65.80000000000001</ele><time>2026-04-19T13:01:51.597Z</time></trkpt><trkpt lat="38.750709" lon="16.2421029"><ele>69.19999999999999</ele><time>2026-04-19T13:01:53.601Z</time></trkpt><trkpt lat="38.7507968" lon="16.2421439"><ele>72.6</ele><time>2026-04-19T13:01:55.594Z</time></trkpt><trkpt lat="38.7508692" lon="16.2422499"><ele>76.0</ele><time>2026-04-19T13:01:57.601Z</time></trkpt><trkpt lat="38.7508999" lon="16.2423314"><ele>76.5</ele><time>2026-04-19T13:01:58.601Z</time></trkpt><trkpt lat="38.7509371" lon="16.2424192"><ele>77.0</ele><time>2026-04-19T13:01:59.594Z</time></trkpt><trkpt lat="38.7510057" lon="16.2425618"><ele>77.5</ele><time>2026-04-19T13:02:01.599Z</time></trkpt><trkpt lat="38.7510517" lon="16.2426379"><ele>78.0</ele><time>2026-04-19T13:02:02.591Z</time></trkpt><trkpt lat="38.7511025" lon="16.2427032"><ele>78.5</ele><time>2026-04-19T13:02:03.608Z</time></trkpt><trkpt lat="38.7511635" lon="16.2427682"><ele>79.0</ele><time>2026-04-19T13:02:04.585Z</time></trkpt><trkpt lat="38.7512305" lon="16.2428202"><ele>81.42857142857143</ele><time>2026-04-19T13:02:05.593Z</time></trkpt><trkpt lat="38.7512721" lon="16.2428858"><ele>83.85714285714286</ele><time>2026-04-19T13:02:06.588Z</time></trkpt><trkpt lat="38.751315" lon="16.2429644"><ele>86.28571428571428</ele><time>2026-04-19T13:02:07.59Z</time></trkpt><trkpt lat="38.751356" lon="16.2430282"><ele>88.71428571428572</ele><time>2026-04-19T13:02:08.59Z</time></trkpt><trkpt lat="38.7514036" lon="16.2431038"><ele>91.14285714285714</ele><time>2026-04-19T13:02:09.587Z</time></trkpt><trkpt lat="38.7514508" lon="16.2432021"><ele>93.57142857142857</ele><time>2026-04-19T13:02:10.594Z</time></trkpt><trkpt lat="38.7514832" lon="16.2432803"><ele>96.0</ele><time>2026-04-19T13:02:11.592Z</time></trkpt><trkpt lat="38.7515472" lon="16.2433547"><ele>96.8</ele><time>2026-04-19T13:02:12.602Z</time></trkpt><trkpt lat="38.7516027" lon="16.2434012"><ele>97.6</ele><time>2026-04-19T13:02:13.586Z</time></trkpt><trkpt lat="38.7517191" lon="16.2434674"><ele>98.4</ele><time>2026-04-19T13:02:15.592Z</time></trkpt><trkpt lat="38.7518164" lon="16.2435186"><ele>99.2</ele><time>2026-04-19T13:02:17.602Z</time></trkpt><trkpt lat="38.7519131" lon="16.2435646"><ele>100.0</ele><time>2026-04-19T13:02:19.588Z</time></trkpt><trkpt lat="38.7519871" lon="16.2436466"><ele>101.16666666666667</ele><time>2026-04-19T13:02:21.589Z</time></trkpt><trkpt lat="38.7520536" lon="16.2437354"><ele>102.33333333333334</ele><time>2026-04-19T13:02:23.592Z</time></trkpt><trkpt lat="38.7521015" lon="16.2438507"><ele>103.5</ele><time>2026-04-19T13:02:25.598Z</time></trkpt><trkpt lat="38.7521181" lon="16.2439631"><ele>104.66666666666666</ele><time>2026-04-19T13:02:27.597Z</time></trkpt><trkpt lat="38.7520978" lon="16.2440531"><ele>105.83333333333333</ele><time>2026-04-19T13:02:29.588Z</time></trkpt><trkpt lat="38.7520671" lon="16.2441606"><ele>107.0</ele><time>2026-04-19T13:02:33.593Z</time></trkpt><trkpt lat="38.7520331" lon="16.2442534"><ele>107.0</ele><time>2026-04-19T13:02:35.6Z</time></trkpt><trkpt lat="38.7519899" lon="16.2443193"><ele>106.99999999999999</ele><time>2026-04-19T13:02:37.592Z</time></trkpt><trkpt lat="38.7519793" lon="16.2444667"><ele>106.99999999999999</ele><time>2026-04-19T13:02:41.594Z</time></trkpt><trkpt lat="38.7520027" lon="16.2445833"><ele>107.0</ele><time>2026-04-19T13:02:43.599Z</time></trkpt><trkpt lat="38.7519875" lon="16.2447294"><ele>107.0</ele><time>2026-04-19T13:02:45.602Z</time></trkpt><trkpt lat="38.7519323" lon="16.2448844"><ele>102.39999999999999</ele><time>2026-04-19T13:02:47.59Z</time></trkpt><trkpt lat="38.7519068" lon="16.2450114"><ele>97.79999999999998</ele><time>2026-04-19T13:02:49.594Z</time></trkpt><trkpt lat="38.7519063" lon="16.2451393"><ele>93.2</ele><time>2026-04-19T13:02:51.613Z</time></trkpt><trkpt lat="38.7520197" lon="16.2452567"><ele>88.6</ele><time>2026-04-19T13:02:56.592Z</time></trkpt><trkpt lat="38.7520813" lon="16.245325"><ele>84.0</ele><time>2026-04-19T13:02:59.586Z</time></trkpt><trkpt lat="38.7521378" lon="16.2454029"><ele>84.0</ele><time>2026-04-19T13:03:02.587Z</time></trkpt><trkpt lat="38.7521824" lon="16.2454833"><ele>84.0</ele><time>2026-04-19T13:03:04.589Z</time></trkpt><trkpt lat="38.7522209" lon="16.2455524"><ele>84.0</ele><time>2026-04-19T13:03:06.582Z</time></trkpt><trkpt lat="38.7522625" lon="16.245632"><ele>84.0</ele><time>2026-04-19T13:03:08.584Z</time></trkpt><trkpt lat="38.7522786" lon="16.2457429"><ele>84.0</ele><time>2026-04-19T13:03:10.589Z</time></trkpt><trkpt lat="38.7522812" lon="16.2458705"><ele>84.0</ele><time>2026-04-19T13:03:12.599Z</time></trkpt><trkpt lat="38.7522455" lon="16.2459468"><ele>80.8</ele><time>2026-04-19T13:03:13.587Z</time></trkpt><trkpt lat="38.7521845" lon="16.2460804"><ele>77.60000000000001</ele><time>2026-04-19T13:03:15.59Z</time></trkpt><trkpt lat="38.7521519" lon="16.246221"><ele>74.4</ele><time>2026-04-19T13:03:17.594Z</time></trkpt><trkpt lat="38.7521421" lon="16.2463489"><ele>71.2</ele><time>2026-04-19T13:03:19.609Z</time></trkpt><trkpt lat="38.7521569" lon="16.2464469"><ele>68.0</ele><time>2026-04-19T13:03:21.585Z</time></trkpt><trkpt lat="38.7522019" lon="16.2465096"><ele>65.6</ele><time>2026-04-19T13:03:23.589Z</time></trkpt><trkpt lat="38.7523064" lon="16.2465458"><ele>63.199999999999996</ele><time>2026-04-19T13:03:25.59Z</time></trkpt><trkpt lat="38.7523681" lon="16.2465623"><ele>60.8</ele><time>2026-04-19T13:03:26.613Z</time></trkpt><trkpt lat="38.7524501" lon="16.2466424"><ele>58.4</ele><time>2026-04-19T13:03:28.584Z</time></trkpt><trkpt lat="38.7525024" lon="16.2467349"><ele>56.0</ele><time>2026-04-19T13:03:31.599Z</time></trkpt><trkpt lat="38.7525341" lon="16.246844"><ele>56.0</ele><time>2026-04-19T13:03:34.592Z</time></trkpt><trkpt lat="38.7525838" lon="16.2469667"><ele>55.99999999999999</ele><time>2026-04-19T13:03:37.587Z</time></trkpt><trkpt lat="38.7526364" lon="16.2470656"><ele>55.99999999999999</ele><time>2026-04-19T13:03:39.602Z</time></trkpt><trkpt lat="38.7526848" lon="16.247175"><ele>56.0</ele><time>2026-04-19T13:03:41.587Z</time></trkpt><trkpt lat="38.7527408" lon="16.2472782"><ele>56.0</ele><time>2026-04-19T13:03:43.59Z</time></trkpt><trkpt lat="38.7527878" lon="16.247366"><ele>54.4</ele><time>2026-04-19T13:03:45.599Z</time></trkpt><trkpt lat="38.752857" lon="16.2474816"><ele>52.8</ele><time>2026-04-19T13:03:47.587Z</time></trkpt><trkpt lat="38.7529329" lon="16.247571"><ele>51.199999999999996</ele><time>2026-04-19T13:03:49.592Z</time></trkpt><trkpt lat="38.7530274" lon="16.2476388"><ele>49.599999999999994</ele><time>2026-04-19T13:03:51.596Z</time></trkpt><trkpt lat="38.7531384" lon="16.247698"><ele>48.0</ele><time>2026-04-19T13:03:53.585Z</time></trkpt><trkpt lat="38.7532305" lon="16.2477244"><ele>48.0</ele><time>2026-04-19T13:03:55.589Z</time></trkpt><trkpt lat="38.7533106" lon="16.2477562"><ele>48.0</ele><time>2026-04-19T13:03:57.603Z</time></trkpt><trkpt lat="38.7533769" lon="16.2477853"><ele>48.0</ele><time>2026-04-19T13:03:58.595Z</time></trkpt><trkpt lat="38.7534628" lon="16.2478349"><ele>48.0</ele><time>2026-04-19T13:03:59.592Z</time></trkpt><trkpt lat="38.75355" lon="16.247883"><ele>48.0</ele><time>2026-04-19T13:04:00.591Z</time></trkpt><trkpt lat="38.7536311" lon="16.2479305"><ele>48.0</ele><time>2026-04-19T13:04:01.589Z</time></trkpt><trkpt lat="38.7536936" lon="16.2479808"><ele>48.333333333333336</ele><time>2026-04-19T13:04:02.585Z</time></trkpt><trkpt lat="38.7537553" lon="16.2480332"><ele>48.66666666666667</ele><time>2026-04-19T13:04:03.589Z</time></trkpt><trkpt lat="38.7537962" lon="16.248101"><ele>49.0</ele><time>2026-04-19T13:04:04.588Z</time></trkpt><trkpt lat="38.7538414" lon="16.2482587"><ele>49.333333333333336</ele><time>2026-04-19T13:04:06.59Z</time></trkpt><trkpt lat="38.7538622" lon="16.2483673"><ele>49.66666666666667</ele><time>2026-04-19T13:04:08.593Z</time></trkpt><trkpt lat="38.7539369" lon="16.2484277"><ele>50.0</ele><time>2026-04-19T13:04:14.6Z</time></trkpt><trkpt lat="38.7540473" lon="16.2483748"><ele>50.0</ele><time>2026-04-19T13:04:16.595Z</time></trkpt><trkpt lat="38.7541602" lon="16.2482482"><ele>50.0</ele><time>2026-04-19T13:04:17.59Z</time></trkpt><trkpt lat="38.7542679" lon="16.2481201"><ele>50.0</ele><time>2026-04-19T13:04:18.591Z</time></trkpt><trkpt lat="38.7543836" lon="16.2480064"><ele>50.0</ele><time>2026-04-19T13:04:19.593Z</time></trkpt><trkpt lat="38.7544844" lon="16.247911"><ele>49.333333333333336</ele><time>2026-04-19T13:04:20.607Z</time></trkpt><trkpt lat="38.7545528" lon="16.247842"><ele>48.66666666666667</ele><time>2026-04-19T13:04:21.593Z</time></trkpt><trkpt lat="38.7546064" lon="16.2477833"><ele>48.0</ele><time>2026-04-19T13:04:22.595Z</time></trkpt><trkpt lat="38.7546623" lon="16.2477237"><ele>47.333333333333336</ele><time>2026-04-19T13:04:23.599Z</time></trkpt><trkpt lat="38.7547148" lon="16.2476669"><ele>46.66666666666667</ele><time>2026-04-19T13:04:24.594Z</time></trkpt><trkpt lat="38.7548102" lon="16.2475639"><ele>46.0</ele><time>2026-04-19T13:04:26.599Z</time></trkpt><trkpt lat="38.7548715" lon="16.2475024"><ele>46.0</ele><time>2026-04-19T13:04:27.592Z</time></trkpt><trkpt lat="38.7549294" lon="16.2474421"><ele>46.0</ele><time>2026-04-19T13:04:28.59Z</time></trkpt><trkpt lat="38.7549776" lon="16.2473898"><ele>46.0</ele><time>2026-04-19T13:04:29.594Z</time></trkpt><trkpt lat="38.7550654" lon="16.2472958"><ele>46.0</ele><time>2026-04-19T13:04:31.593Z</time></trkpt><trkpt lat="38.7551649" lon="16.2471909"><ele>46.0</ele><time>2026-04-19T13:04:33.608Z</time></trkpt><trkpt lat="38.7552217" lon="16.2471332"><ele>45.833333333333336</ele><time>2026-04-19T13:04:34.597Z</time></trkpt><trkpt lat="38.7552865" lon="16.2470725"><ele>45.66666666666667</ele><time>2026-04-19T13:04:35.593Z</time></trkpt><trkpt lat="38.7553499" lon="16.2470161"><ele>45.5</ele><time>2026-04-19T13:04:36.594Z</time></trkpt><trkpt lat="38.7554106" lon="16.2469611"><ele>45.333333333333336</ele><time>2026-04-19T13:04:37.593Z</time></trkpt><trkpt lat="38.7554702" lon="16.2469026"><ele>45.166666666666664</ele><time>2026-04-19T13:04:38.603Z</time></trkpt><trkpt lat="38.7555459" lon="16.2468215"><ele>45.0</ele><time>2026-04-19T13:04:39.591Z</time></trkpt><trkpt lat="38.7556479" lon="16.246715"><ele>45.0</ele><time>2026-04-19T13:04:40.595Z</time></trkpt><trkpt lat="38.7557711" lon="16.2465918"><ele>45.0</ele><time>2026-04-19T13:04:41.591Z</time></trkpt><trkpt lat="38.7558883" lon="16.2464732"><ele>45.0</ele><time>2026-04-19T13:04:42.591Z</time></trkpt><trkpt lat="38.7560023" lon="16.2463557"><ele>45.0</ele><time>2026-04-19T13:04:43.599Z</time></trkpt><trkpt lat="38.7561216" lon="16.2462375"><ele>45.0</ele><time>2026-04-19T13:04:44.594Z</time></trkpt><trkpt lat="38.7562393" lon="16.2461225"><ele>45.0</ele><time>2026-04-19T13:04:45.613Z</time></trkpt><trkpt lat="38.7563451" lon="16.2460151"><ele>45.0</ele><time>2026-04-19T13:04:46.592Z</time></trkpt><trkpt lat="38.756453" lon="16.2459061"><ele>45.0</ele><time>2026-04-19T13:04:47.587Z</time></trkpt><trkpt lat="38.7565526" lon="16.2458039"><ele>45.0</ele><time>2026-04-19T13:04:48.587Z</time></trkpt><trkpt lat="38.7566443" lon="16.2457085"><ele>45.0</ele><time>2026-04-19T13:04:49.591Z</time></trkpt><trkpt lat="38.7567381" lon="16.2456123"><ele>45.0</ele><time>2026-04-19T13:04:50.591Z</time></trkpt><trkpt lat="38.7568367" lon="16.245511"><ele>44.25</ele><time>2026-04-19T13:04:51.587Z</time></trkpt><trkpt lat="38.7569368" lon="16.2454072"><ele>43.5</ele><time>2026-04-19T13:04:52.615Z</time></trkpt><trkpt lat="38.7570543" lon="16.2453094"><ele>42.75</ele><time>2026-04-19T13:04:53.588Z</time></trkpt><trkpt lat="38.7571787" lon="16.2452292"><ele>42.0</ele><time>2026-04-19T13:04:54.588Z</time></trkpt><trkpt lat="38.7573118" lon="16.2451648"><ele>42.0</ele><time>2026-04-19T13:04:55.585Z</time></trkpt><trkpt lat="38.7574547" lon="16.2451232"><ele>42.0</ele><time>2026-04-19T13:04:56.594Z</time></trkpt><trkpt lat="38.7575903" lon="16.2450941"><ele>42.0</ele><time>2026-04-19T13:04:57.591Z</time></trkpt><trkpt lat="38.7577072" lon="16.2450732"><ele>42.0</ele><time>2026-04-19T13:04:58.588Z</time></trkpt><trkpt lat="38.7578197" lon="16.245061"><ele>43.75</ele><time>2026-04-19T13:04:59.585Z</time></trkpt><trkpt lat="38.7579324" lon="16.2450477"><ele>45.5</ele><time>2026-04-19T13:05:00.587Z</time></trkpt><trkpt lat="38.7580437" lon="16.2450335"><ele>47.25</ele><time>2026-04-19T13:05:01.588Z</time></trkpt><trkpt lat="38.7581583" lon="16.2450047"><ele>49.0</ele><time>2026-04-19T13:05:02.609Z</time></trkpt><trkpt lat="38.7582793" lon="16.2449752"><ele>49.0</ele><time>2026-04-19T13:05:03.588Z</time></trkpt><trkpt lat="38.7584012" lon="16.2449062"><ele>49.0</ele><time>2026-04-19T13:05:04.586Z</time></trkpt><trkpt lat="38.758531" lon="16.2448178"><ele>49.0</ele><time>2026-04-19T13:05:05.59Z</time></trkpt><trkpt lat="38.7586567" lon="16.2447249"><ele>49.0</ele><time>2026-04-19T13:05:06.591Z</time></trkpt><trkpt lat="38.7587723" lon="16.2446391"><ele>47.5</ele><time>2026-04-19T13:05:07.581Z</time></trkpt><trkpt lat="38.7588823" lon="16.2445588"><ele>46.0</ele><time>2026-04-19T13:05:08.591Z</time></trkpt><trkpt lat="38.7589794" lon="16.2444823"><ele>44.5</ele><time>2026-04-19T13:05:09.585Z</time></trkpt><trkpt lat="38.7590763" lon="16.2444079"><ele>43.0</ele><time>2026-04-19T13:05:10.587Z</time></trkpt><trkpt lat="38.7591852" lon="16.2443342"><ele>43.0</ele><time>2026-04-19T13:05:11.592Z</time></trkpt><trkpt lat="38.7592943" lon="16.2442649"><ele>43.0</ele><time>2026-04-19T13:05:12.588Z</time></trkpt><trkpt lat="38.7594032" lon="16.2442"><ele>43.0</ele><time>2026-04-19T13:05:13.588Z</time></trkpt><trkpt lat="38.7595052" lon="16.2441378"><ele>43.0</ele><time>2026-04-19T13:05:14.586Z</time></trkpt><trkpt lat="38.7596041" lon="16.2440803"><ele>43.25</ele><time>2026-04-19T13:05:15.587Z</time></trkpt><trkpt lat="38.7597083" lon="16.2440171"><ele>43.5</ele><time>2026-04-19T13:05:16.583Z</time></trkpt><trkpt lat="38.759815" lon="16.2439537"><ele>43.75</ele><time>2026-04-19T13:05:17.579Z</time></trkpt><trkpt lat="38.7599244" lon="16.2438935"><ele>44.0</ele><time>2026-04-19T13:05:18.587Z</time></trkpt><trkpt lat="38.7600336" lon="16.2438328"><ele>44.0</ele><time>2026-04-19T13:05:19.587Z</time></trkpt><trkpt lat="38.760133" lon="16.2437833"><ele>44.0</ele><time>2026-04-19T13:05:20.587Z</time></trkpt><trkpt lat="38.7602334" lon="16.2437434"><ele>44.0</ele><time>2026-04-19T13:05:21.607Z</time></trkpt><trkpt lat="38.7603387" lon="16.2437167"><ele>44.0</ele><time>2026-04-19T13:05:22.585Z</time></trkpt><trkpt lat="38.7604454" lon="16.2436914"><ele>44.0</ele><time>2026-04-19T13:05:23.588Z</time></trkpt><trkpt lat="38.7605551" lon="16.2436739"><ele>43.5</ele><time>2026-04-19T13:05:24.587Z</time></trkpt><trkpt lat="38.760666" lon="16.243671"><ele>43.0</ele><time>2026-04-19T13:05:25.581Z</time></trkpt><trkpt lat="38.7607922" lon="16.2436772"><ele>42.5</ele><time>2026-04-19T13:05:26.611Z</time></trkpt><trkpt lat="38.7609364" lon="16.2436938"><ele>42.0</ele><time>2026-04-19T13:05:27.581Z</time></trkpt><trkpt lat="38.7610815" lon="16.2437145"><ele>42.0</ele><time>2026-04-19T13:05:28.584Z</time></trkpt><trkpt lat="38.7612067" lon="16.2437469"><ele>42.0</ele><time>2026-04-19T13:05:29.583Z</time></trkpt><trkpt lat="38.7613251" lon="16.2437797"><ele>42.0</ele><time>2026-04-19T13:05:30.588Z</time></trkpt><trkpt lat="38.7614458" lon="16.2438117"><ele>42.0</ele><time>2026-04-19T13:05:31.6Z</time></trkpt><trkpt lat="38.7615753" lon="16.2438196"><ele>42.0</ele><time>2026-04-19T13:05:32.583Z</time></trkpt><trkpt lat="38.761707" lon="16.2438207"><ele>42.0</ele><time>2026-04-19T13:05:33.587Z</time></trkpt><trkpt lat="38.7618507" lon="16.2437621"><ele>42.0</ele><time>2026-04-19T13:05:34.584Z</time></trkpt><trkpt lat="38.7620123" lon="16.2437071"><ele>44.5</ele><time>2026-04-19T13:05:35.581Z</time></trkpt><trkpt lat="38.7621585" lon="16.243657"><ele>47.0</ele><time>2026-04-19T13:05:36.587Z</time></trkpt><trkpt lat="38.762287" lon="16.2436074"><ele>49.5</ele><time>2026-04-19T13:05:37.582Z</time></trkpt><trkpt lat="38.7623969" lon="16.2435529"><ele>52.0</ele><time>2026-04-19T13:05:38.592Z</time></trkpt><trkpt lat="38.7624759" lon="16.2434877"><ele>51.99999999999999</ele><time>2026-04-19T13:05:39.582Z</time></trkpt><trkpt lat="38.7625333" lon="16.2434155"><ele>52.0</ele><time>2026-04-19T13:05:40.581Z</time></trkpt><trkpt lat="38.7625789" lon="16.2433197"><ele>52.0</ele><time>2026-04-19T13:05:41.585Z</time></trkpt><trkpt lat="38.7626117" lon="16.243218"><ele>52.0</ele><time>2026-04-19T13:05:42.585Z</time></trkpt><trkpt lat="38.7626418" lon="16.2431112"><ele>51.99999999999999</ele><time>2026-04-19T13:05:43.604Z</time></trkpt><trkpt lat="38.7626576" lon="16.2429855"><ele>52.0</ele><time>2026-04-19T13:05:44.587Z</time></trkpt><trkpt lat="38.7626743" lon="16.2428545"><ele>50.5</ele><time>2026-04-19T13:05:45.58Z</time></trkpt><trkpt lat="38.7626943" lon="16.2427091"><ele>49.0</ele><time>2026-04-19T13:05:46.585Z</time></trkpt><trkpt lat="38.7627331" lon="16.2425446"><ele>47.5</ele><time>2026-04-19T13:05:47.589Z</time></trkpt><trkpt lat="38.7627814" lon="16.2423824"><ele>46.0</ele><time>2026-04-19T13:05:48.583Z</time></trkpt><trkpt lat="38.7628231" lon="16.2422183"><ele>51.5</ele><time>2026-04-19T13:05:49.598Z</time></trkpt><trkpt lat="38.7628668" lon="16.2420487"><ele>57.0</ele><time>2026-04-19T13:05:50.585Z</time></trkpt><trkpt lat="38.762902" lon="16.2418751"><ele>62.5</ele><time>2026-04-19T13:05:51.586Z</time></trkpt><trkpt lat="38.7629343" lon="16.2417094"><ele>68.0</ele><time>2026-04-19T13:05:52.587Z</time></trkpt><trkpt lat="38.7629443" lon="16.2415506"><ele>67.0</ele><time>2026-04-19T13:05:53.577Z</time></trkpt><trkpt lat="38.7629184" lon="16.2413818"><ele>66.0</ele><time>2026-04-19T13:05:54.582Z</time></trkpt><trkpt lat="38.7628683" lon="16.241213"><ele>65.0</ele><time>2026-04-19T13:05:55.606Z</time></trkpt><trkpt lat="38.7628062" lon="16.2410452"><ele>64.0</ele><time>2026-04-19T13:05:56.582Z</time></trkpt><trkpt lat="38.7627415" lon="16.2408707"><ele>55.33333333333333</ele><time>2026-04-19T13:05:57.579Z</time></trkpt><trkpt lat="38.7626731" lon="16.2406976"><ele>46.666666666666664</ele><time>2026-04-19T13:05:58.585Z</time></trkpt><trkpt lat="38.7626047" lon="16.2405173"><ele>38.0</ele><time>2026-04-19T13:05:59.587Z</time></trkpt><trkpt lat="38.7625367" lon="16.2403409"><ele>38.0</ele><time>2026-04-19T13:06:00.584Z</time></trkpt><trkpt lat="38.7624675" lon="16.2401771"><ele>38.0</ele><time>2026-04-19T13:06:01.605Z</time></trkpt><trkpt lat="38.7624049" lon="16.240005"><ele>38.0</ele><time>2026-04-19T13:06:02.585Z</time></trkpt><trkpt lat="38.7623482" lon="16.2398444"><ele>38.0</ele><time>2026-04-19T13:06:03.584Z</time></trkpt><trkpt lat="38.7622975" lon="16.2396988"><ele>43.0</ele><time>2026-04-19T13:06:04.582Z</time></trkpt><trkpt lat="38.7622469" lon="16.2395505"><ele>48.0</ele><time>2026-04-19T13:06:05.584Z</time></trkpt><trkpt lat="38.7621899" lon="16.2393884"><ele>53.0</ele><time>2026-04-19T13:06:06.586Z</time></trkpt><trkpt lat="38.7621286" lon="16.2392132"><ele>58.0</ele><time>2026-04-19T13:06:07.586Z</time></trkpt><trkpt lat="38.7620614" lon="16.2390477"><ele>56.0</ele><time>2026-04-19T13:06:08.603Z</time></trkpt><trkpt lat="38.7619681" lon="16.2389177"><ele>54.0</ele><time>2026-04-19T13:06:09.588Z</time></trkpt><trkpt lat="38.7618613" lon="16.2387979"><ele>52.0</ele><time>2026-04-19T13:06:10.583Z</time></trkpt><trkpt lat="38.7617455" lon="16.2387139"><ele>50.0</ele><time>2026-04-19T13:06:11.584Z</time></trkpt><trkpt lat="38.7616375" lon="16.2386397"><ele>50.0</ele><time>2026-04-19T13:06:12.583Z</time></trkpt><trkpt lat="38.7615365" lon="16.2385655"><ele>50.0</ele><time>2026-04-19T13:06:13.601Z</time></trkpt><trkpt lat="38.7614373" lon="16.2384843"><ele>50.0</ele><time>2026-04-19T13:06:14.585Z</time></trkpt><trkpt lat="38.7613463" lon="16.238383"><ele>50.0</ele><time>2026-04-19T13:06:15.586Z</time></trkpt><trkpt lat="38.7612699" lon="16.2382221"><ele>57.25</ele><time>2026-04-19T13:06:16.586Z</time></trkpt><trkpt lat="38.7612039" lon="16.2380596"><ele>64.5</ele><time>2026-04-19T13:06:17.585Z</time></trkpt><trkpt lat="38.7611698" lon="16.237879"><ele>71.75</ele><time>2026-04-19T13:06:18.609Z</time></trkpt><trkpt lat="38.7611407" lon="16.2377395"><ele>79.0</ele><time>2026-04-19T13:06:19.584Z</time></trkpt><trkpt lat="38.7611061" lon="16.2376182"><ele>79.0</ele><time>2026-04-19T13:06:20.585Z</time></trkpt><trkpt lat="38.7610696" lon="16.237491"><ele>79.0</ele><time>2026-04-19T13:06:21.584Z</time></trkpt><trkpt lat="38.7610208" lon="16.2373657"><ele>79.0</ele><time>2026-04-19T13:06:22.584Z</time></trkpt><trkpt lat="38.7609697" lon="16.2372263"><ele>79.0</ele><time>2026-04-19T13:06:23.598Z</time></trkpt><trkpt lat="38.7609112" lon="16.2370902"><ele>70.25</ele><time>2026-04-19T13:06:24.586Z</time></trkpt><trkpt lat="38.760847" lon="16.2369654"><ele>61.5</ele><time>2026-04-19T13:06:25.581Z</time></trkpt><trkpt lat="38.7607758" lon="16.2368388"><ele>52.75</ele><time>2026-04-19T13:06:26.582Z</time></trkpt><trkpt lat="38.7607164" lon="16.2367176"><ele>44.0</ele><time>2026-04-19T13:06:27.585Z</time></trkpt><trkpt lat="38.7606532" lon="16.2365983"><ele>44.0</ele><time>2026-04-19T13:06:28.583Z</time></trkpt><trkpt lat="38.7605889" lon="16.2364721"><ele>44.0</ele><time>2026-04-19T13:06:29.584Z</time></trkpt><trkpt lat="38.7605291" lon="16.2363573"><ele>44.0</ele><time>2026-04-19T13:06:30.582Z</time></trkpt><trkpt lat="38.7604782" lon="16.2362508"><ele>44.0</ele><time>2026-04-19T13:06:31.579Z</time></trkpt><trkpt lat="38.7604356" lon="16.2361333"><ele>44.0</ele><time>2026-04-19T13:06:32.585Z</time></trkpt><trkpt lat="38.7603954" lon="16.236008"><ele>44.5</ele><time>2026-04-19T13:06:33.583Z</time></trkpt><trkpt lat="38.7603581" lon="16.2358732"><ele>45.0</ele><time>2026-04-19T13:06:34.598Z</time></trkpt><trkpt lat="38.7603262" lon="16.2357245"><ele>45.5</ele><time>2026-04-19T13:06:35.587Z</time></trkpt><trkpt lat="38.7602991" lon="16.2355774"><ele>46.0</ele><time>2026-04-19T13:06:36.588Z</time></trkpt><trkpt lat="38.760275" lon="16.2354482"><ele>46.0</ele><time>2026-04-19T13:06:37.584Z</time></trkpt><trkpt lat="38.7602518" lon="16.2353178"><ele>46.0</ele><time>2026-04-19T13:06:38.582Z</time></trkpt><trkpt lat="38.7602222" lon="16.2351876"><ele>46.0</ele><time>2026-04-19T13:06:39.583Z</time></trkpt><trkpt lat="38.7601879" lon="16.235045"><ele>46.0</ele><time>2026-04-19T13:06:40.587Z</time></trkpt><trkpt lat="38.7601562" lon="16.2348932"><ele>46.0</ele><time>2026-04-19T13:06:41.586Z</time></trkpt><trkpt lat="38.7601055" lon="16.2347296"><ele>42.8</ele><time>2026-04-19T13:06:42.598Z</time></trkpt><trkpt lat="38.7600506" lon="16.2345932"><ele>39.599999999999994</ele><time>2026-04-19T13:06:43.584Z</time></trkpt><trkpt lat="38.7599864" lon="16.2344775"><ele>36.4</ele><time>2026-04-19T13:06:44.585Z</time></trkpt><trkpt lat="38.7599264" lon="16.2343781"><ele>33.2</ele><time>2026-04-19T13:06:45.583Z</time></trkpt><trkpt lat="38.7598623" lon="16.2342777"><ele>30.0</ele><time>2026-04-19T13:06:46.587Z</time></trkpt><trkpt lat="38.7598036" lon="16.234183"><ele>30.0</ele><time>2026-04-19T13:06:47.587Z</time></trkpt><trkpt lat="38.7597511" lon="16.2340997"><ele>30.0</ele><time>2026-04-19T13:06:48.584Z</time></trkpt><trkpt lat="38.7597045" lon="16.2340237"><ele>30.0</ele><time>2026-04-19T13:06:49.584Z</time></trkpt><trkpt lat="38.7596587" lon="16.2339532"><ele>30.0</ele><time>2026-04-19T13:06:50.585Z</time></trkpt><trkpt lat="38.7596146" lon="16.2338825"><ele>30.0</ele><time>2026-04-19T13:06:51.584Z</time></trkpt><trkpt lat="38.7595705" lon="16.2338084"><ele>30.0</ele><time>2026-04-19T13:06:52.592Z</time></trkpt><trkpt lat="38.7595125" lon="16.2336882"><ele>30.2</ele><time>2026-04-19T13:06:54.602Z</time></trkpt><trkpt lat="38.7595955" lon="16.2335925"><ele>30.4</ele><time>2026-04-19T13:06:56.588Z</time></trkpt><trkpt lat="38.7596758" lon="16.2335334"><ele>30.6</ele><time>2026-04-19T13:06:57.583Z</time></trkpt><trkpt lat="38.7597667" lon="16.2334359"><ele>30.8</ele><time>2026-04-19T13:06:58.582Z</time></trkpt><trkpt lat="38.7598292" lon="16.2333078"><ele>31.0</ele><time>2026-04-19T13:06:59.582Z</time></trkpt><trkpt lat="38.7598968" lon="16.233139"><ele>33.0</ele><time>2026-04-19T13:07:00.588Z</time></trkpt><trkpt lat="38.7599479" lon="16.2329535"><ele>35.0</ele><time>2026-04-19T13:07:01.58Z</time></trkpt><trkpt lat="38.7599844" lon="16.2327607"><ele>37.0</ele><time>2026-04-19T13:07:02.585Z</time></trkpt><trkpt lat="38.7600369" lon="16.2325645"><ele>37.0</ele><time>2026-04-19T13:07:03.584Z</time></trkpt><trkpt lat="38.7601028" lon="16.2323732"><ele>37.0</ele><time>2026-04-19T13:07:04.587Z</time></trkpt><trkpt lat="38.7601702" lon="16.2322192"><ele>37.0</ele><time>2026-04-19T13:07:05.585Z</time></trkpt><trkpt lat="38.7602327" lon="16.2321073"><ele>37.0</ele><time>2026-04-19T13:07:06.586Z</time></trkpt><trkpt lat="38.7603279" lon="16.232051"><ele>41.5</ele><time>2026-04-19T13:07:07.602Z</time></trkpt><trkpt lat="38.760445" lon="16.2319985"><ele>46.0</ele><time>2026-04-19T13:07:08.586Z</time></trkpt><trkpt lat="38.7605878" lon="16.2319553"><ele>50.5</ele><time>2026-04-19T13:07:09.581Z</time></trkpt><trkpt lat="38.7606884" lon="16.2318939"><ele>55.0</ele><time>2026-04-19T13:07:10.583Z</time></trkpt><trkpt lat="38.7607472" lon="16.231783"><ele>55.0</ele><time>2026-04-19T13:07:11.587Z</time></trkpt><trkpt lat="38.7607816" lon="16.2316483"><ele>55.0</ele><time>2026-04-19T13:07:12.597Z</time></trkpt><trkpt lat="38.7608524" lon="16.2315578"><ele>55.0</ele><time>2026-04-19T13:07:13.589Z</time></trkpt><trkpt lat="38.7609312" lon="16.2315416"><ele>55.0</ele><time>2026-04-19T13:07:14.586Z</time></trkpt><trkpt lat="38.761035" lon="16.2315322"><ele>55.0</ele><time>2026-04-19T13:07:15.582Z</time></trkpt><trkpt lat="38.7611446" lon="16.2314516"><ele>58.666666666666664</ele><time>2026-04-19T13:07:16.586Z</time></trkpt><trkpt lat="38.7612822" lon="16.2313218"><ele>62.33333333333333</ele><time>2026-04-19T13:07:17.59Z</time></trkpt><trkpt lat="38.761435" lon="16.231219"><ele>66.0</ele><time>2026-04-19T13:07:18.583Z</time></trkpt><trkpt lat="38.7615831" lon="16.2311695"><ele>66.0</ele><time>2026-04-19T13:07:19.613Z</time></trkpt><trkpt lat="38.7617051" lon="16.2310975"><ele>66.0</ele><time>2026-04-19T13:07:20.577Z</time></trkpt><trkpt lat="38.7618055" lon="16.2310108"><ele>66.0</ele><time>2026-04-19T13:07:21.588Z</time></trkpt><trkpt lat="38.7619084" lon="16.2308896"><ele>66.0</ele><time>2026-04-19T13:07:22.582Z</time></trkpt><trkpt lat="38.7620231" lon="16.2307995"><ele>68.5</ele><time>2026-04-19T13:07:23.583Z</time></trkpt><trkpt lat="38.7621668" lon="16.230764"><ele>71.0</ele><time>2026-04-19T13:07:24.577Z</time></trkpt><trkpt lat="38.7622987" lon="16.2307129"><ele>73.5</ele><time>2026-04-19T13:07:25.588Z</time></trkpt><trkpt lat="38.7624244" lon="16.2306279"><ele>76.0</ele><time>2026-04-19T13:07:26.584Z</time></trkpt><trkpt lat="38.7625394" lon="16.2305542"><ele>76.0</ele><time>2026-04-19T13:07:27.588Z</time></trkpt><trkpt lat="38.7626524" lon="16.2305081"><ele>76.0</ele><time>2026-04-19T13:07:28.619Z</time></trkpt><trkpt lat="38.7627517" lon="16.2304798"><ele>76.0</ele><time>2026-04-19T13:07:29.589Z</time></trkpt><trkpt lat="38.7628566" lon="16.2304307"><ele>76.0</ele><time>2026-04-19T13:07:30.583Z</time></trkpt><trkpt lat="38.7629416" lon="16.2303584"><ele>76.0</ele><time>2026-04-19T13:07:31.587Z</time></trkpt><trkpt lat="38.7630241" lon="16.2302943"><ele>78.5</ele><time>2026-04-19T13:07:32.584Z</time></trkpt><trkpt lat="38.7631011" lon="16.2302537"><ele>81.0</ele><time>2026-04-19T13:07:33.603Z</time></trkpt><trkpt lat="38.7631732" lon="16.2302159"><ele>83.5</ele><time>2026-04-19T13:07:34.582Z</time></trkpt><trkpt lat="38.7632275" lon="16.2301684"><ele>86.0</ele><time>2026-04-19T13:07:35.586Z</time></trkpt><trkpt lat="38.7633027" lon="16.2301393"><ele>88.5</ele><time>2026-04-19T13:07:36.593Z</time></trkpt><trkpt lat="38.7633672" lon="16.2300987"><ele>91.0</ele><time>2026-04-19T13:07:37.589Z</time></trkpt><trkpt lat="38.763443" lon="16.2300673"><ele>91.0</ele><time>2026-04-19T13:07:38.599Z</time></trkpt><trkpt lat="38.7635284" lon="16.2300296"><ele>91.0</ele><time>2026-04-19T13:07:39.579Z</time></trkpt><trkpt lat="38.7636183" lon="16.2299986"><ele>91.0</ele><time>2026-04-19T13:07:40.586Z</time></trkpt><trkpt lat="38.7637125" lon="16.2299766"><ele>91.0</ele><time>2026-04-19T13:07:41.588Z</time></trkpt><trkpt lat="38.7638101" lon="16.2299743"><ele>91.0</ele><time>2026-04-19T13:07:42.588Z</time></trkpt><trkpt lat="38.7639119" lon="16.2300041"><ele>94.5</ele><time>2026-04-19T13:07:43.589Z</time></trkpt><trkpt lat="38.7640175" lon="16.2300639"><ele>98.0</ele><time>2026-04-19T13:07:44.593Z</time></trkpt><trkpt lat="38.7641452" lon="16.2301172"><ele>101.5</ele><time>2026-04-19T13:07:45.596Z</time></trkpt><trkpt lat="38.7642552" lon="16.2301543"><ele>105.0</ele><time>2026-04-19T13:07:46.586Z</time></trkpt><trkpt lat="38.7643469" lon="16.2301877"><ele>106.0</ele><time>2026-04-19T13:07:47.587Z</time></trkpt><trkpt lat="38.7644335" lon="16.230211"><ele>107.0</ele><time>2026-04-19T13:07:48.593Z</time></trkpt><trkpt lat="38.7645046" lon="16.2302275"><ele>108.0</ele><time>2026-04-19T13:07:49.582Z</time></trkpt><trkpt lat="38.7645704" lon="16.2302084"><ele>109.0</ele><time>2026-04-19T13:07:50.591Z</time></trkpt><trkpt lat="38.7646691" lon="16.2301552"><ele>110.0</ele><time>2026-04-19T13:07:51.585Z</time></trkpt><trkpt lat="38.7647917" lon="16.2301422"><ele>110.0</ele><time>2026-04-19T13:07:52.599Z</time></trkpt><trkpt lat="38.764907" lon="16.2301539"><ele>110.0</ele><time>2026-04-19T13:07:53.585Z</time></trkpt><trkpt lat="38.7650226" lon="16.2301926"><ele>110.0</ele><time>2026-04-19T13:07:54.583Z</time></trkpt><trkpt lat="38.7651149" lon="16.2302257"><ele>110.0</ele><time>2026-04-19T13:07:55.588Z</time></trkpt><trkpt lat="38.7652035" lon="16.230266"><ele>110.0</ele><time>2026-04-19T13:07:56.589Z</time></trkpt><trkpt lat="38.7652926" lon="16.2303301"><ele>111.0</ele><time>2026-04-19T13:07:58.586Z</time></trkpt><trkpt lat="38.7653725" lon="16.2303823"><ele>112.0</ele><time>2026-04-19T13:08:00.588Z</time></trkpt><trkpt lat="38.7654666" lon="16.230399"><ele>113.0</ele><time>2026-04-19T13:08:03.589Z</time></trkpt><trkpt lat="38.7655514" lon="16.2303847"><ele>114.0</ele><time>2026-04-19T13:08:06.597Z</time></trkpt><trkpt lat="38.7656656" lon="16.2303478"><ele>115.0</ele><time>2026-04-19T13:08:08.585Z</time></trkpt><trkpt lat="38.7657364" lon="16.230325"><ele>115.0</ele><time>2026-04-19T13:08:09.593Z</time></trkpt><trkpt lat="38.7658151" lon="16.2302917"><ele>115.0</ele><time>2026-04-19T13:08:10.587Z</time></trkpt><trkpt lat="38.7658801" lon="16.2302611"><ele>115.0</ele><time>2026-04-19T13:08:11.588Z</time></trkpt><trkpt lat="38.765984" lon="16.2301615"><ele>115.0</ele><time>2026-04-19T13:08:13.59Z</time></trkpt><trkpt lat="38.7660653" lon="16.2300467"><ele>115.0</ele><time>2026-04-19T13:08:15.609Z</time></trkpt><trkpt lat="38.766146" lon="16.2299423"><ele>116.0</ele><time>2026-04-19T13:08:17.589Z</time></trkpt><trkpt lat="38.7662139" lon="16.2298439"><ele>117.0</ele><time>2026-04-19T13:08:19.592Z</time></trkpt><trkpt lat="38.7662788" lon="16.2297491"><ele>118.0</ele><time>2026-04-19T13:08:21.602Z</time></trkpt><trkpt lat="38.7663249" lon="16.2296853"><ele>119.0</ele><time>2026-04-19T13:08:22.592Z</time></trkpt><trkpt lat="38.7664041" lon="16.2295785"><ele>120.0</ele><time>2026-04-19T13:08:24.586Z</time></trkpt><trkpt lat="38.7664927" lon="16.229459"><ele>120.0</ele><time>2026-04-19T13:08:26.591Z</time></trkpt><trkpt lat="38.7665452" lon="16.2293832"><ele>120.0</ele><time>2026-04-19T13:08:27.586Z</time></trkpt><trkpt lat="38.766604" lon="16.2293043"><ele>120.0</ele><time>2026-04-19T13:08:28.588Z</time></trkpt><trkpt lat="38.766659" lon="16.2292214"><ele>120.0</ele><time>2026-04-19T13:08:29.613Z</time></trkpt><trkpt lat="38.7667229" lon="16.22915"><ele>120.0</ele><time>2026-04-19T13:08:30.587Z</time></trkpt><trkpt lat="38.7667854" lon="16.2290574"><ele>120.0</ele><time>2026-04-19T13:08:31.59Z</time></trkpt><trkpt lat="38.7668441" lon="16.2289816"><ele>121.33333333333333</ele><time>2026-04-19T13:08:32.592Z</time></trkpt><trkpt lat="38.7669078" lon="16.2289085"><ele>122.66666666666666</ele><time>2026-04-19T13:08:33.585Z</time></trkpt><trkpt lat="38.7669542" lon="16.2288398"><ele>124.0</ele><time>2026-04-19T13:08:34.598Z</time></trkpt><trkpt lat="38.767035" lon="16.2287153"><ele>125.33333333333333</ele><time>2026-04-19T13:08:36.592Z</time></trkpt><trkpt lat="38.7670853" lon="16.2286479"><ele>126.66666666666666</ele><time>2026-04-19T13:08:37.592Z</time></trkpt><trkpt lat="38.7671293" lon="16.2285886"><ele>128.0</ele><time>2026-04-19T13:08:38.586Z</time></trkpt><trkpt lat="38.7672158" lon="16.2284685"><ele>127.99999999999999</ele><time>2026-04-19T13:08:40.584Z</time></trkpt><trkpt lat="38.767268" lon="16.2283992"><ele>128.0</ele><time>2026-04-19T13:08:41.601Z</time></trkpt><trkpt lat="38.7673309" lon="16.2283372"><ele>128.0</ele><time>2026-04-19T13:08:42.589Z</time></trkpt><trkpt lat="38.7674006" lon="16.2282769"><ele>128.0</ele><time>2026-04-19T13:08:43.586Z</time></trkpt><trkpt lat="38.7674613" lon="16.2282191"><ele>127.99999999999999</ele><time>2026-04-19T13:08:44.595Z</time></trkpt><trkpt lat="38.7675205" lon="16.2281682"><ele>128.0</ele><time>2026-04-19T13:08:45.588Z</time></trkpt><trkpt lat="38.7675916" lon="16.2281221"><ele>125.83333333333333</ele><time>2026-04-19T13:08:46.585Z</time></trkpt><trkpt lat="38.7676602" lon="16.2280931"><ele>123.66666666666666</ele><time>2026-04-19T13:08:47.597Z</time></trkpt><trkpt lat="38.7677446" lon="16.2280737"><ele>121.5</ele><time>2026-04-19T13:08:48.587Z</time></trkpt><trkpt lat="38.7678127" lon="16.2280556"><ele>119.33333333333334</ele><time>2026-04-19T13:08:49.591Z</time></trkpt><trkpt lat="38.7678793" lon="16.2280406"><ele>117.16666666666667</ele><time>2026-04-19T13:08:50.589Z</time></trkpt><trkpt lat="38.7680015" lon="16.2280225"><ele>115.0</ele><time>2026-04-19T13:08:52.585Z</time></trkpt><trkpt lat="38.7680867" lon="16.2280085"><ele>115.00000000000001</ele><time>2026-04-19T13:08:53.588Z</time></trkpt><trkpt lat="38.7681737" lon="16.2280108"><ele>115.0</ele><time>2026-04-19T13:08:54.593Z</time></trkpt><trkpt lat="38.7682561" lon="16.2280375"><ele>115.0</ele><time>2026-04-19T13:08:55.587Z</time></trkpt><trkpt lat="38.7683248" lon="16.2280745"><ele>115.0</ele><time>2026-04-19T13:08:56.6Z</time></trkpt><trkpt lat="38.7683826" lon="16.2281068"><ele>115.00000000000001</ele><time>2026-04-19T13:08:57.588Z</time></trkpt><trkpt lat="38.7684409" lon="16.228145"><ele>115.0</ele><time>2026-04-19T13:08:58.587Z</time></trkpt><trkpt lat="38.7685542" lon="16.228201"><ele>115.2</ele><time>2026-04-19T13:09:00.587Z</time></trkpt><trkpt lat="38.7686141" lon="16.22823"><ele>115.4</ele><time>2026-04-19T13:09:01.602Z</time></trkpt><trkpt lat="38.7687151" lon="16.2282725"><ele>115.6</ele><time>2026-04-19T13:09:03.626Z</time></trkpt><trkpt lat="38.7688295" lon="16.2283024"><ele>115.8</ele><time>2026-04-19T13:09:05.586Z</time></trkpt><trkpt lat="38.7689074" lon="16.2283108"><ele>116.0</ele><time>2026-04-19T13:09:07.588Z</time></trkpt><trkpt lat="38.7690383" lon="16.2282158"><ele>114.6</ele><time>2026-04-19T13:09:09.588Z</time></trkpt><trkpt lat="38.7691149" lon="16.2281326"><ele>113.19999999999999</ele><time>2026-04-19T13:09:10.594Z</time></trkpt><trkpt lat="38.7691933" lon="16.2280544"><ele>111.80000000000001</ele><time>2026-04-19T13:09:11.588Z</time></trkpt><trkpt lat="38.7692403" lon="16.2279436"><ele>110.4</ele><time>2026-04-19T13:09:12.604Z</time></trkpt><trkpt lat="38.7692653" lon="16.2277893"><ele>109.0</ele><time>2026-04-19T13:09:13.59Z</time></trkpt><trkpt lat="38.7692799" lon="16.2276434"><ele>109.0</ele><time>2026-04-19T13:09:14.592Z</time></trkpt><trkpt lat="38.7692828" lon="16.2275232"><ele>109.0</ele><time>2026-04-19T13:09:15.589Z</time></trkpt><trkpt lat="38.7692791" lon="16.2273978"><ele>109.0</ele><time>2026-04-19T13:09:16.59Z</time></trkpt><trkpt lat="38.7692692" lon="16.2272738"><ele>109.0</ele><time>2026-04-19T13:09:17.588Z</time></trkpt><trkpt lat="38.7692485" lon="16.2271635"><ele>109.0</ele><time>2026-04-19T13:09:18.605Z</time></trkpt><trkpt lat="38.7692576" lon="16.2270651"><ele>107.4</ele><time>2026-04-19T13:09:19.588Z</time></trkpt><trkpt lat="38.7692756" lon="16.2269845"><ele>105.80000000000001</ele><time>2026-04-19T13:09:20.585Z</time></trkpt><trkpt lat="38.7694079" lon="16.2269698"><ele>104.19999999999999</ele><time>2026-04-19T13:09:22.589Z</time></trkpt><trkpt lat="38.769518" lon="16.2270049"><ele>102.6</ele><time>2026-04-19T13:09:23.606Z</time></trkpt><trkpt lat="38.7696056" lon="16.2270512"><ele>101.0</ele><time>2026-04-19T13:09:24.58Z</time></trkpt><trkpt lat="38.7696758" lon="16.2271076"><ele>100.8</ele><time>2026-04-19T13:09:25.586Z</time></trkpt><trkpt lat="38.7697355" lon="16.2271587"><ele>100.6</ele><time>2026-04-19T13:09:26.583Z</time></trkpt><trkpt lat="38.7697894" lon="16.2272013"><ele>100.4</ele><time>2026-04-19T13:09:27.592Z</time></trkpt><trkpt lat="38.7699014" lon="16.2271637"><ele>100.2</ele><time>2026-04-19T13:09:29.609Z</time></trkpt><trkpt lat="38.7700161" lon="16.2271217"><ele>100.0</ele><time>2026-04-19T13:09:30.591Z</time></trkpt><trkpt lat="38.7701237" lon="16.2270625"><ele>100.16666666666667</ele><time>2026-04-19T13:09:31.585Z</time></trkpt><trkpt lat="38.7702063" lon="16.2270361"><ele>100.33333333333334</ele><time>2026-04-19T13:09:32.591Z</time></trkpt><trkpt lat="38.7702704" lon="16.2270183"><ele>100.5</ele><time>2026-04-19T13:09:33.585Z</time></trkpt><trkpt lat="38.7703449" lon="16.2270651"><ele>100.66666666666666</ele><time>2026-04-19T13:09:35.588Z</time></trkpt><trkpt lat="38.7704201" lon="16.2271063"><ele>100.83333333333333</ele><time>2026-04-19T13:09:38.588Z</time></trkpt><trkpt lat="38.77049" lon="16.227127"><ele>101.0</ele><time>2026-04-19T13:09:40.592Z</time></trkpt><trkpt lat="38.7705584" lon="16.2270441"><ele>100.99999999999999</ele><time>2026-04-19T13:09:42.591Z</time></trkpt><trkpt lat="38.7705877" lon="16.2269493"><ele>101.0</ele><time>2026-04-19T13:09:43.587Z</time></trkpt><trkpt lat="38.7706272" lon="16.2268546"><ele>101.0</ele><time>2026-04-19T13:09:44.602Z</time></trkpt><trkpt lat="38.7706627" lon="16.2267701"><ele>101.0</ele><time>2026-04-19T13:09:45.591Z</time></trkpt><trkpt lat="38.7707025" lon="16.2266885"><ele>100.99999999999999</ele><time>2026-04-19T13:09:46.592Z</time></trkpt><trkpt lat="38.7707482" lon="16.2265921"><ele>101.0</ele><time>2026-04-19T13:09:47.588Z</time></trkpt><trkpt lat="38.7708126" lon="16.2264549"><ele>100.66666666666666</ele><time>2026-04-19T13:09:48.592Z</time></trkpt><trkpt lat="38.7708952" lon="16.2262681"><ele>100.33333333333334</ele><time>2026-04-19T13:09:49.59Z</time></trkpt><trkpt lat="38.7709987" lon="16.2260399"><ele>100.0</ele><time>2026-04-19T13:09:50.587Z</time></trkpt><trkpt lat="38.7711099" lon="16.2257944"><ele>97.66666666666667</ele><time>2026-04-19T13:09:51.597Z</time></trkpt><trkpt lat="38.7712219" lon="16.2255399"><ele>95.33333333333334</ele><time>2026-04-19T13:09:52.589Z</time></trkpt><trkpt lat="38.7713344" lon="16.2253194"><ele>93.0</ele><time>2026-04-19T13:09:53.583Z</time></trkpt><trkpt lat="38.7714207" lon="16.2251379"><ele>93.0</ele><time>2026-04-19T13:09:54.593Z</time></trkpt><trkpt lat="38.7714862" lon="16.2249725"><ele>93.0</ele><time>2026-04-19T13:09:55.586Z</time></trkpt><trkpt lat="38.7715459" lon="16.2248583"><ele>93.0</ele><time>2026-04-19T13:09:56.591Z</time></trkpt><trkpt lat="38.771601" lon="16.2247372"><ele>93.0</ele><time>2026-04-19T13:09:57.588Z</time></trkpt><trkpt lat="38.7716636" lon="16.2246164"><ele>88.75</ele><time>2026-04-19T13:09:58.584Z</time></trkpt><trkpt lat="38.7717187" lon="16.2244646"><ele>84.5</ele><time>2026-04-19T13:09:59.588Z</time></trkpt><trkpt lat="38.7717785" lon="16.2243204"><ele>80.25</ele><time>2026-04-19T13:10:00.592Z</time></trkpt><trkpt lat="38.7718331" lon="16.2241581"><ele>76.0</ele><time>2026-04-19T13:10:01.605Z</time></trkpt><trkpt lat="38.7718551" lon="16.2239747"><ele>74.5</ele><time>2026-04-19T13:10:02.587Z</time></trkpt><trkpt lat="38.7718797" lon="16.2238123"><ele>73.0</ele><time>2026-04-19T13:10:03.587Z</time></trkpt><trkpt lat="38.7719177" lon="16.2236506"><ele>71.5</ele><time>2026-04-19T13:10:04.589Z</time></trkpt><trkpt lat="38.7719768" lon="16.2235164"><ele>70.0</ele><time>2026-04-19T13:10:05.589Z</time></trkpt><trkpt lat="38.7720646" lon="16.2234108"><ele>70.0</ele><time>2026-04-19T13:10:06.613Z</time></trkpt><trkpt lat="38.7721793" lon="16.223333"><ele>70.0</ele><time>2026-04-19T13:10:07.592Z</time></trkpt><trkpt lat="38.7723299" lon="16.2232681"><ele>70.0</ele><time>2026-04-19T13:10:08.587Z</time></trkpt><trkpt lat="38.772477" lon="16.2232285"><ele>70.0</ele><time>2026-04-19T13:10:09.597Z</time></trkpt><trkpt lat="38.7725767" lon="16.2232071"><ele>70.0</ele><time>2026-04-19T13:10:10.59Z</time></trkpt><trkpt lat="38.7726954" lon="16.2231986"><ele>70.0</ele><time>2026-04-19T13:10:11.584Z</time></trkpt><trkpt lat="38.7728195" lon="16.2232063"><ele>70.0</ele><time>2026-04-19T13:10:12.605Z</time></trkpt><trkpt lat="38.7729417" lon="16.2232472"><ele>70.0</ele><time>2026-04-19T13:10:13.586Z</time></trkpt><trkpt lat="38.7730404" lon="16.2233265"><ele>70.0</ele><time>2026-04-19T13:10:14.587Z</time></trkpt><trkpt lat="38.7731172" lon="16.2233967"><ele>70.0</ele><time>2026-04-19T13:10:15.588Z</time></trkpt><trkpt lat="38.7732101" lon="16.2234236"><ele>70.0</ele><time>2026-04-19T13:10:16.596Z</time></trkpt><trkpt lat="38.7733128" lon="16.2234009"><ele>70.0</ele><time>2026-04-19T13:10:17.588Z</time></trkpt><trkpt lat="38.773392" lon="16.2233131"><ele>70.0</ele><time>2026-04-19T13:10:18.587Z</time></trkpt><trkpt lat="38.7734504" lon="16.2231955"><ele>66.16666666666666</ele><time>2026-04-19T13:10:19.586Z</time></trkpt><trkpt lat="38.773504" lon="16.2230857"><ele>62.33333333333333</ele><time>2026-04-19T13:10:20.595Z</time></trkpt><trkpt lat="38.7735283" lon="16.2229902"><ele>58.5</ele><time>2026-04-19T13:10:21.587Z</time></trkpt><trkpt lat="38.7735772" lon="16.2229088"><ele>54.666666666666664</ele><time>2026-04-19T13:10:22.591Z</time></trkpt><trkpt lat="38.7736258" lon="16.2228377"><ele>50.83333333333333</ele><time>2026-04-19T13:10:23.591Z</time></trkpt><trkpt lat="38.7736783" lon="16.2227777"><ele>47.0</ele><time>2026-04-19T13:10:24.59Z</time></trkpt><trkpt lat="38.7737541" lon="16.2227391"><ele>47.0</ele><time>2026-04-19T13:10:25.588Z</time></trkpt><trkpt lat="38.7738484" lon="16.2227203"><ele>47.0</ele><time>2026-04-19T13:10:26.603Z</time></trkpt><trkpt lat="38.7739481" lon="16.2227317"><ele>47.0</ele><time>2026-04-19T13:10:27.595Z</time></trkpt><trkpt lat="38.7740503" lon="16.222742"><ele>47.0</ele><time>2026-04-19T13:10:28.593Z</time></trkpt><trkpt lat="38.774161" lon="16.222753"><ele>47.0</ele><time>2026-04-19T13:10:29.59Z</time></trkpt><trkpt lat="38.7742762" lon="16.222772"><ele>46.25</ele><time>2026-04-19T13:10:30.591Z</time></trkpt><trkpt lat="38.7744087" lon="16.2227869"><ele>45.5</ele><time>2026-04-19T13:10:31.587Z</time></trkpt><trkpt lat="38.7745503" lon="16.2227988"><ele>44.75</ele><time>2026-04-19T13:10:32.59Z</time></trkpt><trkpt lat="38.7746849" lon="16.2227976"><ele>44.0</ele><time>2026-04-19T13:10:33.603Z</time></trkpt><trkpt lat="38.7748088" lon="16.2227951"><ele>44.0</ele><time>2026-04-19T13:10:34.586Z</time></trkpt><trkpt lat="38.7749126" lon="16.2227466"><ele>44.0</ele><time>2026-04-19T13:10:35.591Z</time></trkpt><trkpt lat="38.7749591" lon="16.222618"><ele>44.0</ele><time>2026-04-19T13:10:36.591Z</time></trkpt><trkpt lat="38.7750007" lon="16.2224597"><ele>44.0</ele><time>2026-04-19T13:10:37.59Z</time></trkpt><trkpt lat="38.775027" lon="16.2222691"><ele>42.5</ele><time>2026-04-19T13:10:38.586Z</time></trkpt><trkpt lat="38.7750441" lon="16.2221151"><ele>41.0</ele><time>2026-04-19T13:10:39.587Z</time></trkpt><trkpt lat="38.7750665" lon="16.2219728"><ele>39.5</ele><time>2026-04-19T13:10:40.611Z</time></trkpt><trkpt lat="38.7750917" lon="16.2218335"><ele>38.0</ele><time>2026-04-19T13:10:41.586Z</time></trkpt><trkpt lat="38.7751131" lon="16.2216886"><ele>38.0</ele><time>2026-04-19T13:10:42.588Z</time></trkpt><trkpt lat="38.7751391" lon="16.2215539"><ele>38.0</ele><time>2026-04-19T13:10:43.586Z</time></trkpt><trkpt lat="38.7751645" lon="16.2214339"><ele>38.0</ele><time>2026-04-19T13:10:44.587Z</time></trkpt><trkpt lat="38.7751896" lon="16.2213248"><ele>38.0</ele><time>2026-04-19T13:10:45.622Z</time></trkpt><trkpt lat="38.7752272" lon="16.2212425"><ele>38.0</ele><time>2026-04-19T13:10:46.59Z</time></trkpt><trkpt lat="38.7752546" lon="16.2211655"><ele>38.0</ele><time>2026-04-19T13:10:47.586Z</time></trkpt><trkpt lat="38.7752814" lon="16.2210435"><ele>38.599999999999994</ele><time>2026-04-19T13:10:49.587Z</time></trkpt><trkpt lat="38.7752511" lon="16.2209314"><ele>39.199999999999996</ele><time>2026-04-19T13:10:51.588Z</time></trkpt><trkpt lat="38.7751684" lon="16.2208721"><ele>39.8</ele><time>2026-04-19T13:10:52.594Z</time></trkpt><trkpt lat="38.7750573" lon="16.2208254"><ele>40.4</ele><time>2026-04-19T13:10:53.59Z</time></trkpt><trkpt lat="38.7749577" lon="16.2207808"><ele>41.0</ele><time>2026-04-19T13:10:54.586Z</time></trkpt><trkpt lat="38.7748907" lon="16.2207136"><ele>40.5</ele><time>2026-04-19T13:10:55.589Z</time></trkpt><trkpt lat="38.774792" lon="16.220615"><ele>40.0</ele><time>2026-04-19T13:10:56.58Z</time></trkpt><trkpt lat="38.7747218" lon="16.2204659"><ele>39.5</ele><time>2026-04-19T13:10:57.606Z</time></trkpt><trkpt lat="38.7746446" lon="16.2202941"><ele>39.0</ele><time>2026-04-19T13:10:58.581Z</time></trkpt><trkpt lat="38.7745657" lon="16.2201287"><ele>39.0</ele><time>2026-04-19T13:10:59.587Z</time></trkpt><trkpt lat="38.7744996" lon="16.2199877"><ele>39.0</ele><time>2026-04-19T13:11:00.589Z</time></trkpt><trkpt lat="38.7744296" lon="16.2198608"><ele>39.0</ele><time>2026-04-19T13:11:01.59Z</time></trkpt><trkpt lat="38.7743626" lon="16.219722"><ele>39.0</ele><time>2026-04-19T13:11:02.601Z</time></trkpt><trkpt lat="38.7743075" lon="16.2196107"><ele>38.333333333333336</ele><time>2026-04-19T13:11:03.586Z</time></trkpt><trkpt lat="38.7742597" lon="16.219519"><ele>37.666666666666664</ele><time>2026-04-19T13:11:04.589Z</time></trkpt><trkpt lat="38.7742198" lon="16.2194314"><ele>37.0</ele><time>2026-04-19T13:11:05.585Z</time></trkpt><trkpt lat="38.7741832" lon="16.2193434"><ele>36.33333333333333</ele><time>2026-04-19T13:11:06.589Z</time></trkpt><trkpt lat="38.774161" lon="16.2192591"><ele>35.666666666666664</ele><time>2026-04-19T13:11:07.588Z</time></trkpt><trkpt lat="38.7741455" lon="16.2191714"><ele>35.0</ele><time>2026-04-19T13:11:08.586Z</time></trkpt><trkpt lat="38.7741266" lon="16.2190839"><ele>35.0</ele><time>2026-04-19T13:11:09.589Z</time></trkpt><trkpt lat="38.7741126" lon="16.218993"><ele>35.0</ele><time>2026-04-19T13:11:10.587Z</time></trkpt><trkpt lat="38.7740903" lon="16.2189056"><ele>35.0</ele><time>2026-04-19T13:11:11.597Z</time></trkpt><trkpt lat="38.7740633" lon="16.2188259"><ele>35.0</ele><time>2026-04-19T13:11:12.589Z</time></trkpt><trkpt lat="38.7740389" lon="16.2186898"><ele>35.0</ele><time>2026-04-19T13:11:14.591Z</time></trkpt><trkpt lat="38.7740271" lon="16.2185309"><ele>35.0</ele><time>2026-04-19T13:11:39.588Z</time></trkpt><trkpt lat="38.7740319" lon="16.2184477"><ele>34.4</ele><time>2026-04-19T13:11:41.59Z</time></trkpt><trkpt lat="38.7740296" lon="16.2182974"><ele>33.8</ele><time>2026-04-19T13:11:43.587Z</time></trkpt><trkpt lat="38.7740231" lon="16.2181824"><ele>33.2</ele><time>2026-04-19T13:11:44.594Z</time></trkpt><trkpt lat="38.7740125" lon="16.2180641"><ele>32.6</ele><time>2026-04-19T13:11:45.59Z</time></trkpt><trkpt lat="38.7739999" lon="16.2179557"><ele>32.0</ele><time>2026-04-19T13:11:46.588Z</time></trkpt><trkpt lat="38.7739864" lon="16.2178522"><ele>31.333333333333332</ele><time>2026-04-19T13:11:47.586Z</time></trkpt><trkpt lat="38.7739718" lon="16.2177482"><ele>30.666666666666664</ele><time>2026-04-19T13:11:48.592Z</time></trkpt><trkpt lat="38.7739561" lon="16.2176448"><ele>30.0</ele><time>2026-04-19T13:11:49.591Z</time></trkpt><trkpt lat="38.7739429" lon="16.2175418"><ele>29.333333333333336</ele><time>2026-04-19T13:11:50.597Z</time></trkpt><trkpt lat="38.7739286" lon="16.2174522"><ele>28.666666666666668</ele><time>2026-04-19T13:11:51.595Z</time></trkpt><trkpt lat="38.7739067" lon="16.2173619"><ele>28.0</ele><time>2026-04-19T13:11:52.587Z</time></trkpt><trkpt lat="38.7738762" lon="16.2172866"><ele>27.2</ele><time>2026-04-19T13:11:53.587Z</time></trkpt><trkpt lat="38.7738629" lon="16.2171422"><ele>26.4</ele><time>2026-04-19T13:11:55.589Z</time></trkpt><trkpt lat="38.7738287" lon="16.2170416"><ele>25.599999999999998</ele><time>2026-04-19T13:11:57.587Z</time></trkpt><trkpt lat="38.773769" lon="16.2169447"><ele>24.799999999999997</ele><time>2026-04-19T13:11:59.584Z</time></trkpt><trkpt lat="38.77369" lon="16.216833"><ele>24.0</ele><time>2026-04-19T13:12:01.592Z</time></trkpt><trkpt lat="38.773619" lon="16.216711"><ele>24.0</ele><time>2026-04-19T13:12:03.591Z</time></trkpt><trkpt lat="38.7735814" lon="16.2166362"><ele>24.0</ele><time>2026-04-19T13:12:04.589Z</time></trkpt><trkpt lat="38.7735307" lon="16.2165106"><ele>24.0</ele><time>2026-04-19T13:12:06.586Z</time></trkpt><trkpt lat="38.7735014" lon="16.2164188"><ele>24.0</ele><time>2026-04-19T13:12:08.59Z</time></trkpt><trkpt lat="38.7734843" lon="16.2163096"><ele>24.0</ele><time>2026-04-19T13:12:10.586Z</time></trkpt><trkpt lat="38.77348" lon="16.216174"><ele>21.0</ele><time>2026-04-19T13:12:12.591Z</time></trkpt><trkpt lat="38.7735882" lon="16.2160705"><ele>18.0</ele><time>2026-04-19T13:12:14.586Z</time></trkpt><trkpt lat="38.7737145" lon="16.2160441"><ele>15.0</ele><time>2026-04-19T13:12:15.585Z</time></trkpt><trkpt lat="38.7738764" lon="16.2160305"><ele>12.0</ele><time>2026-04-19T13:12:16.591Z</time></trkpt><trkpt lat="38.774056" lon="16.2160386"><ele>12.0</ele><time>2026-04-19T13:12:17.585Z</time></trkpt><trkpt lat="38.7742528" lon="16.2160882"><ele>12.0</ele><time>2026-04-19T13:12:18.604Z</time></trkpt><trkpt lat="38.7744707" lon="16.2161458"><ele>12.0</ele><time>2026-04-19T13:12:19.584Z</time></trkpt><trkpt lat="38.7746858" lon="16.2162089"><ele>11.0</ele><time>2026-04-19T13:12:20.591Z</time></trkpt><trkpt lat="38.7748801" lon="16.2162828"><ele>10.0</ele><time>2026-04-19T13:12:21.591Z</time></trkpt><trkpt lat="38.7750516" lon="16.2163646"><ele>9.0</ele><time>2026-04-19T13:12:22.584Z</time></trkpt><trkpt lat="38.7752176" lon="16.2164472"><ele>11.0</ele><time>2026-04-19T13:12:23.588Z</time></trkpt><trkpt lat="38.7753747" lon="16.2165299"><ele>13.0</ele><time>2026-04-19T13:12:24.591Z</time></trkpt><trkpt lat="38.7755087" lon="16.2166021"><ele>15.0</ele><time>2026-04-19T13:12:25.592Z</time></trkpt><trkpt lat="38.7756387" lon="16.216671"><ele>15.0</ele><time>2026-04-19T13:12:26.613Z</time></trkpt><trkpt lat="38.7757707" lon="16.2167305"><ele>15.0</ele><time>2026-04-19T13:12:27.592Z</time></trkpt><trkpt lat="38.775905" lon="16.2167944"><ele>15.0</ele><time>2026-04-19T13:12:28.587Z</time></trkpt><trkpt lat="38.776038" lon="16.2168627"><ele>15.0</ele><time>2026-04-19T13:12:29.587Z</time></trkpt><trkpt lat="38.7761701" lon="16.2169284"><ele>14.0</ele><time>2026-04-19T13:12:30.585Z</time></trkpt><trkpt lat="38.7762943" lon="16.21699"><ele>13.0</ele><time>2026-04-19T13:12:31.607Z</time></trkpt><trkpt lat="38.7764132" lon="16.2170493"><ele>12.0</ele><time>2026-04-19T13:12:32.587Z</time></trkpt><trkpt lat="38.776512" lon="16.2171033"><ele>11.0</ele><time>2026-04-19T13:12:33.588Z</time></trkpt><trkpt lat="38.7766102" lon="16.2171514"><ele>11.0</ele><time>2026-04-19T13:12:34.587Z</time></trkpt><trkpt lat="38.7767009" lon="16.2171994"><ele>11.0</ele><time>2026-04-19T13:12:35.593Z</time></trkpt><trkpt lat="38.7767798" lon="16.2172403"><ele>11.0</ele><time>2026-04-19T13:12:36.589Z</time></trkpt><trkpt lat="38.776851" lon="16.2172771"><ele>11.0</ele><time>2026-04-19T13:12:37.588Z</time></trkpt><trkpt lat="38.7769141" lon="16.2173075"><ele>11.0</ele><time>2026-04-19T13:12:38.59Z</time></trkpt><trkpt lat="38.7770422" lon="16.2173719"><ele>11.5</ele><time>2026-04-19T13:12:40.596Z</time></trkpt><trkpt lat="38.7771164" lon="16.2174097"><ele>12.0</ele><time>2026-04-19T13:12:41.589Z</time></trkpt><trkpt lat="38.7771953" lon="16.2174482"><ele>12.5</ele><time>2026-04-19T13:12:42.585Z</time></trkpt><trkpt lat="38.7772657" lon="16.2174817"><ele>13.0</ele><time>2026-04-19T13:12:43.59Z</time></trkpt><trkpt lat="38.7773516" lon="16.2174317"><ele>13.500000000000002</ele><time>2026-04-19T13:12:45.605Z</time></trkpt><trkpt lat="38.7773961" lon="16.2173084"><ele>14.0</ele><time>2026-04-19T13:12:46.584Z</time></trkpt><trkpt lat="38.7774506" lon="16.2171576"><ele>12.799999999999999</ele><time>2026-04-19T13:12:47.588Z</time></trkpt><trkpt lat="38.7774976" lon="16.2170173"><ele>11.599999999999998</ele><time>2026-04-19T13:12:48.587Z</time></trkpt><trkpt lat="38.7775393" lon="16.2168923"><ele>10.4</ele><time>2026-04-19T13:12:49.591Z</time></trkpt><trkpt lat="38.7775805" lon="16.2167762"><ele>9.2</ele><time>2026-04-19T13:12:50.6Z</time></trkpt><trkpt lat="38.7776175" lon="16.2166709"><ele>8.0</ele><time>2026-04-19T13:12:51.587Z</time></trkpt><trkpt lat="38.7776505" lon="16.2165702"><ele>7.833333333333333</ele><time>2026-04-19T13:12:52.589Z</time></trkpt><trkpt lat="38.7776803" lon="16.216476"><ele>7.666666666666666</ele><time>2026-04-19T13:12:53.59Z</time></trkpt><trkpt lat="38.7777081" lon="16.2163793"><ele>7.5</ele><time>2026-04-19T13:12:54.587Z</time></trkpt><trkpt lat="38.7777437" lon="16.2162816"><ele>7.333333333333334</ele><time>2026-04-19T13:12:55.614Z</time></trkpt><trkpt lat="38.7777652" lon="16.216169"><ele>7.166666666666667</ele><time>2026-04-19T13:12:56.584Z</time></trkpt><trkpt lat="38.777781" lon="16.2160876"><ele>7.0</ele><time>2026-04-19T13:12:57.594Z</time></trkpt><trkpt lat="38.7778001" lon="16.2160062"><ele>7.000000000000001</ele><time>2026-04-19T13:12:59.588Z</time></trkpt><trkpt lat="38.7778216" lon="16.2159121"><ele>7.0</ele><time>2026-04-19T13:13:02.589Z</time></trkpt><trkpt lat="38.7778734" lon="16.2158044"><ele>7.0</ele><time>2026-04-19T13:13:05.59Z</time></trkpt><trkpt lat="38.777972" lon="16.2158181"><ele>7.0</ele><time>2026-04-19T13:13:07.589Z</time></trkpt><trkpt lat="38.7780496" lon="16.2158707"><ele>7.000000000000001</ele><time>2026-04-19T13:13:08.588Z</time></trkpt><trkpt lat="38.7781198" lon="16.2159127"><ele>7.0</ele><time>2026-04-19T13:13:09.59Z</time></trkpt><trkpt lat="38.7781977" lon="16.2159532"><ele>7.0</ele><time>2026-04-19T13:13:10.59Z</time></trkpt><trkpt lat="38.7782645" lon="16.2159866"><ele>6.999999999999999</ele><time>2026-04-19T13:13:11.588Z</time></trkpt><trkpt lat="38.7783756" lon="16.2160506"><ele>6.999999999999999</ele><time>2026-04-19T13:13:13.587Z</time></trkpt><trkpt lat="38.7784514" lon="16.2160936"><ele>7.0</ele><time>2026-04-19T13:13:15.589Z</time></trkpt><trkpt lat="38.7785353" lon="16.2161225"><ele>7.0</ele><time>2026-04-19T13:13:16.593Z</time></trkpt><trkpt lat="38.7786228" lon="16.2161706"><ele>7.000000000000001</ele><time>2026-04-19T13:13:17.587Z</time></trkpt><trkpt lat="38.7786975" lon="16.2162062"><ele>7.0</ele><time>2026-04-19T13:13:18.586Z</time></trkpt><trkpt lat="38.7787664" lon="16.2162341"><ele>7.0</ele><time>2026-04-19T13:13:19.592Z</time></trkpt><trkpt lat="38.7788343" lon="16.2162631"><ele>7.0</ele><time>2026-04-19T13:13:20.587Z</time></trkpt><trkpt lat="38.7788927" lon="16.2163009"><ele>7.000000000000001</ele><time>2026-04-19T13:13:21.612Z</time></trkpt><trkpt lat="38.7789824" lon="16.2163451"><ele>7.0</ele><time>2026-04-19T13:13:23.588Z</time></trkpt><trkpt lat="38.7790647" lon="16.2163972"><ele>7.0</ele><time>2026-04-19T13:13:25.591Z</time></trkpt><trkpt lat="38.7791578" lon="16.2164551"><ele>6.999999999999999</ele><time>2026-04-19T13:13:27.606Z</time></trkpt><trkpt lat="38.7792368" lon="16.2164678"><ele>6.999999999999999</ele><time>2026-04-19T13:13:29.589Z</time></trkpt><trkpt lat="38.7792837" lon="16.2162988"><ele>7.0</ele><time>2026-04-19T13:13:31.591Z</time></trkpt><trkpt lat="38.7793105" lon="16.2162071"><ele>7.0</ele><time>2026-04-19T13:13:32.608Z</time></trkpt><trkpt lat="38.7793318" lon="16.2161249"><ele>6.833333333333334</ele><time>2026-04-19T13:13:33.586Z</time></trkpt><trkpt lat="38.7793546" lon="16.2160466"><ele>6.666666666666667</ele><time>2026-04-19T13:13:34.59Z</time></trkpt><trkpt lat="38.7793751" lon="16.2159655"><ele>6.5</ele><time>2026-04-19T13:13:35.59Z</time></trkpt><trkpt lat="38.7794191" lon="16.2158134"><ele>6.333333333333334</ele><time>2026-04-19T13:13:37.589Z</time></trkpt><trkpt lat="38.7794589" lon="16.2157222"><ele>6.166666666666667</ele><time>2026-04-19T13:13:38.589Z</time></trkpt><trkpt lat="38.7794998" lon="16.2156429"><ele>6.0</ele><time>2026-04-19T13:13:39.585Z</time></trkpt><trkpt lat="38.7795579" lon="16.2155723"><ele>6.0</ele><time>2026-04-19T13:13:40.616Z</time></trkpt><trkpt lat="38.7796481" lon="16.2154981"><ele>6.0</ele><time>2026-04-19T13:13:41.585Z</time></trkpt><trkpt lat="38.779721" lon="16.2154367"><ele>6.0</ele><time>2026-04-19T13:13:42.588Z</time></trkpt><trkpt lat="38.7797925" lon="16.2153741"><ele>6.0</ele><time>2026-04-19T13:13:43.587Z</time></trkpt><trkpt lat="38.7798197" lon="16.2152981"><ele>6.0</ele><time>2026-04-19T13:13:44.589Z</time></trkpt><trkpt lat="38.7798846" lon="16.2152776"><ele>6.0</ele><time>2026-04-19T13:13:45.605Z</time></trkpt><trkpt lat="38.7799867" lon="16.2153114"><ele>6.0</ele><time>2026-04-19T13:13:46.589Z</time></trkpt><trkpt lat="38.7801056" lon="16.2153697"><ele>6.0</ele><time>2026-04-19T13:13:47.595Z</time></trkpt><trkpt lat="38.7802338" lon="16.21544"><ele>6.0</ele><time>2026-04-19T13:13:48.59Z</time></trkpt><trkpt lat="38.7803334" lon="16.2154887"><ele>6.0</ele><time>2026-04-19T13:13:49.588Z</time></trkpt><trkpt lat="38.7804117" lon="16.2155286"><ele>5.833333333333333</ele><time>2026-04-19T13:13:50.586Z</time></trkpt><trkpt lat="38.7804861" lon="16.2155647"><ele>5.666666666666667</ele><time>2026-04-19T13:13:51.583Z</time></trkpt><trkpt lat="38.7805891" lon="16.2155869"><ele>5.5</ele><time>2026-04-19T13:13:53.588Z</time></trkpt><trkpt lat="38.7806565" lon="16.2155882"><ele>5.333333333333334</ele><time>2026-04-19T13:13:55.597Z</time></trkpt><trkpt lat="38.7807316" lon="16.2155752"><ele>5.166666666666667</ele><time>2026-04-19T13:13:57.59Z</time></trkpt><trkpt lat="38.7808076" lon="16.2155401"><ele>5.0</ele><time>2026-04-19T13:13:59.592Z</time></trkpt><trkpt lat="38.7808885" lon="16.2155045"><ele>5.0</ele><time>2026-04-19T13:14:01.599Z</time></trkpt><trkpt lat="38.780966" lon="16.2154834"><ele>5.0</ele><time>2026-04-19T13:14:02.59Z</time></trkpt><trkpt lat="38.781064" lon="16.2154903"><ele>5.0</ele><time>2026-04-19T13:14:03.608Z</time></trkpt><trkpt lat="38.7811862" lon="16.215527"><ele>5.0</ele><time>2026-04-19T13:14:04.589Z</time></trkpt><trkpt lat="38.7813088" lon="16.2155621"><ele>5.0</ele><time>2026-04-19T13:14:05.588Z</time></trkpt><trkpt lat="38.781421" lon="16.2155918"><ele>5.0</ele><time>2026-04-19T13:14:06.592Z</time></trkpt><trkpt lat="38.7815233" lon="16.215616"><ele>5.0</ele><time>2026-04-19T13:14:07.587Z</time></trkpt><trkpt lat="38.7816185" lon="16.2156336"><ele>5.0</ele><time>2026-04-19T13:14:08.623Z</time></trkpt><trkpt lat="38.7817061" lon="16.2156466"><ele>5.0</ele><time>2026-04-19T13:14:09.59Z</time></trkpt><trkpt lat="38.7817946" lon="16.2156632"><ele>5.0</ele><time>2026-04-19T13:14:10.589Z</time></trkpt><trkpt lat="38.781877" lon="16.2156847"><ele>5.333333333333334</ele><time>2026-04-19T13:14:11.587Z</time></trkpt><trkpt lat="38.7819641" lon="16.2156973"><ele>5.666666666666667</ele><time>2026-04-19T13:14:12.586Z</time></trkpt><trkpt lat="38.7820437" lon="16.2157296"><ele>6.0</ele><time>2026-04-19T13:14:13.587Z</time></trkpt><trkpt lat="38.7821184" lon="16.2157683"><ele>6.333333333333334</ele><time>2026-04-19T13:14:14.597Z</time></trkpt><trkpt lat="38.7822043" lon="16.2158014"><ele>6.666666666666667</ele><time>2026-04-19T13:14:15.588Z</time></trkpt><trkpt lat="38.7822866" lon="16.215831"><ele>7.0</ele><time>2026-04-19T13:14:16.584Z</time></trkpt><trkpt lat="38.7823717" lon="16.2158571"><ele>7.0</ele><time>2026-04-19T13:14:17.583Z</time></trkpt><trkpt lat="38.7824639" lon="16.2158722"><ele>6.999999999999999</ele><time>2026-04-19T13:14:18.589Z</time></trkpt><trkpt lat="38.7825685" lon="16.2158901"><ele>6.999999999999999</ele><time>2026-04-19T13:14:19.585Z</time></trkpt><trkpt lat="38.7826811" lon="16.215905"><ele>7.0</ele><time>2026-04-19T13:14:20.595Z</time></trkpt><trkpt lat="38.782797" lon="16.2159193"><ele>7.0</ele><time>2026-04-19T13:14:21.583Z</time></trkpt><trkpt lat="38.7829195" lon="16.2159342"><ele>6.75</ele><time>2026-04-19T13:14:22.582Z</time></trkpt><trkpt lat="38.783049" lon="16.2159468"><ele>6.5</ele><time>2026-04-19T13:14:23.584Z</time></trkpt><trkpt lat="38.7831707" lon="16.2159606"><ele>6.25</ele><time>2026-04-19T13:14:24.585Z</time></trkpt><trkpt lat="38.7832779" lon="16.2159771"><ele>6.0</ele><time>2026-04-19T13:14:25.605Z</time></trkpt><trkpt lat="38.7833699" lon="16.2159925"><ele>6.0</ele><time>2026-04-19T13:14:26.589Z</time></trkpt><trkpt lat="38.7834547" lon="16.2160279"><ele>6.0</ele><time>2026-04-19T13:14:27.589Z</time></trkpt><trkpt lat="38.7835275" lon="16.2160644"><ele>6.0</ele><time>2026-04-19T13:14:28.597Z</time></trkpt><trkpt lat="38.7835935" lon="16.2161026"><ele>6.0</ele><time>2026-04-19T13:14:29.585Z</time></trkpt><trkpt lat="38.7836651" lon="16.2161395"><ele>6.0</ele><time>2026-04-19T13:14:30.585Z</time></trkpt><trkpt lat="38.7837343" lon="16.2161809"><ele>6.0</ele><time>2026-04-19T13:14:31.584Z</time></trkpt><trkpt lat="38.7838078" lon="16.2162334"><ele>5.833333333333333</ele><time>2026-04-19T13:14:32.581Z</time></trkpt><trkpt lat="38.7838821" lon="16.2162869"><ele>5.666666666666667</ele><time>2026-04-19T13:14:33.591Z</time></trkpt><trkpt lat="38.7839549" lon="16.2163393"><ele>5.5</ele><time>2026-04-19T13:14:34.583Z</time></trkpt><trkpt lat="38.7840217" lon="16.2163918"><ele>5.333333333333334</ele><time>2026-04-19T13:14:35.585Z</time></trkpt><trkpt lat="38.7841004" lon="16.2164498"><ele>5.166666666666667</ele><time>2026-04-19T13:14:36.588Z</time></trkpt><trkpt lat="38.7841844" lon="16.2165197"><ele>5.0</ele><time>2026-04-19T13:14:37.583Z</time></trkpt><trkpt lat="38.7842744" lon="16.2165977"><ele>5.25</ele><time>2026-04-19T13:14:38.583Z</time></trkpt><trkpt lat="38.7843627" lon="16.2166815"><ele>5.5</ele><time>2026-04-19T13:14:39.585Z</time></trkpt><trkpt lat="38.7844536" lon="16.2167668"><ele>5.75</ele><time>2026-04-19T13:14:40.584Z</time></trkpt><trkpt lat="38.7845566" lon="16.2168439"><ele>6.0</ele><time>2026-04-19T13:14:41.587Z</time></trkpt><trkpt lat="38.78467" lon="16.2169219"><ele>6.0</ele><time>2026-04-19T13:14:42.587Z</time></trkpt><trkpt lat="38.7847773" lon="16.2169921"><ele>6.0</ele><time>2026-04-19T13:14:43.584Z</time></trkpt><trkpt lat="38.7848861" lon="16.2170633"><ele>6.0</ele><time>2026-04-19T13:14:44.588Z</time></trkpt><trkpt lat="38.784997" lon="16.2171348"><ele>6.0</ele><time>2026-04-19T13:14:45.611Z</time></trkpt><trkpt lat="38.7851144" lon="16.217206"><ele>6.0</ele><time>2026-04-19T13:14:46.583Z</time></trkpt><trkpt lat="38.785237" lon="16.2172779"><ele>6.0</ele><time>2026-04-19T13:14:47.584Z</time></trkpt><trkpt lat="38.7853585" lon="16.2173522"><ele>6.0</ele><time>2026-04-19T13:14:48.584Z</time></trkpt><trkpt lat="38.7854818" lon="16.2174297"><ele>6.0</ele><time>2026-04-19T13:14:49.59Z</time></trkpt><trkpt lat="38.7856108" lon="16.2175086"><ele>6.0</ele><time>2026-04-19T13:14:50.585Z</time></trkpt><trkpt lat="38.7857438" lon="16.2175891"><ele>6.0</ele><time>2026-04-19T13:14:51.603Z</time></trkpt><trkpt lat="38.7858709" lon="16.2176642"><ele>6.0</ele><time>2026-04-19T13:14:52.592Z</time></trkpt><trkpt lat="38.7859893" lon="16.2177336"><ele>6.0</ele><time>2026-04-19T13:14:53.587Z</time></trkpt><trkpt lat="38.7861029" lon="16.2178018"><ele>6.25</ele><time>2026-04-19T13:14:54.585Z</time></trkpt><trkpt lat="38.7862107" lon="16.2178673"><ele>6.5</ele><time>2026-04-19T13:14:55.588Z</time></trkpt><trkpt lat="38.7863129" lon="16.217931"><ele>6.75</ele><time>2026-04-19T13:14:56.59Z</time></trkpt><trkpt lat="38.7864215" lon="16.2179988"><ele>7.0</ele><time>2026-04-19T13:14:57.589Z</time></trkpt><trkpt lat="38.7865536" lon="16.2180799"><ele>7.25</ele><time>2026-04-19T13:14:58.589Z</time></trkpt><trkpt lat="38.786681" lon="16.2181599"><ele>7.5</ele><time>2026-04-19T13:14:59.587Z</time></trkpt><trkpt lat="38.7868039" lon="16.2182374"><ele>7.75</ele><time>2026-04-19T13:15:00.584Z</time></trkpt><trkpt lat="38.7869184" lon="16.2183082"><ele>8.0</ele><time>2026-04-19T13:15:01.595Z</time></trkpt><trkpt lat="38.7870248" lon="16.2183695"><ele>7.6000000000000005</ele><time>2026-04-19T13:15:02.591Z</time></trkpt><trkpt lat="38.7871268" lon="16.2184312"><ele>7.200000000000001</ele><time>2026-04-19T13:15:03.587Z</time></trkpt><trkpt lat="38.7872223" lon="16.2184914"><ele>6.8</ele><time>2026-04-19T13:15:04.605Z</time></trkpt><trkpt lat="38.7873116" lon="16.2185426"><ele>6.4</ele><time>2026-04-19T13:15:05.588Z</time></trkpt><trkpt lat="38.7874061" lon="16.218592"><ele>6.0</ele><time>2026-04-19T13:15:06.582Z</time></trkpt><trkpt lat="38.7875004" lon="16.2186449"><ele>6.0</ele><time>2026-04-19T13:15:07.582Z</time></trkpt><trkpt lat="38.7875954" lon="16.2187045"><ele>6.0</ele><time>2026-04-19T13:15:08.581Z</time></trkpt><trkpt lat="38.7876927" lon="16.2187652"><ele>6.0</ele><time>2026-04-19T13:15:09.584Z</time></trkpt><trkpt lat="38.7877939" lon="16.2188278"><ele>6.0</ele><time>2026-04-19T13:15:10.583Z</time></trkpt><trkpt lat="38.7878965" lon="16.2188909"><ele>6.0</ele><time>2026-04-19T13:15:11.583Z</time></trkpt><trkpt lat="38.788005" lon="16.2189529"><ele>5.75</ele><time>2026-04-19T13:15:12.591Z</time></trkpt><trkpt lat="38.7881092" lon="16.2190133"><ele>5.5</ele><time>2026-04-19T13:15:13.581Z</time></trkpt><trkpt lat="38.7882191" lon="16.2190802"><ele>5.25</ele><time>2026-04-19T13:15:14.591Z</time></trkpt><trkpt lat="38.7883279" lon="16.2191458"><ele>5.0</ele><time>2026-04-19T13:15:15.585Z</time></trkpt><trkpt lat="38.7884244" lon="16.2192024"><ele>5.0</ele><time>2026-04-19T13:15:16.583Z</time></trkpt><trkpt lat="38.7885219" lon="16.2192645"><ele>5.0</ele><time>2026-04-19T13:15:17.583Z</time></trkpt><trkpt lat="38.7886289" lon="16.2193352"><ele>5.0</ele><time>2026-04-19T13:15:18.586Z</time></trkpt><trkpt lat="38.7887577" lon="16.2194262"><ele>5.0</ele><time>2026-04-19T13:15:19.583Z</time></trkpt><trkpt lat="38.7888947" lon="16.2195209"><ele>5.0</ele><time>2026-04-19T13:15:20.604Z</time></trkpt><trkpt lat="38.7890241" lon="16.2196095"><ele>5.0</ele><time>2026-04-19T13:15:21.583Z</time></trkpt><trkpt lat="38.7891409" lon="16.2196858"><ele>5.0</ele><time>2026-04-19T13:15:22.586Z</time></trkpt><trkpt lat="38.7892527" lon="16.2197576"><ele>5.0</ele><time>2026-04-19T13:15:23.584Z</time></trkpt><trkpt lat="38.7893466" lon="16.2198193"><ele>5.2</ele><time>2026-04-19T13:15:24.589Z</time></trkpt><trkpt lat="38.7894376" lon="16.2198741"><ele>5.4</ele><time>2026-04-19T13:15:25.588Z</time></trkpt><trkpt lat="38.7895331" lon="16.2199322"><ele>5.6</ele><time>2026-04-19T13:15:26.583Z</time></trkpt><trkpt lat="38.7896268" lon="16.2199988"><ele>5.8</ele><time>2026-04-19T13:15:27.585Z</time></trkpt><trkpt lat="38.7897151" lon="16.2200597"><ele>6.0</ele><time>2026-04-19T13:15:28.588Z</time></trkpt><trkpt lat="38.7898064" lon="16.2201234"><ele>6.0</ele><time>2026-04-19T13:15:29.584Z</time></trkpt><trkpt lat="38.789892" lon="16.2201787"><ele>6.0</ele><time>2026-04-19T13:15:30.579Z</time></trkpt><trkpt lat="38.7899652" lon="16.2202251"><ele>6.0</ele><time>2026-04-19T13:15:31.584Z</time></trkpt><trkpt lat="38.7900332" lon="16.2202708"><ele>6.0</ele><time>2026-04-19T13:15:32.587Z</time></trkpt><trkpt lat="38.7900979" lon="16.2203206"><ele>6.0</ele><time>2026-04-19T13:15:33.591Z</time></trkpt><trkpt lat="38.7901653" lon="16.2203693"><ele>6.0</ele><time>2026-04-19T13:15:34.596Z</time></trkpt><trkpt lat="38.7902263" lon="16.2204064"><ele>6.0</ele><time>2026-04-19T13:15:35.58Z</time></trkpt><trkpt lat="38.7903416" lon="16.2204771"><ele>6.0</ele><time>2026-04-19T13:15:37.583Z</time></trkpt><trkpt lat="38.7904169" lon="16.2205288"><ele>6.0</ele><time>2026-04-19T13:15:38.584Z</time></trkpt><trkpt lat="38.7904959" lon="16.2205899"><ele>6.0</ele><time>2026-04-19T13:15:39.582Z</time></trkpt><trkpt lat="38.79058" lon="16.2206526"><ele>6.0</ele><time>2026-04-19T13:15:40.584Z</time></trkpt><trkpt lat="38.7906648" lon="16.2207115"><ele>6.0</ele><time>2026-04-19T13:15:41.597Z</time></trkpt><trkpt lat="38.7907573" lon="16.2207707"><ele>6.0</ele><time>2026-04-19T13:15:42.581Z</time></trkpt><trkpt lat="38.7908608" lon="16.2208395"><ele>6.0</ele><time>2026-04-19T13:15:43.588Z</time></trkpt><trkpt lat="38.7909662" lon="16.2209113"><ele>6.0</ele><time>2026-04-19T13:15:44.582Z</time></trkpt><trkpt lat="38.791066" lon="16.2209807"><ele>6.5</ele><time>2026-04-19T13:15:45.581Z</time></trkpt><trkpt lat="38.791157" lon="16.2210405"><ele>7.0</ele><time>2026-04-19T13:15:46.587Z</time></trkpt><trkpt lat="38.7912625" lon="16.2211034"><ele>7.5</ele><time>2026-04-19T13:15:47.589Z</time></trkpt><trkpt lat="38.7914015" lon="16.2211857"><ele>8.0</ele><time>2026-04-19T13:15:48.597Z</time></trkpt><trkpt lat="38.7915425" lon="16.2212694"><ele>8.0</ele><time>2026-04-19T13:15:49.577Z</time></trkpt><trkpt lat="38.7916796" lon="16.2213575"><ele>8.0</ele><time>2026-04-19T13:15:50.583Z</time></trkpt><trkpt lat="38.7918019" lon="16.2214363"><ele>8.0</ele><time>2026-04-19T13:15:51.591Z</time></trkpt><trkpt lat="38.7919116" lon="16.2215084"><ele>8.0</ele><time>2026-04-19T13:15:52.583Z</time></trkpt><trkpt lat="38.7920153" lon="16.2215755"><ele>8.200000000000001</ele><time>2026-04-19T13:15:53.605Z</time></trkpt><trkpt lat="38.7921152" lon="16.2216404"><ele>8.4</ele><time>2026-04-19T13:15:54.583Z</time></trkpt><trkpt lat="38.7922118" lon="16.2217008"><ele>8.600000000000001</ele><time>2026-04-19T13:15:55.581Z</time></trkpt><trkpt lat="38.7923003" lon="16.2217515"><ele>8.8</ele><time>2026-04-19T13:15:56.582Z</time></trkpt><trkpt lat="38.7923881" lon="16.2217997"><ele>9.0</ele><time>2026-04-19T13:15:57.578Z</time></trkpt><trkpt lat="38.792488" lon="16.2218558"><ele>9.0</ele><time>2026-04-19T13:15:58.583Z</time></trkpt><trkpt lat="38.7926038" lon="16.2219272"><ele>9.0</ele><time>2026-04-19T13:15:59.581Z</time></trkpt><trkpt lat="38.7927076" lon="16.2219918"><ele>9.0</ele><time>2026-04-19T13:16:00.602Z</time></trkpt><trkpt lat="38.7928016" lon="16.2220499"><ele>9.0</ele><time>2026-04-19T13:16:01.584Z</time></trkpt><trkpt lat="38.7928947" lon="16.2221065"><ele>8.8</ele><time>2026-04-19T13:16:02.584Z</time></trkpt><trkpt lat="38.7929937" lon="16.2221832"><ele>8.600000000000001</ele><time>2026-04-19T13:16:03.588Z</time></trkpt><trkpt lat="38.793092" lon="16.2222576"><ele>8.4</ele><time>2026-04-19T13:16:04.587Z</time></trkpt><trkpt lat="38.7931866" lon="16.2223258"><ele>8.200000000000001</ele><time>2026-04-19T13:16:05.589Z</time></trkpt><trkpt lat="38.7932793" lon="16.2223942"><ele>8.0</ele><time>2026-04-19T13:16:06.602Z</time></trkpt><trkpt lat="38.7933757" lon="16.2224536"><ele>8.0</ele><time>2026-04-19T13:16:07.584Z</time></trkpt><trkpt lat="38.7934702" lon="16.2225095"><ele>8.0</ele><time>2026-04-19T13:16:08.584Z</time></trkpt><trkpt lat="38.7935669" lon="16.2225663"><ele>8.0</ele><time>2026-04-19T13:16:09.589Z</time></trkpt><trkpt lat="38.7936676" lon="16.2226251"><ele>8.0</ele><time>2026-04-19T13:16:10.582Z</time></trkpt><trkpt lat="38.7937648" lon="16.2226884"><ele>8.0</ele><time>2026-04-19T13:16:11.6Z</time></trkpt><trkpt lat="38.7938595" lon="16.2227495"><ele>8.0</ele><time>2026-04-19T13:16:12.586Z</time></trkpt><trkpt lat="38.7939567" lon="16.2228142"><ele>8.0</ele><time>2026-04-19T13:16:13.585Z</time></trkpt><trkpt lat="38.7940522" lon="16.2228775"><ele>8.0</ele><time>2026-04-19T13:16:14.586Z</time></trkpt><trkpt lat="38.7941463" lon="16.2229333"><ele>8.0</ele><time>2026-04-19T13:16:15.584Z</time></trkpt><trkpt lat="38.7942341" lon="16.2229884"><ele>8.0</ele><time>2026-04-19T13:16:16.583Z</time></trkpt><trkpt lat="38.7943169" lon="16.223043"><ele>7.800000000000001</ele><time>2026-04-19T13:16:17.584Z</time></trkpt><trkpt lat="38.7944005" lon="16.2230988"><ele>7.6000000000000005</ele><time>2026-04-19T13:16:18.586Z</time></trkpt><trkpt lat="38.7944892" lon="16.2231564"><ele>7.3999999999999995</ele><time>2026-04-19T13:16:19.585Z</time></trkpt><trkpt lat="38.7945816" lon="16.2232152"><ele>7.199999999999999</ele><time>2026-04-19T13:16:20.585Z</time></trkpt><trkpt lat="38.7946812" lon="16.223278"><ele>7.0</ele><time>2026-04-19T13:16:21.582Z</time></trkpt><trkpt lat="38.7947807" lon="16.2233422"><ele>7.199999999999999</ele><time>2026-04-19T13:16:22.618Z</time></trkpt><trkpt lat="38.7948737" lon="16.2234047"><ele>7.3999999999999995</ele><time>2026-04-19T13:16:23.587Z</time></trkpt><trkpt lat="38.7949605" lon="16.2234598"><ele>7.6000000000000005</ele><time>2026-04-19T13:16:24.585Z</time></trkpt><trkpt lat="38.7950355" lon="16.2235083"><ele>7.800000000000001</ele><time>2026-04-19T13:16:25.585Z</time></trkpt><trkpt lat="38.795107" lon="16.2235543"><ele>8.0</ele><time>2026-04-19T13:16:26.587Z</time></trkpt><trkpt lat="38.7951841" lon="16.2236043"><ele>8.0</ele><time>2026-04-19T13:16:27.579Z</time></trkpt><trkpt lat="38.7952661" lon="16.2236579"><ele>8.0</ele><time>2026-04-19T13:16:28.583Z</time></trkpt><trkpt lat="38.7953503" lon="16.2237165"><ele>8.0</ele><time>2026-04-19T13:16:29.581Z</time></trkpt><trkpt lat="38.7954402" lon="16.2237783"><ele>8.0</ele><time>2026-04-19T13:16:30.587Z</time></trkpt><trkpt lat="38.7955317" lon="16.2238441"><ele>8.0</ele><time>2026-04-19T13:16:31.583Z</time></trkpt><trkpt lat="38.7956255" lon="16.2239091"><ele>8.0</ele><time>2026-04-19T13:16:32.584Z</time></trkpt><trkpt lat="38.7957274" lon="16.2239747"><ele>8.0</ele><time>2026-04-19T13:16:33.622Z</time></trkpt><trkpt lat="38.7958271" lon="16.2240163"><ele>8.0</ele><time>2026-04-19T13:16:34.59Z</time></trkpt><trkpt lat="38.795922" lon="16.2240534"><ele>8.0</ele><time>2026-04-19T13:16:35.58Z</time></trkpt><trkpt lat="38.7959985" lon="16.2240764"><ele>8.0</ele><time>2026-04-19T13:16:36.592Z</time></trkpt><trkpt lat="38.7960755" lon="16.2241265"><ele>8.5</ele><time>2026-04-19T13:16:37.585Z</time></trkpt><trkpt lat="38.7961199" lon="16.2242237"><ele>9.0</ele><time>2026-04-19T13:16:38.591Z</time></trkpt><trkpt lat="38.7961731" lon="16.224316"><ele>9.5</ele><time>2026-04-19T13:16:39.595Z</time></trkpt><trkpt lat="38.7962198" lon="16.2243943"><ele>10.0</ele><time>2026-04-19T13:16:40.589Z</time></trkpt><trkpt lat="38.7962837" lon="16.2244637"><ele>10.5</ele><time>2026-04-19T13:16:41.586Z</time></trkpt><trkpt lat="38.796357" lon="16.224519"><ele>11.0</ele><time>2026-04-19T13:16:42.586Z</time></trkpt><trkpt lat="38.7964462" lon="16.224588"><ele>11.0</ele><time>2026-04-19T13:16:43.586Z</time></trkpt><trkpt lat="38.7965333" lon="16.2246658"><ele>11.0</ele><time>2026-04-19T13:16:44.586Z</time></trkpt><trkpt lat="38.7966141" lon="16.2247547"><ele>11.0</ele><time>2026-04-19T13:16:45.588Z</time></trkpt><trkpt lat="38.7966913" lon="16.2248315"><ele>11.0</ele><time>2026-04-19T13:16:46.581Z</time></trkpt><trkpt lat="38.7967787" lon="16.2248767"><ele>11.0</ele><time>2026-04-19T13:16:47.585Z</time></trkpt><trkpt lat="38.7968799" lon="16.2249085"><ele>10.600000000000001</ele><time>2026-04-19T13:16:48.597Z</time></trkpt><trkpt lat="38.7969671" lon="16.2249946"><ele>10.200000000000001</ele><time>2026-04-19T13:16:49.587Z</time></trkpt><trkpt lat="38.7970455" lon="16.2250824"><ele>9.8</ele><time>2026-04-19T13:16:50.588Z</time></trkpt><trkpt lat="38.7971229" lon="16.2251568"><ele>9.4</ele><time>2026-04-19T13:16:51.589Z</time></trkpt><trkpt lat="38.7971987" lon="16.2252197"><ele>9.0</ele><time>2026-04-19T13:16:52.585Z</time></trkpt><trkpt lat="38.7972642" lon="16.2252572"><ele>9.000000000000002</ele><time>2026-04-19T13:16:53.582Z</time></trkpt><trkpt lat="38.7973295" lon="16.2252928"><ele>9.0</ele><time>2026-04-19T13:16:54.583Z</time></trkpt><trkpt lat="38.7973927" lon="16.2253235"><ele>9.0</ele><time>2026-04-19T13:16:55.583Z</time></trkpt><trkpt lat="38.7974572" lon="16.2253572"><ele>9.0</ele><time>2026-04-19T13:16:56.587Z</time></trkpt><trkpt lat="38.7975214" lon="16.2253937"><ele>9.0</ele><time>2026-04-19T13:16:57.581Z</time></trkpt><trkpt lat="38.797595" lon="16.2254443"><ele>9.000000000000002</ele><time>2026-04-19T13:16:58.586Z</time></trkpt><trkpt lat="38.7976676" lon="16.2254914"><ele>9.0</ele><time>2026-04-19T13:16:59.581Z</time></trkpt><trkpt lat="38.7977357" lon="16.2255224"><ele>9.166666666666666</ele><time>2026-04-19T13:17:00.589Z</time></trkpt><trkpt lat="38.797804" lon="16.225553"><ele>9.333333333333334</ele><time>2026-04-19T13:17:01.591Z</time></trkpt><trkpt lat="38.7978799" lon="16.2255779"><ele>9.5</ele><time>2026-04-19T13:17:02.587Z</time></trkpt><trkpt lat="38.7979588" lon="16.2255905"><ele>9.666666666666668</ele><time>2026-04-19T13:17:03.606Z</time></trkpt><trkpt lat="38.7980355" lon="16.225621"><ele>9.833333333333334</ele><time>2026-04-19T13:17:04.586Z</time></trkpt><trkpt lat="38.7981086" lon="16.2256517"><ele>10.0</ele><time>2026-04-19T13:17:05.592Z</time></trkpt><trkpt lat="38.7981863" lon="16.2256799"><ele>10.0</ele><time>2026-04-19T13:17:06.583Z</time></trkpt><trkpt lat="38.7982615" lon="16.2257088"><ele>10.0</ele><time>2026-04-19T13:17:07.586Z</time></trkpt><trkpt lat="38.7983321" lon="16.2257494"><ele>10.0</ele><time>2026-04-19T13:17:08.584Z</time></trkpt><trkpt lat="38.7983978" lon="16.225787"><ele>10.0</ele><time>2026-04-19T13:17:09.581Z</time></trkpt><trkpt lat="38.7984578" lon="16.2258122"><ele>10.0</ele><time>2026-04-19T13:17:10.587Z</time></trkpt><trkpt lat="38.7985738" lon="16.2258696"><ele>10.0</ele><time>2026-04-19T13:17:12.587Z</time></trkpt><trkpt lat="38.7986974" lon="16.2259294"><ele>9.571428571428571</ele><time>2026-04-19T13:17:14.587Z</time></trkpt><trkpt lat="38.7987625" lon="16.2259636"><ele>9.142857142857142</ele><time>2026-04-19T13:17:15.585Z</time></trkpt><trkpt lat="38.7988238" lon="16.2260004"><ele>8.714285714285715</ele><time>2026-04-19T13:17:16.586Z</time></trkpt><trkpt lat="38.7988945" lon="16.2260433"><ele>8.285714285714285</ele><time>2026-04-19T13:17:17.587Z</time></trkpt><trkpt lat="38.7989646" lon="16.2260988"><ele>7.857142857142858</ele><time>2026-04-19T13:17:18.589Z</time></trkpt><trkpt lat="38.7990288" lon="16.2261411"><ele>7.428571428571429</ele><time>2026-04-19T13:17:19.587Z</time></trkpt><trkpt lat="38.7990886" lon="16.226184"><ele>7.0</ele><time>2026-04-19T13:17:20.582Z</time></trkpt><trkpt lat="38.7991523" lon="16.2262358"><ele>7.000000000000001</ele><time>2026-04-19T13:17:21.588Z</time></trkpt><trkpt lat="38.799213" lon="16.2262943"><ele>7.0</ele><time>2026-04-19T13:17:22.588Z</time></trkpt><trkpt lat="38.7992739" lon="16.2263548"><ele>7.0</ele><time>2026-04-19T13:17:23.582Z</time></trkpt><trkpt lat="38.7993431" lon="16.2264095"><ele>7.0</ele><time>2026-04-19T13:17:24.589Z</time></trkpt><trkpt lat="38.7994216" lon="16.2264624"><ele>7.000000000000001</ele><time>2026-04-19T13:17:25.585Z</time></trkpt><trkpt lat="38.7995001" lon="16.2265147"><ele>7.0</ele><time>2026-04-19T13:17:26.585Z</time></trkpt><trkpt lat="38.7995822" lon="16.226571"><ele>7.000000000000001</ele><time>2026-04-19T13:17:27.61Z</time></trkpt><trkpt lat="38.7996629" lon="16.2266306"><ele>7.0</ele><time>2026-04-19T13:17:28.585Z</time></trkpt><trkpt lat="38.7997389" lon="16.2266791"><ele>7.0</ele><time>2026-04-19T13:17:29.588Z</time></trkpt><trkpt lat="38.7998063" lon="16.2267321"><ele>7.0</ele><time>2026-04-19T13:17:30.582Z</time></trkpt><trkpt lat="38.79988" lon="16.2267962"><ele>7.000000000000001</ele><time>2026-04-19T13:17:31.581Z</time></trkpt><trkpt lat="38.7999533" lon="16.2268605"><ele>7.0</ele><time>2026-04-19T13:17:32.583Z</time></trkpt><trkpt lat="38.8000278" lon="16.2269277"><ele>7.0</ele><time>2026-04-19T13:17:33.587Z</time></trkpt><trkpt lat="38.8001027" lon="16.2269968"><ele>6.999999999999999</ele><time>2026-04-19T13:17:34.601Z</time></trkpt><trkpt lat="38.8001853" lon="16.2270652"><ele>6.999999999999999</ele><time>2026-04-19T13:17:35.583Z</time></trkpt><trkpt lat="38.8002675" lon="16.2271284"><ele>7.0</ele><time>2026-04-19T13:17:36.587Z</time></trkpt><trkpt lat="38.8003467" lon="16.2271873"><ele>7.0</ele><time>2026-04-19T13:17:37.581Z</time></trkpt><trkpt lat="38.8004242" lon="16.2272401"><ele>6.833333333333334</ele><time>2026-04-19T13:17:38.584Z</time></trkpt><trkpt lat="38.8005041" lon="16.2272908"><ele>6.666666666666667</ele><time>2026-04-19T13:17:39.586Z</time></trkpt><trkpt lat="38.800589" lon="16.2273388"><ele>6.5</ele><time>2026-04-19T13:17:40.583Z</time></trkpt><trkpt lat="38.8006722" lon="16.2273834"><ele>6.333333333333334</ele><time>2026-04-19T13:17:41.583Z</time></trkpt><trkpt lat="38.8007566" lon="16.2274217"><ele>6.166666666666667</ele><time>2026-04-19T13:17:42.585Z</time></trkpt><trkpt lat="38.8008363" lon="16.2274559"><ele>6.0</ele><time>2026-04-19T13:17:43.603Z</time></trkpt><trkpt lat="38.8009218" lon="16.2274892"><ele>6.0</ele><time>2026-04-19T13:17:44.583Z</time></trkpt><trkpt lat="38.8009982" lon="16.2275189"><ele>6.0</ele><time>2026-04-19T13:17:45.588Z</time></trkpt><trkpt lat="38.8010682" lon="16.2275673"><ele>6.0</ele><time>2026-04-19T13:17:46.586Z</time></trkpt><trkpt lat="38.8011418" lon="16.2276145"><ele>6.0</ele><time>2026-04-19T13:17:47.59Z</time></trkpt><trkpt lat="38.8012045" lon="16.2276601"><ele>6.0</ele><time>2026-04-19T13:17:48.583Z</time></trkpt><trkpt lat="38.8012691" lon="16.2276924"><ele>6.0</ele><time>2026-04-19T13:17:49.583Z</time></trkpt><trkpt lat="38.801342" lon="16.2277481"><ele>6.0</ele><time>2026-04-19T13:17:50.59Z</time></trkpt><trkpt lat="38.8014229" lon="16.2278231"><ele>6.0</ele><time>2026-04-19T13:17:51.585Z</time></trkpt><trkpt lat="38.8015188" lon="16.2279007"><ele>6.0</ele><time>2026-04-19T13:17:52.591Z</time></trkpt><trkpt lat="38.8016267" lon="16.2279724"><ele>6.0</ele><time>2026-04-19T13:17:53.587Z</time></trkpt><trkpt lat="38.801744" lon="16.2280499"><ele>6.25</ele><time>2026-04-19T13:17:54.584Z</time></trkpt><trkpt lat="38.8018586" lon="16.2281348"><ele>6.5</ele><time>2026-04-19T13:17:55.583Z</time></trkpt><trkpt lat="38.8019655" lon="16.2282039"><ele>6.75</ele><time>2026-04-19T13:17:56.583Z</time></trkpt><trkpt lat="38.8020636" lon="16.2282645"><ele>7.0</ele><time>2026-04-19T13:17:57.582Z</time></trkpt><trkpt lat="38.8021638" lon="16.2283273"><ele>7.25</ele><time>2026-04-19T13:17:58.587Z</time></trkpt><trkpt lat="38.80227" lon="16.2283933"><ele>7.5</ele><time>2026-04-19T13:17:59.581Z</time></trkpt><trkpt lat="38.8023842" lon="16.2284708"><ele>7.75</ele><time>2026-04-19T13:18:00.609Z</time></trkpt><trkpt lat="38.8024938" lon="16.2285442"><ele>8.0</ele><time>2026-04-19T13:18:01.581Z</time></trkpt><trkpt lat="38.8025931" lon="16.2286073"><ele>7.800000000000001</ele><time>2026-04-19T13:18:02.584Z</time></trkpt><trkpt lat="38.8026814" lon="16.228665"><ele>7.6000000000000005</ele><time>2026-04-19T13:18:03.586Z</time></trkpt><trkpt lat="38.8027798" lon="16.2287313"><ele>7.3999999999999995</ele><time>2026-04-19T13:18:04.584Z</time></trkpt><trkpt lat="38.8028827" lon="16.2288036"><ele>7.199999999999999</ele><time>2026-04-19T13:18:05.582Z</time></trkpt><trkpt lat="38.8029822" lon="16.2288697"><ele>7.0</ele><time>2026-04-19T13:18:06.604Z</time></trkpt><trkpt lat="38.803066" lon="16.2289281"><ele>7.333333333333334</ele><time>2026-04-19T13:18:07.581Z</time></trkpt><trkpt lat="38.8031415" lon="16.2289776"><ele>7.666666666666667</ele><time>2026-04-19T13:18:08.582Z</time></trkpt><trkpt lat="38.8032172" lon="16.2290286"><ele>8.0</ele><time>2026-04-19T13:18:09.589Z</time></trkpt><trkpt lat="38.8032898" lon="16.2290757"><ele>8.333333333333334</ele><time>2026-04-19T13:18:10.584Z</time></trkpt><trkpt lat="38.8033645" lon="16.2291211"><ele>8.666666666666666</ele><time>2026-04-19T13:18:11.604Z</time></trkpt><trkpt lat="38.8034405" lon="16.229166"><ele>9.0</ele><time>2026-04-19T13:18:12.583Z</time></trkpt><trkpt lat="38.8035263" lon="16.2291998"><ele>8.2</ele><time>2026-04-19T13:18:13.585Z</time></trkpt><trkpt lat="38.8036165" lon="16.2292326"><ele>7.4</ele><time>2026-04-19T13:18:14.587Z</time></trkpt><trkpt lat="38.8037105" lon="16.2292641"><ele>6.6</ele><time>2026-04-19T13:18:15.581Z</time></trkpt><trkpt lat="38.80381" lon="16.2292981"><ele>5.8</ele><time>2026-04-19T13:18:16.587Z</time></trkpt><trkpt lat="38.8039084" lon="16.2293332"><ele>5.0</ele><time>2026-04-19T13:18:17.586Z</time></trkpt><trkpt lat="38.8040047" lon="16.2293636"><ele>5.0</ele><time>2026-04-19T13:18:18.625Z</time></trkpt><trkpt lat="38.8040853" lon="16.2293994"><ele>5.0</ele><time>2026-04-19T13:18:19.59Z</time></trkpt><trkpt lat="38.804154" lon="16.2294471"><ele>5.0</ele><time>2026-04-19T13:18:20.585Z</time></trkpt><trkpt lat="38.8042075" lon="16.2295203"><ele>5.0</ele><time>2026-04-19T13:18:21.589Z</time></trkpt><trkpt lat="38.8042455" lon="16.2296135"><ele>5.0</ele><time>2026-04-19T13:18:22.588Z</time></trkpt><trkpt lat="38.8042528" lon="16.2297141"><ele>5.0</ele><time>2026-04-19T13:18:23.604Z</time></trkpt><trkpt lat="38.8042593" lon="16.2298153"><ele>6.5</ele><time>2026-04-19T13:18:24.586Z</time></trkpt><trkpt lat="38.8042374" lon="16.2299211"><ele>8.0</ele><time>2026-04-19T13:18:25.587Z</time></trkpt><trkpt lat="38.804216" lon="16.2300254"><ele>9.5</ele><time>2026-04-19T13:18:26.585Z</time></trkpt><trkpt lat="38.804164" lon="16.2301251"><ele>11.0</ele><time>2026-04-19T13:18:27.585Z</time></trkpt><trkpt lat="38.8041429" lon="16.2302181"><ele>12.500000000000002</ele><time>2026-04-19T13:18:28.598Z</time></trkpt><trkpt lat="38.8041367" lon="16.2303098"><ele>14.0</ele><time>2026-04-19T13:18:29.588Z</time></trkpt><trkpt lat="38.8041592" lon="16.2303981"><ele>14.0</ele><time>2026-04-19T13:18:30.586Z</time></trkpt><trkpt lat="38.8042247" lon="16.2304638"><ele>14.0</ele><time>2026-04-19T13:18:31.584Z</time></trkpt><trkpt lat="38.8043327" lon="16.2305133"><ele>14.0</ele><time>2026-04-19T13:18:32.583Z</time></trkpt><trkpt lat="38.8044712" lon="16.2305464"><ele>14.0</ele><time>2026-04-19T13:18:33.591Z</time></trkpt><trkpt lat="38.8046302" lon="16.2306123"><ele>14.666666666666668</ele><time>2026-04-19T13:18:34.581Z</time></trkpt><trkpt lat="38.8048237" lon="16.230687"><ele>15.333333333333332</ele><time>2026-04-19T13:18:35.601Z</time></trkpt><trkpt lat="38.8050303" lon="16.2307775"><ele>16.0</ele><time>2026-04-19T13:18:36.581Z</time></trkpt><trkpt lat="38.8052565" lon="16.2308784"><ele>16.0</ele><time>2026-04-19T13:18:37.591Z</time></trkpt><trkpt lat="38.8054804" lon="16.2309784"><ele>16.0</ele><time>2026-04-19T13:18:38.583Z</time></trkpt><trkpt lat="38.8056915" lon="16.2310703"><ele>16.0</ele><time>2026-04-19T13:18:39.592Z</time></trkpt><trkpt lat="38.8058898" lon="16.2311553"><ele>16.0</ele><time>2026-04-19T13:18:40.588Z</time></trkpt><trkpt lat="38.8061045" lon="16.2312497"><ele>16.0</ele><time>2026-04-19T13:18:41.588Z</time></trkpt><trkpt lat="38.8063125" lon="16.2313413"><ele>17.0</ele><time>2026-04-19T13:18:42.592Z</time></trkpt><trkpt lat="38.806488" lon="16.2314199"><ele>18.0</ele><time>2026-04-19T13:18:43.586Z</time></trkpt><trkpt lat="38.806643" lon="16.23149"><ele>19.0</ele><time>2026-04-19T13:18:44.584Z</time></trkpt><trkpt lat="38.8067823" lon="16.2315522"><ele>17.75</ele><time>2026-04-19T13:18:45.586Z</time></trkpt><trkpt lat="38.8069161" lon="16.2316112"><ele>16.5</ele><time>2026-04-19T13:18:46.583Z</time></trkpt><trkpt lat="38.8070487" lon="16.2316714"><ele>15.25</ele><time>2026-04-19T13:18:47.607Z</time></trkpt><trkpt lat="38.8071893" lon="16.2317305"><ele>14.0</ele><time>2026-04-19T13:18:48.583Z</time></trkpt><trkpt lat="38.8073357" lon="16.2317851"><ele>14.0</ele><time>2026-04-19T13:18:49.583Z</time></trkpt><trkpt lat="38.8074881" lon="16.2318456"><ele>14.0</ele><time>2026-04-19T13:18:50.579Z</time></trkpt><trkpt lat="38.8076402" lon="16.2319118"><ele>14.0</ele><time>2026-04-19T13:18:51.583Z</time></trkpt><trkpt lat="38.8077927" lon="16.2319813"><ele>13.0</ele><time>2026-04-19T13:18:52.586Z</time></trkpt><trkpt lat="38.807947" lon="16.2320597"><ele>12.0</ele><time>2026-04-19T13:18:53.59Z</time></trkpt><trkpt lat="38.8081116" lon="16.2321457"><ele>11.0</ele><time>2026-04-19T13:18:54.583Z</time></trkpt><trkpt lat="38.8082843" lon="16.2322332"><ele>11.666666666666666</ele><time>2026-04-19T13:18:55.58Z</time></trkpt><trkpt lat="38.8084609" lon="16.232324"><ele>12.333333333333332</ele><time>2026-04-19T13:18:56.58Z</time></trkpt><trkpt lat="38.8086261" lon="16.2324158"><ele>13.0</ele><time>2026-04-19T13:18:57.586Z</time></trkpt><trkpt lat="38.8087844" lon="16.2324928"><ele>13.0</ele><time>2026-04-19T13:18:58.581Z</time></trkpt><trkpt lat="38.8089321" lon="16.2325816"><ele>13.0</ele><time>2026-04-19T13:18:59.603Z</time></trkpt><trkpt lat="38.8090691" lon="16.2326709"><ele>13.0</ele><time>2026-04-19T13:19:00.586Z</time></trkpt><trkpt lat="38.8092021" lon="16.2327501"><ele>13.0</ele><time>2026-04-19T13:19:01.582Z</time></trkpt><trkpt lat="38.8093482" lon="16.2328283"><ele>13.0</ele><time>2026-04-19T13:19:02.583Z</time></trkpt><trkpt lat="38.8095011" lon="16.2329044"><ele>13.0</ele><time>2026-04-19T13:19:03.585Z</time></trkpt><trkpt lat="38.8096526" lon="16.2329771"><ele>13.0</ele><time>2026-04-19T13:19:04.578Z</time></trkpt><trkpt lat="38.8097956" lon="16.233045"><ele>13.0</ele><time>2026-04-19T13:19:05.585Z</time></trkpt><trkpt lat="38.8099317" lon="16.2331072"><ele>13.0</ele><time>2026-04-19T13:19:06.583Z</time></trkpt><trkpt lat="38.8100617" lon="16.2331608"><ele>13.0</ele><time>2026-04-19T13:19:07.586Z</time></trkpt><trkpt lat="38.8101827" lon="16.2332044"><ele>13.600000000000001</ele><time>2026-04-19T13:19:08.583Z</time></trkpt><trkpt lat="38.8102974" lon="16.2332434"><ele>14.200000000000001</ele><time>2026-04-19T13:19:09.585Z</time></trkpt><trkpt lat="38.8104052" lon="16.233277"><ele>14.8</ele><time>2026-04-19T13:19:10.582Z</time></trkpt><trkpt lat="38.8104992" lon="16.2333042"><ele>15.4</ele><time>2026-04-19T13:19:11.61Z</time></trkpt><trkpt lat="38.8105834" lon="16.233327"><ele>16.0</ele><time>2026-04-19T13:19:12.585Z</time></trkpt><trkpt lat="38.8106613" lon="16.2333476"><ele>15.999999999999998</ele><time>2026-04-19T13:19:13.584Z</time></trkpt><trkpt lat="38.8107455" lon="16.2333705"><ele>16.0</ele><time>2026-04-19T13:19:14.583Z</time></trkpt><trkpt lat="38.8108249" lon="16.2333986"><ele>16.0</ele><time>2026-04-19T13:19:15.583Z</time></trkpt><trkpt lat="38.8108939" lon="16.2334168"><ele>16.0</ele><time>2026-04-19T13:19:16.586Z</time></trkpt><trkpt lat="38.8109993" lon="16.2334368"><ele>15.999999999999998</ele><time>2026-04-19T13:19:18.604Z</time></trkpt><trkpt lat="38.811074" lon="16.2333782"><ele>16.0</ele><time>2026-04-19T13:19:21.584Z</time></trkpt><trkpt lat="38.8110985" lon="16.2332872"><ele>15.200000000000001</ele><time>2026-04-19T13:19:22.582Z</time></trkpt><trkpt lat="38.8111379" lon="16.2331742"><ele>14.400000000000002</ele><time>2026-04-19T13:19:23.58Z</time></trkpt><trkpt lat="38.8111847" lon="16.2330551"><ele>13.6</ele><time>2026-04-19T13:19:24.581Z</time></trkpt><trkpt lat="38.8112156" lon="16.2329021"><ele>12.8</ele><time>2026-04-19T13:19:25.584Z</time></trkpt><trkpt lat="38.8112482" lon="16.2327968"><ele>12.0</ele><time>2026-04-19T13:19:26.581Z</time></trkpt><trkpt lat="38.8113229" lon="16.2327569"><ele>10.333333333333334</ele><time>2026-04-19T13:19:28.587Z</time></trkpt><trkpt lat="38.8114182" lon="16.2328272"><ele>8.666666666666668</ele><time>2026-04-19T13:19:29.592Z</time></trkpt><trkpt lat="38.8115627" lon="16.2329137"><ele>7.0</ele><time>2026-04-19T13:19:30.593Z</time></trkpt><trkpt lat="38.8117311" lon="16.2330127"><ele>7.333333333333334</ele><time>2026-04-19T13:19:31.587Z</time></trkpt><trkpt lat="38.8119247" lon="16.2331102"><ele>7.666666666666666</ele><time>2026-04-19T13:19:32.591Z</time></trkpt><trkpt lat="38.8121229" lon="16.2331993"><ele>8.0</ele><time>2026-04-19T13:19:33.592Z</time></trkpt><trkpt lat="38.812301" lon="16.2332831"><ele>8.0</ele><time>2026-04-19T13:19:34.604Z</time></trkpt><trkpt lat="38.8124574" lon="16.2333496"><ele>8.0</ele><time>2026-04-19T13:19:35.587Z</time></trkpt><trkpt lat="38.8125982" lon="16.2333964"><ele>8.0</ele><time>2026-04-19T13:19:36.587Z</time></trkpt><trkpt lat="38.8127224" lon="16.233418"><ele>8.0</ele><time>2026-04-19T13:19:37.585Z</time></trkpt><trkpt lat="38.8128426" lon="16.2334346"><ele>7.25</ele><time>2026-04-19T13:19:38.589Z</time></trkpt><trkpt lat="38.8129447" lon="16.2334391"><ele>6.5</ele><time>2026-04-19T13:19:39.584Z</time></trkpt><trkpt lat="38.8130404" lon="16.2334767"><ele>5.75</ele><time>2026-04-19T13:19:40.604Z</time></trkpt><trkpt lat="38.8131483" lon="16.2335694"><ele>5.0</ele><time>2026-04-19T13:19:41.587Z</time></trkpt><trkpt lat="38.8132768" lon="16.2336938"><ele>5.0</ele><time>2026-04-19T13:19:42.586Z</time></trkpt><trkpt lat="38.8134269" lon="16.2338271"><ele>5.0</ele><time>2026-04-19T13:19:43.59Z</time></trkpt><trkpt lat="38.8135955" lon="16.2339414"><ele>5.0</ele><time>2026-04-19T13:19:44.589Z</time></trkpt><trkpt lat="38.8137881" lon="16.2340439"><ele>9.0</ele><time>2026-04-19T13:19:45.609Z</time></trkpt><trkpt lat="38.8140008" lon="16.234146"><ele>13.0</ele><time>2026-04-19T13:19:46.594Z</time></trkpt><trkpt lat="38.8142151" lon="16.2342467"><ele>12.666666666666666</ele><time>2026-04-19T13:19:47.59Z</time></trkpt><trkpt lat="38.8144138" lon="16.2343431"><ele>12.333333333333332</ele><time>2026-04-19T13:19:48.585Z</time></trkpt><trkpt lat="38.8145978" lon="16.2344288"><ele>12.0</ele><time>2026-04-19T13:19:49.585Z</time></trkpt><trkpt lat="38.8147659" lon="16.2345017"><ele>12.0</ele><time>2026-04-19T13:19:50.606Z</time></trkpt><trkpt lat="38.8149173" lon="16.2345617"><ele>12.0</ele><time>2026-04-19T13:19:51.583Z</time></trkpt><trkpt lat="38.815056" lon="16.2346209"><ele>12.0</ele><time>2026-04-19T13:19:52.586Z</time></trkpt><trkpt lat="38.8151829" lon="16.234689"><ele>12.0</ele><time>2026-04-19T13:19:53.582Z</time></trkpt><trkpt lat="38.8153052" lon="16.2347575"><ele>12.333333333333332</ele><time>2026-04-19T13:19:54.584Z</time></trkpt><trkpt lat="38.8154287" lon="16.2348371"><ele>12.666666666666666</ele><time>2026-04-19T13:19:55.583Z</time></trkpt><trkpt lat="38.8155732" lon="16.2349332"><ele>13.0</ele><time>2026-04-19T13:19:56.586Z</time></trkpt><trkpt lat="38.8157279" lon="16.2350382"><ele>13.0</ele><time>2026-04-19T13:19:57.583Z</time></trkpt><trkpt lat="38.8158763" lon="16.2351369"><ele>13.0</ele><time>2026-04-19T13:19:58.585Z</time></trkpt><trkpt lat="38.8160309" lon="16.2352402"><ele>13.0</ele><time>2026-04-19T13:19:59.598Z</time></trkpt><trkpt lat="38.8161829" lon="16.2353474"><ele>13.333333333333332</ele><time>2026-04-19T13:20:00.585Z</time></trkpt><trkpt lat="38.8163362" lon="16.2354528"><ele>13.666666666666668</ele><time>2026-04-19T13:20:01.587Z</time></trkpt><trkpt lat="38.8164882" lon="16.2355542"><ele>14.0</ele><time>2026-04-19T13:20:02.586Z</time></trkpt><trkpt lat="38.8166395" lon="16.2356555"><ele>14.0</ele><time>2026-04-19T13:20:03.583Z</time></trkpt><trkpt lat="38.8167945" lon="16.2357587"><ele>14.0</ele><time>2026-04-19T13:20:04.602Z</time></trkpt><trkpt lat="38.8169486" lon="16.2358643"><ele>14.0</ele><time>2026-04-19T13:20:05.585Z</time></trkpt><trkpt lat="38.8171054" lon="16.2359721"><ele>14.0</ele><time>2026-04-19T13:20:06.588Z</time></trkpt><trkpt lat="38.8172631" lon="16.2360778"><ele>14.0</ele><time>2026-04-19T13:20:07.586Z</time></trkpt><trkpt lat="38.8174152" lon="16.2361884"><ele>14.0</ele><time>2026-04-19T13:20:08.587Z</time></trkpt><trkpt lat="38.8175529" lon="16.2362805"><ele>14.0</ele><time>2026-04-19T13:20:09.617Z</time></trkpt><trkpt lat="38.8176782" lon="16.2363714"><ele>14.0</ele><time>2026-04-19T13:20:10.583Z</time></trkpt><trkpt lat="38.8177888" lon="16.2364571"><ele>14.0</ele><time>2026-04-19T13:20:11.584Z</time></trkpt><trkpt lat="38.8178983" lon="16.2365414"><ele>14.0</ele><time>2026-04-19T13:20:12.584Z</time></trkpt><trkpt lat="38.8180039" lon="16.2366264"><ele>15.0</ele><time>2026-04-19T13:20:13.584Z</time></trkpt><trkpt lat="38.8181065" lon="16.2367129"><ele>16.0</ele><time>2026-04-19T13:20:14.583Z</time></trkpt><trkpt lat="38.8182069" lon="16.2367984"><ele>17.0</ele><time>2026-04-19T13:20:15.601Z</time></trkpt><trkpt lat="38.8183086" lon="16.2368871"><ele>18.0</ele><time>2026-04-19T13:20:16.582Z</time></trkpt><trkpt lat="38.8184074" lon="16.2369815"><ele>16.5</ele><time>2026-04-19T13:20:17.583Z</time></trkpt><trkpt lat="38.8185069" lon="16.2370899"><ele>15.0</ele><time>2026-04-19T13:20:18.584Z</time></trkpt><trkpt lat="38.818615" lon="16.2372082"><ele>13.5</ele><time>2026-04-19T13:20:19.588Z</time></trkpt><trkpt lat="38.8187232" lon="16.2373355"><ele>12.0</ele><time>2026-04-19T13:20:20.585Z</time></trkpt><trkpt lat="38.8188372" lon="16.2374715"><ele>12.0</ele><time>2026-04-19T13:20:21.599Z</time></trkpt><trkpt lat="38.8189569" lon="16.2376146"><ele>12.0</ele><time>2026-04-19T13:20:22.589Z</time></trkpt><trkpt lat="38.8190771" lon="16.2377596"><ele>12.0</ele><time>2026-04-19T13:20:23.59Z</time></trkpt><trkpt lat="38.8192023" lon="16.237905"><ele>12.333333333333332</ele><time>2026-04-19T13:20:24.582Z</time></trkpt><trkpt lat="38.8193293" lon="16.2380508"><ele>12.666666666666666</ele><time>2026-04-19T13:20:25.587Z</time></trkpt><trkpt lat="38.8194516" lon="16.2381979"><ele>13.0</ele><time>2026-04-19T13:20:26.584Z</time></trkpt><trkpt lat="38.81957" lon="16.2383472"><ele>13.0</ele><time>2026-04-19T13:20:27.585Z</time></trkpt><trkpt lat="38.8196862" lon="16.2384936"><ele>13.0</ele><time>2026-04-19T13:20:28.584Z</time></trkpt><trkpt lat="38.8197962" lon="16.2386361"><ele>13.0</ele><time>2026-04-19T13:20:29.587Z</time></trkpt><trkpt lat="38.8199027" lon="16.2387814"><ele>13.0</ele><time>2026-04-19T13:20:30.586Z</time></trkpt><trkpt lat="38.8200065" lon="16.2389331"><ele>13.0</ele><time>2026-04-19T13:20:31.588Z</time></trkpt><trkpt lat="38.8201124" lon="16.2390877"><ele>13.0</ele><time>2026-04-19T13:20:32.604Z</time></trkpt><trkpt lat="38.8202151" lon="16.2392408"><ele>15.0</ele><time>2026-04-19T13:20:33.587Z</time></trkpt><trkpt lat="38.8203164" lon="16.2393976"><ele>17.0</ele><time>2026-04-19T13:20:34.583Z</time></trkpt><trkpt lat="38.8204141" lon="16.2395435"><ele>19.0</ele><time>2026-04-19T13:20:35.588Z</time></trkpt><trkpt lat="38.8205068" lon="16.2396873"><ele>19.0</ele><time>2026-04-19T13:20:36.589Z</time></trkpt><trkpt lat="38.8205987" lon="16.2398425"><ele>19.0</ele><time>2026-04-19T13:20:37.599Z</time></trkpt><trkpt lat="38.8207008" lon="16.2400084"><ele>19.0</ele><time>2026-04-19T13:20:38.587Z</time></trkpt><trkpt lat="38.8208073" lon="16.2401932"><ele>19.0</ele><time>2026-04-19T13:20:39.585Z</time></trkpt><trkpt lat="38.8209254" lon="16.2403946"><ele>19.0</ele><time>2026-04-19T13:20:40.586Z</time></trkpt><trkpt lat="38.8210539" lon="16.2406184"><ele>19.0</ele><time>2026-04-19T13:20:41.588Z</time></trkpt><trkpt lat="38.8211827" lon="16.2408573"><ele>19.333333333333332</ele><time>2026-04-19T13:20:42.593Z</time></trkpt><trkpt lat="38.8213053" lon="16.2410883"><ele>19.666666666666668</ele><time>2026-04-19T13:20:43.581Z</time></trkpt><trkpt lat="38.8214293" lon="16.2413242"><ele>20.0</ele><time>2026-04-19T13:20:44.6Z</time></trkpt><trkpt lat="38.8215621" lon="16.2415751"><ele>20.0</ele><time>2026-04-19T13:20:45.59Z</time></trkpt><trkpt lat="38.8216899" lon="16.2418209"><ele>20.0</ele><time>2026-04-19T13:20:46.588Z</time></trkpt><trkpt lat="38.8218111" lon="16.242044"><ele>20.0</ele><time>2026-04-19T13:20:47.58Z</time></trkpt><trkpt lat="38.8219244" lon="16.2422454"><ele>20.666666666666668</ele><time>2026-04-19T13:20:48.582Z</time></trkpt><trkpt lat="38.8220322" lon="16.2424333"><ele>21.333333333333332</ele><time>2026-04-19T13:20:49.581Z</time></trkpt><trkpt lat="38.8221285" lon="16.2426093"><ele>22.0</ele><time>2026-04-19T13:20:50.58Z</time></trkpt><trkpt lat="38.8222112" lon="16.2427725"><ele>22.0</ele><time>2026-04-19T13:20:51.602Z</time></trkpt><trkpt lat="38.8222789" lon="16.2429202"><ele>22.0</ele><time>2026-04-19T13:20:52.581Z</time></trkpt><trkpt lat="38.8223419" lon="16.2430624"><ele>22.0</ele><time>2026-04-19T13:20:53.583Z</time></trkpt><trkpt lat="38.8224043" lon="16.2432261"><ele>22.0</ele><time>2026-04-19T13:20:54.583Z</time></trkpt><trkpt lat="38.8224642" lon="16.2434198"><ele>21.333333333333332</ele><time>2026-04-19T13:20:55.584Z</time></trkpt><trkpt lat="38.8225066" lon="16.2436247"><ele>20.666666666666668</ele><time>2026-04-19T13:20:56.58Z</time></trkpt><trkpt lat="38.8225511" lon="16.2438308"><ele>20.0</ele><time>2026-04-19T13:20:57.598Z</time></trkpt><trkpt lat="38.8225941" lon="16.2440362"><ele>20.0</ele><time>2026-04-19T13:20:58.584Z</time></trkpt><trkpt lat="38.8226445" lon="16.2442418"><ele>20.0</ele><time>2026-04-19T13:20:59.589Z</time></trkpt><trkpt lat="38.8226978" lon="16.2444468"><ele>20.0</ele><time>2026-04-19T13:21:00.587Z</time></trkpt><trkpt lat="38.8227686" lon="16.244662"><ele>20.666666666666668</ele><time>2026-04-19T13:21:01.584Z</time></trkpt><trkpt lat="38.8228426" lon="16.2448733"><ele>21.333333333333332</ele><time>2026-04-19T13:21:02.591Z</time></trkpt><trkpt lat="38.8229237" lon="16.245094"><ele>22.0</ele><time>2026-04-19T13:21:03.583Z</time></trkpt><trkpt lat="38.8230038" lon="16.2453033"><ele>22.0</ele><time>2026-04-19T13:21:04.604Z</time></trkpt><trkpt lat="38.8230855" lon="16.2455046"><ele>22.0</ele><time>2026-04-19T13:21:05.59Z</time></trkpt><trkpt lat="38.823164" lon="16.2456936"><ele>22.0</ele><time>2026-04-19T13:21:06.587Z</time></trkpt><trkpt lat="38.8232385" lon="16.2458698"><ele>21.666666666666664</ele><time>2026-04-19T13:21:07.584Z</time></trkpt><trkpt lat="38.8233168" lon="16.2460453"><ele>21.333333333333332</ele><time>2026-04-19T13:21:08.587Z</time></trkpt><trkpt lat="38.8233937" lon="16.246225"><ele>21.0</ele><time>2026-04-19T13:21:09.582Z</time></trkpt><trkpt lat="38.8234674" lon="16.2463973"><ele>20.0</ele><time>2026-04-19T13:21:10.586Z</time></trkpt><trkpt lat="38.8235386" lon="16.246564"><ele>19.0</ele><time>2026-04-19T13:21:11.588Z</time></trkpt><trkpt lat="38.8236062" lon="16.2467277"><ele>18.0</ele><time>2026-04-19T13:21:12.582Z</time></trkpt><trkpt lat="38.8236798" lon="16.2469"><ele>17.0</ele><time>2026-04-19T13:21:13.589Z</time></trkpt><trkpt lat="38.8237525" lon="16.2470719"><ele>17.0</ele><time>2026-04-19T13:21:14.583Z</time></trkpt><trkpt lat="38.8238304" lon="16.2472404"><ele>17.0</ele><time>2026-04-19T13:21:15.597Z</time></trkpt><trkpt lat="38.8239152" lon="16.2474126"><ele>17.0</ele><time>2026-04-19T13:21:16.586Z</time></trkpt><trkpt lat="38.8240008" lon="16.2475869"><ele>17.0</ele><time>2026-04-19T13:21:17.585Z</time></trkpt><trkpt lat="38.8240932" lon="16.2477599"><ele>17.0</ele><time>2026-04-19T13:21:18.586Z</time></trkpt><trkpt lat="38.8241882" lon="16.24793"><ele>17.0</ele><time>2026-04-19T13:21:19.583Z</time></trkpt><trkpt lat="38.8242826" lon="16.2480922"><ele>17.333333333333336</ele><time>2026-04-19T13:21:20.584Z</time></trkpt><trkpt lat="38.8243791" lon="16.2482519"><ele>17.666666666666668</ele><time>2026-04-19T13:21:21.623Z</time></trkpt><trkpt lat="38.824476" lon="16.2484127"><ele>18.0</ele><time>2026-04-19T13:21:22.581Z</time></trkpt><trkpt lat="38.8245728" lon="16.24857"><ele>18.0</ele><time>2026-04-19T13:21:23.579Z</time></trkpt><trkpt lat="38.8246735" lon="16.2487226"><ele>18.0</ele><time>2026-04-19T13:21:24.586Z</time></trkpt><trkpt lat="38.8247697" lon="16.2488637"><ele>18.0</ele><time>2026-04-19T13:21:25.578Z</time></trkpt><trkpt lat="38.8248622" lon="16.24899"><ele>18.0</ele><time>2026-04-19T13:21:26.6Z</time></trkpt><trkpt lat="38.824958" lon="16.2491136"><ele>18.0</ele><time>2026-04-19T13:21:27.584Z</time></trkpt><trkpt lat="38.8250533" lon="16.2492388"><ele>18.0</ele><time>2026-04-19T13:21:28.587Z</time></trkpt><trkpt lat="38.8251477" lon="16.2493609"><ele>18.0</ele><time>2026-04-19T13:21:29.587Z</time></trkpt><trkpt lat="38.8252393" lon="16.2494765"><ele>18.0</ele><time>2026-04-19T13:21:30.584Z</time></trkpt><trkpt lat="38.8253373" lon="16.2495934"><ele>17.8</ele><time>2026-04-19T13:21:31.581Z</time></trkpt><trkpt lat="38.8254237" lon="16.2496948"><ele>17.6</ele><time>2026-04-19T13:21:32.596Z</time></trkpt><trkpt lat="38.8254984" lon="16.2497795"><ele>17.4</ele><time>2026-04-19T13:21:33.596Z</time></trkpt><trkpt lat="38.8255656" lon="16.2498538"><ele>17.2</ele><time>2026-04-19T13:21:34.583Z</time></trkpt><trkpt lat="38.8256285" lon="16.2499224"><ele>17.0</ele><time>2026-04-19T13:21:35.58Z</time></trkpt><trkpt lat="38.825694" lon="16.2499945"><ele>17.0</ele><time>2026-04-19T13:21:36.585Z</time></trkpt><trkpt lat="38.8257612" lon="16.2500635"><ele>17.0</ele><time>2026-04-19T13:21:37.578Z</time></trkpt><trkpt lat="38.8258259" lon="16.2501279"><ele>17.0</ele><time>2026-04-19T13:21:38.59Z</time></trkpt><trkpt lat="38.8258863" lon="16.2501802"><ele>17.0</ele><time>2026-04-19T13:21:39.584Z</time></trkpt><trkpt lat="38.8259435" lon="16.2502192"><ele>17.0</ele><time>2026-04-19T13:21:40.587Z</time></trkpt><trkpt lat="38.8260082" lon="16.2503197"><ele>17.0</ele><time>2026-04-19T13:21:42.587Z</time></trkpt><trkpt lat="38.8260102" lon="16.2504405"><ele>17.166666666666668</ele><time>2026-04-19T13:21:44.584Z</time></trkpt><trkpt lat="38.8260713" lon="16.2505904"><ele>17.333333333333336</ele><time>2026-04-19T13:21:46.587Z</time></trkpt><trkpt lat="38.8261188" lon="16.2506552"><ele>17.5</ele><time>2026-04-19T13:21:47.586Z</time></trkpt><trkpt lat="38.826178" lon="16.2507132"><ele>17.666666666666668</ele><time>2026-04-19T13:21:48.585Z</time></trkpt><trkpt lat="38.8262426" lon="16.2507774"><ele>17.833333333333332</ele><time>2026-04-19T13:21:49.603Z</time></trkpt><trkpt lat="38.8263052" lon="16.2508378"><ele>18.0</ele><time>2026-04-19T13:21:50.583Z</time></trkpt><trkpt lat="38.8263627" lon="16.2508825"><ele>18.0</ele><time>2026-04-19T13:21:51.587Z</time></trkpt><trkpt lat="38.8264616" lon="16.2509468"><ele>18.0</ele><time>2026-04-19T13:21:53.584Z</time></trkpt><trkpt lat="38.8265309" lon="16.250996"><ele>18.0</ele><time>2026-04-19T13:21:55.586Z</time></trkpt><trkpt lat="38.826594" lon="16.2510341"><ele>18.0</ele><time>2026-04-19T13:21:57.586Z</time></trkpt><trkpt lat="38.8266562" lon="16.2510989"><ele>18.0</ele><time>2026-04-19T13:22:00.587Z</time></trkpt><trkpt lat="38.8266218" lon="16.251214"><ele>18.0</ele><time>2026-04-19T13:22:03.586Z</time></trkpt><trkpt lat="38.8265264" lon="16.2512778"><ele>18.0</ele><time>2026-04-19T13:22:05.584Z</time></trkpt><trkpt lat="38.826462" lon="16.2513774"><ele>18.0</ele><time>2026-04-19T13:22:07.581Z</time></trkpt><trkpt lat="38.82654" lon="16.2514866"><ele>18.0</ele><time>2026-04-19T13:22:09.59Z</time></trkpt><trkpt lat="38.8265992" lon="16.2515521"><ele>18.0</ele><time>2026-04-19T13:22:10.582Z</time></trkpt><trkpt lat="38.8266975" lon="16.2516418"><ele>18.0</ele><time>2026-04-19T13:22:12.59Z</time></trkpt><trkpt lat="38.8267892" lon="16.2517287"><ele>18.166666666666668</ele><time>2026-04-19T13:22:15.587Z</time></trkpt><trkpt lat="38.8268372" lon="16.2517903"><ele>18.333333333333332</ele><time>2026-04-19T13:22:17.591Z</time></trkpt><trkpt lat="38.8268851" lon="16.2518485"><ele>18.5</ele><time>2026-04-19T13:22:19.589Z</time></trkpt><trkpt lat="38.8269554" lon="16.2519264"><ele>18.666666666666664</ele><time>2026-04-19T13:22:21.586Z</time></trkpt><trkpt lat="38.8270507" lon="16.2520137"><ele>18.833333333333332</ele><time>2026-04-19T13:22:23.605Z</time></trkpt><trkpt lat="38.8271048" lon="16.2520672"><ele>19.0</ele><time>2026-04-19T13:22:24.592Z</time></trkpt><trkpt lat="38.8271579" lon="16.2521193"><ele>19.0</ele><time>2026-04-19T13:22:25.581Z</time></trkpt><trkpt lat="38.8272396" lon="16.252212"><ele>19.0</ele><time>2026-04-19T13:22:27.586Z</time></trkpt><trkpt lat="38.8273174" lon="16.2522998"><ele>19.0</ele><time>2026-04-19T13:22:29.585Z</time></trkpt><trkpt lat="38.8274114" lon="16.2524086"><ele>19.0</ele><time>2026-04-19T13:22:31.596Z</time></trkpt><trkpt lat="38.8274733" lon="16.2524683"><ele>19.0</ele><time>2026-04-19T13:22:32.585Z</time></trkpt><trkpt lat="38.8275415" lon="16.2525269"><ele>19.333333333333332</ele><time>2026-04-19T13:22:33.588Z</time></trkpt><trkpt lat="38.8276118" lon="16.2525878"><ele>19.666666666666664</ele><time>2026-04-19T13:22:34.582Z</time></trkpt><trkpt lat="38.8276783" lon="16.2526443"><ele>20.0</ele><time>2026-04-19T13:22:35.583Z</time></trkpt><trkpt lat="38.8277543" lon="16.2527126"><ele>20.333333333333332</ele><time>2026-04-19T13:22:36.589Z</time></trkpt><trkpt lat="38.8278301" lon="16.2527691"><ele>20.666666666666668</ele><time>2026-04-19T13:22:37.584Z</time></trkpt><trkpt lat="38.8279017" lon="16.2528306"><ele>21.0</ele><time>2026-04-19T13:22:38.605Z</time></trkpt><trkpt lat="38.8279703" lon="16.2528849"><ele>21.0</ele><time>2026-04-19T13:22:39.583Z</time></trkpt><trkpt lat="38.8280409" lon="16.2529338"><ele>21.0</ele><time>2026-04-19T13:22:40.588Z</time></trkpt><trkpt lat="38.8281126" lon="16.2529922"><ele>21.0</ele><time>2026-04-19T13:22:41.584Z</time></trkpt><trkpt lat="38.8281791" lon="16.2530424"><ele>21.0</ele><time>2026-04-19T13:22:42.583Z</time></trkpt><trkpt lat="38.8282464" lon="16.2530947"><ele>21.0</ele><time>2026-04-19T13:22:43.581Z</time></trkpt><trkpt lat="38.8283087" lon="16.253148"><ele>21.0</ele><time>2026-04-19T13:22:44.582Z</time></trkpt><trkpt lat="38.8283637" lon="16.2531877"><ele>21.142857142857142</ele><time>2026-04-19T13:22:45.579Z</time></trkpt><trkpt lat="38.8284233" lon="16.253229"><ele>21.285714285714285</ele><time>2026-04-19T13:22:46.587Z</time></trkpt><trkpt lat="38.8284886" lon="16.2532758"><ele>21.42857142857143</ele><time>2026-04-19T13:22:47.586Z</time></trkpt><trkpt lat="38.8285481" lon="16.2533211"><ele>21.57142857142857</ele><time>2026-04-19T13:22:48.584Z</time></trkpt><trkpt lat="38.8286146" lon="16.2533655"><ele>21.714285714285715</ele><time>2026-04-19T13:22:49.592Z</time></trkpt><trkpt lat="38.8286721" lon="16.2534104"><ele>21.857142857142858</ele><time>2026-04-19T13:22:50.585Z</time></trkpt><trkpt lat="38.8287282" lon="16.2534506"><ele>22.0</ele><time>2026-04-19T13:22:51.59Z</time></trkpt><trkpt lat="38.8288168" lon="16.2535277"><ele>22.0</ele><time>2026-04-19T13:22:53.588Z</time></trkpt><trkpt lat="38.8289263" lon="16.2535972"><ele>22.0</ele><time>2026-04-19T13:22:55.584Z</time></trkpt><trkpt lat="38.8289866" lon="16.2536363"><ele>22.0</ele><time>2026-04-19T13:22:56.6Z</time></trkpt><trkpt lat="38.8290469" lon="16.2536804"><ele>22.0</ele><time>2026-04-19T13:22:57.585Z</time></trkpt><trkpt lat="38.8291075" lon="16.253725"><ele>22.0</ele><time>2026-04-19T13:22:58.582Z</time></trkpt><trkpt lat="38.8292041" lon="16.2537943"><ele>22.0</ele><time>2026-04-19T13:23:00.584Z</time></trkpt><trkpt lat="38.8293045" lon="16.2538542"><ele>21.6</ele><time>2026-04-19T13:23:02.583Z</time></trkpt><trkpt lat="38.8294033" lon="16.2539275"><ele>21.200000000000003</ele><time>2026-04-19T13:23:04.587Z</time></trkpt><trkpt lat="38.8295115" lon="16.2539987"><ele>20.8</ele><time>2026-04-19T13:23:06.58Z</time></trkpt><trkpt lat="38.8296183" lon="16.2540786"><ele>20.4</ele><time>2026-04-19T13:23:08.589Z</time></trkpt><trkpt lat="38.8296766" lon="16.2541229"><ele>20.0</ele><time>2026-04-19T13:23:09.583Z</time></trkpt><trkpt lat="38.8297378" lon="16.254171"><ele>21.0</ele><time>2026-04-19T13:23:10.602Z</time></trkpt><trkpt lat="38.829796" lon="16.2542122"><ele>22.0</ele><time>2026-04-19T13:23:11.581Z</time></trkpt><trkpt lat="38.8298988" lon="16.2542823"><ele>23.0</ele><time>2026-04-19T13:23:13.581Z</time></trkpt><trkpt lat="38.8299955" lon="16.2543491"><ele>24.0</ele><time>2026-04-19T13:23:15.582Z</time></trkpt><trkpt lat="38.8300917" lon="16.2544196"><ele>25.0</ele><time>2026-04-19T13:23:17.584Z</time></trkpt><trkpt lat="38.8302036" lon="16.254497"><ele>25.000000000000004</ele><time>2026-04-19T13:23:19.58Z</time></trkpt><trkpt lat="38.830267" lon="16.2545458"><ele>25.0</ele><time>2026-04-19T13:23:20.583Z</time></trkpt><trkpt lat="38.8303408" lon="16.2545955"><ele>25.0</ele><time>2026-04-19T13:23:21.596Z</time></trkpt><trkpt lat="38.8304098" lon="16.2546445"><ele>25.0</ele><time>2026-04-19T13:23:22.587Z</time></trkpt><trkpt lat="38.830467" lon="16.2546854"><ele>25.000000000000004</ele><time>2026-04-19T13:23:23.585Z</time></trkpt><trkpt lat="38.8305606" lon="16.2547518"><ele>25.0</ele><time>2026-04-19T13:23:25.586Z</time></trkpt><trkpt lat="38.830622" lon="16.2547906"><ele>25.0</ele><time>2026-04-19T13:23:26.609Z</time></trkpt><trkpt lat="38.8306842" lon="16.2548335"><ele>25.0</ele><time>2026-04-19T13:23:27.579Z</time></trkpt><trkpt lat="38.8307514" lon="16.2548847"><ele>25.0</ele><time>2026-04-19T13:23:28.58Z</time></trkpt><trkpt lat="38.8308143" lon="16.2549365"><ele>25.0</ele><time>2026-04-19T13:23:29.583Z</time></trkpt><trkpt lat="38.830913" lon="16.2550046"><ele>25.0</ele><time>2026-04-19T13:23:31.608Z</time></trkpt><trkpt lat="38.8310273" lon="16.2550768"><ele>25.0</ele><time>2026-04-19T13:23:33.586Z</time></trkpt><trkpt lat="38.8311192" lon="16.2551329"><ele>25.0</ele><time>2026-04-19T13:23:34.583Z</time></trkpt><trkpt lat="38.8312039" lon="16.2551937"><ele>25.0</ele><time>2026-04-19T13:23:35.583Z</time></trkpt><trkpt lat="38.8312843" lon="16.2552521"><ele>25.0</ele><time>2026-04-19T13:23:36.582Z</time></trkpt><trkpt lat="38.8313617" lon="16.2553071"><ele>25.0</ele><time>2026-04-19T13:23:37.584Z</time></trkpt><trkpt lat="38.831447" lon="16.2553725"><ele>25.000000000000004</ele><time>2026-04-19T13:23:38.581Z</time></trkpt><trkpt lat="38.8315305" lon="16.2554333"><ele>25.0</ele><time>2026-04-19T13:23:39.601Z</time></trkpt><trkpt lat="38.8316144" lon="16.2554852"><ele>25.0</ele><time>2026-04-19T13:23:40.579Z</time></trkpt><trkpt lat="38.8316889" lon="16.2555391"><ele>25.0</ele><time>2026-04-19T13:23:41.584Z</time></trkpt><trkpt lat="38.831752" lon="16.2555863"><ele>25.000000000000004</ele><time>2026-04-19T13:23:42.583Z</time></trkpt><trkpt lat="38.8318072" lon="16.2556285"><ele>25.0</ele><time>2026-04-19T13:23:43.586Z</time></trkpt><trkpt lat="38.8319075" lon="16.2556903"><ele>25.142857142857146</ele><time>2026-04-19T13:23:45.585Z</time></trkpt><trkpt lat="38.8319634" lon="16.2557278"><ele>25.285714285714285</ele><time>2026-04-19T13:23:46.584Z</time></trkpt><trkpt lat="38.8320302" lon="16.2557679"><ele>25.42857142857143</ele><time>2026-04-19T13:23:47.581Z</time></trkpt><trkpt lat="38.8321023" lon="16.2558122"><ele>25.571428571428573</ele><time>2026-04-19T13:23:48.584Z</time></trkpt><trkpt lat="38.8321714" lon="16.2558593"><ele>25.714285714285715</ele><time>2026-04-19T13:23:49.592Z</time></trkpt><trkpt lat="38.8322408" lon="16.2559047"><ele>25.857142857142858</ele><time>2026-04-19T13:23:50.581Z</time></trkpt><trkpt lat="38.8323045" lon="16.2559477"><ele>26.0</ele><time>2026-04-19T13:23:51.603Z</time></trkpt><trkpt lat="38.8323645" lon="16.255992"><ele>26.0</ele><time>2026-04-19T13:23:52.59Z</time></trkpt><trkpt lat="38.8324238" lon="16.256037"><ele>26.0</ele><time>2026-04-19T13:23:53.583Z</time></trkpt><trkpt lat="38.8324814" lon="16.256083"><ele>26.0</ele><time>2026-04-19T13:23:54.586Z</time></trkpt><trkpt lat="38.8325433" lon="16.2561258"><ele>26.0</ele><time>2026-04-19T13:23:55.586Z</time></trkpt><trkpt lat="38.8326059" lon="16.2561718"><ele>26.0</ele><time>2026-04-19T13:23:56.583Z</time></trkpt><trkpt lat="38.8326677" lon="16.2562206"><ele>26.0</ele><time>2026-04-19T13:23:57.596Z</time></trkpt><trkpt lat="38.8327423" lon="16.2562628"><ele>26.0</ele><time>2026-04-19T13:23:58.582Z</time></trkpt><trkpt lat="38.8328216" lon="16.2562848"><ele>26.0</ele><time>2026-04-19T13:23:59.585Z</time></trkpt><trkpt lat="38.8329084" lon="16.2563101"><ele>26.0</ele><time>2026-04-19T13:24:00.588Z</time></trkpt><trkpt lat="38.8329977" lon="16.2563616"><ele>26.0</ele><time>2026-04-19T13:24:01.588Z</time></trkpt><trkpt lat="38.8330857" lon="16.2564167"><ele>26.0</ele><time>2026-04-19T13:24:02.584Z</time></trkpt><trkpt lat="38.833178" lon="16.2564832"><ele>26.0</ele><time>2026-04-19T13:24:03.597Z</time></trkpt><trkpt lat="38.8332669" lon="16.2565418"><ele>25.999999999999996</ele><time>2026-04-19T13:24:04.584Z</time></trkpt><trkpt lat="38.8333494" lon="16.2565951"><ele>26.0</ele><time>2026-04-19T13:24:05.583Z</time></trkpt><trkpt lat="38.8334187" lon="16.2566421"><ele>26.0</ele><time>2026-04-19T13:24:06.584Z</time></trkpt><trkpt lat="38.8335077" lon="16.2567052"><ele>26.0</ele><time>2026-04-19T13:24:08.581Z</time></trkpt><trkpt lat="38.8335755" lon="16.2566854"><ele>25.999999999999996</ele><time>2026-04-19T13:24:11.589Z</time></trkpt><trkpt lat="38.8336274" lon="16.2566192"><ele>26.0</ele><time>2026-04-19T13:24:13.582Z</time></trkpt><trkpt lat="38.8336895" lon="16.2565789"><ele>26.5</ele><time>2026-04-19T13:24:16.584Z</time></trkpt><trkpt lat="38.8337632" lon="16.2566214"><ele>27.0</ele><time>2026-04-19T13:24:17.583Z</time></trkpt><trkpt lat="38.833871" lon="16.2566841"><ele>27.5</ele><time>2026-04-19T13:24:18.587Z</time></trkpt><trkpt lat="38.8340249" lon="16.2567528"><ele>28.0</ele><time>2026-04-19T13:24:19.586Z</time></trkpt><trkpt lat="38.8342475" lon="16.2568968"><ele>28.333333333333336</ele><time>2026-04-19T13:24:20.598Z</time></trkpt><trkpt lat="38.8344361" lon="16.2570271"><ele>28.666666666666664</ele><time>2026-04-19T13:24:21.585Z</time></trkpt><trkpt lat="38.8346155" lon="16.2571639"><ele>29.0</ele><time>2026-04-19T13:24:22.586Z</time></trkpt><trkpt lat="38.8347868" lon="16.2572905"><ele>29.0</ele><time>2026-04-19T13:24:23.587Z</time></trkpt><trkpt lat="38.8349502" lon="16.257387"><ele>29.0</ele><time>2026-04-19T13:24:24.581Z</time></trkpt><trkpt lat="38.8350972" lon="16.2574767"><ele>29.0</ele><time>2026-04-19T13:24:25.612Z</time></trkpt><trkpt lat="38.8352265" lon="16.2575623"><ele>28.75</ele><time>2026-04-19T13:24:26.585Z</time></trkpt><trkpt lat="38.8353569" lon="16.2576505"><ele>28.5</ele><time>2026-04-19T13:24:27.582Z</time></trkpt><trkpt lat="38.8354924" lon="16.2577463"><ele>28.25</ele><time>2026-04-19T13:24:28.584Z</time></trkpt><trkpt lat="38.8356231" lon="16.2578306"><ele>28.0</ele><time>2026-04-19T13:24:29.583Z</time></trkpt><trkpt lat="38.8357517" lon="16.257911"><ele>28.0</ele><time>2026-04-19T13:24:30.588Z</time></trkpt><trkpt lat="38.8358944" lon="16.2580025"><ele>28.0</ele><time>2026-04-19T13:24:31.606Z</time></trkpt><trkpt lat="38.8360393" lon="16.2580984"><ele>28.0</ele><time>2026-04-19T13:24:32.585Z</time></trkpt><trkpt lat="38.8361765" lon="16.2581887"><ele>28.0</ele><time>2026-04-19T13:24:33.59Z</time></trkpt><trkpt lat="38.8363006" lon="16.2582743"><ele>28.0</ele><time>2026-04-19T13:24:34.586Z</time></trkpt><trkpt lat="38.8364249" lon="16.2583562"><ele>28.0</ele><time>2026-04-19T13:24:35.59Z</time></trkpt><trkpt lat="38.83655" lon="16.2584362"><ele>28.0</ele><time>2026-04-19T13:24:36.584Z</time></trkpt><trkpt lat="38.8366613" lon="16.2585108"><ele>28.0</ele><time>2026-04-19T13:24:37.582Z</time></trkpt><trkpt lat="38.8367473" lon="16.258559"><ele>27.999999999999996</ele><time>2026-04-19T13:24:38.585Z</time></trkpt><trkpt lat="38.8368146" lon="16.2585994"><ele>27.999999999999996</ele><time>2026-04-19T13:24:39.587Z</time></trkpt><trkpt lat="38.8369169" lon="16.2586569"><ele>28.0</ele><time>2026-04-19T13:24:41.605Z</time></trkpt><trkpt lat="38.8369985" lon="16.2587479"><ele>28.0</ele><time>2026-04-19T13:24:46.583Z</time></trkpt><trkpt lat="38.836957" lon="16.2588665"><ele>27.833333333333336</ele><time>2026-04-19T13:24:48.594Z</time></trkpt><trkpt lat="38.8369133" lon="16.2589699"><ele>27.666666666666668</ele><time>2026-04-19T13:24:49.586Z</time></trkpt><trkpt lat="38.8368789" lon="16.2590791"><ele>27.5</ele><time>2026-04-19T13:24:50.591Z</time></trkpt><trkpt lat="38.8368465" lon="16.2591486"><ele>27.333333333333336</ele><time>2026-04-19T13:24:51.584Z</time></trkpt><trkpt lat="38.8368138" lon="16.259278"><ele>27.166666666666668</ele><time>2026-04-19T13:24:53.583Z</time></trkpt><trkpt lat="38.8367818" lon="16.2593604"><ele>27.0</ele><time>2026-04-19T13:24:55.591Z</time></trkpt><trkpt lat="38.8367389" lon="16.2594765"><ele>27.400000000000002</ele><time>2026-04-19T13:24:57.581Z</time></trkpt><trkpt lat="38.8367181" lon="16.2595541"><ele>27.800000000000004</ele><time>2026-04-19T13:24:58.581Z</time></trkpt><trkpt lat="38.8366683" lon="16.2596699"><ele>28.2</ele><time>2026-04-19T13:25:00.587Z</time></trkpt><trkpt lat="38.8365282" lon="16.259607"><ele>28.6</ele><time>2026-04-19T13:25:05.587Z</time></trkpt><trkpt lat="38.836462" lon="16.2595831"><ele>29.0</ele><time>2026-04-19T13:25:08.584Z</time></trkpt><trkpt lat="38.836375" lon="16.2596272"><ele>29.0</ele><time>2026-04-19T13:25:13.584Z</time></trkpt></trkseg></trk></gpx>